<?xml version="1.0" encoding="UTF-8" standalone="no" ?>
<gpx xmlns="http://www.topografix.com/GPX/1/1" xmlns:xsi="http://www.w3.org/2001/XMLSchema-instance" xsi:schemaLocation="http://www.topografix.com/GPX/1/1 http://www.topografix.com/GPX/1/1/gpx.xsd" version="1.1" creator="VisuGPX - https://www.visugpx.com">
  <metadata>
    <name>passerelles 2019-11-01 10:35</name>
    <desc><![CDATA[<p>Heure de départ: 10:35 1 nov. 2019<br/>Heure d'arrivée: 15:49 1 nov. 2019<br/>Distance: 35,2 km (05:14)<br/>Temps déplacement: 03:06<br/>Vitesse moyenne: 6,71 km/h<br/>Vitesse moyenne mouv.: 11,32 km/h<br/>Vitesse Max.: 40,88 km/h<br/>Altitude minimale: 443 m<br/>Altitude maximale: 819 m<br/>Vitesse de montée: 507,1 m/h<br/>Vitesse de descente: -828,4 m/h<br/>Gain d'altitude: 1617 m<br/>Perte d'altitude: -1634 m<br/>Temps de montée: 03:11<br/>Temps de descente: 01:58<br/></p><hr align="center" width="480" style="height: 2px; width: 517px"/>]]></desc>
  </metadata>
  <trk>
    <name><![CDATA[passerelles 2019-11-01 10:35]]></name>
    <desc><![CDATA[<p>Heure de départ: 10:35 1 nov. 2019<br/>Heure d'arrivée: 15:49 1 nov. 2019<br/>Distance: 35,2 km (05:14)<br/>Temps déplacement: 03:06<br/>Vitesse moyenne: 6,71 km/h<br/>Vitesse moyenne mouv.: 11,32 km/h<br/>Vitesse Max.: 40,88 km/h<br/>Altitude minimale: 443 m<br/>Altitude maximale: 819 m<br/>Vitesse de montée: 507,1 m/h<br/>Vitesse de descente: -828,4 m/h<br/>Gain d'altitude: 1617 m<br/>Perte d'altitude: -1634 m<br/>Temps de montée: 03:11<br/>Temps de descente: 01:58<br/></p><hr align="center" width="480" style="height: 2px; width: 517px"/>]]></desc>
    <trkseg>
      <trkpt lat="44.87824" lon="5.74226">
        <ele>770.79</ele>
        <time>2019-11-01T09:35:19Z</time>
      </trkpt>
      <trkpt lat="44.87822" lon="5.74225">
        <ele>771.15</ele>
        <time>2019-11-01T09:35:30Z</time>
      </trkpt>
      <trkpt lat="44.8782" lon="5.74227">
        <ele>770.55</ele>
        <time>2019-11-01T09:35:33Z</time>
      </trkpt>
      <trkpt lat="44.87818" lon="5.74231">
        <ele>769.29</ele>
        <time>2019-11-01T09:35:34Z</time>
      </trkpt>
      <trkpt lat="44.87816" lon="5.7423">
        <ele>768.91</ele>
        <time>2019-11-01T09:35:36Z</time>
      </trkpt>
      <trkpt lat="44.87814" lon="5.74227">
        <ele>769.01</ele>
        <time>2019-11-01T09:35:37Z</time>
      </trkpt>
      <trkpt lat="44.87814" lon="5.74224">
        <ele>768.62</ele>
        <time>2019-11-01T09:35:38Z</time>
      </trkpt>
      <trkpt lat="44.87813" lon="5.7422">
        <ele>768.57</ele>
        <time>2019-11-01T09:35:39Z</time>
      </trkpt>
      <trkpt lat="44.87812" lon="5.74215">
        <ele>768.42</ele>
        <time>2019-11-01T09:35:40Z</time>
      </trkpt>
      <trkpt lat="44.87812" lon="5.7421">
        <ele>768.58</ele>
        <time>2019-11-01T09:35:41Z</time>
      </trkpt>
      <trkpt lat="44.87811" lon="5.74204">
        <ele>768.7</ele>
        <time>2019-11-01T09:35:42Z</time>
      </trkpt>
      <trkpt lat="44.87809" lon="5.74198">
        <ele>768.66</ele>
        <time>2019-11-01T09:35:43Z</time>
      </trkpt>
      <trkpt lat="44.87807" lon="5.74193">
        <ele>768.58</ele>
        <time>2019-11-01T09:35:44Z</time>
      </trkpt>
      <trkpt lat="44.87804" lon="5.74188">
        <ele>768.14</ele>
        <time>2019-11-01T09:35:45Z</time>
      </trkpt>
      <trkpt lat="44.87801" lon="5.74184">
        <ele>767.24</ele>
        <time>2019-11-01T09:35:46Z</time>
      </trkpt>
      <trkpt lat="44.87798" lon="5.7418">
        <ele>766.48</ele>
        <time>2019-11-01T09:35:47Z</time>
      </trkpt>
      <trkpt lat="44.87796" lon="5.74177">
        <ele>765.69</ele>
        <time>2019-11-01T09:35:48Z</time>
      </trkpt>
      <trkpt lat="44.87794" lon="5.74176">
        <ele>764.61</ele>
        <time>2019-11-01T09:35:49Z</time>
      </trkpt>
      <trkpt lat="44.87793" lon="5.74174">
        <ele>764.01</ele>
        <time>2019-11-01T09:35:50Z</time>
      </trkpt>
      <trkpt lat="44.87791" lon="5.74171">
        <ele>762.5</ele>
        <time>2019-11-01T09:35:51Z</time>
      </trkpt>
      <trkpt lat="44.87789" lon="5.74169">
        <ele>760.52</ele>
        <time>2019-11-01T09:35:55Z</time>
      </trkpt>
      <trkpt lat="44.87791" lon="5.74167">
        <ele>759.95</ele>
        <time>2019-11-01T09:36:00Z</time>
      </trkpt>
      <trkpt lat="44.87794" lon="5.74165">
        <ele>760.38</ele>
        <time>2019-11-01T09:36:02Z</time>
      </trkpt>
      <trkpt lat="44.87797" lon="5.74166">
        <ele>760.5</ele>
        <time>2019-11-01T09:36:03Z</time>
      </trkpt>
      <trkpt lat="44.87799" lon="5.74167">
        <ele>760.39</ele>
        <time>2019-11-01T09:36:04Z</time>
      </trkpt>
      <trkpt lat="44.87801" lon="5.74166">
        <ele>760.57</ele>
        <time>2019-11-01T09:36:05Z</time>
      </trkpt>
      <trkpt lat="44.87803" lon="5.74166">
        <ele>760.56</ele>
        <time>2019-11-01T09:36:06Z</time>
      </trkpt>
      <trkpt lat="44.87805" lon="5.74165">
        <ele>760.55</ele>
        <time>2019-11-01T09:36:07Z</time>
      </trkpt>
      <trkpt lat="44.87808" lon="5.74166">
        <ele>760.41</ele>
        <time>2019-11-01T09:36:08Z</time>
      </trkpt>
      <trkpt lat="44.87811" lon="5.74166">
        <ele>760.16</ele>
        <time>2019-11-01T09:36:09Z</time>
      </trkpt>
      <trkpt lat="44.87813" lon="5.74165">
        <ele>760.01</ele>
        <time>2019-11-01T09:36:10Z</time>
      </trkpt>
      <trkpt lat="44.87815" lon="5.74165">
        <ele>760.04</ele>
        <time>2019-11-01T09:36:11Z</time>
      </trkpt>
      <trkpt lat="44.87817" lon="5.74165">
        <ele>759.98</ele>
        <time>2019-11-01T09:36:12Z</time>
      </trkpt>
      <trkpt lat="44.8782" lon="5.74166">
        <ele>759.47</ele>
        <time>2019-11-01T09:36:13Z</time>
      </trkpt>
      <trkpt lat="44.87822" lon="5.74165">
        <ele>759.1</ele>
        <time>2019-11-01T09:36:14Z</time>
      </trkpt>
      <trkpt lat="44.87824" lon="5.74165">
        <ele>759</ele>
        <time>2019-11-01T09:36:15Z</time>
      </trkpt>
      <trkpt lat="44.87826" lon="5.74165">
        <ele>758.75</ele>
        <time>2019-11-01T09:36:16Z</time>
      </trkpt>
      <trkpt lat="44.87828" lon="5.74164">
        <ele>758.61</ele>
        <time>2019-11-01T09:36:17Z</time>
      </trkpt>
      <trkpt lat="44.8783" lon="5.74164">
        <ele>758.57</ele>
        <time>2019-11-01T09:36:18Z</time>
      </trkpt>
      <trkpt lat="44.87833" lon="5.74161">
        <ele>758.94</ele>
        <time>2019-11-01T09:36:20Z</time>
      </trkpt>
      <trkpt lat="44.87835" lon="5.7416">
        <ele>759.16</ele>
        <time>2019-11-01T09:36:21Z</time>
      </trkpt>
      <trkpt lat="44.87838" lon="5.74159">
        <ele>759.98</ele>
        <time>2019-11-01T09:36:23Z</time>
      </trkpt>
      <trkpt lat="44.8784" lon="5.74157">
        <ele>760.53</ele>
        <time>2019-11-01T09:36:25Z</time>
      </trkpt>
      <trkpt lat="44.87841" lon="5.74154">
        <ele>761.23</ele>
        <time>2019-11-01T09:36:27Z</time>
      </trkpt>
      <trkpt lat="44.8784" lon="5.7415">
        <ele>761.52</ele>
        <time>2019-11-01T09:36:29Z</time>
      </trkpt>
      <trkpt lat="44.87838" lon="5.74149">
        <ele>761.06</ele>
        <time>2019-11-01T09:36:31Z</time>
      </trkpt>
      <trkpt lat="44.87835" lon="5.74148">
        <ele>760.55</ele>
        <time>2019-11-01T09:36:33Z</time>
      </trkpt>
      <trkpt lat="44.87832" lon="5.74147">
        <ele>760.48</ele>
        <time>2019-11-01T09:36:34Z</time>
      </trkpt>
      <trkpt lat="44.87828" lon="5.74146">
        <ele>760.18</ele>
        <time>2019-11-01T09:36:35Z</time>
      </trkpt>
      <trkpt lat="44.87824" lon="5.74145">
        <ele>759.74</ele>
        <time>2019-11-01T09:36:36Z</time>
      </trkpt>
      <trkpt lat="44.87822" lon="5.74144">
        <ele>759.24</ele>
        <time>2019-11-01T09:36:38Z</time>
      </trkpt>
      <trkpt lat="44.87818" lon="5.74141">
        <ele>758.7</ele>
        <time>2019-11-01T09:36:40Z</time>
      </trkpt>
      <trkpt lat="44.87816" lon="5.74139">
        <ele>758.31</ele>
        <time>2019-11-01T09:36:41Z</time>
      </trkpt>
      <trkpt lat="44.87812" lon="5.74136">
        <ele>757.99</ele>
        <time>2019-11-01T09:36:42Z</time>
      </trkpt>
      <trkpt lat="44.87808" lon="5.74133">
        <ele>757.61</ele>
        <time>2019-11-01T09:36:43Z</time>
      </trkpt>
      <trkpt lat="44.87803" lon="5.74129">
        <ele>757.29</ele>
        <time>2019-11-01T09:36:44Z</time>
      </trkpt>
      <trkpt lat="44.87797" lon="5.74124">
        <ele>756.84</ele>
        <time>2019-11-01T09:36:45Z</time>
      </trkpt>
      <trkpt lat="44.87791" lon="5.74118">
        <ele>756.43</ele>
        <time>2019-11-01T09:36:46Z</time>
      </trkpt>
      <trkpt lat="44.87785" lon="5.74111">
        <ele>756.02</ele>
        <time>2019-11-01T09:36:47Z</time>
      </trkpt>
      <trkpt lat="44.87778" lon="5.74103">
        <ele>755.55</ele>
        <time>2019-11-01T09:36:48Z</time>
      </trkpt>
      <trkpt lat="44.87772" lon="5.74094">
        <ele>754.92</ele>
        <time>2019-11-01T09:36:49Z</time>
      </trkpt>
      <trkpt lat="44.87765" lon="5.74086">
        <ele>754.31</ele>
        <time>2019-11-01T09:36:50Z</time>
      </trkpt>
      <trkpt lat="44.87759" lon="5.74078">
        <ele>753.71</ele>
        <time>2019-11-01T09:36:51Z</time>
      </trkpt>
      <trkpt lat="44.87752" lon="5.74071">
        <ele>753.18</ele>
        <time>2019-11-01T09:36:52Z</time>
      </trkpt>
      <trkpt lat="44.87746" lon="5.74065">
        <ele>752.6</ele>
        <time>2019-11-01T09:36:53Z</time>
      </trkpt>
      <trkpt lat="44.87739" lon="5.7406">
        <ele>752</ele>
        <time>2019-11-01T09:36:54Z</time>
      </trkpt>
      <trkpt lat="44.87732" lon="5.74056">
        <ele>751.2</ele>
        <time>2019-11-01T09:36:55Z</time>
      </trkpt>
      <trkpt lat="44.87726" lon="5.7405">
        <ele>750.46</ele>
        <time>2019-11-01T09:36:56Z</time>
      </trkpt>
      <trkpt lat="44.8772" lon="5.74047">
        <ele>749.61</ele>
        <time>2019-11-01T09:36:57Z</time>
      </trkpt>
      <trkpt lat="44.87716" lon="5.74044">
        <ele>748.59</ele>
        <time>2019-11-01T09:36:58Z</time>
      </trkpt>
      <trkpt lat="44.87714" lon="5.7404">
        <ele>747.86</ele>
        <time>2019-11-01T09:36:59Z</time>
      </trkpt>
      <trkpt lat="44.87711" lon="5.74036">
        <ele>746.94</ele>
        <time>2019-11-01T09:37:00Z</time>
      </trkpt>
      <trkpt lat="44.87709" lon="5.7403">
        <ele>746.04</ele>
        <time>2019-11-01T09:37:01Z</time>
      </trkpt>
      <trkpt lat="44.87706" lon="5.74026">
        <ele>745.07</ele>
        <time>2019-11-01T09:37:02Z</time>
      </trkpt>
      <trkpt lat="44.87703" lon="5.74021">
        <ele>743.72</ele>
        <time>2019-11-01T09:37:03Z</time>
      </trkpt>
      <trkpt lat="44.87699" lon="5.74015">
        <ele>742.41</ele>
        <time>2019-11-01T09:37:04Z</time>
      </trkpt>
      <trkpt lat="44.87695" lon="5.74007">
        <ele>740.97</ele>
        <time>2019-11-01T09:37:05Z</time>
      </trkpt>
      <trkpt lat="44.87689" lon="5.73998">
        <ele>739.48</ele>
        <time>2019-11-01T09:37:06Z</time>
      </trkpt>
      <trkpt lat="44.87683" lon="5.73989">
        <ele>738.27</ele>
        <time>2019-11-01T09:37:07Z</time>
      </trkpt>
      <trkpt lat="44.87677" lon="5.7398">
        <ele>736.72</ele>
        <time>2019-11-01T09:37:08Z</time>
      </trkpt>
      <trkpt lat="44.87672" lon="5.73968">
        <ele>735.27</ele>
        <time>2019-11-01T09:37:09Z</time>
      </trkpt>
      <trkpt lat="44.87667" lon="5.73958">
        <ele>733.85</ele>
        <time>2019-11-01T09:37:10Z</time>
      </trkpt>
      <trkpt lat="44.87662" lon="5.73947">
        <ele>732.38</ele>
        <time>2019-11-01T09:37:11Z</time>
      </trkpt>
      <trkpt lat="44.87655" lon="5.73936">
        <ele>731.03</ele>
        <time>2019-11-01T09:37:12Z</time>
      </trkpt>
      <trkpt lat="44.87648" lon="5.73924">
        <ele>729.92</ele>
        <time>2019-11-01T09:37:13Z</time>
      </trkpt>
      <trkpt lat="44.87641" lon="5.73915">
        <ele>728.82</ele>
        <time>2019-11-01T09:37:14Z</time>
      </trkpt>
      <trkpt lat="44.87636" lon="5.73907">
        <ele>726.95</ele>
        <time>2019-11-01T09:37:15Z</time>
      </trkpt>
      <trkpt lat="44.87632" lon="5.73899">
        <ele>724.99</ele>
        <time>2019-11-01T09:37:16Z</time>
      </trkpt>
      <trkpt lat="44.8763" lon="5.73892">
        <ele>723.35</ele>
        <time>2019-11-01T09:37:17Z</time>
      </trkpt>
      <trkpt lat="44.87627" lon="5.73883">
        <ele>721.74</ele>
        <time>2019-11-01T09:37:18Z</time>
      </trkpt>
      <trkpt lat="44.87624" lon="5.73875">
        <ele>720.63</ele>
        <time>2019-11-01T09:37:19Z</time>
      </trkpt>
      <trkpt lat="44.8762" lon="5.73867">
        <ele>719.45</ele>
        <time>2019-11-01T09:37:20Z</time>
      </trkpt>
      <trkpt lat="44.87614" lon="5.7386">
        <ele>718.12</ele>
        <time>2019-11-01T09:37:21Z</time>
      </trkpt>
      <trkpt lat="44.87606" lon="5.73857">
        <ele>716.67</ele>
        <time>2019-11-01T09:37:22Z</time>
      </trkpt>
      <trkpt lat="44.87599" lon="5.73855">
        <ele>715.4</ele>
        <time>2019-11-01T09:37:23Z</time>
      </trkpt>
      <trkpt lat="44.87593" lon="5.73854">
        <ele>714.31</ele>
        <time>2019-11-01T09:37:24Z</time>
      </trkpt>
      <trkpt lat="44.87588" lon="5.73853">
        <ele>712.94</ele>
        <time>2019-11-01T09:37:25Z</time>
      </trkpt>
      <trkpt lat="44.87583" lon="5.73852">
        <ele>711.55</ele>
        <time>2019-11-01T09:37:26Z</time>
      </trkpt>
      <trkpt lat="44.87577" lon="5.7385">
        <ele>709.94</ele>
        <time>2019-11-01T09:37:27Z</time>
      </trkpt>
      <trkpt lat="44.87571" lon="5.73849">
        <ele>708.27</ele>
        <time>2019-11-01T09:37:28Z</time>
      </trkpt>
      <trkpt lat="44.87562" lon="5.73847">
        <ele>706.78</ele>
        <time>2019-11-01T09:37:29Z</time>
      </trkpt>
      <trkpt lat="44.87553" lon="5.73845">
        <ele>705.22</ele>
        <time>2019-11-01T09:37:30Z</time>
      </trkpt>
      <trkpt lat="44.87544" lon="5.73844">
        <ele>703.49</ele>
        <time>2019-11-01T09:37:31Z</time>
      </trkpt>
      <trkpt lat="44.87536" lon="5.73841">
        <ele>701.92</ele>
        <time>2019-11-01T09:37:32Z</time>
      </trkpt>
      <trkpt lat="44.87528" lon="5.73837">
        <ele>700.47</ele>
        <time>2019-11-01T09:37:33Z</time>
      </trkpt>
      <trkpt lat="44.87521" lon="5.73833">
        <ele>698.85</ele>
        <time>2019-11-01T09:37:34Z</time>
      </trkpt>
      <trkpt lat="44.87515" lon="5.73829">
        <ele>697.38</ele>
        <time>2019-11-01T09:37:35Z</time>
      </trkpt>
      <trkpt lat="44.87508" lon="5.73825">
        <ele>695.96</ele>
        <time>2019-11-01T09:37:36Z</time>
      </trkpt>
      <trkpt lat="44.87502" lon="5.73823">
        <ele>694.48</ele>
        <time>2019-11-01T09:37:37Z</time>
      </trkpt>
      <trkpt lat="44.87495" lon="5.73822">
        <ele>692.78</ele>
        <time>2019-11-01T09:37:38Z</time>
      </trkpt>
      <trkpt lat="44.87487" lon="5.73822">
        <ele>691.22</ele>
        <time>2019-11-01T09:37:39Z</time>
      </trkpt>
      <trkpt lat="44.87479" lon="5.73821">
        <ele>690.82</ele>
        <time>2019-11-01T09:37:40Z</time>
      </trkpt>
      <trkpt lat="44.87471" lon="5.73819">
        <ele>689.86</ele>
        <time>2019-11-01T09:37:41Z</time>
      </trkpt>
      <trkpt lat="44.87464" lon="5.73817">
        <ele>689.36</ele>
        <time>2019-11-01T09:37:42Z</time>
      </trkpt>
      <trkpt lat="44.87458" lon="5.73814">
        <ele>688.72</ele>
        <time>2019-11-01T09:37:43Z</time>
      </trkpt>
      <trkpt lat="44.87453" lon="5.73812">
        <ele>688.11</ele>
        <time>2019-11-01T09:37:44Z</time>
      </trkpt>
      <trkpt lat="44.87448" lon="5.7381">
        <ele>687.79</ele>
        <time>2019-11-01T09:37:45Z</time>
      </trkpt>
      <trkpt lat="44.87443" lon="5.73807">
        <ele>687.41</ele>
        <time>2019-11-01T09:37:46Z</time>
      </trkpt>
      <trkpt lat="44.87438" lon="5.73806">
        <ele>687.09</ele>
        <time>2019-11-01T09:37:47Z</time>
      </trkpt>
      <trkpt lat="44.87433" lon="5.73807">
        <ele>686.64</ele>
        <time>2019-11-01T09:37:48Z</time>
      </trkpt>
      <trkpt lat="44.87427" lon="5.7381">
        <ele>686.51</ele>
        <time>2019-11-01T09:37:49Z</time>
      </trkpt>
      <trkpt lat="44.87421" lon="5.73816">
        <ele>685.63</ele>
        <time>2019-11-01T09:37:50Z</time>
      </trkpt>
      <trkpt lat="44.87417" lon="5.73823">
        <ele>685.08</ele>
        <time>2019-11-01T09:37:51Z</time>
      </trkpt>
      <trkpt lat="44.87414" lon="5.7383">
        <ele>684.71</ele>
        <time>2019-11-01T09:37:52Z</time>
      </trkpt>
      <trkpt lat="44.87411" lon="5.73839">
        <ele>684.32</ele>
        <time>2019-11-01T09:37:53Z</time>
      </trkpt>
      <trkpt lat="44.87407" lon="5.73847">
        <ele>683.99</ele>
        <time>2019-11-01T09:37:54Z</time>
      </trkpt>
      <trkpt lat="44.87403" lon="5.73856">
        <ele>683.33</ele>
        <time>2019-11-01T09:37:55Z</time>
      </trkpt>
      <trkpt lat="44.874" lon="5.73866">
        <ele>682.57</ele>
        <time>2019-11-01T09:37:56Z</time>
      </trkpt>
      <trkpt lat="44.87397" lon="5.73875">
        <ele>682.07</ele>
        <time>2019-11-01T09:37:57Z</time>
      </trkpt>
      <trkpt lat="44.87394" lon="5.73885">
        <ele>681.63</ele>
        <time>2019-11-01T09:37:58Z</time>
      </trkpt>
      <trkpt lat="44.8739" lon="5.73894">
        <ele>681.29</ele>
        <time>2019-11-01T09:37:59Z</time>
      </trkpt>
      <trkpt lat="44.87386" lon="5.73903">
        <ele>680.91</ele>
        <time>2019-11-01T09:38:00Z</time>
      </trkpt>
      <trkpt lat="44.87382" lon="5.73911">
        <ele>680.17</ele>
        <time>2019-11-01T09:38:01Z</time>
      </trkpt>
      <trkpt lat="44.87378" lon="5.73919">
        <ele>679.52</ele>
        <time>2019-11-01T09:38:02Z</time>
      </trkpt>
      <trkpt lat="44.87375" lon="5.73928">
        <ele>679.19</ele>
        <time>2019-11-01T09:38:03Z</time>
      </trkpt>
      <trkpt lat="44.87371" lon="5.73936">
        <ele>678.95</ele>
        <time>2019-11-01T09:38:04Z</time>
      </trkpt>
      <trkpt lat="44.87367" lon="5.73944">
        <ele>678.67</ele>
        <time>2019-11-01T09:38:05Z</time>
      </trkpt>
      <trkpt lat="44.87363" lon="5.73951">
        <ele>678.45</ele>
        <time>2019-11-01T09:38:06Z</time>
      </trkpt>
      <trkpt lat="44.87357" lon="5.73957">
        <ele>678.45</ele>
        <time>2019-11-01T09:38:07Z</time>
      </trkpt>
      <trkpt lat="44.87351" lon="5.73964">
        <ele>678.31</ele>
        <time>2019-11-01T09:38:08Z</time>
      </trkpt>
      <trkpt lat="44.87344" lon="5.7397">
        <ele>678.13</ele>
        <time>2019-11-01T09:38:09Z</time>
      </trkpt>
      <trkpt lat="44.87338" lon="5.73976">
        <ele>677.44</ele>
        <time>2019-11-01T09:38:10Z</time>
      </trkpt>
      <trkpt lat="44.87331" lon="5.73984">
        <ele>676.61</ele>
        <time>2019-11-01T09:38:11Z</time>
      </trkpt>
      <trkpt lat="44.87326" lon="5.73994">
        <ele>675.17</ele>
        <time>2019-11-01T09:38:12Z</time>
      </trkpt>
      <trkpt lat="44.87322" lon="5.74005">
        <ele>673.68</ele>
        <time>2019-11-01T09:38:13Z</time>
      </trkpt>
      <trkpt lat="44.87318" lon="5.74017">
        <ele>672.33</ele>
        <time>2019-11-01T09:38:14Z</time>
      </trkpt>
      <trkpt lat="44.87312" lon="5.74029">
        <ele>670.94</ele>
        <time>2019-11-01T09:38:15Z</time>
      </trkpt>
      <trkpt lat="44.87308" lon="5.74042">
        <ele>669.48</ele>
        <time>2019-11-01T09:38:16Z</time>
      </trkpt>
      <trkpt lat="44.87303" lon="5.74056">
        <ele>668.06</ele>
        <time>2019-11-01T09:38:17Z</time>
      </trkpt>
      <trkpt lat="44.87298" lon="5.74069">
        <ele>666.86</ele>
        <time>2019-11-01T09:38:18Z</time>
      </trkpt>
      <trkpt lat="44.87293" lon="5.74082">
        <ele>665.73</ele>
        <time>2019-11-01T09:38:19Z</time>
      </trkpt>
      <trkpt lat="44.87288" lon="5.74092">
        <ele>664.62</ele>
        <time>2019-11-01T09:38:20Z</time>
      </trkpt>
      <trkpt lat="44.87285" lon="5.74102">
        <ele>663.66</ele>
        <time>2019-11-01T09:38:21Z</time>
      </trkpt>
      <trkpt lat="44.87282" lon="5.74108">
        <ele>662.74</ele>
        <time>2019-11-01T09:38:22Z</time>
      </trkpt>
      <trkpt lat="44.87279" lon="5.74112">
        <ele>662.33</ele>
        <time>2019-11-01T09:38:23Z</time>
      </trkpt>
      <trkpt lat="44.87277" lon="5.74115">
        <ele>661.85</ele>
        <time>2019-11-01T09:38:24Z</time>
      </trkpt>
      <trkpt lat="44.87275" lon="5.74119">
        <ele>661.5</ele>
        <time>2019-11-01T09:38:25Z</time>
      </trkpt>
      <trkpt lat="44.87275" lon="5.74124">
        <ele>661.11</ele>
        <time>2019-11-01T09:38:26Z</time>
      </trkpt>
      <trkpt lat="44.87275" lon="5.74128">
        <ele>660.86</ele>
        <time>2019-11-01T09:38:27Z</time>
      </trkpt>
      <trkpt lat="44.87276" lon="5.74133">
        <ele>660.5</ele>
        <time>2019-11-01T09:38:28Z</time>
      </trkpt>
      <trkpt lat="44.87276" lon="5.74138">
        <ele>660.53</ele>
        <time>2019-11-01T09:38:29Z</time>
      </trkpt>
      <trkpt lat="44.87276" lon="5.74142">
        <ele>660.75</ele>
        <time>2019-11-01T09:38:30Z</time>
      </trkpt>
      <trkpt lat="44.87276" lon="5.74148">
        <ele>661.31</ele>
        <time>2019-11-01T09:38:31Z</time>
      </trkpt>
      <trkpt lat="44.87276" lon="5.74152">
        <ele>661.9</ele>
        <time>2019-11-01T09:38:32Z</time>
      </trkpt>
      <trkpt lat="44.87276" lon="5.74157">
        <ele>662.07</ele>
        <time>2019-11-01T09:38:33Z</time>
      </trkpt>
      <trkpt lat="44.87277" lon="5.74161">
        <ele>662.55</ele>
        <time>2019-11-01T09:38:34Z</time>
      </trkpt>
      <trkpt lat="44.87277" lon="5.74165">
        <ele>662.97</ele>
        <time>2019-11-01T09:38:35Z</time>
      </trkpt>
      <trkpt lat="44.87278" lon="5.7417">
        <ele>663.37</ele>
        <time>2019-11-01T09:38:36Z</time>
      </trkpt>
      <trkpt lat="44.87278" lon="5.74175">
        <ele>663.71</ele>
        <time>2019-11-01T09:38:37Z</time>
      </trkpt>
      <trkpt lat="44.87279" lon="5.7418">
        <ele>663.88</ele>
        <time>2019-11-01T09:38:38Z</time>
      </trkpt>
      <trkpt lat="44.8728" lon="5.74185">
        <ele>664</ele>
        <time>2019-11-01T09:38:39Z</time>
      </trkpt>
      <trkpt lat="44.87281" lon="5.74189">
        <ele>664.24</ele>
        <time>2019-11-01T09:38:40Z</time>
      </trkpt>
      <trkpt lat="44.87282" lon="5.74194">
        <ele>664.46</ele>
        <time>2019-11-01T09:38:41Z</time>
      </trkpt>
      <trkpt lat="44.87284" lon="5.74198">
        <ele>664.52</ele>
        <time>2019-11-01T09:38:42Z</time>
      </trkpt>
      <trkpt lat="44.87285" lon="5.74201">
        <ele>664.68</ele>
        <time>2019-11-01T09:38:43Z</time>
      </trkpt>
      <trkpt lat="44.87287" lon="5.74206">
        <ele>664.87</ele>
        <time>2019-11-01T09:38:44Z</time>
      </trkpt>
      <trkpt lat="44.87289" lon="5.74209">
        <ele>664.99</ele>
        <time>2019-11-01T09:38:45Z</time>
      </trkpt>
      <trkpt lat="44.87292" lon="5.74213">
        <ele>665.17</ele>
        <time>2019-11-01T09:38:46Z</time>
      </trkpt>
      <trkpt lat="44.87294" lon="5.74216">
        <ele>665.37</ele>
        <time>2019-11-01T09:38:47Z</time>
      </trkpt>
      <trkpt lat="44.87296" lon="5.74219">
        <ele>665.56</ele>
        <time>2019-11-01T09:38:48Z</time>
      </trkpt>
      <trkpt lat="44.87298" lon="5.74221">
        <ele>665.9</ele>
        <time>2019-11-01T09:38:49Z</time>
      </trkpt>
      <trkpt lat="44.87301" lon="5.74224">
        <ele>666.43</ele>
        <time>2019-11-01T09:38:50Z</time>
      </trkpt>
      <trkpt lat="44.87303" lon="5.74227">
        <ele>666.65</ele>
        <time>2019-11-01T09:38:51Z</time>
      </trkpt>
      <trkpt lat="44.87305" lon="5.7423">
        <ele>666.72</ele>
        <time>2019-11-01T09:38:52Z</time>
      </trkpt>
      <trkpt lat="44.87308" lon="5.74233">
        <ele>666.88</ele>
        <time>2019-11-01T09:38:53Z</time>
      </trkpt>
      <trkpt lat="44.87311" lon="5.74235">
        <ele>667.21</ele>
        <time>2019-11-01T09:38:54Z</time>
      </trkpt>
      <trkpt lat="44.87313" lon="5.74237">
        <ele>667.45</ele>
        <time>2019-11-01T09:38:55Z</time>
      </trkpt>
      <trkpt lat="44.87315" lon="5.7424">
        <ele>667.66</ele>
        <time>2019-11-01T09:38:56Z</time>
      </trkpt>
      <trkpt lat="44.87318" lon="5.74243">
        <ele>667.79</ele>
        <time>2019-11-01T09:38:57Z</time>
      </trkpt>
      <trkpt lat="44.8732" lon="5.74246">
        <ele>667.9</ele>
        <time>2019-11-01T09:38:58Z</time>
      </trkpt>
      <trkpt lat="44.87322" lon="5.74248">
        <ele>668.14</ele>
        <time>2019-11-01T09:38:59Z</time>
      </trkpt>
      <trkpt lat="44.87325" lon="5.7425">
        <ele>668.29</ele>
        <time>2019-11-01T09:39:00Z</time>
      </trkpt>
      <trkpt lat="44.87328" lon="5.74253">
        <ele>668.47</ele>
        <time>2019-11-01T09:39:01Z</time>
      </trkpt>
      <trkpt lat="44.8733" lon="5.74256">
        <ele>668.81</ele>
        <time>2019-11-01T09:39:02Z</time>
      </trkpt>
      <trkpt lat="44.87332" lon="5.74258">
        <ele>669.05</ele>
        <time>2019-11-01T09:39:03Z</time>
      </trkpt>
      <trkpt lat="44.87335" lon="5.74261">
        <ele>669.4</ele>
        <time>2019-11-01T09:39:04Z</time>
      </trkpt>
      <trkpt lat="44.87337" lon="5.74264">
        <ele>669.71</ele>
        <time>2019-11-01T09:39:05Z</time>
      </trkpt>
      <trkpt lat="44.87339" lon="5.74266">
        <ele>669.88</ele>
        <time>2019-11-01T09:39:06Z</time>
      </trkpt>
      <trkpt lat="44.87341" lon="5.74269">
        <ele>670.14</ele>
        <time>2019-11-01T09:39:07Z</time>
      </trkpt>
      <trkpt lat="44.87344" lon="5.74271">
        <ele>670.36</ele>
        <time>2019-11-01T09:39:08Z</time>
      </trkpt>
      <trkpt lat="44.87346" lon="5.74273">
        <ele>670.63</ele>
        <time>2019-11-01T09:39:09Z</time>
      </trkpt>
      <trkpt lat="44.87349" lon="5.74275">
        <ele>670.92</ele>
        <time>2019-11-01T09:39:10Z</time>
      </trkpt>
      <trkpt lat="44.87351" lon="5.74277">
        <ele>671.08</ele>
        <time>2019-11-01T09:39:11Z</time>
      </trkpt>
      <trkpt lat="44.87354" lon="5.74279">
        <ele>671.34</ele>
        <time>2019-11-01T09:39:12Z</time>
      </trkpt>
      <trkpt lat="44.87357" lon="5.74281">
        <ele>671.63</ele>
        <time>2019-11-01T09:39:13Z</time>
      </trkpt>
      <trkpt lat="44.8736" lon="5.74282">
        <ele>671.71</ele>
        <time>2019-11-01T09:39:14Z</time>
      </trkpt>
      <trkpt lat="44.87363" lon="5.74283">
        <ele>671.81</ele>
        <time>2019-11-01T09:39:15Z</time>
      </trkpt>
      <trkpt lat="44.87366" lon="5.74284">
        <ele>671.98</ele>
        <time>2019-11-01T09:39:16Z</time>
      </trkpt>
      <trkpt lat="44.87369" lon="5.74284">
        <ele>672.1</ele>
        <time>2019-11-01T09:39:17Z</time>
      </trkpt>
      <trkpt lat="44.87371" lon="5.74285">
        <ele>672.27</ele>
        <time>2019-11-01T09:39:18Z</time>
      </trkpt>
      <trkpt lat="44.87374" lon="5.74286">
        <ele>672.4</ele>
        <time>2019-11-01T09:39:19Z</time>
      </trkpt>
      <trkpt lat="44.87377" lon="5.74286">
        <ele>672.64</ele>
        <time>2019-11-01T09:39:20Z</time>
      </trkpt>
      <trkpt lat="44.8738" lon="5.74287">
        <ele>672.86</ele>
        <time>2019-11-01T09:39:21Z</time>
      </trkpt>
      <trkpt lat="44.87383" lon="5.74287">
        <ele>672.92</ele>
        <time>2019-11-01T09:39:22Z</time>
      </trkpt>
      <trkpt lat="44.87386" lon="5.74288">
        <ele>672.94</ele>
        <time>2019-11-01T09:39:23Z</time>
      </trkpt>
      <trkpt lat="44.87389" lon="5.74288">
        <ele>672.88</ele>
        <time>2019-11-01T09:39:24Z</time>
      </trkpt>
      <trkpt lat="44.87392" lon="5.74289">
        <ele>672.72</ele>
        <time>2019-11-01T09:39:25Z</time>
      </trkpt>
      <trkpt lat="44.87395" lon="5.7429">
        <ele>672.46</ele>
        <time>2019-11-01T09:39:26Z</time>
      </trkpt>
      <trkpt lat="44.87398" lon="5.7429">
        <ele>672.31</ele>
        <time>2019-11-01T09:39:27Z</time>
      </trkpt>
      <trkpt lat="44.87401" lon="5.74291">
        <ele>672.69</ele>
        <time>2019-11-01T09:39:28Z</time>
      </trkpt>
      <trkpt lat="44.87404" lon="5.74293">
        <ele>673.22</ele>
        <time>2019-11-01T09:39:29Z</time>
      </trkpt>
      <trkpt lat="44.87407" lon="5.74295">
        <ele>673.38</ele>
        <time>2019-11-01T09:39:30Z</time>
      </trkpt>
      <trkpt lat="44.87409" lon="5.74298">
        <ele>673.08</ele>
        <time>2019-11-01T09:39:31Z</time>
      </trkpt>
      <trkpt lat="44.87411" lon="5.743">
        <ele>673.06</ele>
        <time>2019-11-01T09:39:32Z</time>
      </trkpt>
      <trkpt lat="44.87413" lon="5.74302">
        <ele>673.19</ele>
        <time>2019-11-01T09:39:33Z</time>
      </trkpt>
      <trkpt lat="44.87415" lon="5.74305">
        <ele>673.09</ele>
        <time>2019-11-01T09:39:34Z</time>
      </trkpt>
      <trkpt lat="44.87417" lon="5.74308">
        <ele>673.2</ele>
        <time>2019-11-01T09:39:35Z</time>
      </trkpt>
      <trkpt lat="44.87418" lon="5.74312">
        <ele>672.88</ele>
        <time>2019-11-01T09:39:36Z</time>
      </trkpt>
      <trkpt lat="44.8742" lon="5.74316">
        <ele>672.44</ele>
        <time>2019-11-01T09:39:37Z</time>
      </trkpt>
      <trkpt lat="44.8742" lon="5.7432">
        <ele>672.17</ele>
        <time>2019-11-01T09:39:38Z</time>
      </trkpt>
      <trkpt lat="44.87421" lon="5.74324">
        <ele>672.01</ele>
        <time>2019-11-01T09:39:39Z</time>
      </trkpt>
      <trkpt lat="44.87422" lon="5.74328">
        <ele>672.11</ele>
        <time>2019-11-01T09:39:40Z</time>
      </trkpt>
      <trkpt lat="44.87422" lon="5.74332">
        <ele>672.28</ele>
        <time>2019-11-01T09:39:41Z</time>
      </trkpt>
      <trkpt lat="44.87422" lon="5.74335">
        <ele>672.68</ele>
        <time>2019-11-01T09:39:42Z</time>
      </trkpt>
      <trkpt lat="44.87422" lon="5.7434">
        <ele>673.29</ele>
        <time>2019-11-01T09:39:43Z</time>
      </trkpt>
      <trkpt lat="44.87421" lon="5.74344">
        <ele>674.45</ele>
        <time>2019-11-01T09:39:44Z</time>
      </trkpt>
      <trkpt lat="44.8742" lon="5.74348">
        <ele>675.29</ele>
        <time>2019-11-01T09:39:45Z</time>
      </trkpt>
      <trkpt lat="44.87419" lon="5.74352">
        <ele>675.75</ele>
        <time>2019-11-01T09:39:46Z</time>
      </trkpt>
      <trkpt lat="44.87418" lon="5.74356">
        <ele>675.61</ele>
        <time>2019-11-01T09:39:47Z</time>
      </trkpt>
      <trkpt lat="44.87416" lon="5.74359">
        <ele>675.71</ele>
        <time>2019-11-01T09:39:48Z</time>
      </trkpt>
      <trkpt lat="44.87415" lon="5.74363">
        <ele>675.74</ele>
        <time>2019-11-01T09:39:49Z</time>
      </trkpt>
      <trkpt lat="44.87413" lon="5.74367">
        <ele>675.96</ele>
        <time>2019-11-01T09:39:50Z</time>
      </trkpt>
      <trkpt lat="44.87412" lon="5.7437">
        <ele>676.3</ele>
        <time>2019-11-01T09:39:51Z</time>
      </trkpt>
      <trkpt lat="44.8741" lon="5.74374">
        <ele>676.54</ele>
        <time>2019-11-01T09:39:52Z</time>
      </trkpt>
      <trkpt lat="44.87408" lon="5.74377">
        <ele>676.9</ele>
        <time>2019-11-01T09:39:53Z</time>
      </trkpt>
      <trkpt lat="44.87406" lon="5.7438">
        <ele>677.49</ele>
        <time>2019-11-01T09:39:54Z</time>
      </trkpt>
      <trkpt lat="44.87404" lon="5.74384">
        <ele>677.74</ele>
        <time>2019-11-01T09:39:55Z</time>
      </trkpt>
      <trkpt lat="44.87403" lon="5.74388">
        <ele>677.75</ele>
        <time>2019-11-01T09:39:56Z</time>
      </trkpt>
      <trkpt lat="44.87401" lon="5.74392">
        <ele>677.61</ele>
        <time>2019-11-01T09:39:57Z</time>
      </trkpt>
      <trkpt lat="44.874" lon="5.74395">
        <ele>677.36</ele>
        <time>2019-11-01T09:39:58Z</time>
      </trkpt>
      <trkpt lat="44.87398" lon="5.74399">
        <ele>677.28</ele>
        <time>2019-11-01T09:39:59Z</time>
      </trkpt>
      <trkpt lat="44.87397" lon="5.74403">
        <ele>677.05</ele>
        <time>2019-11-01T09:40:00Z</time>
      </trkpt>
      <trkpt lat="44.87394" lon="5.74406">
        <ele>677.26</ele>
        <time>2019-11-01T09:40:01Z</time>
      </trkpt>
      <trkpt lat="44.87393" lon="5.7441">
        <ele>677.32</ele>
        <time>2019-11-01T09:40:02Z</time>
      </trkpt>
      <trkpt lat="44.87391" lon="5.74414">
        <ele>677.13</ele>
        <time>2019-11-01T09:40:03Z</time>
      </trkpt>
      <trkpt lat="44.87389" lon="5.74418">
        <ele>676.93</ele>
        <time>2019-11-01T09:40:04Z</time>
      </trkpt>
      <trkpt lat="44.87387" lon="5.74422">
        <ele>676.66</ele>
        <time>2019-11-01T09:40:05Z</time>
      </trkpt>
      <trkpt lat="44.87386" lon="5.74426">
        <ele>676.44</ele>
        <time>2019-11-01T09:40:06Z</time>
      </trkpt>
      <trkpt lat="44.87384" lon="5.74429">
        <ele>676.52</ele>
        <time>2019-11-01T09:40:07Z</time>
      </trkpt>
      <trkpt lat="44.87382" lon="5.74433">
        <ele>676.89</ele>
        <time>2019-11-01T09:40:08Z</time>
      </trkpt>
      <trkpt lat="44.8738" lon="5.74436">
        <ele>677.21</ele>
        <time>2019-11-01T09:40:09Z</time>
      </trkpt>
      <trkpt lat="44.87377" lon="5.74439">
        <ele>677.45</ele>
        <time>2019-11-01T09:40:10Z</time>
      </trkpt>
      <trkpt lat="44.87375" lon="5.74442">
        <ele>678.08</ele>
        <time>2019-11-01T09:40:11Z</time>
      </trkpt>
      <trkpt lat="44.87374" lon="5.74446">
        <ele>678.76</ele>
        <time>2019-11-01T09:40:12Z</time>
      </trkpt>
      <trkpt lat="44.87372" lon="5.74449">
        <ele>679.24</ele>
        <time>2019-11-01T09:40:13Z</time>
      </trkpt>
      <trkpt lat="44.8737" lon="5.74452">
        <ele>679.67</ele>
        <time>2019-11-01T09:40:14Z</time>
      </trkpt>
      <trkpt lat="44.87368" lon="5.74456">
        <ele>680.07</ele>
        <time>2019-11-01T09:40:15Z</time>
      </trkpt>
      <trkpt lat="44.87367" lon="5.74459">
        <ele>680.41</ele>
        <time>2019-11-01T09:40:16Z</time>
      </trkpt>
      <trkpt lat="44.87366" lon="5.74463">
        <ele>680.58</ele>
        <time>2019-11-01T09:40:17Z</time>
      </trkpt>
      <trkpt lat="44.87365" lon="5.74467">
        <ele>680.77</ele>
        <time>2019-11-01T09:40:18Z</time>
      </trkpt>
      <trkpt lat="44.87364" lon="5.7447">
        <ele>681.03</ele>
        <time>2019-11-01T09:40:19Z</time>
      </trkpt>
      <trkpt lat="44.87364" lon="5.74474">
        <ele>681.25</ele>
        <time>2019-11-01T09:40:20Z</time>
      </trkpt>
      <trkpt lat="44.87364" lon="5.74478">
        <ele>681.6</ele>
        <time>2019-11-01T09:40:21Z</time>
      </trkpt>
      <trkpt lat="44.87364" lon="5.74482">
        <ele>682.12</ele>
        <time>2019-11-01T09:40:22Z</time>
      </trkpt>
      <trkpt lat="44.87364" lon="5.74486">
        <ele>682.56</ele>
        <time>2019-11-01T09:40:23Z</time>
      </trkpt>
      <trkpt lat="44.87364" lon="5.74491">
        <ele>682.83</ele>
        <time>2019-11-01T09:40:24Z</time>
      </trkpt>
      <trkpt lat="44.87365" lon="5.74495">
        <ele>682.98</ele>
        <time>2019-11-01T09:40:25Z</time>
      </trkpt>
      <trkpt lat="44.87365" lon="5.74499">
        <ele>683.17</ele>
        <time>2019-11-01T09:40:26Z</time>
      </trkpt>
      <trkpt lat="44.87366" lon="5.74503">
        <ele>683.3</ele>
        <time>2019-11-01T09:40:27Z</time>
      </trkpt>
      <trkpt lat="44.87366" lon="5.74507">
        <ele>683.33</ele>
        <time>2019-11-01T09:40:28Z</time>
      </trkpt>
      <trkpt lat="44.87367" lon="5.74511">
        <ele>683.41</ele>
        <time>2019-11-01T09:40:29Z</time>
      </trkpt>
      <trkpt lat="44.87368" lon="5.74515">
        <ele>683.58</ele>
        <time>2019-11-01T09:40:30Z</time>
      </trkpt>
      <trkpt lat="44.87368" lon="5.74519">
        <ele>683.63</ele>
        <time>2019-11-01T09:40:31Z</time>
      </trkpt>
      <trkpt lat="44.87368" lon="5.74523">
        <ele>683.78</ele>
        <time>2019-11-01T09:40:32Z</time>
      </trkpt>
      <trkpt lat="44.87368" lon="5.74528">
        <ele>683.97</ele>
        <time>2019-11-01T09:40:33Z</time>
      </trkpt>
      <trkpt lat="44.87368" lon="5.74532">
        <ele>684.03</ele>
        <time>2019-11-01T09:40:34Z</time>
      </trkpt>
      <trkpt lat="44.87369" lon="5.74535">
        <ele>683.9</ele>
        <time>2019-11-01T09:40:35Z</time>
      </trkpt>
      <trkpt lat="44.87369" lon="5.74539">
        <ele>683.86</ele>
        <time>2019-11-01T09:40:36Z</time>
      </trkpt>
      <trkpt lat="44.87369" lon="5.74544">
        <ele>684.13</ele>
        <time>2019-11-01T09:40:37Z</time>
      </trkpt>
      <trkpt lat="44.8737" lon="5.74548">
        <ele>684.35</ele>
        <time>2019-11-01T09:40:38Z</time>
      </trkpt>
      <trkpt lat="44.8737" lon="5.74552">
        <ele>684.56</ele>
        <time>2019-11-01T09:40:39Z</time>
      </trkpt>
      <trkpt lat="44.87371" lon="5.74556">
        <ele>684.9</ele>
        <time>2019-11-01T09:40:40Z</time>
      </trkpt>
      <trkpt lat="44.87371" lon="5.7456">
        <ele>685.08</ele>
        <time>2019-11-01T09:40:41Z</time>
      </trkpt>
      <trkpt lat="44.87372" lon="5.74564">
        <ele>685.13</ele>
        <time>2019-11-01T09:40:42Z</time>
      </trkpt>
      <trkpt lat="44.87372" lon="5.74568">
        <ele>685.14</ele>
        <time>2019-11-01T09:40:43Z</time>
      </trkpt>
      <trkpt lat="44.87373" lon="5.74572">
        <ele>685.22</ele>
        <time>2019-11-01T09:40:44Z</time>
      </trkpt>
      <trkpt lat="44.87374" lon="5.74576">
        <ele>685.31</ele>
        <time>2019-11-01T09:40:45Z</time>
      </trkpt>
      <trkpt lat="44.87375" lon="5.7458">
        <ele>685.34</ele>
        <time>2019-11-01T09:40:46Z</time>
      </trkpt>
      <trkpt lat="44.87377" lon="5.74584">
        <ele>685.35</ele>
        <time>2019-11-01T09:40:47Z</time>
      </trkpt>
      <trkpt lat="44.87378" lon="5.74588">
        <ele>685.28</ele>
        <time>2019-11-01T09:40:48Z</time>
      </trkpt>
      <trkpt lat="44.87379" lon="5.74592">
        <ele>685.12</ele>
        <time>2019-11-01T09:40:49Z</time>
      </trkpt>
      <trkpt lat="44.8738" lon="5.74596">
        <ele>684.86</ele>
        <time>2019-11-01T09:40:50Z</time>
      </trkpt>
      <trkpt lat="44.87381" lon="5.746">
        <ele>684.64</ele>
        <time>2019-11-01T09:40:51Z</time>
      </trkpt>
      <trkpt lat="44.87383" lon="5.74604">
        <ele>684.79</ele>
        <time>2019-11-01T09:40:52Z</time>
      </trkpt>
      <trkpt lat="44.87384" lon="5.74608">
        <ele>684.76</ele>
        <time>2019-11-01T09:40:53Z</time>
      </trkpt>
      <trkpt lat="44.87385" lon="5.74612">
        <ele>684.96</ele>
        <time>2019-11-01T09:40:54Z</time>
      </trkpt>
      <trkpt lat="44.87386" lon="5.74616">
        <ele>685.3</ele>
        <time>2019-11-01T09:40:55Z</time>
      </trkpt>
      <trkpt lat="44.87386" lon="5.7462">
        <ele>685.62</ele>
        <time>2019-11-01T09:40:56Z</time>
      </trkpt>
      <trkpt lat="44.87387" lon="5.74624">
        <ele>685.85</ele>
        <time>2019-11-01T09:40:57Z</time>
      </trkpt>
      <trkpt lat="44.87388" lon="5.74628">
        <ele>685.71</ele>
        <time>2019-11-01T09:40:58Z</time>
      </trkpt>
      <trkpt lat="44.87389" lon="5.74632">
        <ele>685.81</ele>
        <time>2019-11-01T09:40:59Z</time>
      </trkpt>
      <trkpt lat="44.8739" lon="5.74636">
        <ele>686.19</ele>
        <time>2019-11-01T09:41:00Z</time>
      </trkpt>
      <trkpt lat="44.8739" lon="5.7464">
        <ele>686.44</ele>
        <time>2019-11-01T09:41:01Z</time>
      </trkpt>
      <trkpt lat="44.87391" lon="5.74644">
        <ele>686.59</ele>
        <time>2019-11-01T09:41:02Z</time>
      </trkpt>
      <trkpt lat="44.87392" lon="5.74647">
        <ele>686.91</ele>
        <time>2019-11-01T09:41:03Z</time>
      </trkpt>
      <trkpt lat="44.87392" lon="5.74651">
        <ele>687.08</ele>
        <time>2019-11-01T09:41:04Z</time>
      </trkpt>
      <trkpt lat="44.87393" lon="5.74655">
        <ele>687.48</ele>
        <time>2019-11-01T09:41:05Z</time>
      </trkpt>
      <trkpt lat="44.87394" lon="5.74659">
        <ele>687.81</ele>
        <time>2019-11-01T09:41:06Z</time>
      </trkpt>
      <trkpt lat="44.87395" lon="5.74662">
        <ele>687.98</ele>
        <time>2019-11-01T09:41:07Z</time>
      </trkpt>
      <trkpt lat="44.87397" lon="5.74665">
        <ele>688.1</ele>
        <time>2019-11-01T09:41:08Z</time>
      </trkpt>
      <trkpt lat="44.87398" lon="5.74668">
        <ele>688.27</ele>
        <time>2019-11-01T09:41:09Z</time>
      </trkpt>
      <trkpt lat="44.87399" lon="5.74672">
        <ele>688.33</ele>
        <time>2019-11-01T09:41:10Z</time>
      </trkpt>
      <trkpt lat="44.874" lon="5.74676">
        <ele>688.41</ele>
        <time>2019-11-01T09:41:11Z</time>
      </trkpt>
      <trkpt lat="44.87401" lon="5.74679">
        <ele>688.23</ele>
        <time>2019-11-01T09:41:12Z</time>
      </trkpt>
      <trkpt lat="44.87403" lon="5.74683">
        <ele>688.17</ele>
        <time>2019-11-01T09:41:13Z</time>
      </trkpt>
      <trkpt lat="44.87404" lon="5.74686">
        <ele>688.37</ele>
        <time>2019-11-01T09:41:14Z</time>
      </trkpt>
      <trkpt lat="44.87406" lon="5.7469">
        <ele>688.35</ele>
        <time>2019-11-01T09:41:15Z</time>
      </trkpt>
      <trkpt lat="44.87407" lon="5.74694">
        <ele>688.07</ele>
        <time>2019-11-01T09:41:16Z</time>
      </trkpt>
      <trkpt lat="44.87408" lon="5.74698">
        <ele>687.78</ele>
        <time>2019-11-01T09:41:17Z</time>
      </trkpt>
      <trkpt lat="44.87409" lon="5.74702">
        <ele>687.48</ele>
        <time>2019-11-01T09:41:18Z</time>
      </trkpt>
      <trkpt lat="44.8741" lon="5.74706">
        <ele>687.46</ele>
        <time>2019-11-01T09:41:19Z</time>
      </trkpt>
      <trkpt lat="44.87411" lon="5.7471">
        <ele>687.52</ele>
        <time>2019-11-01T09:41:20Z</time>
      </trkpt>
      <trkpt lat="44.87412" lon="5.74715">
        <ele>687.82</ele>
        <time>2019-11-01T09:41:21Z</time>
      </trkpt>
      <trkpt lat="44.87412" lon="5.74719">
        <ele>688.26</ele>
        <time>2019-11-01T09:41:22Z</time>
      </trkpt>
      <trkpt lat="44.87413" lon="5.74723">
        <ele>688.67</ele>
        <time>2019-11-01T09:41:23Z</time>
      </trkpt>
      <trkpt lat="44.87413" lon="5.74727">
        <ele>689.36</ele>
        <time>2019-11-01T09:41:24Z</time>
      </trkpt>
      <trkpt lat="44.87414" lon="5.74731">
        <ele>689.77</ele>
        <time>2019-11-01T09:41:25Z</time>
      </trkpt>
      <trkpt lat="44.87413" lon="5.74735">
        <ele>690.11</ele>
        <time>2019-11-01T09:41:26Z</time>
      </trkpt>
      <trkpt lat="44.87413" lon="5.74739">
        <ele>690.21</ele>
        <time>2019-11-01T09:41:27Z</time>
      </trkpt>
      <trkpt lat="44.87413" lon="5.74743">
        <ele>690.45</ele>
        <time>2019-11-01T09:41:28Z</time>
      </trkpt>
      <trkpt lat="44.87413" lon="5.74746">
        <ele>690.87</ele>
        <time>2019-11-01T09:41:29Z</time>
      </trkpt>
      <trkpt lat="44.87412" lon="5.7475">
        <ele>691.2</ele>
        <time>2019-11-01T09:41:30Z</time>
      </trkpt>
      <trkpt lat="44.87411" lon="5.74755">
        <ele>691.59</ele>
        <time>2019-11-01T09:41:31Z</time>
      </trkpt>
      <trkpt lat="44.87411" lon="5.74758">
        <ele>692.19</ele>
        <time>2019-11-01T09:41:32Z</time>
      </trkpt>
      <trkpt lat="44.8741" lon="5.74762">
        <ele>692.72</ele>
        <time>2019-11-01T09:41:33Z</time>
      </trkpt>
      <trkpt lat="44.87409" lon="5.74767">
        <ele>693.23</ele>
        <time>2019-11-01T09:41:34Z</time>
      </trkpt>
      <trkpt lat="44.87408" lon="5.74771">
        <ele>693.66</ele>
        <time>2019-11-01T09:41:35Z</time>
      </trkpt>
      <trkpt lat="44.87408" lon="5.74775">
        <ele>694.14</ele>
        <time>2019-11-01T09:41:36Z</time>
      </trkpt>
      <trkpt lat="44.87407" lon="5.74779">
        <ele>694.78</ele>
        <time>2019-11-01T09:41:37Z</time>
      </trkpt>
      <trkpt lat="44.87407" lon="5.74783">
        <ele>695.39</ele>
        <time>2019-11-01T09:41:38Z</time>
      </trkpt>
      <trkpt lat="44.87407" lon="5.74787">
        <ele>695.99</ele>
        <time>2019-11-01T09:41:39Z</time>
      </trkpt>
      <trkpt lat="44.87406" lon="5.74791">
        <ele>696.66</ele>
        <time>2019-11-01T09:41:40Z</time>
      </trkpt>
      <trkpt lat="44.87405" lon="5.74796">
        <ele>697</ele>
        <time>2019-11-01T09:41:41Z</time>
      </trkpt>
      <trkpt lat="44.87405" lon="5.748">
        <ele>697.04</ele>
        <time>2019-11-01T09:41:42Z</time>
      </trkpt>
      <trkpt lat="44.87404" lon="5.74804">
        <ele>697.32</ele>
        <time>2019-11-01T09:41:43Z</time>
      </trkpt>
      <trkpt lat="44.87403" lon="5.74808">
        <ele>698.04</ele>
        <time>2019-11-01T09:41:44Z</time>
      </trkpt>
      <trkpt lat="44.87403" lon="5.74813">
        <ele>698.05</ele>
        <time>2019-11-01T09:41:45Z</time>
      </trkpt>
      <trkpt lat="44.87401" lon="5.74817">
        <ele>697.91</ele>
        <time>2019-11-01T09:41:46Z</time>
      </trkpt>
      <trkpt lat="44.874" lon="5.7482">
        <ele>697.66</ele>
        <time>2019-11-01T09:41:47Z</time>
      </trkpt>
      <trkpt lat="44.874" lon="5.74824">
        <ele>697.3</ele>
        <time>2019-11-01T09:41:48Z</time>
      </trkpt>
      <trkpt lat="44.87399" lon="5.74828">
        <ele>697.05</ele>
        <time>2019-11-01T09:41:49Z</time>
      </trkpt>
      <trkpt lat="44.87398" lon="5.74832">
        <ele>696.7</ele>
        <time>2019-11-01T09:41:50Z</time>
      </trkpt>
      <trkpt lat="44.87398" lon="5.74836">
        <ele>696.87</ele>
        <time>2019-11-01T09:41:51Z</time>
      </trkpt>
      <trkpt lat="44.87397" lon="5.74841">
        <ele>697.28</ele>
        <time>2019-11-01T09:41:52Z</time>
      </trkpt>
      <trkpt lat="44.87397" lon="5.74845">
        <ele>697.68</ele>
        <time>2019-11-01T09:41:53Z</time>
      </trkpt>
      <trkpt lat="44.87397" lon="5.74849">
        <ele>698.01</ele>
        <time>2019-11-01T09:41:54Z</time>
      </trkpt>
      <trkpt lat="44.87397" lon="5.74854">
        <ele>698.11</ele>
        <time>2019-11-01T09:41:55Z</time>
      </trkpt>
      <trkpt lat="44.87397" lon="5.74858">
        <ele>697.93</ele>
        <time>2019-11-01T09:41:56Z</time>
      </trkpt>
      <trkpt lat="44.87397" lon="5.74862">
        <ele>697.8</ele>
        <time>2019-11-01T09:41:57Z</time>
      </trkpt>
      <trkpt lat="44.87398" lon="5.74866">
        <ele>697.83</ele>
        <time>2019-11-01T09:41:58Z</time>
      </trkpt>
      <trkpt lat="44.87398" lon="5.7487">
        <ele>698.12</ele>
        <time>2019-11-01T09:41:59Z</time>
      </trkpt>
      <trkpt lat="44.87398" lon="5.74874">
        <ele>698.21</ele>
        <time>2019-11-01T09:42:00Z</time>
      </trkpt>
      <trkpt lat="44.874" lon="5.74878">
        <ele>698.17</ele>
        <time>2019-11-01T09:42:01Z</time>
      </trkpt>
      <trkpt lat="44.874" lon="5.74883">
        <ele>698.22</ele>
        <time>2019-11-01T09:42:02Z</time>
      </trkpt>
      <trkpt lat="44.87402" lon="5.74886">
        <ele>698.66</ele>
        <time>2019-11-01T09:42:03Z</time>
      </trkpt>
      <trkpt lat="44.87403" lon="5.74889">
        <ele>699.07</ele>
        <time>2019-11-01T09:42:04Z</time>
      </trkpt>
      <trkpt lat="44.87405" lon="5.74893">
        <ele>699.06</ele>
        <time>2019-11-01T09:42:05Z</time>
      </trkpt>
      <trkpt lat="44.87406" lon="5.74896">
        <ele>699.05</ele>
        <time>2019-11-01T09:42:06Z</time>
      </trkpt>
      <trkpt lat="44.87408" lon="5.74899">
        <ele>699.19</ele>
        <time>2019-11-01T09:42:07Z</time>
      </trkpt>
      <trkpt lat="44.8741" lon="5.74903">
        <ele>699.23</ele>
        <time>2019-11-01T09:42:08Z</time>
      </trkpt>
      <trkpt lat="44.87413" lon="5.74906">
        <ele>698.96</ele>
        <time>2019-11-01T09:42:09Z</time>
      </trkpt>
      <trkpt lat="44.87415" lon="5.74909">
        <ele>698.88</ele>
        <time>2019-11-01T09:42:10Z</time>
      </trkpt>
      <trkpt lat="44.87417" lon="5.74912">
        <ele>698.86</ele>
        <time>2019-11-01T09:42:11Z</time>
      </trkpt>
      <trkpt lat="44.87419" lon="5.74915">
        <ele>698.85</ele>
        <time>2019-11-01T09:42:12Z</time>
      </trkpt>
      <trkpt lat="44.87421" lon="5.74918">
        <ele>699.55</ele>
        <time>2019-11-01T09:42:13Z</time>
      </trkpt>
      <trkpt lat="44.87424" lon="5.74922">
        <ele>700.25</ele>
        <time>2019-11-01T09:42:14Z</time>
      </trkpt>
      <trkpt lat="44.87426" lon="5.74924">
        <ele>700.81</ele>
        <time>2019-11-01T09:42:15Z</time>
      </trkpt>
      <trkpt lat="44.87428" lon="5.74927">
        <ele>701.12</ele>
        <time>2019-11-01T09:42:16Z</time>
      </trkpt>
      <trkpt lat="44.87431" lon="5.74929">
        <ele>701.28</ele>
        <time>2019-11-01T09:42:17Z</time>
      </trkpt>
      <trkpt lat="44.87433" lon="5.74932">
        <ele>701.75</ele>
        <time>2019-11-01T09:42:18Z</time>
      </trkpt>
      <trkpt lat="44.87436" lon="5.74935">
        <ele>702.03</ele>
        <time>2019-11-01T09:42:19Z</time>
      </trkpt>
      <trkpt lat="44.87438" lon="5.74938">
        <ele>702.32</ele>
        <time>2019-11-01T09:42:20Z</time>
      </trkpt>
      <trkpt lat="44.8744" lon="5.7494">
        <ele>702.9</ele>
        <time>2019-11-01T09:42:21Z</time>
      </trkpt>
      <trkpt lat="44.87443" lon="5.74943">
        <ele>703.28</ele>
        <time>2019-11-01T09:42:22Z</time>
      </trkpt>
      <trkpt lat="44.87445" lon="5.74946">
        <ele>703.33</ele>
        <time>2019-11-01T09:42:23Z</time>
      </trkpt>
      <trkpt lat="44.87448" lon="5.74948">
        <ele>703.55</ele>
        <time>2019-11-01T09:42:24Z</time>
      </trkpt>
      <trkpt lat="44.8745" lon="5.7495">
        <ele>703.34</ele>
        <time>2019-11-01T09:42:25Z</time>
      </trkpt>
      <trkpt lat="44.87453" lon="5.74953">
        <ele>703</ele>
        <time>2019-11-01T09:42:26Z</time>
      </trkpt>
      <trkpt lat="44.87455" lon="5.74956">
        <ele>702.89</ele>
        <time>2019-11-01T09:42:27Z</time>
      </trkpt>
      <trkpt lat="44.87457" lon="5.74959">
        <ele>703.14</ele>
        <time>2019-11-01T09:42:28Z</time>
      </trkpt>
      <trkpt lat="44.87459" lon="5.74962">
        <ele>703.36</ele>
        <time>2019-11-01T09:42:29Z</time>
      </trkpt>
      <trkpt lat="44.87461" lon="5.74964">
        <ele>703.28</ele>
        <time>2019-11-01T09:42:30Z</time>
      </trkpt>
      <trkpt lat="44.87463" lon="5.74967">
        <ele>703.12</ele>
        <time>2019-11-01T09:42:31Z</time>
      </trkpt>
      <trkpt lat="44.87465" lon="5.74969">
        <ele>702.93</ele>
        <time>2019-11-01T09:42:32Z</time>
      </trkpt>
      <trkpt lat="44.87468" lon="5.74972">
        <ele>702.87</ele>
        <time>2019-11-01T09:42:33Z</time>
      </trkpt>
      <trkpt lat="44.8747" lon="5.74975">
        <ele>703.21</ele>
        <time>2019-11-01T09:42:34Z</time>
      </trkpt>
      <trkpt lat="44.87473" lon="5.74977">
        <ele>703.8</ele>
        <time>2019-11-01T09:42:35Z</time>
      </trkpt>
      <trkpt lat="44.87475" lon="5.7498">
        <ele>704.18</ele>
        <time>2019-11-01T09:42:36Z</time>
      </trkpt>
      <trkpt lat="44.87478" lon="5.74982">
        <ele>704.58</ele>
        <time>2019-11-01T09:42:37Z</time>
      </trkpt>
      <trkpt lat="44.87481" lon="5.74984">
        <ele>704.63</ele>
        <time>2019-11-01T09:42:38Z</time>
      </trkpt>
      <trkpt lat="44.87484" lon="5.74986">
        <ele>704.92</ele>
        <time>2019-11-01T09:42:39Z</time>
      </trkpt>
      <trkpt lat="44.87486" lon="5.74988">
        <ele>705.22</ele>
        <time>2019-11-01T09:42:40Z</time>
      </trkpt>
      <trkpt lat="44.87489" lon="5.7499">
        <ele>705.73</ele>
        <time>2019-11-01T09:42:41Z</time>
      </trkpt>
      <trkpt lat="44.87492" lon="5.74991">
        <ele>706.09</ele>
        <time>2019-11-01T09:42:42Z</time>
      </trkpt>
      <trkpt lat="44.87495" lon="5.74993">
        <ele>706.41</ele>
        <time>2019-11-01T09:42:43Z</time>
      </trkpt>
      <trkpt lat="44.87497" lon="5.74995">
        <ele>706.79</ele>
        <time>2019-11-01T09:42:44Z</time>
      </trkpt>
      <trkpt lat="44.87501" lon="5.74998">
        <ele>706.9</ele>
        <time>2019-11-01T09:42:45Z</time>
      </trkpt>
      <trkpt lat="44.87504" lon="5.74999">
        <ele>706.44</ele>
        <time>2019-11-01T09:42:46Z</time>
      </trkpt>
      <trkpt lat="44.87507" lon="5.75001">
        <ele>705.25</ele>
        <time>2019-11-01T09:42:47Z</time>
      </trkpt>
      <trkpt lat="44.8751" lon="5.75003">
        <ele>704.89</ele>
        <time>2019-11-01T09:42:48Z</time>
      </trkpt>
      <trkpt lat="44.87513" lon="5.75005">
        <ele>704.72</ele>
        <time>2019-11-01T09:42:49Z</time>
      </trkpt>
      <trkpt lat="44.87516" lon="5.75007">
        <ele>704.66</ele>
        <time>2019-11-01T09:42:50Z</time>
      </trkpt>
      <trkpt lat="44.87519" lon="5.75009">
        <ele>704.86</ele>
        <time>2019-11-01T09:42:51Z</time>
      </trkpt>
      <trkpt lat="44.87521" lon="5.75011">
        <ele>704.99</ele>
        <time>2019-11-01T09:42:52Z</time>
      </trkpt>
      <trkpt lat="44.87524" lon="5.75013">
        <ele>705.3</ele>
        <time>2019-11-01T09:42:53Z</time>
      </trkpt>
      <trkpt lat="44.87527" lon="5.75015">
        <ele>705.26</ele>
        <time>2019-11-01T09:42:54Z</time>
      </trkpt>
      <trkpt lat="44.8753" lon="5.75018">
        <ele>705.46</ele>
        <time>2019-11-01T09:42:55Z</time>
      </trkpt>
      <trkpt lat="44.87532" lon="5.75019">
        <ele>705.38</ele>
        <time>2019-11-01T09:42:56Z</time>
      </trkpt>
      <trkpt lat="44.87536" lon="5.7502">
        <ele>704.93</ele>
        <time>2019-11-01T09:42:57Z</time>
      </trkpt>
      <trkpt lat="44.87539" lon="5.75021">
        <ele>704.38</ele>
        <time>2019-11-01T09:42:58Z</time>
      </trkpt>
      <trkpt lat="44.87543" lon="5.75022">
        <ele>703.79</ele>
        <time>2019-11-01T09:42:59Z</time>
      </trkpt>
      <trkpt lat="44.87546" lon="5.75024">
        <ele>703.48</ele>
        <time>2019-11-01T09:43:00Z</time>
      </trkpt>
      <trkpt lat="44.87549" lon="5.75026">
        <ele>703.17</ele>
        <time>2019-11-01T09:43:01Z</time>
      </trkpt>
      <trkpt lat="44.87552" lon="5.75028">
        <ele>702.94</ele>
        <time>2019-11-01T09:43:02Z</time>
      </trkpt>
      <trkpt lat="44.87555" lon="5.75031">
        <ele>703.01</ele>
        <time>2019-11-01T09:43:03Z</time>
      </trkpt>
      <trkpt lat="44.87558" lon="5.75032">
        <ele>702.96</ele>
        <time>2019-11-01T09:43:04Z</time>
      </trkpt>
      <trkpt lat="44.87561" lon="5.75034">
        <ele>702.67</ele>
        <time>2019-11-01T09:43:05Z</time>
      </trkpt>
      <trkpt lat="44.87564" lon="5.75036">
        <ele>702.86</ele>
        <time>2019-11-01T09:43:06Z</time>
      </trkpt>
      <trkpt lat="44.87567" lon="5.75038">
        <ele>702.64</ele>
        <time>2019-11-01T09:43:07Z</time>
      </trkpt>
      <trkpt lat="44.8757" lon="5.7504">
        <ele>702.5</ele>
        <time>2019-11-01T09:43:08Z</time>
      </trkpt>
      <trkpt lat="44.87573" lon="5.75042">
        <ele>702.53</ele>
        <time>2019-11-01T09:43:09Z</time>
      </trkpt>
      <trkpt lat="44.87576" lon="5.75045">
        <ele>702.82</ele>
        <time>2019-11-01T09:43:10Z</time>
      </trkpt>
      <trkpt lat="44.87579" lon="5.75047">
        <ele>702.69</ele>
        <time>2019-11-01T09:43:11Z</time>
      </trkpt>
      <trkpt lat="44.87582" lon="5.7505">
        <ele>702.59</ele>
        <time>2019-11-01T09:43:12Z</time>
      </trkpt>
      <trkpt lat="44.87585" lon="5.75052">
        <ele>702.69</ele>
        <time>2019-11-01T09:43:13Z</time>
      </trkpt>
      <trkpt lat="44.87588" lon="5.75054">
        <ele>702.59</ele>
        <time>2019-11-01T09:43:14Z</time>
      </trkpt>
      <trkpt lat="44.8759" lon="5.75057">
        <ele>702.69</ele>
        <time>2019-11-01T09:43:15Z</time>
      </trkpt>
      <trkpt lat="44.87593" lon="5.7506">
        <ele>702.31</ele>
        <time>2019-11-01T09:43:16Z</time>
      </trkpt>
      <trkpt lat="44.87595" lon="5.75063">
        <ele>702.12</ele>
        <time>2019-11-01T09:43:17Z</time>
      </trkpt>
      <trkpt lat="44.87598" lon="5.75065">
        <ele>702.34</ele>
        <time>2019-11-01T09:43:18Z</time>
      </trkpt>
      <trkpt lat="44.876" lon="5.75068">
        <ele>702.41</ele>
        <time>2019-11-01T09:43:19Z</time>
      </trkpt>
      <trkpt lat="44.87602" lon="5.75071">
        <ele>702.85</ele>
        <time>2019-11-01T09:43:20Z</time>
      </trkpt>
      <trkpt lat="44.87604" lon="5.75075">
        <ele>703.05</ele>
        <time>2019-11-01T09:43:21Z</time>
      </trkpt>
      <trkpt lat="44.87607" lon="5.75078">
        <ele>703.26</ele>
        <time>2019-11-01T09:43:22Z</time>
      </trkpt>
      <trkpt lat="44.87609" lon="5.75081">
        <ele>703.74</ele>
        <time>2019-11-01T09:43:23Z</time>
      </trkpt>
      <trkpt lat="44.87611" lon="5.75085">
        <ele>704.44</ele>
        <time>2019-11-01T09:43:24Z</time>
      </trkpt>
      <trkpt lat="44.87613" lon="5.75088">
        <ele>705</ele>
        <time>2019-11-01T09:43:25Z</time>
      </trkpt>
      <trkpt lat="44.87614" lon="5.75091">
        <ele>705.66</ele>
        <time>2019-11-01T09:43:26Z</time>
      </trkpt>
      <trkpt lat="44.87616" lon="5.75095">
        <ele>706.35</ele>
        <time>2019-11-01T09:43:27Z</time>
      </trkpt>
      <trkpt lat="44.87618" lon="5.75098">
        <ele>707.04</ele>
        <time>2019-11-01T09:43:28Z</time>
      </trkpt>
      <trkpt lat="44.8762" lon="5.75101">
        <ele>707.53</ele>
        <time>2019-11-01T09:43:29Z</time>
      </trkpt>
      <trkpt lat="44.87622" lon="5.75105">
        <ele>707.89</ele>
        <time>2019-11-01T09:43:30Z</time>
      </trkpt>
      <trkpt lat="44.87624" lon="5.75108">
        <ele>708.56</ele>
        <time>2019-11-01T09:43:31Z</time>
      </trkpt>
      <trkpt lat="44.87626" lon="5.75111">
        <ele>708.9</ele>
        <time>2019-11-01T09:43:32Z</time>
      </trkpt>
      <trkpt lat="44.87627" lon="5.75114">
        <ele>709.28</ele>
        <time>2019-11-01T09:43:33Z</time>
      </trkpt>
      <trkpt lat="44.87629" lon="5.75117">
        <ele>709.74</ele>
        <time>2019-11-01T09:43:34Z</time>
      </trkpt>
      <trkpt lat="44.87631" lon="5.7512">
        <ele>710.3</ele>
        <time>2019-11-01T09:43:35Z</time>
      </trkpt>
      <trkpt lat="44.87633" lon="5.75123">
        <ele>711.03</ele>
        <time>2019-11-01T09:43:36Z</time>
      </trkpt>
      <trkpt lat="44.87636" lon="5.75126">
        <ele>711.18</ele>
        <time>2019-11-01T09:43:37Z</time>
      </trkpt>
      <trkpt lat="44.87638" lon="5.75129">
        <ele>711.36</ele>
        <time>2019-11-01T09:43:38Z</time>
      </trkpt>
      <trkpt lat="44.8764" lon="5.75132">
        <ele>711.77</ele>
        <time>2019-11-01T09:43:39Z</time>
      </trkpt>
      <trkpt lat="44.87642" lon="5.75135">
        <ele>712.03</ele>
        <time>2019-11-01T09:43:40Z</time>
      </trkpt>
      <trkpt lat="44.87644" lon="5.75138">
        <ele>712.18</ele>
        <time>2019-11-01T09:43:41Z</time>
      </trkpt>
      <trkpt lat="44.87646" lon="5.75141">
        <ele>712.64</ele>
        <time>2019-11-01T09:43:42Z</time>
      </trkpt>
      <trkpt lat="44.87648" lon="5.75144">
        <ele>713.06</ele>
        <time>2019-11-01T09:43:43Z</time>
      </trkpt>
      <trkpt lat="44.8765" lon="5.75147">
        <ele>713.47</ele>
        <time>2019-11-01T09:43:44Z</time>
      </trkpt>
      <trkpt lat="44.87653" lon="5.75149">
        <ele>713.73</ele>
        <time>2019-11-01T09:43:45Z</time>
      </trkpt>
      <trkpt lat="44.87655" lon="5.75152">
        <ele>713.81</ele>
        <time>2019-11-01T09:43:46Z</time>
      </trkpt>
      <trkpt lat="44.87657" lon="5.75155">
        <ele>713.76</ele>
        <time>2019-11-01T09:43:47Z</time>
      </trkpt>
      <trkpt lat="44.8766" lon="5.75158">
        <ele>713.75</ele>
        <time>2019-11-01T09:43:48Z</time>
      </trkpt>
      <trkpt lat="44.87662" lon="5.75161">
        <ele>713.88</ele>
        <time>2019-11-01T09:43:49Z</time>
      </trkpt>
      <trkpt lat="44.87665" lon="5.75163">
        <ele>713.92</ele>
        <time>2019-11-01T09:43:50Z</time>
      </trkpt>
      <trkpt lat="44.87667" lon="5.75166">
        <ele>713.94</ele>
        <time>2019-11-01T09:43:51Z</time>
      </trkpt>
      <trkpt lat="44.87669" lon="5.75169">
        <ele>713.94</ele>
        <time>2019-11-01T09:43:52Z</time>
      </trkpt>
      <trkpt lat="44.87672" lon="5.75171">
        <ele>714.01</ele>
        <time>2019-11-01T09:43:53Z</time>
      </trkpt>
      <trkpt lat="44.87674" lon="5.75174">
        <ele>714.24</ele>
        <time>2019-11-01T09:43:54Z</time>
      </trkpt>
      <trkpt lat="44.87677" lon="5.75176">
        <ele>714.45</ele>
        <time>2019-11-01T09:43:55Z</time>
      </trkpt>
      <trkpt lat="44.87679" lon="5.75179">
        <ele>714.65</ele>
        <time>2019-11-01T09:43:56Z</time>
      </trkpt>
      <trkpt lat="44.87682" lon="5.75182">
        <ele>714.36</ele>
        <time>2019-11-01T09:43:57Z</time>
      </trkpt>
      <trkpt lat="44.87685" lon="5.75184">
        <ele>714.28</ele>
        <time>2019-11-01T09:43:58Z</time>
      </trkpt>
      <trkpt lat="44.87688" lon="5.75186">
        <ele>714.25</ele>
        <time>2019-11-01T09:43:59Z</time>
      </trkpt>
      <trkpt lat="44.8769" lon="5.75188">
        <ele>714.59</ele>
        <time>2019-11-01T09:44:00Z</time>
      </trkpt>
      <trkpt lat="44.87693" lon="5.75191">
        <ele>714.77</ele>
        <time>2019-11-01T09:44:01Z</time>
      </trkpt>
      <trkpt lat="44.87696" lon="5.75193">
        <ele>715.24</ele>
        <time>2019-11-01T09:44:02Z</time>
      </trkpt>
      <trkpt lat="44.87698" lon="5.75195">
        <ele>715.73</ele>
        <time>2019-11-01T09:44:03Z</time>
      </trkpt>
      <trkpt lat="44.877" lon="5.75198">
        <ele>716.23</ele>
        <time>2019-11-01T09:44:04Z</time>
      </trkpt>
      <trkpt lat="44.87703" lon="5.752">
        <ele>716.8</ele>
        <time>2019-11-01T09:44:05Z</time>
      </trkpt>
      <trkpt lat="44.87705" lon="5.75202">
        <ele>717.32</ele>
        <time>2019-11-01T09:44:06Z</time>
      </trkpt>
      <trkpt lat="44.87707" lon="5.75205">
        <ele>717.82</ele>
        <time>2019-11-01T09:44:07Z</time>
      </trkpt>
      <trkpt lat="44.87709" lon="5.75207">
        <ele>718.12</ele>
        <time>2019-11-01T09:44:08Z</time>
      </trkpt>
      <trkpt lat="44.87712" lon="5.75209">
        <ele>718.55</ele>
        <time>2019-11-01T09:44:09Z</time>
      </trkpt>
      <trkpt lat="44.87714" lon="5.75211">
        <ele>718.89</ele>
        <time>2019-11-01T09:44:10Z</time>
      </trkpt>
      <trkpt lat="44.87716" lon="5.75214">
        <ele>719.07</ele>
        <time>2019-11-01T09:44:11Z</time>
      </trkpt>
      <trkpt lat="44.87719" lon="5.75217">
        <ele>719.47</ele>
        <time>2019-11-01T09:44:12Z</time>
      </trkpt>
      <trkpt lat="44.87721" lon="5.75219">
        <ele>719.66</ele>
        <time>2019-11-01T09:44:13Z</time>
      </trkpt>
      <trkpt lat="44.87724" lon="5.75221">
        <ele>719.65</ele>
        <time>2019-11-01T09:44:14Z</time>
      </trkpt>
      <trkpt lat="44.87726" lon="5.75224">
        <ele>719.85</ele>
        <time>2019-11-01T09:44:15Z</time>
      </trkpt>
      <trkpt lat="44.87729" lon="5.75226">
        <ele>719.84</ele>
        <time>2019-11-01T09:44:16Z</time>
      </trkpt>
      <trkpt lat="44.87731" lon="5.75229">
        <ele>719.98</ele>
        <time>2019-11-01T09:44:17Z</time>
      </trkpt>
      <trkpt lat="44.87734" lon="5.75231">
        <ele>720.09</ele>
        <time>2019-11-01T09:44:18Z</time>
      </trkpt>
      <trkpt lat="44.87736" lon="5.75234">
        <ele>720.2</ele>
        <time>2019-11-01T09:44:19Z</time>
      </trkpt>
      <trkpt lat="44.87739" lon="5.75237">
        <ele>720.44</ele>
        <time>2019-11-01T09:44:20Z</time>
      </trkpt>
      <trkpt lat="44.87742" lon="5.75239">
        <ele>720.51</ele>
        <time>2019-11-01T09:44:21Z</time>
      </trkpt>
      <trkpt lat="44.87745" lon="5.75241">
        <ele>720.53</ele>
        <time>2019-11-01T09:44:22Z</time>
      </trkpt>
      <trkpt lat="44.87747" lon="5.75243">
        <ele>720.54</ele>
        <time>2019-11-01T09:44:23Z</time>
      </trkpt>
      <trkpt lat="44.87749" lon="5.75245">
        <ele>720.54</ele>
        <time>2019-11-01T09:44:24Z</time>
      </trkpt>
      <trkpt lat="44.87752" lon="5.75246">
        <ele>720.26</ele>
        <time>2019-11-01T09:44:25Z</time>
      </trkpt>
      <trkpt lat="44.87755" lon="5.75248">
        <ele>720.25</ele>
        <time>2019-11-01T09:44:26Z</time>
      </trkpt>
      <trkpt lat="44.87758" lon="5.7525">
        <ele>720.03</ele>
        <time>2019-11-01T09:44:27Z</time>
      </trkpt>
      <trkpt lat="44.87761" lon="5.75252">
        <ele>720.04</ele>
        <time>2019-11-01T09:44:28Z</time>
      </trkpt>
      <trkpt lat="44.87763" lon="5.75254">
        <ele>720.04</ele>
        <time>2019-11-01T09:44:29Z</time>
      </trkpt>
      <trkpt lat="44.87765" lon="5.75257">
        <ele>720.67</ele>
        <time>2019-11-01T09:44:30Z</time>
      </trkpt>
      <trkpt lat="44.87768" lon="5.75259">
        <ele>721.42</ele>
        <time>2019-11-01T09:44:31Z</time>
      </trkpt>
      <trkpt lat="44.87771" lon="5.75261">
        <ele>721.85</ele>
        <time>2019-11-01T09:44:32Z</time>
      </trkpt>
      <trkpt lat="44.87774" lon="5.75263">
        <ele>722.13</ele>
        <time>2019-11-01T09:44:33Z</time>
      </trkpt>
      <trkpt lat="44.87776" lon="5.75266">
        <ele>722.07</ele>
        <time>2019-11-01T09:44:34Z</time>
      </trkpt>
      <trkpt lat="44.87779" lon="5.75268">
        <ele>721.98</ele>
        <time>2019-11-01T09:44:35Z</time>
      </trkpt>
      <trkpt lat="44.87781" lon="5.7527">
        <ele>721.88</ele>
        <time>2019-11-01T09:44:36Z</time>
      </trkpt>
      <trkpt lat="44.87784" lon="5.75272">
        <ele>721.99</ele>
        <time>2019-11-01T09:44:37Z</time>
      </trkpt>
      <trkpt lat="44.87786" lon="5.75274">
        <ele>721.75</ele>
        <time>2019-11-01T09:44:38Z</time>
      </trkpt>
      <trkpt lat="44.87788" lon="5.75276">
        <ele>721.39</ele>
        <time>2019-11-01T09:44:39Z</time>
      </trkpt>
      <trkpt lat="44.87791" lon="5.75278">
        <ele>721.29</ele>
        <time>2019-11-01T09:44:40Z</time>
      </trkpt>
      <trkpt lat="44.87793" lon="5.75281">
        <ele>721.39</ele>
        <time>2019-11-01T09:44:41Z</time>
      </trkpt>
      <trkpt lat="44.87795" lon="5.75284">
        <ele>721.78</ele>
        <time>2019-11-01T09:44:42Z</time>
      </trkpt>
      <trkpt lat="44.87798" lon="5.75287">
        <ele>721.68</ele>
        <time>2019-11-01T09:44:43Z</time>
      </trkpt>
      <trkpt lat="44.87801" lon="5.75289">
        <ele>721.58</ele>
        <time>2019-11-01T09:44:44Z</time>
      </trkpt>
      <trkpt lat="44.87803" lon="5.75291">
        <ele>721.83</ele>
        <time>2019-11-01T09:44:45Z</time>
      </trkpt>
      <trkpt lat="44.87805" lon="5.75294">
        <ele>721.98</ele>
        <time>2019-11-01T09:44:46Z</time>
      </trkpt>
      <trkpt lat="44.87808" lon="5.75297">
        <ele>722.16</ele>
        <time>2019-11-01T09:44:47Z</time>
      </trkpt>
      <trkpt lat="44.8781" lon="5.75299">
        <ele>722.57</ele>
        <time>2019-11-01T09:44:48Z</time>
      </trkpt>
      <trkpt lat="44.87813" lon="5.75301">
        <ele>722.83</ele>
        <time>2019-11-01T09:44:49Z</time>
      </trkpt>
      <trkpt lat="44.87816" lon="5.75303">
        <ele>723.05</ele>
        <time>2019-11-01T09:44:50Z</time>
      </trkpt>
      <trkpt lat="44.87818" lon="5.75305">
        <ele>723.53</ele>
        <time>2019-11-01T09:44:51Z</time>
      </trkpt>
      <trkpt lat="44.87821" lon="5.75307">
        <ele>723.96</ele>
        <time>2019-11-01T09:44:52Z</time>
      </trkpt>
      <trkpt lat="44.87824" lon="5.7531">
        <ele>724.44</ele>
        <time>2019-11-01T09:44:53Z</time>
      </trkpt>
      <trkpt lat="44.87827" lon="5.75312">
        <ele>724.58</ele>
        <time>2019-11-01T09:44:54Z</time>
      </trkpt>
      <trkpt lat="44.8783" lon="5.75313">
        <ele>724.55</ele>
        <time>2019-11-01T09:44:55Z</time>
      </trkpt>
      <trkpt lat="44.87833" lon="5.75315">
        <ele>724.47</ele>
        <time>2019-11-01T09:44:56Z</time>
      </trkpt>
      <trkpt lat="44.87836" lon="5.75316">
        <ele>724.52</ele>
        <time>2019-11-01T09:44:57Z</time>
      </trkpt>
      <trkpt lat="44.87839" lon="5.75318">
        <ele>724.61</ele>
        <time>2019-11-01T09:44:58Z</time>
      </trkpt>
      <trkpt lat="44.87842" lon="5.7532">
        <ele>724.49</ele>
        <time>2019-11-01T09:44:59Z</time>
      </trkpt>
      <trkpt lat="44.87845" lon="5.75321">
        <ele>724.11</ele>
        <time>2019-11-01T09:45:00Z</time>
      </trkpt>
      <trkpt lat="44.87848" lon="5.75323">
        <ele>724.13</ele>
        <time>2019-11-01T09:45:01Z</time>
      </trkpt>
      <trkpt lat="44.87851" lon="5.75323">
        <ele>724.21</ele>
        <time>2019-11-01T09:45:02Z</time>
      </trkpt>
      <trkpt lat="44.87854" lon="5.75324">
        <ele>724.16</ele>
        <time>2019-11-01T09:45:03Z</time>
      </trkpt>
      <trkpt lat="44.87857" lon="5.75326">
        <ele>724.15</ele>
        <time>2019-11-01T09:45:04Z</time>
      </trkpt>
      <trkpt lat="44.8786" lon="5.75329">
        <ele>724.35</ele>
        <time>2019-11-01T09:45:05Z</time>
      </trkpt>
      <trkpt lat="44.87862" lon="5.75331">
        <ele>724.62</ele>
        <time>2019-11-01T09:45:06Z</time>
      </trkpt>
      <trkpt lat="44.87865" lon="5.75333">
        <ele>724.64</ele>
        <time>2019-11-01T09:45:07Z</time>
      </trkpt>
      <trkpt lat="44.87868" lon="5.75335">
        <ele>724.71</ele>
        <time>2019-11-01T09:45:08Z</time>
      </trkpt>
      <trkpt lat="44.8787" lon="5.75338">
        <ele>724.45</ele>
        <time>2019-11-01T09:45:09Z</time>
      </trkpt>
      <trkpt lat="44.87871" lon="5.75343">
        <ele>724.44</ele>
        <time>2019-11-01T09:45:10Z</time>
      </trkpt>
      <trkpt lat="44.87872" lon="5.75347">
        <ele>724.79</ele>
        <time>2019-11-01T09:45:11Z</time>
      </trkpt>
      <trkpt lat="44.87872" lon="5.75351">
        <ele>725.46</ele>
        <time>2019-11-01T09:45:12Z</time>
      </trkpt>
      <trkpt lat="44.87872" lon="5.75354">
        <ele>725.94</ele>
        <time>2019-11-01T09:45:13Z</time>
      </trkpt>
      <trkpt lat="44.87872" lon="5.75357">
        <ele>726.01</ele>
        <time>2019-11-01T09:45:14Z</time>
      </trkpt>
      <trkpt lat="44.8787" lon="5.7536">
        <ele>726.31</ele>
        <time>2019-11-01T09:45:15Z</time>
      </trkpt>
      <trkpt lat="44.87869" lon="5.75362">
        <ele>726.4</ele>
        <time>2019-11-01T09:45:16Z</time>
      </trkpt>
      <trkpt lat="44.87867" lon="5.75366">
        <ele>726.64</ele>
        <time>2019-11-01T09:45:17Z</time>
      </trkpt>
      <trkpt lat="44.87865" lon="5.75368">
        <ele>726.92</ele>
        <time>2019-11-01T09:45:18Z</time>
      </trkpt>
      <trkpt lat="44.87863" lon="5.7537">
        <ele>727.21</ele>
        <time>2019-11-01T09:45:19Z</time>
      </trkpt>
      <trkpt lat="44.8786" lon="5.75372">
        <ele>727.51</ele>
        <time>2019-11-01T09:45:20Z</time>
      </trkpt>
      <trkpt lat="44.87857" lon="5.75373">
        <ele>727.53</ele>
        <time>2019-11-01T09:45:21Z</time>
      </trkpt>
      <trkpt lat="44.87854" lon="5.75375">
        <ele>727.75</ele>
        <time>2019-11-01T09:45:22Z</time>
      </trkpt>
      <trkpt lat="44.8785" lon="5.75375">
        <ele>727.81</ele>
        <time>2019-11-01T09:45:23Z</time>
      </trkpt>
      <trkpt lat="44.87847" lon="5.75377">
        <ele>728.04</ele>
        <time>2019-11-01T09:45:24Z</time>
      </trkpt>
      <trkpt lat="44.87844" lon="5.75378">
        <ele>728.11</ele>
        <time>2019-11-01T09:45:25Z</time>
      </trkpt>
      <trkpt lat="44.8784" lon="5.75378">
        <ele>728.27</ele>
        <time>2019-11-01T09:45:26Z</time>
      </trkpt>
      <trkpt lat="44.87837" lon="5.75378">
        <ele>728.6</ele>
        <time>2019-11-01T09:45:27Z</time>
      </trkpt>
      <trkpt lat="44.87833" lon="5.75379">
        <ele>728.91</ele>
        <time>2019-11-01T09:45:28Z</time>
      </trkpt>
      <trkpt lat="44.8783" lon="5.75379">
        <ele>729.14</ele>
        <time>2019-11-01T09:45:29Z</time>
      </trkpt>
      <trkpt lat="44.87827" lon="5.7538">
        <ele>729.35</ele>
        <time>2019-11-01T09:45:30Z</time>
      </trkpt>
      <trkpt lat="44.87823" lon="5.7538">
        <ele>729.62</ele>
        <time>2019-11-01T09:45:31Z</time>
      </trkpt>
      <trkpt lat="44.8782" lon="5.7538">
        <ele>729.5</ele>
        <time>2019-11-01T09:45:32Z</time>
      </trkpt>
      <trkpt lat="44.87816" lon="5.7538">
        <ele>729.88</ele>
        <time>2019-11-01T09:45:33Z</time>
      </trkpt>
      <trkpt lat="44.87813" lon="5.75381">
        <ele>730.27</ele>
        <time>2019-11-01T09:45:34Z</time>
      </trkpt>
      <trkpt lat="44.8781" lon="5.75381">
        <ele>730.6</ele>
        <time>2019-11-01T09:45:35Z</time>
      </trkpt>
      <trkpt lat="44.87807" lon="5.75382">
        <ele>730.56</ele>
        <time>2019-11-01T09:45:36Z</time>
      </trkpt>
      <trkpt lat="44.87803" lon="5.75382">
        <ele>730.69</ele>
        <time>2019-11-01T09:45:37Z</time>
      </trkpt>
      <trkpt lat="44.878" lon="5.75382">
        <ele>730.86</ele>
        <time>2019-11-01T09:45:38Z</time>
      </trkpt>
      <trkpt lat="44.87796" lon="5.75382">
        <ele>731.06</ele>
        <time>2019-11-01T09:45:39Z</time>
      </trkpt>
      <trkpt lat="44.87793" lon="5.75383">
        <ele>731.26</ele>
        <time>2019-11-01T09:45:40Z</time>
      </trkpt>
      <trkpt lat="44.8779" lon="5.75384">
        <ele>731.32</ele>
        <time>2019-11-01T09:45:41Z</time>
      </trkpt>
      <trkpt lat="44.87787" lon="5.75385">
        <ele>731.4</ele>
        <time>2019-11-01T09:45:42Z</time>
      </trkpt>
      <trkpt lat="44.87784" lon="5.75386">
        <ele>731.22</ele>
        <time>2019-11-01T09:45:43Z</time>
      </trkpt>
      <trkpt lat="44.87781" lon="5.75386">
        <ele>731.09</ele>
        <time>2019-11-01T09:45:44Z</time>
      </trkpt>
      <trkpt lat="44.87778" lon="5.75387">
        <ele>731.2</ele>
        <time>2019-11-01T09:45:45Z</time>
      </trkpt>
      <trkpt lat="44.87775" lon="5.75388">
        <ele>731.3</ele>
        <time>2019-11-01T09:45:46Z</time>
      </trkpt>
      <trkpt lat="44.87772" lon="5.75389">
        <ele>731.33</ele>
        <time>2019-11-01T09:45:47Z</time>
      </trkpt>
      <trkpt lat="44.87769" lon="5.75389">
        <ele>731.34</ele>
        <time>2019-11-01T09:45:48Z</time>
      </trkpt>
      <trkpt lat="44.87766" lon="5.7539">
        <ele>731.41</ele>
        <time>2019-11-01T09:45:49Z</time>
      </trkpt>
      <trkpt lat="44.87763" lon="5.75391">
        <ele>731.43</ele>
        <time>2019-11-01T09:45:50Z</time>
      </trkpt>
      <trkpt lat="44.8776" lon="5.75391">
        <ele>731.72</ele>
        <time>2019-11-01T09:45:51Z</time>
      </trkpt>
      <trkpt lat="44.87757" lon="5.75392">
        <ele>731.94</ele>
        <time>2019-11-01T09:45:52Z</time>
      </trkpt>
      <trkpt lat="44.87754" lon="5.75393">
        <ele>732.15</ele>
        <time>2019-11-01T09:45:53Z</time>
      </trkpt>
      <trkpt lat="44.87751" lon="5.75395">
        <ele>732.35</ele>
        <time>2019-11-01T09:45:54Z</time>
      </trkpt>
      <trkpt lat="44.87748" lon="5.75396">
        <ele>732.63</ele>
        <time>2019-11-01T09:45:55Z</time>
      </trkpt>
      <trkpt lat="44.87744" lon="5.75398">
        <ele>732.92</ele>
        <time>2019-11-01T09:45:56Z</time>
      </trkpt>
      <trkpt lat="44.87742" lon="5.75399">
        <ele>733.07</ele>
        <time>2019-11-01T09:45:57Z</time>
      </trkpt>
      <trkpt lat="44.87739" lon="5.75401">
        <ele>733.26</ele>
        <time>2019-11-01T09:45:58Z</time>
      </trkpt>
      <trkpt lat="44.87736" lon="5.75402">
        <ele>733.32</ele>
        <time>2019-11-01T09:45:59Z</time>
      </trkpt>
      <trkpt lat="44.87733" lon="5.75404">
        <ele>733.47</ele>
        <time>2019-11-01T09:46:00Z</time>
      </trkpt>
      <trkpt lat="44.8773" lon="5.75405">
        <ele>733.59</ele>
        <time>2019-11-01T09:46:01Z</time>
      </trkpt>
      <trkpt lat="44.87727" lon="5.75406">
        <ele>733.91</ele>
        <time>2019-11-01T09:46:02Z</time>
      </trkpt>
      <trkpt lat="44.87724" lon="5.75408">
        <ele>734.07</ele>
        <time>2019-11-01T09:46:03Z</time>
      </trkpt>
      <trkpt lat="44.87721" lon="5.75409">
        <ele>734.26</ele>
        <time>2019-11-01T09:46:04Z</time>
      </trkpt>
      <trkpt lat="44.87718" lon="5.75411">
        <ele>734.32</ele>
        <time>2019-11-01T09:46:05Z</time>
      </trkpt>
      <trkpt lat="44.87715" lon="5.75414">
        <ele>734.05</ele>
        <time>2019-11-01T09:46:06Z</time>
      </trkpt>
      <trkpt lat="44.87712" lon="5.75415">
        <ele>733.97</ele>
        <time>2019-11-01T09:46:07Z</time>
      </trkpt>
      <trkpt lat="44.87709" lon="5.75416">
        <ele>733.81</ele>
        <time>2019-11-01T09:46:08Z</time>
      </trkpt>
      <trkpt lat="44.87705" lon="5.75418">
        <ele>733.41</ele>
        <time>2019-11-01T09:46:09Z</time>
      </trkpt>
      <trkpt lat="44.87702" lon="5.75419">
        <ele>733.43</ele>
        <time>2019-11-01T09:46:10Z</time>
      </trkpt>
      <trkpt lat="44.87699" lon="5.7542">
        <ele>733.51</ele>
        <time>2019-11-01T09:46:11Z</time>
      </trkpt>
      <trkpt lat="44.87696" lon="5.75421">
        <ele>733.88</ele>
        <time>2019-11-01T09:46:12Z</time>
      </trkpt>
      <trkpt lat="44.87693" lon="5.75422">
        <ele>734.06</ele>
        <time>2019-11-01T09:46:13Z</time>
      </trkpt>
      <trkpt lat="44.8769" lon="5.75423">
        <ele>734.47</ele>
        <time>2019-11-01T09:46:14Z</time>
      </trkpt>
      <trkpt lat="44.87687" lon="5.75424">
        <ele>734.73</ele>
        <time>2019-11-01T09:46:15Z</time>
      </trkpt>
      <trkpt lat="44.87684" lon="5.75425">
        <ele>735.3</ele>
        <time>2019-11-01T09:46:16Z</time>
      </trkpt>
      <trkpt lat="44.87681" lon="5.75425">
        <ele>735.96</ele>
        <time>2019-11-01T09:46:17Z</time>
      </trkpt>
      <trkpt lat="44.87678" lon="5.75426">
        <ele>736.23</ele>
        <time>2019-11-01T09:46:18Z</time>
      </trkpt>
      <trkpt lat="44.87675" lon="5.75427">
        <ele>736.31</ele>
        <time>2019-11-01T09:46:19Z</time>
      </trkpt>
      <trkpt lat="44.87671" lon="5.75428">
        <ele>736.33</ele>
        <time>2019-11-01T09:46:20Z</time>
      </trkpt>
      <trkpt lat="44.87668" lon="5.75428">
        <ele>736.41</ele>
        <time>2019-11-01T09:46:21Z</time>
      </trkpt>
      <trkpt lat="44.87665" lon="5.75429">
        <ele>736.57</ele>
        <time>2019-11-01T09:46:22Z</time>
      </trkpt>
      <trkpt lat="44.87662" lon="5.7543">
        <ele>736.69</ele>
        <time>2019-11-01T09:46:23Z</time>
      </trkpt>
      <trkpt lat="44.87659" lon="5.75431">
        <ele>736.8</ele>
        <time>2019-11-01T09:46:24Z</time>
      </trkpt>
      <trkpt lat="44.87656" lon="5.75431">
        <ele>737.04</ele>
        <time>2019-11-01T09:46:25Z</time>
      </trkpt>
      <trkpt lat="44.87652" lon="5.75431">
        <ele>737.25</ele>
        <time>2019-11-01T09:46:26Z</time>
      </trkpt>
      <trkpt lat="44.87649" lon="5.75432">
        <ele>737.45</ele>
        <time>2019-11-01T09:46:27Z</time>
      </trkpt>
      <trkpt lat="44.87646" lon="5.75432">
        <ele>737.65</ele>
        <time>2019-11-01T09:46:28Z</time>
      </trkpt>
      <trkpt lat="44.87643" lon="5.75432">
        <ele>737.93</ele>
        <time>2019-11-01T09:46:29Z</time>
      </trkpt>
      <trkpt lat="44.8764" lon="5.75432">
        <ele>738.08</ele>
        <time>2019-11-01T09:46:30Z</time>
      </trkpt>
      <trkpt lat="44.87636" lon="5.75432">
        <ele>738.54</ele>
        <time>2019-11-01T09:46:31Z</time>
      </trkpt>
      <trkpt lat="44.87633" lon="5.75432">
        <ele>738.61</ele>
        <time>2019-11-01T09:46:32Z</time>
      </trkpt>
      <trkpt lat="44.8763" lon="5.75432">
        <ele>738.77</ele>
        <time>2019-11-01T09:46:33Z</time>
      </trkpt>
      <trkpt lat="44.87627" lon="5.75433">
        <ele>739.03</ele>
        <time>2019-11-01T09:46:34Z</time>
      </trkpt>
      <trkpt lat="44.87624" lon="5.75433">
        <ele>739.18</ele>
        <time>2019-11-01T09:46:35Z</time>
      </trkpt>
      <trkpt lat="44.87621" lon="5.75433">
        <ele>739.29</ele>
        <time>2019-11-01T09:46:36Z</time>
      </trkpt>
      <trkpt lat="44.87617" lon="5.75434">
        <ele>739.47</ele>
        <time>2019-11-01T09:46:37Z</time>
      </trkpt>
      <trkpt lat="44.87614" lon="5.75434">
        <ele>739.66</ele>
        <time>2019-11-01T09:46:38Z</time>
      </trkpt>
      <trkpt lat="44.87611" lon="5.75435">
        <ele>739.79</ele>
        <time>2019-11-01T09:46:39Z</time>
      </trkpt>
      <trkpt lat="44.87608" lon="5.75436">
        <ele>739.82</ele>
        <time>2019-11-01T09:46:40Z</time>
      </trkpt>
      <trkpt lat="44.87605" lon="5.75438">
        <ele>739.91</ele>
        <time>2019-11-01T09:46:41Z</time>
      </trkpt>
      <trkpt lat="44.87602" lon="5.75439">
        <ele>740</ele>
        <time>2019-11-01T09:46:42Z</time>
      </trkpt>
      <trkpt lat="44.87598" lon="5.7544">
        <ele>740.03</ele>
        <time>2019-11-01T09:46:43Z</time>
      </trkpt>
      <trkpt lat="44.87596" lon="5.75442">
        <ele>740.04</ele>
        <time>2019-11-01T09:46:44Z</time>
      </trkpt>
      <trkpt lat="44.87593" lon="5.75444">
        <ele>740.04</ele>
        <time>2019-11-01T09:46:45Z</time>
      </trkpt>
      <trkpt lat="44.8759" lon="5.75446">
        <ele>739.9</ele>
        <time>2019-11-01T09:46:46Z</time>
      </trkpt>
      <trkpt lat="44.87587" lon="5.75448">
        <ele>739.72</ele>
        <time>2019-11-01T09:46:47Z</time>
      </trkpt>
      <trkpt lat="44.87585" lon="5.7545">
        <ele>740.01</ele>
        <time>2019-11-01T09:46:48Z</time>
      </trkpt>
      <trkpt lat="44.87582" lon="5.75451">
        <ele>740.45</ele>
        <time>2019-11-01T09:46:49Z</time>
      </trkpt>
      <trkpt lat="44.87579" lon="5.75454">
        <ele>740.79</ele>
        <time>2019-11-01T09:46:50Z</time>
      </trkpt>
      <trkpt lat="44.87577" lon="5.75455">
        <ele>740.97</ele>
        <time>2019-11-01T09:46:51Z</time>
      </trkpt>
      <trkpt lat="44.87574" lon="5.75456">
        <ele>741.09</ele>
        <time>2019-11-01T09:46:52Z</time>
      </trkpt>
      <trkpt lat="44.87572" lon="5.75458">
        <ele>741.27</ele>
        <time>2019-11-01T09:46:53Z</time>
      </trkpt>
      <trkpt lat="44.87569" lon="5.7546">
        <ele>741.6</ele>
        <time>2019-11-01T09:46:54Z</time>
      </trkpt>
      <trkpt lat="44.87568" lon="5.75462">
        <ele>742.05</ele>
        <time>2019-11-01T09:46:55Z</time>
      </trkpt>
      <trkpt lat="44.87566" lon="5.75464">
        <ele>742.32</ele>
        <time>2019-11-01T09:46:56Z</time>
      </trkpt>
      <trkpt lat="44.87563" lon="5.75467">
        <ele>743.28</ele>
        <time>2019-11-01T09:46:58Z</time>
      </trkpt>
      <trkpt lat="44.87561" lon="5.75468">
        <ele>743.6</ele>
        <time>2019-11-01T09:46:59Z</time>
      </trkpt>
      <trkpt lat="44.87559" lon="5.75469">
        <ele>743.63</ele>
        <time>2019-11-01T09:47:00Z</time>
      </trkpt>
      <trkpt lat="44.87557" lon="5.7547">
        <ele>743.85</ele>
        <time>2019-11-01T09:47:01Z</time>
      </trkpt>
      <trkpt lat="44.87556" lon="5.75471">
        <ele>744.33</ele>
        <time>2019-11-01T09:47:02Z</time>
      </trkpt>
      <trkpt lat="44.87553" lon="5.75473">
        <ele>744.18</ele>
        <time>2019-11-01T09:47:04Z</time>
      </trkpt>
      <trkpt lat="44.87555" lon="5.75475">
        <ele>745.17</ele>
        <time>2019-11-01T09:47:06Z</time>
      </trkpt>
      <trkpt lat="44.87557" lon="5.75475">
        <ele>745.36</ele>
        <time>2019-11-01T09:47:07Z</time>
      </trkpt>
      <trkpt lat="44.87559" lon="5.75473">
        <ele>745.42</ele>
        <time>2019-11-01T09:47:08Z</time>
      </trkpt>
      <trkpt lat="44.87562" lon="5.75472">
        <ele>745.58</ele>
        <time>2019-11-01T09:47:10Z</time>
      </trkpt>
      <trkpt lat="44.87568" lon="5.7547">
        <ele>745.22</ele>
        <time>2019-11-01T09:47:45Z</time>
      </trkpt>
      <trkpt lat="44.87569" lon="5.75472">
        <ele>745.05</ele>
        <time>2019-11-01T09:47:48Z</time>
      </trkpt>
      <trkpt lat="44.87577" lon="5.75478">
        <ele>747.14</ele>
        <time>2019-11-01T09:48:46Z</time>
      </trkpt>
      <trkpt lat="44.87579" lon="5.75491">
        <ele>746.8</ele>
        <time>2019-11-01T09:49:10Z</time>
      </trkpt>
      <trkpt lat="44.87578" lon="5.75505">
        <ele>746.69</ele>
        <time>2019-11-01T09:52:19Z</time>
      </trkpt>
      <trkpt lat="44.87577" lon="5.75508">
        <ele>746.74</ele>
        <time>2019-11-01T09:52:21Z</time>
      </trkpt>
      <trkpt lat="44.87576" lon="5.7551">
        <ele>746.9</ele>
        <time>2019-11-01T09:52:23Z</time>
      </trkpt>
      <trkpt lat="44.87576" lon="5.75514">
        <ele>747.19</ele>
        <time>2019-11-01T09:52:25Z</time>
      </trkpt>
      <trkpt lat="44.87577" lon="5.75518">
        <ele>747.49</ele>
        <time>2019-11-01T09:52:27Z</time>
      </trkpt>
      <trkpt lat="44.87577" lon="5.75521">
        <ele>747.86</ele>
        <time>2019-11-01T09:52:29Z</time>
      </trkpt>
      <trkpt lat="44.87578" lon="5.75524">
        <ele>748.26</ele>
        <time>2019-11-01T09:52:31Z</time>
      </trkpt>
      <trkpt lat="44.87579" lon="5.75526">
        <ele>748.68</ele>
        <time>2019-11-01T09:52:33Z</time>
      </trkpt>
      <trkpt lat="44.8758" lon="5.75529">
        <ele>749.13</ele>
        <time>2019-11-01T09:52:35Z</time>
      </trkpt>
      <trkpt lat="44.87581" lon="5.75532">
        <ele>749.35</ele>
        <time>2019-11-01T09:52:36Z</time>
      </trkpt>
      <trkpt lat="44.87581" lon="5.75535">
        <ele>749.62</ele>
        <time>2019-11-01T09:52:37Z</time>
      </trkpt>
      <trkpt lat="44.87583" lon="5.75539">
        <ele>750.14</ele>
        <time>2019-11-01T09:52:39Z</time>
      </trkpt>
      <trkpt lat="44.87584" lon="5.75541">
        <ele>750.83</ele>
        <time>2019-11-01T09:52:41Z</time>
      </trkpt>
      <trkpt lat="44.87585" lon="5.75544">
        <ele>751.41</ele>
        <time>2019-11-01T09:52:43Z</time>
      </trkpt>
      <trkpt lat="44.87586" lon="5.75549">
        <ele>752.01</ele>
        <time>2019-11-01T09:52:45Z</time>
      </trkpt>
      <trkpt lat="44.87587" lon="5.75553">
        <ele>752.59</ele>
        <time>2019-11-01T09:52:47Z</time>
      </trkpt>
      <trkpt lat="44.87588" lon="5.75556">
        <ele>753.21</ele>
        <time>2019-11-01T09:52:49Z</time>
      </trkpt>
      <trkpt lat="44.87589" lon="5.75558">
        <ele>753.95</ele>
        <time>2019-11-01T09:52:51Z</time>
      </trkpt>
      <trkpt lat="44.8759" lon="5.7556">
        <ele>754.72</ele>
        <time>2019-11-01T09:52:53Z</time>
      </trkpt>
      <trkpt lat="44.87591" lon="5.75565">
        <ele>755.71</ele>
        <time>2019-11-01T09:52:55Z</time>
      </trkpt>
      <trkpt lat="44.87591" lon="5.75568">
        <ele>757.27</ele>
        <time>2019-11-01T09:52:58Z</time>
      </trkpt>
      <trkpt lat="44.87591" lon="5.75571">
        <ele>757.75</ele>
        <time>2019-11-01T09:53:00Z</time>
      </trkpt>
      <trkpt lat="44.87591" lon="5.75584">
        <ele>760.71</ele>
        <time>2019-11-01T09:53:16Z</time>
      </trkpt>
      <trkpt lat="44.87591" lon="5.75591">
        <ele>763.28</ele>
        <time>2019-11-01T09:53:27Z</time>
      </trkpt>
      <trkpt lat="44.87592" lon="5.75594">
        <ele>763.81</ele>
        <time>2019-11-01T09:53:28Z</time>
      </trkpt>
      <trkpt lat="44.87592" lon="5.75596">
        <ele>764.18</ele>
        <time>2019-11-01T09:53:29Z</time>
      </trkpt>
      <trkpt lat="44.87593" lon="5.75599">
        <ele>764.57</ele>
        <time>2019-11-01T09:53:30Z</time>
      </trkpt>
      <trkpt lat="44.87594" lon="5.75603">
        <ele>765.37</ele>
        <time>2019-11-01T09:53:32Z</time>
      </trkpt>
      <trkpt lat="44.87595" lon="5.75607">
        <ele>766.55</ele>
        <time>2019-11-01T09:53:35Z</time>
      </trkpt>
      <trkpt lat="44.87596" lon="5.75609">
        <ele>767.62</ele>
        <time>2019-11-01T09:53:37Z</time>
      </trkpt>
      <trkpt lat="44.87597" lon="5.75612">
        <ele>768.95</ele>
        <time>2019-11-01T09:53:39Z</time>
      </trkpt>
      <trkpt lat="44.87599" lon="5.75616">
        <ele>770.14</ele>
        <time>2019-11-01T09:53:41Z</time>
      </trkpt>
      <trkpt lat="44.87601" lon="5.75619">
        <ele>771.88</ele>
        <time>2019-11-01T09:53:43Z</time>
      </trkpt>
      <trkpt lat="44.87602" lon="5.75621">
        <ele>773.01</ele>
        <time>2019-11-01T09:53:45Z</time>
      </trkpt>
      <trkpt lat="44.87604" lon="5.75624">
        <ele>773.92</ele>
        <time>2019-11-01T09:53:47Z</time>
      </trkpt>
      <trkpt lat="44.87605" lon="5.75628">
        <ele>775.11</ele>
        <time>2019-11-01T09:53:49Z</time>
      </trkpt>
      <trkpt lat="44.87607" lon="5.75632">
        <ele>775.64</ele>
        <time>2019-11-01T09:53:51Z</time>
      </trkpt>
      <trkpt lat="44.87607" lon="5.75635">
        <ele>776.22</ele>
        <time>2019-11-01T09:53:53Z</time>
      </trkpt>
      <trkpt lat="44.87609" lon="5.75638">
        <ele>777.04</ele>
        <time>2019-11-01T09:53:55Z</time>
      </trkpt>
      <trkpt lat="44.8761" lon="5.75642">
        <ele>777.87</ele>
        <time>2019-11-01T09:53:57Z</time>
      </trkpt>
      <trkpt lat="44.87611" lon="5.75646">
        <ele>778.6</ele>
        <time>2019-11-01T09:53:59Z</time>
      </trkpt>
      <trkpt lat="44.87613" lon="5.75649">
        <ele>779.53</ele>
        <time>2019-11-01T09:54:01Z</time>
      </trkpt>
      <trkpt lat="44.87614" lon="5.75651">
        <ele>780.7</ele>
        <time>2019-11-01T09:54:04Z</time>
      </trkpt>
      <trkpt lat="44.8762" lon="5.75662">
        <ele>782</ele>
        <time>2019-11-01T09:54:14Z</time>
      </trkpt>
      <trkpt lat="44.87621" lon="5.75665">
        <ele>782.66</ele>
        <time>2019-11-01T09:54:15Z</time>
      </trkpt>
      <trkpt lat="44.8762" lon="5.75668">
        <ele>783</ele>
        <time>2019-11-01T09:54:16Z</time>
      </trkpt>
      <trkpt lat="44.87621" lon="5.75672">
        <ele>783.45</ele>
        <time>2019-11-01T09:54:18Z</time>
      </trkpt>
      <trkpt lat="44.87622" lon="5.75674">
        <ele>783.51</ele>
        <time>2019-11-01T09:54:19Z</time>
      </trkpt>
      <trkpt lat="44.87623" lon="5.75677">
        <ele>783.67</ele>
        <time>2019-11-01T09:54:20Z</time>
      </trkpt>
      <trkpt lat="44.87624" lon="5.75681">
        <ele>784.22</ele>
        <time>2019-11-01T09:54:22Z</time>
      </trkpt>
      <trkpt lat="44.87627" lon="5.75685">
        <ele>784.51</ele>
        <time>2019-11-01T09:54:24Z</time>
      </trkpt>
      <trkpt lat="44.87628" lon="5.75688">
        <ele>784.91</ele>
        <time>2019-11-01T09:54:26Z</time>
      </trkpt>
      <trkpt lat="44.87629" lon="5.75691">
        <ele>785.26</ele>
        <time>2019-11-01T09:54:28Z</time>
      </trkpt>
      <trkpt lat="44.87631" lon="5.75702">
        <ele>785.44</ele>
        <time>2019-11-01T09:54:34Z</time>
      </trkpt>
      <trkpt lat="44.87632" lon="5.75706">
        <ele>785.16</ele>
        <time>2019-11-01T09:54:35Z</time>
      </trkpt>
      <trkpt lat="44.87633" lon="5.75709">
        <ele>784.8</ele>
        <time>2019-11-01T09:54:36Z</time>
      </trkpt>
      <trkpt lat="44.87634" lon="5.75712">
        <ele>784.48</ele>
        <time>2019-11-01T09:54:37Z</time>
      </trkpt>
      <trkpt lat="44.87635" lon="5.75715">
        <ele>784.31</ele>
        <time>2019-11-01T09:54:38Z</time>
      </trkpt>
      <trkpt lat="44.87636" lon="5.75717">
        <ele>784.12</ele>
        <time>2019-11-01T09:54:39Z</time>
      </trkpt>
      <trkpt lat="44.87637" lon="5.7572">
        <ele>784</ele>
        <time>2019-11-01T09:54:40Z</time>
      </trkpt>
      <trkpt lat="44.87637" lon="5.75723">
        <ele>783.96</ele>
        <time>2019-11-01T09:54:41Z</time>
      </trkpt>
      <trkpt lat="44.87638" lon="5.75726">
        <ele>783.95</ele>
        <time>2019-11-01T09:54:42Z</time>
      </trkpt>
      <trkpt lat="44.87639" lon="5.75729">
        <ele>783.8</ele>
        <time>2019-11-01T09:54:43Z</time>
      </trkpt>
      <trkpt lat="44.8764" lon="5.75732">
        <ele>783.62</ele>
        <time>2019-11-01T09:54:44Z</time>
      </trkpt>
      <trkpt lat="44.8764" lon="5.75735">
        <ele>783.63</ele>
        <time>2019-11-01T09:54:45Z</time>
      </trkpt>
      <trkpt lat="44.87641" lon="5.75737">
        <ele>783.71</ele>
        <time>2019-11-01T09:54:46Z</time>
      </trkpt>
      <trkpt lat="44.87641" lon="5.75741">
        <ele>783.72</ele>
        <time>2019-11-01T09:54:48Z</time>
      </trkpt>
      <trkpt lat="44.87642" lon="5.75744">
        <ele>783.66</ele>
        <time>2019-11-01T09:54:49Z</time>
      </trkpt>
      <trkpt lat="44.87643" lon="5.75747">
        <ele>783.51</ele>
        <time>2019-11-01T09:54:50Z</time>
      </trkpt>
      <trkpt lat="44.87644" lon="5.75751">
        <ele>783.46</ele>
        <time>2019-11-01T09:54:51Z</time>
      </trkpt>
      <trkpt lat="44.87645" lon="5.75755">
        <ele>783.05</ele>
        <time>2019-11-01T09:54:53Z</time>
      </trkpt>
      <trkpt lat="44.87645" lon="5.75759">
        <ele>782.79</ele>
        <time>2019-11-01T09:54:55Z</time>
      </trkpt>
      <trkpt lat="44.87647" lon="5.75763">
        <ele>782.26</ele>
        <time>2019-11-01T09:54:57Z</time>
      </trkpt>
      <trkpt lat="44.87647" lon="5.75766">
        <ele>782.11</ele>
        <time>2019-11-01T09:54:58Z</time>
      </trkpt>
      <trkpt lat="44.87648" lon="5.75768">
        <ele>781.99</ele>
        <time>2019-11-01T09:54:59Z</time>
      </trkpt>
      <trkpt lat="44.8765" lon="5.75771">
        <ele>782.03</ele>
        <time>2019-11-01T09:55:00Z</time>
      </trkpt>
      <trkpt lat="44.8765" lon="5.75775">
        <ele>782.39</ele>
        <time>2019-11-01T09:55:01Z</time>
      </trkpt>
      <trkpt lat="44.87651" lon="5.75778">
        <ele>782.49</ele>
        <time>2019-11-01T09:55:02Z</time>
      </trkpt>
      <trkpt lat="44.87652" lon="5.75782">
        <ele>782.46</ele>
        <time>2019-11-01T09:55:03Z</time>
      </trkpt>
      <trkpt lat="44.87653" lon="5.75786">
        <ele>782.38</ele>
        <time>2019-11-01T09:55:04Z</time>
      </trkpt>
      <trkpt lat="44.87653" lon="5.75789">
        <ele>782.28</ele>
        <time>2019-11-01T09:55:05Z</time>
      </trkpt>
      <trkpt lat="44.87654" lon="5.75793">
        <ele>782.18</ele>
        <time>2019-11-01T09:55:06Z</time>
      </trkpt>
      <trkpt lat="44.87655" lon="5.75797">
        <ele>782.01</ele>
        <time>2019-11-01T09:55:07Z</time>
      </trkpt>
      <trkpt lat="44.87655" lon="5.758">
        <ele>781.75</ele>
        <time>2019-11-01T09:55:08Z</time>
      </trkpt>
      <trkpt lat="44.87656" lon="5.75804">
        <ele>781.6</ele>
        <time>2019-11-01T09:55:09Z</time>
      </trkpt>
      <trkpt lat="44.87657" lon="5.75806">
        <ele>781.35</ele>
        <time>2019-11-01T09:55:10Z</time>
      </trkpt>
      <trkpt lat="44.87658" lon="5.75809">
        <ele>781.13</ele>
        <time>2019-11-01T09:55:11Z</time>
      </trkpt>
      <trkpt lat="44.87659" lon="5.75811">
        <ele>780.93</ele>
        <time>2019-11-01T09:55:12Z</time>
      </trkpt>
      <trkpt lat="44.8766" lon="5.75813">
        <ele>780.87</ele>
        <time>2019-11-01T09:55:13Z</time>
      </trkpt>
      <trkpt lat="44.87662" lon="5.75816">
        <ele>780.71</ele>
        <time>2019-11-01T09:55:14Z</time>
      </trkpt>
      <trkpt lat="44.87663" lon="5.75819">
        <ele>780.52</ele>
        <time>2019-11-01T09:55:15Z</time>
      </trkpt>
      <trkpt lat="44.87665" lon="5.75821">
        <ele>780.47</ele>
        <time>2019-11-01T09:55:16Z</time>
      </trkpt>
      <trkpt lat="44.87666" lon="5.75822">
        <ele>780.66</ele>
        <time>2019-11-01T09:55:17Z</time>
      </trkpt>
      <trkpt lat="44.87668" lon="5.75824">
        <ele>780.93</ele>
        <time>2019-11-01T09:55:18Z</time>
      </trkpt>
      <trkpt lat="44.8767" lon="5.75825">
        <ele>780.8</ele>
        <time>2019-11-01T09:55:19Z</time>
      </trkpt>
      <trkpt lat="44.87672" lon="5.75826">
        <ele>780.9</ele>
        <time>2019-11-01T09:55:20Z</time>
      </trkpt>
      <trkpt lat="44.87674" lon="5.75828">
        <ele>780.94</ele>
        <time>2019-11-01T09:55:22Z</time>
      </trkpt>
      <trkpt lat="44.87677" lon="5.7583">
        <ele>781.1</ele>
        <time>2019-11-01T09:55:24Z</time>
      </trkpt>
      <trkpt lat="44.87679" lon="5.7583">
        <ele>781.2</ele>
        <time>2019-11-01T09:55:25Z</time>
      </trkpt>
      <trkpt lat="44.87681" lon="5.75831">
        <ele>781.23</ele>
        <time>2019-11-01T09:55:26Z</time>
      </trkpt>
      <trkpt lat="44.87684" lon="5.75831">
        <ele>781.22</ele>
        <time>2019-11-01T09:55:28Z</time>
      </trkpt>
      <trkpt lat="44.87687" lon="5.75832">
        <ele>781.4</ele>
        <time>2019-11-01T09:55:30Z</time>
      </trkpt>
      <trkpt lat="44.8769" lon="5.75834">
        <ele>781.67</ele>
        <time>2019-11-01T09:55:32Z</time>
      </trkpt>
      <trkpt lat="44.87693" lon="5.75835">
        <ele>781.97</ele>
        <time>2019-11-01T09:55:34Z</time>
      </trkpt>
      <trkpt lat="44.87697" lon="5.75836">
        <ele>782.5</ele>
        <time>2019-11-01T09:55:36Z</time>
      </trkpt>
      <trkpt lat="44.87699" lon="5.75836">
        <ele>782.88</ele>
        <time>2019-11-01T09:55:37Z</time>
      </trkpt>
      <trkpt lat="44.87702" lon="5.75837">
        <ele>783.28</ele>
        <time>2019-11-01T09:55:39Z</time>
      </trkpt>
      <trkpt lat="44.87706" lon="5.75839">
        <ele>783.7</ele>
        <time>2019-11-01T09:55:41Z</time>
      </trkpt>
      <trkpt lat="44.87707" lon="5.75841">
        <ele>783.73</ele>
        <time>2019-11-01T09:55:42Z</time>
      </trkpt>
      <trkpt lat="44.87709" lon="5.75842">
        <ele>783.72</ele>
        <time>2019-11-01T09:55:44Z</time>
      </trkpt>
      <trkpt lat="44.87712" lon="5.75844">
        <ele>783.47</ele>
        <time>2019-11-01T09:55:46Z</time>
      </trkpt>
      <trkpt lat="44.87714" lon="5.75846">
        <ele>783.59</ele>
        <time>2019-11-01T09:55:47Z</time>
      </trkpt>
      <trkpt lat="44.87716" lon="5.75848">
        <ele>783.7</ele>
        <time>2019-11-01T09:55:48Z</time>
      </trkpt>
      <trkpt lat="44.87717" lon="5.7585">
        <ele>783.73</ele>
        <time>2019-11-01T09:55:49Z</time>
      </trkpt>
      <trkpt lat="44.87719" lon="5.75852">
        <ele>783.72</ele>
        <time>2019-11-01T09:55:51Z</time>
      </trkpt>
      <trkpt lat="44.87722" lon="5.75855">
        <ele>783.85</ele>
        <time>2019-11-01T09:55:53Z</time>
      </trkpt>
      <trkpt lat="44.87724" lon="5.75858">
        <ele>783.95</ele>
        <time>2019-11-01T09:55:55Z</time>
      </trkpt>
      <trkpt lat="44.87725" lon="5.75861">
        <ele>783.96</ele>
        <time>2019-11-01T09:55:57Z</time>
      </trkpt>
      <trkpt lat="44.87727" lon="5.75864">
        <ele>783.95</ele>
        <time>2019-11-01T09:55:58Z</time>
      </trkpt>
      <trkpt lat="44.87728" lon="5.75867">
        <ele>784.01</ele>
        <time>2019-11-01T09:55:59Z</time>
      </trkpt>
      <trkpt lat="44.8773" lon="5.75869">
        <ele>784.11</ele>
        <time>2019-11-01T09:56:01Z</time>
      </trkpt>
      <trkpt lat="44.87733" lon="5.75871">
        <ele>784.8</ele>
        <time>2019-11-01T09:56:03Z</time>
      </trkpt>
      <trkpt lat="44.87735" lon="5.75874">
        <ele>785.32</ele>
        <time>2019-11-01T09:56:05Z</time>
      </trkpt>
      <trkpt lat="44.87736" lon="5.75876">
        <ele>785.75</ele>
        <time>2019-11-01T09:56:06Z</time>
      </trkpt>
      <trkpt lat="44.87738" lon="5.75879">
        <ele>785.96</ele>
        <time>2019-11-01T09:56:07Z</time>
      </trkpt>
      <trkpt lat="44.87739" lon="5.75881">
        <ele>785.81</ele>
        <time>2019-11-01T09:56:08Z</time>
      </trkpt>
      <trkpt lat="44.87742" lon="5.75884">
        <ele>785.94</ele>
        <time>2019-11-01T09:56:10Z</time>
      </trkpt>
      <trkpt lat="44.87744" lon="5.75887">
        <ele>786.03</ele>
        <time>2019-11-01T09:56:12Z</time>
      </trkpt>
      <trkpt lat="44.87746" lon="5.75889">
        <ele>786.2</ele>
        <time>2019-11-01T09:56:14Z</time>
      </trkpt>
      <trkpt lat="44.87748" lon="5.75889">
        <ele>786.37</ele>
        <time>2019-11-01T09:56:15Z</time>
      </trkpt>
      <trkpt lat="44.8775" lon="5.75892">
        <ele>786.81</ele>
        <time>2019-11-01T09:56:17Z</time>
      </trkpt>
      <trkpt lat="44.87753" lon="5.75894">
        <ele>787.34</ele>
        <time>2019-11-01T09:56:19Z</time>
      </trkpt>
      <trkpt lat="44.87754" lon="5.75897">
        <ele>787.43</ele>
        <time>2019-11-01T09:56:21Z</time>
      </trkpt>
      <trkpt lat="44.87757" lon="5.759">
        <ele>787.74</ele>
        <time>2019-11-01T09:56:23Z</time>
      </trkpt>
      <trkpt lat="44.87758" lon="5.75903">
        <ele>787.74</ele>
        <time>2019-11-01T09:56:24Z</time>
      </trkpt>
      <trkpt lat="44.87759" lon="5.75907">
        <ele>787.42</ele>
        <time>2019-11-01T09:56:26Z</time>
      </trkpt>
      <trkpt lat="44.87762" lon="5.7591">
        <ele>787.26</ele>
        <time>2019-11-01T09:56:28Z</time>
      </trkpt>
      <trkpt lat="44.87764" lon="5.75915">
        <ele>786.83</ele>
        <time>2019-11-01T09:56:29Z</time>
      </trkpt>
      <trkpt lat="44.87765" lon="5.75917">
        <ele>786.56</ele>
        <time>2019-11-01T09:56:30Z</time>
      </trkpt>
      <trkpt lat="44.87767" lon="5.7592">
        <ele>786.27</ele>
        <time>2019-11-01T09:56:31Z</time>
      </trkpt>
      <trkpt lat="44.87769" lon="5.75921">
        <ele>786.04</ele>
        <time>2019-11-01T09:56:32Z</time>
      </trkpt>
      <trkpt lat="44.87771" lon="5.75924">
        <ele>786.04</ele>
        <time>2019-11-01T09:56:33Z</time>
      </trkpt>
      <trkpt lat="44.87772" lon="5.75926">
        <ele>786.11</ele>
        <time>2019-11-01T09:56:34Z</time>
      </trkpt>
      <trkpt lat="44.87774" lon="5.75928">
        <ele>786.6</ele>
        <time>2019-11-01T09:56:36Z</time>
      </trkpt>
      <trkpt lat="44.87777" lon="5.7593">
        <ele>786.46</ele>
        <time>2019-11-01T09:56:38Z</time>
      </trkpt>
      <trkpt lat="44.87778" lon="5.75935">
        <ele>786.45</ele>
        <time>2019-11-01T09:56:39Z</time>
      </trkpt>
      <trkpt lat="44.87779" lon="5.75937">
        <ele>786.79</ele>
        <time>2019-11-01T09:56:40Z</time>
      </trkpt>
      <trkpt lat="44.87779" lon="5.75941">
        <ele>787.25</ele>
        <time>2019-11-01T09:56:41Z</time>
      </trkpt>
      <trkpt lat="44.87779" lon="5.75943">
        <ele>787.59</ele>
        <time>2019-11-01T09:56:42Z</time>
      </trkpt>
      <trkpt lat="44.8778" lon="5.75946">
        <ele>788.07</ele>
        <time>2019-11-01T09:56:45Z</time>
      </trkpt>
      <trkpt lat="44.8778" lon="5.75954">
        <ele>789.1</ele>
        <time>2019-11-01T09:56:48Z</time>
      </trkpt>
      <trkpt lat="44.87781" lon="5.75958">
        <ele>789.83</ele>
        <time>2019-11-01T09:56:49Z</time>
      </trkpt>
      <trkpt lat="44.87781" lon="5.75961">
        <ele>790.54</ele>
        <time>2019-11-01T09:56:50Z</time>
      </trkpt>
      <trkpt lat="44.87782" lon="5.75964">
        <ele>790.61</ele>
        <time>2019-11-01T09:56:51Z</time>
      </trkpt>
      <trkpt lat="44.87783" lon="5.75967">
        <ele>790.7</ele>
        <time>2019-11-01T09:56:52Z</time>
      </trkpt>
      <trkpt lat="44.87784" lon="5.7597">
        <ele>790.94</ele>
        <time>2019-11-01T09:56:53Z</time>
      </trkpt>
      <trkpt lat="44.87783" lon="5.75974">
        <ele>791.36</ele>
        <time>2019-11-01T09:56:54Z</time>
      </trkpt>
      <trkpt lat="44.87783" lon="5.75977">
        <ele>791.84</ele>
        <time>2019-11-01T09:56:55Z</time>
      </trkpt>
      <trkpt lat="44.87783" lon="5.75981">
        <ele>792.33</ele>
        <time>2019-11-01T09:56:56Z</time>
      </trkpt>
      <trkpt lat="44.87783" lon="5.75985">
        <ele>792.9</ele>
        <time>2019-11-01T09:56:57Z</time>
      </trkpt>
      <trkpt lat="44.87783" lon="5.75987">
        <ele>793.21</ele>
        <time>2019-11-01T09:56:58Z</time>
      </trkpt>
      <trkpt lat="44.87783" lon="5.7599">
        <ele>793.58</ele>
        <time>2019-11-01T09:56:59Z</time>
      </trkpt>
      <trkpt lat="44.87783" lon="5.75994">
        <ele>794.04</ele>
        <time>2019-11-01T09:57:00Z</time>
      </trkpt>
      <trkpt lat="44.87783" lon="5.75998">
        <ele>794.25</ele>
        <time>2019-11-01T09:57:01Z</time>
      </trkpt>
      <trkpt lat="44.87784" lon="5.76002">
        <ele>794.8</ele>
        <time>2019-11-01T09:57:02Z</time>
      </trkpt>
      <trkpt lat="44.87783" lon="5.76006">
        <ele>795.32</ele>
        <time>2019-11-01T09:57:03Z</time>
      </trkpt>
      <trkpt lat="44.87783" lon="5.76009">
        <ele>795.89</ele>
        <time>2019-11-01T09:57:04Z</time>
      </trkpt>
      <trkpt lat="44.87783" lon="5.76012">
        <ele>796.21</ele>
        <time>2019-11-01T09:57:05Z</time>
      </trkpt>
      <trkpt lat="44.87783" lon="5.76016">
        <ele>796.65</ele>
        <time>2019-11-01T09:57:06Z</time>
      </trkpt>
      <trkpt lat="44.87783" lon="5.76019">
        <ele>797.2</ele>
        <time>2019-11-01T09:57:07Z</time>
      </trkpt>
      <trkpt lat="44.87783" lon="5.76022">
        <ele>797.72</ele>
        <time>2019-11-01T09:57:08Z</time>
      </trkpt>
      <trkpt lat="44.87782" lon="5.76026">
        <ele>798.61</ele>
        <time>2019-11-01T09:57:10Z</time>
      </trkpt>
      <trkpt lat="44.87782" lon="5.76029">
        <ele>799.12</ele>
        <time>2019-11-01T09:57:11Z</time>
      </trkpt>
      <trkpt lat="44.87782" lon="5.76032">
        <ele>799.84</ele>
        <time>2019-11-01T09:57:12Z</time>
      </trkpt>
      <trkpt lat="44.87783" lon="5.76037">
        <ele>801.15</ele>
        <time>2019-11-01T09:57:14Z</time>
      </trkpt>
      <trkpt lat="44.87784" lon="5.76042">
        <ele>801.74</ele>
        <time>2019-11-01T09:57:16Z</time>
      </trkpt>
      <trkpt lat="44.87785" lon="5.76045">
        <ele>801.74</ele>
        <time>2019-11-01T09:57:17Z</time>
      </trkpt>
      <trkpt lat="44.87786" lon="5.76049">
        <ele>801.88</ele>
        <time>2019-11-01T09:57:18Z</time>
      </trkpt>
      <trkpt lat="44.87787" lon="5.76052">
        <ele>801.92</ele>
        <time>2019-11-01T09:57:19Z</time>
      </trkpt>
      <trkpt lat="44.87787" lon="5.76054">
        <ele>801.94</ele>
        <time>2019-11-01T09:57:20Z</time>
      </trkpt>
      <trkpt lat="44.87788" lon="5.76058">
        <ele>802.15</ele>
        <time>2019-11-01T09:57:21Z</time>
      </trkpt>
      <trkpt lat="44.87788" lon="5.76061">
        <ele>802.07</ele>
        <time>2019-11-01T09:57:22Z</time>
      </trkpt>
      <trkpt lat="44.87789" lon="5.76064">
        <ele>801.91</ele>
        <time>2019-11-01T09:57:23Z</time>
      </trkpt>
      <trkpt lat="44.87789" lon="5.76066">
        <ele>801.86</ele>
        <time>2019-11-01T09:57:24Z</time>
      </trkpt>
      <trkpt lat="44.8779" lon="5.76069">
        <ele>801.71</ele>
        <time>2019-11-01T09:57:25Z</time>
      </trkpt>
      <trkpt lat="44.87792" lon="5.76072">
        <ele>801.52</ele>
        <time>2019-11-01T09:57:26Z</time>
      </trkpt>
      <trkpt lat="44.87794" lon="5.76075">
        <ele>801.32</ele>
        <time>2019-11-01T09:57:27Z</time>
      </trkpt>
      <trkpt lat="44.87795" lon="5.76077">
        <ele>800.99</ele>
        <time>2019-11-01T09:57:28Z</time>
      </trkpt>
      <trkpt lat="44.87797" lon="5.76081">
        <ele>801.04</ele>
        <time>2019-11-01T09:57:30Z</time>
      </trkpt>
      <trkpt lat="44.87798" lon="5.76085">
        <ele>800.76</ele>
        <time>2019-11-01T09:57:31Z</time>
      </trkpt>
      <trkpt lat="44.87798" lon="5.76088">
        <ele>800.61</ele>
        <time>2019-11-01T09:57:32Z</time>
      </trkpt>
      <trkpt lat="44.87799" lon="5.76091">
        <ele>800.28</ele>
        <time>2019-11-01T09:57:33Z</time>
      </trkpt>
      <trkpt lat="44.878" lon="5.76094">
        <ele>799.97</ele>
        <time>2019-11-01T09:57:34Z</time>
      </trkpt>
      <trkpt lat="44.87803" lon="5.76097">
        <ele>799.85</ele>
        <time>2019-11-01T09:57:36Z</time>
      </trkpt>
      <trkpt lat="44.87804" lon="5.761">
        <ele>799.91</ele>
        <time>2019-11-01T09:57:37Z</time>
      </trkpt>
      <trkpt lat="44.87805" lon="5.76103">
        <ele>799.93</ele>
        <time>2019-11-01T09:57:38Z</time>
      </trkpt>
      <trkpt lat="44.87806" lon="5.76105">
        <ele>800.01</ele>
        <time>2019-11-01T09:57:39Z</time>
      </trkpt>
      <trkpt lat="44.87808" lon="5.76109">
        <ele>800.04</ele>
        <time>2019-11-01T09:57:41Z</time>
      </trkpt>
      <trkpt lat="44.8781" lon="5.76113">
        <ele>800.18</ele>
        <time>2019-11-01T09:57:43Z</time>
      </trkpt>
      <trkpt lat="44.87811" lon="5.76116">
        <ele>800.29</ele>
        <time>2019-11-01T09:57:44Z</time>
      </trkpt>
      <trkpt lat="44.87812" lon="5.76118">
        <ele>800.26</ele>
        <time>2019-11-01T09:57:45Z</time>
      </trkpt>
      <trkpt lat="44.87813" lon="5.7612">
        <ele>800.11</ele>
        <time>2019-11-01T09:57:46Z</time>
      </trkpt>
      <trkpt lat="44.87815" lon="5.76124">
        <ele>800.19</ele>
        <time>2019-11-01T09:57:48Z</time>
      </trkpt>
      <trkpt lat="44.87816" lon="5.76126">
        <ele>800.5</ele>
        <time>2019-11-01T09:57:49Z</time>
      </trkpt>
      <trkpt lat="44.87817" lon="5.76129">
        <ele>800.67</ele>
        <time>2019-11-01T09:57:50Z</time>
      </trkpt>
      <trkpt lat="44.87818" lon="5.76132">
        <ele>800.93</ele>
        <time>2019-11-01T09:57:51Z</time>
      </trkpt>
      <trkpt lat="44.87819" lon="5.76135">
        <ele>800.87</ele>
        <time>2019-11-01T09:57:52Z</time>
      </trkpt>
      <trkpt lat="44.87819" lon="5.76138">
        <ele>800.78</ele>
        <time>2019-11-01T09:57:53Z</time>
      </trkpt>
      <trkpt lat="44.8782" lon="5.76142">
        <ele>800.4</ele>
        <time>2019-11-01T09:57:54Z</time>
      </trkpt>
      <trkpt lat="44.87821" lon="5.76145">
        <ele>799.87</ele>
        <time>2019-11-01T09:57:55Z</time>
      </trkpt>
      <trkpt lat="44.87822" lon="5.76149">
        <ele>799.15</ele>
        <time>2019-11-01T09:57:56Z</time>
      </trkpt>
      <trkpt lat="44.87823" lon="5.76153">
        <ele>798.37</ele>
        <time>2019-11-01T09:57:57Z</time>
      </trkpt>
      <trkpt lat="44.87824" lon="5.76157">
        <ele>797.72</ele>
        <time>2019-11-01T09:57:58Z</time>
      </trkpt>
      <trkpt lat="44.87825" lon="5.7616">
        <ele>797.17</ele>
        <time>2019-11-01T09:57:59Z</time>
      </trkpt>
      <trkpt lat="44.87826" lon="5.76163">
        <ele>796.8</ele>
        <time>2019-11-01T09:58:00Z</time>
      </trkpt>
      <trkpt lat="44.87827" lon="5.76167">
        <ele>796.48</ele>
        <time>2019-11-01T09:58:01Z</time>
      </trkpt>
      <trkpt lat="44.87827" lon="5.7617">
        <ele>796.17</ele>
        <time>2019-11-01T09:58:02Z</time>
      </trkpt>
      <trkpt lat="44.87828" lon="5.76174">
        <ele>796.08</ele>
        <time>2019-11-01T09:58:03Z</time>
      </trkpt>
      <trkpt lat="44.87828" lon="5.76179">
        <ele>795.7</ele>
        <time>2019-11-01T09:58:04Z</time>
      </trkpt>
      <trkpt lat="44.87829" lon="5.76182">
        <ele>795.03</ele>
        <time>2019-11-01T09:58:05Z</time>
      </trkpt>
      <trkpt lat="44.8783" lon="5.76186">
        <ele>794.69</ele>
        <time>2019-11-01T09:58:06Z</time>
      </trkpt>
      <trkpt lat="44.8783" lon="5.76189">
        <ele>794.72</ele>
        <time>2019-11-01T09:58:07Z</time>
      </trkpt>
      <trkpt lat="44.8783" lon="5.76193">
        <ele>794.74</ele>
        <time>2019-11-01T09:58:08Z</time>
      </trkpt>
      <trkpt lat="44.87831" lon="5.76196">
        <ele>794.53</ele>
        <time>2019-11-01T09:58:09Z</time>
      </trkpt>
      <trkpt lat="44.87831" lon="5.76199">
        <ele>794.68</ele>
        <time>2019-11-01T09:58:10Z</time>
      </trkpt>
      <trkpt lat="44.87831" lon="5.76203">
        <ele>795.14</ele>
        <time>2019-11-01T09:58:11Z</time>
      </trkpt>
      <trkpt lat="44.87831" lon="5.76206">
        <ele>795.42</ele>
        <time>2019-11-01T09:58:12Z</time>
      </trkpt>
      <trkpt lat="44.87832" lon="5.76209">
        <ele>795.65</ele>
        <time>2019-11-01T09:58:13Z</time>
      </trkpt>
      <trkpt lat="44.87832" lon="5.76213">
        <ele>795.78</ele>
        <time>2019-11-01T09:58:14Z</time>
      </trkpt>
      <trkpt lat="44.87833" lon="5.76216">
        <ele>795.82</ele>
        <time>2019-11-01T09:58:15Z</time>
      </trkpt>
      <trkpt lat="44.87834" lon="5.76219">
        <ele>795.91</ele>
        <time>2019-11-01T09:58:16Z</time>
      </trkpt>
      <trkpt lat="44.87835" lon="5.76222">
        <ele>795.93</ele>
        <time>2019-11-01T09:58:17Z</time>
      </trkpt>
      <trkpt lat="44.87836" lon="5.76225">
        <ele>796.29</ele>
        <time>2019-11-01T09:58:18Z</time>
      </trkpt>
      <trkpt lat="44.87837" lon="5.76227">
        <ele>796.82</ele>
        <time>2019-11-01T09:58:19Z</time>
      </trkpt>
      <trkpt lat="44.8784" lon="5.7623">
        <ele>797.48</ele>
        <time>2019-11-01T09:58:21Z</time>
      </trkpt>
      <trkpt lat="44.87843" lon="5.76231">
        <ele>798.04</ele>
        <time>2019-11-01T09:58:23Z</time>
      </trkpt>
      <trkpt lat="44.87846" lon="5.76233">
        <ele>798.52</ele>
        <time>2019-11-01T09:58:25Z</time>
      </trkpt>
      <trkpt lat="44.87849" lon="5.76235">
        <ele>799</ele>
        <time>2019-11-01T09:58:27Z</time>
      </trkpt>
      <trkpt lat="44.87852" lon="5.76238">
        <ele>799.27</ele>
        <time>2019-11-01T09:58:29Z</time>
      </trkpt>
      <trkpt lat="44.87855" lon="5.76239">
        <ele>799.52</ele>
        <time>2019-11-01T09:58:31Z</time>
      </trkpt>
      <trkpt lat="44.87858" lon="5.7624">
        <ele>800.02</ele>
        <time>2019-11-01T09:58:33Z</time>
      </trkpt>
      <trkpt lat="44.87865" lon="5.76246">
        <ele>800.05</ele>
        <time>2019-11-01T09:59:47Z</time>
      </trkpt>
      <trkpt lat="44.87868" lon="5.76247">
        <ele>799.86</ele>
        <time>2019-11-01T09:59:49Z</time>
      </trkpt>
      <trkpt lat="44.87872" lon="5.76249">
        <ele>799.91</ele>
        <time>2019-11-01T09:59:51Z</time>
      </trkpt>
      <trkpt lat="44.87875" lon="5.76252">
        <ele>799.94</ele>
        <time>2019-11-01T09:59:53Z</time>
      </trkpt>
      <trkpt lat="44.87877" lon="5.76254">
        <ele>799.94</ele>
        <time>2019-11-01T09:59:54Z</time>
      </trkpt>
      <trkpt lat="44.87879" lon="5.76256">
        <ele>799.94</ele>
        <time>2019-11-01T09:59:55Z</time>
      </trkpt>
      <trkpt lat="44.87881" lon="5.76257">
        <ele>799.87</ele>
        <time>2019-11-01T09:59:56Z</time>
      </trkpt>
      <trkpt lat="44.87882" lon="5.76259">
        <ele>799.92</ele>
        <time>2019-11-01T09:59:57Z</time>
      </trkpt>
      <trkpt lat="44.87886" lon="5.76261">
        <ele>799.96</ele>
        <time>2019-11-01T09:59:59Z</time>
      </trkpt>
      <trkpt lat="44.87887" lon="5.76263">
        <ele>799.81</ele>
        <time>2019-11-01T10:00:00Z</time>
      </trkpt>
      <trkpt lat="44.87889" lon="5.76264">
        <ele>799.83</ele>
        <time>2019-11-01T10:00:01Z</time>
      </trkpt>
      <trkpt lat="44.87891" lon="5.76265">
        <ele>799.63</ele>
        <time>2019-11-01T10:00:02Z</time>
      </trkpt>
      <trkpt lat="44.87893" lon="5.76267">
        <ele>799.5</ele>
        <time>2019-11-01T10:00:03Z</time>
      </trkpt>
      <trkpt lat="44.87895" lon="5.76269">
        <ele>799.46</ele>
        <time>2019-11-01T10:00:04Z</time>
      </trkpt>
      <trkpt lat="44.87898" lon="5.76271">
        <ele>798.19</ele>
        <time>2019-11-01T10:00:30Z</time>
      </trkpt>
      <trkpt lat="44.879" lon="5.76275">
        <ele>797.89</ele>
        <time>2019-11-01T10:00:32Z</time>
      </trkpt>
      <trkpt lat="44.87903" lon="5.76279">
        <ele>797.68</ele>
        <time>2019-11-01T10:00:34Z</time>
      </trkpt>
      <trkpt lat="44.87905" lon="5.76281">
        <ele>797.72</ele>
        <time>2019-11-01T10:00:35Z</time>
      </trkpt>
      <trkpt lat="44.87906" lon="5.76284">
        <ele>797.46</ele>
        <time>2019-11-01T10:00:36Z</time>
      </trkpt>
      <trkpt lat="44.87908" lon="5.76287">
        <ele>797.45</ele>
        <time>2019-11-01T10:00:37Z</time>
      </trkpt>
      <trkpt lat="44.87909" lon="5.76289">
        <ele>797.58</ele>
        <time>2019-11-01T10:00:38Z</time>
      </trkpt>
      <trkpt lat="44.87911" lon="5.76292">
        <ele>797.83</ele>
        <time>2019-11-01T10:00:39Z</time>
      </trkpt>
      <trkpt lat="44.87912" lon="5.76295">
        <ele>797.98</ele>
        <time>2019-11-01T10:00:40Z</time>
      </trkpt>
      <trkpt lat="44.87914" lon="5.76297">
        <ele>798.16</ele>
        <time>2019-11-01T10:00:41Z</time>
      </trkpt>
      <trkpt lat="44.87916" lon="5.76299">
        <ele>798.5</ele>
        <time>2019-11-01T10:00:42Z</time>
      </trkpt>
      <trkpt lat="44.87917" lon="5.76301">
        <ele>798.95</ele>
        <time>2019-11-01T10:00:43Z</time>
      </trkpt>
      <trkpt lat="44.87918" lon="5.76304">
        <ele>799.29</ele>
        <time>2019-11-01T10:00:44Z</time>
      </trkpt>
      <trkpt lat="44.87919" lon="5.76307">
        <ele>799.68</ele>
        <time>2019-11-01T10:00:45Z</time>
      </trkpt>
      <trkpt lat="44.8792" lon="5.76309">
        <ele>799.93</ele>
        <time>2019-11-01T10:00:46Z</time>
      </trkpt>
      <trkpt lat="44.87921" lon="5.76311">
        <ele>800.29</ele>
        <time>2019-11-01T10:00:47Z</time>
      </trkpt>
      <trkpt lat="44.87922" lon="5.76314">
        <ele>800.68</ele>
        <time>2019-11-01T10:00:48Z</time>
      </trkpt>
      <trkpt lat="44.87924" lon="5.76316">
        <ele>801</ele>
        <time>2019-11-01T10:00:49Z</time>
      </trkpt>
      <trkpt lat="44.87925" lon="5.76318">
        <ele>801.31</ele>
        <time>2019-11-01T10:00:50Z</time>
      </trkpt>
      <trkpt lat="44.87927" lon="5.76321">
        <ele>801.47</ele>
        <time>2019-11-01T10:00:51Z</time>
      </trkpt>
      <trkpt lat="44.87928" lon="5.76324">
        <ele>801.73</ele>
        <time>2019-11-01T10:00:52Z</time>
      </trkpt>
      <trkpt lat="44.87929" lon="5.76326">
        <ele>802.16</ele>
        <time>2019-11-01T10:00:53Z</time>
      </trkpt>
      <trkpt lat="44.87931" lon="5.76329">
        <ele>802.43</ele>
        <time>2019-11-01T10:00:54Z</time>
      </trkpt>
      <trkpt lat="44.87932" lon="5.76332">
        <ele>802.65</ele>
        <time>2019-11-01T10:00:55Z</time>
      </trkpt>
      <trkpt lat="44.87933" lon="5.76335">
        <ele>802.57</ele>
        <time>2019-11-01T10:00:56Z</time>
      </trkpt>
      <trkpt lat="44.87934" lon="5.76337">
        <ele>802.34</ele>
        <time>2019-11-01T10:00:57Z</time>
      </trkpt>
      <trkpt lat="44.87935" lon="5.7634">
        <ele>802.41</ele>
        <time>2019-11-01T10:00:58Z</time>
      </trkpt>
      <trkpt lat="44.87937" lon="5.76343">
        <ele>802.5</ele>
        <time>2019-11-01T10:00:59Z</time>
      </trkpt>
      <trkpt lat="44.87938" lon="5.76346">
        <ele>802.74</ele>
        <time>2019-11-01T10:01:00Z</time>
      </trkpt>
      <trkpt lat="44.87939" lon="5.76348">
        <ele>802.81</ele>
        <time>2019-11-01T10:01:01Z</time>
      </trkpt>
      <trkpt lat="44.8794" lon="5.76351">
        <ele>802.62</ele>
        <time>2019-11-01T10:01:02Z</time>
      </trkpt>
      <trkpt lat="44.87942" lon="5.76354">
        <ele>802.57</ele>
        <time>2019-11-01T10:01:03Z</time>
      </trkpt>
      <trkpt lat="44.87943" lon="5.76357">
        <ele>802.69</ele>
        <time>2019-11-01T10:01:04Z</time>
      </trkpt>
      <trkpt lat="44.87944" lon="5.76359">
        <ele>802.73</ele>
        <time>2019-11-01T10:01:05Z</time>
      </trkpt>
      <trkpt lat="44.87945" lon="5.76361">
        <ele>802.88</ele>
        <time>2019-11-01T10:01:06Z</time>
      </trkpt>
      <trkpt lat="44.87948" lon="5.76364">
        <ele>803.26</ele>
        <time>2019-11-01T10:01:08Z</time>
      </trkpt>
      <trkpt lat="44.87949" lon="5.76368">
        <ele>803.56</ele>
        <time>2019-11-01T10:01:10Z</time>
      </trkpt>
      <trkpt lat="44.87951" lon="5.7637">
        <ele>803.69</ele>
        <time>2019-11-01T10:01:11Z</time>
      </trkpt>
      <trkpt lat="44.87952" lon="5.76372">
        <ele>803.87</ele>
        <time>2019-11-01T10:01:12Z</time>
      </trkpt>
      <trkpt lat="44.87954" lon="5.76374">
        <ele>804.13</ele>
        <time>2019-11-01T10:01:13Z</time>
      </trkpt>
      <trkpt lat="44.87955" lon="5.76376">
        <ele>804.21</ele>
        <time>2019-11-01T10:01:14Z</time>
      </trkpt>
      <trkpt lat="44.87956" lon="5.76378">
        <ele>804.51</ele>
        <time>2019-11-01T10:01:15Z</time>
      </trkpt>
      <trkpt lat="44.87958" lon="5.76379">
        <ele>804.95</ele>
        <time>2019-11-01T10:01:16Z</time>
      </trkpt>
      <trkpt lat="44.8796" lon="5.76381">
        <ele>805.22</ele>
        <time>2019-11-01T10:01:17Z</time>
      </trkpt>
      <trkpt lat="44.87962" lon="5.76384">
        <ele>805.79</ele>
        <time>2019-11-01T10:01:19Z</time>
      </trkpt>
      <trkpt lat="44.87964" lon="5.76388">
        <ele>806.32</ele>
        <time>2019-11-01T10:01:21Z</time>
      </trkpt>
      <trkpt lat="44.87965" lon="5.7639">
        <ele>806.68</ele>
        <time>2019-11-01T10:01:22Z</time>
      </trkpt>
      <trkpt lat="44.87967" lon="5.76392">
        <ele>807.14</ele>
        <time>2019-11-01T10:01:23Z</time>
      </trkpt>
      <trkpt lat="44.87968" lon="5.76394">
        <ele>807.63</ele>
        <time>2019-11-01T10:01:24Z</time>
      </trkpt>
      <trkpt lat="44.8797" lon="5.76396">
        <ele>807.85</ele>
        <time>2019-11-01T10:01:25Z</time>
      </trkpt>
      <trkpt lat="44.87972" lon="5.76397">
        <ele>808.19</ele>
        <time>2019-11-01T10:01:26Z</time>
      </trkpt>
      <trkpt lat="44.87974" lon="5.76399">
        <ele>808.72</ele>
        <time>2019-11-01T10:01:27Z</time>
      </trkpt>
      <trkpt lat="44.87976" lon="5.764">
        <ele>808.87</ele>
        <time>2019-11-01T10:01:28Z</time>
      </trkpt>
      <trkpt lat="44.87978" lon="5.76401">
        <ele>809.27</ele>
        <time>2019-11-01T10:01:29Z</time>
      </trkpt>
      <trkpt lat="44.87979" lon="5.76403">
        <ele>809.67</ele>
        <time>2019-11-01T10:01:30Z</time>
      </trkpt>
      <trkpt lat="44.87981" lon="5.76405">
        <ele>809.79</ele>
        <time>2019-11-01T10:01:31Z</time>
      </trkpt>
      <trkpt lat="44.87982" lon="5.76406">
        <ele>809.69</ele>
        <time>2019-11-01T10:01:32Z</time>
      </trkpt>
      <trkpt lat="44.87984" lon="5.76408">
        <ele>809.72</ele>
        <time>2019-11-01T10:01:33Z</time>
      </trkpt>
      <trkpt lat="44.87986" lon="5.76409">
        <ele>809.95</ele>
        <time>2019-11-01T10:01:34Z</time>
      </trkpt>
      <trkpt lat="44.87988" lon="5.76412">
        <ele>809.99</ele>
        <time>2019-11-01T10:01:36Z</time>
      </trkpt>
      <trkpt lat="44.8799" lon="5.76414">
        <ele>810.24</ele>
        <time>2019-11-01T10:01:37Z</time>
      </trkpt>
      <trkpt lat="44.87991" lon="5.76416">
        <ele>810.24</ele>
        <time>2019-11-01T10:01:38Z</time>
      </trkpt>
      <trkpt lat="44.87993" lon="5.76417">
        <ele>810.24</ele>
        <time>2019-11-01T10:01:39Z</time>
      </trkpt>
      <trkpt lat="44.87994" lon="5.76419">
        <ele>810.31</ele>
        <time>2019-11-01T10:01:40Z</time>
      </trkpt>
      <trkpt lat="44.87996" lon="5.76421">
        <ele>810.47</ele>
        <time>2019-11-01T10:01:41Z</time>
      </trkpt>
      <trkpt lat="44.87998" lon="5.76423">
        <ele>810.59</ele>
        <time>2019-11-01T10:01:42Z</time>
      </trkpt>
      <trkpt lat="44.87999" lon="5.76424">
        <ele>810.49</ele>
        <time>2019-11-01T10:01:43Z</time>
      </trkpt>
      <trkpt lat="44.88001" lon="5.76426">
        <ele>810.17</ele>
        <time>2019-11-01T10:01:44Z</time>
      </trkpt>
      <trkpt lat="44.88003" lon="5.76427">
        <ele>809.8</ele>
        <time>2019-11-01T10:01:45Z</time>
      </trkpt>
      <trkpt lat="44.88005" lon="5.76429">
        <ele>809.62</ele>
        <time>2019-11-01T10:01:46Z</time>
      </trkpt>
      <trkpt lat="44.88007" lon="5.7643">
        <ele>809.42</ele>
        <time>2019-11-01T10:01:47Z</time>
      </trkpt>
      <trkpt lat="44.88009" lon="5.76431">
        <ele>809.37</ele>
        <time>2019-11-01T10:01:48Z</time>
      </trkpt>
      <trkpt lat="44.88011" lon="5.76432">
        <ele>809.35</ele>
        <time>2019-11-01T10:01:49Z</time>
      </trkpt>
      <trkpt lat="44.88014" lon="5.76436">
        <ele>809.61</ele>
        <time>2019-11-01T10:01:51Z</time>
      </trkpt>
      <trkpt lat="44.88015" lon="5.76438">
        <ele>809.63</ele>
        <time>2019-11-01T10:01:52Z</time>
      </trkpt>
      <trkpt lat="44.88017" lon="5.76439">
        <ele>809.5</ele>
        <time>2019-11-01T10:01:53Z</time>
      </trkpt>
      <trkpt lat="44.88019" lon="5.76441">
        <ele>809.6</ele>
        <time>2019-11-01T10:01:54Z</time>
      </trkpt>
      <trkpt lat="44.88021" lon="5.76442">
        <ele>809.49</ele>
        <time>2019-11-01T10:01:55Z</time>
      </trkpt>
      <trkpt lat="44.88023" lon="5.76445">
        <ele>808.98</ele>
        <time>2019-11-01T10:01:57Z</time>
      </trkpt>
      <trkpt lat="44.88026" lon="5.76448">
        <ele>808.76</ele>
        <time>2019-11-01T10:01:59Z</time>
      </trkpt>
      <trkpt lat="44.88027" lon="5.7645">
        <ele>808.89</ele>
        <time>2019-11-01T10:02:00Z</time>
      </trkpt>
      <trkpt lat="44.88028" lon="5.76453">
        <ele>808.92</ele>
        <time>2019-11-01T10:02:01Z</time>
      </trkpt>
      <trkpt lat="44.8803" lon="5.76455">
        <ele>808.66</ele>
        <time>2019-11-01T10:02:02Z</time>
      </trkpt>
      <trkpt lat="44.88032" lon="5.76457">
        <ele>808.37</ele>
        <time>2019-11-01T10:02:03Z</time>
      </trkpt>
      <trkpt lat="44.88033" lon="5.76459">
        <ele>808.14</ele>
        <time>2019-11-01T10:02:04Z</time>
      </trkpt>
      <trkpt lat="44.88035" lon="5.7646">
        <ele>807.93</ele>
        <time>2019-11-01T10:02:05Z</time>
      </trkpt>
      <trkpt lat="44.88037" lon="5.76462">
        <ele>807.8</ele>
        <time>2019-11-01T10:02:06Z</time>
      </trkpt>
      <trkpt lat="44.88038" lon="5.76463">
        <ele>807.62</ele>
        <time>2019-11-01T10:02:07Z</time>
      </trkpt>
      <trkpt lat="44.8804" lon="5.76465">
        <ele>807.35</ele>
        <time>2019-11-01T10:02:08Z</time>
      </trkpt>
      <trkpt lat="44.88042" lon="5.76467">
        <ele>807.2</ele>
        <time>2019-11-01T10:02:09Z</time>
      </trkpt>
      <trkpt lat="44.88044" lon="5.76469">
        <ele>807.09</ele>
        <time>2019-11-01T10:02:10Z</time>
      </trkpt>
      <trkpt lat="44.88046" lon="5.76471">
        <ele>807.13</ele>
        <time>2019-11-01T10:02:11Z</time>
      </trkpt>
      <trkpt lat="44.88047" lon="5.76472">
        <ele>807.14</ele>
        <time>2019-11-01T10:02:12Z</time>
      </trkpt>
      <trkpt lat="44.88049" lon="5.76474">
        <ele>807.14</ele>
        <time>2019-11-01T10:02:13Z</time>
      </trkpt>
      <trkpt lat="44.8805" lon="5.76475">
        <ele>807.14</ele>
        <time>2019-11-01T10:02:14Z</time>
      </trkpt>
      <trkpt lat="44.88052" lon="5.76478">
        <ele>807.21</ele>
        <time>2019-11-01T10:02:15Z</time>
      </trkpt>
      <trkpt lat="44.88054" lon="5.76479">
        <ele>807.51</ele>
        <time>2019-11-01T10:02:16Z</time>
      </trkpt>
      <trkpt lat="44.88056" lon="5.76481">
        <ele>807.88</ele>
        <time>2019-11-01T10:02:17Z</time>
      </trkpt>
      <trkpt lat="44.88058" lon="5.76483">
        <ele>808.06</ele>
        <time>2019-11-01T10:02:18Z</time>
      </trkpt>
      <trkpt lat="44.8806" lon="5.76485">
        <ele>808.33</ele>
        <time>2019-11-01T10:02:19Z</time>
      </trkpt>
      <trkpt lat="44.88061" lon="5.76487">
        <ele>808.69</ele>
        <time>2019-11-01T10:02:20Z</time>
      </trkpt>
      <trkpt lat="44.88063" lon="5.76488">
        <ele>809.14</ele>
        <time>2019-11-01T10:02:21Z</time>
      </trkpt>
      <trkpt lat="44.88066" lon="5.76489">
        <ele>809.42</ele>
        <time>2019-11-01T10:02:22Z</time>
      </trkpt>
      <trkpt lat="44.88069" lon="5.76492">
        <ele>809.07</ele>
        <time>2019-11-01T10:02:24Z</time>
      </trkpt>
      <trkpt lat="44.88072" lon="5.76492">
        <ele>808.56</ele>
        <time>2019-11-01T10:02:26Z</time>
      </trkpt>
      <trkpt lat="44.88067" lon="5.76493">
        <ele>808.41</ele>
        <time>2019-11-01T10:03:01Z</time>
      </trkpt>
      <trkpt lat="44.88065" lon="5.76493">
        <ele>808.22</ele>
        <time>2019-11-01T10:03:02Z</time>
      </trkpt>
      <trkpt lat="44.88062" lon="5.76492">
        <ele>807.96</ele>
        <time>2019-11-01T10:03:03Z</time>
      </trkpt>
      <trkpt lat="44.88059" lon="5.76491">
        <ele>807.74</ele>
        <time>2019-11-01T10:03:04Z</time>
      </trkpt>
      <trkpt lat="44.88057" lon="5.76491">
        <ele>807.53</ele>
        <time>2019-11-01T10:03:05Z</time>
      </trkpt>
      <trkpt lat="44.88055" lon="5.7649">
        <ele>807.26</ele>
        <time>2019-11-01T10:03:06Z</time>
      </trkpt>
      <trkpt lat="44.88053" lon="5.76489">
        <ele>806.83</ele>
        <time>2019-11-01T10:03:07Z</time>
      </trkpt>
      <trkpt lat="44.88051" lon="5.76487">
        <ele>806.49</ele>
        <time>2019-11-01T10:03:08Z</time>
      </trkpt>
      <trkpt lat="44.88048" lon="5.76486">
        <ele>806.1</ele>
        <time>2019-11-01T10:03:09Z</time>
      </trkpt>
      <trkpt lat="44.88045" lon="5.76485">
        <ele>805.64</ele>
        <time>2019-11-01T10:03:10Z</time>
      </trkpt>
      <trkpt lat="44.88042" lon="5.76484">
        <ele>805.36</ele>
        <time>2019-11-01T10:03:11Z</time>
      </trkpt>
      <trkpt lat="44.88039" lon="5.76482">
        <ele>804.79</ele>
        <time>2019-11-01T10:03:12Z</time>
      </trkpt>
      <trkpt lat="44.88034" lon="5.76481">
        <ele>804.19</ele>
        <time>2019-11-01T10:03:13Z</time>
      </trkpt>
      <trkpt lat="44.8803" lon="5.7648">
        <ele>803.67</ele>
        <time>2019-11-01T10:03:14Z</time>
      </trkpt>
      <trkpt lat="44.88026" lon="5.76479">
        <ele>803.02</ele>
        <time>2019-11-01T10:03:15Z</time>
      </trkpt>
      <trkpt lat="44.88022" lon="5.76478">
        <ele>802.54</ele>
        <time>2019-11-01T10:03:16Z</time>
      </trkpt>
      <trkpt lat="44.88018" lon="5.76476">
        <ele>801.91</ele>
        <time>2019-11-01T10:03:17Z</time>
      </trkpt>
      <trkpt lat="44.88015" lon="5.76475">
        <ele>800.88</ele>
        <time>2019-11-01T10:03:18Z</time>
      </trkpt>
      <trkpt lat="44.88011" lon="5.76474">
        <ele>800.43</ele>
        <time>2019-11-01T10:03:19Z</time>
      </trkpt>
      <trkpt lat="44.88006" lon="5.76473">
        <ele>799.53</ele>
        <time>2019-11-01T10:03:20Z</time>
      </trkpt>
      <trkpt lat="44.88001" lon="5.76471">
        <ele>798.56</ele>
        <time>2019-11-01T10:03:21Z</time>
      </trkpt>
      <trkpt lat="44.87995" lon="5.76469">
        <ele>798.06</ele>
        <time>2019-11-01T10:03:22Z</time>
      </trkpt>
      <trkpt lat="44.87988" lon="5.76466">
        <ele>797.56</ele>
        <time>2019-11-01T10:03:23Z</time>
      </trkpt>
      <trkpt lat="44.87982" lon="5.76465">
        <ele>796.64</ele>
        <time>2019-11-01T10:03:24Z</time>
      </trkpt>
      <trkpt lat="44.87975" lon="5.76464">
        <ele>795.66</ele>
        <time>2019-11-01T10:03:25Z</time>
      </trkpt>
      <trkpt lat="44.87969" lon="5.76463">
        <ele>794.67</ele>
        <time>2019-11-01T10:03:26Z</time>
      </trkpt>
      <trkpt lat="44.87964" lon="5.76463">
        <ele>793.32</ele>
        <time>2019-11-01T10:03:27Z</time>
      </trkpt>
      <trkpt lat="44.87959" lon="5.76461">
        <ele>792.28</ele>
        <time>2019-11-01T10:03:28Z</time>
      </trkpt>
      <trkpt lat="44.87955" lon="5.7646">
        <ele>790.92</ele>
        <time>2019-11-01T10:03:29Z</time>
      </trkpt>
      <trkpt lat="44.8795" lon="5.76458">
        <ele>789.82</ele>
        <time>2019-11-01T10:03:30Z</time>
      </trkpt>
      <trkpt lat="44.87944" lon="5.76455">
        <ele>788.78</ele>
        <time>2019-11-01T10:03:31Z</time>
      </trkpt>
      <trkpt lat="44.87939" lon="5.76451">
        <ele>787.56</ele>
        <time>2019-11-01T10:03:32Z</time>
      </trkpt>
      <trkpt lat="44.87933" lon="5.76447">
        <ele>786.15</ele>
        <time>2019-11-01T10:03:33Z</time>
      </trkpt>
      <trkpt lat="44.87929" lon="5.76442">
        <ele>785.23</ele>
        <time>2019-11-01T10:03:34Z</time>
      </trkpt>
      <trkpt lat="44.87926" lon="5.76437">
        <ele>784.33</ele>
        <time>2019-11-01T10:03:35Z</time>
      </trkpt>
      <trkpt lat="44.87922" lon="5.76433">
        <ele>783.71</ele>
        <time>2019-11-01T10:03:36Z</time>
      </trkpt>
      <trkpt lat="44.87917" lon="5.76429">
        <ele>782.82</ele>
        <time>2019-11-01T10:03:37Z</time>
      </trkpt>
      <trkpt lat="44.87912" lon="5.76428">
        <ele>781.85</ele>
        <time>2019-11-01T10:03:38Z</time>
      </trkpt>
      <trkpt lat="44.87908" lon="5.76428">
        <ele>781.29</ele>
        <time>2019-11-01T10:03:39Z</time>
      </trkpt>
      <trkpt lat="44.87903" lon="5.76431">
        <ele>780.69</ele>
        <time>2019-11-01T10:03:40Z</time>
      </trkpt>
      <trkpt lat="44.87899" lon="5.76434">
        <ele>780.1</ele>
        <time>2019-11-01T10:03:41Z</time>
      </trkpt>
      <trkpt lat="44.87894" lon="5.76438">
        <ele>779.22</ele>
        <time>2019-11-01T10:03:42Z</time>
      </trkpt>
      <trkpt lat="44.87892" lon="5.76441">
        <ele>778.81</ele>
        <time>2019-11-01T10:03:43Z</time>
      </trkpt>
      <trkpt lat="44.8789" lon="5.76443">
        <ele>778.34</ele>
        <time>2019-11-01T10:03:44Z</time>
      </trkpt>
      <trkpt lat="44.8789" lon="5.76447">
        <ele>778.41</ele>
        <time>2019-11-01T10:03:45Z</time>
      </trkpt>
      <trkpt lat="44.87891" lon="5.76451">
        <ele>778.36</ele>
        <time>2019-11-01T10:03:46Z</time>
      </trkpt>
      <trkpt lat="44.87892" lon="5.76453">
        <ele>778.07</ele>
        <time>2019-11-01T10:03:47Z</time>
      </trkpt>
      <trkpt lat="44.87891" lon="5.76456">
        <ele>777.17</ele>
        <time>2019-11-01T10:03:49Z</time>
      </trkpt>
      <trkpt lat="44.87889" lon="5.76457">
        <ele>775.8</ele>
        <time>2019-11-01T10:03:51Z</time>
      </trkpt>
      <trkpt lat="44.87886" lon="5.76452">
        <ele>775.36</ele>
        <time>2019-11-01T10:06:29Z</time>
      </trkpt>
      <trkpt lat="44.87884" lon="5.76451">
        <ele>775.35</ele>
        <time>2019-11-01T10:06:30Z</time>
      </trkpt>
      <trkpt lat="44.87882" lon="5.7645">
        <ele>775.04</ele>
        <time>2019-11-01T10:06:32Z</time>
      </trkpt>
      <trkpt lat="44.8788" lon="5.76448">
        <ele>774.83</ele>
        <time>2019-11-01T10:06:33Z</time>
      </trkpt>
      <trkpt lat="44.87877" lon="5.76446">
        <ele>774.49</ele>
        <time>2019-11-01T10:06:34Z</time>
      </trkpt>
      <trkpt lat="44.87874" lon="5.76443">
        <ele>774.18</ele>
        <time>2019-11-01T10:06:35Z</time>
      </trkpt>
      <trkpt lat="44.8787" lon="5.7644">
        <ele>773.73</ele>
        <time>2019-11-01T10:06:36Z</time>
      </trkpt>
      <trkpt lat="44.87866" lon="5.76437">
        <ele>773.32</ele>
        <time>2019-11-01T10:06:37Z</time>
      </trkpt>
      <trkpt lat="44.87863" lon="5.76434">
        <ele>772.77</ele>
        <time>2019-11-01T10:06:38Z</time>
      </trkpt>
      <trkpt lat="44.8786" lon="5.76432">
        <ele>772.19</ele>
        <time>2019-11-01T10:06:39Z</time>
      </trkpt>
      <trkpt lat="44.87855" lon="5.76429">
        <ele>771.25</ele>
        <time>2019-11-01T10:06:40Z</time>
      </trkpt>
      <trkpt lat="44.8785" lon="5.76426">
        <ele>770.12</ele>
        <time>2019-11-01T10:06:41Z</time>
      </trkpt>
      <trkpt lat="44.87846" lon="5.76424">
        <ele>769.02</ele>
        <time>2019-11-01T10:06:42Z</time>
      </trkpt>
      <trkpt lat="44.87843" lon="5.76421">
        <ele>768.12</ele>
        <time>2019-11-01T10:06:43Z</time>
      </trkpt>
      <trkpt lat="44.87839" lon="5.76417">
        <ele>767.23</ele>
        <time>2019-11-01T10:06:44Z</time>
      </trkpt>
      <trkpt lat="44.87835" lon="5.76413">
        <ele>766.19</ele>
        <time>2019-11-01T10:06:45Z</time>
      </trkpt>
      <trkpt lat="44.87831" lon="5.76409">
        <ele>765.1</ele>
        <time>2019-11-01T10:06:46Z</time>
      </trkpt>
      <trkpt lat="44.87827" lon="5.76405">
        <ele>764.08</ele>
        <time>2019-11-01T10:06:47Z</time>
      </trkpt>
      <trkpt lat="44.87823" lon="5.76401">
        <ele>763</ele>
        <time>2019-11-01T10:06:48Z</time>
      </trkpt>
      <trkpt lat="44.87819" lon="5.76396">
        <ele>761.63</ele>
        <time>2019-11-01T10:06:49Z</time>
      </trkpt>
      <trkpt lat="44.87816" lon="5.76394">
        <ele>760.73</ele>
        <time>2019-11-01T10:06:50Z</time>
      </trkpt>
      <trkpt lat="44.87812" lon="5.76392">
        <ele>759.48</ele>
        <time>2019-11-01T10:06:51Z</time>
      </trkpt>
      <trkpt lat="44.87809" lon="5.76393">
        <ele>758.26</ele>
        <time>2019-11-01T10:06:52Z</time>
      </trkpt>
      <trkpt lat="44.87807" lon="5.76396">
        <ele>756.71</ele>
        <time>2019-11-01T10:06:53Z</time>
      </trkpt>
      <trkpt lat="44.87806" lon="5.76404">
        <ele>755.75</ele>
        <time>2019-11-01T10:06:54Z</time>
      </trkpt>
      <trkpt lat="44.87805" lon="5.76412">
        <ele>754.76</ele>
        <time>2019-11-01T10:06:55Z</time>
      </trkpt>
      <trkpt lat="44.87804" lon="5.76419">
        <ele>753.98</ele>
        <time>2019-11-01T10:06:56Z</time>
      </trkpt>
      <trkpt lat="44.87804" lon="5.76427">
        <ele>753.32</ele>
        <time>2019-11-01T10:06:57Z</time>
      </trkpt>
      <trkpt lat="44.87804" lon="5.76435">
        <ele>752.29</ele>
        <time>2019-11-01T10:06:58Z</time>
      </trkpt>
      <trkpt lat="44.87804" lon="5.76444">
        <ele>751.27</ele>
        <time>2019-11-01T10:06:59Z</time>
      </trkpt>
      <trkpt lat="44.87803" lon="5.76454">
        <ele>750.34</ele>
        <time>2019-11-01T10:07:00Z</time>
      </trkpt>
      <trkpt lat="44.87802" lon="5.76464">
        <ele>749.57</ele>
        <time>2019-11-01T10:07:01Z</time>
      </trkpt>
      <trkpt lat="44.87799" lon="5.76474">
        <ele>748.85</ele>
        <time>2019-11-01T10:07:02Z</time>
      </trkpt>
      <trkpt lat="44.87796" lon="5.76484">
        <ele>748.21</ele>
        <time>2019-11-01T10:07:03Z</time>
      </trkpt>
      <trkpt lat="44.87793" lon="5.76494">
        <ele>747.46</ele>
        <time>2019-11-01T10:07:04Z</time>
      </trkpt>
      <trkpt lat="44.87791" lon="5.76505">
        <ele>746.82</ele>
        <time>2019-11-01T10:07:05Z</time>
      </trkpt>
      <trkpt lat="44.8779" lon="5.76515">
        <ele>746.34</ele>
        <time>2019-11-01T10:07:06Z</time>
      </trkpt>
      <trkpt lat="44.8779" lon="5.76524">
        <ele>745.99</ele>
        <time>2019-11-01T10:07:07Z</time>
      </trkpt>
      <trkpt lat="44.87791" lon="5.76531">
        <ele>745.26</ele>
        <time>2019-11-01T10:07:08Z</time>
      </trkpt>
      <trkpt lat="44.87792" lon="5.76536">
        <ele>744.41</ele>
        <time>2019-11-01T10:07:09Z</time>
      </trkpt>
      <trkpt lat="44.87793" lon="5.76539">
        <ele>743.73</ele>
        <time>2019-11-01T10:07:10Z</time>
      </trkpt>
      <trkpt lat="44.87793" lon="5.76544">
        <ele>742.83</ele>
        <time>2019-11-01T10:07:12Z</time>
      </trkpt>
      <trkpt lat="44.87792" lon="5.76548">
        <ele>742.84</ele>
        <time>2019-11-01T10:07:13Z</time>
      </trkpt>
      <trkpt lat="44.87793" lon="5.76551">
        <ele>742.63</ele>
        <time>2019-11-01T10:07:14Z</time>
      </trkpt>
      <trkpt lat="44.87794" lon="5.76554">
        <ele>742.36</ele>
        <time>2019-11-01T10:07:15Z</time>
      </trkpt>
      <trkpt lat="44.87794" lon="5.76559">
        <ele>742.21</ele>
        <time>2019-11-01T10:07:16Z</time>
      </trkpt>
      <trkpt lat="44.87794" lon="5.76563">
        <ele>741.6</ele>
        <time>2019-11-01T10:07:17Z</time>
      </trkpt>
      <trkpt lat="44.87793" lon="5.76567">
        <ele>740.86</ele>
        <time>2019-11-01T10:07:18Z</time>
      </trkpt>
      <trkpt lat="44.87791" lon="5.7657">
        <ele>740.22</ele>
        <time>2019-11-01T10:07:19Z</time>
      </trkpt>
      <trkpt lat="44.8779" lon="5.76574">
        <ele>739.74</ele>
        <time>2019-11-01T10:07:20Z</time>
      </trkpt>
      <trkpt lat="44.87789" lon="5.76578">
        <ele>739.11</ele>
        <time>2019-11-01T10:07:21Z</time>
      </trkpt>
      <trkpt lat="44.87789" lon="5.76582">
        <ele>738.15</ele>
        <time>2019-11-01T10:07:22Z</time>
      </trkpt>
      <trkpt lat="44.87788" lon="5.76585">
        <ele>737.51</ele>
        <time>2019-11-01T10:07:23Z</time>
      </trkpt>
      <trkpt lat="44.87786" lon="5.76588">
        <ele>737.11</ele>
        <time>2019-11-01T10:07:24Z</time>
      </trkpt>
      <trkpt lat="44.87785" lon="5.76591">
        <ele>736.85</ele>
        <time>2019-11-01T10:07:25Z</time>
      </trkpt>
      <trkpt lat="44.87783" lon="5.76594">
        <ele>736.35</ele>
        <time>2019-11-01T10:07:26Z</time>
      </trkpt>
      <trkpt lat="44.87783" lon="5.76597">
        <ele>735.37</ele>
        <time>2019-11-01T10:07:27Z</time>
      </trkpt>
      <trkpt lat="44.87784" lon="5.766">
        <ele>733.95</ele>
        <time>2019-11-01T10:07:28Z</time>
      </trkpt>
      <trkpt lat="44.87786" lon="5.76603">
        <ele>732.47</ele>
        <time>2019-11-01T10:07:29Z</time>
      </trkpt>
      <trkpt lat="44.87789" lon="5.76605">
        <ele>731.12</ele>
        <time>2019-11-01T10:07:30Z</time>
      </trkpt>
      <trkpt lat="44.87792" lon="5.76608">
        <ele>729.52</ele>
        <time>2019-11-01T10:07:31Z</time>
      </trkpt>
      <trkpt lat="44.87796" lon="5.76611">
        <ele>728.21</ele>
        <time>2019-11-01T10:07:32Z</time>
      </trkpt>
      <trkpt lat="44.87799" lon="5.76615">
        <ele>727.04</ele>
        <time>2019-11-01T10:07:33Z</time>
      </trkpt>
      <trkpt lat="44.87803" lon="5.76619">
        <ele>725.71</ele>
        <time>2019-11-01T10:07:34Z</time>
      </trkpt>
      <trkpt lat="44.87805" lon="5.76622">
        <ele>724.26</ele>
        <time>2019-11-01T10:07:35Z</time>
      </trkpt>
      <trkpt lat="44.87806" lon="5.76625">
        <ele>723.06</ele>
        <time>2019-11-01T10:07:36Z</time>
      </trkpt>
      <trkpt lat="44.87807" lon="5.76627">
        <ele>722</ele>
        <time>2019-11-01T10:07:37Z</time>
      </trkpt>
      <trkpt lat="44.87806" lon="5.76631">
        <ele>721.05</ele>
        <time>2019-11-01T10:07:38Z</time>
      </trkpt>
      <trkpt lat="44.87805" lon="5.76635">
        <ele>719.78</ele>
        <time>2019-11-01T10:07:39Z</time>
      </trkpt>
      <trkpt lat="44.87804" lon="5.76641">
        <ele>718.21</ele>
        <time>2019-11-01T10:07:40Z</time>
      </trkpt>
      <trkpt lat="44.87803" lon="5.76646">
        <ele>716.41</ele>
        <time>2019-11-01T10:07:41Z</time>
      </trkpt>
      <trkpt lat="44.87801" lon="5.76653">
        <ele>714.82</ele>
        <time>2019-11-01T10:07:42Z</time>
      </trkpt>
      <trkpt lat="44.87798" lon="5.7666">
        <ele>713.3</ele>
        <time>2019-11-01T10:07:43Z</time>
      </trkpt>
      <trkpt lat="44.87796" lon="5.76666">
        <ele>712</ele>
        <time>2019-11-01T10:07:44Z</time>
      </trkpt>
      <trkpt lat="44.87793" lon="5.76668">
        <ele>710.91</ele>
        <time>2019-11-01T10:07:45Z</time>
      </trkpt>
      <trkpt lat="44.8779" lon="5.76671">
        <ele>710.23</ele>
        <time>2019-11-01T10:07:46Z</time>
      </trkpt>
      <trkpt lat="44.87787" lon="5.76673">
        <ele>709.4</ele>
        <time>2019-11-01T10:07:47Z</time>
      </trkpt>
      <trkpt lat="44.87783" lon="5.76675">
        <ele>708.8</ele>
        <time>2019-11-01T10:07:48Z</time>
      </trkpt>
      <trkpt lat="44.8778" lon="5.76677">
        <ele>707.85</ele>
        <time>2019-11-01T10:07:49Z</time>
      </trkpt>
      <trkpt lat="44.87776" lon="5.76681">
        <ele>706.93</ele>
        <time>2019-11-01T10:07:50Z</time>
      </trkpt>
      <trkpt lat="44.87773" lon="5.76684">
        <ele>706.17</ele>
        <time>2019-11-01T10:07:51Z</time>
      </trkpt>
      <trkpt lat="44.8777" lon="5.76688">
        <ele>705.31</ele>
        <time>2019-11-01T10:07:52Z</time>
      </trkpt>
      <trkpt lat="44.87767" lon="5.76692">
        <ele>704.35</ele>
        <time>2019-11-01T10:07:53Z</time>
      </trkpt>
      <trkpt lat="44.87763" lon="5.76695">
        <ele>703.5</ele>
        <time>2019-11-01T10:07:54Z</time>
      </trkpt>
      <trkpt lat="44.8776" lon="5.76699">
        <ele>702.62</ele>
        <time>2019-11-01T10:07:55Z</time>
      </trkpt>
      <trkpt lat="44.87757" lon="5.76701">
        <ele>701.72</ele>
        <time>2019-11-01T10:07:56Z</time>
      </trkpt>
      <trkpt lat="44.87753" lon="5.76703">
        <ele>700.69</ele>
        <time>2019-11-01T10:07:57Z</time>
      </trkpt>
      <trkpt lat="44.8775" lon="5.76705">
        <ele>699.67</ele>
        <time>2019-11-01T10:07:58Z</time>
      </trkpt>
      <trkpt lat="44.87748" lon="5.76707">
        <ele>698.46</ele>
        <time>2019-11-01T10:07:59Z</time>
      </trkpt>
      <trkpt lat="44.87746" lon="5.76709">
        <ele>697.82</ele>
        <time>2019-11-01T10:08:00Z</time>
      </trkpt>
      <trkpt lat="44.87742" lon="5.76711">
        <ele>697.34</ele>
        <time>2019-11-01T10:08:01Z</time>
      </trkpt>
      <trkpt lat="44.87739" lon="5.76713">
        <ele>696.57</ele>
        <time>2019-11-01T10:08:02Z</time>
      </trkpt>
      <trkpt lat="44.87735" lon="5.76717">
        <ele>695.64</ele>
        <time>2019-11-01T10:08:03Z</time>
      </trkpt>
      <trkpt lat="44.87731" lon="5.76721">
        <ele>694.52</ele>
        <time>2019-11-01T10:08:04Z</time>
      </trkpt>
      <trkpt lat="44.87728" lon="5.76725">
        <ele>693.2</ele>
        <time>2019-11-01T10:08:05Z</time>
      </trkpt>
      <trkpt lat="44.87726" lon="5.76729">
        <ele>692.04</ele>
        <time>2019-11-01T10:08:06Z</time>
      </trkpt>
      <trkpt lat="44.87722" lon="5.76734">
        <ele>690.99</ele>
        <time>2019-11-01T10:08:07Z</time>
      </trkpt>
      <trkpt lat="44.87718" lon="5.76737">
        <ele>689.91</ele>
        <time>2019-11-01T10:08:08Z</time>
      </trkpt>
      <trkpt lat="44.87714" lon="5.7674">
        <ele>688.74</ele>
        <time>2019-11-01T10:08:09Z</time>
      </trkpt>
      <trkpt lat="44.87711" lon="5.76743">
        <ele>688.04</ele>
        <time>2019-11-01T10:08:10Z</time>
      </trkpt>
      <trkpt lat="44.87709" lon="5.76748">
        <ele>687.48</ele>
        <time>2019-11-01T10:08:11Z</time>
      </trkpt>
      <trkpt lat="44.87709" lon="5.76752">
        <ele>687.17</ele>
        <time>2019-11-01T10:08:12Z</time>
      </trkpt>
      <trkpt lat="44.87711" lon="5.76755">
        <ele>686.73</ele>
        <time>2019-11-01T10:08:13Z</time>
      </trkpt>
      <trkpt lat="44.87713" lon="5.76758">
        <ele>686.32</ele>
        <time>2019-11-01T10:08:14Z</time>
      </trkpt>
      <trkpt lat="44.87716" lon="5.7676">
        <ele>685.77</ele>
        <time>2019-11-01T10:08:15Z</time>
      </trkpt>
      <trkpt lat="44.87719" lon="5.76759">
        <ele>685.12</ele>
        <time>2019-11-01T10:08:16Z</time>
      </trkpt>
      <trkpt lat="44.87723" lon="5.76759">
        <ele>684.22</ele>
        <time>2019-11-01T10:08:17Z</time>
      </trkpt>
      <trkpt lat="44.87726" lon="5.7676">
        <ele>683.12</ele>
        <time>2019-11-01T10:08:18Z</time>
      </trkpt>
      <trkpt lat="44.87727" lon="5.76761">
        <ele>682.43</ele>
        <time>2019-11-01T10:08:19Z</time>
      </trkpt>
      <trkpt lat="44.87727" lon="5.76764">
        <ele>680.95</ele>
        <time>2019-11-01T10:08:21Z</time>
      </trkpt>
      <trkpt lat="44.87723" lon="5.76768">
        <ele>680.17</ele>
        <time>2019-11-01T10:08:22Z</time>
      </trkpt>
      <trkpt lat="44.87721" lon="5.76771">
        <ele>679.31</ele>
        <time>2019-11-01T10:08:23Z</time>
      </trkpt>
      <trkpt lat="44.87717" lon="5.76774">
        <ele>678.42</ele>
        <time>2019-11-01T10:08:24Z</time>
      </trkpt>
      <trkpt lat="44.87714" lon="5.76777">
        <ele>677.74</ele>
        <time>2019-11-01T10:08:25Z</time>
      </trkpt>
      <trkpt lat="44.87711" lon="5.7678">
        <ele>676.83</ele>
        <time>2019-11-01T10:08:26Z</time>
      </trkpt>
      <trkpt lat="44.87708" lon="5.76783">
        <ele>675.86</ele>
        <time>2019-11-01T10:08:27Z</time>
      </trkpt>
      <trkpt lat="44.87707" lon="5.76786">
        <ele>675.64</ele>
        <time>2019-11-01T10:08:28Z</time>
      </trkpt>
      <trkpt lat="44.87706" lon="5.76788">
        <ele>674.91</ele>
        <time>2019-11-01T10:08:30Z</time>
      </trkpt>
      <trkpt lat="44.87702" lon="5.7679">
        <ele>674.59</ele>
        <time>2019-11-01T10:08:47Z</time>
      </trkpt>
      <trkpt lat="44.877" lon="5.76791">
        <ele>674.63</ele>
        <time>2019-11-01T10:08:48Z</time>
      </trkpt>
      <trkpt lat="44.87698" lon="5.76793">
        <ele>674.64</ele>
        <time>2019-11-01T10:08:49Z</time>
      </trkpt>
      <trkpt lat="44.87695" lon="5.76796">
        <ele>674.64</ele>
        <time>2019-11-01T10:08:50Z</time>
      </trkpt>
      <trkpt lat="44.87692" lon="5.76798">
        <ele>674.57</ele>
        <time>2019-11-01T10:08:51Z</time>
      </trkpt>
      <trkpt lat="44.87689" lon="5.768">
        <ele>674.55</ele>
        <time>2019-11-01T10:08:52Z</time>
      </trkpt>
      <trkpt lat="44.87686" lon="5.76801">
        <ele>674.26</ele>
        <time>2019-11-01T10:08:53Z</time>
      </trkpt>
      <trkpt lat="44.87682" lon="5.76803">
        <ele>673.83</ele>
        <time>2019-11-01T10:08:54Z</time>
      </trkpt>
      <trkpt lat="44.87677" lon="5.76806">
        <ele>673</ele>
        <time>2019-11-01T10:08:55Z</time>
      </trkpt>
      <trkpt lat="44.87672" lon="5.76808">
        <ele>672.19</ele>
        <time>2019-11-01T10:08:56Z</time>
      </trkpt>
      <trkpt lat="44.87669" lon="5.7681">
        <ele>671.32</ele>
        <time>2019-11-01T10:08:57Z</time>
      </trkpt>
      <trkpt lat="44.87666" lon="5.7681">
        <ele>670.77</ele>
        <time>2019-11-01T10:08:58Z</time>
      </trkpt>
      <trkpt lat="44.87664" lon="5.76809">
        <ele>670.19</ele>
        <time>2019-11-01T10:08:59Z</time>
      </trkpt>
      <trkpt lat="44.87662" lon="5.76808">
        <ele>669.67</ele>
        <time>2019-11-01T10:09:00Z</time>
      </trkpt>
      <trkpt lat="44.87659" lon="5.76806">
        <ele>668.95</ele>
        <time>2019-11-01T10:09:01Z</time>
      </trkpt>
      <trkpt lat="44.87656" lon="5.76803">
        <ele>668.31</ele>
        <time>2019-11-01T10:09:02Z</time>
      </trkpt>
      <trkpt lat="44.87653" lon="5.76798">
        <ele>667.21</ele>
        <time>2019-11-01T10:09:03Z</time>
      </trkpt>
      <trkpt lat="44.87651" lon="5.76794">
        <ele>665.55</ele>
        <time>2019-11-01T10:09:04Z</time>
      </trkpt>
      <trkpt lat="44.87649" lon="5.76791">
        <ele>664.07</ele>
        <time>2019-11-01T10:09:05Z</time>
      </trkpt>
      <trkpt lat="44.87648" lon="5.76788">
        <ele>661.82</ele>
        <time>2019-11-01T10:09:07Z</time>
      </trkpt>
      <trkpt lat="44.87647" lon="5.76779">
        <ele>661.2</ele>
        <time>2019-11-01T10:09:37Z</time>
      </trkpt>
      <trkpt lat="44.87645" lon="5.76777">
        <ele>659.98</ele>
        <time>2019-11-01T10:09:39Z</time>
      </trkpt>
      <trkpt lat="44.87642" lon="5.76772">
        <ele>658.98</ele>
        <time>2019-11-01T10:09:41Z</time>
      </trkpt>
      <trkpt lat="44.8764" lon="5.7677">
        <ele>658.46</ele>
        <time>2019-11-01T10:09:42Z</time>
      </trkpt>
      <trkpt lat="44.87637" lon="5.76768">
        <ele>657.96</ele>
        <time>2019-11-01T10:09:43Z</time>
      </trkpt>
      <trkpt lat="44.87634" lon="5.76768">
        <ele>657.53</ele>
        <time>2019-11-01T10:09:44Z</time>
      </trkpt>
      <trkpt lat="44.87631" lon="5.76767">
        <ele>656.91</ele>
        <time>2019-11-01T10:09:45Z</time>
      </trkpt>
      <trkpt lat="44.87627" lon="5.76767">
        <ele>655.88</ele>
        <time>2019-11-01T10:09:46Z</time>
      </trkpt>
      <trkpt lat="44.87624" lon="5.76769">
        <ele>655.01</ele>
        <time>2019-11-01T10:09:47Z</time>
      </trkpt>
      <trkpt lat="44.87621" lon="5.76771">
        <ele>654.26</ele>
        <time>2019-11-01T10:09:48Z</time>
      </trkpt>
      <trkpt lat="44.87619" lon="5.76773">
        <ele>653.41</ele>
        <time>2019-11-01T10:09:49Z</time>
      </trkpt>
      <trkpt lat="44.87616" lon="5.76775">
        <ele>652.66</ele>
        <time>2019-11-01T10:09:50Z</time>
      </trkpt>
      <trkpt lat="44.87613" lon="5.76778">
        <ele>651.74</ele>
        <time>2019-11-01T10:09:51Z</time>
      </trkpt>
      <trkpt lat="44.8761" lon="5.7678">
        <ele>650.55</ele>
        <time>2019-11-01T10:09:52Z</time>
      </trkpt>
      <trkpt lat="44.87608" lon="5.76781">
        <ele>649.35</ele>
        <time>2019-11-01T10:09:53Z</time>
      </trkpt>
      <trkpt lat="44.87606" lon="5.76783">
        <ele>648.36</ele>
        <time>2019-11-01T10:09:54Z</time>
      </trkpt>
      <trkpt lat="44.87604" lon="5.76784">
        <ele>647.37</ele>
        <time>2019-11-01T10:09:55Z</time>
      </trkpt>
      <trkpt lat="44.87603" lon="5.76787">
        <ele>646.02</ele>
        <time>2019-11-01T10:09:56Z</time>
      </trkpt>
      <trkpt lat="44.87603" lon="5.7679">
        <ele>644.49</ele>
        <time>2019-11-01T10:09:57Z</time>
      </trkpt>
      <trkpt lat="44.87604" lon="5.76795">
        <ele>642.64</ele>
        <time>2019-11-01T10:09:58Z</time>
      </trkpt>
      <trkpt lat="44.87606" lon="5.768">
        <ele>640.82</ele>
        <time>2019-11-01T10:09:59Z</time>
      </trkpt>
      <trkpt lat="44.8761" lon="5.76805">
        <ele>639.64</ele>
        <time>2019-11-01T10:10:00Z</time>
      </trkpt>
      <trkpt lat="44.87613" lon="5.76808">
        <ele>638.66</ele>
        <time>2019-11-01T10:10:01Z</time>
      </trkpt>
      <trkpt lat="44.87615" lon="5.7681">
        <ele>637.67</ele>
        <time>2019-11-01T10:10:02Z</time>
      </trkpt>
      <trkpt lat="44.87614" lon="5.76812">
        <ele>637.29</ele>
        <time>2019-11-01T10:10:18Z</time>
      </trkpt>
      <trkpt lat="44.87614" lon="5.76817">
        <ele>637.4</ele>
        <time>2019-11-01T10:10:19Z</time>
      </trkpt>
      <trkpt lat="44.87613" lon="5.76822">
        <ele>637.29</ele>
        <time>2019-11-01T10:10:20Z</time>
      </trkpt>
      <trkpt lat="44.87612" lon="5.76829">
        <ele>637.25</ele>
        <time>2019-11-01T10:10:21Z</time>
      </trkpt>
      <trkpt lat="44.87611" lon="5.76836">
        <ele>637.25</ele>
        <time>2019-11-01T10:10:22Z</time>
      </trkpt>
      <trkpt lat="44.8761" lon="5.76843">
        <ele>637.24</ele>
        <time>2019-11-01T10:10:23Z</time>
      </trkpt>
      <trkpt lat="44.8761" lon="5.76849">
        <ele>637.31</ele>
        <time>2019-11-01T10:10:24Z</time>
      </trkpt>
      <trkpt lat="44.87611" lon="5.76854">
        <ele>637.4</ele>
        <time>2019-11-01T10:10:25Z</time>
      </trkpt>
      <trkpt lat="44.87612" lon="5.76859">
        <ele>637.64</ele>
        <time>2019-11-01T10:10:26Z</time>
      </trkpt>
      <trkpt lat="44.87613" lon="5.76864">
        <ele>637.99</ele>
        <time>2019-11-01T10:10:27Z</time>
      </trkpt>
      <trkpt lat="44.87614" lon="5.76869">
        <ele>638.17</ele>
        <time>2019-11-01T10:10:28Z</time>
      </trkpt>
      <trkpt lat="44.87615" lon="5.76874">
        <ele>638.08</ele>
        <time>2019-11-01T10:10:29Z</time>
      </trkpt>
      <trkpt lat="44.87618" lon="5.76884">
        <ele>637.7</ele>
        <time>2019-11-01T10:10:31Z</time>
      </trkpt>
      <trkpt lat="44.8762" lon="5.76887">
        <ele>637.38</ele>
        <time>2019-11-01T10:10:32Z</time>
      </trkpt>
      <trkpt lat="44.87621" lon="5.7689">
        <ele>637.21</ele>
        <time>2019-11-01T10:10:33Z</time>
      </trkpt>
      <trkpt lat="44.87622" lon="5.76893">
        <ele>636.88</ele>
        <time>2019-11-01T10:10:34Z</time>
      </trkpt>
      <trkpt lat="44.87622" lon="5.76897">
        <ele>636.5</ele>
        <time>2019-11-01T10:10:35Z</time>
      </trkpt>
      <trkpt lat="44.87621" lon="5.76901">
        <ele>635.9</ele>
        <time>2019-11-01T10:10:36Z</time>
      </trkpt>
      <trkpt lat="44.8762" lon="5.76905">
        <ele>634.74</ele>
        <time>2019-11-01T10:10:37Z</time>
      </trkpt>
      <trkpt lat="44.87619" lon="5.76908">
        <ele>633.41</ele>
        <time>2019-11-01T10:10:38Z</time>
      </trkpt>
      <trkpt lat="44.87617" lon="5.76912">
        <ele>632.03</ele>
        <time>2019-11-01T10:10:39Z</time>
      </trkpt>
      <trkpt lat="44.87613" lon="5.76915">
        <ele>630.57</ele>
        <time>2019-11-01T10:10:40Z</time>
      </trkpt>
      <trkpt lat="44.87608" lon="5.76918">
        <ele>628.59</ele>
        <time>2019-11-01T10:10:41Z</time>
      </trkpt>
      <trkpt lat="44.87603" lon="5.76921">
        <ele>626.67</ele>
        <time>2019-11-01T10:10:42Z</time>
      </trkpt>
      <trkpt lat="44.87599" lon="5.76924">
        <ele>624.76</ele>
        <time>2019-11-01T10:10:43Z</time>
      </trkpt>
      <trkpt lat="44.87595" lon="5.76927">
        <ele>622.65</ele>
        <time>2019-11-01T10:10:44Z</time>
      </trkpt>
      <trkpt lat="44.8759" lon="5.7693">
        <ele>620.54</ele>
        <time>2019-11-01T10:10:45Z</time>
      </trkpt>
      <trkpt lat="44.87586" lon="5.76932">
        <ele>618.44</ele>
        <time>2019-11-01T10:10:46Z</time>
      </trkpt>
      <trkpt lat="44.87581" lon="5.76933">
        <ele>615.99</ele>
        <time>2019-11-01T10:10:47Z</time>
      </trkpt>
      <trkpt lat="44.87576" lon="5.76934">
        <ele>613.3</ele>
        <time>2019-11-01T10:10:48Z</time>
      </trkpt>
      <trkpt lat="44.87572" lon="5.76933">
        <ele>610.88</ele>
        <time>2019-11-01T10:10:49Z</time>
      </trkpt>
      <trkpt lat="44.87568" lon="5.76934">
        <ele>608.89</ele>
        <time>2019-11-01T10:10:50Z</time>
      </trkpt>
      <trkpt lat="44.87565" lon="5.76934">
        <ele>606.9</ele>
        <time>2019-11-01T10:10:51Z</time>
      </trkpt>
      <trkpt lat="44.87563" lon="5.76935">
        <ele>605.11</ele>
        <time>2019-11-01T10:10:52Z</time>
      </trkpt>
      <trkpt lat="44.87561" lon="5.76937">
        <ele>603.52</ele>
        <time>2019-11-01T10:10:53Z</time>
      </trkpt>
      <trkpt lat="44.8756" lon="5.76941">
        <ele>602.07</ele>
        <time>2019-11-01T10:10:54Z</time>
      </trkpt>
      <trkpt lat="44.87559" lon="5.76945">
        <ele>600.86</ele>
        <time>2019-11-01T10:10:55Z</time>
      </trkpt>
      <trkpt lat="44.87556" lon="5.76949">
        <ele>599.45</ele>
        <time>2019-11-01T10:10:56Z</time>
      </trkpt>
      <trkpt lat="44.87553" lon="5.76952">
        <ele>597.9</ele>
        <time>2019-11-01T10:10:57Z</time>
      </trkpt>
      <trkpt lat="44.8755" lon="5.76955">
        <ele>596.39</ele>
        <time>2019-11-01T10:10:58Z</time>
      </trkpt>
      <trkpt lat="44.87548" lon="5.76959">
        <ele>594.75</ele>
        <time>2019-11-01T10:10:59Z</time>
      </trkpt>
      <trkpt lat="44.87545" lon="5.76964">
        <ele>592.92</ele>
        <time>2019-11-01T10:11:00Z</time>
      </trkpt>
      <trkpt lat="44.87541" lon="5.76968">
        <ele>591.33</ele>
        <time>2019-11-01T10:11:01Z</time>
      </trkpt>
      <trkpt lat="44.8754" lon="5.76974">
        <ele>589.87</ele>
        <time>2019-11-01T10:11:02Z</time>
      </trkpt>
      <trkpt lat="44.87539" lon="5.7698">
        <ele>588.38</ele>
        <time>2019-11-01T10:11:03Z</time>
      </trkpt>
      <trkpt lat="44.87538" lon="5.76985">
        <ele>586.88</ele>
        <time>2019-11-01T10:11:04Z</time>
      </trkpt>
      <trkpt lat="44.87537" lon="5.76991">
        <ele>585.38</ele>
        <time>2019-11-01T10:11:05Z</time>
      </trkpt>
      <trkpt lat="44.87537" lon="5.76996">
        <ele>583.53</ele>
        <time>2019-11-01T10:11:06Z</time>
      </trkpt>
      <trkpt lat="44.87536" lon="5.77">
        <ele>581.93</ele>
        <time>2019-11-01T10:11:07Z</time>
      </trkpt>
      <trkpt lat="44.87536" lon="5.77005">
        <ele>579.42</ele>
        <time>2019-11-01T10:11:08Z</time>
      </trkpt>
      <trkpt lat="44.87535" lon="5.77009">
        <ele>576.91</ele>
        <time>2019-11-01T10:11:09Z</time>
      </trkpt>
      <trkpt lat="44.87535" lon="5.77014">
        <ele>574.41</ele>
        <time>2019-11-01T10:11:10Z</time>
      </trkpt>
      <trkpt lat="44.87534" lon="5.7702">
        <ele>572.12</ele>
        <time>2019-11-01T10:11:11Z</time>
      </trkpt>
      <trkpt lat="44.87533" lon="5.77025">
        <ele>570.46</ele>
        <time>2019-11-01T10:11:12Z</time>
      </trkpt>
      <trkpt lat="44.87532" lon="5.77029">
        <ele>570.8</ele>
        <time>2019-11-01T10:11:13Z</time>
      </trkpt>
      <trkpt lat="44.87531" lon="5.77031">
        <ele>569.98</ele>
        <time>2019-11-01T10:11:15Z</time>
      </trkpt>
      <trkpt lat="44.87526" lon="5.77041">
        <ele>570.26</ele>
        <time>2019-11-01T10:11:36Z</time>
      </trkpt>
      <trkpt lat="44.87526" lon="5.77046">
        <ele>570.53</ele>
        <time>2019-11-01T10:11:37Z</time>
      </trkpt>
      <trkpt lat="44.87526" lon="5.7705">
        <ele>570.4</ele>
        <time>2019-11-01T10:11:38Z</time>
      </trkpt>
      <trkpt lat="44.87528" lon="5.77053">
        <ele>569.94</ele>
        <time>2019-11-01T10:11:39Z</time>
      </trkpt>
      <trkpt lat="44.87529" lon="5.77056">
        <ele>569.17</ele>
        <time>2019-11-01T10:11:40Z</time>
      </trkpt>
      <trkpt lat="44.87531" lon="5.7706">
        <ele>568.31</ele>
        <time>2019-11-01T10:11:41Z</time>
      </trkpt>
      <trkpt lat="44.87532" lon="5.77063">
        <ele>567.56</ele>
        <time>2019-11-01T10:11:42Z</time>
      </trkpt>
      <trkpt lat="44.87533" lon="5.77066">
        <ele>566.85</ele>
        <time>2019-11-01T10:11:43Z</time>
      </trkpt>
      <trkpt lat="44.87535" lon="5.7707">
        <ele>565.93</ele>
        <time>2019-11-01T10:11:44Z</time>
      </trkpt>
      <trkpt lat="44.87537" lon="5.77073">
        <ele>564.61</ele>
        <time>2019-11-01T10:11:45Z</time>
      </trkpt>
      <trkpt lat="44.8754" lon="5.77076">
        <ele>563.79</ele>
        <time>2019-11-01T10:11:46Z</time>
      </trkpt>
      <trkpt lat="44.87542" lon="5.77078">
        <ele>563.2</ele>
        <time>2019-11-01T10:11:47Z</time>
      </trkpt>
      <trkpt lat="44.87544" lon="5.7708">
        <ele>562.53</ele>
        <time>2019-11-01T10:11:48Z</time>
      </trkpt>
      <trkpt lat="44.87545" lon="5.77084">
        <ele>561.49</ele>
        <time>2019-11-01T10:11:49Z</time>
      </trkpt>
      <trkpt lat="44.87545" lon="5.77087">
        <ele>559.98</ele>
        <time>2019-11-01T10:11:50Z</time>
      </trkpt>
      <trkpt lat="44.87546" lon="5.7709">
        <ele>559.04</ele>
        <time>2019-11-01T10:11:51Z</time>
      </trkpt>
      <trkpt lat="44.87545" lon="5.77093">
        <ele>557.28</ele>
        <time>2019-11-01T10:11:53Z</time>
      </trkpt>
      <trkpt lat="44.87542" lon="5.77094">
        <ele>555.98</ele>
        <time>2019-11-01T10:11:55Z</time>
      </trkpt>
      <trkpt lat="44.87541" lon="5.7709">
        <ele>554.61</ele>
        <time>2019-11-01T10:11:57Z</time>
      </trkpt>
      <trkpt lat="44.87537" lon="5.77088">
        <ele>553.13</ele>
        <time>2019-11-01T10:11:59Z</time>
      </trkpt>
      <trkpt lat="44.87534" lon="5.77088">
        <ele>552.36</ele>
        <time>2019-11-01T10:12:01Z</time>
      </trkpt>
      <trkpt lat="44.87531" lon="5.77088">
        <ele>551.61</ele>
        <time>2019-11-01T10:12:03Z</time>
      </trkpt>
      <trkpt lat="44.87527" lon="5.77086">
        <ele>550.99</ele>
        <time>2019-11-01T10:12:05Z</time>
      </trkpt>
      <trkpt lat="44.87525" lon="5.77085">
        <ele>550.4</ele>
        <time>2019-11-01T10:12:06Z</time>
      </trkpt>
      <trkpt lat="44.87523" lon="5.77085">
        <ele>549.87</ele>
        <time>2019-11-01T10:12:07Z</time>
      </trkpt>
      <trkpt lat="44.87521" lon="5.77083">
        <ele>549.36</ele>
        <time>2019-11-01T10:12:08Z</time>
      </trkpt>
      <trkpt lat="44.87519" lon="5.77082">
        <ele>549</ele>
        <time>2019-11-01T10:12:09Z</time>
      </trkpt>
      <trkpt lat="44.87517" lon="5.77081">
        <ele>548.82</ele>
        <time>2019-11-01T10:12:10Z</time>
      </trkpt>
      <trkpt lat="44.87513" lon="5.77079">
        <ele>548.5</ele>
        <time>2019-11-01T10:12:12Z</time>
      </trkpt>
      <trkpt lat="44.8751" lon="5.77078">
        <ele>548.28</ele>
        <time>2019-11-01T10:12:14Z</time>
      </trkpt>
      <trkpt lat="44.87508" lon="5.77077">
        <ele>548.25</ele>
        <time>2019-11-01T10:12:15Z</time>
      </trkpt>
      <trkpt lat="44.87507" lon="5.77077">
        <ele>548.24</ele>
        <time>2019-11-01T10:12:16Z</time>
      </trkpt>
      <trkpt lat="44.87505" lon="5.77076">
        <ele>548.31</ele>
        <time>2019-11-01T10:12:17Z</time>
      </trkpt>
      <trkpt lat="44.87503" lon="5.77075">
        <ele>548.47</ele>
        <time>2019-11-01T10:12:18Z</time>
      </trkpt>
      <trkpt lat="44.87501" lon="5.77073">
        <ele>548.73</ele>
        <time>2019-11-01T10:12:19Z</time>
      </trkpt>
      <trkpt lat="44.87498" lon="5.77073">
        <ele>548.88</ele>
        <time>2019-11-01T10:12:20Z</time>
      </trkpt>
      <trkpt lat="44.87496" lon="5.77073">
        <ele>549.27</ele>
        <time>2019-11-01T10:12:21Z</time>
      </trkpt>
      <trkpt lat="44.87494" lon="5.77073">
        <ele>550.01</ele>
        <time>2019-11-01T10:12:23Z</time>
      </trkpt>
      <trkpt lat="44.87491" lon="5.77073">
        <ele>550.86</ele>
        <time>2019-11-01T10:12:25Z</time>
      </trkpt>
      <trkpt lat="44.87488" lon="5.77071">
        <ele>551.79</ele>
        <time>2019-11-01T10:12:27Z</time>
      </trkpt>
      <trkpt lat="44.87486" lon="5.77069">
        <ele>552.48</ele>
        <time>2019-11-01T10:12:29Z</time>
      </trkpt>
      <trkpt lat="44.87483" lon="5.77069">
        <ele>552.97</ele>
        <time>2019-11-01T10:12:31Z</time>
      </trkpt>
      <trkpt lat="44.8748" lon="5.7707">
        <ele>553.63</ele>
        <time>2019-11-01T10:13:18Z</time>
      </trkpt>
      <trkpt lat="44.87476" lon="5.77071">
        <ele>553.82</ele>
        <time>2019-11-01T10:13:20Z</time>
      </trkpt>
      <trkpt lat="44.87472" lon="5.77072">
        <ele>553.77</ele>
        <time>2019-11-01T10:13:21Z</time>
      </trkpt>
      <trkpt lat="44.87468" lon="5.77072">
        <ele>553.89</ele>
        <time>2019-11-01T10:13:22Z</time>
      </trkpt>
      <trkpt lat="44.87463" lon="5.77072">
        <ele>554.42</ele>
        <time>2019-11-01T10:13:23Z</time>
      </trkpt>
      <trkpt lat="44.87457" lon="5.77072">
        <ele>554.71</ele>
        <time>2019-11-01T10:13:24Z</time>
      </trkpt>
      <trkpt lat="44.87452" lon="5.77073">
        <ele>554.8</ele>
        <time>2019-11-01T10:13:25Z</time>
      </trkpt>
      <trkpt lat="44.87446" lon="5.77072">
        <ele>554.76</ele>
        <time>2019-11-01T10:13:26Z</time>
      </trkpt>
      <trkpt lat="44.8744" lon="5.77072">
        <ele>554.61</ele>
        <time>2019-11-01T10:13:27Z</time>
      </trkpt>
      <trkpt lat="44.87435" lon="5.77072">
        <ele>554.7</ele>
        <time>2019-11-01T10:13:28Z</time>
      </trkpt>
      <trkpt lat="44.87432" lon="5.77072">
        <ele>554.94</ele>
        <time>2019-11-01T10:13:29Z</time>
      </trkpt>
      <trkpt lat="44.8743" lon="5.77071">
        <ele>555.08</ele>
        <time>2019-11-01T10:13:30Z</time>
      </trkpt>
      <trkpt lat="44.87427" lon="5.77073">
        <ele>555.71</ele>
        <time>2019-11-01T10:13:32Z</time>
      </trkpt>
      <trkpt lat="44.87425" lon="5.77075">
        <ele>555.65</ele>
        <time>2019-11-01T10:13:34Z</time>
      </trkpt>
      <trkpt lat="44.87425" lon="5.77077">
        <ele>555.64</ele>
        <time>2019-11-01T10:13:35Z</time>
      </trkpt>
      <trkpt lat="44.87424" lon="5.77081">
        <ele>555.43</ele>
        <time>2019-11-01T10:13:36Z</time>
      </trkpt>
      <trkpt lat="44.87423" lon="5.77084">
        <ele>555.3</ele>
        <time>2019-11-01T10:13:37Z</time>
      </trkpt>
      <trkpt lat="44.87422" lon="5.77088">
        <ele>554.84</ele>
        <time>2019-11-01T10:13:38Z</time>
      </trkpt>
      <trkpt lat="44.87421" lon="5.77092">
        <ele>554.42</ele>
        <time>2019-11-01T10:13:39Z</time>
      </trkpt>
      <trkpt lat="44.8742" lon="5.77096">
        <ele>553.94</ele>
        <time>2019-11-01T10:13:40Z</time>
      </trkpt>
      <trkpt lat="44.87419" lon="5.771">
        <ele>553.38</ele>
        <time>2019-11-01T10:13:41Z</time>
      </trkpt>
      <trkpt lat="44.87417" lon="5.77106">
        <ele>552.86</ele>
        <time>2019-11-01T10:13:42Z</time>
      </trkpt>
      <trkpt lat="44.87416" lon="5.77112">
        <ele>552.08</ele>
        <time>2019-11-01T10:13:43Z</time>
      </trkpt>
      <trkpt lat="44.87415" lon="5.77118">
        <ele>550.93</ele>
        <time>2019-11-01T10:13:44Z</time>
      </trkpt>
      <trkpt lat="44.87415" lon="5.77122">
        <ele>549.82</ele>
        <time>2019-11-01T10:13:45Z</time>
      </trkpt>
      <trkpt lat="44.87416" lon="5.77125">
        <ele>548.36</ele>
        <time>2019-11-01T10:13:46Z</time>
      </trkpt>
      <trkpt lat="44.87418" lon="5.77127">
        <ele>547.09</ele>
        <time>2019-11-01T10:13:47Z</time>
      </trkpt>
      <trkpt lat="44.87422" lon="5.77128">
        <ele>546.5</ele>
        <time>2019-11-01T10:13:48Z</time>
      </trkpt>
      <trkpt lat="44.87426" lon="5.7713">
        <ele>545.69</ele>
        <time>2019-11-01T10:13:49Z</time>
      </trkpt>
      <trkpt lat="44.87429" lon="5.77133">
        <ele>545.09</ele>
        <time>2019-11-01T10:13:50Z</time>
      </trkpt>
      <trkpt lat="44.87431" lon="5.77136">
        <ele>544.57</ele>
        <time>2019-11-01T10:13:51Z</time>
      </trkpt>
      <trkpt lat="44.8743" lon="5.77141">
        <ele>543.64</ele>
        <time>2019-11-01T10:13:52Z</time>
      </trkpt>
      <trkpt lat="44.87428" lon="5.77145">
        <ele>542.66</ele>
        <time>2019-11-01T10:13:53Z</time>
      </trkpt>
      <trkpt lat="44.87425" lon="5.77147">
        <ele>541.95</ele>
        <time>2019-11-01T10:13:54Z</time>
      </trkpt>
      <trkpt lat="44.8742" lon="5.77149">
        <ele>541.45</ele>
        <time>2019-11-01T10:13:55Z</time>
      </trkpt>
      <trkpt lat="44.87416" lon="5.77152">
        <ele>540.81</ele>
        <time>2019-11-01T10:13:56Z</time>
      </trkpt>
      <trkpt lat="44.87413" lon="5.77156">
        <ele>540.06</ele>
        <time>2019-11-01T10:13:57Z</time>
      </trkpt>
      <trkpt lat="44.8741" lon="5.7716">
        <ele>539.42</ele>
        <time>2019-11-01T10:13:58Z</time>
      </trkpt>
      <trkpt lat="44.87409" lon="5.77164">
        <ele>538.66</ele>
        <time>2019-11-01T10:13:59Z</time>
      </trkpt>
      <trkpt lat="44.87408" lon="5.77169">
        <ele>538.16</ele>
        <time>2019-11-01T10:14:00Z</time>
      </trkpt>
      <trkpt lat="44.8741" lon="5.77174">
        <ele>537.59</ele>
        <time>2019-11-01T10:14:01Z</time>
      </trkpt>
      <trkpt lat="44.87413" lon="5.77177">
        <ele>536.64</ele>
        <time>2019-11-01T10:14:02Z</time>
      </trkpt>
      <trkpt lat="44.87417" lon="5.7718">
        <ele>535.94</ele>
        <time>2019-11-01T10:14:03Z</time>
      </trkpt>
      <trkpt lat="44.87421" lon="5.77182">
        <ele>535.17</ele>
        <time>2019-11-01T10:14:04Z</time>
      </trkpt>
      <trkpt lat="44.87425" lon="5.77185">
        <ele>534.66</ele>
        <time>2019-11-01T10:14:05Z</time>
      </trkpt>
      <trkpt lat="44.87428" lon="5.77189">
        <ele>533.74</ele>
        <time>2019-11-01T10:14:06Z</time>
      </trkpt>
      <trkpt lat="44.87432" lon="5.77193">
        <ele>532.83</ele>
        <time>2019-11-01T10:14:07Z</time>
      </trkpt>
      <trkpt lat="44.87436" lon="5.77196">
        <ele>531.72</ele>
        <time>2019-11-01T10:14:08Z</time>
      </trkpt>
      <trkpt lat="44.8744" lon="5.772">
        <ele>530.4</ele>
        <time>2019-11-01T10:14:09Z</time>
      </trkpt>
      <trkpt lat="44.87443" lon="5.77203">
        <ele>529.38</ele>
        <time>2019-11-01T10:14:10Z</time>
      </trkpt>
      <trkpt lat="44.87444" lon="5.77205">
        <ele>528.37</ele>
        <time>2019-11-01T10:14:11Z</time>
      </trkpt>
      <trkpt lat="44.87443" lon="5.77207">
        <ele>527.65</ele>
        <time>2019-11-01T10:14:12Z</time>
      </trkpt>
      <trkpt lat="44.8744" lon="5.77208">
        <ele>526.94</ele>
        <time>2019-11-01T10:14:13Z</time>
      </trkpt>
      <trkpt lat="44.87439" lon="5.77208">
        <ele>526.24</ele>
        <time>2019-11-01T10:14:14Z</time>
      </trkpt>
      <trkpt lat="44.87437" lon="5.77208">
        <ele>525.61</ele>
        <time>2019-11-01T10:14:15Z</time>
      </trkpt>
      <trkpt lat="44.87434" lon="5.77207">
        <ele>525</ele>
        <time>2019-11-01T10:14:16Z</time>
      </trkpt>
      <trkpt lat="44.87432" lon="5.77207">
        <ele>524.54</ele>
        <time>2019-11-01T10:14:17Z</time>
      </trkpt>
      <trkpt lat="44.87429" lon="5.77207">
        <ele>523.98</ele>
        <time>2019-11-01T10:14:18Z</time>
      </trkpt>
      <trkpt lat="44.87427" lon="5.77207">
        <ele>523.25</ele>
        <time>2019-11-01T10:14:19Z</time>
      </trkpt>
      <trkpt lat="44.87424" lon="5.77206">
        <ele>522.4</ele>
        <time>2019-11-01T10:14:20Z</time>
      </trkpt>
      <trkpt lat="44.87421" lon="5.77208">
        <ele>522.08</ele>
        <time>2019-11-01T10:14:21Z</time>
      </trkpt>
      <trkpt lat="44.87419" lon="5.77211">
        <ele>521.77</ele>
        <time>2019-11-01T10:14:22Z</time>
      </trkpt>
      <trkpt lat="44.87419" lon="5.77217">
        <ele>521.33</ele>
        <time>2019-11-01T10:14:23Z</time>
      </trkpt>
      <trkpt lat="44.87421" lon="5.77223">
        <ele>520.78</ele>
        <time>2019-11-01T10:14:24Z</time>
      </trkpt>
      <trkpt lat="44.87425" lon="5.77231">
        <ele>520.05</ele>
        <time>2019-11-01T10:14:25Z</time>
      </trkpt>
      <trkpt lat="44.87429" lon="5.77238">
        <ele>519.34</ele>
        <time>2019-11-01T10:14:26Z</time>
      </trkpt>
      <trkpt lat="44.87433" lon="5.77244">
        <ele>518.64</ele>
        <time>2019-11-01T10:14:27Z</time>
      </trkpt>
      <trkpt lat="44.87438" lon="5.77249">
        <ele>517.8</ele>
        <time>2019-11-01T10:14:28Z</time>
      </trkpt>
      <trkpt lat="44.87443" lon="5.77253">
        <ele>516.92</ele>
        <time>2019-11-01T10:14:29Z</time>
      </trkpt>
      <trkpt lat="44.87448" lon="5.77256">
        <ele>516.16</ele>
        <time>2019-11-01T10:14:30Z</time>
      </trkpt>
      <trkpt lat="44.87454" lon="5.77258">
        <ele>514.96</ele>
        <time>2019-11-01T10:14:31Z</time>
      </trkpt>
      <trkpt lat="44.8746" lon="5.77261">
        <ele>513.9</ele>
        <time>2019-11-01T10:14:32Z</time>
      </trkpt>
      <trkpt lat="44.87467" lon="5.77264">
        <ele>513.3</ele>
        <time>2019-11-01T10:14:33Z</time>
      </trkpt>
      <trkpt lat="44.87474" lon="5.77269">
        <ele>512.7</ele>
        <time>2019-11-01T10:14:34Z</time>
      </trkpt>
      <trkpt lat="44.87481" lon="5.77273">
        <ele>512.1</ele>
        <time>2019-11-01T10:14:35Z</time>
      </trkpt>
      <trkpt lat="44.87488" lon="5.77276">
        <ele>511.22</ele>
        <time>2019-11-01T10:14:36Z</time>
      </trkpt>
      <trkpt lat="44.87495" lon="5.77276">
        <ele>510.32</ele>
        <time>2019-11-01T10:14:37Z</time>
      </trkpt>
      <trkpt lat="44.87503" lon="5.77275">
        <ele>509.57</ele>
        <time>2019-11-01T10:14:38Z</time>
      </trkpt>
      <trkpt lat="44.87509" lon="5.77275">
        <ele>508.5</ele>
        <time>2019-11-01T10:14:39Z</time>
      </trkpt>
      <trkpt lat="44.87514" lon="5.77274">
        <ele>507.2</ele>
        <time>2019-11-01T10:14:40Z</time>
      </trkpt>
      <trkpt lat="44.87518" lon="5.77274">
        <ele>505.83</ele>
        <time>2019-11-01T10:14:41Z</time>
      </trkpt>
      <trkpt lat="44.87521" lon="5.77274">
        <ele>504.44</ele>
        <time>2019-11-01T10:14:42Z</time>
      </trkpt>
      <trkpt lat="44.87524" lon="5.77275">
        <ele>503.6</ele>
        <time>2019-11-01T10:14:43Z</time>
      </trkpt>
      <trkpt lat="44.87527" lon="5.77276">
        <ele>502.86</ele>
        <time>2019-11-01T10:14:44Z</time>
      </trkpt>
      <trkpt lat="44.87522" lon="5.77281">
        <ele>501.03</ele>
        <time>2019-11-01T10:15:15Z</time>
      </trkpt>
      <trkpt lat="44.87519" lon="5.77282">
        <ele>501.18</ele>
        <time>2019-11-01T10:15:16Z</time>
      </trkpt>
      <trkpt lat="44.87516" lon="5.77283">
        <ele>501.08</ele>
        <time>2019-11-01T10:15:17Z</time>
      </trkpt>
      <trkpt lat="44.87511" lon="5.77284">
        <ele>500.98</ele>
        <time>2019-11-01T10:15:18Z</time>
      </trkpt>
      <trkpt lat="44.87506" lon="5.77286">
        <ele>500.88</ele>
        <time>2019-11-01T10:15:19Z</time>
      </trkpt>
      <trkpt lat="44.87499" lon="5.77289">
        <ele>500.85</ele>
        <time>2019-11-01T10:15:20Z</time>
      </trkpt>
      <trkpt lat="44.87492" lon="5.77292">
        <ele>500.77</ele>
        <time>2019-11-01T10:15:21Z</time>
      </trkpt>
      <trkpt lat="44.87485" lon="5.77293">
        <ele>500.68</ele>
        <time>2019-11-01T10:15:22Z</time>
      </trkpt>
      <trkpt lat="44.87478" lon="5.77293">
        <ele>500.44</ele>
        <time>2019-11-01T10:15:23Z</time>
      </trkpt>
      <trkpt lat="44.8747" lon="5.7729">
        <ele>500.23</ele>
        <time>2019-11-01T10:15:24Z</time>
      </trkpt>
      <trkpt lat="44.87463" lon="5.77288">
        <ele>499.75</ele>
        <time>2019-11-01T10:15:25Z</time>
      </trkpt>
      <trkpt lat="44.87456" lon="5.77287">
        <ele>499.11</ele>
        <time>2019-11-01T10:15:26Z</time>
      </trkpt>
      <trkpt lat="44.87447" lon="5.77287">
        <ele>498.22</ele>
        <time>2019-11-01T10:15:27Z</time>
      </trkpt>
      <trkpt lat="44.87439" lon="5.77288">
        <ele>497.26</ele>
        <time>2019-11-01T10:15:28Z</time>
      </trkpt>
      <trkpt lat="44.87431" lon="5.7729">
        <ele>496.27</ele>
        <time>2019-11-01T10:15:29Z</time>
      </trkpt>
      <trkpt lat="44.87423" lon="5.77292">
        <ele>495.41</ele>
        <time>2019-11-01T10:15:30Z</time>
      </trkpt>
      <trkpt lat="44.87416" lon="5.77296">
        <ele>494.59</ele>
        <time>2019-11-01T10:15:31Z</time>
      </trkpt>
      <trkpt lat="44.8741" lon="5.773">
        <ele>493.58</ele>
        <time>2019-11-01T10:15:32Z</time>
      </trkpt>
      <trkpt lat="44.87404" lon="5.77305">
        <ele>493.41</ele>
        <time>2019-11-01T10:15:33Z</time>
      </trkpt>
      <trkpt lat="44.87399" lon="5.77308">
        <ele>492.66</ele>
        <time>2019-11-01T10:15:34Z</time>
      </trkpt>
      <trkpt lat="44.87394" lon="5.77309">
        <ele>491.74</ele>
        <time>2019-11-01T10:15:35Z</time>
      </trkpt>
      <trkpt lat="44.87389" lon="5.77307">
        <ele>490.97</ele>
        <time>2019-11-01T10:15:36Z</time>
      </trkpt>
      <trkpt lat="44.87388" lon="5.77301">
        <ele>489.9</ele>
        <time>2019-11-01T10:15:37Z</time>
      </trkpt>
      <trkpt lat="44.87387" lon="5.77295">
        <ele>488.74</ele>
        <time>2019-11-01T10:15:38Z</time>
      </trkpt>
      <trkpt lat="44.87385" lon="5.77292">
        <ele>487.69</ele>
        <time>2019-11-01T10:15:39Z</time>
      </trkpt>
      <trkpt lat="44.87384" lon="5.7729">
        <ele>486.26</ele>
        <time>2019-11-01T10:15:40Z</time>
      </trkpt>
      <trkpt lat="44.87381" lon="5.77292">
        <ele>484.64</ele>
        <time>2019-11-01T10:15:42Z</time>
      </trkpt>
      <trkpt lat="44.8738" lon="5.77295">
        <ele>484.15</ele>
        <time>2019-11-01T10:15:43Z</time>
      </trkpt>
      <trkpt lat="44.8738" lon="5.773">
        <ele>483.51</ele>
        <time>2019-11-01T10:15:44Z</time>
      </trkpt>
      <trkpt lat="44.8738" lon="5.77306">
        <ele>482.69</ele>
        <time>2019-11-01T10:15:45Z</time>
      </trkpt>
      <trkpt lat="44.8738" lon="5.77313">
        <ele>482.17</ele>
        <time>2019-11-01T10:15:46Z</time>
      </trkpt>
      <trkpt lat="44.8738" lon="5.77321">
        <ele>481.94</ele>
        <time>2019-11-01T10:15:47Z</time>
      </trkpt>
      <trkpt lat="44.87381" lon="5.77328">
        <ele>481.73</ele>
        <time>2019-11-01T10:15:48Z</time>
      </trkpt>
      <trkpt lat="44.87384" lon="5.77334">
        <ele>481.11</ele>
        <time>2019-11-01T10:15:49Z</time>
      </trkpt>
      <trkpt lat="44.87388" lon="5.77339">
        <ele>480.43</ele>
        <time>2019-11-01T10:15:50Z</time>
      </trkpt>
      <trkpt lat="44.87394" lon="5.77344">
        <ele>479.39</ele>
        <time>2019-11-01T10:15:51Z</time>
      </trkpt>
      <trkpt lat="44.874" lon="5.77347">
        <ele>478.59</ele>
        <time>2019-11-01T10:15:52Z</time>
      </trkpt>
      <trkpt lat="44.87406" lon="5.77348">
        <ele>478.06</ele>
        <time>2019-11-01T10:15:53Z</time>
      </trkpt>
      <trkpt lat="44.87412" lon="5.77348">
        <ele>477.7</ele>
        <time>2019-11-01T10:15:54Z</time>
      </trkpt>
      <trkpt lat="44.87418" lon="5.77346">
        <ele>477.24</ele>
        <time>2019-11-01T10:15:55Z</time>
      </trkpt>
      <trkpt lat="44.87423" lon="5.77345">
        <ele>476.96</ele>
        <time>2019-11-01T10:15:56Z</time>
      </trkpt>
      <trkpt lat="44.87428" lon="5.77346">
        <ele>476.6</ele>
        <time>2019-11-01T10:15:57Z</time>
      </trkpt>
      <trkpt lat="44.87431" lon="5.77346">
        <ele>475.51</ele>
        <time>2019-11-01T10:15:58Z</time>
      </trkpt>
      <trkpt lat="44.87433" lon="5.77348">
        <ele>474.34</ele>
        <time>2019-11-01T10:15:59Z</time>
      </trkpt>
      <trkpt lat="44.87432" lon="5.77351">
        <ele>473.57</ele>
        <time>2019-11-01T10:16:00Z</time>
      </trkpt>
      <trkpt lat="44.87425" lon="5.77356">
        <ele>472.29</ele>
        <time>2019-11-01T10:16:01Z</time>
      </trkpt>
      <trkpt lat="44.87419" lon="5.7736">
        <ele>471.07</ele>
        <time>2019-11-01T10:16:02Z</time>
      </trkpt>
      <trkpt lat="44.87411" lon="5.77363">
        <ele>470</ele>
        <time>2019-11-01T10:16:03Z</time>
      </trkpt>
      <trkpt lat="44.87403" lon="5.77365">
        <ele>468.98</ele>
        <time>2019-11-01T10:16:04Z</time>
      </trkpt>
      <trkpt lat="44.87395" lon="5.77366">
        <ele>467.97</ele>
        <time>2019-11-01T10:16:05Z</time>
      </trkpt>
      <trkpt lat="44.87387" lon="5.77366">
        <ele>466.83</ele>
        <time>2019-11-01T10:16:06Z</time>
      </trkpt>
      <trkpt lat="44.87379" lon="5.77364">
        <ele>465.93</ele>
        <time>2019-11-01T10:16:07Z</time>
      </trkpt>
      <trkpt lat="44.8737" lon="5.77359">
        <ele>464.96</ele>
        <time>2019-11-01T10:16:08Z</time>
      </trkpt>
      <trkpt lat="44.87361" lon="5.77354">
        <ele>464.04</ele>
        <time>2019-11-01T10:16:09Z</time>
      </trkpt>
      <trkpt lat="44.87351" lon="5.77346">
        <ele>463.69</ele>
        <time>2019-11-01T10:16:10Z</time>
      </trkpt>
      <trkpt lat="44.87345" lon="5.77332">
        <ele>462.19</ele>
        <time>2019-11-01T10:16:11Z</time>
      </trkpt>
      <trkpt lat="44.87342" lon="5.77322">
        <ele>461.38</ele>
        <time>2019-11-01T10:16:12Z</time>
      </trkpt>
      <trkpt lat="44.87341" lon="5.77312">
        <ele>460.51</ele>
        <time>2019-11-01T10:16:13Z</time>
      </trkpt>
      <trkpt lat="44.87342" lon="5.77302">
        <ele>460.11</ele>
        <time>2019-11-01T10:16:14Z</time>
      </trkpt>
      <trkpt lat="44.87343" lon="5.77295">
        <ele>459.64</ele>
        <time>2019-11-01T10:16:15Z</time>
      </trkpt>
      <trkpt lat="44.87341" lon="5.77289">
        <ele>459.08</ele>
        <time>2019-11-01T10:16:16Z</time>
      </trkpt>
      <trkpt lat="44.8734" lon="5.77286">
        <ele>458.28</ele>
        <time>2019-11-01T10:16:17Z</time>
      </trkpt>
      <trkpt lat="44.87338" lon="5.77285">
        <ele>457.06</ele>
        <time>2019-11-01T10:16:18Z</time>
      </trkpt>
      <trkpt lat="44.87335" lon="5.77288">
        <ele>456.21</ele>
        <time>2019-11-01T10:16:19Z</time>
      </trkpt>
      <trkpt lat="44.87334" lon="5.77295">
        <ele>455.81</ele>
        <time>2019-11-01T10:16:20Z</time>
      </trkpt>
      <trkpt lat="44.87334" lon="5.77304">
        <ele>455.76</ele>
        <time>2019-11-01T10:16:21Z</time>
      </trkpt>
      <trkpt lat="44.87333" lon="5.77313">
        <ele>455.75</ele>
        <time>2019-11-01T10:16:22Z</time>
      </trkpt>
      <trkpt lat="44.87332" lon="5.77322">
        <ele>455.25</ele>
        <time>2019-11-01T10:16:23Z</time>
      </trkpt>
      <trkpt lat="44.87329" lon="5.7733">
        <ele>454.61</ele>
        <time>2019-11-01T10:16:24Z</time>
      </trkpt>
      <trkpt lat="44.87325" lon="5.77337">
        <ele>454</ele>
        <time>2019-11-01T10:16:25Z</time>
      </trkpt>
      <trkpt lat="44.87319" lon="5.77339">
        <ele>453.68</ele>
        <time>2019-11-01T10:16:26Z</time>
      </trkpt>
      <trkpt lat="44.87315" lon="5.77339">
        <ele>453.72</ele>
        <time>2019-11-01T10:16:27Z</time>
      </trkpt>
      <trkpt lat="44.8731" lon="5.77339">
        <ele>453.81</ele>
        <time>2019-11-01T10:16:28Z</time>
      </trkpt>
      <trkpt lat="44.87306" lon="5.77338">
        <ele>453.76</ele>
        <time>2019-11-01T10:16:29Z</time>
      </trkpt>
      <trkpt lat="44.87303" lon="5.77338">
        <ele>453.54</ele>
        <time>2019-11-01T10:16:30Z</time>
      </trkpt>
      <trkpt lat="44.873" lon="5.77336">
        <ele>452.98</ele>
        <time>2019-11-01T10:16:31Z</time>
      </trkpt>
      <trkpt lat="44.87298" lon="5.77336">
        <ele>452.39</ele>
        <time>2019-11-01T10:16:32Z</time>
      </trkpt>
      <trkpt lat="44.87295" lon="5.77335">
        <ele>451.8</ele>
        <time>2019-11-01T10:16:33Z</time>
      </trkpt>
      <trkpt lat="44.87293" lon="5.77336">
        <ele>451.27</ele>
        <time>2019-11-01T10:16:34Z</time>
      </trkpt>
      <trkpt lat="44.87291" lon="5.77336">
        <ele>451.04</ele>
        <time>2019-11-01T10:16:35Z</time>
      </trkpt>
      <trkpt lat="44.87287" lon="5.77337">
        <ele>451.02</ele>
        <time>2019-11-01T10:16:37Z</time>
      </trkpt>
      <trkpt lat="44.87285" lon="5.77337">
        <ele>450.96</ele>
        <time>2019-11-01T10:16:38Z</time>
      </trkpt>
      <trkpt lat="44.87283" lon="5.77336">
        <ele>450.88</ele>
        <time>2019-11-01T10:16:39Z</time>
      </trkpt>
      <trkpt lat="44.87281" lon="5.77336">
        <ele>451.21</ele>
        <time>2019-11-01T10:16:41Z</time>
      </trkpt>
      <trkpt lat="44.87279" lon="5.77335">
        <ele>451.72</ele>
        <time>2019-11-01T10:16:47Z</time>
      </trkpt>
      <trkpt lat="44.87276" lon="5.77334">
        <ele>451.66</ele>
        <time>2019-11-01T10:16:48Z</time>
      </trkpt>
      <trkpt lat="44.87273" lon="5.77333">
        <ele>451.51</ele>
        <time>2019-11-01T10:16:49Z</time>
      </trkpt>
      <trkpt lat="44.8727" lon="5.77331">
        <ele>451.39</ele>
        <time>2019-11-01T10:16:50Z</time>
      </trkpt>
      <trkpt lat="44.87267" lon="5.77329">
        <ele>451.36</ele>
        <time>2019-11-01T10:16:51Z</time>
      </trkpt>
      <trkpt lat="44.87264" lon="5.77325">
        <ele>451.07</ele>
        <time>2019-11-01T10:16:52Z</time>
      </trkpt>
      <trkpt lat="44.87263" lon="5.77322">
        <ele>450.84</ele>
        <time>2019-11-01T10:16:53Z</time>
      </trkpt>
      <trkpt lat="44.87262" lon="5.7732">
        <ele>450.49</ele>
        <time>2019-11-01T10:16:54Z</time>
      </trkpt>
      <trkpt lat="44.87261" lon="5.77317">
        <ele>450.25</ele>
        <time>2019-11-01T10:16:55Z</time>
      </trkpt>
      <trkpt lat="44.87261" lon="5.77313">
        <ele>450.24</ele>
        <time>2019-11-01T10:16:56Z</time>
      </trkpt>
      <trkpt lat="44.8726" lon="5.7731">
        <ele>450.73</ele>
        <time>2019-11-01T10:16:57Z</time>
      </trkpt>
      <trkpt lat="44.8726" lon="5.77306">
        <ele>451.23</ele>
        <time>2019-11-01T10:16:58Z</time>
      </trkpt>
      <trkpt lat="44.8726" lon="5.77302">
        <ele>451.87</ele>
        <time>2019-11-01T10:16:59Z</time>
      </trkpt>
      <trkpt lat="44.8726" lon="5.77299">
        <ele>452.06</ele>
        <time>2019-11-01T10:17:00Z</time>
      </trkpt>
      <trkpt lat="44.8726" lon="5.77296">
        <ele>452.61</ele>
        <time>2019-11-01T10:17:01Z</time>
      </trkpt>
      <trkpt lat="44.8726" lon="5.77292">
        <ele>452.7</ele>
        <time>2019-11-01T10:17:02Z</time>
      </trkpt>
      <trkpt lat="44.8726" lon="5.77289">
        <ele>452.73</ele>
        <time>2019-11-01T10:17:03Z</time>
      </trkpt>
      <trkpt lat="44.87261" lon="5.77285">
        <ele>452.95</ele>
        <time>2019-11-01T10:17:04Z</time>
      </trkpt>
      <trkpt lat="44.87261" lon="5.77282">
        <ele>453.43</ele>
        <time>2019-11-01T10:17:05Z</time>
      </trkpt>
      <trkpt lat="44.8726" lon="5.77279">
        <ele>453.51</ele>
        <time>2019-11-01T10:17:06Z</time>
      </trkpt>
      <trkpt lat="44.87261" lon="5.77276">
        <ele>453.53</ele>
        <time>2019-11-01T10:17:07Z</time>
      </trkpt>
      <trkpt lat="44.87261" lon="5.77273">
        <ele>453.61</ele>
        <time>2019-11-01T10:17:08Z</time>
      </trkpt>
      <trkpt lat="44.87261" lon="5.7727">
        <ele>454.12</ele>
        <time>2019-11-01T10:17:09Z</time>
      </trkpt>
      <trkpt lat="44.8726" lon="5.77267">
        <ele>454.49</ele>
        <time>2019-11-01T10:17:10Z</time>
      </trkpt>
      <trkpt lat="44.8726" lon="5.77264">
        <ele>455.15</ele>
        <time>2019-11-01T10:17:11Z</time>
      </trkpt>
      <trkpt lat="44.8726" lon="5.77261">
        <ele>455.56</ele>
        <time>2019-11-01T10:17:12Z</time>
      </trkpt>
      <trkpt lat="44.8726" lon="5.77258">
        <ele>455.69</ele>
        <time>2019-11-01T10:17:13Z</time>
      </trkpt>
      <trkpt lat="44.87259" lon="5.77255">
        <ele>455.94</ele>
        <time>2019-11-01T10:17:14Z</time>
      </trkpt>
      <trkpt lat="44.87258" lon="5.77252">
        <ele>456.08</ele>
        <time>2019-11-01T10:17:15Z</time>
      </trkpt>
      <trkpt lat="44.87257" lon="5.7725">
        <ele>456.4</ele>
        <time>2019-11-01T10:17:16Z</time>
      </trkpt>
      <trkpt lat="44.87256" lon="5.77247">
        <ele>456.5</ele>
        <time>2019-11-01T10:17:17Z</time>
      </trkpt>
      <trkpt lat="44.87255" lon="5.77244">
        <ele>456.46</ele>
        <time>2019-11-01T10:17:18Z</time>
      </trkpt>
      <trkpt lat="44.87253" lon="5.77242">
        <ele>456.59</ele>
        <time>2019-11-01T10:17:19Z</time>
      </trkpt>
      <trkpt lat="44.87252" lon="5.7724">
        <ele>456.83</ele>
        <time>2019-11-01T10:17:20Z</time>
      </trkpt>
      <trkpt lat="44.87252" lon="5.77237">
        <ele>456.98</ele>
        <time>2019-11-01T10:17:21Z</time>
      </trkpt>
      <trkpt lat="44.8725" lon="5.77234">
        <ele>457.02</ele>
        <time>2019-11-01T10:17:22Z</time>
      </trkpt>
      <trkpt lat="44.8725" lon="5.77232">
        <ele>457.25</ele>
        <time>2019-11-01T10:17:23Z</time>
      </trkpt>
      <trkpt lat="44.87249" lon="5.77227">
        <ele>457.86</ele>
        <time>2019-11-01T10:17:25Z</time>
      </trkpt>
      <trkpt lat="44.87247" lon="5.77223">
        <ele>458.39</ele>
        <time>2019-11-01T10:17:27Z</time>
      </trkpt>
      <trkpt lat="44.87245" lon="5.77221">
        <ele>458.43</ele>
        <time>2019-11-01T10:17:28Z</time>
      </trkpt>
      <trkpt lat="44.87243" lon="5.7722">
        <ele>458.3</ele>
        <time>2019-11-01T10:17:29Z</time>
      </trkpt>
      <trkpt lat="44.87242" lon="5.77217">
        <ele>458.19</ele>
        <time>2019-11-01T10:17:30Z</time>
      </trkpt>
      <trkpt lat="44.8724" lon="5.77214">
        <ele>458.01</ele>
        <time>2019-11-01T10:17:31Z</time>
      </trkpt>
      <trkpt lat="44.87239" lon="5.77213">
        <ele>458.1</ele>
        <time>2019-11-01T10:17:32Z</time>
      </trkpt>
      <trkpt lat="44.87237" lon="5.7721">
        <ele>457.99</ele>
        <time>2019-11-01T10:17:33Z</time>
      </trkpt>
      <trkpt lat="44.87236" lon="5.77207">
        <ele>457.82</ele>
        <time>2019-11-01T10:17:34Z</time>
      </trkpt>
      <trkpt lat="44.87234" lon="5.77204">
        <ele>457.83</ele>
        <time>2019-11-01T10:17:35Z</time>
      </trkpt>
      <trkpt lat="44.87232" lon="5.77202">
        <ele>457.91</ele>
        <time>2019-11-01T10:17:36Z</time>
      </trkpt>
      <trkpt lat="44.8723" lon="5.77199">
        <ele>458.21</ele>
        <time>2019-11-01T10:17:37Z</time>
      </trkpt>
      <trkpt lat="44.87229" lon="5.77197">
        <ele>458.79</ele>
        <time>2019-11-01T10:17:38Z</time>
      </trkpt>
      <trkpt lat="44.87227" lon="5.77195">
        <ele>459.6</ele>
        <time>2019-11-01T10:17:39Z</time>
      </trkpt>
      <trkpt lat="44.87226" lon="5.77193">
        <ele>459.98</ele>
        <time>2019-11-01T10:17:40Z</time>
      </trkpt>
      <trkpt lat="44.87224" lon="5.77191">
        <ele>460.37</ele>
        <time>2019-11-01T10:17:41Z</time>
      </trkpt>
      <trkpt lat="44.87223" lon="5.77188">
        <ele>460.91</ele>
        <time>2019-11-01T10:17:42Z</time>
      </trkpt>
      <trkpt lat="44.87221" lon="5.77185">
        <ele>461.35</ele>
        <time>2019-11-01T10:17:43Z</time>
      </trkpt>
      <trkpt lat="44.8722" lon="5.77184">
        <ele>461.55</ele>
        <time>2019-11-01T10:17:44Z</time>
      </trkpt>
      <trkpt lat="44.87218" lon="5.77181">
        <ele>461.54</ele>
        <time>2019-11-01T10:17:45Z</time>
      </trkpt>
      <trkpt lat="44.87216" lon="5.77179">
        <ele>461.68</ele>
        <time>2019-11-01T10:17:46Z</time>
      </trkpt>
      <trkpt lat="44.87214" lon="5.77176">
        <ele>461.72</ele>
        <time>2019-11-01T10:17:47Z</time>
      </trkpt>
      <trkpt lat="44.87213" lon="5.77174">
        <ele>462.02</ele>
        <time>2019-11-01T10:17:48Z</time>
      </trkpt>
      <trkpt lat="44.87211" lon="5.77171">
        <ele>462.38</ele>
        <time>2019-11-01T10:17:49Z</time>
      </trkpt>
      <trkpt lat="44.8721" lon="5.77169">
        <ele>463.26</ele>
        <time>2019-11-01T10:17:50Z</time>
      </trkpt>
      <trkpt lat="44.87208" lon="5.77167">
        <ele>464.09</ele>
        <time>2019-11-01T10:17:51Z</time>
      </trkpt>
      <trkpt lat="44.87207" lon="5.77166">
        <ele>464.83</ele>
        <time>2019-11-01T10:17:52Z</time>
      </trkpt>
      <trkpt lat="44.87205" lon="5.77164">
        <ele>465.61</ele>
        <time>2019-11-01T10:17:53Z</time>
      </trkpt>
      <trkpt lat="44.87204" lon="5.77162">
        <ele>466.33</ele>
        <time>2019-11-01T10:17:54Z</time>
      </trkpt>
      <trkpt lat="44.87202" lon="5.77159">
        <ele>466.48</ele>
        <time>2019-11-01T10:17:55Z</time>
      </trkpt>
      <trkpt lat="44.87201" lon="5.77158">
        <ele>466.52</ele>
        <time>2019-11-01T10:17:56Z</time>
      </trkpt>
      <trkpt lat="44.87198" lon="5.77155">
        <ele>467.18</ele>
        <time>2019-11-01T10:17:58Z</time>
      </trkpt>
      <trkpt lat="44.87195" lon="5.77152">
        <ele>467.74</ele>
        <time>2019-11-01T10:18:00Z</time>
      </trkpt>
      <trkpt lat="44.87193" lon="5.77149">
        <ele>468.48</ele>
        <time>2019-11-01T10:18:02Z</time>
      </trkpt>
      <trkpt lat="44.87192" lon="5.77145">
        <ele>469.4</ele>
        <time>2019-11-01T10:18:04Z</time>
      </trkpt>
      <trkpt lat="44.87191" lon="5.77141">
        <ele>469.57</ele>
        <time>2019-11-01T10:18:05Z</time>
      </trkpt>
      <trkpt lat="44.8719" lon="5.77138">
        <ele>469.62</ele>
        <time>2019-11-01T10:18:06Z</time>
      </trkpt>
      <trkpt lat="44.87189" lon="5.77134">
        <ele>469.56</ele>
        <time>2019-11-01T10:18:07Z</time>
      </trkpt>
      <trkpt lat="44.87188" lon="5.77131">
        <ele>469.41</ele>
        <time>2019-11-01T10:18:08Z</time>
      </trkpt>
      <trkpt lat="44.87187" lon="5.77128">
        <ele>469.43</ele>
        <time>2019-11-01T10:18:09Z</time>
      </trkpt>
      <trkpt lat="44.87186" lon="5.77125">
        <ele>469.44</ele>
        <time>2019-11-01T10:18:10Z</time>
      </trkpt>
      <trkpt lat="44.87185" lon="5.77123">
        <ele>469.51</ele>
        <time>2019-11-01T10:18:11Z</time>
      </trkpt>
      <trkpt lat="44.87184" lon="5.7712">
        <ele>469.46</ele>
        <time>2019-11-01T10:18:12Z</time>
      </trkpt>
      <trkpt lat="44.87184" lon="5.77117">
        <ele>469.66</ele>
        <time>2019-11-01T10:18:13Z</time>
      </trkpt>
      <trkpt lat="44.87184" lon="5.77113">
        <ele>470</ele>
        <time>2019-11-01T10:18:14Z</time>
      </trkpt>
      <trkpt lat="44.87185" lon="5.7711">
        <ele>470.38</ele>
        <time>2019-11-01T10:18:15Z</time>
      </trkpt>
      <trkpt lat="44.87186" lon="5.77107">
        <ele>470.77</ele>
        <time>2019-11-01T10:18:16Z</time>
      </trkpt>
      <trkpt lat="44.87186" lon="5.77103">
        <ele>470.82</ele>
        <time>2019-11-01T10:18:17Z</time>
      </trkpt>
      <trkpt lat="44.87187" lon="5.77099">
        <ele>470.83</ele>
        <time>2019-11-01T10:18:18Z</time>
      </trkpt>
      <trkpt lat="44.87189" lon="5.77096">
        <ele>471.05</ele>
        <time>2019-11-01T10:18:19Z</time>
      </trkpt>
      <trkpt lat="44.8719" lon="5.77093">
        <ele>471.04</ele>
        <time>2019-11-01T10:18:20Z</time>
      </trkpt>
      <trkpt lat="44.8719" lon="5.77089">
        <ele>471.04</ele>
        <time>2019-11-01T10:18:21Z</time>
      </trkpt>
      <trkpt lat="44.87191" lon="5.77086">
        <ele>470.69</ele>
        <time>2019-11-01T10:18:22Z</time>
      </trkpt>
      <trkpt lat="44.87192" lon="5.77083">
        <ele>470.8</ele>
        <time>2019-11-01T10:18:23Z</time>
      </trkpt>
      <trkpt lat="44.87192" lon="5.77081">
        <ele>470.69</ele>
        <time>2019-11-01T10:18:24Z</time>
      </trkpt>
      <trkpt lat="44.87194" lon="5.77075">
        <ele>471.06</ele>
        <time>2019-11-01T10:18:26Z</time>
      </trkpt>
      <trkpt lat="44.87194" lon="5.77073">
        <ele>470.91</ele>
        <time>2019-11-01T10:18:27Z</time>
      </trkpt>
      <trkpt lat="44.87195" lon="5.77069">
        <ele>470.51</ele>
        <time>2019-11-01T10:18:28Z</time>
      </trkpt>
      <trkpt lat="44.87196" lon="5.77067">
        <ele>470.25</ele>
        <time>2019-11-01T10:18:29Z</time>
      </trkpt>
      <trkpt lat="44.87197" lon="5.77063">
        <ele>469.7</ele>
        <time>2019-11-01T10:18:31Z</time>
      </trkpt>
      <trkpt lat="44.87198" lon="5.7706">
        <ele>469.52</ele>
        <time>2019-11-01T10:18:32Z</time>
      </trkpt>
      <trkpt lat="44.87199" lon="5.77058">
        <ele>469.32</ele>
        <time>2019-11-01T10:18:33Z</time>
      </trkpt>
      <trkpt lat="44.87199" lon="5.77055">
        <ele>468.99</ele>
        <time>2019-11-01T10:18:34Z</time>
      </trkpt>
      <trkpt lat="44.872" lon="5.77052">
        <ele>468.81</ele>
        <time>2019-11-01T10:18:35Z</time>
      </trkpt>
      <trkpt lat="44.872" lon="5.77048">
        <ele>468.76</ele>
        <time>2019-11-01T10:18:36Z</time>
      </trkpt>
      <trkpt lat="44.87202" lon="5.77045">
        <ele>468.47</ele>
        <time>2019-11-01T10:18:37Z</time>
      </trkpt>
      <trkpt lat="44.87203" lon="5.77042">
        <ele>468.73</ele>
        <time>2019-11-01T10:18:38Z</time>
      </trkpt>
      <trkpt lat="44.87204" lon="5.77039">
        <ele>469.16</ele>
        <time>2019-11-01T10:18:39Z</time>
      </trkpt>
      <trkpt lat="44.87205" lon="5.77035">
        <ele>468.87</ele>
        <time>2019-11-01T10:18:40Z</time>
      </trkpt>
      <trkpt lat="44.87205" lon="5.77031">
        <ele>468.64</ele>
        <time>2019-11-01T10:18:41Z</time>
      </trkpt>
      <trkpt lat="44.87206" lon="5.77029">
        <ele>468.5</ele>
        <time>2019-11-01T10:18:42Z</time>
      </trkpt>
      <trkpt lat="44.87207" lon="5.77025">
        <ele>468.32</ele>
        <time>2019-11-01T10:18:43Z</time>
      </trkpt>
      <trkpt lat="44.87207" lon="5.77022">
        <ele>468.12</ele>
        <time>2019-11-01T10:18:44Z</time>
      </trkpt>
      <trkpt lat="44.87208" lon="5.77019">
        <ele>467.72</ele>
        <time>2019-11-01T10:18:45Z</time>
      </trkpt>
      <trkpt lat="44.87209" lon="5.77016">
        <ele>467.8</ele>
        <time>2019-11-01T10:18:46Z</time>
      </trkpt>
      <trkpt lat="44.8721" lon="5.77014">
        <ele>468.04</ele>
        <time>2019-11-01T10:18:47Z</time>
      </trkpt>
      <trkpt lat="44.8721" lon="5.77011">
        <ele>468.32</ele>
        <time>2019-11-01T10:18:48Z</time>
      </trkpt>
      <trkpt lat="44.87211" lon="5.77008">
        <ele>468.82</ele>
        <time>2019-11-01T10:18:49Z</time>
      </trkpt>
      <trkpt lat="44.87212" lon="5.77005">
        <ele>469.47</ele>
        <time>2019-11-01T10:18:50Z</time>
      </trkpt>
      <trkpt lat="44.87213" lon="5.77002">
        <ele>470.01</ele>
        <time>2019-11-01T10:18:51Z</time>
      </trkpt>
      <trkpt lat="44.87214" lon="5.76999">
        <ele>470.59</ele>
        <time>2019-11-01T10:18:52Z</time>
      </trkpt>
      <trkpt lat="44.87215" lon="5.76996">
        <ele>471.26</ele>
        <time>2019-11-01T10:18:53Z</time>
      </trkpt>
      <trkpt lat="44.87216" lon="5.76993">
        <ele>471.95</ele>
        <time>2019-11-01T10:18:54Z</time>
      </trkpt>
      <trkpt lat="44.87216" lon="5.76989">
        <ele>472.78</ele>
        <time>2019-11-01T10:18:55Z</time>
      </trkpt>
      <trkpt lat="44.87216" lon="5.76985">
        <ele>473.66</ele>
        <time>2019-11-01T10:18:56Z</time>
      </trkpt>
      <trkpt lat="44.87216" lon="5.76981">
        <ele>474.14</ele>
        <time>2019-11-01T10:18:57Z</time>
      </trkpt>
      <trkpt lat="44.87216" lon="5.76977">
        <ele>474.21</ele>
        <time>2019-11-01T10:18:58Z</time>
      </trkpt>
      <trkpt lat="44.87216" lon="5.76974">
        <ele>474.23</ele>
        <time>2019-11-01T10:18:59Z</time>
      </trkpt>
      <trkpt lat="44.87216" lon="5.7697">
        <ele>474.24</ele>
        <time>2019-11-01T10:19:00Z</time>
      </trkpt>
      <trkpt lat="44.87216" lon="5.76967">
        <ele>473.89</ele>
        <time>2019-11-01T10:19:01Z</time>
      </trkpt>
      <trkpt lat="44.87215" lon="5.76963">
        <ele>473.44</ele>
        <time>2019-11-01T10:19:02Z</time>
      </trkpt>
      <trkpt lat="44.87214" lon="5.76959">
        <ele>472.95</ele>
        <time>2019-11-01T10:19:03Z</time>
      </trkpt>
      <trkpt lat="44.87213" lon="5.76955">
        <ele>472.38</ele>
        <time>2019-11-01T10:19:04Z</time>
      </trkpt>
      <trkpt lat="44.87213" lon="5.76951">
        <ele>472.28</ele>
        <time>2019-11-01T10:19:05Z</time>
      </trkpt>
      <trkpt lat="44.87212" lon="5.76948">
        <ele>472.25</ele>
        <time>2019-11-01T10:19:06Z</time>
      </trkpt>
      <trkpt lat="44.87211" lon="5.76945">
        <ele>472.31</ele>
        <time>2019-11-01T10:19:07Z</time>
      </trkpt>
      <trkpt lat="44.8721" lon="5.76941">
        <ele>472.19</ele>
        <time>2019-11-01T10:19:08Z</time>
      </trkpt>
      <trkpt lat="44.87209" lon="5.76938">
        <ele>471.95</ele>
        <time>2019-11-01T10:19:09Z</time>
      </trkpt>
      <trkpt lat="44.87207" lon="5.76936">
        <ele>471.59</ele>
        <time>2019-11-01T10:19:10Z</time>
      </trkpt>
      <trkpt lat="44.87206" lon="5.76933">
        <ele>471.35</ele>
        <time>2019-11-01T10:19:11Z</time>
      </trkpt>
      <trkpt lat="44.87203" lon="5.76931">
        <ele>471.06</ele>
        <time>2019-11-01T10:19:12Z</time>
      </trkpt>
      <trkpt lat="44.87202" lon="5.76929">
        <ele>470.84</ele>
        <time>2019-11-01T10:19:13Z</time>
      </trkpt>
      <trkpt lat="44.872" lon="5.76927">
        <ele>470.49</ele>
        <time>2019-11-01T10:19:14Z</time>
      </trkpt>
      <trkpt lat="44.87197" lon="5.76926">
        <ele>470.25</ele>
        <time>2019-11-01T10:19:15Z</time>
      </trkpt>
      <trkpt lat="44.87194" lon="5.76925">
        <ele>470.52</ele>
        <time>2019-11-01T10:19:16Z</time>
      </trkpt>
      <trkpt lat="44.87191" lon="5.76926">
        <ele>470.82</ele>
        <time>2019-11-01T10:19:17Z</time>
      </trkpt>
      <trkpt lat="44.87189" lon="5.76926">
        <ele>471.67</ele>
        <time>2019-11-01T10:19:18Z</time>
      </trkpt>
      <trkpt lat="44.87186" lon="5.76926">
        <ele>472.42</ele>
        <time>2019-11-01T10:19:19Z</time>
      </trkpt>
      <trkpt lat="44.87184" lon="5.76927">
        <ele>473.06</ele>
        <time>2019-11-01T10:19:20Z</time>
      </trkpt>
      <trkpt lat="44.87182" lon="5.76928">
        <ele>473.61</ele>
        <time>2019-11-01T10:19:21Z</time>
      </trkpt>
      <trkpt lat="44.8718" lon="5.76929">
        <ele>474.12</ele>
        <time>2019-11-01T10:19:22Z</time>
      </trkpt>
      <trkpt lat="44.87177" lon="5.7693">
        <ele>474.84</ele>
        <time>2019-11-01T10:19:23Z</time>
      </trkpt>
      <trkpt lat="44.87175" lon="5.76932">
        <ele>475.47</ele>
        <time>2019-11-01T10:19:24Z</time>
      </trkpt>
      <trkpt lat="44.87173" lon="5.76934">
        <ele>475.87</ele>
        <time>2019-11-01T10:19:25Z</time>
      </trkpt>
      <trkpt lat="44.87171" lon="5.76936">
        <ele>476.27</ele>
        <time>2019-11-01T10:19:26Z</time>
      </trkpt>
      <trkpt lat="44.87169" lon="5.76938">
        <ele>476.67</ele>
        <time>2019-11-01T10:19:27Z</time>
      </trkpt>
      <trkpt lat="44.87167" lon="5.7694">
        <ele>476.86</ele>
        <time>2019-11-01T10:19:28Z</time>
      </trkpt>
      <trkpt lat="44.87165" lon="5.76943">
        <ele>476.99</ele>
        <time>2019-11-01T10:19:29Z</time>
      </trkpt>
      <trkpt lat="44.87163" lon="5.76945">
        <ele>477.51</ele>
        <time>2019-11-01T10:19:30Z</time>
      </trkpt>
      <trkpt lat="44.87161" lon="5.76948">
        <ele>477.74</ele>
        <time>2019-11-01T10:19:31Z</time>
      </trkpt>
      <trkpt lat="44.87158" lon="5.7695">
        <ele>478.23</ele>
        <time>2019-11-01T10:19:32Z</time>
      </trkpt>
      <trkpt lat="44.87157" lon="5.76953">
        <ele>478.73</ele>
        <time>2019-11-01T10:19:33Z</time>
      </trkpt>
      <trkpt lat="44.87155" lon="5.76955">
        <ele>479.09</ele>
        <time>2019-11-01T10:19:34Z</time>
      </trkpt>
      <trkpt lat="44.87153" lon="5.76957">
        <ele>479.68</ele>
        <time>2019-11-01T10:19:35Z</time>
      </trkpt>
      <trkpt lat="44.87151" lon="5.76961">
        <ele>480.07</ele>
        <time>2019-11-01T10:19:36Z</time>
      </trkpt>
      <trkpt lat="44.87149" lon="5.76964">
        <ele>480.33</ele>
        <time>2019-11-01T10:19:37Z</time>
      </trkpt>
      <trkpt lat="44.87148" lon="5.76967">
        <ele>481.04</ele>
        <time>2019-11-01T10:19:38Z</time>
      </trkpt>
      <trkpt lat="44.87147" lon="5.7697">
        <ele>481.6</ele>
        <time>2019-11-01T10:19:39Z</time>
      </trkpt>
      <trkpt lat="44.87147" lon="5.76972">
        <ele>482.05</ele>
        <time>2019-11-01T10:19:40Z</time>
      </trkpt>
      <trkpt lat="44.87147" lon="5.76975">
        <ele>482.46</ele>
        <time>2019-11-01T10:19:41Z</time>
      </trkpt>
      <trkpt lat="44.87145" lon="5.76977">
        <ele>482.94</ele>
        <time>2019-11-01T10:19:42Z</time>
      </trkpt>
      <trkpt lat="44.87144" lon="5.76978">
        <ele>483.64</ele>
        <time>2019-11-01T10:19:43Z</time>
      </trkpt>
      <trkpt lat="44.87141" lon="5.76977">
        <ele>483.87</ele>
        <time>2019-11-01T10:19:45Z</time>
      </trkpt>
      <trkpt lat="44.87142" lon="5.76973">
        <ele>482.98</ele>
        <time>2019-11-01T10:19:47Z</time>
      </trkpt>
      <trkpt lat="44.87142" lon="5.7697">
        <ele>482.46</ele>
        <time>2019-11-01T10:19:48Z</time>
      </trkpt>
      <trkpt lat="44.87143" lon="5.76968">
        <ele>481.96</ele>
        <time>2019-11-01T10:19:49Z</time>
      </trkpt>
      <trkpt lat="44.87144" lon="5.76965">
        <ele>481.46</ele>
        <time>2019-11-01T10:19:50Z</time>
      </trkpt>
      <trkpt lat="44.87145" lon="5.76962">
        <ele>481.1</ele>
        <time>2019-11-01T10:19:51Z</time>
      </trkpt>
      <trkpt lat="44.87146" lon="5.7696">
        <ele>480.78</ele>
        <time>2019-11-01T10:19:52Z</time>
      </trkpt>
      <trkpt lat="44.87147" lon="5.76958">
        <ele>480.47</ele>
        <time>2019-11-01T10:19:53Z</time>
      </trkpt>
      <trkpt lat="44.87147" lon="5.76955">
        <ele>480.1</ele>
        <time>2019-11-01T10:19:54Z</time>
      </trkpt>
      <trkpt lat="44.87148" lon="5.76953">
        <ele>479.85</ele>
        <time>2019-11-01T10:19:55Z</time>
      </trkpt>
      <trkpt lat="44.87149" lon="5.7695">
        <ele>479.63</ele>
        <time>2019-11-01T10:19:56Z</time>
      </trkpt>
      <trkpt lat="44.8715" lon="5.76948">
        <ele>479.78</ele>
        <time>2019-11-01T10:19:57Z</time>
      </trkpt>
      <trkpt lat="44.8715" lon="5.76945">
        <ele>480.1</ele>
        <time>2019-11-01T10:19:58Z</time>
      </trkpt>
      <trkpt lat="44.8715" lon="5.76942">
        <ele>480.62</ele>
        <time>2019-11-01T10:19:59Z</time>
      </trkpt>
      <trkpt lat="44.8715" lon="5.76939">
        <ele>481.05</ele>
        <time>2019-11-01T10:20:00Z</time>
      </trkpt>
      <trkpt lat="44.87149" lon="5.76936">
        <ele>481.54</ele>
        <time>2019-11-01T10:20:01Z</time>
      </trkpt>
      <trkpt lat="44.8715" lon="5.76933">
        <ele>482.24</ele>
        <time>2019-11-01T10:20:02Z</time>
      </trkpt>
      <trkpt lat="44.8715" lon="5.7693">
        <ele>482.87</ele>
        <time>2019-11-01T10:20:03Z</time>
      </trkpt>
      <trkpt lat="44.8715" lon="5.76927">
        <ele>482.99</ele>
        <time>2019-11-01T10:20:04Z</time>
      </trkpt>
      <trkpt lat="44.87151" lon="5.76923">
        <ele>482.96</ele>
        <time>2019-11-01T10:20:05Z</time>
      </trkpt>
      <trkpt lat="44.87151" lon="5.7692">
        <ele>483.3</ele>
        <time>2019-11-01T10:20:06Z</time>
      </trkpt>
      <trkpt lat="44.87151" lon="5.76916">
        <ele>484.03</ele>
        <time>2019-11-01T10:20:07Z</time>
      </trkpt>
      <trkpt lat="44.8715" lon="5.76913">
        <ele>484.6</ele>
        <time>2019-11-01T10:20:08Z</time>
      </trkpt>
      <trkpt lat="44.8715" lon="5.7691">
        <ele>485.05</ele>
        <time>2019-11-01T10:20:09Z</time>
      </trkpt>
      <trkpt lat="44.8715" lon="5.76907">
        <ele>485.39</ele>
        <time>2019-11-01T10:20:10Z</time>
      </trkpt>
      <trkpt lat="44.87149" lon="5.76904">
        <ele>485.57</ele>
        <time>2019-11-01T10:20:11Z</time>
      </trkpt>
      <trkpt lat="44.87148" lon="5.76902">
        <ele>485.83</ele>
        <time>2019-11-01T10:20:12Z</time>
      </trkpt>
      <trkpt lat="44.87147" lon="5.76899">
        <ele>485.84</ele>
        <time>2019-11-01T10:20:13Z</time>
      </trkpt>
      <trkpt lat="44.87146" lon="5.76897">
        <ele>485.56</ele>
        <time>2019-11-01T10:20:14Z</time>
      </trkpt>
      <trkpt lat="44.87145" lon="5.76894">
        <ele>484.99</ele>
        <time>2019-11-01T10:20:15Z</time>
      </trkpt>
      <trkpt lat="44.87142" lon="5.76892">
        <ele>484</ele>
        <time>2019-11-01T10:20:17Z</time>
      </trkpt>
      <trkpt lat="44.8714" lon="5.7689">
        <ele>483.68</ele>
        <time>2019-11-01T10:20:18Z</time>
      </trkpt>
      <trkpt lat="44.87139" lon="5.76889">
        <ele>483.51</ele>
        <time>2019-11-01T10:20:19Z</time>
      </trkpt>
      <trkpt lat="44.87136" lon="5.76886">
        <ele>482.73</ele>
        <time>2019-11-01T10:20:21Z</time>
      </trkpt>
      <trkpt lat="44.87134" lon="5.76885">
        <ele>482.88</ele>
        <time>2019-11-01T10:20:42Z</time>
      </trkpt>
      <trkpt lat="44.87131" lon="5.76882">
        <ele>483.26</ele>
        <time>2019-11-01T10:20:44Z</time>
      </trkpt>
      <trkpt lat="44.87127" lon="5.7688">
        <ele>483.73</ele>
        <time>2019-11-01T10:20:46Z</time>
      </trkpt>
      <trkpt lat="44.87125" lon="5.76879">
        <ele>484.02</ele>
        <time>2019-11-01T10:20:47Z</time>
      </trkpt>
      <trkpt lat="44.87124" lon="5.76878">
        <ele>484.31</ele>
        <time>2019-11-01T10:20:48Z</time>
      </trkpt>
      <trkpt lat="44.87122" lon="5.76877">
        <ele>484.61</ele>
        <time>2019-11-01T10:20:49Z</time>
      </trkpt>
      <trkpt lat="44.8712" lon="5.76876">
        <ele>484.84</ele>
        <time>2019-11-01T10:20:50Z</time>
      </trkpt>
      <trkpt lat="44.87117" lon="5.76873">
        <ele>485.35</ele>
        <time>2019-11-01T10:20:52Z</time>
      </trkpt>
      <trkpt lat="44.87113" lon="5.76872">
        <ele>485.57</ele>
        <time>2019-11-01T10:20:54Z</time>
      </trkpt>
      <trkpt lat="44.87111" lon="5.76872">
        <ele>485.62</ele>
        <time>2019-11-01T10:20:55Z</time>
      </trkpt>
      <trkpt lat="44.87109" lon="5.76872">
        <ele>485.84</ele>
        <time>2019-11-01T10:20:56Z</time>
      </trkpt>
      <trkpt lat="44.87106" lon="5.76872">
        <ele>486.63</ele>
        <time>2019-11-01T10:20:58Z</time>
      </trkpt>
      <trkpt lat="44.87104" lon="5.76873">
        <ele>487.41</ele>
        <time>2019-11-01T10:20:59Z</time>
      </trkpt>
      <trkpt lat="44.87102" lon="5.76874">
        <ele>488.2</ele>
        <time>2019-11-01T10:21:00Z</time>
      </trkpt>
      <trkpt lat="44.871" lon="5.76875">
        <ele>488.72</ele>
        <time>2019-11-01T10:21:01Z</time>
      </trkpt>
      <trkpt lat="44.87099" lon="5.76876">
        <ele>489.57</ele>
        <time>2019-11-01T10:21:02Z</time>
      </trkpt>
      <trkpt lat="44.87097" lon="5.76878">
        <ele>490.25</ele>
        <time>2019-11-01T10:21:03Z</time>
      </trkpt>
      <trkpt lat="44.87095" lon="5.76879">
        <ele>490.59</ele>
        <time>2019-11-01T10:21:04Z</time>
      </trkpt>
      <trkpt lat="44.87092" lon="5.7688">
        <ele>491.05</ele>
        <time>2019-11-01T10:21:05Z</time>
      </trkpt>
      <trkpt lat="44.8709" lon="5.7688">
        <ele>491.46</ele>
        <time>2019-11-01T10:21:06Z</time>
      </trkpt>
      <trkpt lat="44.87087" lon="5.7688">
        <ele>491.66</ele>
        <time>2019-11-01T10:21:07Z</time>
      </trkpt>
      <trkpt lat="44.87085" lon="5.7688">
        <ele>491.79</ele>
        <time>2019-11-01T10:21:08Z</time>
      </trkpt>
      <trkpt lat="44.87083" lon="5.76877">
        <ele>492.23</ele>
        <time>2019-11-01T10:21:10Z</time>
      </trkpt>
      <trkpt lat="44.8708" lon="5.76874">
        <ele>492.4</ele>
        <time>2019-11-01T10:21:12Z</time>
      </trkpt>
      <trkpt lat="44.87077" lon="5.76872">
        <ele>491.79</ele>
        <time>2019-11-01T10:21:14Z</time>
      </trkpt>
      <trkpt lat="44.87074" lon="5.76869">
        <ele>491.49</ele>
        <time>2019-11-01T10:21:16Z</time>
      </trkpt>
      <trkpt lat="44.87071" lon="5.76867">
        <ele>490.96</ele>
        <time>2019-11-01T10:21:18Z</time>
      </trkpt>
      <trkpt lat="44.87069" lon="5.76866">
        <ele>490.95</ele>
        <time>2019-11-01T10:21:19Z</time>
      </trkpt>
      <trkpt lat="44.87066" lon="5.76863">
        <ele>491.12</ele>
        <time>2019-11-01T10:21:21Z</time>
      </trkpt>
      <trkpt lat="44.87064" lon="5.76862">
        <ele>491.12</ele>
        <time>2019-11-01T10:21:23Z</time>
      </trkpt>
      <trkpt lat="44.87062" lon="5.76861">
        <ele>491.32</ele>
        <time>2019-11-01T10:21:25Z</time>
      </trkpt>
      <trkpt lat="44.87059" lon="5.76862">
        <ele>491.55</ele>
        <time>2019-11-01T10:21:27Z</time>
      </trkpt>
      <trkpt lat="44.87057" lon="5.76865">
        <ele>491.68</ele>
        <time>2019-11-01T10:21:29Z</time>
      </trkpt>
      <trkpt lat="44.87055" lon="5.76866">
        <ele>491.93</ele>
        <time>2019-11-01T10:21:30Z</time>
      </trkpt>
      <trkpt lat="44.87052" lon="5.76869">
        <ele>492.33</ele>
        <time>2019-11-01T10:21:32Z</time>
      </trkpt>
      <trkpt lat="44.8705" lon="5.76871">
        <ele>492.48</ele>
        <time>2019-11-01T10:21:33Z</time>
      </trkpt>
      <trkpt lat="44.87048" lon="5.76873">
        <ele>492.21</ele>
        <time>2019-11-01T10:21:35Z</time>
      </trkpt>
      <trkpt lat="44.87044" lon="5.76873">
        <ele>491.9</ele>
        <time>2019-11-01T10:21:37Z</time>
      </trkpt>
      <trkpt lat="44.87041" lon="5.76871">
        <ele>492.08</ele>
        <time>2019-11-01T10:21:39Z</time>
      </trkpt>
      <trkpt lat="44.87039" lon="5.7687">
        <ele>492.19</ele>
        <time>2019-11-01T10:21:40Z</time>
      </trkpt>
      <trkpt lat="44.87036" lon="5.76869">
        <ele>492.56</ele>
        <time>2019-11-01T10:21:42Z</time>
      </trkpt>
      <trkpt lat="44.87034" lon="5.76868">
        <ele>492.55</ele>
        <time>2019-11-01T10:21:43Z</time>
      </trkpt>
      <trkpt lat="44.87032" lon="5.76868">
        <ele>492.68</ele>
        <time>2019-11-01T10:21:44Z</time>
      </trkpt>
      <trkpt lat="44.8703" lon="5.76868">
        <ele>492.65</ele>
        <time>2019-11-01T10:21:45Z</time>
      </trkpt>
      <trkpt lat="44.87026" lon="5.76866">
        <ele>492.23</ele>
        <time>2019-11-01T10:21:47Z</time>
      </trkpt>
      <trkpt lat="44.87025" lon="5.76865">
        <ele>492.03</ele>
        <time>2019-11-01T10:21:48Z</time>
      </trkpt>
      <trkpt lat="44.87022" lon="5.76864">
        <ele>491.88</ele>
        <time>2019-11-01T10:21:50Z</time>
      </trkpt>
      <trkpt lat="44.87018" lon="5.76863">
        <ele>491.68</ele>
        <time>2019-11-01T10:21:52Z</time>
      </trkpt>
      <trkpt lat="44.87015" lon="5.76862">
        <ele>491.55</ele>
        <time>2019-11-01T10:21:54Z</time>
      </trkpt>
      <trkpt lat="44.87013" lon="5.76862">
        <ele>491.54</ele>
        <time>2019-11-01T10:21:55Z</time>
      </trkpt>
      <trkpt lat="44.8701" lon="5.7686">
        <ele>491.2</ele>
        <time>2019-11-01T10:21:57Z</time>
      </trkpt>
      <trkpt lat="44.87009" lon="5.76859">
        <ele>491.16</ele>
        <time>2019-11-01T10:21:58Z</time>
      </trkpt>
      <trkpt lat="44.87005" lon="5.76858">
        <ele>491.05</ele>
        <time>2019-11-01T10:22:00Z</time>
      </trkpt>
      <trkpt lat="44.87002" lon="5.76857">
        <ele>491.57</ele>
        <time>2019-11-01T10:22:02Z</time>
      </trkpt>
      <trkpt lat="44.87" lon="5.76856">
        <ele>491.76</ele>
        <time>2019-11-01T10:22:03Z</time>
      </trkpt>
      <trkpt lat="44.86998" lon="5.76856">
        <ele>492.25</ele>
        <time>2019-11-01T10:22:05Z</time>
      </trkpt>
      <trkpt lat="44.86992" lon="5.76853">
        <ele>491.71</ele>
        <time>2019-11-01T10:22:19Z</time>
      </trkpt>
      <trkpt lat="44.86989" lon="5.76853">
        <ele>491.37</ele>
        <time>2019-11-01T10:22:21Z</time>
      </trkpt>
      <trkpt lat="44.86987" lon="5.76851">
        <ele>491.08</ele>
        <time>2019-11-01T10:22:24Z</time>
      </trkpt>
      <trkpt lat="44.86981" lon="5.76839">
        <ele>490.45</ele>
        <time>2019-11-01T10:22:35Z</time>
      </trkpt>
      <trkpt lat="44.86981" lon="5.76836">
        <ele>490.3</ele>
        <time>2019-11-01T10:22:36Z</time>
      </trkpt>
      <trkpt lat="44.86981" lon="5.76832">
        <ele>490.18</ele>
        <time>2019-11-01T10:22:38Z</time>
      </trkpt>
      <trkpt lat="44.8698" lon="5.76829">
        <ele>490.21</ele>
        <time>2019-11-01T10:22:40Z</time>
      </trkpt>
      <trkpt lat="44.86979" lon="5.76826">
        <ele>490.15</ele>
        <time>2019-11-01T10:22:42Z</time>
      </trkpt>
      <trkpt lat="44.86979" lon="5.76824">
        <ele>490.3</ele>
        <time>2019-11-01T10:22:44Z</time>
      </trkpt>
      <trkpt lat="44.86978" lon="5.7682">
        <ele>490.25</ele>
        <time>2019-11-01T10:22:46Z</time>
      </trkpt>
      <trkpt lat="44.86978" lon="5.76817">
        <ele>490.24</ele>
        <time>2019-11-01T10:22:49Z</time>
      </trkpt>
      <trkpt lat="44.86979" lon="5.76801">
        <ele>490.24</ele>
        <time>2019-11-01T10:22:59Z</time>
      </trkpt>
      <trkpt lat="44.8698" lon="5.76796">
        <ele>490.63</ele>
        <time>2019-11-01T10:23:01Z</time>
      </trkpt>
      <trkpt lat="44.8698" lon="5.76794">
        <ele>491.12</ele>
        <time>2019-11-01T10:23:03Z</time>
      </trkpt>
      <trkpt lat="44.8698" lon="5.76789">
        <ele>491.71</ele>
        <time>2019-11-01T10:23:05Z</time>
      </trkpt>
      <trkpt lat="44.8698" lon="5.76785">
        <ele>491.99</ele>
        <time>2019-11-01T10:23:07Z</time>
      </trkpt>
      <trkpt lat="44.86981" lon="5.76782">
        <ele>492.2</ele>
        <time>2019-11-01T10:23:09Z</time>
      </trkpt>
      <trkpt lat="44.8698" lon="5.76779">
        <ele>492.63</ele>
        <time>2019-11-01T10:23:11Z</time>
      </trkpt>
      <trkpt lat="44.8698" lon="5.76776">
        <ele>493.05</ele>
        <time>2019-11-01T10:23:13Z</time>
      </trkpt>
      <trkpt lat="44.86981" lon="5.76771">
        <ele>493.8</ele>
        <time>2019-11-01T10:23:23Z</time>
      </trkpt>
      <trkpt lat="44.86981" lon="5.76767">
        <ele>494.41</ele>
        <time>2019-11-01T10:23:25Z</time>
      </trkpt>
      <trkpt lat="44.86981" lon="5.76763">
        <ele>495.24</ele>
        <time>2019-11-01T10:23:27Z</time>
      </trkpt>
      <trkpt lat="44.86981" lon="5.7676">
        <ele>496.07</ele>
        <time>2019-11-01T10:23:29Z</time>
      </trkpt>
      <trkpt lat="44.8698" lon="5.76755">
        <ele>496.87</ele>
        <time>2019-11-01T10:23:31Z</time>
      </trkpt>
      <trkpt lat="44.86981" lon="5.76751">
        <ele>497.6</ele>
        <time>2019-11-01T10:23:33Z</time>
      </trkpt>
      <trkpt lat="44.86981" lon="5.76748">
        <ele>498.3</ele>
        <time>2019-11-01T10:23:35Z</time>
      </trkpt>
      <trkpt lat="44.86981" lon="5.76744">
        <ele>499.07</ele>
        <time>2019-11-01T10:23:37Z</time>
      </trkpt>
      <trkpt lat="44.86981" lon="5.76739">
        <ele>499.87</ele>
        <time>2019-11-01T10:23:39Z</time>
      </trkpt>
      <trkpt lat="44.86981" lon="5.76735">
        <ele>500.6</ele>
        <time>2019-11-01T10:23:41Z</time>
      </trkpt>
      <trkpt lat="44.86981" lon="5.76732">
        <ele>501.28</ele>
        <time>2019-11-01T10:23:43Z</time>
      </trkpt>
      <trkpt lat="44.8698" lon="5.7673">
        <ele>501.96</ele>
        <time>2019-11-01T10:23:46Z</time>
      </trkpt>
      <trkpt lat="44.86977" lon="5.76726">
        <ele>502.67</ele>
        <time>2019-11-01T10:23:51Z</time>
      </trkpt>
      <trkpt lat="44.86974" lon="5.76724">
        <ele>503.22</ele>
        <time>2019-11-01T10:23:53Z</time>
      </trkpt>
      <trkpt lat="44.86973" lon="5.76722">
        <ele>503.81</ele>
        <time>2019-11-01T10:23:55Z</time>
      </trkpt>
      <trkpt lat="44.86971" lon="5.76721">
        <ele>504.5</ele>
        <time>2019-11-01T10:23:57Z</time>
      </trkpt>
      <trkpt lat="44.86968" lon="5.76718">
        <ele>505.27</ele>
        <time>2019-11-01T10:23:59Z</time>
      </trkpt>
      <trkpt lat="44.86967" lon="5.76715">
        <ele>506.25</ele>
        <time>2019-11-01T10:24:01Z</time>
      </trkpt>
      <trkpt lat="44.86965" lon="5.76712">
        <ele>507.16</ele>
        <time>2019-11-01T10:24:03Z</time>
      </trkpt>
      <trkpt lat="44.86964" lon="5.76709">
        <ele>507.81</ele>
        <time>2019-11-01T10:24:05Z</time>
      </trkpt>
      <trkpt lat="44.86963" lon="5.76705">
        <ele>508.18</ele>
        <time>2019-11-01T10:24:07Z</time>
      </trkpt>
      <trkpt lat="44.86961" lon="5.76702">
        <ele>508.56</ele>
        <time>2019-11-01T10:24:09Z</time>
      </trkpt>
      <trkpt lat="44.86959" lon="5.76699">
        <ele>508.96</ele>
        <time>2019-11-01T10:24:11Z</time>
      </trkpt>
      <trkpt lat="44.86959" lon="5.76696">
        <ele>509.02</ele>
        <time>2019-11-01T10:24:12Z</time>
      </trkpt>
      <trkpt lat="44.86958" lon="5.76692">
        <ele>509.63</ele>
        <time>2019-11-01T10:24:14Z</time>
      </trkpt>
      <trkpt lat="44.86958" lon="5.76688">
        <ele>510.12</ele>
        <time>2019-11-01T10:24:16Z</time>
      </trkpt>
      <trkpt lat="44.86958" lon="5.76684">
        <ele>510.73</ele>
        <time>2019-11-01T10:24:18Z</time>
      </trkpt>
      <trkpt lat="44.86957" lon="5.76681">
        <ele>511.24</ele>
        <time>2019-11-01T10:24:20Z</time>
      </trkpt>
      <trkpt lat="44.86957" lon="5.76679">
        <ele>511.66</ele>
        <time>2019-11-01T10:24:21Z</time>
      </trkpt>
      <trkpt lat="44.86957" lon="5.76674">
        <ele>512.47</ele>
        <time>2019-11-01T10:24:23Z</time>
      </trkpt>
      <trkpt lat="44.86957" lon="5.7667">
        <ele>513.47</ele>
        <time>2019-11-01T10:24:25Z</time>
      </trkpt>
      <trkpt lat="44.86957" lon="5.76666">
        <ele>514.2</ele>
        <time>2019-11-01T10:24:27Z</time>
      </trkpt>
      <trkpt lat="44.86957" lon="5.76662">
        <ele>514.65</ele>
        <time>2019-11-01T10:24:29Z</time>
      </trkpt>
      <trkpt lat="44.86957" lon="5.76659">
        <ele>515.54</ele>
        <time>2019-11-01T10:24:31Z</time>
      </trkpt>
      <trkpt lat="44.86957" lon="5.76655">
        <ele>516.53</ele>
        <time>2019-11-01T10:24:33Z</time>
      </trkpt>
      <trkpt lat="44.86957" lon="5.76652">
        <ele>517.32</ele>
        <time>2019-11-01T10:24:35Z</time>
      </trkpt>
      <trkpt lat="44.86956" lon="5.76649">
        <ele>517.89</ele>
        <time>2019-11-01T10:24:37Z</time>
      </trkpt>
      <trkpt lat="44.86954" lon="5.76647">
        <ele>518.51</ele>
        <time>2019-11-01T10:24:39Z</time>
      </trkpt>
      <trkpt lat="44.86953" lon="5.76644">
        <ele>519.25</ele>
        <time>2019-11-01T10:24:41Z</time>
      </trkpt>
      <trkpt lat="44.8695" lon="5.76641">
        <ele>520.07</ele>
        <time>2019-11-01T10:24:43Z</time>
      </trkpt>
      <trkpt lat="44.86949" lon="5.76639">
        <ele>520.8</ele>
        <time>2019-11-01T10:24:45Z</time>
      </trkpt>
      <trkpt lat="44.86946" lon="5.76636">
        <ele>521.2</ele>
        <time>2019-11-01T10:24:47Z</time>
      </trkpt>
      <trkpt lat="44.86945" lon="5.76632">
        <ele>521.51</ele>
        <time>2019-11-01T10:24:49Z</time>
      </trkpt>
      <trkpt lat="44.86945" lon="5.76628">
        <ele>521.84</ele>
        <time>2019-11-01T10:24:51Z</time>
      </trkpt>
      <trkpt lat="44.86945" lon="5.76624">
        <ele>522.14</ele>
        <time>2019-11-01T10:24:53Z</time>
      </trkpt>
      <trkpt lat="44.86947" lon="5.76622">
        <ele>522.67</ele>
        <time>2019-11-01T10:24:55Z</time>
      </trkpt>
      <trkpt lat="44.8695" lon="5.76616">
        <ele>523.56</ele>
        <time>2019-11-01T10:24:59Z</time>
      </trkpt>
      <trkpt lat="44.86952" lon="5.76613">
        <ele>524.39</ele>
        <time>2019-11-01T10:25:01Z</time>
      </trkpt>
      <trkpt lat="44.86955" lon="5.76609">
        <ele>525.33</ele>
        <time>2019-11-01T10:25:03Z</time>
      </trkpt>
      <trkpt lat="44.86956" lon="5.76606">
        <ele>526.12</ele>
        <time>2019-11-01T10:25:05Z</time>
      </trkpt>
      <trkpt lat="44.86963" lon="5.76605">
        <ele>527.73</ele>
        <time>2019-11-01T10:26:42Z</time>
      </trkpt>
      <trkpt lat="44.86964" lon="5.76603">
        <ele>528.16</ele>
        <time>2019-11-01T10:26:43Z</time>
      </trkpt>
      <trkpt lat="44.86966" lon="5.76601">
        <ele>528.29</ele>
        <time>2019-11-01T10:26:44Z</time>
      </trkpt>
      <trkpt lat="44.86968" lon="5.76598">
        <ele>528.39</ele>
        <time>2019-11-01T10:26:45Z</time>
      </trkpt>
      <trkpt lat="44.8697" lon="5.76595">
        <ele>528.43</ele>
        <time>2019-11-01T10:26:46Z</time>
      </trkpt>
      <trkpt lat="44.86972" lon="5.76591">
        <ele>528.58</ele>
        <time>2019-11-01T10:26:47Z</time>
      </trkpt>
      <trkpt lat="44.86975" lon="5.76586">
        <ele>528.69</ele>
        <time>2019-11-01T10:26:48Z</time>
      </trkpt>
      <trkpt lat="44.86978" lon="5.76581">
        <ele>528.8</ele>
        <time>2019-11-01T10:26:49Z</time>
      </trkpt>
      <trkpt lat="44.86981" lon="5.76574">
        <ele>528.76</ele>
        <time>2019-11-01T10:26:50Z</time>
      </trkpt>
      <trkpt lat="44.86985" lon="5.76567">
        <ele>528.26</ele>
        <time>2019-11-01T10:26:51Z</time>
      </trkpt>
      <trkpt lat="44.86988" lon="5.76559">
        <ele>527.9</ele>
        <time>2019-11-01T10:26:52Z</time>
      </trkpt>
      <trkpt lat="44.86991" lon="5.76551">
        <ele>527.3</ele>
        <time>2019-11-01T10:26:53Z</time>
      </trkpt>
      <trkpt lat="44.86994" lon="5.76541">
        <ele>526.91</ele>
        <time>2019-11-01T10:26:54Z</time>
      </trkpt>
      <trkpt lat="44.86998" lon="5.76531">
        <ele>526.3</ele>
        <time>2019-11-01T10:26:55Z</time>
      </trkpt>
      <trkpt lat="44.87001" lon="5.76522">
        <ele>525.77</ele>
        <time>2019-11-01T10:26:56Z</time>
      </trkpt>
      <trkpt lat="44.87004" lon="5.76514">
        <ele>525.47</ele>
        <time>2019-11-01T10:26:57Z</time>
      </trkpt>
      <trkpt lat="44.87007" lon="5.76506">
        <ele>525.38</ele>
        <time>2019-11-01T10:26:58Z</time>
      </trkpt>
      <trkpt lat="44.87011" lon="5.76499">
        <ele>525.21</ele>
        <time>2019-11-01T10:26:59Z</time>
      </trkpt>
      <trkpt lat="44.87014" lon="5.76492">
        <ele>525.02</ele>
        <time>2019-11-01T10:27:00Z</time>
      </trkpt>
      <trkpt lat="44.87016" lon="5.76485">
        <ele>524.83</ele>
        <time>2019-11-01T10:27:01Z</time>
      </trkpt>
      <trkpt lat="44.87019" lon="5.76479">
        <ele>524.63</ele>
        <time>2019-11-01T10:27:02Z</time>
      </trkpt>
      <trkpt lat="44.8702" lon="5.76472">
        <ele>524.36</ele>
        <time>2019-11-01T10:27:03Z</time>
      </trkpt>
      <trkpt lat="44.87023" lon="5.76466">
        <ele>524.21</ele>
        <time>2019-11-01T10:27:04Z</time>
      </trkpt>
      <trkpt lat="44.87025" lon="5.7646">
        <ele>524.09</ele>
        <time>2019-11-01T10:27:05Z</time>
      </trkpt>
      <trkpt lat="44.87027" lon="5.76453">
        <ele>523.99</ele>
        <time>2019-11-01T10:27:06Z</time>
      </trkpt>
      <trkpt lat="44.87029" lon="5.76447">
        <ele>523.32</ele>
        <time>2019-11-01T10:27:07Z</time>
      </trkpt>
      <trkpt lat="44.87031" lon="5.76441">
        <ele>523.13</ele>
        <time>2019-11-01T10:27:08Z</time>
      </trkpt>
      <trkpt lat="44.87033" lon="5.76435">
        <ele>522.86</ele>
        <time>2019-11-01T10:27:09Z</time>
      </trkpt>
      <trkpt lat="44.87034" lon="5.76429">
        <ele>522.57</ele>
        <time>2019-11-01T10:27:10Z</time>
      </trkpt>
      <trkpt lat="44.87036" lon="5.76424">
        <ele>522.48</ele>
        <time>2019-11-01T10:27:11Z</time>
      </trkpt>
      <trkpt lat="44.87037" lon="5.76418">
        <ele>521.82</ele>
        <time>2019-11-01T10:27:12Z</time>
      </trkpt>
      <trkpt lat="44.87038" lon="5.76413">
        <ele>521.42</ele>
        <time>2019-11-01T10:27:13Z</time>
      </trkpt>
      <trkpt lat="44.87037" lon="5.76407">
        <ele>521.64</ele>
        <time>2019-11-01T10:27:14Z</time>
      </trkpt>
      <trkpt lat="44.87036" lon="5.76403">
        <ele>522.06</ele>
        <time>2019-11-01T10:27:15Z</time>
      </trkpt>
      <trkpt lat="44.87036" lon="5.76399">
        <ele>522.4</ele>
        <time>2019-11-01T10:27:16Z</time>
      </trkpt>
      <trkpt lat="44.87035" lon="5.76396">
        <ele>522.64</ele>
        <time>2019-11-01T10:27:17Z</time>
      </trkpt>
      <trkpt lat="44.87034" lon="5.76393">
        <ele>522.85</ele>
        <time>2019-11-01T10:27:18Z</time>
      </trkpt>
      <trkpt lat="44.87034" lon="5.7639">
        <ele>522.98</ele>
        <time>2019-11-01T10:27:19Z</time>
      </trkpt>
      <trkpt lat="44.87033" lon="5.76387">
        <ele>523.02</ele>
        <time>2019-11-01T10:27:20Z</time>
      </trkpt>
      <trkpt lat="44.87033" lon="5.76384">
        <ele>523.11</ele>
        <time>2019-11-01T10:27:21Z</time>
      </trkpt>
      <trkpt lat="44.87033" lon="5.76382">
        <ele>523.34</ele>
        <time>2019-11-01T10:27:22Z</time>
      </trkpt>
      <trkpt lat="44.87032" lon="5.76377">
        <ele>523.24</ele>
        <time>2019-11-01T10:27:24Z</time>
      </trkpt>
      <trkpt lat="44.87032" lon="5.76375">
        <ele>522.82</ele>
        <time>2019-11-01T10:27:25Z</time>
      </trkpt>
      <trkpt lat="44.8703" lon="5.76373">
        <ele>522.41</ele>
        <time>2019-11-01T10:27:26Z</time>
      </trkpt>
      <trkpt lat="44.87029" lon="5.7637">
        <ele>522.15</ele>
        <time>2019-11-01T10:27:27Z</time>
      </trkpt>
      <trkpt lat="44.87029" lon="5.76367">
        <ele>522.21</ele>
        <time>2019-11-01T10:27:28Z</time>
      </trkpt>
      <trkpt lat="44.87029" lon="5.76364">
        <ele>522.44</ele>
        <time>2019-11-01T10:27:29Z</time>
      </trkpt>
      <trkpt lat="44.87028" lon="5.7636">
        <ele>522.65</ele>
        <time>2019-11-01T10:27:30Z</time>
      </trkpt>
      <trkpt lat="44.87028" lon="5.76357">
        <ele>522.36</ele>
        <time>2019-11-01T10:27:31Z</time>
      </trkpt>
      <trkpt lat="44.87028" lon="5.76353">
        <ele>522.35</ele>
        <time>2019-11-01T10:27:32Z</time>
      </trkpt>
      <trkpt lat="44.87027" lon="5.7635">
        <ele>522.2</ele>
        <time>2019-11-01T10:27:33Z</time>
      </trkpt>
      <trkpt lat="44.87026" lon="5.76346">
        <ele>521.95</ele>
        <time>2019-11-01T10:27:34Z</time>
      </trkpt>
      <trkpt lat="44.87025" lon="5.76341">
        <ele>521.24</ele>
        <time>2019-11-01T10:27:35Z</time>
      </trkpt>
      <trkpt lat="44.87024" lon="5.76336">
        <ele>520.68</ele>
        <time>2019-11-01T10:27:36Z</time>
      </trkpt>
      <trkpt lat="44.87023" lon="5.76332">
        <ele>520.23</ele>
        <time>2019-11-01T10:27:37Z</time>
      </trkpt>
      <trkpt lat="44.87022" lon="5.76328">
        <ele>519.82</ele>
        <time>2019-11-01T10:27:38Z</time>
      </trkpt>
      <trkpt lat="44.87021" lon="5.76324">
        <ele>519.55</ele>
        <time>2019-11-01T10:27:39Z</time>
      </trkpt>
      <trkpt lat="44.8702" lon="5.7632">
        <ele>519.4</ele>
        <time>2019-11-01T10:27:40Z</time>
      </trkpt>
      <trkpt lat="44.87018" lon="5.76317">
        <ele>519.5</ele>
        <time>2019-11-01T10:27:41Z</time>
      </trkpt>
      <trkpt lat="44.87017" lon="5.76313">
        <ele>520.02</ele>
        <time>2019-11-01T10:27:42Z</time>
      </trkpt>
      <trkpt lat="44.87015" lon="5.76311">
        <ele>520.59</ele>
        <time>2019-11-01T10:27:43Z</time>
      </trkpt>
      <trkpt lat="44.87013" lon="5.76309">
        <ele>520.84</ele>
        <time>2019-11-01T10:27:44Z</time>
      </trkpt>
      <trkpt lat="44.8701" lon="5.76306">
        <ele>520.63</ele>
        <time>2019-11-01T10:27:45Z</time>
      </trkpt>
      <trkpt lat="44.87007" lon="5.76304">
        <ele>520.92</ele>
        <time>2019-11-01T10:27:46Z</time>
      </trkpt>
      <trkpt lat="44.87005" lon="5.76302">
        <ele>520.93</ele>
        <time>2019-11-01T10:27:47Z</time>
      </trkpt>
      <trkpt lat="44.87003" lon="5.76301">
        <ele>521.01</ele>
        <time>2019-11-01T10:27:48Z</time>
      </trkpt>
      <trkpt lat="44.87001" lon="5.76299">
        <ele>521.31</ele>
        <time>2019-11-01T10:27:49Z</time>
      </trkpt>
      <trkpt lat="44.86999" lon="5.76297">
        <ele>523.25</ele>
        <time>2019-11-01T10:27:51Z</time>
      </trkpt>
      <trkpt lat="44.86996" lon="5.76295">
        <ele>523.48</ele>
        <time>2019-11-01T10:28:27Z</time>
      </trkpt>
      <trkpt lat="44.86994" lon="5.76295">
        <ele>523.52</ele>
        <time>2019-11-01T10:28:28Z</time>
      </trkpt>
      <trkpt lat="44.86992" lon="5.76294">
        <ele>523.54</ele>
        <time>2019-11-01T10:28:29Z</time>
      </trkpt>
      <trkpt lat="44.8699" lon="5.76292">
        <ele>523.61</ele>
        <time>2019-11-01T10:28:30Z</time>
      </trkpt>
      <trkpt lat="44.86987" lon="5.76291">
        <ele>523.71</ele>
        <time>2019-11-01T10:28:32Z</time>
      </trkpt>
      <trkpt lat="44.86977" lon="5.7629">
        <ele>524.6</ele>
        <time>2019-11-01T10:29:34Z</time>
      </trkpt>
      <trkpt lat="44.86975" lon="5.7629">
        <ele>524.84</ele>
        <time>2019-11-01T10:29:35Z</time>
      </trkpt>
      <trkpt lat="44.86972" lon="5.7629">
        <ele>524.98</ele>
        <time>2019-11-01T10:29:36Z</time>
      </trkpt>
      <trkpt lat="44.86968" lon="5.76289">
        <ele>525.09</ele>
        <time>2019-11-01T10:29:37Z</time>
      </trkpt>
      <trkpt lat="44.86964" lon="5.76289">
        <ele>525.06</ele>
        <time>2019-11-01T10:29:38Z</time>
      </trkpt>
      <trkpt lat="44.8696" lon="5.76289">
        <ele>524.91</ele>
        <time>2019-11-01T10:29:39Z</time>
      </trkpt>
      <trkpt lat="44.86956" lon="5.76288">
        <ele>524.72</ele>
        <time>2019-11-01T10:29:40Z</time>
      </trkpt>
      <trkpt lat="44.86952" lon="5.76288">
        <ele>524.38</ele>
        <time>2019-11-01T10:29:41Z</time>
      </trkpt>
      <trkpt lat="44.86947" lon="5.76289">
        <ele>523.86</ele>
        <time>2019-11-01T10:29:42Z</time>
      </trkpt>
      <trkpt lat="44.86942" lon="5.76289">
        <ele>523.15</ele>
        <time>2019-11-01T10:29:43Z</time>
      </trkpt>
      <trkpt lat="44.86937" lon="5.7629">
        <ele>522.72</ele>
        <time>2019-11-01T10:29:44Z</time>
      </trkpt>
      <trkpt lat="44.86932" lon="5.7629">
        <ele>522.18</ele>
        <time>2019-11-01T10:29:45Z</time>
      </trkpt>
      <trkpt lat="44.86927" lon="5.7629">
        <ele>521.73</ele>
        <time>2019-11-01T10:29:46Z</time>
      </trkpt>
      <trkpt lat="44.86922" lon="5.76288">
        <ele>521.18</ele>
        <time>2019-11-01T10:29:47Z</time>
      </trkpt>
      <trkpt lat="44.86918" lon="5.76285">
        <ele>520.73</ele>
        <time>2019-11-01T10:29:48Z</time>
      </trkpt>
      <trkpt lat="44.86915" lon="5.76282">
        <ele>520.18</ele>
        <time>2019-11-01T10:29:49Z</time>
      </trkpt>
      <trkpt lat="44.86914" lon="5.76278">
        <ele>519.45</ele>
        <time>2019-11-01T10:29:50Z</time>
      </trkpt>
      <trkpt lat="44.86914" lon="5.76273">
        <ele>518.67</ele>
        <time>2019-11-01T10:29:51Z</time>
      </trkpt>
      <trkpt lat="44.86914" lon="5.76268">
        <ele>518.09</ele>
        <time>2019-11-01T10:29:52Z</time>
      </trkpt>
      <trkpt lat="44.86914" lon="5.76261">
        <ele>517.64</ele>
        <time>2019-11-01T10:29:53Z</time>
      </trkpt>
      <trkpt lat="44.86915" lon="5.76254">
        <ele>517.22</ele>
        <time>2019-11-01T10:29:54Z</time>
      </trkpt>
      <trkpt lat="44.86917" lon="5.76249">
        <ele>516.6</ele>
        <time>2019-11-01T10:29:55Z</time>
      </trkpt>
      <trkpt lat="44.86916" lon="5.76245">
        <ele>515.86</ele>
        <time>2019-11-01T10:29:56Z</time>
      </trkpt>
      <trkpt lat="44.86915" lon="5.76241">
        <ele>515.08</ele>
        <time>2019-11-01T10:29:57Z</time>
      </trkpt>
      <trkpt lat="44.86912" lon="5.76238">
        <ele>514.56</ele>
        <time>2019-11-01T10:29:58Z</time>
      </trkpt>
      <trkpt lat="44.8691" lon="5.76234">
        <ele>514.13</ele>
        <time>2019-11-01T10:29:59Z</time>
      </trkpt>
      <trkpt lat="44.86907" lon="5.76229">
        <ele>513.72</ele>
        <time>2019-11-01T10:30:00Z</time>
      </trkpt>
      <trkpt lat="44.86903" lon="5.76224">
        <ele>513.17</ele>
        <time>2019-11-01T10:30:01Z</time>
      </trkpt>
      <trkpt lat="44.869" lon="5.76219">
        <ele>512.45</ele>
        <time>2019-11-01T10:30:02Z</time>
      </trkpt>
      <trkpt lat="44.86897" lon="5.76213">
        <ele>511.74</ele>
        <time>2019-11-01T10:30:03Z</time>
      </trkpt>
      <trkpt lat="44.86894" lon="5.76206">
        <ele>510.62</ele>
        <time>2019-11-01T10:30:04Z</time>
      </trkpt>
      <trkpt lat="44.86889" lon="5.76199">
        <ele>509.52</ele>
        <time>2019-11-01T10:30:05Z</time>
      </trkpt>
      <trkpt lat="44.86885" lon="5.76193">
        <ele>508.83</ele>
        <time>2019-11-01T10:30:06Z</time>
      </trkpt>
      <trkpt lat="44.86881" lon="5.76187">
        <ele>507.51</ele>
        <time>2019-11-01T10:30:07Z</time>
      </trkpt>
      <trkpt lat="44.86878" lon="5.76181">
        <ele>506.48</ele>
        <time>2019-11-01T10:30:08Z</time>
      </trkpt>
      <trkpt lat="44.86875" lon="5.76173">
        <ele>505.19</ele>
        <time>2019-11-01T10:30:09Z</time>
      </trkpt>
      <trkpt lat="44.86873" lon="5.76165">
        <ele>503.76</ele>
        <time>2019-11-01T10:30:10Z</time>
      </trkpt>
      <trkpt lat="44.86871" lon="5.76156">
        <ele>502.42</ele>
        <time>2019-11-01T10:30:11Z</time>
      </trkpt>
      <trkpt lat="44.86871" lon="5.76147">
        <ele>501.45</ele>
        <time>2019-11-01T10:30:12Z</time>
      </trkpt>
      <trkpt lat="44.86869" lon="5.76139">
        <ele>500.25</ele>
        <time>2019-11-01T10:30:13Z</time>
      </trkpt>
      <trkpt lat="44.86866" lon="5.76131">
        <ele>498.78</ele>
        <time>2019-11-01T10:30:14Z</time>
      </trkpt>
      <trkpt lat="44.86864" lon="5.76123">
        <ele>496.93</ele>
        <time>2019-11-01T10:30:15Z</time>
      </trkpt>
      <trkpt lat="44.86861" lon="5.76116">
        <ele>494.63</ele>
        <time>2019-11-01T10:30:16Z</time>
      </trkpt>
      <trkpt lat="44.86859" lon="5.76108">
        <ele>493.1</ele>
        <time>2019-11-01T10:30:17Z</time>
      </trkpt>
      <trkpt lat="44.86859" lon="5.761">
        <ele>491.66</ele>
        <time>2019-11-01T10:30:18Z</time>
      </trkpt>
      <trkpt lat="44.86859" lon="5.76091">
        <ele>490.18</ele>
        <time>2019-11-01T10:30:19Z</time>
      </trkpt>
      <trkpt lat="44.8686" lon="5.76082">
        <ele>489.03</ele>
        <time>2019-11-01T10:30:20Z</time>
      </trkpt>
      <trkpt lat="44.86862" lon="5.76074">
        <ele>487.5</ele>
        <time>2019-11-01T10:30:21Z</time>
      </trkpt>
      <trkpt lat="44.86864" lon="5.76065">
        <ele>485.57</ele>
        <time>2019-11-01T10:30:22Z</time>
      </trkpt>
      <trkpt lat="44.86867" lon="5.76056">
        <ele>484.01</ele>
        <time>2019-11-01T10:30:23Z</time>
      </trkpt>
      <trkpt lat="44.86868" lon="5.76046">
        <ele>482.77</ele>
        <time>2019-11-01T10:30:24Z</time>
      </trkpt>
      <trkpt lat="44.86869" lon="5.76035">
        <ele>481.63</ele>
        <time>2019-11-01T10:30:25Z</time>
      </trkpt>
      <trkpt lat="44.8687" lon="5.76025">
        <ele>480.87</ele>
        <time>2019-11-01T10:30:26Z</time>
      </trkpt>
      <trkpt lat="44.86869" lon="5.76013">
        <ele>479.94</ele>
        <time>2019-11-01T10:30:27Z</time>
      </trkpt>
      <trkpt lat="44.86869" lon="5.76001">
        <ele>479.03</ele>
        <time>2019-11-01T10:30:28Z</time>
      </trkpt>
      <trkpt lat="44.86869" lon="5.75988">
        <ele>477.99</ele>
        <time>2019-11-01T10:30:29Z</time>
      </trkpt>
      <trkpt lat="44.86868" lon="5.75977">
        <ele>477.12</ele>
        <time>2019-11-01T10:30:30Z</time>
      </trkpt>
      <trkpt lat="44.86867" lon="5.75966">
        <ele>476.57</ele>
        <time>2019-11-01T10:30:31Z</time>
      </trkpt>
      <trkpt lat="44.86865" lon="5.75954">
        <ele>475.85</ele>
        <time>2019-11-01T10:30:32Z</time>
      </trkpt>
      <trkpt lat="44.86863" lon="5.75945">
        <ele>475.07</ele>
        <time>2019-11-01T10:30:33Z</time>
      </trkpt>
      <trkpt lat="44.8686" lon="5.75936">
        <ele>474.28</ele>
        <time>2019-11-01T10:30:34Z</time>
      </trkpt>
      <trkpt lat="44.86858" lon="5.75928">
        <ele>473.62</ele>
        <time>2019-11-01T10:30:35Z</time>
      </trkpt>
      <trkpt lat="44.86857" lon="5.75921">
        <ele>472.87</ele>
        <time>2019-11-01T10:30:36Z</time>
      </trkpt>
      <trkpt lat="44.86856" lon="5.75914">
        <ele>472.08</ele>
        <time>2019-11-01T10:30:37Z</time>
      </trkpt>
      <trkpt lat="44.86855" lon="5.75907">
        <ele>471.21</ele>
        <time>2019-11-01T10:30:38Z</time>
      </trkpt>
      <trkpt lat="44.86855" lon="5.75901">
        <ele>470.18</ele>
        <time>2019-11-01T10:30:39Z</time>
      </trkpt>
      <trkpt lat="44.86855" lon="5.75894">
        <ele>469.31</ele>
        <time>2019-11-01T10:30:40Z</time>
      </trkpt>
      <trkpt lat="44.86854" lon="5.75887">
        <ele>468.63</ele>
        <time>2019-11-01T10:30:41Z</time>
      </trkpt>
      <trkpt lat="44.86853" lon="5.75881">
        <ele>468.01</ele>
        <time>2019-11-01T10:30:42Z</time>
      </trkpt>
      <trkpt lat="44.86849" lon="5.75876">
        <ele>467.61</ele>
        <time>2019-11-01T10:30:43Z</time>
      </trkpt>
      <trkpt lat="44.86845" lon="5.75872">
        <ele>466.79</ele>
        <time>2019-11-01T10:30:44Z</time>
      </trkpt>
      <trkpt lat="44.8684" lon="5.75868">
        <ele>465.92</ele>
        <time>2019-11-01T10:30:45Z</time>
      </trkpt>
      <trkpt lat="44.86837" lon="5.75863">
        <ele>465.02</ele>
        <time>2019-11-01T10:30:46Z</time>
      </trkpt>
      <trkpt lat="44.86836" lon="5.75858">
        <ele>463.85</ele>
        <time>2019-11-01T10:30:47Z</time>
      </trkpt>
      <trkpt lat="44.86836" lon="5.75852">
        <ele>463.07</ele>
        <time>2019-11-01T10:30:48Z</time>
      </trkpt>
      <trkpt lat="44.86838" lon="5.75846">
        <ele>462.35</ele>
        <time>2019-11-01T10:30:49Z</time>
      </trkpt>
      <trkpt lat="44.86839" lon="5.7584">
        <ele>461.22</ele>
        <time>2019-11-01T10:30:50Z</time>
      </trkpt>
      <trkpt lat="44.8684" lon="5.75833">
        <ele>460.19</ele>
        <time>2019-11-01T10:30:51Z</time>
      </trkpt>
      <trkpt lat="44.86839" lon="5.75825">
        <ele>459.38</ele>
        <time>2019-11-01T10:30:52Z</time>
      </trkpt>
      <trkpt lat="44.86838" lon="5.75817">
        <ele>458.58</ele>
        <time>2019-11-01T10:30:53Z</time>
      </trkpt>
      <trkpt lat="44.86837" lon="5.75808">
        <ele>457.85</ele>
        <time>2019-11-01T10:30:54Z</time>
      </trkpt>
      <trkpt lat="44.86836" lon="5.75798">
        <ele>457.21</ele>
        <time>2019-11-01T10:30:55Z</time>
      </trkpt>
      <trkpt lat="44.86834" lon="5.75787">
        <ele>456.46</ele>
        <time>2019-11-01T10:30:56Z</time>
      </trkpt>
      <trkpt lat="44.86833" lon="5.75778">
        <ele>455.75</ele>
        <time>2019-11-01T10:30:57Z</time>
      </trkpt>
      <trkpt lat="44.86831" lon="5.75771">
        <ele>454.97</ele>
        <time>2019-11-01T10:30:58Z</time>
      </trkpt>
      <trkpt lat="44.8683" lon="5.75765">
        <ele>454.18</ele>
        <time>2019-11-01T10:30:59Z</time>
      </trkpt>
      <trkpt lat="44.86829" lon="5.75761">
        <ele>453.45</ele>
        <time>2019-11-01T10:31:00Z</time>
      </trkpt>
      <trkpt lat="44.86828" lon="5.75758">
        <ele>452.67</ele>
        <time>2019-11-01T10:31:01Z</time>
      </trkpt>
      <trkpt lat="44.86826" lon="5.75754">
        <ele>450.92</ele>
        <time>2019-11-01T10:31:03Z</time>
      </trkpt>
      <trkpt lat="44.86826" lon="5.7575">
        <ele>449.96</ele>
        <time>2019-11-01T10:31:04Z</time>
      </trkpt>
      <trkpt lat="44.86825" lon="5.75748">
        <ele>449.04</ele>
        <time>2019-11-01T10:31:05Z</time>
      </trkpt>
      <trkpt lat="44.86823" lon="5.75742">
        <ele>447.5</ele>
        <time>2019-11-01T10:31:07Z</time>
      </trkpt>
      <trkpt lat="44.86822" lon="5.75739">
        <ele>447.53</ele>
        <time>2019-11-01T10:31:08Z</time>
      </trkpt>
      <trkpt lat="44.86821" lon="5.75736">
        <ele>447.96</ele>
        <time>2019-11-01T10:31:09Z</time>
      </trkpt>
      <trkpt lat="44.86822" lon="5.75733">
        <ele>448.58</ele>
        <time>2019-11-01T10:31:10Z</time>
      </trkpt>
      <trkpt lat="44.86821" lon="5.75731">
        <ele>449.04</ele>
        <time>2019-11-01T10:31:11Z</time>
      </trkpt>
      <trkpt lat="44.8682" lon="5.75728">
        <ele>449.53</ele>
        <time>2019-11-01T10:31:12Z</time>
      </trkpt>
      <trkpt lat="44.86819" lon="5.75724">
        <ele>449.89</ele>
        <time>2019-11-01T10:31:13Z</time>
      </trkpt>
      <trkpt lat="44.86819" lon="5.75721">
        <ele>450.21</ele>
        <time>2019-11-01T10:31:14Z</time>
      </trkpt>
      <trkpt lat="44.86818" lon="5.75719">
        <ele>450.27</ele>
        <time>2019-11-01T10:31:16Z</time>
      </trkpt>
      <trkpt lat="44.86815" lon="5.75709">
        <ele>449.42</ele>
        <time>2019-11-01T10:31:22Z</time>
      </trkpt>
      <trkpt lat="44.86812" lon="5.75706">
        <ele>449.23</ele>
        <time>2019-11-01T10:31:23Z</time>
      </trkpt>
      <trkpt lat="44.8681" lon="5.75701">
        <ele>449.45</ele>
        <time>2019-11-01T10:31:24Z</time>
      </trkpt>
      <trkpt lat="44.86808" lon="5.75697">
        <ele>449.58</ele>
        <time>2019-11-01T10:31:25Z</time>
      </trkpt>
      <trkpt lat="44.86806" lon="5.75695">
        <ele>449.69</ele>
        <time>2019-11-01T10:31:26Z</time>
      </trkpt>
      <trkpt lat="44.86806" lon="5.75693">
        <ele>449.8</ele>
        <time>2019-11-01T10:31:27Z</time>
      </trkpt>
      <trkpt lat="44.86805" lon="5.7569">
        <ele>449.9</ele>
        <time>2019-11-01T10:31:28Z</time>
      </trkpt>
      <trkpt lat="44.86804" lon="5.75687">
        <ele>450.14</ele>
        <time>2019-11-01T10:31:29Z</time>
      </trkpt>
      <trkpt lat="44.86802" lon="5.75685">
        <ele>450.28</ele>
        <time>2019-11-01T10:31:30Z</time>
      </trkpt>
      <trkpt lat="44.868" lon="5.75683">
        <ele>450.32</ele>
        <time>2019-11-01T10:31:31Z</time>
      </trkpt>
      <trkpt lat="44.868" lon="5.7568">
        <ele>450.41</ele>
        <time>2019-11-01T10:31:32Z</time>
      </trkpt>
      <trkpt lat="44.86798" lon="5.75678">
        <ele>450.78</ele>
        <time>2019-11-01T10:31:33Z</time>
      </trkpt>
      <trkpt lat="44.86796" lon="5.75676">
        <ele>451.03</ele>
        <time>2019-11-01T10:31:34Z</time>
      </trkpt>
      <trkpt lat="44.86796" lon="5.75673">
        <ele>451.46</ele>
        <time>2019-11-01T10:31:35Z</time>
      </trkpt>
      <trkpt lat="44.86794" lon="5.75668">
        <ele>452.69</ele>
        <time>2019-11-01T10:31:37Z</time>
      </trkpt>
      <trkpt lat="44.86793" lon="5.75665">
        <ele>453.36</ele>
        <time>2019-11-01T10:31:38Z</time>
      </trkpt>
      <trkpt lat="44.86792" lon="5.75663">
        <ele>454.33</ele>
        <time>2019-11-01T10:31:39Z</time>
      </trkpt>
      <trkpt lat="44.86792" lon="5.7566">
        <ele>455.87</ele>
        <time>2019-11-01T10:31:41Z</time>
      </trkpt>
      <trkpt lat="44.86791" lon="5.75656">
        <ele>456.83</ele>
        <time>2019-11-01T10:31:43Z</time>
      </trkpt>
      <trkpt lat="44.8679" lon="5.75654">
        <ele>457.47</ele>
        <time>2019-11-01T10:31:44Z</time>
      </trkpt>
      <trkpt lat="44.86789" lon="5.75651">
        <ele>457.94</ele>
        <time>2019-11-01T10:31:45Z</time>
      </trkpt>
      <trkpt lat="44.86789" lon="5.75649">
        <ele>458.29</ele>
        <time>2019-11-01T10:31:46Z</time>
      </trkpt>
      <trkpt lat="44.86788" lon="5.75646">
        <ele>458.54</ele>
        <time>2019-11-01T10:31:47Z</time>
      </trkpt>
      <trkpt lat="44.86788" lon="5.75643">
        <ele>458.75</ele>
        <time>2019-11-01T10:31:48Z</time>
      </trkpt>
      <trkpt lat="44.86787" lon="5.75639">
        <ele>459.02</ele>
        <time>2019-11-01T10:31:49Z</time>
      </trkpt>
      <trkpt lat="44.86786" lon="5.75635">
        <ele>459.32</ele>
        <time>2019-11-01T10:31:50Z</time>
      </trkpt>
      <trkpt lat="44.86786" lon="5.75631">
        <ele>459.4</ele>
        <time>2019-11-01T10:31:51Z</time>
      </trkpt>
      <trkpt lat="44.86786" lon="5.75626">
        <ele>459.5</ele>
        <time>2019-11-01T10:31:52Z</time>
      </trkpt>
      <trkpt lat="44.86786" lon="5.75621">
        <ele>460.02</ele>
        <time>2019-11-01T10:31:53Z</time>
      </trkpt>
      <trkpt lat="44.86786" lon="5.75615">
        <ele>460.45</ele>
        <time>2019-11-01T10:31:54Z</time>
      </trkpt>
      <trkpt lat="44.86786" lon="5.75611">
        <ele>460.79</ele>
        <time>2019-11-01T10:31:55Z</time>
      </trkpt>
      <trkpt lat="44.86786" lon="5.75607">
        <ele>461.39</ele>
        <time>2019-11-01T10:31:56Z</time>
      </trkpt>
      <trkpt lat="44.86786" lon="5.75604">
        <ele>461.63</ele>
        <time>2019-11-01T10:31:57Z</time>
      </trkpt>
      <trkpt lat="44.86785" lon="5.75601">
        <ele>461.64</ele>
        <time>2019-11-01T10:31:58Z</time>
      </trkpt>
      <trkpt lat="44.86784" lon="5.75598">
        <ele>461.22</ele>
        <time>2019-11-01T10:31:59Z</time>
      </trkpt>
      <trkpt lat="44.86783" lon="5.75595">
        <ele>461.02</ele>
        <time>2019-11-01T10:32:00Z</time>
      </trkpt>
      <trkpt lat="44.86782" lon="5.75593">
        <ele>461.11</ele>
        <time>2019-11-01T10:32:01Z</time>
      </trkpt>
      <trkpt lat="44.86781" lon="5.7559">
        <ele>461.48</ele>
        <time>2019-11-01T10:32:02Z</time>
      </trkpt>
      <trkpt lat="44.8678" lon="5.75588">
        <ele>461.8</ele>
        <time>2019-11-01T10:32:03Z</time>
      </trkpt>
      <trkpt lat="44.86779" lon="5.75586">
        <ele>462.39</ele>
        <time>2019-11-01T10:32:04Z</time>
      </trkpt>
      <trkpt lat="44.86778" lon="5.75583">
        <ele>462.92</ele>
        <time>2019-11-01T10:32:05Z</time>
      </trkpt>
      <trkpt lat="44.86776" lon="5.75581">
        <ele>463.35</ele>
        <time>2019-11-01T10:32:06Z</time>
      </trkpt>
      <trkpt lat="44.86775" lon="5.75578">
        <ele>463.83</ele>
        <time>2019-11-01T10:32:07Z</time>
      </trkpt>
      <trkpt lat="44.86774" lon="5.75575">
        <ele>464.05</ele>
        <time>2019-11-01T10:32:08Z</time>
      </trkpt>
      <trkpt lat="44.86772" lon="5.75572">
        <ele>464.11</ele>
        <time>2019-11-01T10:32:09Z</time>
      </trkpt>
      <trkpt lat="44.86771" lon="5.75568">
        <ele>464.27</ele>
        <time>2019-11-01T10:32:10Z</time>
      </trkpt>
      <trkpt lat="44.8677" lon="5.75564">
        <ele>464.81</ele>
        <time>2019-11-01T10:32:11Z</time>
      </trkpt>
      <trkpt lat="44.8677" lon="5.7556">
        <ele>465.39</ele>
        <time>2019-11-01T10:32:12Z</time>
      </trkpt>
      <trkpt lat="44.8677" lon="5.75557">
        <ele>465.85</ele>
        <time>2019-11-01T10:32:13Z</time>
      </trkpt>
      <trkpt lat="44.86771" lon="5.75553">
        <ele>466.05</ele>
        <time>2019-11-01T10:32:14Z</time>
      </trkpt>
      <trkpt lat="44.86772" lon="5.75551">
        <ele>466.25</ele>
        <time>2019-11-01T10:32:15Z</time>
      </trkpt>
      <trkpt lat="44.86774" lon="5.75548">
        <ele>466.11</ele>
        <time>2019-11-01T10:32:16Z</time>
      </trkpt>
      <trkpt lat="44.86774" lon="5.75545">
        <ele>466.34</ele>
        <time>2019-11-01T10:32:17Z</time>
      </trkpt>
      <trkpt lat="44.86774" lon="5.7554">
        <ele>466.55</ele>
        <time>2019-11-01T10:32:18Z</time>
      </trkpt>
      <trkpt lat="44.86773" lon="5.75536">
        <ele>466.82</ele>
        <time>2019-11-01T10:32:19Z</time>
      </trkpt>
      <trkpt lat="44.86772" lon="5.75531">
        <ele>466.98</ele>
        <time>2019-11-01T10:32:20Z</time>
      </trkpt>
      <trkpt lat="44.86771" lon="5.75527">
        <ele>467.23</ele>
        <time>2019-11-01T10:32:21Z</time>
      </trkpt>
      <trkpt lat="44.86769" lon="5.75521">
        <ele>466.89</ele>
        <time>2019-11-01T10:32:22Z</time>
      </trkpt>
      <trkpt lat="44.86768" lon="5.75516">
        <ele>466.37</ele>
        <time>2019-11-01T10:32:23Z</time>
      </trkpt>
      <trkpt lat="44.86767" lon="5.7551">
        <ele>466.14</ele>
        <time>2019-11-01T10:32:24Z</time>
      </trkpt>
      <trkpt lat="44.86767" lon="5.75505">
        <ele>466</ele>
        <time>2019-11-01T10:32:25Z</time>
      </trkpt>
      <trkpt lat="44.86767" lon="5.755">
        <ele>465.82</ele>
        <time>2019-11-01T10:32:26Z</time>
      </trkpt>
      <trkpt lat="44.86767" lon="5.75495">
        <ele>465.48</ele>
        <time>2019-11-01T10:32:27Z</time>
      </trkpt>
      <trkpt lat="44.86766" lon="5.75488">
        <ele>464.96</ele>
        <time>2019-11-01T10:32:28Z</time>
      </trkpt>
      <trkpt lat="44.86765" lon="5.75479">
        <ele>464.18</ele>
        <time>2019-11-01T10:32:29Z</time>
      </trkpt>
      <trkpt lat="44.86764" lon="5.75471">
        <ele>463.38</ele>
        <time>2019-11-01T10:32:30Z</time>
      </trkpt>
      <trkpt lat="44.86763" lon="5.75461">
        <ele>462.65</ele>
        <time>2019-11-01T10:32:31Z</time>
      </trkpt>
      <trkpt lat="44.86761" lon="5.75451">
        <ele>461.87</ele>
        <time>2019-11-01T10:32:32Z</time>
      </trkpt>
      <trkpt lat="44.86759" lon="5.7544">
        <ele>461.01</ele>
        <time>2019-11-01T10:32:33Z</time>
      </trkpt>
      <trkpt lat="44.86756" lon="5.7543">
        <ele>459.98</ele>
        <time>2019-11-01T10:32:34Z</time>
      </trkpt>
      <trkpt lat="44.86754" lon="5.75422">
        <ele>459.04</ele>
        <time>2019-11-01T10:32:35Z</time>
      </trkpt>
      <trkpt lat="44.86753" lon="5.75415">
        <ele>458.2</ele>
        <time>2019-11-01T10:32:36Z</time>
      </trkpt>
      <trkpt lat="44.86752" lon="5.75408">
        <ele>457.67</ele>
        <time>2019-11-01T10:32:37Z</time>
      </trkpt>
      <trkpt lat="44.86751" lon="5.75403">
        <ele>457.16</ele>
        <time>2019-11-01T10:32:38Z</time>
      </trkpt>
      <trkpt lat="44.8675" lon="5.75399">
        <ele>456.66</ele>
        <time>2019-11-01T10:32:39Z</time>
      </trkpt>
      <trkpt lat="44.86749" lon="5.75396">
        <ele>456.23</ele>
        <time>2019-11-01T10:32:40Z</time>
      </trkpt>
      <trkpt lat="44.86748" lon="5.75393">
        <ele>455.82</ele>
        <time>2019-11-01T10:32:41Z</time>
      </trkpt>
      <trkpt lat="44.86747" lon="5.7539">
        <ele>455.27</ele>
        <time>2019-11-01T10:32:42Z</time>
      </trkpt>
      <trkpt lat="44.86746" lon="5.75386">
        <ele>454.76</ele>
        <time>2019-11-01T10:32:43Z</time>
      </trkpt>
      <trkpt lat="44.86746" lon="5.75382">
        <ele>454.47</ele>
        <time>2019-11-01T10:32:44Z</time>
      </trkpt>
      <trkpt lat="44.86746" lon="5.75377">
        <ele>454.03</ele>
        <time>2019-11-01T10:32:45Z</time>
      </trkpt>
      <trkpt lat="44.86745" lon="5.75373">
        <ele>453.83</ele>
        <time>2019-11-01T10:32:46Z</time>
      </trkpt>
      <trkpt lat="44.86744" lon="5.75369">
        <ele>453.49</ele>
        <time>2019-11-01T10:32:47Z</time>
      </trkpt>
      <trkpt lat="44.86744" lon="5.75367">
        <ele>453.24</ele>
        <time>2019-11-01T10:32:48Z</time>
      </trkpt>
      <trkpt lat="44.86744" lon="5.75363">
        <ele>452.89</ele>
        <time>2019-11-01T10:32:49Z</time>
      </trkpt>
      <trkpt lat="44.86744" lon="5.7536">
        <ele>452.72</ele>
        <time>2019-11-01T10:32:50Z</time>
      </trkpt>
      <trkpt lat="44.86744" lon="5.75357">
        <ele>452.59</ele>
        <time>2019-11-01T10:32:51Z</time>
      </trkpt>
      <trkpt lat="44.86744" lon="5.75353">
        <ele>452.63</ele>
        <time>2019-11-01T10:32:52Z</time>
      </trkpt>
      <trkpt lat="44.86743" lon="5.75349">
        <ele>452.71</ele>
        <time>2019-11-01T10:32:53Z</time>
      </trkpt>
      <trkpt lat="44.86743" lon="5.75345">
        <ele>452.52</ele>
        <time>2019-11-01T10:32:54Z</time>
      </trkpt>
      <trkpt lat="44.86743" lon="5.7534">
        <ele>452.32</ele>
        <time>2019-11-01T10:32:55Z</time>
      </trkpt>
      <trkpt lat="44.86743" lon="5.75335">
        <ele>452.13</ele>
        <time>2019-11-01T10:32:56Z</time>
      </trkpt>
      <trkpt lat="44.86742" lon="5.7533">
        <ele>451.86</ele>
        <time>2019-11-01T10:32:57Z</time>
      </trkpt>
      <trkpt lat="44.86743" lon="5.75323">
        <ele>451.29</ele>
        <time>2019-11-01T10:32:58Z</time>
      </trkpt>
      <trkpt lat="44.86743" lon="5.75316">
        <ele>450.97</ele>
        <time>2019-11-01T10:32:59Z</time>
      </trkpt>
      <trkpt lat="44.86743" lon="5.75309">
        <ele>450.81</ele>
        <time>2019-11-01T10:33:00Z</time>
      </trkpt>
      <trkpt lat="44.86744" lon="5.75301">
        <ele>450.62</ele>
        <time>2019-11-01T10:33:01Z</time>
      </trkpt>
      <trkpt lat="44.86744" lon="5.75295">
        <ele>450.71</ele>
        <time>2019-11-01T10:33:02Z</time>
      </trkpt>
      <trkpt lat="44.86745" lon="5.75289">
        <ele>450.45</ele>
        <time>2019-11-01T10:33:03Z</time>
      </trkpt>
      <trkpt lat="44.86746" lon="5.75284">
        <ele>450.44</ele>
        <time>2019-11-01T10:33:04Z</time>
      </trkpt>
      <trkpt lat="44.86747" lon="5.7528">
        <ele>450.51</ele>
        <time>2019-11-01T10:33:05Z</time>
      </trkpt>
      <trkpt lat="44.86749" lon="5.75276">
        <ele>450.81</ele>
        <time>2019-11-01T10:33:06Z</time>
      </trkpt>
      <trkpt lat="44.8675" lon="5.75273">
        <ele>451.11</ele>
        <time>2019-11-01T10:33:07Z</time>
      </trkpt>
      <trkpt lat="44.86751" lon="5.75269">
        <ele>451.41</ele>
        <time>2019-11-01T10:33:08Z</time>
      </trkpt>
      <trkpt lat="44.86753" lon="5.75267">
        <ele>451.92</ele>
        <time>2019-11-01T10:33:09Z</time>
      </trkpt>
      <trkpt lat="44.86754" lon="5.75265">
        <ele>452.71</ele>
        <time>2019-11-01T10:33:10Z</time>
      </trkpt>
      <trkpt lat="44.86755" lon="5.75262">
        <ele>453.36</ele>
        <time>2019-11-01T10:33:11Z</time>
      </trkpt>
      <trkpt lat="44.86756" lon="5.75256">
        <ele>454.81</ele>
        <time>2019-11-01T10:33:13Z</time>
      </trkpt>
      <trkpt lat="44.86757" lon="5.75252">
        <ele>455.46</ele>
        <time>2019-11-01T10:33:14Z</time>
      </trkpt>
      <trkpt lat="44.86758" lon="5.75248">
        <ele>455.8</ele>
        <time>2019-11-01T10:33:15Z</time>
      </trkpt>
      <trkpt lat="44.86759" lon="5.75243">
        <ele>456.46</ele>
        <time>2019-11-01T10:33:16Z</time>
      </trkpt>
      <trkpt lat="44.8676" lon="5.75238">
        <ele>456.94</ele>
        <time>2019-11-01T10:33:17Z</time>
      </trkpt>
      <trkpt lat="44.86761" lon="5.75234">
        <ele>457.43</ele>
        <time>2019-11-01T10:33:18Z</time>
      </trkpt>
      <trkpt lat="44.86761" lon="5.7523">
        <ele>457.65</ele>
        <time>2019-11-01T10:33:19Z</time>
      </trkpt>
      <trkpt lat="44.86761" lon="5.75225">
        <ele>457.71</ele>
        <time>2019-11-01T10:33:20Z</time>
      </trkpt>
      <trkpt lat="44.86761" lon="5.75221">
        <ele>458.64</ele>
        <time>2019-11-01T10:33:21Z</time>
      </trkpt>
      <trkpt lat="44.8676" lon="5.75217">
        <ele>459.34</ele>
        <time>2019-11-01T10:33:22Z</time>
      </trkpt>
      <trkpt lat="44.8676" lon="5.75211">
        <ele>459.62</ele>
        <time>2019-11-01T10:33:23Z</time>
      </trkpt>
      <trkpt lat="44.86758" lon="5.75207">
        <ele>459.43</ele>
        <time>2019-11-01T10:33:24Z</time>
      </trkpt>
      <trkpt lat="44.86757" lon="5.75202">
        <ele>459.44</ele>
        <time>2019-11-01T10:33:25Z</time>
      </trkpt>
      <trkpt lat="44.86756" lon="5.75198">
        <ele>459.72</ele>
        <time>2019-11-01T10:33:26Z</time>
      </trkpt>
      <trkpt lat="44.86754" lon="5.75193">
        <ele>460.29</ele>
        <time>2019-11-01T10:33:27Z</time>
      </trkpt>
      <trkpt lat="44.86753" lon="5.75189">
        <ele>460.89</ele>
        <time>2019-11-01T10:33:28Z</time>
      </trkpt>
      <trkpt lat="44.86752" lon="5.75185">
        <ele>461.62</ele>
        <time>2019-11-01T10:33:29Z</time>
      </trkpt>
      <trkpt lat="44.8675" lon="5.75182">
        <ele>462.2</ele>
        <time>2019-11-01T10:33:30Z</time>
      </trkpt>
      <trkpt lat="44.86747" lon="5.75178">
        <ele>462.93</ele>
        <time>2019-11-01T10:33:31Z</time>
      </trkpt>
      <trkpt lat="44.86744" lon="5.75174">
        <ele>463.36</ele>
        <time>2019-11-01T10:33:32Z</time>
      </trkpt>
      <trkpt lat="44.8674" lon="5.75171">
        <ele>463.42</ele>
        <time>2019-11-01T10:33:33Z</time>
      </trkpt>
      <trkpt lat="44.86735" lon="5.75168">
        <ele>462.1</ele>
        <time>2019-11-01T10:33:34Z</time>
      </trkpt>
      <trkpt lat="44.86729" lon="5.75165">
        <ele>461.08</ele>
        <time>2019-11-01T10:33:35Z</time>
      </trkpt>
      <trkpt lat="44.86723" lon="5.75163">
        <ele>460.28</ele>
        <time>2019-11-01T10:33:36Z</time>
      </trkpt>
      <trkpt lat="44.86717" lon="5.75162">
        <ele>459.69</ele>
        <time>2019-11-01T10:33:37Z</time>
      </trkpt>
      <trkpt lat="44.86713" lon="5.75162">
        <ele>458.89</ele>
        <time>2019-11-01T10:33:38Z</time>
      </trkpt>
      <trkpt lat="44.86708" lon="5.75163">
        <ele>458.08</ele>
        <time>2019-11-01T10:33:39Z</time>
      </trkpt>
      <trkpt lat="44.86703" lon="5.75165">
        <ele>457.28</ele>
        <time>2019-11-01T10:33:40Z</time>
      </trkpt>
      <trkpt lat="44.86699" lon="5.75167">
        <ele>456.69</ele>
        <time>2019-11-01T10:33:41Z</time>
      </trkpt>
      <trkpt lat="44.86696" lon="5.75169">
        <ele>456.1</ele>
        <time>2019-11-01T10:33:42Z</time>
      </trkpt>
      <trkpt lat="44.86693" lon="5.75171">
        <ele>455.43</ele>
        <time>2019-11-01T10:33:43Z</time>
      </trkpt>
      <trkpt lat="44.86691" lon="5.75172">
        <ele>454.95</ele>
        <time>2019-11-01T10:33:44Z</time>
      </trkpt>
      <trkpt lat="44.86688" lon="5.75173">
        <ele>454.52</ele>
        <time>2019-11-01T10:33:45Z</time>
      </trkpt>
      <trkpt lat="44.86685" lon="5.75174">
        <ele>454.19</ele>
        <time>2019-11-01T10:33:46Z</time>
      </trkpt>
      <trkpt lat="44.86683" lon="5.75175">
        <ele>453.87</ele>
        <time>2019-11-01T10:33:47Z</time>
      </trkpt>
      <trkpt lat="44.86681" lon="5.75176">
        <ele>453.64</ele>
        <time>2019-11-01T10:33:48Z</time>
      </trkpt>
      <trkpt lat="44.86679" lon="5.75177">
        <ele>453.57</ele>
        <time>2019-11-01T10:33:49Z</time>
      </trkpt>
      <trkpt lat="44.86677" lon="5.75178">
        <ele>453.2</ele>
        <time>2019-11-01T10:33:50Z</time>
      </trkpt>
      <trkpt lat="44.86674" lon="5.7518">
        <ele>452.61</ele>
        <time>2019-11-01T10:33:52Z</time>
      </trkpt>
      <trkpt lat="44.86671" lon="5.75183">
        <ele>451.81</ele>
        <time>2019-11-01T10:33:54Z</time>
      </trkpt>
      <trkpt lat="44.86668" lon="5.75183">
        <ele>451.26</ele>
        <time>2019-11-01T10:33:56Z</time>
      </trkpt>
      <trkpt lat="44.86665" lon="5.75184">
        <ele>451.01</ele>
        <time>2019-11-01T10:33:58Z</time>
      </trkpt>
      <trkpt lat="44.86671" lon="5.7517">
        <ele>448.13</ele>
        <time>2019-11-01T10:34:14Z</time>
      </trkpt>
      <trkpt lat="44.86673" lon="5.75167">
        <ele>446.58</ele>
        <time>2019-11-01T10:34:17Z</time>
      </trkpt>
      <trkpt lat="44.86677" lon="5.75155">
        <ele>445.88</ele>
        <time>2019-11-01T10:34:27Z</time>
      </trkpt>
      <trkpt lat="44.86678" lon="5.75152">
        <ele>445.75</ele>
        <time>2019-11-01T10:34:29Z</time>
      </trkpt>
      <trkpt lat="44.86683" lon="5.75139">
        <ele>446.44</ele>
        <time>2019-11-01T10:34:38Z</time>
      </trkpt>
      <trkpt lat="44.86685" lon="5.75135">
        <ele>447.11</ele>
        <time>2019-11-01T10:34:40Z</time>
      </trkpt>
      <trkpt lat="44.86687" lon="5.75132">
        <ele>448.18</ele>
        <time>2019-11-01T10:34:41Z</time>
      </trkpt>
      <trkpt lat="44.86688" lon="5.75129">
        <ele>448.57</ele>
        <time>2019-11-01T10:34:42Z</time>
      </trkpt>
      <trkpt lat="44.8669" lon="5.75127">
        <ele>449.11</ele>
        <time>2019-11-01T10:34:43Z</time>
      </trkpt>
      <trkpt lat="44.86691" lon="5.75124">
        <ele>449.62</ele>
        <time>2019-11-01T10:34:44Z</time>
      </trkpt>
      <trkpt lat="44.86692" lon="5.75121">
        <ele>450.12</ele>
        <time>2019-11-01T10:34:46Z</time>
      </trkpt>
      <trkpt lat="44.86694" lon="5.75118">
        <ele>450.99</ele>
        <time>2019-11-01T10:34:48Z</time>
      </trkpt>
      <trkpt lat="44.86695" lon="5.75116">
        <ele>451.44</ele>
        <time>2019-11-01T10:34:49Z</time>
      </trkpt>
      <trkpt lat="44.86697" lon="5.75113">
        <ele>451.93</ele>
        <time>2019-11-01T10:34:50Z</time>
      </trkpt>
      <trkpt lat="44.86698" lon="5.75112">
        <ele>452.57</ele>
        <time>2019-11-01T10:34:51Z</time>
      </trkpt>
      <trkpt lat="44.86701" lon="5.75107">
        <ele>453.39</ele>
        <time>2019-11-01T10:34:53Z</time>
      </trkpt>
      <trkpt lat="44.86701" lon="5.75105">
        <ele>453.64</ele>
        <time>2019-11-01T10:34:54Z</time>
      </trkpt>
      <trkpt lat="44.86702" lon="5.75102">
        <ele>453.99</ele>
        <time>2019-11-01T10:34:55Z</time>
      </trkpt>
      <trkpt lat="44.86703" lon="5.751">
        <ele>454.38</ele>
        <time>2019-11-01T10:34:56Z</time>
      </trkpt>
      <trkpt lat="44.86704" lon="5.75097">
        <ele>454.56</ele>
        <time>2019-11-01T10:34:57Z</time>
      </trkpt>
      <trkpt lat="44.86705" lon="5.75094">
        <ele>455.04</ele>
        <time>2019-11-01T10:34:58Z</time>
      </trkpt>
      <trkpt lat="44.86706" lon="5.75091">
        <ele>455.53</ele>
        <time>2019-11-01T10:34:59Z</time>
      </trkpt>
      <trkpt lat="44.86707" lon="5.75087">
        <ele>456.1</ele>
        <time>2019-11-01T10:35:00Z</time>
      </trkpt>
      <trkpt lat="44.86708" lon="5.75084">
        <ele>456.48</ele>
        <time>2019-11-01T10:35:01Z</time>
      </trkpt>
      <trkpt lat="44.86709" lon="5.7508">
        <ele>456.66</ele>
        <time>2019-11-01T10:35:02Z</time>
      </trkpt>
      <trkpt lat="44.86709" lon="5.75075">
        <ele>456.79</ele>
        <time>2019-11-01T10:35:03Z</time>
      </trkpt>
      <trkpt lat="44.8671" lon="5.7507">
        <ele>456.96</ele>
        <time>2019-11-01T10:35:04Z</time>
      </trkpt>
      <trkpt lat="44.8671" lon="5.75065">
        <ele>457.02</ele>
        <time>2019-11-01T10:35:05Z</time>
      </trkpt>
      <trkpt lat="44.86711" lon="5.7506">
        <ele>457.1</ele>
        <time>2019-11-01T10:35:06Z</time>
      </trkpt>
      <trkpt lat="44.86711" lon="5.75056">
        <ele>457.06</ele>
        <time>2019-11-01T10:35:07Z</time>
      </trkpt>
      <trkpt lat="44.86711" lon="5.75051">
        <ele>457.05</ele>
        <time>2019-11-01T10:35:08Z</time>
      </trkpt>
      <trkpt lat="44.86711" lon="5.75047">
        <ele>457.04</ele>
        <time>2019-11-01T10:35:09Z</time>
      </trkpt>
      <trkpt lat="44.86711" lon="5.75043">
        <ele>456.83</ele>
        <time>2019-11-01T10:35:10Z</time>
      </trkpt>
      <trkpt lat="44.8671" lon="5.75039">
        <ele>456.91</ele>
        <time>2019-11-01T10:35:11Z</time>
      </trkpt>
      <trkpt lat="44.8671" lon="5.75035">
        <ele>456.86</ele>
        <time>2019-11-01T10:35:12Z</time>
      </trkpt>
      <trkpt lat="44.86709" lon="5.75032">
        <ele>456.99</ele>
        <time>2019-11-01T10:35:13Z</time>
      </trkpt>
      <trkpt lat="44.86707" lon="5.75028">
        <ele>457.37</ele>
        <time>2019-11-01T10:35:14Z</time>
      </trkpt>
      <trkpt lat="44.86706" lon="5.75025">
        <ele>457.49</ele>
        <time>2019-11-01T10:35:15Z</time>
      </trkpt>
      <trkpt lat="44.86705" lon="5.75023">
        <ele>457.67</ele>
        <time>2019-11-01T10:35:16Z</time>
      </trkpt>
      <trkpt lat="44.86704" lon="5.7502">
        <ele>457.79</ele>
        <time>2019-11-01T10:35:17Z</time>
      </trkpt>
      <trkpt lat="44.86703" lon="5.75015">
        <ele>457.48</ele>
        <time>2019-11-01T10:35:18Z</time>
      </trkpt>
      <trkpt lat="44.86702" lon="5.75012">
        <ele>457.24</ele>
        <time>2019-11-01T10:35:19Z</time>
      </trkpt>
      <trkpt lat="44.86701" lon="5.75008">
        <ele>457.24</ele>
        <time>2019-11-01T10:35:20Z</time>
      </trkpt>
      <trkpt lat="44.86699" lon="5.75005">
        <ele>457.31</ele>
        <time>2019-11-01T10:35:21Z</time>
      </trkpt>
      <trkpt lat="44.86699" lon="5.75001">
        <ele>457.26</ele>
        <time>2019-11-01T10:35:22Z</time>
      </trkpt>
      <trkpt lat="44.86698" lon="5.74998">
        <ele>458.09</ele>
        <time>2019-11-01T10:35:23Z</time>
      </trkpt>
      <trkpt lat="44.86697" lon="5.74994">
        <ele>458.41</ele>
        <time>2019-11-01T10:35:24Z</time>
      </trkpt>
      <trkpt lat="44.86696" lon="5.74991">
        <ele>458.72</ele>
        <time>2019-11-01T10:35:25Z</time>
      </trkpt>
      <trkpt lat="44.86695" lon="5.74987">
        <ele>458.74</ele>
        <time>2019-11-01T10:35:26Z</time>
      </trkpt>
      <trkpt lat="44.86694" lon="5.74983">
        <ele>458.89</ele>
        <time>2019-11-01T10:35:27Z</time>
      </trkpt>
      <trkpt lat="44.86693" lon="5.7498">
        <ele>458.79</ele>
        <time>2019-11-01T10:35:28Z</time>
      </trkpt>
      <trkpt lat="44.86692" lon="5.74976">
        <ele>458.83</ele>
        <time>2019-11-01T10:35:29Z</time>
      </trkpt>
      <trkpt lat="44.86691" lon="5.74972">
        <ele>458.56</ele>
        <time>2019-11-01T10:35:30Z</time>
      </trkpt>
      <trkpt lat="44.8669" lon="5.74969">
        <ele>458.76</ele>
        <time>2019-11-01T10:35:31Z</time>
      </trkpt>
      <trkpt lat="44.86688" lon="5.74966">
        <ele>459.52</ele>
        <time>2019-11-01T10:35:32Z</time>
      </trkpt>
      <trkpt lat="44.86687" lon="5.74964">
        <ele>459.61</ele>
        <time>2019-11-01T10:35:33Z</time>
      </trkpt>
      <trkpt lat="44.86686" lon="5.74962">
        <ele>459.78</ele>
        <time>2019-11-01T10:35:34Z</time>
      </trkpt>
      <trkpt lat="44.86685" lon="5.74959">
        <ele>459.97</ele>
        <time>2019-11-01T10:35:35Z</time>
      </trkpt>
      <trkpt lat="44.86684" lon="5.74955">
        <ele>460.02</ele>
        <time>2019-11-01T10:35:36Z</time>
      </trkpt>
      <trkpt lat="44.86684" lon="5.74952">
        <ele>460.39</ele>
        <time>2019-11-01T10:35:37Z</time>
      </trkpt>
      <trkpt lat="44.86682" lon="5.74948">
        <ele>460.92</ele>
        <time>2019-11-01T10:35:38Z</time>
      </trkpt>
      <trkpt lat="44.86681" lon="5.74944">
        <ele>461.29</ele>
        <time>2019-11-01T10:35:39Z</time>
      </trkpt>
      <trkpt lat="44.86678" lon="5.74941">
        <ele>461.75</ele>
        <time>2019-11-01T10:35:40Z</time>
      </trkpt>
      <trkpt lat="44.86677" lon="5.74938">
        <ele>462.17</ele>
        <time>2019-11-01T10:35:41Z</time>
      </trkpt>
      <trkpt lat="44.86676" lon="5.74935">
        <ele>462.3</ele>
        <time>2019-11-01T10:35:42Z</time>
      </trkpt>
      <trkpt lat="44.86675" lon="5.74932">
        <ele>462.75</ele>
        <time>2019-11-01T10:35:43Z</time>
      </trkpt>
      <trkpt lat="44.86674" lon="5.74928">
        <ele>462.89</ele>
        <time>2019-11-01T10:35:44Z</time>
      </trkpt>
      <trkpt lat="44.86672" lon="5.74923">
        <ele>462.93</ele>
        <time>2019-11-01T10:35:45Z</time>
      </trkpt>
      <trkpt lat="44.86671" lon="5.7492">
        <ele>462.87</ele>
        <time>2019-11-01T10:35:46Z</time>
      </trkpt>
      <trkpt lat="44.8667" lon="5.74917">
        <ele>463.28</ele>
        <time>2019-11-01T10:35:47Z</time>
      </trkpt>
      <trkpt lat="44.86669" lon="5.74913">
        <ele>463.61</ele>
        <time>2019-11-01T10:35:48Z</time>
      </trkpt>
      <trkpt lat="44.86668" lon="5.7491">
        <ele>463.78</ele>
        <time>2019-11-01T10:35:49Z</time>
      </trkpt>
      <trkpt lat="44.86666" lon="5.74907">
        <ele>464.04</ele>
        <time>2019-11-01T10:35:50Z</time>
      </trkpt>
      <trkpt lat="44.86665" lon="5.74904">
        <ele>464.54</ele>
        <time>2019-11-01T10:35:51Z</time>
      </trkpt>
      <trkpt lat="44.86664" lon="5.74902">
        <ele>465.17</ele>
        <time>2019-11-01T10:35:52Z</time>
      </trkpt>
      <trkpt lat="44.86663" lon="5.74899">
        <ele>465.09</ele>
        <time>2019-11-01T10:35:53Z</time>
      </trkpt>
      <trkpt lat="44.86662" lon="5.74895">
        <ele>464.92</ele>
        <time>2019-11-01T10:35:54Z</time>
      </trkpt>
      <trkpt lat="44.86661" lon="5.74892">
        <ele>464.52</ele>
        <time>2019-11-01T10:35:55Z</time>
      </trkpt>
      <trkpt lat="44.86659" lon="5.74889">
        <ele>464.19</ele>
        <time>2019-11-01T10:35:56Z</time>
      </trkpt>
      <trkpt lat="44.86657" lon="5.74885">
        <ele>463.88</ele>
        <time>2019-11-01T10:35:57Z</time>
      </trkpt>
      <trkpt lat="44.86655" lon="5.74881">
        <ele>464</ele>
        <time>2019-11-01T10:35:58Z</time>
      </trkpt>
      <trkpt lat="44.86654" lon="5.74877">
        <ele>464.38</ele>
        <time>2019-11-01T10:35:59Z</time>
      </trkpt>
      <trkpt lat="44.86652" lon="5.74873">
        <ele>464.85</ele>
        <time>2019-11-01T10:36:00Z</time>
      </trkpt>
      <trkpt lat="44.86651" lon="5.74869">
        <ele>464.99</ele>
        <time>2019-11-01T10:36:01Z</time>
      </trkpt>
      <trkpt lat="44.8665" lon="5.74866">
        <ele>465.52</ele>
        <time>2019-11-01T10:36:02Z</time>
      </trkpt>
      <trkpt lat="44.86648" lon="5.74861">
        <ele>465.82</ele>
        <time>2019-11-01T10:36:03Z</time>
      </trkpt>
      <trkpt lat="44.86646" lon="5.74858">
        <ele>466.33</ele>
        <time>2019-11-01T10:36:04Z</time>
      </trkpt>
      <trkpt lat="44.86645" lon="5.74855">
        <ele>466.62</ele>
        <time>2019-11-01T10:36:05Z</time>
      </trkpt>
      <trkpt lat="44.86643" lon="5.74852">
        <ele>466.36</ele>
        <time>2019-11-01T10:36:06Z</time>
      </trkpt>
      <trkpt lat="44.86641" lon="5.74849">
        <ele>466.35</ele>
        <time>2019-11-01T10:36:07Z</time>
      </trkpt>
      <trkpt lat="44.86639" lon="5.74846">
        <ele>465.79</ele>
        <time>2019-11-01T10:36:08Z</time>
      </trkpt>
      <trkpt lat="44.86637" lon="5.74842">
        <ele>464.99</ele>
        <time>2019-11-01T10:36:09Z</time>
      </trkpt>
      <trkpt lat="44.86634" lon="5.74837">
        <ele>464.68</ele>
        <time>2019-11-01T10:36:10Z</time>
      </trkpt>
      <trkpt lat="44.86632" lon="5.74833">
        <ele>463.47</ele>
        <time>2019-11-01T10:36:11Z</time>
      </trkpt>
      <trkpt lat="44.8663" lon="5.7483">
        <ele>463.66</ele>
        <time>2019-11-01T10:36:12Z</time>
      </trkpt>
      <trkpt lat="44.86629" lon="5.74827">
        <ele>463.58</ele>
        <time>2019-11-01T10:36:13Z</time>
      </trkpt>
      <trkpt lat="44.86627" lon="5.74824">
        <ele>463.63</ele>
        <time>2019-11-01T10:36:14Z</time>
      </trkpt>
      <trkpt lat="44.86626" lon="5.74821">
        <ele>463.36</ele>
        <time>2019-11-01T10:36:15Z</time>
      </trkpt>
      <trkpt lat="44.86624" lon="5.74816">
        <ele>463</ele>
        <time>2019-11-01T10:36:16Z</time>
      </trkpt>
      <trkpt lat="44.86623" lon="5.74813">
        <ele>462.76</ele>
        <time>2019-11-01T10:36:17Z</time>
      </trkpt>
      <trkpt lat="44.86622" lon="5.7481">
        <ele>462.96</ele>
        <time>2019-11-01T10:36:18Z</time>
      </trkpt>
      <trkpt lat="44.8662" lon="5.74806">
        <ele>462.6</ele>
        <time>2019-11-01T10:36:19Z</time>
      </trkpt>
      <trkpt lat="44.86619" lon="5.74802">
        <ele>462.01</ele>
        <time>2019-11-01T10:36:20Z</time>
      </trkpt>
      <trkpt lat="44.86616" lon="5.74798">
        <ele>461.9</ele>
        <time>2019-11-01T10:36:21Z</time>
      </trkpt>
      <trkpt lat="44.86615" lon="5.74795">
        <ele>461.72</ele>
        <time>2019-11-01T10:36:22Z</time>
      </trkpt>
      <trkpt lat="44.86613" lon="5.74791">
        <ele>461.6</ele>
        <time>2019-11-01T10:36:23Z</time>
      </trkpt>
      <trkpt lat="44.86612" lon="5.74789">
        <ele>461.56</ele>
        <time>2019-11-01T10:36:24Z</time>
      </trkpt>
      <trkpt lat="44.8661" lon="5.74787">
        <ele>461.62</ele>
        <time>2019-11-01T10:36:25Z</time>
      </trkpt>
      <trkpt lat="44.86608" lon="5.74785">
        <ele>461.36</ele>
        <time>2019-11-01T10:36:26Z</time>
      </trkpt>
      <trkpt lat="44.86606" lon="5.74784">
        <ele>461.35</ele>
        <time>2019-11-01T10:36:27Z</time>
      </trkpt>
      <trkpt lat="44.86604" lon="5.74782">
        <ele>461.48</ele>
        <time>2019-11-01T10:36:29Z</time>
      </trkpt>
      <trkpt lat="44.86596" lon="5.74775">
        <ele>463.52</ele>
        <time>2019-11-01T10:36:58Z</time>
      </trkpt>
      <trkpt lat="44.86591" lon="5.74773">
        <ele>464.75</ele>
        <time>2019-11-01T10:37:11Z</time>
      </trkpt>
      <trkpt lat="44.86588" lon="5.74772">
        <ele>464.84</ele>
        <time>2019-11-01T10:37:13Z</time>
      </trkpt>
      <trkpt lat="44.86585" lon="5.74771">
        <ele>464.94</ele>
        <time>2019-11-01T10:37:15Z</time>
      </trkpt>
      <trkpt lat="44.86583" lon="5.74771">
        <ele>465.11</ele>
        <time>2019-11-01T10:37:17Z</time>
      </trkpt>
      <trkpt lat="44.8658" lon="5.74772">
        <ele>465.38</ele>
        <time>2019-11-01T10:37:19Z</time>
      </trkpt>
      <trkpt lat="44.86578" lon="5.74773">
        <ele>465.57</ele>
        <time>2019-11-01T10:37:20Z</time>
      </trkpt>
      <trkpt lat="44.86576" lon="5.74774">
        <ele>465.76</ele>
        <time>2019-11-01T10:37:21Z</time>
      </trkpt>
      <trkpt lat="44.86574" lon="5.74775">
        <ele>466.03</ele>
        <time>2019-11-01T10:37:22Z</time>
      </trkpt>
      <trkpt lat="44.86572" lon="5.74776">
        <ele>466.39</ele>
        <time>2019-11-01T10:37:23Z</time>
      </trkpt>
      <trkpt lat="44.8657" lon="5.74777">
        <ele>466.99</ele>
        <time>2019-11-01T10:37:24Z</time>
      </trkpt>
      <trkpt lat="44.86568" lon="5.74776">
        <ele>467.73</ele>
        <time>2019-11-01T10:37:25Z</time>
      </trkpt>
      <trkpt lat="44.86565" lon="5.74776">
        <ele>468.72</ele>
        <time>2019-11-01T10:37:26Z</time>
      </trkpt>
      <trkpt lat="44.86562" lon="5.74775">
        <ele>469.37</ele>
        <time>2019-11-01T10:37:27Z</time>
      </trkpt>
      <trkpt lat="44.8656" lon="5.74772">
        <ele>469.92</ele>
        <time>2019-11-01T10:37:28Z</time>
      </trkpt>
      <trkpt lat="44.86556" lon="5.7477">
        <ele>470.64</ele>
        <time>2019-11-01T10:37:29Z</time>
      </trkpt>
      <trkpt lat="44.86553" lon="5.74769">
        <ele>471.35</ele>
        <time>2019-11-01T10:37:30Z</time>
      </trkpt>
      <trkpt lat="44.8655" lon="5.74768">
        <ele>472.33</ele>
        <time>2019-11-01T10:37:31Z</time>
      </trkpt>
      <trkpt lat="44.86547" lon="5.74767">
        <ele>472.83</ele>
        <time>2019-11-01T10:37:32Z</time>
      </trkpt>
      <trkpt lat="44.86543" lon="5.74766">
        <ele>473.33</ele>
        <time>2019-11-01T10:37:33Z</time>
      </trkpt>
      <trkpt lat="44.86538" lon="5.74765">
        <ele>473.83</ele>
        <time>2019-11-01T10:37:34Z</time>
      </trkpt>
      <trkpt lat="44.86534" lon="5.74763">
        <ele>474.19</ele>
        <time>2019-11-01T10:37:35Z</time>
      </trkpt>
      <trkpt lat="44.8653" lon="5.74762">
        <ele>474.51</ele>
        <time>2019-11-01T10:37:36Z</time>
      </trkpt>
      <trkpt lat="44.86528" lon="5.74759">
        <ele>474.82</ele>
        <time>2019-11-01T10:37:37Z</time>
      </trkpt>
      <trkpt lat="44.86526" lon="5.74758">
        <ele>475.12</ele>
        <time>2019-11-01T10:37:38Z</time>
      </trkpt>
      <trkpt lat="44.86527" lon="5.74756">
        <ele>475.82</ele>
        <time>2019-11-01T10:37:41Z</time>
      </trkpt>
      <trkpt lat="44.86531" lon="5.74756">
        <ele>475.84</ele>
        <time>2019-11-01T10:37:42Z</time>
      </trkpt>
      <trkpt lat="44.86532" lon="5.74754">
        <ele>476.81</ele>
        <time>2019-11-01T10:37:44Z</time>
      </trkpt>
      <trkpt lat="44.86533" lon="5.74751">
        <ele>478.22</ele>
        <time>2019-11-01T10:37:48Z</time>
      </trkpt>
      <trkpt lat="44.86534" lon="5.74748">
        <ele>479.05</ele>
        <time>2019-11-01T10:37:51Z</time>
      </trkpt>
      <trkpt lat="44.86536" lon="5.74746">
        <ele>479.87</ele>
        <time>2019-11-01T10:37:53Z</time>
      </trkpt>
      <trkpt lat="44.86538" lon="5.74745">
        <ele>480.66</ele>
        <time>2019-11-01T10:37:55Z</time>
      </trkpt>
      <trkpt lat="44.8654" lon="5.74744">
        <ele>481.21</ele>
        <time>2019-11-01T10:37:56Z</time>
      </trkpt>
      <trkpt lat="44.86542" lon="5.74743">
        <ele>481.87</ele>
        <time>2019-11-01T10:37:57Z</time>
      </trkpt>
      <trkpt lat="44.86544" lon="5.74741">
        <ele>482.2</ele>
        <time>2019-11-01T10:37:58Z</time>
      </trkpt>
      <trkpt lat="44.86545" lon="5.74739">
        <ele>482.31</ele>
        <time>2019-11-01T10:37:59Z</time>
      </trkpt>
      <trkpt lat="44.86546" lon="5.74736">
        <ele>482.27</ele>
        <time>2019-11-01T10:38:00Z</time>
      </trkpt>
      <trkpt lat="44.86547" lon="5.74733">
        <ele>482.39</ele>
        <time>2019-11-01T10:38:01Z</time>
      </trkpt>
      <trkpt lat="44.86549" lon="5.74729">
        <ele>482.43</ele>
        <time>2019-11-01T10:38:02Z</time>
      </trkpt>
      <trkpt lat="44.86549" lon="5.74725">
        <ele>482.51</ele>
        <time>2019-11-01T10:38:03Z</time>
      </trkpt>
      <trkpt lat="44.8655" lon="5.74722">
        <ele>482.4</ele>
        <time>2019-11-01T10:38:04Z</time>
      </trkpt>
      <trkpt lat="44.86552" lon="5.7472">
        <ele>482.36</ele>
        <time>2019-11-01T10:38:05Z</time>
      </trkpt>
      <trkpt lat="44.86553" lon="5.74719">
        <ele>481.65</ele>
        <time>2019-11-01T10:38:06Z</time>
      </trkpt>
      <trkpt lat="44.86556" lon="5.74718">
        <ele>480.88</ele>
        <time>2019-11-01T10:38:07Z</time>
      </trkpt>
      <trkpt lat="44.86558" lon="5.74718">
        <ele>480.16</ele>
        <time>2019-11-01T10:38:08Z</time>
      </trkpt>
      <trkpt lat="44.86561" lon="5.74718">
        <ele>479.94</ele>
        <time>2019-11-01T10:38:09Z</time>
      </trkpt>
      <trkpt lat="44.86564" lon="5.74717">
        <ele>479.67</ele>
        <time>2019-11-01T10:38:10Z</time>
      </trkpt>
      <trkpt lat="44.86567" lon="5.74716">
        <ele>479.44</ele>
        <time>2019-11-01T10:38:11Z</time>
      </trkpt>
      <trkpt lat="44.8657" lon="5.74715">
        <ele>479.52</ele>
        <time>2019-11-01T10:38:12Z</time>
      </trkpt>
      <trkpt lat="44.86573" lon="5.74714">
        <ele>479.54</ele>
        <time>2019-11-01T10:38:13Z</time>
      </trkpt>
      <trkpt lat="44.86575" lon="5.74713">
        <ele>479.41</ele>
        <time>2019-11-01T10:38:14Z</time>
      </trkpt>
      <trkpt lat="44.86581" lon="5.74712">
        <ele>478.66</ele>
        <time>2019-11-01T10:38:55Z</time>
      </trkpt>
      <trkpt lat="44.86583" lon="5.74711">
        <ele>478.44</ele>
        <time>2019-11-01T10:38:56Z</time>
      </trkpt>
      <trkpt lat="44.86586" lon="5.74712">
        <ele>478.04</ele>
        <time>2019-11-01T10:38:58Z</time>
      </trkpt>
      <trkpt lat="44.86589" lon="5.74713">
        <ele>477.54</ele>
        <time>2019-11-01T10:39:00Z</time>
      </trkpt>
      <trkpt lat="44.86592" lon="5.74713">
        <ele>477.27</ele>
        <time>2019-11-01T10:39:01Z</time>
      </trkpt>
      <trkpt lat="44.86595" lon="5.74713">
        <ele>476.9</ele>
        <time>2019-11-01T10:39:02Z</time>
      </trkpt>
      <trkpt lat="44.86599" lon="5.74712">
        <ele>476.1</ele>
        <time>2019-11-01T10:39:03Z</time>
      </trkpt>
      <trkpt lat="44.86604" lon="5.7471">
        <ele>475.29</ele>
        <time>2019-11-01T10:39:04Z</time>
      </trkpt>
      <trkpt lat="44.86608" lon="5.74706">
        <ele>473.86</ele>
        <time>2019-11-01T10:39:05Z</time>
      </trkpt>
      <trkpt lat="44.86611" lon="5.747">
        <ele>472.38</ele>
        <time>2019-11-01T10:39:06Z</time>
      </trkpt>
      <trkpt lat="44.86613" lon="5.74695">
        <ele>471.1</ele>
        <time>2019-11-01T10:39:07Z</time>
      </trkpt>
      <trkpt lat="44.86615" lon="5.74689">
        <ele>470.01</ele>
        <time>2019-11-01T10:39:08Z</time>
      </trkpt>
      <trkpt lat="44.86616" lon="5.74682">
        <ele>468.85</ele>
        <time>2019-11-01T10:39:09Z</time>
      </trkpt>
      <trkpt lat="44.86616" lon="5.74674">
        <ele>467.87</ele>
        <time>2019-11-01T10:39:10Z</time>
      </trkpt>
      <trkpt lat="44.86616" lon="5.74668">
        <ele>466.87</ele>
        <time>2019-11-01T10:39:11Z</time>
      </trkpt>
      <trkpt lat="44.86615" lon="5.74662">
        <ele>465.88</ele>
        <time>2019-11-01T10:39:12Z</time>
      </trkpt>
      <trkpt lat="44.86612" lon="5.74657">
        <ele>464.74</ele>
        <time>2019-11-01T10:39:13Z</time>
      </trkpt>
      <trkpt lat="44.8661" lon="5.74653">
        <ele>463.84</ele>
        <time>2019-11-01T10:39:14Z</time>
      </trkpt>
      <trkpt lat="44.86608" lon="5.7465">
        <ele>463</ele>
        <time>2019-11-01T10:39:15Z</time>
      </trkpt>
      <trkpt lat="44.86606" lon="5.74647">
        <ele>462.2</ele>
        <time>2019-11-01T10:39:16Z</time>
      </trkpt>
      <trkpt lat="44.86604" lon="5.74644">
        <ele>461.53</ele>
        <time>2019-11-01T10:39:17Z</time>
      </trkpt>
      <trkpt lat="44.86603" lon="5.74641">
        <ele>460.98</ele>
        <time>2019-11-01T10:39:18Z</time>
      </trkpt>
      <trkpt lat="44.86601" lon="5.74639">
        <ele>460.19</ele>
        <time>2019-11-01T10:39:19Z</time>
      </trkpt>
      <trkpt lat="44.866" lon="5.74636">
        <ele>459.25</ele>
        <time>2019-11-01T10:39:20Z</time>
      </trkpt>
      <trkpt lat="44.86599" lon="5.74633">
        <ele>458.2</ele>
        <time>2019-11-01T10:39:21Z</time>
      </trkpt>
      <trkpt lat="44.86597" lon="5.7463">
        <ele>457.53</ele>
        <time>2019-11-01T10:39:22Z</time>
      </trkpt>
      <trkpt lat="44.86596" lon="5.74626">
        <ele>456.49</ele>
        <time>2019-11-01T10:39:23Z</time>
      </trkpt>
      <trkpt lat="44.86594" lon="5.74623">
        <ele>455.69</ele>
        <time>2019-11-01T10:39:24Z</time>
      </trkpt>
      <trkpt lat="44.86593" lon="5.74618">
        <ele>454.89</ele>
        <time>2019-11-01T10:39:25Z</time>
      </trkpt>
      <trkpt lat="44.86592" lon="5.74615">
        <ele>453.74</ele>
        <time>2019-11-01T10:39:26Z</time>
      </trkpt>
      <trkpt lat="44.86592" lon="5.74612">
        <ele>453.19</ele>
        <time>2019-11-01T10:39:27Z</time>
      </trkpt>
      <trkpt lat="44.86592" lon="5.74608">
        <ele>452.53</ele>
        <time>2019-11-01T10:39:28Z</time>
      </trkpt>
      <trkpt lat="44.86593" lon="5.74603">
        <ele>451.84</ele>
        <time>2019-11-01T10:39:29Z</time>
      </trkpt>
      <trkpt lat="44.86594" lon="5.74598">
        <ele>451.01</ele>
        <time>2019-11-01T10:39:30Z</time>
      </trkpt>
      <trkpt lat="44.86595" lon="5.74592">
        <ele>450.13</ele>
        <time>2019-11-01T10:39:31Z</time>
      </trkpt>
      <trkpt lat="44.86595" lon="5.74586">
        <ele>449.86</ele>
        <time>2019-11-01T10:39:32Z</time>
      </trkpt>
      <trkpt lat="44.86596" lon="5.7458">
        <ele>449.5</ele>
        <time>2019-11-01T10:39:33Z</time>
      </trkpt>
      <trkpt lat="44.86596" lon="5.74575">
        <ele>449.12</ele>
        <time>2019-11-01T10:39:34Z</time>
      </trkpt>
      <trkpt lat="44.86597" lon="5.7457">
        <ele>448.72</ele>
        <time>2019-11-01T10:39:35Z</time>
      </trkpt>
      <trkpt lat="44.86597" lon="5.74566">
        <ele>448.04</ele>
        <time>2019-11-01T10:39:36Z</time>
      </trkpt>
      <trkpt lat="44.86597" lon="5.74562">
        <ele>447.28</ele>
        <time>2019-11-01T10:39:37Z</time>
      </trkpt>
      <trkpt lat="44.86597" lon="5.74559">
        <ele>446.56</ele>
        <time>2019-11-01T10:39:38Z</time>
      </trkpt>
      <trkpt lat="44.86596" lon="5.74556">
        <ele>445.92</ele>
        <time>2019-11-01T10:39:39Z</time>
      </trkpt>
      <trkpt lat="44.86595" lon="5.74552">
        <ele>445.38</ele>
        <time>2019-11-01T10:39:40Z</time>
      </trkpt>
      <trkpt lat="44.86594" lon="5.74549">
        <ele>444.8</ele>
        <time>2019-11-01T10:39:41Z</time>
      </trkpt>
      <trkpt lat="44.86594" lon="5.74546">
        <ele>444.41</ele>
        <time>2019-11-01T10:39:42Z</time>
      </trkpt>
      <trkpt lat="44.86593" lon="5.74543">
        <ele>444.16</ele>
        <time>2019-11-01T10:39:43Z</time>
      </trkpt>
      <trkpt lat="44.86593" lon="5.7454">
        <ele>443.94</ele>
        <time>2019-11-01T10:39:44Z</time>
      </trkpt>
      <trkpt lat="44.86592" lon="5.74536">
        <ele>443.88</ele>
        <time>2019-11-01T10:39:45Z</time>
      </trkpt>
      <trkpt lat="44.86592" lon="5.74533">
        <ele>443.51</ele>
        <time>2019-11-01T10:39:46Z</time>
      </trkpt>
      <trkpt lat="44.8659" lon="5.74528">
        <ele>443.4</ele>
        <time>2019-11-01T10:39:47Z</time>
      </trkpt>
      <trkpt lat="44.8659" lon="5.74524">
        <ele>443.36</ele>
        <time>2019-11-01T10:39:48Z</time>
      </trkpt>
      <trkpt lat="44.8659" lon="5.74519">
        <ele>443.49</ele>
        <time>2019-11-01T10:39:49Z</time>
      </trkpt>
      <trkpt lat="44.86589" lon="5.74516">
        <ele>443.46</ele>
        <time>2019-11-01T10:39:50Z</time>
      </trkpt>
      <trkpt lat="44.8659" lon="5.74511">
        <ele>443.45</ele>
        <time>2019-11-01T10:39:51Z</time>
      </trkpt>
      <trkpt lat="44.86589" lon="5.74506">
        <ele>443.38</ele>
        <time>2019-11-01T10:39:52Z</time>
      </trkpt>
      <trkpt lat="44.86589" lon="5.74503">
        <ele>443.36</ele>
        <time>2019-11-01T10:39:53Z</time>
      </trkpt>
      <trkpt lat="44.86589" lon="5.74498">
        <ele>443.49</ele>
        <time>2019-11-01T10:39:54Z</time>
      </trkpt>
      <trkpt lat="44.86589" lon="5.74495">
        <ele>443.74</ele>
        <time>2019-11-01T10:39:55Z</time>
      </trkpt>
      <trkpt lat="44.8659" lon="5.74491">
        <ele>444.94</ele>
        <time>2019-11-01T10:39:56Z</time>
      </trkpt>
      <trkpt lat="44.8659" lon="5.74487">
        <ele>446</ele>
        <time>2019-11-01T10:39:57Z</time>
      </trkpt>
      <trkpt lat="44.8659" lon="5.74484">
        <ele>447.01</ele>
        <time>2019-11-01T10:39:58Z</time>
      </trkpt>
      <trkpt lat="44.86591" lon="5.74481">
        <ele>447.95</ele>
        <time>2019-11-01T10:39:59Z</time>
      </trkpt>
      <trkpt lat="44.86593" lon="5.74476">
        <ele>449.3</ele>
        <time>2019-11-01T10:40:01Z</time>
      </trkpt>
      <trkpt lat="44.86594" lon="5.74473">
        <ele>449.61</ele>
        <time>2019-11-01T10:40:02Z</time>
      </trkpt>
      <trkpt lat="44.86595" lon="5.7447">
        <ele>449.92</ele>
        <time>2019-11-01T10:40:03Z</time>
      </trkpt>
      <trkpt lat="44.86597" lon="5.74467">
        <ele>450.22</ele>
        <time>2019-11-01T10:40:04Z</time>
      </trkpt>
      <trkpt lat="44.86599" lon="5.74464">
        <ele>450.52</ele>
        <time>2019-11-01T10:40:05Z</time>
      </trkpt>
      <trkpt lat="44.86601" lon="5.74461">
        <ele>450.96</ele>
        <time>2019-11-01T10:40:06Z</time>
      </trkpt>
      <trkpt lat="44.86602" lon="5.74458">
        <ele>451.23</ele>
        <time>2019-11-01T10:40:07Z</time>
      </trkpt>
      <trkpt lat="44.86604" lon="5.74455">
        <ele>451.52</ele>
        <time>2019-11-01T10:40:08Z</time>
      </trkpt>
      <trkpt lat="44.86605" lon="5.74451">
        <ele>452.17</ele>
        <time>2019-11-01T10:40:09Z</time>
      </trkpt>
      <trkpt lat="44.86606" lon="5.74448">
        <ele>452.86</ele>
        <time>2019-11-01T10:40:10Z</time>
      </trkpt>
      <trkpt lat="44.86608" lon="5.74444">
        <ele>453.27</ele>
        <time>2019-11-01T10:40:11Z</time>
      </trkpt>
      <trkpt lat="44.86609" lon="5.74442">
        <ele>454.24</ele>
        <time>2019-11-01T10:40:12Z</time>
      </trkpt>
      <trkpt lat="44.8661" lon="5.74439">
        <ele>455.22</ele>
        <time>2019-11-01T10:40:13Z</time>
      </trkpt>
      <trkpt lat="44.86611" lon="5.74436">
        <ele>455.94</ele>
        <time>2019-11-01T10:40:14Z</time>
      </trkpt>
      <trkpt lat="44.86612" lon="5.74433">
        <ele>456.44</ele>
        <time>2019-11-01T10:40:15Z</time>
      </trkpt>
      <trkpt lat="44.86613" lon="5.74429">
        <ele>457.08</ele>
        <time>2019-11-01T10:40:16Z</time>
      </trkpt>
      <trkpt lat="44.86613" lon="5.74425">
        <ele>457.41</ele>
        <time>2019-11-01T10:40:17Z</time>
      </trkpt>
      <trkpt lat="44.86614" lon="5.74422">
        <ele>457.93</ele>
        <time>2019-11-01T10:40:18Z</time>
      </trkpt>
      <trkpt lat="44.86614" lon="5.74418">
        <ele>458.64</ele>
        <time>2019-11-01T10:40:19Z</time>
      </trkpt>
      <trkpt lat="44.86614" lon="5.74415">
        <ele>459.14</ele>
        <time>2019-11-01T10:40:20Z</time>
      </trkpt>
      <trkpt lat="44.86615" lon="5.74411">
        <ele>459.71</ele>
        <time>2019-11-01T10:40:21Z</time>
      </trkpt>
      <trkpt lat="44.86616" lon="5.74407">
        <ele>460.44</ele>
        <time>2019-11-01T10:40:22Z</time>
      </trkpt>
      <trkpt lat="44.86616" lon="5.74404">
        <ele>461.08</ele>
        <time>2019-11-01T10:40:23Z</time>
      </trkpt>
      <trkpt lat="44.86616" lon="5.74401">
        <ele>461.55</ele>
        <time>2019-11-01T10:40:24Z</time>
      </trkpt>
      <trkpt lat="44.86616" lon="5.74398">
        <ele>461.97</ele>
        <time>2019-11-01T10:40:25Z</time>
      </trkpt>
      <trkpt lat="44.86617" lon="5.74395">
        <ele>462.44</ele>
        <time>2019-11-01T10:40:26Z</time>
      </trkpt>
      <trkpt lat="44.86617" lon="5.74392">
        <ele>462.87</ele>
        <time>2019-11-01T10:40:27Z</time>
      </trkpt>
      <trkpt lat="44.86617" lon="5.74388">
        <ele>463.13</ele>
        <time>2019-11-01T10:40:28Z</time>
      </trkpt>
      <trkpt lat="44.86618" lon="5.74385">
        <ele>463.42</ele>
        <time>2019-11-01T10:40:29Z</time>
      </trkpt>
      <trkpt lat="44.86619" lon="5.74381">
        <ele>463.72</ele>
        <time>2019-11-01T10:40:30Z</time>
      </trkpt>
      <trkpt lat="44.8662" lon="5.74378">
        <ele>463.81</ele>
        <time>2019-11-01T10:40:31Z</time>
      </trkpt>
      <trkpt lat="44.86621" lon="5.74374">
        <ele>463.77</ele>
        <time>2019-11-01T10:40:32Z</time>
      </trkpt>
      <trkpt lat="44.86622" lon="5.74371">
        <ele>463.82</ele>
        <time>2019-11-01T10:40:33Z</time>
      </trkpt>
      <trkpt lat="44.86622" lon="5.74367">
        <ele>463.56</ele>
        <time>2019-11-01T10:40:34Z</time>
      </trkpt>
      <trkpt lat="44.86623" lon="5.74364">
        <ele>463.62</ele>
        <time>2019-11-01T10:40:35Z</time>
      </trkpt>
      <trkpt lat="44.86624" lon="5.74361">
        <ele>463.99</ele>
        <time>2019-11-01T10:40:36Z</time>
      </trkpt>
      <trkpt lat="44.86625" lon="5.74358">
        <ele>464.17</ele>
        <time>2019-11-01T10:40:37Z</time>
      </trkpt>
      <trkpt lat="44.86625" lon="5.74355">
        <ele>464.65</ele>
        <time>2019-11-01T10:40:38Z</time>
      </trkpt>
      <trkpt lat="44.86626" lon="5.74352">
        <ele>465.07</ele>
        <time>2019-11-01T10:40:39Z</time>
      </trkpt>
      <trkpt lat="44.86626" lon="5.74349">
        <ele>465.33</ele>
        <time>2019-11-01T10:40:40Z</time>
      </trkpt>
      <trkpt lat="44.86627" lon="5.74346">
        <ele>465.13</ele>
        <time>2019-11-01T10:40:41Z</time>
      </trkpt>
      <trkpt lat="44.86628" lon="5.74343">
        <ele>465.42</ele>
        <time>2019-11-01T10:40:42Z</time>
      </trkpt>
      <trkpt lat="44.86628" lon="5.74339">
        <ele>465.72</ele>
        <time>2019-11-01T10:40:43Z</time>
      </trkpt>
      <trkpt lat="44.86629" lon="5.74336">
        <ele>465.95</ele>
        <time>2019-11-01T10:40:44Z</time>
      </trkpt>
      <trkpt lat="44.86629" lon="5.74333">
        <ele>466.09</ele>
        <time>2019-11-01T10:40:45Z</time>
      </trkpt>
      <trkpt lat="44.8663" lon="5.74329">
        <ele>466.06</ele>
        <time>2019-11-01T10:40:46Z</time>
      </trkpt>
      <trkpt lat="44.8663" lon="5.74325">
        <ele>465.98</ele>
        <time>2019-11-01T10:40:47Z</time>
      </trkpt>
      <trkpt lat="44.86631" lon="5.74322">
        <ele>466.38</ele>
        <time>2019-11-01T10:40:48Z</time>
      </trkpt>
      <trkpt lat="44.86632" lon="5.74319">
        <ele>466.71</ele>
        <time>2019-11-01T10:40:49Z</time>
      </trkpt>
      <trkpt lat="44.86632" lon="5.74315">
        <ele>467.16</ele>
        <time>2019-11-01T10:40:50Z</time>
      </trkpt>
      <trkpt lat="44.86633" lon="5.74311">
        <ele>467.15</ele>
        <time>2019-11-01T10:40:51Z</time>
      </trkpt>
      <trkpt lat="44.86633" lon="5.74307">
        <ele>466.94</ele>
        <time>2019-11-01T10:40:52Z</time>
      </trkpt>
      <trkpt lat="44.86633" lon="5.74303">
        <ele>466.6</ele>
        <time>2019-11-01T10:40:53Z</time>
      </trkpt>
      <trkpt lat="44.86633" lon="5.74298">
        <ele>466.28</ele>
        <time>2019-11-01T10:40:54Z</time>
      </trkpt>
      <trkpt lat="44.86633" lon="5.74293">
        <ele>465.91</ele>
        <time>2019-11-01T10:40:55Z</time>
      </trkpt>
      <trkpt lat="44.86633" lon="5.74289">
        <ele>465.31</ele>
        <time>2019-11-01T10:40:56Z</time>
      </trkpt>
      <trkpt lat="44.86633" lon="5.74285">
        <ele>464.57</ele>
        <time>2019-11-01T10:40:57Z</time>
      </trkpt>
      <trkpt lat="44.86632" lon="5.7428">
        <ele>463.99</ele>
        <time>2019-11-01T10:40:58Z</time>
      </trkpt>
      <trkpt lat="44.86631" lon="5.74275">
        <ele>463.33</ele>
        <time>2019-11-01T10:40:59Z</time>
      </trkpt>
      <trkpt lat="44.8663" lon="5.74269">
        <ele>462.85</ele>
        <time>2019-11-01T10:41:00Z</time>
      </trkpt>
      <trkpt lat="44.86629" lon="5.74262">
        <ele>461.73</ele>
        <time>2019-11-01T10:41:01Z</time>
      </trkpt>
      <trkpt lat="44.86629" lon="5.74257">
        <ele>461.18</ele>
        <time>2019-11-01T10:41:02Z</time>
      </trkpt>
      <trkpt lat="44.86628" lon="5.7425">
        <ele>460.18</ele>
        <time>2019-11-01T10:41:03Z</time>
      </trkpt>
      <trkpt lat="44.86628" lon="5.74243">
        <ele>459.6</ele>
        <time>2019-11-01T10:41:04Z</time>
      </trkpt>
      <trkpt lat="44.86627" lon="5.74239">
        <ele>459.28</ele>
        <time>2019-11-01T10:41:05Z</time>
      </trkpt>
      <trkpt lat="44.86626" lon="5.74233">
        <ele>458.7</ele>
        <time>2019-11-01T10:41:06Z</time>
      </trkpt>
      <trkpt lat="44.86625" lon="5.74229">
        <ele>458.45</ele>
        <time>2019-11-01T10:41:07Z</time>
      </trkpt>
      <trkpt lat="44.86624" lon="5.74226">
        <ele>458.24</ele>
        <time>2019-11-01T10:41:08Z</time>
      </trkpt>
      <trkpt lat="44.86623" lon="5.74223">
        <ele>458.25</ele>
        <time>2019-11-01T10:41:09Z</time>
      </trkpt>
      <trkpt lat="44.86622" lon="5.74221">
        <ele>458.04</ele>
        <time>2019-11-01T10:41:10Z</time>
      </trkpt>
      <trkpt lat="44.86621" lon="5.74218">
        <ele>458.33</ele>
        <time>2019-11-01T10:41:11Z</time>
      </trkpt>
      <trkpt lat="44.8662" lon="5.74216">
        <ele>458.41</ele>
        <time>2019-11-01T10:41:12Z</time>
      </trkpt>
      <trkpt lat="44.86619" lon="5.74214">
        <ele>458.51</ele>
        <time>2019-11-01T10:41:13Z</time>
      </trkpt>
      <trkpt lat="44.86617" lon="5.7421">
        <ele>457.88</ele>
        <time>2019-11-01T10:41:15Z</time>
      </trkpt>
      <trkpt lat="44.86616" lon="5.74209">
        <ele>457.79</ele>
        <time>2019-11-01T10:41:16Z</time>
      </trkpt>
      <trkpt lat="44.86615" lon="5.74206">
        <ele>457.48</ele>
        <time>2019-11-01T10:41:17Z</time>
      </trkpt>
      <trkpt lat="44.86615" lon="5.742">
        <ele>457.04</ele>
        <time>2019-11-01T10:41:18Z</time>
      </trkpt>
      <trkpt lat="44.86615" lon="5.74196">
        <ele>456.63</ele>
        <time>2019-11-01T10:41:19Z</time>
      </trkpt>
      <trkpt lat="44.86614" lon="5.74193">
        <ele>456.43</ele>
        <time>2019-11-01T10:41:20Z</time>
      </trkpt>
      <trkpt lat="44.86612" lon="5.7419">
        <ele>456.58</ele>
        <time>2019-11-01T10:41:21Z</time>
      </trkpt>
      <trkpt lat="44.86611" lon="5.74187">
        <ele>456.63</ele>
        <time>2019-11-01T10:41:22Z</time>
      </trkpt>
      <trkpt lat="44.86609" lon="5.74184">
        <ele>456.71</ele>
        <time>2019-11-01T10:41:23Z</time>
      </trkpt>
      <trkpt lat="44.86609" lon="5.74181">
        <ele>456.39</ele>
        <time>2019-11-01T10:41:24Z</time>
      </trkpt>
      <trkpt lat="44.86608" lon="5.74179">
        <ele>455.94</ele>
        <time>2019-11-01T10:41:25Z</time>
      </trkpt>
      <trkpt lat="44.86607" lon="5.74174">
        <ele>455.46</ele>
        <time>2019-11-01T10:41:26Z</time>
      </trkpt>
      <trkpt lat="44.86604" lon="5.74169">
        <ele>455.24</ele>
        <time>2019-11-01T10:41:27Z</time>
      </trkpt>
      <trkpt lat="44.86602" lon="5.74166">
        <ele>454.83</ele>
        <time>2019-11-01T10:41:28Z</time>
      </trkpt>
      <trkpt lat="44.86601" lon="5.74163">
        <ele>454.56</ele>
        <time>2019-11-01T10:41:29Z</time>
      </trkpt>
      <trkpt lat="44.866" lon="5.74159">
        <ele>454.27</ele>
        <time>2019-11-01T10:41:30Z</time>
      </trkpt>
      <trkpt lat="44.86599" lon="5.74156">
        <ele>453.84</ele>
        <time>2019-11-01T10:41:31Z</time>
      </trkpt>
      <trkpt lat="44.86597" lon="5.74153">
        <ele>453.29</ele>
        <time>2019-11-01T10:41:32Z</time>
      </trkpt>
      <trkpt lat="44.86596" lon="5.7415">
        <ele>452.63</ele>
        <time>2019-11-01T10:41:33Z</time>
      </trkpt>
      <trkpt lat="44.86595" lon="5.74148">
        <ele>452.15</ele>
        <time>2019-11-01T10:41:34Z</time>
      </trkpt>
      <trkpt lat="44.86592" lon="5.74145">
        <ele>451.73</ele>
        <time>2019-11-01T10:41:35Z</time>
      </trkpt>
      <trkpt lat="44.86588" lon="5.74141">
        <ele>452.02</ele>
        <time>2019-11-01T10:41:36Z</time>
      </trkpt>
      <trkpt lat="44.86586" lon="5.74139">
        <ele>451.2</ele>
        <time>2019-11-01T10:41:37Z</time>
      </trkpt>
      <trkpt lat="44.86583" lon="5.74137">
        <ele>450.53</ele>
        <time>2019-11-01T10:41:38Z</time>
      </trkpt>
      <trkpt lat="44.86581" lon="5.74135">
        <ele>449.7</ele>
        <time>2019-11-01T10:41:39Z</time>
      </trkpt>
      <trkpt lat="44.8658" lon="5.74133">
        <ele>449.32</ele>
        <time>2019-11-01T10:41:40Z</time>
      </trkpt>
      <trkpt lat="44.86578" lon="5.7413">
        <ele>448.85</ele>
        <time>2019-11-01T10:41:41Z</time>
      </trkpt>
      <trkpt lat="44.86577" lon="5.74126">
        <ele>447.95</ele>
        <time>2019-11-01T10:41:43Z</time>
      </trkpt>
      <trkpt lat="44.86577" lon="5.74123">
        <ele>447.67</ele>
        <time>2019-11-01T10:41:44Z</time>
      </trkpt>
      <trkpt lat="44.86577" lon="5.74119">
        <ele>447.74</ele>
        <time>2019-11-01T10:41:46Z</time>
      </trkpt>
      <trkpt lat="44.86579" lon="5.74115">
        <ele>447.59</ele>
        <time>2019-11-01T10:41:48Z</time>
      </trkpt>
      <trkpt lat="44.8658" lon="5.74112">
        <ele>447.53</ele>
        <time>2019-11-01T10:41:50Z</time>
      </trkpt>
      <trkpt lat="44.86583" lon="5.74108">
        <ele>447.78</ele>
        <time>2019-11-01T10:41:52Z</time>
      </trkpt>
      <trkpt lat="44.86585" lon="5.74106">
        <ele>448.35</ele>
        <time>2019-11-01T10:41:54Z</time>
      </trkpt>
      <trkpt lat="44.86586" lon="5.74105">
        <ele>449.41</ele>
        <time>2019-11-01T10:41:56Z</time>
      </trkpt>
      <trkpt lat="44.86588" lon="5.74104">
        <ele>450.98</ele>
        <time>2019-11-01T10:41:58Z</time>
      </trkpt>
      <trkpt lat="44.8659" lon="5.74103">
        <ele>451.78</ele>
        <time>2019-11-01T10:42:00Z</time>
      </trkpt>
      <trkpt lat="44.86592" lon="5.74101">
        <ele>453.22</ele>
        <time>2019-11-01T10:42:02Z</time>
      </trkpt>
      <trkpt lat="44.86592" lon="5.74098">
        <ele>453.66</ele>
        <time>2019-11-01T10:42:04Z</time>
      </trkpt>
      <trkpt lat="44.86591" lon="5.74095">
        <ele>454.37</ele>
        <time>2019-11-01T10:42:06Z</time>
      </trkpt>
      <trkpt lat="44.86592" lon="5.74092">
        <ele>455.38</ele>
        <time>2019-11-01T10:42:08Z</time>
      </trkpt>
      <trkpt lat="44.8659" lon="5.7409">
        <ele>455.83</ele>
        <time>2019-11-01T10:42:10Z</time>
      </trkpt>
      <trkpt lat="44.86589" lon="5.74088">
        <ele>456.58</ele>
        <time>2019-11-01T10:42:12Z</time>
      </trkpt>
      <trkpt lat="44.86586" lon="5.74083">
        <ele>458.19</ele>
        <time>2019-11-01T10:42:14Z</time>
      </trkpt>
      <trkpt lat="44.86586" lon="5.74079">
        <ele>459.23</ele>
        <time>2019-11-01T10:42:16Z</time>
      </trkpt>
      <trkpt lat="44.86585" lon="5.74074">
        <ele>459.87</ele>
        <time>2019-11-01T10:42:18Z</time>
      </trkpt>
      <trkpt lat="44.86585" lon="5.7407">
        <ele>460.84</ele>
        <time>2019-11-01T10:42:20Z</time>
      </trkpt>
      <trkpt lat="44.86585" lon="5.74057">
        <ele>464.7</ele>
        <time>2019-11-01T10:42:28Z</time>
      </trkpt>
      <trkpt lat="44.86586" lon="5.74053">
        <ele>467.4</ele>
        <time>2019-11-01T10:42:30Z</time>
      </trkpt>
      <trkpt lat="44.86586" lon="5.7405">
        <ele>468.45</ele>
        <time>2019-11-01T10:42:32Z</time>
      </trkpt>
      <trkpt lat="44.86586" lon="5.74044">
        <ele>470.33</ele>
        <time>2019-11-01T10:42:35Z</time>
      </trkpt>
      <trkpt lat="44.86586" lon="5.74041">
        <ele>472.11</ele>
        <time>2019-11-01T10:42:37Z</time>
      </trkpt>
      <trkpt lat="44.86587" lon="5.74037">
        <ele>473.2</ele>
        <time>2019-11-01T10:42:39Z</time>
      </trkpt>
      <trkpt lat="44.86589" lon="5.74034">
        <ele>474.48</ele>
        <time>2019-11-01T10:42:41Z</time>
      </trkpt>
      <trkpt lat="44.86589" lon="5.7403">
        <ele>475.62</ele>
        <time>2019-11-01T10:42:43Z</time>
      </trkpt>
      <trkpt lat="44.8659" lon="5.74026">
        <ele>477.24</ele>
        <time>2019-11-01T10:42:45Z</time>
      </trkpt>
      <trkpt lat="44.86591" lon="5.74022">
        <ele>478.28</ele>
        <time>2019-11-01T10:42:47Z</time>
      </trkpt>
      <trkpt lat="44.86592" lon="5.74019">
        <ele>479.24</ele>
        <time>2019-11-01T10:42:49Z</time>
      </trkpt>
      <trkpt lat="44.86592" lon="5.74014">
        <ele>480.21</ele>
        <time>2019-11-01T10:42:51Z</time>
      </trkpt>
      <trkpt lat="44.86591" lon="5.7401">
        <ele>481.07</ele>
        <time>2019-11-01T10:42:53Z</time>
      </trkpt>
      <trkpt lat="44.8659" lon="5.74006">
        <ele>481.88</ele>
        <time>2019-11-01T10:42:55Z</time>
      </trkpt>
      <trkpt lat="44.8659" lon="5.74003">
        <ele>482.28</ele>
        <time>2019-11-01T10:42:56Z</time>
      </trkpt>
      <trkpt lat="44.86589" lon="5.73998">
        <ele>482.62</ele>
        <time>2019-11-01T10:42:58Z</time>
      </trkpt>
      <trkpt lat="44.86589" lon="5.73995">
        <ele>482.78</ele>
        <time>2019-11-01T10:42:59Z</time>
      </trkpt>
      <trkpt lat="44.86589" lon="5.73992">
        <ele>482.9</ele>
        <time>2019-11-01T10:43:00Z</time>
      </trkpt>
      <trkpt lat="44.86588" lon="5.73989">
        <ele>482.79</ele>
        <time>2019-11-01T10:43:01Z</time>
      </trkpt>
      <trkpt lat="44.86587" lon="5.73986">
        <ele>482.76</ele>
        <time>2019-11-01T10:43:02Z</time>
      </trkpt>
      <trkpt lat="44.86586" lon="5.73983">
        <ele>482.75</ele>
        <time>2019-11-01T10:43:03Z</time>
      </trkpt>
      <trkpt lat="44.86586" lon="5.7398">
        <ele>482.68</ele>
        <time>2019-11-01T10:43:04Z</time>
      </trkpt>
      <trkpt lat="44.86585" lon="5.73976">
        <ele>482.59</ele>
        <time>2019-11-01T10:43:05Z</time>
      </trkpt>
      <trkpt lat="44.86583" lon="5.73973">
        <ele>482.63</ele>
        <time>2019-11-01T10:43:06Z</time>
      </trkpt>
      <trkpt lat="44.86582" lon="5.73969">
        <ele>482.85</ele>
        <time>2019-11-01T10:43:07Z</time>
      </trkpt>
      <trkpt lat="44.86581" lon="5.73966">
        <ele>482.92</ele>
        <time>2019-11-01T10:43:08Z</time>
      </trkpt>
      <trkpt lat="44.8658" lon="5.73963">
        <ele>482.87</ele>
        <time>2019-11-01T10:43:09Z</time>
      </trkpt>
      <trkpt lat="44.86579" lon="5.7396">
        <ele>482.58</ele>
        <time>2019-11-01T10:43:10Z</time>
      </trkpt>
      <trkpt lat="44.86578" lon="5.73957">
        <ele>482.49</ele>
        <time>2019-11-01T10:43:11Z</time>
      </trkpt>
      <trkpt lat="44.86577" lon="5.73954">
        <ele>482.95</ele>
        <time>2019-11-01T10:43:12Z</time>
      </trkpt>
      <trkpt lat="44.86576" lon="5.73951">
        <ele>483.09</ele>
        <time>2019-11-01T10:43:13Z</time>
      </trkpt>
      <trkpt lat="44.86574" lon="5.73948">
        <ele>483.06</ele>
        <time>2019-11-01T10:43:14Z</time>
      </trkpt>
      <trkpt lat="44.86573" lon="5.73945">
        <ele>483.05</ele>
        <time>2019-11-01T10:43:15Z</time>
      </trkpt>
      <trkpt lat="44.86572" lon="5.73942">
        <ele>483.12</ele>
        <time>2019-11-01T10:43:16Z</time>
      </trkpt>
      <trkpt lat="44.86571" lon="5.7394">
        <ele>482.93</ele>
        <time>2019-11-01T10:43:17Z</time>
      </trkpt>
      <trkpt lat="44.8657" lon="5.73937">
        <ele>482.73</ele>
        <time>2019-11-01T10:43:18Z</time>
      </trkpt>
      <trkpt lat="44.86569" lon="5.73934">
        <ele>482.67</ele>
        <time>2019-11-01T10:43:19Z</time>
      </trkpt>
      <trkpt lat="44.86567" lon="5.73931">
        <ele>482.59</ele>
        <time>2019-11-01T10:43:20Z</time>
      </trkpt>
      <trkpt lat="44.86566" lon="5.73928">
        <ele>482.63</ele>
        <time>2019-11-01T10:43:21Z</time>
      </trkpt>
      <trkpt lat="44.86564" lon="5.73926">
        <ele>482.78</ele>
        <time>2019-11-01T10:43:22Z</time>
      </trkpt>
      <trkpt lat="44.86563" lon="5.73924">
        <ele>483.11</ele>
        <time>2019-11-01T10:43:23Z</time>
      </trkpt>
      <trkpt lat="44.86562" lon="5.73922">
        <ele>483.42</ele>
        <time>2019-11-01T10:43:24Z</time>
      </trkpt>
      <trkpt lat="44.8656" lon="5.73918">
        <ele>483.81</ele>
        <time>2019-11-01T10:43:26Z</time>
      </trkpt>
      <trkpt lat="44.86558" lon="5.73915">
        <ele>483.92</ele>
        <time>2019-11-01T10:43:28Z</time>
      </trkpt>
      <trkpt lat="44.86557" lon="5.73912">
        <ele>484.15</ele>
        <time>2019-11-01T10:43:29Z</time>
      </trkpt>
      <trkpt lat="44.86555" lon="5.73908">
        <ele>484.13</ele>
        <time>2019-11-01T10:43:31Z</time>
      </trkpt>
      <trkpt lat="44.86554" lon="5.73905">
        <ele>484.07</ele>
        <time>2019-11-01T10:43:32Z</time>
      </trkpt>
      <trkpt lat="44.86553" lon="5.73903">
        <ele>483.92</ele>
        <time>2019-11-01T10:43:33Z</time>
      </trkpt>
      <trkpt lat="44.86552" lon="5.739">
        <ele>483.66</ele>
        <time>2019-11-01T10:43:34Z</time>
      </trkpt>
      <trkpt lat="44.8655" lon="5.73897">
        <ele>483.65</ele>
        <time>2019-11-01T10:43:35Z</time>
      </trkpt>
      <trkpt lat="44.86549" lon="5.73894">
        <ele>483.79</ele>
        <time>2019-11-01T10:43:36Z</time>
      </trkpt>
      <trkpt lat="44.86548" lon="5.73891">
        <ele>484.11</ele>
        <time>2019-11-01T10:43:37Z</time>
      </trkpt>
      <trkpt lat="44.86547" lon="5.73889">
        <ele>484.42</ele>
        <time>2019-11-01T10:43:38Z</time>
      </trkpt>
      <trkpt lat="44.86546" lon="5.73886">
        <ele>484.51</ele>
        <time>2019-11-01T10:43:39Z</time>
      </trkpt>
      <trkpt lat="44.86545" lon="5.73883">
        <ele>484.68</ele>
        <time>2019-11-01T10:43:40Z</time>
      </trkpt>
      <trkpt lat="44.86544" lon="5.73881">
        <ele>485.01</ele>
        <time>2019-11-01T10:43:41Z</time>
      </trkpt>
      <trkpt lat="44.86543" lon="5.73878">
        <ele>485.74</ele>
        <time>2019-11-01T10:43:42Z</time>
      </trkpt>
      <trkpt lat="44.86541" lon="5.73875">
        <ele>486.52</ele>
        <time>2019-11-01T10:43:43Z</time>
      </trkpt>
      <trkpt lat="44.8654" lon="5.73873">
        <ele>486.89</ele>
        <time>2019-11-01T10:43:44Z</time>
      </trkpt>
      <trkpt lat="44.86538" lon="5.73871">
        <ele>486.72</ele>
        <time>2019-11-01T10:43:45Z</time>
      </trkpt>
      <trkpt lat="44.86537" lon="5.73869">
        <ele>486.39</ele>
        <time>2019-11-01T10:43:46Z</time>
      </trkpt>
      <trkpt lat="44.86535" lon="5.73868">
        <ele>486.29</ele>
        <time>2019-11-01T10:43:47Z</time>
      </trkpt>
      <trkpt lat="44.86534" lon="5.73866">
        <ele>486.4</ele>
        <time>2019-11-01T10:43:48Z</time>
      </trkpt>
      <trkpt lat="44.86532" lon="5.73865">
        <ele>486.57</ele>
        <time>2019-11-01T10:43:49Z</time>
      </trkpt>
      <trkpt lat="44.86529" lon="5.73863">
        <ele>486.59</ele>
        <time>2019-11-01T10:43:51Z</time>
      </trkpt>
      <trkpt lat="44.86527" lon="5.73862">
        <ele>486.56</ele>
        <time>2019-11-01T10:43:52Z</time>
      </trkpt>
      <trkpt lat="44.86525" lon="5.73861">
        <ele>486.55</ele>
        <time>2019-11-01T10:43:53Z</time>
      </trkpt>
      <trkpt lat="44.86523" lon="5.7386">
        <ele>486.69</ele>
        <time>2019-11-01T10:43:54Z</time>
      </trkpt>
      <trkpt lat="44.86521" lon="5.7386">
        <ele>486.87</ele>
        <time>2019-11-01T10:43:55Z</time>
      </trkpt>
      <trkpt lat="44.86519" lon="5.73859">
        <ele>487.42</ele>
        <time>2019-11-01T10:43:56Z</time>
      </trkpt>
      <trkpt lat="44.86517" lon="5.73859">
        <ele>487.72</ele>
        <time>2019-11-01T10:43:57Z</time>
      </trkpt>
      <trkpt lat="44.86514" lon="5.73858">
        <ele>487.81</ele>
        <time>2019-11-01T10:43:58Z</time>
      </trkpt>
      <trkpt lat="44.86512" lon="5.73858">
        <ele>487.49</ele>
        <time>2019-11-01T10:43:59Z</time>
      </trkpt>
      <trkpt lat="44.8651" lon="5.73857">
        <ele>487.11</ele>
        <time>2019-11-01T10:44:00Z</time>
      </trkpt>
      <trkpt lat="44.86508" lon="5.73856">
        <ele>487.42</ele>
        <time>2019-11-01T10:44:01Z</time>
      </trkpt>
      <trkpt lat="44.86505" lon="5.73856">
        <ele>487.86</ele>
        <time>2019-11-01T10:44:02Z</time>
      </trkpt>
      <trkpt lat="44.86503" lon="5.73855">
        <ele>488.13</ele>
        <time>2019-11-01T10:44:03Z</time>
      </trkpt>
      <trkpt lat="44.86501" lon="5.73855">
        <ele>488.35</ele>
        <time>2019-11-01T10:44:04Z</time>
      </trkpt>
      <trkpt lat="44.86498" lon="5.73854">
        <ele>488.63</ele>
        <time>2019-11-01T10:44:05Z</time>
      </trkpt>
      <trkpt lat="44.86496" lon="5.73853">
        <ele>488.78</ele>
        <time>2019-11-01T10:44:06Z</time>
      </trkpt>
      <trkpt lat="44.86494" lon="5.73853">
        <ele>488.97</ele>
        <time>2019-11-01T10:44:07Z</time>
      </trkpt>
      <trkpt lat="44.86492" lon="5.73852">
        <ele>489.17</ele>
        <time>2019-11-01T10:44:08Z</time>
      </trkpt>
      <trkpt lat="44.8649" lon="5.73852">
        <ele>489.29</ele>
        <time>2019-11-01T10:44:09Z</time>
      </trkpt>
      <trkpt lat="44.86488" lon="5.73852">
        <ele>489.33</ele>
        <time>2019-11-01T10:44:10Z</time>
      </trkpt>
      <trkpt lat="44.86486" lon="5.73851">
        <ele>489.34</ele>
        <time>2019-11-01T10:44:11Z</time>
      </trkpt>
      <trkpt lat="44.86484" lon="5.73851">
        <ele>489.42</ele>
        <time>2019-11-01T10:44:12Z</time>
      </trkpt>
      <trkpt lat="44.86481" lon="5.73851">
        <ele>489.58</ele>
        <time>2019-11-01T10:44:13Z</time>
      </trkpt>
      <trkpt lat="44.86479" lon="5.7385">
        <ele>489.77</ele>
        <time>2019-11-01T10:44:14Z</time>
      </trkpt>
      <trkpt lat="44.86477" lon="5.7385">
        <ele>490.03</ele>
        <time>2019-11-01T10:44:15Z</time>
      </trkpt>
      <trkpt lat="44.86475" lon="5.7385">
        <ele>490.25</ele>
        <time>2019-11-01T10:44:16Z</time>
      </trkpt>
      <trkpt lat="44.86472" lon="5.73849">
        <ele>490.6</ele>
        <time>2019-11-01T10:44:17Z</time>
      </trkpt>
      <trkpt lat="44.8647" lon="5.73849">
        <ele>490.84</ele>
        <time>2019-11-01T10:44:18Z</time>
      </trkpt>
      <trkpt lat="44.86468" lon="5.73849">
        <ele>490.99</ele>
        <time>2019-11-01T10:44:19Z</time>
      </trkpt>
      <trkpt lat="44.86466" lon="5.73849">
        <ele>491.31</ele>
        <time>2019-11-01T10:44:20Z</time>
      </trkpt>
      <trkpt lat="44.86464" lon="5.73849">
        <ele>491.55</ele>
        <time>2019-11-01T10:44:21Z</time>
      </trkpt>
      <trkpt lat="44.86462" lon="5.7385">
        <ele>491.83</ele>
        <time>2019-11-01T10:44:22Z</time>
      </trkpt>
      <trkpt lat="44.86459" lon="5.7385">
        <ele>492.12</ele>
        <time>2019-11-01T10:44:23Z</time>
      </trkpt>
      <trkpt lat="44.86458" lon="5.73851">
        <ele>492.7</ele>
        <time>2019-11-01T10:44:24Z</time>
      </trkpt>
      <trkpt lat="44.86455" lon="5.73852">
        <ele>493.15</ele>
        <time>2019-11-01T10:44:25Z</time>
      </trkpt>
      <trkpt lat="44.86453" lon="5.73852">
        <ele>493.57</ele>
        <time>2019-11-01T10:44:26Z</time>
      </trkpt>
      <trkpt lat="44.86451" lon="5.73853">
        <ele>493.84</ele>
        <time>2019-11-01T10:44:27Z</time>
      </trkpt>
      <trkpt lat="44.86449" lon="5.73853">
        <ele>493.98</ele>
        <time>2019-11-01T10:44:28Z</time>
      </trkpt>
      <trkpt lat="44.86447" lon="5.73853">
        <ele>494.03</ele>
        <time>2019-11-01T10:44:29Z</time>
      </trkpt>
      <trkpt lat="44.86445" lon="5.73852">
        <ele>493.97</ele>
        <time>2019-11-01T10:44:30Z</time>
      </trkpt>
      <trkpt lat="44.86443" lon="5.73852">
        <ele>494.03</ele>
        <time>2019-11-01T10:44:31Z</time>
      </trkpt>
      <trkpt lat="44.86441" lon="5.73852">
        <ele>494.25</ele>
        <time>2019-11-01T10:44:32Z</time>
      </trkpt>
      <trkpt lat="44.86439" lon="5.73853">
        <ele>494.89</ele>
        <time>2019-11-01T10:44:34Z</time>
      </trkpt>
      <trkpt lat="44.86435" lon="5.73859">
        <ele>495.98</ele>
        <time>2019-11-01T10:44:52Z</time>
      </trkpt>
      <trkpt lat="44.86435" lon="5.73862">
        <ele>496.17</ele>
        <time>2019-11-01T10:44:53Z</time>
      </trkpt>
      <trkpt lat="44.86433" lon="5.73865">
        <ele>496.22</ele>
        <time>2019-11-01T10:44:54Z</time>
      </trkpt>
      <trkpt lat="44.86431" lon="5.73869">
        <ele>496.17</ele>
        <time>2019-11-01T10:44:55Z</time>
      </trkpt>
      <trkpt lat="44.86428" lon="5.73874">
        <ele>496.23</ele>
        <time>2019-11-01T10:44:56Z</time>
      </trkpt>
      <trkpt lat="44.86425" lon="5.73879">
        <ele>496.24</ele>
        <time>2019-11-01T10:44:57Z</time>
      </trkpt>
      <trkpt lat="44.86422" lon="5.73885">
        <ele>496.32</ele>
        <time>2019-11-01T10:44:58Z</time>
      </trkpt>
      <trkpt lat="44.86419" lon="5.73891">
        <ele>496.41</ele>
        <time>2019-11-01T10:44:59Z</time>
      </trkpt>
      <trkpt lat="44.86416" lon="5.73897">
        <ele>496.44</ele>
        <time>2019-11-01T10:45:00Z</time>
      </trkpt>
      <trkpt lat="44.86413" lon="5.73902">
        <ele>496.59</ele>
        <time>2019-11-01T10:45:01Z</time>
      </trkpt>
      <trkpt lat="44.86411" lon="5.73906">
        <ele>496.63</ele>
        <time>2019-11-01T10:45:02Z</time>
      </trkpt>
      <trkpt lat="44.8641" lon="5.73908">
        <ele>496.78</ele>
        <time>2019-11-01T10:45:03Z</time>
      </trkpt>
      <trkpt lat="44.86409" lon="5.73911">
        <ele>496.98</ele>
        <time>2019-11-01T10:45:05Z</time>
      </trkpt>
      <trkpt lat="44.86418" lon="5.73912">
        <ele>496.83</ele>
        <time>2019-11-01T10:46:00Z</time>
      </trkpt>
      <trkpt lat="44.86421" lon="5.73913">
        <ele>496.76</ele>
        <time>2019-11-01T10:46:02Z</time>
      </trkpt>
      <trkpt lat="44.86429" lon="5.7392">
        <ele>496.99</ele>
        <time>2019-11-01T10:46:07Z</time>
      </trkpt>
      <trkpt lat="44.86432" lon="5.73922">
        <ele>497.03</ele>
        <time>2019-11-01T10:46:08Z</time>
      </trkpt>
      <trkpt lat="44.86433" lon="5.73923">
        <ele>497.11</ele>
        <time>2019-11-01T10:46:09Z</time>
      </trkpt>
      <trkpt lat="44.86435" lon="5.73924">
        <ele>497.14</ele>
        <time>2019-11-01T10:46:10Z</time>
      </trkpt>
      <trkpt lat="44.86437" lon="5.73926">
        <ele>497.22</ele>
        <time>2019-11-01T10:46:11Z</time>
      </trkpt>
      <trkpt lat="44.8644" lon="5.73928">
        <ele>497.25</ele>
        <time>2019-11-01T10:46:13Z</time>
      </trkpt>
      <trkpt lat="44.86442" lon="5.73929">
        <ele>497.32</ele>
        <time>2019-11-01T10:46:14Z</time>
      </trkpt>
      <trkpt lat="44.86444" lon="5.7393">
        <ele>497.41</ele>
        <time>2019-11-01T10:46:15Z</time>
      </trkpt>
      <trkpt lat="44.86446" lon="5.73933">
        <ele>497.52</ele>
        <time>2019-11-01T10:46:17Z</time>
      </trkpt>
      <trkpt lat="44.86448" lon="5.73936">
        <ele>497.78</ele>
        <time>2019-11-01T10:46:19Z</time>
      </trkpt>
      <trkpt lat="44.8645" lon="5.73938">
        <ele>498.07</ele>
        <time>2019-11-01T10:46:21Z</time>
      </trkpt>
      <trkpt lat="44.86452" lon="5.73939">
        <ele>498.23</ele>
        <time>2019-11-01T10:46:23Z</time>
      </trkpt>
      <trkpt lat="44.86454" lon="5.73942">
        <ele>498.5</ele>
        <time>2019-11-01T10:46:25Z</time>
      </trkpt>
      <trkpt lat="44.86455" lon="5.73945">
        <ele>498.71</ele>
        <time>2019-11-01T10:46:27Z</time>
      </trkpt>
      <trkpt lat="44.86455" lon="5.73948">
        <ele>499.07</ele>
        <time>2019-11-01T10:46:29Z</time>
      </trkpt>
      <trkpt lat="44.86455" lon="5.7396">
        <ele>499.5</ele>
        <time>2019-11-01T10:47:27Z</time>
      </trkpt>
      <trkpt lat="44.86455" lon="5.73963">
        <ele>499.67</ele>
        <time>2019-11-01T10:47:28Z</time>
      </trkpt>
      <trkpt lat="44.86455" lon="5.73968">
        <ele>499.9</ele>
        <time>2019-11-01T10:47:30Z</time>
      </trkpt>
      <trkpt lat="44.86453" lon="5.73971">
        <ele>500.18</ele>
        <time>2019-11-01T10:47:32Z</time>
      </trkpt>
      <trkpt lat="44.86452" lon="5.73987">
        <ele>501.85</ele>
        <time>2019-11-01T10:47:44Z</time>
      </trkpt>
      <trkpt lat="44.86451" lon="5.7399">
        <ele>502.81</ele>
        <time>2019-11-01T10:47:46Z</time>
      </trkpt>
      <trkpt lat="44.86448" lon="5.74">
        <ele>503.67</ele>
        <time>2019-11-01T10:47:50Z</time>
      </trkpt>
      <trkpt lat="44.86448" lon="5.74003">
        <ele>504.14</ele>
        <time>2019-11-01T10:47:51Z</time>
      </trkpt>
      <trkpt lat="44.86447" lon="5.74006">
        <ele>504.71</ele>
        <time>2019-11-01T10:47:52Z</time>
      </trkpt>
      <trkpt lat="44.86447" lon="5.7401">
        <ele>505.53</ele>
        <time>2019-11-01T10:47:54Z</time>
      </trkpt>
      <trkpt lat="44.86446" lon="5.74013">
        <ele>506.1</ele>
        <time>2019-11-01T10:47:55Z</time>
      </trkpt>
      <trkpt lat="44.86441" lon="5.74002">
        <ele>508.81</ele>
        <time>2019-11-01T10:48:09Z</time>
      </trkpt>
      <trkpt lat="44.86438" lon="5.74">
        <ele>510.38</ele>
        <time>2019-11-01T10:48:11Z</time>
      </trkpt>
      <trkpt lat="44.86438" lon="5.73997">
        <ele>511.29</ele>
        <time>2019-11-01T10:48:13Z</time>
      </trkpt>
      <trkpt lat="44.86436" lon="5.73994">
        <ele>511.92</ele>
        <time>2019-11-01T10:48:15Z</time>
      </trkpt>
      <trkpt lat="44.86435" lon="5.7399">
        <ele>512.75</ele>
        <time>2019-11-01T10:48:18Z</time>
      </trkpt>
      <trkpt lat="44.86435" lon="5.73986">
        <ele>513.42</ele>
        <time>2019-11-01T10:48:21Z</time>
      </trkpt>
      <trkpt lat="44.86435" lon="5.73982">
        <ele>514.02</ele>
        <time>2019-11-01T10:48:23Z</time>
      </trkpt>
      <trkpt lat="44.86433" lon="5.7398">
        <ele>514.55</ele>
        <time>2019-11-01T10:48:25Z</time>
      </trkpt>
      <trkpt lat="44.86432" lon="5.73978">
        <ele>515.19</ele>
        <time>2019-11-01T10:48:27Z</time>
      </trkpt>
      <trkpt lat="44.86424" lon="5.73984">
        <ele>517.08</ele>
        <time>2019-11-01T10:49:09Z</time>
      </trkpt>
      <trkpt lat="44.8642" lon="5.73998">
        <ele>521.36</ele>
        <time>2019-11-01T10:49:30Z</time>
      </trkpt>
      <trkpt lat="44.86419" lon="5.74005">
        <ele>523.98</ele>
        <time>2019-11-01T10:49:58Z</time>
      </trkpt>
      <trkpt lat="44.86419" lon="5.74008">
        <ele>524.55</ele>
        <time>2019-11-01T10:50:00Z</time>
      </trkpt>
      <trkpt lat="44.86418" lon="5.74011">
        <ele>524.96</ele>
        <time>2019-11-01T10:50:02Z</time>
      </trkpt>
      <trkpt lat="44.86417" lon="5.74014">
        <ele>525.27</ele>
        <time>2019-11-01T10:50:04Z</time>
      </trkpt>
      <trkpt lat="44.86416" lon="5.74017">
        <ele>525.57</ele>
        <time>2019-11-01T10:50:06Z</time>
      </trkpt>
      <trkpt lat="44.86415" lon="5.7402">
        <ele>525.96</ele>
        <time>2019-11-01T10:50:08Z</time>
      </trkpt>
      <trkpt lat="44.86414" lon="5.74023">
        <ele>526.45</ele>
        <time>2019-11-01T10:50:10Z</time>
      </trkpt>
      <trkpt lat="44.86412" lon="5.74026">
        <ele>527.09</ele>
        <time>2019-11-01T10:50:12Z</time>
      </trkpt>
      <trkpt lat="44.86411" lon="5.74029">
        <ele>527.74</ele>
        <time>2019-11-01T10:50:14Z</time>
      </trkpt>
      <trkpt lat="44.86409" lon="5.74032">
        <ele>528.46</ele>
        <time>2019-11-01T10:50:16Z</time>
      </trkpt>
      <trkpt lat="44.86407" lon="5.74034">
        <ele>529.28</ele>
        <time>2019-11-01T10:50:18Z</time>
      </trkpt>
      <trkpt lat="44.86406" lon="5.74037">
        <ele>530.15</ele>
        <time>2019-11-01T10:50:20Z</time>
      </trkpt>
      <trkpt lat="44.86403" lon="5.74039">
        <ele>530.97</ele>
        <time>2019-11-01T10:50:22Z</time>
      </trkpt>
      <trkpt lat="44.86402" lon="5.74042">
        <ele>531.83</ele>
        <time>2019-11-01T10:50:25Z</time>
      </trkpt>
      <trkpt lat="44.864" lon="5.74044">
        <ele>532.69</ele>
        <time>2019-11-01T10:50:27Z</time>
      </trkpt>
      <trkpt lat="44.86398" lon="5.74046">
        <ele>533.71</ele>
        <time>2019-11-01T10:50:29Z</time>
      </trkpt>
      <trkpt lat="44.86396" lon="5.74047">
        <ele>534.66</ele>
        <time>2019-11-01T10:50:31Z</time>
      </trkpt>
      <trkpt lat="44.86395" lon="5.7405">
        <ele>535.8</ele>
        <time>2019-11-01T10:50:33Z</time>
      </trkpt>
      <trkpt lat="44.86393" lon="5.74051">
        <ele>536.94</ele>
        <time>2019-11-01T10:50:35Z</time>
      </trkpt>
      <trkpt lat="44.86392" lon="5.74054">
        <ele>537.87</ele>
        <time>2019-11-01T10:50:37Z</time>
      </trkpt>
      <trkpt lat="44.86382" lon="5.74056">
        <ele>538.54</ele>
        <time>2019-11-01T10:51:18Z</time>
      </trkpt>
      <trkpt lat="44.8638" lon="5.74057">
        <ele>538.46</ele>
        <time>2019-11-01T10:51:20Z</time>
      </trkpt>
      <trkpt lat="44.86369" lon="5.74059">
        <ele>538.52</ele>
        <time>2019-11-01T10:51:32Z</time>
      </trkpt>
      <trkpt lat="44.8636" lon="5.74067">
        <ele>538.76</ele>
        <time>2019-11-01T10:52:11Z</time>
      </trkpt>
      <trkpt lat="44.86359" lon="5.74067">
        <ele>539.16</ele>
        <time>2019-11-01T10:52:13Z</time>
      </trkpt>
      <trkpt lat="44.8635" lon="5.74068">
        <ele>540.5</ele>
        <time>2019-11-01T10:52:21Z</time>
      </trkpt>
      <trkpt lat="44.86347" lon="5.74069">
        <ele>541.39</ele>
        <time>2019-11-01T10:52:23Z</time>
      </trkpt>
      <trkpt lat="44.86345" lon="5.74068">
        <ele>542.11</ele>
        <time>2019-11-01T10:52:25Z</time>
      </trkpt>
      <trkpt lat="44.86343" lon="5.74067">
        <ele>542.81</ele>
        <time>2019-11-01T10:52:27Z</time>
      </trkpt>
      <trkpt lat="44.8634" lon="5.74067">
        <ele>543.42</ele>
        <time>2019-11-01T10:52:29Z</time>
      </trkpt>
      <trkpt lat="44.86338" lon="5.74068">
        <ele>543.86</ele>
        <time>2019-11-01T10:52:31Z</time>
      </trkpt>
      <trkpt lat="44.86336" lon="5.74068">
        <ele>544.33</ele>
        <time>2019-11-01T10:52:33Z</time>
      </trkpt>
      <trkpt lat="44.86334" lon="5.74068">
        <ele>544.92</ele>
        <time>2019-11-01T10:52:35Z</time>
      </trkpt>
      <trkpt lat="44.86332" lon="5.74068">
        <ele>545.27</ele>
        <time>2019-11-01T10:52:37Z</time>
      </trkpt>
      <trkpt lat="44.8633" lon="5.74068">
        <ele>545.73</ele>
        <time>2019-11-01T10:52:39Z</time>
      </trkpt>
      <trkpt lat="44.86327" lon="5.74068">
        <ele>546.32</ele>
        <time>2019-11-01T10:52:41Z</time>
      </trkpt>
      <trkpt lat="44.86324" lon="5.74068">
        <ele>546.55</ele>
        <time>2019-11-01T10:52:42Z</time>
      </trkpt>
      <trkpt lat="44.86322" lon="5.74069">
        <ele>546.83</ele>
        <time>2019-11-01T10:52:43Z</time>
      </trkpt>
      <trkpt lat="44.8632" lon="5.74069">
        <ele>547.12</ele>
        <time>2019-11-01T10:52:44Z</time>
      </trkpt>
      <trkpt lat="44.86318" lon="5.74069">
        <ele>547.79</ele>
        <time>2019-11-01T10:52:46Z</time>
      </trkpt>
      <trkpt lat="44.86316" lon="5.7407">
        <ele>548.33</ele>
        <time>2019-11-01T10:52:48Z</time>
      </trkpt>
      <trkpt lat="44.86314" lon="5.74073">
        <ele>549.23</ele>
        <time>2019-11-01T10:52:51Z</time>
      </trkpt>
      <trkpt lat="44.86312" lon="5.74074">
        <ele>549.82</ele>
        <time>2019-11-01T10:52:53Z</time>
      </trkpt>
      <trkpt lat="44.8631" lon="5.74076">
        <ele>550.44</ele>
        <time>2019-11-01T10:52:55Z</time>
      </trkpt>
      <trkpt lat="44.86307" lon="5.74076">
        <ele>551.02</ele>
        <time>2019-11-01T10:52:57Z</time>
      </trkpt>
      <trkpt lat="44.86305" lon="5.74076">
        <ele>551.69</ele>
        <time>2019-11-01T10:52:59Z</time>
      </trkpt>
      <trkpt lat="44.86302" lon="5.74076">
        <ele>552.48</ele>
        <time>2019-11-01T10:53:01Z</time>
      </trkpt>
      <trkpt lat="44.863" lon="5.74076">
        <ele>553.3</ele>
        <time>2019-11-01T10:53:03Z</time>
      </trkpt>
      <trkpt lat="44.86298" lon="5.74078">
        <ele>554.15</ele>
        <time>2019-11-01T10:53:05Z</time>
      </trkpt>
      <trkpt lat="44.86296" lon="5.74079">
        <ele>554.88</ele>
        <time>2019-11-01T10:53:07Z</time>
      </trkpt>
      <trkpt lat="44.86286" lon="5.74082">
        <ele>556.59</ele>
        <time>2019-11-01T10:54:57Z</time>
      </trkpt>
      <trkpt lat="44.86284" lon="5.7408">
        <ele>557.12</ele>
        <time>2019-11-01T10:54:58Z</time>
      </trkpt>
      <trkpt lat="44.86281" lon="5.74079">
        <ele>557.72</ele>
        <time>2019-11-01T10:55:00Z</time>
      </trkpt>
      <trkpt lat="44.86279" lon="5.74076">
        <ele>558.09</ele>
        <time>2019-11-01T10:55:02Z</time>
      </trkpt>
      <trkpt lat="44.86277" lon="5.74074">
        <ele>558.44</ele>
        <time>2019-11-01T10:55:04Z</time>
      </trkpt>
      <trkpt lat="44.86274" lon="5.74072">
        <ele>558.79</ele>
        <time>2019-11-01T10:55:06Z</time>
      </trkpt>
      <trkpt lat="44.86271" lon="5.74072">
        <ele>559.11</ele>
        <time>2019-11-01T10:55:07Z</time>
      </trkpt>
      <trkpt lat="44.86268" lon="5.74069">
        <ele>559.63</ele>
        <time>2019-11-01T10:55:09Z</time>
      </trkpt>
      <trkpt lat="44.86267" lon="5.74067">
        <ele>560.24</ele>
        <time>2019-11-01T10:55:11Z</time>
      </trkpt>
      <trkpt lat="44.86263" lon="5.74062">
        <ele>561.11</ele>
        <time>2019-11-01T10:55:16Z</time>
      </trkpt>
      <trkpt lat="44.86262" lon="5.7406">
        <ele>561.65</ele>
        <time>2019-11-01T10:55:18Z</time>
      </trkpt>
      <trkpt lat="44.8626" lon="5.74057">
        <ele>562.13</ele>
        <time>2019-11-01T10:55:20Z</time>
      </trkpt>
      <trkpt lat="44.86258" lon="5.74053">
        <ele>562.63</ele>
        <time>2019-11-01T10:55:22Z</time>
      </trkpt>
      <trkpt lat="44.86256" lon="5.74049">
        <ele>563.31</ele>
        <time>2019-11-01T10:55:24Z</time>
      </trkpt>
      <trkpt lat="44.86254" lon="5.74046">
        <ele>563.51</ele>
        <time>2019-11-01T10:55:26Z</time>
      </trkpt>
      <trkpt lat="44.86252" lon="5.74044">
        <ele>563.94</ele>
        <time>2019-11-01T10:55:28Z</time>
      </trkpt>
      <trkpt lat="44.86249" lon="5.74044">
        <ele>564.43</ele>
        <time>2019-11-01T10:55:30Z</time>
      </trkpt>
      <trkpt lat="44.86247" lon="5.74046">
        <ele>565.13</ele>
        <time>2019-11-01T10:55:32Z</time>
      </trkpt>
      <trkpt lat="44.86245" lon="5.74047">
        <ele>565.35</ele>
        <time>2019-11-01T10:55:34Z</time>
      </trkpt>
      <trkpt lat="44.86243" lon="5.7405">
        <ele>565.58</ele>
        <time>2019-11-01T10:55:36Z</time>
      </trkpt>
      <trkpt lat="44.8624" lon="5.74052">
        <ele>565.89</ele>
        <time>2019-11-01T10:55:38Z</time>
      </trkpt>
      <trkpt lat="44.86238" lon="5.74054">
        <ele>566.52</ele>
        <time>2019-11-01T10:55:40Z</time>
      </trkpt>
      <trkpt lat="44.86236" lon="5.74056">
        <ele>567.1</ele>
        <time>2019-11-01T10:55:42Z</time>
      </trkpt>
      <trkpt lat="44.86234" lon="5.74058">
        <ele>567.74</ele>
        <time>2019-11-01T10:55:44Z</time>
      </trkpt>
      <trkpt lat="44.86232" lon="5.74059">
        <ele>568.48</ele>
        <time>2019-11-01T10:55:46Z</time>
      </trkpt>
      <trkpt lat="44.8623" lon="5.74061">
        <ele>569.12</ele>
        <time>2019-11-01T10:55:48Z</time>
      </trkpt>
      <trkpt lat="44.86228" lon="5.74064">
        <ele>569.51</ele>
        <time>2019-11-01T10:55:50Z</time>
      </trkpt>
      <trkpt lat="44.86226" lon="5.74066">
        <ele>569.82</ele>
        <time>2019-11-01T10:55:51Z</time>
      </trkpt>
      <trkpt lat="44.86224" lon="5.74069">
        <ele>570.35</ele>
        <time>2019-11-01T10:55:53Z</time>
      </trkpt>
      <trkpt lat="44.86223" lon="5.74072">
        <ele>570.85</ele>
        <time>2019-11-01T10:55:55Z</time>
      </trkpt>
      <trkpt lat="44.86221" lon="5.74074">
        <ele>570.78</ele>
        <time>2019-11-01T10:55:56Z</time>
      </trkpt>
      <trkpt lat="44.86219" lon="5.74077">
        <ele>571.07</ele>
        <time>2019-11-01T10:55:58Z</time>
      </trkpt>
      <trkpt lat="44.86217" lon="5.74079">
        <ele>571.51</ele>
        <time>2019-11-01T10:56:00Z</time>
      </trkpt>
      <trkpt lat="44.86215" lon="5.74081">
        <ele>571.75</ele>
        <time>2019-11-01T10:56:01Z</time>
      </trkpt>
      <trkpt lat="44.86212" lon="5.74084">
        <ele>571.91</ele>
        <time>2019-11-01T10:56:03Z</time>
      </trkpt>
      <trkpt lat="44.86211" lon="5.74087">
        <ele>572.11</ele>
        <time>2019-11-01T10:56:05Z</time>
      </trkpt>
      <trkpt lat="44.86209" lon="5.74089">
        <ele>572.15</ele>
        <time>2019-11-01T10:56:08Z</time>
      </trkpt>
      <trkpt lat="44.86208" lon="5.74091">
        <ele>572.15</ele>
        <time>2019-11-01T10:56:10Z</time>
      </trkpt>
      <trkpt lat="44.86206" lon="5.74094">
        <ele>572.45</ele>
        <time>2019-11-01T10:56:12Z</time>
      </trkpt>
      <trkpt lat="44.86199" lon="5.74106">
        <ele>574.56</ele>
        <time>2019-11-01T10:56:24Z</time>
      </trkpt>
      <trkpt lat="44.86197" lon="5.74109">
        <ele>575.75</ele>
        <time>2019-11-01T10:56:27Z</time>
      </trkpt>
      <trkpt lat="44.8619" lon="5.74113">
        <ele>576.9</ele>
        <time>2019-11-01T10:56:33Z</time>
      </trkpt>
      <trkpt lat="44.86188" lon="5.74115">
        <ele>577.7</ele>
        <time>2019-11-01T10:56:35Z</time>
      </trkpt>
      <trkpt lat="44.86185" lon="5.74115">
        <ele>578.01</ele>
        <time>2019-11-01T10:56:36Z</time>
      </trkpt>
      <trkpt lat="44.86183" lon="5.74117">
        <ele>578.62</ele>
        <time>2019-11-01T10:56:38Z</time>
      </trkpt>
      <trkpt lat="44.86182" lon="5.74119">
        <ele>579.24</ele>
        <time>2019-11-01T10:56:40Z</time>
      </trkpt>
      <trkpt lat="44.86179" lon="5.74123">
        <ele>579.75</ele>
        <time>2019-11-01T10:56:42Z</time>
      </trkpt>
      <trkpt lat="44.86177" lon="5.74126">
        <ele>579.77</ele>
        <time>2019-11-01T10:56:44Z</time>
      </trkpt>
      <trkpt lat="44.86176" lon="5.74128">
        <ele>580</ele>
        <time>2019-11-01T10:56:46Z</time>
      </trkpt>
      <trkpt lat="44.86176" lon="5.74131">
        <ele>580.37</ele>
        <time>2019-11-01T10:56:48Z</time>
      </trkpt>
      <trkpt lat="44.86176" lon="5.74134">
        <ele>580.74</ele>
        <time>2019-11-01T10:56:50Z</time>
      </trkpt>
      <trkpt lat="44.86176" lon="5.74137">
        <ele>581.32</ele>
        <time>2019-11-01T10:56:52Z</time>
      </trkpt>
      <trkpt lat="44.86177" lon="5.7414">
        <ele>581.85</ele>
        <time>2019-11-01T10:56:54Z</time>
      </trkpt>
      <trkpt lat="44.86176" lon="5.74152">
        <ele>583.35</ele>
        <time>2019-11-01T10:57:01Z</time>
      </trkpt>
      <trkpt lat="44.86176" lon="5.74154">
        <ele>583.91</ele>
        <time>2019-11-01T10:57:02Z</time>
      </trkpt>
      <trkpt lat="44.86175" lon="5.74158">
        <ele>584.77</ele>
        <time>2019-11-01T10:57:04Z</time>
      </trkpt>
      <trkpt lat="44.86174" lon="5.74162">
        <ele>585.11</ele>
        <time>2019-11-01T10:57:05Z</time>
      </trkpt>
      <trkpt lat="44.86173" lon="5.74165">
        <ele>585.42</ele>
        <time>2019-11-01T10:57:06Z</time>
      </trkpt>
      <trkpt lat="44.86172" lon="5.7417">
        <ele>586.02</ele>
        <time>2019-11-01T10:57:08Z</time>
      </trkpt>
      <trkpt lat="44.86172" lon="5.74173">
        <ele>586.86</ele>
        <time>2019-11-01T10:57:11Z</time>
      </trkpt>
      <trkpt lat="44.8617" lon="5.74177">
        <ele>587.42</ele>
        <time>2019-11-01T10:57:13Z</time>
      </trkpt>
      <trkpt lat="44.8617" lon="5.7418">
        <ele>588.02</ele>
        <time>2019-11-01T10:57:15Z</time>
      </trkpt>
      <trkpt lat="44.86172" lon="5.74187">
        <ele>589.41</ele>
        <time>2019-11-01T10:57:20Z</time>
      </trkpt>
      <trkpt lat="44.86172" lon="5.74205">
        <ele>592.56</ele>
        <time>2019-11-01T10:57:33Z</time>
      </trkpt>
      <trkpt lat="44.86171" lon="5.74207">
        <ele>593.51</ele>
        <time>2019-11-01T10:57:35Z</time>
      </trkpt>
      <trkpt lat="44.86166" lon="5.74219">
        <ele>593.22</ele>
        <time>2019-11-01T10:58:22Z</time>
      </trkpt>
      <trkpt lat="44.86164" lon="5.7422">
        <ele>592.81</ele>
        <time>2019-11-01T10:58:24Z</time>
      </trkpt>
      <trkpt lat="44.86157" lon="5.74227">
        <ele>592.44</ele>
        <time>2019-11-01T10:58:29Z</time>
      </trkpt>
      <trkpt lat="44.86155" lon="5.7423">
        <ele>592.11</ele>
        <time>2019-11-01T10:58:31Z</time>
      </trkpt>
      <trkpt lat="44.86153" lon="5.74233">
        <ele>591.98</ele>
        <time>2019-11-01T10:58:33Z</time>
      </trkpt>
      <trkpt lat="44.86152" lon="5.74234">
        <ele>591.79</ele>
        <time>2019-11-01T10:58:35Z</time>
      </trkpt>
      <trkpt lat="44.86149" lon="5.74234">
        <ele>591.59</ele>
        <time>2019-11-01T10:58:37Z</time>
      </trkpt>
      <trkpt lat="44.86147" lon="5.74233">
        <ele>591.41</ele>
        <time>2019-11-01T10:58:39Z</time>
      </trkpt>
      <trkpt lat="44.86145" lon="5.74231">
        <ele>591.3</ele>
        <time>2019-11-01T10:58:40Z</time>
      </trkpt>
      <trkpt lat="44.86144" lon="5.74227">
        <ele>591.18</ele>
        <time>2019-11-01T10:58:42Z</time>
      </trkpt>
      <trkpt lat="44.86143" lon="5.74224">
        <ele>591.01</ele>
        <time>2019-11-01T10:58:44Z</time>
      </trkpt>
      <trkpt lat="44.86142" lon="5.74221">
        <ele>590.9</ele>
        <time>2019-11-01T10:58:45Z</time>
      </trkpt>
      <trkpt lat="44.86142" lon="5.74217">
        <ele>590.6</ele>
        <time>2019-11-01T10:58:47Z</time>
      </trkpt>
      <trkpt lat="44.86142" lon="5.74213">
        <ele>590.23</ele>
        <time>2019-11-01T10:58:49Z</time>
      </trkpt>
      <trkpt lat="44.86141" lon="5.74209">
        <ele>590.23</ele>
        <time>2019-11-01T10:58:51Z</time>
      </trkpt>
      <trkpt lat="44.8614" lon="5.74205">
        <ele>590.27</ele>
        <time>2019-11-01T10:58:53Z</time>
      </trkpt>
      <trkpt lat="44.8614" lon="5.74202">
        <ele>590.25</ele>
        <time>2019-11-01T10:58:55Z</time>
      </trkpt>
      <trkpt lat="44.8614" lon="5.742">
        <ele>590.43</ele>
        <time>2019-11-01T10:58:57Z</time>
      </trkpt>
      <trkpt lat="44.8614" lon="5.74196">
        <ele>590.63</ele>
        <time>2019-11-01T10:58:59Z</time>
      </trkpt>
      <trkpt lat="44.86138" lon="5.74192">
        <ele>590.72</ele>
        <time>2019-11-01T10:59:01Z</time>
      </trkpt>
      <trkpt lat="44.86138" lon="5.7419">
        <ele>591.02</ele>
        <time>2019-11-01T10:59:03Z</time>
      </trkpt>
      <trkpt lat="44.86137" lon="5.74186">
        <ele>591.12</ele>
        <time>2019-11-01T10:59:05Z</time>
      </trkpt>
      <trkpt lat="44.86137" lon="5.74183">
        <ele>591.61</ele>
        <time>2019-11-01T10:59:07Z</time>
      </trkpt>
      <trkpt lat="44.86134" lon="5.7418">
        <ele>593.08</ele>
        <time>2019-11-01T10:59:10Z</time>
      </trkpt>
      <trkpt lat="44.86131" lon="5.74179">
        <ele>594.31</ele>
        <time>2019-11-01T10:59:12Z</time>
      </trkpt>
      <trkpt lat="44.86128" lon="5.74179">
        <ele>595.18</ele>
        <time>2019-11-01T10:59:13Z</time>
      </trkpt>
      <trkpt lat="44.86126" lon="5.74178">
        <ele>596.18</ele>
        <time>2019-11-01T10:59:15Z</time>
      </trkpt>
      <trkpt lat="44.86121" lon="5.74191">
        <ele>599.03</ele>
        <time>2019-11-01T10:59:30Z</time>
      </trkpt>
      <trkpt lat="44.8612" lon="5.74194">
        <ele>600.21</ele>
        <time>2019-11-01T10:59:32Z</time>
      </trkpt>
      <trkpt lat="44.86118" lon="5.74196">
        <ele>600.45</ele>
        <time>2019-11-01T10:59:33Z</time>
      </trkpt>
      <trkpt lat="44.86117" lon="5.74198">
        <ele>601.09</ele>
        <time>2019-11-01T10:59:35Z</time>
      </trkpt>
      <trkpt lat="44.86115" lon="5.742">
        <ele>601.81</ele>
        <time>2019-11-01T10:59:37Z</time>
      </trkpt>
      <trkpt lat="44.86114" lon="5.74202">
        <ele>602.35</ele>
        <time>2019-11-01T10:59:39Z</time>
      </trkpt>
      <trkpt lat="44.86108" lon="5.74207">
        <ele>603.71</ele>
        <time>2019-11-01T10:59:44Z</time>
      </trkpt>
      <trkpt lat="44.86106" lon="5.7421">
        <ele>604.57</ele>
        <time>2019-11-01T10:59:46Z</time>
      </trkpt>
      <trkpt lat="44.86104" lon="5.74213">
        <ele>605.38</ele>
        <time>2019-11-01T10:59:48Z</time>
      </trkpt>
      <trkpt lat="44.86102" lon="5.74216">
        <ele>606.27</ele>
        <time>2019-11-01T10:59:50Z</time>
      </trkpt>
      <trkpt lat="44.86101" lon="5.74219">
        <ele>607.15</ele>
        <time>2019-11-01T10:59:52Z</time>
      </trkpt>
      <trkpt lat="44.86098" lon="5.7422">
        <ele>608.65</ele>
        <time>2019-11-01T10:59:54Z</time>
      </trkpt>
      <trkpt lat="44.86096" lon="5.74223">
        <ele>609.66</ele>
        <time>2019-11-01T10:59:56Z</time>
      </trkpt>
      <trkpt lat="44.86094" lon="5.74226">
        <ele>610.06</ele>
        <time>2019-11-01T10:59:58Z</time>
      </trkpt>
      <trkpt lat="44.86092" lon="5.74228">
        <ele>610.44</ele>
        <time>2019-11-01T11:00:00Z</time>
      </trkpt>
      <trkpt lat="44.8609" lon="5.74231">
        <ele>610.86</ele>
        <time>2019-11-01T11:00:02Z</time>
      </trkpt>
      <trkpt lat="44.86087" lon="5.74234">
        <ele>611.35</ele>
        <time>2019-11-01T11:00:04Z</time>
      </trkpt>
      <trkpt lat="44.86084" lon="5.74237">
        <ele>611.92</ele>
        <time>2019-11-01T11:00:06Z</time>
      </trkpt>
      <trkpt lat="44.86083" lon="5.74239">
        <ele>612.22</ele>
        <time>2019-11-01T11:00:07Z</time>
      </trkpt>
      <trkpt lat="44.86081" lon="5.74242">
        <ele>613.05</ele>
        <time>2019-11-01T11:00:09Z</time>
      </trkpt>
      <trkpt lat="44.8608" lon="5.74245">
        <ele>613.78</ele>
        <time>2019-11-01T11:00:11Z</time>
      </trkpt>
      <trkpt lat="44.86078" lon="5.7425">
        <ele>614.86</ele>
        <time>2019-11-01T11:00:13Z</time>
      </trkpt>
      <trkpt lat="44.86077" lon="5.74252">
        <ele>615.86</ele>
        <time>2019-11-01T11:00:15Z</time>
      </trkpt>
      <trkpt lat="44.86072" lon="5.7426">
        <ele>617.61</ele>
        <time>2019-11-01T11:00:21Z</time>
      </trkpt>
      <trkpt lat="44.86071" lon="5.74262">
        <ele>618.34</ele>
        <time>2019-11-01T11:00:22Z</time>
      </trkpt>
      <trkpt lat="44.86069" lon="5.74265">
        <ele>619.43</ele>
        <time>2019-11-01T11:00:24Z</time>
      </trkpt>
      <trkpt lat="44.86069" lon="5.74269">
        <ele>620.62</ele>
        <time>2019-11-01T11:00:26Z</time>
      </trkpt>
      <trkpt lat="44.86067" lon="5.74273">
        <ele>621.65</ele>
        <time>2019-11-01T11:00:28Z</time>
      </trkpt>
      <trkpt lat="44.86066" lon="5.74276">
        <ele>622.55</ele>
        <time>2019-11-01T11:00:30Z</time>
      </trkpt>
      <trkpt lat="44.86064" lon="5.74279">
        <ele>623.05</ele>
        <time>2019-11-01T11:00:32Z</time>
      </trkpt>
      <trkpt lat="44.86062" lon="5.74282">
        <ele>623.78</ele>
        <time>2019-11-01T11:00:34Z</time>
      </trkpt>
      <trkpt lat="44.86061" lon="5.74283">
        <ele>624.49</ele>
        <time>2019-11-01T11:00:36Z</time>
      </trkpt>
      <trkpt lat="44.86058" lon="5.74286">
        <ele>625.19</ele>
        <time>2019-11-01T11:00:38Z</time>
      </trkpt>
      <trkpt lat="44.86057" lon="5.7429">
        <ele>625.82</ele>
        <time>2019-11-01T11:00:40Z</time>
      </trkpt>
      <trkpt lat="44.86055" lon="5.74294">
        <ele>626.28</ele>
        <time>2019-11-01T11:00:42Z</time>
      </trkpt>
      <trkpt lat="44.86054" lon="5.74297">
        <ele>626.55</ele>
        <time>2019-11-01T11:00:44Z</time>
      </trkpt>
      <trkpt lat="44.86054" lon="5.74301">
        <ele>627.12</ele>
        <time>2019-11-01T11:00:46Z</time>
      </trkpt>
      <trkpt lat="44.86055" lon="5.74303">
        <ele>627.28</ele>
        <time>2019-11-01T11:00:47Z</time>
      </trkpt>
      <trkpt lat="44.86055" lon="5.74306">
        <ele>627.61</ele>
        <time>2019-11-01T11:00:48Z</time>
      </trkpt>
      <trkpt lat="44.86056" lon="5.7431">
        <ele>628.17</ele>
        <time>2019-11-01T11:00:50Z</time>
      </trkpt>
      <trkpt lat="44.86057" lon="5.74313">
        <ele>628.56</ele>
        <time>2019-11-01T11:00:52Z</time>
      </trkpt>
      <trkpt lat="44.86056" lon="5.74319">
        <ele>629.59</ele>
        <time>2019-11-01T11:00:56Z</time>
      </trkpt>
      <trkpt lat="44.86056" lon="5.74321">
        <ele>629.77</ele>
        <time>2019-11-01T11:00:57Z</time>
      </trkpt>
      <trkpt lat="44.86054" lon="5.74326">
        <ele>630.53</ele>
        <time>2019-11-01T11:00:59Z</time>
      </trkpt>
      <trkpt lat="44.86054" lon="5.7433">
        <ele>631.05</ele>
        <time>2019-11-01T11:01:01Z</time>
      </trkpt>
      <trkpt lat="44.86053" lon="5.74334">
        <ele>631.69</ele>
        <time>2019-11-01T11:01:03Z</time>
      </trkpt>
      <trkpt lat="44.86052" lon="5.74336">
        <ele>632.5</ele>
        <time>2019-11-01T11:01:05Z</time>
      </trkpt>
      <trkpt lat="44.8605" lon="5.74338">
        <ele>633.03</ele>
        <time>2019-11-01T11:01:07Z</time>
      </trkpt>
      <trkpt lat="44.86049" lon="5.74341">
        <ele>633.23</ele>
        <time>2019-11-01T11:01:09Z</time>
      </trkpt>
      <trkpt lat="44.86048" lon="5.74345">
        <ele>633.53</ele>
        <time>2019-11-01T11:01:11Z</time>
      </trkpt>
      <trkpt lat="44.86047" lon="5.74348">
        <ele>633.78</ele>
        <time>2019-11-01T11:01:13Z</time>
      </trkpt>
      <trkpt lat="44.86045" lon="5.7435">
        <ele>633.83</ele>
        <time>2019-11-01T11:01:14Z</time>
      </trkpt>
      <trkpt lat="44.86043" lon="5.74352">
        <ele>633.97</ele>
        <time>2019-11-01T11:01:16Z</time>
      </trkpt>
      <trkpt lat="44.86041" lon="5.74355">
        <ele>634.27</ele>
        <time>2019-11-01T11:01:18Z</time>
      </trkpt>
      <trkpt lat="44.8604" lon="5.74358">
        <ele>634.69</ele>
        <time>2019-11-01T11:01:20Z</time>
      </trkpt>
      <trkpt lat="44.86038" lon="5.7436">
        <ele>634.69</ele>
        <time>2019-11-01T11:01:22Z</time>
      </trkpt>
      <trkpt lat="44.86037" lon="5.74363">
        <ele>634.74</ele>
        <time>2019-11-01T11:01:24Z</time>
      </trkpt>
      <trkpt lat="44.8603" lon="5.74375">
        <ele>635.27</ele>
        <time>2019-11-01T11:02:28Z</time>
      </trkpt>
      <trkpt lat="44.86029" lon="5.74378">
        <ele>635.52</ele>
        <time>2019-11-01T11:02:30Z</time>
      </trkpt>
      <trkpt lat="44.86027" lon="5.74386">
        <ele>635.72</ele>
        <time>2019-11-01T11:02:33Z</time>
      </trkpt>
      <trkpt lat="44.86025" lon="5.74388">
        <ele>635.74</ele>
        <time>2019-11-01T11:02:34Z</time>
      </trkpt>
      <trkpt lat="44.86023" lon="5.7439">
        <ele>635.84</ele>
        <time>2019-11-01T11:02:36Z</time>
      </trkpt>
      <trkpt lat="44.86018" lon="5.74403">
        <ele>636.51</ele>
        <time>2019-11-01T11:02:48Z</time>
      </trkpt>
      <trkpt lat="44.86017" lon="5.74407">
        <ele>637</ele>
        <time>2019-11-01T11:02:51Z</time>
      </trkpt>
      <trkpt lat="44.86015" lon="5.74418">
        <ele>637.47</ele>
        <time>2019-11-01T11:02:55Z</time>
      </trkpt>
      <trkpt lat="44.86014" lon="5.74421">
        <ele>637.66</ele>
        <time>2019-11-01T11:02:56Z</time>
      </trkpt>
      <trkpt lat="44.86014" lon="5.74423">
        <ele>637.72</ele>
        <time>2019-11-01T11:02:57Z</time>
      </trkpt>
      <trkpt lat="44.86013" lon="5.74428">
        <ele>637.98</ele>
        <time>2019-11-01T11:02:59Z</time>
      </trkpt>
      <trkpt lat="44.86012" lon="5.7443">
        <ele>638.31</ele>
        <time>2019-11-01T11:03:00Z</time>
      </trkpt>
      <trkpt lat="44.86011" lon="5.74433">
        <ele>638.74</ele>
        <time>2019-11-01T11:03:02Z</time>
      </trkpt>
      <trkpt lat="44.86009" lon="5.74435">
        <ele>639.23</ele>
        <time>2019-11-01T11:03:04Z</time>
      </trkpt>
      <trkpt lat="44.86002" lon="5.74433">
        <ele>638.72</ele>
        <time>2019-11-01T11:03:39Z</time>
      </trkpt>
      <trkpt lat="44.86" lon="5.7443">
        <ele>638.1</ele>
        <time>2019-11-01T11:03:42Z</time>
      </trkpt>
      <trkpt lat="44.86002" lon="5.74429">
        <ele>637.79</ele>
        <time>2019-11-01T11:03:45Z</time>
      </trkpt>
      <trkpt lat="44.86005" lon="5.74441">
        <ele>637.12</ele>
        <time>2019-11-01T11:04:09Z</time>
      </trkpt>
      <trkpt lat="44.86006" lon="5.74444">
        <ele>636.76</ele>
        <time>2019-11-01T11:04:12Z</time>
      </trkpt>
      <trkpt lat="44.85997" lon="5.74447">
        <ele>636.89</ele>
        <time>2019-11-01T11:06:13Z</time>
      </trkpt>
      <trkpt lat="44.85995" lon="5.7445">
        <ele>637.11</ele>
        <time>2019-11-01T11:06:16Z</time>
      </trkpt>
      <trkpt lat="44.85993" lon="5.74451">
        <ele>637.31</ele>
        <time>2019-11-01T11:06:18Z</time>
      </trkpt>
      <trkpt lat="44.85991" lon="5.74453">
        <ele>637.7</ele>
        <time>2019-11-01T11:06:21Z</time>
      </trkpt>
      <trkpt lat="44.85989" lon="5.74454">
        <ele>637.91</ele>
        <time>2019-11-01T11:06:23Z</time>
      </trkpt>
      <trkpt lat="44.85987" lon="5.74457">
        <ele>638.3</ele>
        <time>2019-11-01T11:06:26Z</time>
      </trkpt>
      <trkpt lat="44.85985" lon="5.74459">
        <ele>638.48</ele>
        <time>2019-11-01T11:06:28Z</time>
      </trkpt>
      <trkpt lat="44.85983" lon="5.74462">
        <ele>638.81</ele>
        <time>2019-11-01T11:06:31Z</time>
      </trkpt>
      <trkpt lat="44.8598" lon="5.74464">
        <ele>639.1</ele>
        <time>2019-11-01T11:06:33Z</time>
      </trkpt>
      <trkpt lat="44.85979" lon="5.74467">
        <ele>639.31</ele>
        <time>2019-11-01T11:06:35Z</time>
      </trkpt>
      <trkpt lat="44.85976" lon="5.74469">
        <ele>639.67</ele>
        <time>2019-11-01T11:06:37Z</time>
      </trkpt>
      <trkpt lat="44.85975" lon="5.74471">
        <ele>639.99</ele>
        <time>2019-11-01T11:06:39Z</time>
      </trkpt>
      <trkpt lat="44.85972" lon="5.74473">
        <ele>640.53</ele>
        <time>2019-11-01T11:06:41Z</time>
      </trkpt>
      <trkpt lat="44.85969" lon="5.74476">
        <ele>641.12</ele>
        <time>2019-11-01T11:06:43Z</time>
      </trkpt>
      <trkpt lat="44.85967" lon="5.74477">
        <ele>641.35</ele>
        <time>2019-11-01T11:06:44Z</time>
      </trkpt>
      <trkpt lat="44.85964" lon="5.74479">
        <ele>641.74</ele>
        <time>2019-11-01T11:06:46Z</time>
      </trkpt>
      <trkpt lat="44.85962" lon="5.74482">
        <ele>642.34</ele>
        <time>2019-11-01T11:06:48Z</time>
      </trkpt>
      <trkpt lat="44.8596" lon="5.74483">
        <ele>642.63</ele>
        <time>2019-11-01T11:06:49Z</time>
      </trkpt>
      <trkpt lat="44.85958" lon="5.74484">
        <ele>642.85</ele>
        <time>2019-11-01T11:06:50Z</time>
      </trkpt>
      <trkpt lat="44.85955" lon="5.74486">
        <ele>642.96</ele>
        <time>2019-11-01T11:06:52Z</time>
      </trkpt>
      <trkpt lat="44.85952" lon="5.74489">
        <ele>643.11</ele>
        <time>2019-11-01T11:06:54Z</time>
      </trkpt>
      <trkpt lat="44.85949" lon="5.74491">
        <ele>643.38</ele>
        <time>2019-11-01T11:06:56Z</time>
      </trkpt>
      <trkpt lat="44.85946" lon="5.74493">
        <ele>643.79</ele>
        <time>2019-11-01T11:06:58Z</time>
      </trkpt>
      <trkpt lat="44.85943" lon="5.74495">
        <ele>644.07</ele>
        <time>2019-11-01T11:07:00Z</time>
      </trkpt>
      <trkpt lat="44.85942" lon="5.74497">
        <ele>644.27</ele>
        <time>2019-11-01T11:07:01Z</time>
      </trkpt>
      <trkpt lat="44.8594" lon="5.74498">
        <ele>644.53</ele>
        <time>2019-11-01T11:07:02Z</time>
      </trkpt>
      <trkpt lat="44.85937" lon="5.745">
        <ele>644.75</ele>
        <time>2019-11-01T11:07:03Z</time>
      </trkpt>
      <trkpt lat="44.85935" lon="5.74501">
        <ele>645.03</ele>
        <time>2019-11-01T11:07:04Z</time>
      </trkpt>
      <trkpt lat="44.85933" lon="5.74502">
        <ele>645.25</ele>
        <time>2019-11-01T11:07:05Z</time>
      </trkpt>
      <trkpt lat="44.85931" lon="5.74504">
        <ele>645.39</ele>
        <time>2019-11-01T11:07:06Z</time>
      </trkpt>
      <trkpt lat="44.8593" lon="5.74505">
        <ele>645.57</ele>
        <time>2019-11-01T11:07:07Z</time>
      </trkpt>
      <trkpt lat="44.85928" lon="5.74507">
        <ele>645.7</ele>
        <time>2019-11-01T11:07:08Z</time>
      </trkpt>
      <trkpt lat="44.85925" lon="5.74509">
        <ele>645.91</ele>
        <time>2019-11-01T11:07:10Z</time>
      </trkpt>
      <trkpt lat="44.85923" lon="5.7451">
        <ele>646.15</ele>
        <time>2019-11-01T11:07:11Z</time>
      </trkpt>
      <trkpt lat="44.85922" lon="5.74512">
        <ele>646.5</ele>
        <time>2019-11-01T11:07:12Z</time>
      </trkpt>
      <trkpt lat="44.8592" lon="5.74513">
        <ele>646.74</ele>
        <time>2019-11-01T11:07:13Z</time>
      </trkpt>
      <trkpt lat="44.85918" lon="5.74516">
        <ele>647.32</ele>
        <time>2019-11-01T11:07:15Z</time>
      </trkpt>
      <trkpt lat="44.85916" lon="5.74517">
        <ele>647.55</ele>
        <time>2019-11-01T11:07:16Z</time>
      </trkpt>
      <trkpt lat="44.85914" lon="5.74518">
        <ele>647.97</ele>
        <time>2019-11-01T11:07:17Z</time>
      </trkpt>
      <trkpt lat="44.85911" lon="5.7452">
        <ele>648.31</ele>
        <time>2019-11-01T11:07:18Z</time>
      </trkpt>
      <trkpt lat="44.85909" lon="5.74522">
        <ele>648.9</ele>
        <time>2019-11-01T11:07:19Z</time>
      </trkpt>
      <trkpt lat="44.85907" lon="5.74523">
        <ele>649.28</ele>
        <time>2019-11-01T11:07:20Z</time>
      </trkpt>
      <trkpt lat="44.85905" lon="5.74526">
        <ele>649.54</ele>
        <time>2019-11-01T11:07:21Z</time>
      </trkpt>
      <trkpt lat="44.85903" lon="5.74528">
        <ele>649.69</ele>
        <time>2019-11-01T11:07:22Z</time>
      </trkpt>
      <trkpt lat="44.85901" lon="5.7453">
        <ele>649.94</ele>
        <time>2019-11-01T11:07:23Z</time>
      </trkpt>
      <trkpt lat="44.85899" lon="5.74531">
        <ele>649.74</ele>
        <time>2019-11-01T11:07:24Z</time>
      </trkpt>
      <trkpt lat="44.85897" lon="5.74533">
        <ele>649.47</ele>
        <time>2019-11-01T11:07:25Z</time>
      </trkpt>
      <trkpt lat="44.85895" lon="5.74537">
        <ele>649.57</ele>
        <time>2019-11-01T11:07:27Z</time>
      </trkpt>
      <trkpt lat="44.85894" lon="5.7454">
        <ele>649.63</ele>
        <time>2019-11-01T11:07:28Z</time>
      </trkpt>
      <trkpt lat="44.85893" lon="5.74542">
        <ele>650.2</ele>
        <time>2019-11-01T11:07:29Z</time>
      </trkpt>
      <trkpt lat="44.85891" lon="5.74544">
        <ele>651</ele>
        <time>2019-11-01T11:07:30Z</time>
      </trkpt>
      <trkpt lat="44.8589" lon="5.74546">
        <ele>651.53</ele>
        <time>2019-11-01T11:07:31Z</time>
      </trkpt>
      <trkpt lat="44.85887" lon="5.74549">
        <ele>652.72</ele>
        <time>2019-11-01T11:07:33Z</time>
      </trkpt>
      <trkpt lat="44.85886" lon="5.74551">
        <ele>653.23</ele>
        <time>2019-11-01T11:07:34Z</time>
      </trkpt>
      <trkpt lat="44.85884" lon="5.74552">
        <ele>653.73</ele>
        <time>2019-11-01T11:07:35Z</time>
      </trkpt>
      <trkpt lat="44.85883" lon="5.74555">
        <ele>653.46</ele>
        <time>2019-11-01T11:07:36Z</time>
      </trkpt>
      <trkpt lat="44.85881" lon="5.74556">
        <ele>653.17</ele>
        <time>2019-11-01T11:07:37Z</time>
      </trkpt>
      <trkpt lat="44.85879" lon="5.74557">
        <ele>653.02</ele>
        <time>2019-11-01T11:07:38Z</time>
      </trkpt>
      <trkpt lat="44.85877" lon="5.74558">
        <ele>652.98</ele>
        <time>2019-11-01T11:07:40Z</time>
      </trkpt>
      <trkpt lat="44.85875" lon="5.74555">
        <ele>653.19</ele>
        <time>2019-11-01T11:07:43Z</time>
      </trkpt>
      <trkpt lat="44.85874" lon="5.74551">
        <ele>653.02</ele>
        <time>2019-11-01T11:07:45Z</time>
      </trkpt>
      <trkpt lat="44.85873" lon="5.74547">
        <ele>653.21</ele>
        <time>2019-11-01T11:07:47Z</time>
      </trkpt>
      <trkpt lat="44.85872" lon="5.74544">
        <ele>653.08</ele>
        <time>2019-11-01T11:07:49Z</time>
      </trkpt>
      <trkpt lat="44.85871" lon="5.74542">
        <ele>653.05</ele>
        <time>2019-11-01T11:07:51Z</time>
      </trkpt>
      <trkpt lat="44.85869" lon="5.74538">
        <ele>653.05</ele>
        <time>2019-11-01T11:08:33Z</time>
      </trkpt>
      <trkpt lat="44.85868" lon="5.74535">
        <ele>652.98</ele>
        <time>2019-11-01T11:08:34Z</time>
      </trkpt>
      <trkpt lat="44.85865" lon="5.74533">
        <ele>652.89</ele>
        <time>2019-11-01T11:08:35Z</time>
      </trkpt>
      <trkpt lat="44.85863" lon="5.74529">
        <ele>652.72</ele>
        <time>2019-11-01T11:08:36Z</time>
      </trkpt>
      <trkpt lat="44.8586" lon="5.74525">
        <ele>652.53</ele>
        <time>2019-11-01T11:08:37Z</time>
      </trkpt>
      <trkpt lat="44.85858" lon="5.74521">
        <ele>652.4</ele>
        <time>2019-11-01T11:08:38Z</time>
      </trkpt>
      <trkpt lat="44.85854" lon="5.74517">
        <ele>652.23</ele>
        <time>2019-11-01T11:08:39Z</time>
      </trkpt>
      <trkpt lat="44.85851" lon="5.74512">
        <ele>651.96</ele>
        <time>2019-11-01T11:08:40Z</time>
      </trkpt>
      <trkpt lat="44.85847" lon="5.74506">
        <ele>651.53</ele>
        <time>2019-11-01T11:08:41Z</time>
      </trkpt>
      <trkpt lat="44.85843" lon="5.745">
        <ele>650.98</ele>
        <time>2019-11-01T11:08:42Z</time>
      </trkpt>
      <trkpt lat="44.85838" lon="5.74493">
        <ele>650.33</ele>
        <time>2019-11-01T11:08:43Z</time>
      </trkpt>
      <trkpt lat="44.85834" lon="5.74486">
        <ele>649.71</ele>
        <time>2019-11-01T11:08:44Z</time>
      </trkpt>
      <trkpt lat="44.85829" lon="5.74479">
        <ele>649.04</ele>
        <time>2019-11-01T11:08:45Z</time>
      </trkpt>
      <trkpt lat="44.85824" lon="5.74473">
        <ele>648.14</ele>
        <time>2019-11-01T11:08:46Z</time>
      </trkpt>
      <trkpt lat="44.8582" lon="5.74469">
        <ele>647.31</ele>
        <time>2019-11-01T11:08:47Z</time>
      </trkpt>
      <trkpt lat="44.85817" lon="5.74465">
        <ele>646.57</ele>
        <time>2019-11-01T11:08:48Z</time>
      </trkpt>
      <trkpt lat="44.85815" lon="5.74462">
        <ele>645.5</ele>
        <time>2019-11-01T11:08:49Z</time>
      </trkpt>
      <trkpt lat="44.85812" lon="5.74458">
        <ele>644.63</ele>
        <time>2019-11-01T11:08:50Z</time>
      </trkpt>
      <trkpt lat="44.85809" lon="5.74454">
        <ele>643.73</ele>
        <time>2019-11-01T11:08:51Z</time>
      </trkpt>
      <trkpt lat="44.85806" lon="5.7445">
        <ele>642.69</ele>
        <time>2019-11-01T11:08:52Z</time>
      </trkpt>
      <trkpt lat="44.85802" lon="5.74445">
        <ele>641.54</ele>
        <time>2019-11-01T11:08:53Z</time>
      </trkpt>
      <trkpt lat="44.85798" lon="5.74439">
        <ele>640.71</ele>
        <time>2019-11-01T11:08:54Z</time>
      </trkpt>
      <trkpt lat="44.85793" lon="5.74432">
        <ele>639.69</ele>
        <time>2019-11-01T11:08:55Z</time>
      </trkpt>
      <trkpt lat="44.85788" lon="5.74425">
        <ele>638.68</ele>
        <time>2019-11-01T11:08:56Z</time>
      </trkpt>
      <trkpt lat="44.85782" lon="5.74418">
        <ele>637.54</ele>
        <time>2019-11-01T11:08:57Z</time>
      </trkpt>
      <trkpt lat="44.85777" lon="5.7441">
        <ele>636.5</ele>
        <time>2019-11-01T11:08:58Z</time>
      </trkpt>
      <trkpt lat="44.85771" lon="5.74402">
        <ele>635.34</ele>
        <time>2019-11-01T11:08:59Z</time>
      </trkpt>
      <trkpt lat="44.85765" lon="5.74393">
        <ele>634.44</ele>
        <time>2019-11-01T11:09:00Z</time>
      </trkpt>
      <trkpt lat="44.85759" lon="5.74384">
        <ele>633.68</ele>
        <time>2019-11-01T11:09:01Z</time>
      </trkpt>
      <trkpt lat="44.85754" lon="5.74375">
        <ele>633.17</ele>
        <time>2019-11-01T11:09:02Z</time>
      </trkpt>
      <trkpt lat="44.85747" lon="5.74367">
        <ele>632.73</ele>
        <time>2019-11-01T11:09:03Z</time>
      </trkpt>
      <trkpt lat="44.85742" lon="5.74358">
        <ele>632.39</ele>
        <time>2019-11-01T11:09:04Z</time>
      </trkpt>
      <trkpt lat="44.85737" lon="5.74351">
        <ele>631.94</ele>
        <time>2019-11-01T11:09:05Z</time>
      </trkpt>
      <trkpt lat="44.85733" lon="5.74342">
        <ele>631.32</ele>
        <time>2019-11-01T11:09:06Z</time>
      </trkpt>
      <trkpt lat="44.85728" lon="5.74334">
        <ele>630.64</ele>
        <time>2019-11-01T11:09:07Z</time>
      </trkpt>
      <trkpt lat="44.85725" lon="5.74325">
        <ele>629.88</ele>
        <time>2019-11-01T11:09:08Z</time>
      </trkpt>
      <trkpt lat="44.85723" lon="5.74315">
        <ele>629.3</ele>
        <time>2019-11-01T11:09:09Z</time>
      </trkpt>
      <trkpt lat="44.85721" lon="5.74305">
        <ele>628.56</ele>
        <time>2019-11-01T11:09:10Z</time>
      </trkpt>
      <trkpt lat="44.85719" lon="5.74295">
        <ele>627.92</ele>
        <time>2019-11-01T11:09:11Z</time>
      </trkpt>
      <trkpt lat="44.85716" lon="5.74285">
        <ele>627.31</ele>
        <time>2019-11-01T11:09:12Z</time>
      </trkpt>
      <trkpt lat="44.85713" lon="5.74274">
        <ele>626.71</ele>
        <time>2019-11-01T11:09:13Z</time>
      </trkpt>
      <trkpt lat="44.85709" lon="5.74264">
        <ele>626.04</ele>
        <time>2019-11-01T11:09:14Z</time>
      </trkpt>
      <trkpt lat="44.85703" lon="5.74255">
        <ele>625.56</ele>
        <time>2019-11-01T11:09:15Z</time>
      </trkpt>
      <trkpt lat="44.85697" lon="5.74246">
        <ele>624.99</ele>
        <time>2019-11-01T11:09:16Z</time>
      </trkpt>
      <trkpt lat="44.85692" lon="5.74239">
        <ele>624.33</ele>
        <time>2019-11-01T11:09:17Z</time>
      </trkpt>
      <trkpt lat="44.85687" lon="5.74233">
        <ele>624.06</ele>
        <time>2019-11-01T11:09:18Z</time>
      </trkpt>
      <trkpt lat="44.85683" lon="5.74228">
        <ele>623.63</ele>
        <time>2019-11-01T11:09:19Z</time>
      </trkpt>
      <trkpt lat="44.85679" lon="5.74224">
        <ele>623.29</ele>
        <time>2019-11-01T11:09:20Z</time>
      </trkpt>
      <trkpt lat="44.85675" lon="5.74221">
        <ele>623.26</ele>
        <time>2019-11-01T11:09:21Z</time>
      </trkpt>
      <trkpt lat="44.85671" lon="5.74219">
        <ele>623.32</ele>
        <time>2019-11-01T11:09:22Z</time>
      </trkpt>
      <trkpt lat="44.85668" lon="5.74218">
        <ele>623.34</ele>
        <time>2019-11-01T11:09:23Z</time>
      </trkpt>
      <trkpt lat="44.85666" lon="5.74216">
        <ele>623.07</ele>
        <time>2019-11-01T11:09:24Z</time>
      </trkpt>
      <trkpt lat="44.85663" lon="5.74215">
        <ele>622.84</ele>
        <time>2019-11-01T11:09:25Z</time>
      </trkpt>
      <trkpt lat="44.85661" lon="5.74214">
        <ele>622.5</ele>
        <time>2019-11-01T11:09:26Z</time>
      </trkpt>
      <trkpt lat="44.85657" lon="5.74212">
        <ele>621.93</ele>
        <time>2019-11-01T11:09:28Z</time>
      </trkpt>
      <trkpt lat="44.85655" lon="5.74211">
        <ele>621.66</ele>
        <time>2019-11-01T11:09:29Z</time>
      </trkpt>
      <trkpt lat="44.85653" lon="5.7421">
        <ele>621.51</ele>
        <time>2019-11-01T11:09:30Z</time>
      </trkpt>
      <trkpt lat="44.8565" lon="5.74208">
        <ele>621.12</ele>
        <time>2019-11-01T11:09:31Z</time>
      </trkpt>
      <trkpt lat="44.85648" lon="5.74205">
        <ele>620.86</ele>
        <time>2019-11-01T11:09:32Z</time>
      </trkpt>
      <trkpt lat="44.85645" lon="5.74203">
        <ele>620.64</ele>
        <time>2019-11-01T11:09:33Z</time>
      </trkpt>
      <trkpt lat="44.85643" lon="5.74201">
        <ele>620.3</ele>
        <time>2019-11-01T11:09:34Z</time>
      </trkpt>
      <trkpt lat="44.85641" lon="5.742">
        <ele>619.98</ele>
        <time>2019-11-01T11:09:35Z</time>
      </trkpt>
      <trkpt lat="44.85638" lon="5.74198">
        <ele>619.68</ele>
        <time>2019-11-01T11:09:36Z</time>
      </trkpt>
      <trkpt lat="44.85636" lon="5.74196">
        <ele>619.38</ele>
        <time>2019-11-01T11:09:37Z</time>
      </trkpt>
      <trkpt lat="44.85634" lon="5.74194">
        <ele>619.43</ele>
        <time>2019-11-01T11:09:38Z</time>
      </trkpt>
      <trkpt lat="44.85632" lon="5.74192">
        <ele>619.3</ele>
        <time>2019-11-01T11:09:39Z</time>
      </trkpt>
      <trkpt lat="44.8563" lon="5.7419">
        <ele>619.55</ele>
        <time>2019-11-01T11:09:40Z</time>
      </trkpt>
      <trkpt lat="44.85628" lon="5.74187">
        <ele>619.62</ele>
        <time>2019-11-01T11:09:41Z</time>
      </trkpt>
      <trkpt lat="44.85626" lon="5.74185">
        <ele>619.92</ele>
        <time>2019-11-01T11:09:42Z</time>
      </trkpt>
      <trkpt lat="44.85624" lon="5.74183">
        <ele>620.36</ele>
        <time>2019-11-01T11:09:43Z</time>
      </trkpt>
      <trkpt lat="44.85622" lon="5.74182">
        <ele>620.63</ele>
        <time>2019-11-01T11:09:44Z</time>
      </trkpt>
      <trkpt lat="44.85621" lon="5.7418">
        <ele>621.27</ele>
        <time>2019-11-01T11:09:45Z</time>
      </trkpt>
      <trkpt lat="44.85619" lon="5.74178">
        <ele>621.61</ele>
        <time>2019-11-01T11:09:46Z</time>
      </trkpt>
      <trkpt lat="44.85618" lon="5.74175">
        <ele>622.13</ele>
        <time>2019-11-01T11:09:47Z</time>
      </trkpt>
      <trkpt lat="44.85616" lon="5.74173">
        <ele>622.49</ele>
        <time>2019-11-01T11:09:48Z</time>
      </trkpt>
      <trkpt lat="44.85613" lon="5.7417">
        <ele>623.95</ele>
        <time>2019-11-01T11:09:50Z</time>
      </trkpt>
      <trkpt lat="44.85611" lon="5.74168">
        <ele>625.21</ele>
        <time>2019-11-01T11:09:51Z</time>
      </trkpt>
      <trkpt lat="44.85609" lon="5.74166">
        <ele>626.29</ele>
        <time>2019-11-01T11:09:52Z</time>
      </trkpt>
      <trkpt lat="44.85607" lon="5.74164">
        <ele>627.45</ele>
        <time>2019-11-01T11:09:53Z</time>
      </trkpt>
      <trkpt lat="44.85604" lon="5.74161">
        <ele>630.21</ele>
        <time>2019-11-01T11:09:55Z</time>
      </trkpt>
      <trkpt lat="44.85602" lon="5.7416">
        <ele>631.43</ele>
        <time>2019-11-01T11:09:56Z</time>
      </trkpt>
      <trkpt lat="44.856" lon="5.74157">
        <ele>632.98</ele>
        <time>2019-11-01T11:09:57Z</time>
      </trkpt>
      <trkpt lat="44.85598" lon="5.74154">
        <ele>633.73</ele>
        <time>2019-11-01T11:09:58Z</time>
      </trkpt>
      <trkpt lat="44.85597" lon="5.7415">
        <ele>633.95</ele>
        <time>2019-11-01T11:09:59Z</time>
      </trkpt>
      <trkpt lat="44.85595" lon="5.74147">
        <ele>634.3</ele>
        <time>2019-11-01T11:10:00Z</time>
      </trkpt>
      <trkpt lat="44.85595" lon="5.74144">
        <ele>634.61</ele>
        <time>2019-11-01T11:10:01Z</time>
      </trkpt>
      <trkpt lat="44.85594" lon="5.74141">
        <ele>634.85</ele>
        <time>2019-11-01T11:10:02Z</time>
      </trkpt>
      <trkpt lat="44.85594" lon="5.74138">
        <ele>634.92</ele>
        <time>2019-11-01T11:10:03Z</time>
      </trkpt>
      <trkpt lat="44.85594" lon="5.74135">
        <ele>635.22</ele>
        <time>2019-11-01T11:10:04Z</time>
      </trkpt>
      <trkpt lat="44.85593" lon="5.74129">
        <ele>635.36</ele>
        <time>2019-11-01T11:10:06Z</time>
      </trkpt>
      <trkpt lat="44.85593" lon="5.74126">
        <ele>635.14</ele>
        <time>2019-11-01T11:10:07Z</time>
      </trkpt>
      <trkpt lat="44.85593" lon="5.74122">
        <ele>634.94</ele>
        <time>2019-11-01T11:10:08Z</time>
      </trkpt>
      <trkpt lat="44.85593" lon="5.74119">
        <ele>635.09</ele>
        <time>2019-11-01T11:10:09Z</time>
      </trkpt>
      <trkpt lat="44.85592" lon="5.74116">
        <ele>635.06</ele>
        <time>2019-11-01T11:10:10Z</time>
      </trkpt>
      <trkpt lat="44.85591" lon="5.74113">
        <ele>635.19</ele>
        <time>2019-11-01T11:10:11Z</time>
      </trkpt>
      <trkpt lat="44.8559" lon="5.74111">
        <ele>635.23</ele>
        <time>2019-11-01T11:10:12Z</time>
      </trkpt>
      <trkpt lat="44.85589" lon="5.74107">
        <ele>635.45</ele>
        <time>2019-11-01T11:10:13Z</time>
      </trkpt>
      <trkpt lat="44.85589" lon="5.74104">
        <ele>635.73</ele>
        <time>2019-11-01T11:10:14Z</time>
      </trkpt>
      <trkpt lat="44.85588" lon="5.74102">
        <ele>635.88</ele>
        <time>2019-11-01T11:10:15Z</time>
      </trkpt>
      <trkpt lat="44.85586" lon="5.74097">
        <ele>635.63</ele>
        <time>2019-11-01T11:10:17Z</time>
      </trkpt>
      <trkpt lat="44.85586" lon="5.74095">
        <ele>635.78</ele>
        <time>2019-11-01T11:10:18Z</time>
      </trkpt>
      <trkpt lat="44.85586" lon="5.74092">
        <ele>636.39</ele>
        <time>2019-11-01T11:10:19Z</time>
      </trkpt>
      <trkpt lat="44.85585" lon="5.74089">
        <ele>637.06</ele>
        <time>2019-11-01T11:10:20Z</time>
      </trkpt>
      <trkpt lat="44.85585" lon="5.74086">
        <ele>637.61</ele>
        <time>2019-11-01T11:10:21Z</time>
      </trkpt>
      <trkpt lat="44.85584" lon="5.74083">
        <ele>637.85</ele>
        <time>2019-11-01T11:10:22Z</time>
      </trkpt>
      <trkpt lat="44.85584" lon="5.7408">
        <ele>638.06</ele>
        <time>2019-11-01T11:10:23Z</time>
      </trkpt>
      <trkpt lat="44.85584" lon="5.74076">
        <ele>638.47</ele>
        <time>2019-11-01T11:10:24Z</time>
      </trkpt>
      <trkpt lat="44.85584" lon="5.74074">
        <ele>638.81</ele>
        <time>2019-11-01T11:10:25Z</time>
      </trkpt>
      <trkpt lat="44.85585" lon="5.74069">
        <ele>639.42</ele>
        <time>2019-11-01T11:10:27Z</time>
      </trkpt>
      <trkpt lat="44.85586" lon="5.74067">
        <ele>639.65</ele>
        <time>2019-11-01T11:10:28Z</time>
      </trkpt>
      <trkpt lat="44.85586" lon="5.74063">
        <ele>639.86</ele>
        <time>2019-11-01T11:10:29Z</time>
      </trkpt>
      <trkpt lat="44.85588" lon="5.74061">
        <ele>641.18</ele>
        <time>2019-11-01T11:10:30Z</time>
      </trkpt>
      <trkpt lat="44.85589" lon="5.74059">
        <ele>642.07</ele>
        <time>2019-11-01T11:10:31Z</time>
      </trkpt>
      <trkpt lat="44.8559" lon="5.74056">
        <ele>642.82</ele>
        <time>2019-11-01T11:10:32Z</time>
      </trkpt>
      <trkpt lat="44.85591" lon="5.74052">
        <ele>643.68</ele>
        <time>2019-11-01T11:10:33Z</time>
      </trkpt>
      <trkpt lat="44.85592" lon="5.74048">
        <ele>644.22</ele>
        <time>2019-11-01T11:10:34Z</time>
      </trkpt>
      <trkpt lat="44.85592" lon="5.74045">
        <ele>645.01</ele>
        <time>2019-11-01T11:10:35Z</time>
      </trkpt>
      <trkpt lat="44.85594" lon="5.74042">
        <ele>645.39</ele>
        <time>2019-11-01T11:10:36Z</time>
      </trkpt>
      <trkpt lat="44.85595" lon="5.74039">
        <ele>645.5</ele>
        <time>2019-11-01T11:10:37Z</time>
      </trkpt>
      <trkpt lat="44.85596" lon="5.74035">
        <ele>645.39</ele>
        <time>2019-11-01T11:10:38Z</time>
      </trkpt>
      <trkpt lat="44.85598" lon="5.74031">
        <ele>645.43</ele>
        <time>2019-11-01T11:10:39Z</time>
      </trkpt>
      <trkpt lat="44.85599" lon="5.74026">
        <ele>645.3</ele>
        <time>2019-11-01T11:10:40Z</time>
      </trkpt>
      <trkpt lat="44.85601" lon="5.74021">
        <ele>645.55</ele>
        <time>2019-11-01T11:10:41Z</time>
      </trkpt>
      <trkpt lat="44.85603" lon="5.74016">
        <ele>645.76</ele>
        <time>2019-11-01T11:10:42Z</time>
      </trkpt>
      <trkpt lat="44.85605" lon="5.7401">
        <ele>645.75</ele>
        <time>2019-11-01T11:10:43Z</time>
      </trkpt>
      <trkpt lat="44.85607" lon="5.74006">
        <ele>645.75</ele>
        <time>2019-11-01T11:10:44Z</time>
      </trkpt>
      <trkpt lat="44.85608" lon="5.74001">
        <ele>645.19</ele>
        <time>2019-11-01T11:10:45Z</time>
      </trkpt>
      <trkpt lat="44.85609" lon="5.73997">
        <ele>644.67</ele>
        <time>2019-11-01T11:10:46Z</time>
      </trkpt>
      <trkpt lat="44.85611" lon="5.73992">
        <ele>644.24</ele>
        <time>2019-11-01T11:10:47Z</time>
      </trkpt>
      <trkpt lat="44.85613" lon="5.73986">
        <ele>643.89</ele>
        <time>2019-11-01T11:10:48Z</time>
      </trkpt>
      <trkpt lat="44.85615" lon="5.7398">
        <ele>643.09</ele>
        <time>2019-11-01T11:10:49Z</time>
      </trkpt>
      <trkpt lat="44.85616" lon="5.73975">
        <ele>642.57</ele>
        <time>2019-11-01T11:10:50Z</time>
      </trkpt>
      <trkpt lat="44.85618" lon="5.73968">
        <ele>642.56</ele>
        <time>2019-11-01T11:10:51Z</time>
      </trkpt>
      <trkpt lat="44.85619" lon="5.73962">
        <ele>641.99</ele>
        <time>2019-11-01T11:10:52Z</time>
      </trkpt>
      <trkpt lat="44.85619" lon="5.73957">
        <ele>641.96</ele>
        <time>2019-11-01T11:10:53Z</time>
      </trkpt>
      <trkpt lat="44.85619" lon="5.73952">
        <ele>641.88</ele>
        <time>2019-11-01T11:10:54Z</time>
      </trkpt>
      <trkpt lat="44.85619" lon="5.73947">
        <ele>641.51</ele>
        <time>2019-11-01T11:10:55Z</time>
      </trkpt>
      <trkpt lat="44.85619" lon="5.73941">
        <ele>640.91</ele>
        <time>2019-11-01T11:10:56Z</time>
      </trkpt>
      <trkpt lat="44.8562" lon="5.73935">
        <ele>640.38</ele>
        <time>2019-11-01T11:10:57Z</time>
      </trkpt>
      <trkpt lat="44.8562" lon="5.7393">
        <ele>640.29</ele>
        <time>2019-11-01T11:10:58Z</time>
      </trkpt>
      <trkpt lat="44.8562" lon="5.73926">
        <ele>640.19</ele>
        <time>2019-11-01T11:10:59Z</time>
      </trkpt>
      <trkpt lat="44.8562" lon="5.73922">
        <ele>639.67</ele>
        <time>2019-11-01T11:11:00Z</time>
      </trkpt>
      <trkpt lat="44.85621" lon="5.73917">
        <ele>639.03</ele>
        <time>2019-11-01T11:11:01Z</time>
      </trkpt>
      <trkpt lat="44.85621" lon="5.73913">
        <ele>637.85</ele>
        <time>2019-11-01T11:11:02Z</time>
      </trkpt>
      <trkpt lat="44.85621" lon="5.73908">
        <ele>636.73</ele>
        <time>2019-11-01T11:11:03Z</time>
      </trkpt>
      <trkpt lat="44.85622" lon="5.73903">
        <ele>635.69</ele>
        <time>2019-11-01T11:11:04Z</time>
      </trkpt>
      <trkpt lat="44.85624" lon="5.739">
        <ele>634.75</ele>
        <time>2019-11-01T11:11:05Z</time>
      </trkpt>
      <trkpt lat="44.85625" lon="5.73896">
        <ele>633.77</ele>
        <time>2019-11-01T11:11:06Z</time>
      </trkpt>
      <trkpt lat="44.85626" lon="5.73893">
        <ele>632.85</ele>
        <time>2019-11-01T11:11:07Z</time>
      </trkpt>
      <trkpt lat="44.85627" lon="5.73888">
        <ele>631.94</ele>
        <time>2019-11-01T11:11:08Z</time>
      </trkpt>
      <trkpt lat="44.85628" lon="5.73884">
        <ele>631.18</ele>
        <time>2019-11-01T11:11:09Z</time>
      </trkpt>
      <trkpt lat="44.8563" lon="5.73879">
        <ele>630.81</ele>
        <time>2019-11-01T11:11:10Z</time>
      </trkpt>
      <trkpt lat="44.8563" lon="5.73876">
        <ele>630.49</ele>
        <time>2019-11-01T11:11:11Z</time>
      </trkpt>
      <trkpt lat="44.85631" lon="5.73872">
        <ele>630.53</ele>
        <time>2019-11-01T11:11:12Z</time>
      </trkpt>
      <trkpt lat="44.85632" lon="5.73867">
        <ele>630.89</ele>
        <time>2019-11-01T11:11:13Z</time>
      </trkpt>
      <trkpt lat="44.85634" lon="5.73863">
        <ele>631.7</ele>
        <time>2019-11-01T11:11:14Z</time>
      </trkpt>
      <trkpt lat="44.85635" lon="5.73859">
        <ele>632.09</ele>
        <time>2019-11-01T11:11:15Z</time>
      </trkpt>
      <trkpt lat="44.85636" lon="5.73855">
        <ele>632.41</ele>
        <time>2019-11-01T11:11:16Z</time>
      </trkpt>
      <trkpt lat="44.85637" lon="5.73851">
        <ele>632.93</ele>
        <time>2019-11-01T11:11:17Z</time>
      </trkpt>
      <trkpt lat="44.85638" lon="5.73847">
        <ele>633.64</ele>
        <time>2019-11-01T11:11:18Z</time>
      </trkpt>
      <trkpt lat="44.85639" lon="5.73843">
        <ele>634.21</ele>
        <time>2019-11-01T11:11:19Z</time>
      </trkpt>
      <trkpt lat="44.85639" lon="5.73838">
        <ele>634.38</ele>
        <time>2019-11-01T11:11:20Z</time>
      </trkpt>
      <trkpt lat="44.8564" lon="5.73833">
        <ele>634.92</ele>
        <time>2019-11-01T11:11:21Z</time>
      </trkpt>
      <trkpt lat="44.85641" lon="5.73829">
        <ele>635.5</ele>
        <time>2019-11-01T11:11:22Z</time>
      </trkpt>
      <trkpt lat="44.85641" lon="5.73824">
        <ele>636.16</ele>
        <time>2019-11-01T11:11:23Z</time>
      </trkpt>
      <trkpt lat="44.85642" lon="5.7382">
        <ele>636.85</ele>
        <time>2019-11-01T11:11:24Z</time>
      </trkpt>
      <trkpt lat="44.85643" lon="5.73815">
        <ele>637.9</ele>
        <time>2019-11-01T11:11:25Z</time>
      </trkpt>
      <trkpt lat="44.85643" lon="5.7381">
        <ele>639.33</ele>
        <time>2019-11-01T11:11:26Z</time>
      </trkpt>
      <trkpt lat="44.85644" lon="5.73806">
        <ele>640.67</ele>
        <time>2019-11-01T11:11:27Z</time>
      </trkpt>
      <trkpt lat="44.85644" lon="5.73801">
        <ele>641.43</ele>
        <time>2019-11-01T11:11:28Z</time>
      </trkpt>
      <trkpt lat="44.85644" lon="5.73797">
        <ele>641.51</ele>
        <time>2019-11-01T11:11:29Z</time>
      </trkpt>
      <trkpt lat="44.85645" lon="5.73792">
        <ele>641.89</ele>
        <time>2019-11-01T11:11:30Z</time>
      </trkpt>
      <trkpt lat="44.85645" lon="5.73788">
        <ele>642.63</ele>
        <time>2019-11-01T11:11:31Z</time>
      </trkpt>
      <trkpt lat="44.85646" lon="5.73784">
        <ele>643.06</ele>
        <time>2019-11-01T11:11:32Z</time>
      </trkpt>
      <trkpt lat="44.85646" lon="5.73781">
        <ele>643.12</ele>
        <time>2019-11-01T11:11:33Z</time>
      </trkpt>
      <trkpt lat="44.85646" lon="5.73777">
        <ele>643.07</ele>
        <time>2019-11-01T11:11:34Z</time>
      </trkpt>
      <trkpt lat="44.85647" lon="5.73774">
        <ele>643.06</ele>
        <time>2019-11-01T11:11:35Z</time>
      </trkpt>
      <trkpt lat="44.85647" lon="5.7377">
        <ele>642.56</ele>
        <time>2019-11-01T11:11:36Z</time>
      </trkpt>
      <trkpt lat="44.85648" lon="5.73767">
        <ele>641.99</ele>
        <time>2019-11-01T11:11:37Z</time>
      </trkpt>
      <trkpt lat="44.85648" lon="5.73763">
        <ele>641.68</ele>
        <time>2019-11-01T11:11:38Z</time>
      </trkpt>
      <trkpt lat="44.85648" lon="5.7376">
        <ele>641.87</ele>
        <time>2019-11-01T11:11:39Z</time>
      </trkpt>
      <trkpt lat="44.85649" lon="5.73756">
        <ele>642.07</ele>
        <time>2019-11-01T11:11:40Z</time>
      </trkpt>
      <trkpt lat="44.8565" lon="5.73752">
        <ele>642.26</ele>
        <time>2019-11-01T11:11:41Z</time>
      </trkpt>
      <trkpt lat="44.85651" lon="5.73749">
        <ele>642.67</ele>
        <time>2019-11-01T11:11:42Z</time>
      </trkpt>
      <trkpt lat="44.85652" lon="5.73746">
        <ele>642.94</ele>
        <time>2019-11-01T11:11:43Z</time>
      </trkpt>
      <trkpt lat="44.85653" lon="5.73742">
        <ele>643.23</ele>
        <time>2019-11-01T11:11:44Z</time>
      </trkpt>
      <trkpt lat="44.85653" lon="5.73739">
        <ele>643.59</ele>
        <time>2019-11-01T11:11:45Z</time>
      </trkpt>
      <trkpt lat="44.85654" lon="5.73736">
        <ele>643.77</ele>
        <time>2019-11-01T11:11:46Z</time>
      </trkpt>
      <trkpt lat="44.85655" lon="5.73732">
        <ele>644.11</ele>
        <time>2019-11-01T11:11:47Z</time>
      </trkpt>
      <trkpt lat="44.85655" lon="5.73729">
        <ele>644.28</ele>
        <time>2019-11-01T11:11:48Z</time>
      </trkpt>
      <trkpt lat="44.85656" lon="5.73726">
        <ele>644.4</ele>
        <time>2019-11-01T11:11:49Z</time>
      </trkpt>
      <trkpt lat="44.85656" lon="5.73722">
        <ele>644.64</ele>
        <time>2019-11-01T11:11:50Z</time>
      </trkpt>
      <trkpt lat="44.85657" lon="5.73719">
        <ele>645.07</ele>
        <time>2019-11-01T11:11:51Z</time>
      </trkpt>
      <trkpt lat="44.85658" lon="5.73716">
        <ele>645.75</ele>
        <time>2019-11-01T11:11:52Z</time>
      </trkpt>
      <trkpt lat="44.85659" lon="5.73713">
        <ele>646.17</ele>
        <time>2019-11-01T11:11:53Z</time>
      </trkpt>
      <trkpt lat="44.8566" lon="5.73711">
        <ele>646.65</ele>
        <time>2019-11-01T11:11:54Z</time>
      </trkpt>
      <trkpt lat="44.8566" lon="5.73708">
        <ele>646.86</ele>
        <time>2019-11-01T11:11:55Z</time>
      </trkpt>
      <trkpt lat="44.85662" lon="5.73705">
        <ele>647.13</ele>
        <time>2019-11-01T11:11:56Z</time>
      </trkpt>
      <trkpt lat="44.85663" lon="5.73703">
        <ele>647.42</ele>
        <time>2019-11-01T11:11:57Z</time>
      </trkpt>
      <trkpt lat="44.85665" lon="5.73701">
        <ele>647.93</ele>
        <time>2019-11-01T11:11:58Z</time>
      </trkpt>
      <trkpt lat="44.85666" lon="5.73698">
        <ele>648.43</ele>
        <time>2019-11-01T11:11:59Z</time>
      </trkpt>
      <trkpt lat="44.85667" lon="5.73695">
        <ele>648.86</ele>
        <time>2019-11-01T11:12:00Z</time>
      </trkpt>
      <trkpt lat="44.85668" lon="5.73693">
        <ele>649.34</ele>
        <time>2019-11-01T11:12:01Z</time>
      </trkpt>
      <trkpt lat="44.8567" lon="5.7369">
        <ele>649.91</ele>
        <time>2019-11-01T11:12:02Z</time>
      </trkpt>
      <trkpt lat="44.85671" lon="5.73688">
        <ele>650.57</ele>
        <time>2019-11-01T11:12:03Z</time>
      </trkpt>
      <trkpt lat="44.85672" lon="5.73685">
        <ele>651.25</ele>
        <time>2019-11-01T11:12:04Z</time>
      </trkpt>
      <trkpt lat="44.85674" lon="5.73682">
        <ele>651.74</ele>
        <time>2019-11-01T11:12:05Z</time>
      </trkpt>
      <trkpt lat="44.85675" lon="5.73679">
        <ele>652.03</ele>
        <time>2019-11-01T11:12:06Z</time>
      </trkpt>
      <trkpt lat="44.85677" lon="5.73677">
        <ele>652.04</ele>
        <time>2019-11-01T11:12:07Z</time>
      </trkpt>
      <trkpt lat="44.85678" lon="5.73674">
        <ele>652.12</ele>
        <time>2019-11-01T11:12:08Z</time>
      </trkpt>
      <trkpt lat="44.85679" lon="5.73671">
        <ele>652.07</ele>
        <time>2019-11-01T11:12:09Z</time>
      </trkpt>
      <trkpt lat="44.85681" lon="5.73667">
        <ele>651.71</ele>
        <time>2019-11-01T11:12:10Z</time>
      </trkpt>
      <trkpt lat="44.85681" lon="5.73663">
        <ele>651.81</ele>
        <time>2019-11-01T11:12:11Z</time>
      </trkpt>
      <trkpt lat="44.85682" lon="5.7366">
        <ele>652.19</ele>
        <time>2019-11-01T11:12:12Z</time>
      </trkpt>
      <trkpt lat="44.85683" lon="5.73657">
        <ele>652.51</ele>
        <time>2019-11-01T11:12:13Z</time>
      </trkpt>
      <trkpt lat="44.85684" lon="5.73653">
        <ele>652.54</ele>
        <time>2019-11-01T11:12:14Z</time>
      </trkpt>
      <trkpt lat="44.85685" lon="5.7365">
        <ele>652.27</ele>
        <time>2019-11-01T11:12:15Z</time>
      </trkpt>
      <trkpt lat="44.85686" lon="5.73646">
        <ele>651.97</ele>
        <time>2019-11-01T11:12:16Z</time>
      </trkpt>
      <trkpt lat="44.85686" lon="5.73642">
        <ele>651.61</ele>
        <time>2019-11-01T11:12:17Z</time>
      </trkpt>
      <trkpt lat="44.85686" lon="5.73638">
        <ele>650.8</ele>
        <time>2019-11-01T11:12:18Z</time>
      </trkpt>
      <trkpt lat="44.85686" lon="5.73634">
        <ele>650.2</ele>
        <time>2019-11-01T11:12:19Z</time>
      </trkpt>
      <trkpt lat="44.85685" lon="5.7363">
        <ele>649.96</ele>
        <time>2019-11-01T11:12:20Z</time>
      </trkpt>
      <trkpt lat="44.85685" lon="5.73626">
        <ele>649.53</ele>
        <time>2019-11-01T11:12:21Z</time>
      </trkpt>
      <trkpt lat="44.85685" lon="5.73623">
        <ele>649.05</ele>
        <time>2019-11-01T11:12:22Z</time>
      </trkpt>
      <trkpt lat="44.85685" lon="5.73619">
        <ele>648.49</ele>
        <time>2019-11-01T11:12:23Z</time>
      </trkpt>
      <trkpt lat="44.85686" lon="5.73615">
        <ele>648.18</ele>
        <time>2019-11-01T11:12:24Z</time>
      </trkpt>
      <trkpt lat="44.85686" lon="5.73611">
        <ele>647.95</ele>
        <time>2019-11-01T11:12:25Z</time>
      </trkpt>
      <trkpt lat="44.85686" lon="5.73607">
        <ele>647.81</ele>
        <time>2019-11-01T11:12:26Z</time>
      </trkpt>
      <trkpt lat="44.85686" lon="5.73604">
        <ele>647.77</ele>
        <time>2019-11-01T11:12:27Z</time>
      </trkpt>
      <trkpt lat="44.85687" lon="5.736">
        <ele>647.89</ele>
        <time>2019-11-01T11:12:28Z</time>
      </trkpt>
      <trkpt lat="44.85687" lon="5.73596">
        <ele>648.14</ele>
        <time>2019-11-01T11:12:29Z</time>
      </trkpt>
      <trkpt lat="44.85688" lon="5.73593">
        <ele>648.43</ele>
        <time>2019-11-01T11:12:30Z</time>
      </trkpt>
      <trkpt lat="44.85688" lon="5.73589">
        <ele>649.07</ele>
        <time>2019-11-01T11:12:31Z</time>
      </trkpt>
      <trkpt lat="44.85689" lon="5.73585">
        <ele>649.34</ele>
        <time>2019-11-01T11:12:32Z</time>
      </trkpt>
      <trkpt lat="44.8569" lon="5.73581">
        <ele>649.28</ele>
        <time>2019-11-01T11:12:33Z</time>
      </trkpt>
      <trkpt lat="44.8569" lon="5.73578">
        <ele>649.61</ele>
        <time>2019-11-01T11:12:34Z</time>
      </trkpt>
      <trkpt lat="44.85691" lon="5.73574">
        <ele>649.99</ele>
        <time>2019-11-01T11:12:35Z</time>
      </trkpt>
      <trkpt lat="44.85692" lon="5.7357">
        <ele>650.66</ele>
        <time>2019-11-01T11:12:36Z</time>
      </trkpt>
      <trkpt lat="44.85693" lon="5.73566">
        <ele>650.93</ele>
        <time>2019-11-01T11:12:37Z</time>
      </trkpt>
      <trkpt lat="44.85694" lon="5.73563">
        <ele>651.15</ele>
        <time>2019-11-01T11:12:38Z</time>
      </trkpt>
      <trkpt lat="44.85695" lon="5.73559">
        <ele>651.15</ele>
        <time>2019-11-01T11:12:39Z</time>
      </trkpt>
      <trkpt lat="44.85696" lon="5.73555">
        <ele>651.01</ele>
        <time>2019-11-01T11:12:40Z</time>
      </trkpt>
      <trkpt lat="44.85697" lon="5.73553">
        <ele>650.97</ele>
        <time>2019-11-01T11:12:41Z</time>
      </trkpt>
      <trkpt lat="44.85698" lon="5.73549">
        <ele>651.02</ele>
        <time>2019-11-01T11:12:42Z</time>
      </trkpt>
      <trkpt lat="44.85698" lon="5.73546">
        <ele>650.76</ele>
        <time>2019-11-01T11:12:43Z</time>
      </trkpt>
      <trkpt lat="44.85699" lon="5.73542">
        <ele>650.54</ele>
        <time>2019-11-01T11:12:44Z</time>
      </trkpt>
      <trkpt lat="44.85699" lon="5.73538">
        <ele>650.06</ele>
        <time>2019-11-01T11:12:45Z</time>
      </trkpt>
      <trkpt lat="44.85699" lon="5.73534">
        <ele>649.77</ele>
        <time>2019-11-01T11:12:46Z</time>
      </trkpt>
      <trkpt lat="44.857" lon="5.73528">
        <ele>649.83</ele>
        <time>2019-11-01T11:12:47Z</time>
      </trkpt>
      <trkpt lat="44.857" lon="5.73523">
        <ele>650.26</ele>
        <time>2019-11-01T11:12:48Z</time>
      </trkpt>
      <trkpt lat="44.857" lon="5.73518">
        <ele>650.67</ele>
        <time>2019-11-01T11:12:49Z</time>
      </trkpt>
      <trkpt lat="44.85702" lon="5.73512">
        <ele>651.29</ele>
        <time>2019-11-01T11:12:50Z</time>
      </trkpt>
      <trkpt lat="44.85702" lon="5.73506">
        <ele>651.61</ele>
        <time>2019-11-01T11:12:51Z</time>
      </trkpt>
      <trkpt lat="44.85703" lon="5.735">
        <ele>652.27</ele>
        <time>2019-11-01T11:12:52Z</time>
      </trkpt>
      <trkpt lat="44.85704" lon="5.73494">
        <ele>652.67</ele>
        <time>2019-11-01T11:12:53Z</time>
      </trkpt>
      <trkpt lat="44.85705" lon="5.73488">
        <ele>652.8</ele>
        <time>2019-11-01T11:12:54Z</time>
      </trkpt>
      <trkpt lat="44.85706" lon="5.73481">
        <ele>652.9</ele>
        <time>2019-11-01T11:12:55Z</time>
      </trkpt>
      <trkpt lat="44.85707" lon="5.73474">
        <ele>652.8</ele>
        <time>2019-11-01T11:12:56Z</time>
      </trkpt>
      <trkpt lat="44.85708" lon="5.73466">
        <ele>652.55</ele>
        <time>2019-11-01T11:12:57Z</time>
      </trkpt>
      <trkpt lat="44.85709" lon="5.7346">
        <ele>652.69</ele>
        <time>2019-11-01T11:12:58Z</time>
      </trkpt>
      <trkpt lat="44.8571" lon="5.73453">
        <ele>652.66</ele>
        <time>2019-11-01T11:12:59Z</time>
      </trkpt>
      <trkpt lat="44.85711" lon="5.73447">
        <ele>652.58</ele>
        <time>2019-11-01T11:13:00Z</time>
      </trkpt>
      <trkpt lat="44.85713" lon="5.7344">
        <ele>652.28</ele>
        <time>2019-11-01T11:13:01Z</time>
      </trkpt>
      <trkpt lat="44.85715" lon="5.73435">
        <ele>652.05</ele>
        <time>2019-11-01T11:13:02Z</time>
      </trkpt>
      <trkpt lat="44.85716" lon="5.7343">
        <ele>651.28</ele>
        <time>2019-11-01T11:13:03Z</time>
      </trkpt>
      <trkpt lat="44.85718" lon="5.73425">
        <ele>650.84</ele>
        <time>2019-11-01T11:13:04Z</time>
      </trkpt>
      <trkpt lat="44.8572" lon="5.7342">
        <ele>649.66</ele>
        <time>2019-11-01T11:13:05Z</time>
      </trkpt>
      <trkpt lat="44.85722" lon="5.73416">
        <ele>649.09</ele>
        <time>2019-11-01T11:13:06Z</time>
      </trkpt>
      <trkpt lat="44.85724" lon="5.73411">
        <ele>648.71</ele>
        <time>2019-11-01T11:13:07Z</time>
      </trkpt>
      <trkpt lat="44.85727" lon="5.73406">
        <ele>648.11</ele>
        <time>2019-11-01T11:13:08Z</time>
      </trkpt>
      <trkpt lat="44.8573" lon="5.73402">
        <ele>647.65</ele>
        <time>2019-11-01T11:13:09Z</time>
      </trkpt>
      <trkpt lat="44.85734" lon="5.73398">
        <ele>647.02</ele>
        <time>2019-11-01T11:13:10Z</time>
      </trkpt>
      <trkpt lat="44.85738" lon="5.73394">
        <ele>646.41</ele>
        <time>2019-11-01T11:13:11Z</time>
      </trkpt>
      <trkpt lat="44.85742" lon="5.7339">
        <ele>645.95</ele>
        <time>2019-11-01T11:13:12Z</time>
      </trkpt>
      <trkpt lat="44.85747" lon="5.73387">
        <ele>645.6</ele>
        <time>2019-11-01T11:13:13Z</time>
      </trkpt>
      <trkpt lat="44.85752" lon="5.73384">
        <ele>645.49</ele>
        <time>2019-11-01T11:13:14Z</time>
      </trkpt>
      <trkpt lat="44.85758" lon="5.73382">
        <ele>645.53</ele>
        <time>2019-11-01T11:13:15Z</time>
      </trkpt>
      <trkpt lat="44.85765" lon="5.73381">
        <ele>645.33</ele>
        <time>2019-11-01T11:13:16Z</time>
      </trkpt>
      <trkpt lat="44.85772" lon="5.73381">
        <ele>645.2</ele>
        <time>2019-11-01T11:13:17Z</time>
      </trkpt>
      <trkpt lat="44.85777" lon="5.73382">
        <ele>645.1</ele>
        <time>2019-11-01T11:13:18Z</time>
      </trkpt>
      <trkpt lat="44.85782" lon="5.73382">
        <ele>644.99</ele>
        <time>2019-11-01T11:13:19Z</time>
      </trkpt>
      <trkpt lat="44.85786" lon="5.7338">
        <ele>644.54</ele>
        <time>2019-11-01T11:13:20Z</time>
      </trkpt>
      <trkpt lat="44.85789" lon="5.73377">
        <ele>643.85</ele>
        <time>2019-11-01T11:13:21Z</time>
      </trkpt>
      <trkpt lat="44.85791" lon="5.73374">
        <ele>643.01</ele>
        <time>2019-11-01T11:13:22Z</time>
      </trkpt>
      <trkpt lat="44.85793" lon="5.7337">
        <ele>642.55</ele>
        <time>2019-11-01T11:13:23Z</time>
      </trkpt>
      <trkpt lat="44.85794" lon="5.73366">
        <ele>642.48</ele>
        <time>2019-11-01T11:13:24Z</time>
      </trkpt>
      <trkpt lat="44.85793" lon="5.73363">
        <ele>642.25</ele>
        <time>2019-11-01T11:13:25Z</time>
      </trkpt>
      <trkpt lat="44.85792" lon="5.7336">
        <ele>641.97</ele>
        <time>2019-11-01T11:13:26Z</time>
      </trkpt>
      <trkpt lat="44.8579" lon="5.73359">
        <ele>642.02</ele>
        <time>2019-11-01T11:13:27Z</time>
      </trkpt>
      <trkpt lat="44.85788" lon="5.73357">
        <ele>642.04</ele>
        <time>2019-11-01T11:13:28Z</time>
      </trkpt>
      <trkpt lat="44.85786" lon="5.73355">
        <ele>641.91</ele>
        <time>2019-11-01T11:13:29Z</time>
      </trkpt>
      <trkpt lat="44.85785" lon="5.73354">
        <ele>642.36</ele>
        <time>2019-11-01T11:13:30Z</time>
      </trkpt>
      <trkpt lat="44.85782" lon="5.73351">
        <ele>643.32</ele>
        <time>2019-11-01T11:13:32Z</time>
      </trkpt>
      <trkpt lat="44.8578" lon="5.7335">
        <ele>643.62</ele>
        <time>2019-11-01T11:13:33Z</time>
      </trkpt>
      <trkpt lat="44.85779" lon="5.73349">
        <ele>643.85</ele>
        <time>2019-11-01T11:13:34Z</time>
      </trkpt>
      <trkpt lat="44.85777" lon="5.73348">
        <ele>643.92</ele>
        <time>2019-11-01T11:13:35Z</time>
      </trkpt>
      <trkpt lat="44.85773" lon="5.73348">
        <ele>644.25</ele>
        <time>2019-11-01T11:13:37Z</time>
      </trkpt>
      <trkpt lat="44.85772" lon="5.73348">
        <ele>644.67</ele>
        <time>2019-11-01T11:13:38Z</time>
      </trkpt>
      <trkpt lat="44.85768" lon="5.73348">
        <ele>645.43</ele>
        <time>2019-11-01T11:13:40Z</time>
      </trkpt>
      <trkpt lat="44.85764" lon="5.73348">
        <ele>646.76</ele>
        <time>2019-11-01T11:13:42Z</time>
      </trkpt>
      <trkpt lat="44.85762" lon="5.73348">
        <ele>647.59</ele>
        <time>2019-11-01T11:13:43Z</time>
      </trkpt>
      <trkpt lat="44.85759" lon="5.73349">
        <ele>648.9</ele>
        <time>2019-11-01T11:13:45Z</time>
      </trkpt>
      <trkpt lat="44.85756" lon="5.7335">
        <ele>650.34</ele>
        <time>2019-11-01T11:13:47Z</time>
      </trkpt>
      <trkpt lat="44.85752" lon="5.7335">
        <ele>651.43</ele>
        <time>2019-11-01T11:13:49Z</time>
      </trkpt>
      <trkpt lat="44.8575" lon="5.7335">
        <ele>652</ele>
        <time>2019-11-01T11:13:50Z</time>
      </trkpt>
      <trkpt lat="44.85748" lon="5.73351">
        <ele>652.88</ele>
        <time>2019-11-01T11:13:51Z</time>
      </trkpt>
      <trkpt lat="44.85745" lon="5.73352">
        <ele>654.5</ele>
        <time>2019-11-01T11:13:53Z</time>
      </trkpt>
      <trkpt lat="44.85742" lon="5.73353">
        <ele>656.11</ele>
        <time>2019-11-01T11:13:55Z</time>
      </trkpt>
      <trkpt lat="44.8574" lon="5.73353">
        <ele>656.9</ele>
        <time>2019-11-01T11:13:57Z</time>
      </trkpt>
      <trkpt lat="44.85736" lon="5.73353">
        <ele>657.89</ele>
        <time>2019-11-01T11:13:59Z</time>
      </trkpt>
      <trkpt lat="44.85735" lon="5.73354">
        <ele>658.42</ele>
        <time>2019-11-01T11:14:00Z</time>
      </trkpt>
      <trkpt lat="44.85733" lon="5.73355">
        <ele>659</ele>
        <time>2019-11-01T11:14:01Z</time>
      </trkpt>
      <trkpt lat="44.8573" lon="5.73357">
        <ele>659.76</ele>
        <time>2019-11-01T11:14:03Z</time>
      </trkpt>
      <trkpt lat="44.85727" lon="5.73359">
        <ele>660.34</ele>
        <time>2019-11-01T11:14:05Z</time>
      </trkpt>
      <trkpt lat="44.85724" lon="5.73361">
        <ele>660.71</ele>
        <time>2019-11-01T11:14:07Z</time>
      </trkpt>
      <trkpt lat="44.85722" lon="5.73361">
        <ele>660.53</ele>
        <time>2019-11-01T11:14:08Z</time>
      </trkpt>
      <trkpt lat="44.8572" lon="5.73362">
        <ele>660.47</ele>
        <time>2019-11-01T11:14:09Z</time>
      </trkpt>
      <trkpt lat="44.85717" lon="5.73362">
        <ele>660.39</ele>
        <time>2019-11-01T11:14:10Z</time>
      </trkpt>
      <trkpt lat="44.85715" lon="5.73363">
        <ele>660.5</ele>
        <time>2019-11-01T11:14:11Z</time>
      </trkpt>
      <trkpt lat="44.85712" lon="5.73364">
        <ele>660.54</ele>
        <time>2019-11-01T11:14:13Z</time>
      </trkpt>
      <trkpt lat="44.8571" lon="5.73366">
        <ele>660.97</ele>
        <time>2019-11-01T11:14:14Z</time>
      </trkpt>
      <trkpt lat="44.85708" lon="5.73366">
        <ele>661.51</ele>
        <time>2019-11-01T11:14:15Z</time>
      </trkpt>
      <trkpt lat="44.85705" lon="5.73366">
        <ele>661.54</ele>
        <time>2019-11-01T11:14:16Z</time>
      </trkpt>
      <trkpt lat="44.85703" lon="5.73367">
        <ele>661.69</ele>
        <time>2019-11-01T11:14:17Z</time>
      </trkpt>
      <trkpt lat="44.85701" lon="5.7337">
        <ele>661.95</ele>
        <time>2019-11-01T11:14:19Z</time>
      </trkpt>
      <trkpt lat="44.85698" lon="5.73372">
        <ele>662.68</ele>
        <time>2019-11-01T11:14:21Z</time>
      </trkpt>
      <trkpt lat="44.85696" lon="5.73373">
        <ele>662.94</ele>
        <time>2019-11-01T11:14:22Z</time>
      </trkpt>
      <trkpt lat="44.85694" lon="5.73374">
        <ele>663.16</ele>
        <time>2019-11-01T11:14:23Z</time>
      </trkpt>
      <trkpt lat="44.85692" lon="5.73376">
        <ele>663.43</ele>
        <time>2019-11-01T11:14:24Z</time>
      </trkpt>
      <trkpt lat="44.8569" lon="5.73378">
        <ele>663.72</ele>
        <time>2019-11-01T11:14:25Z</time>
      </trkpt>
      <trkpt lat="44.85688" lon="5.73379">
        <ele>663.88</ele>
        <time>2019-11-01T11:14:26Z</time>
      </trkpt>
      <trkpt lat="44.85687" lon="5.7338">
        <ele>664</ele>
        <time>2019-11-01T11:14:27Z</time>
      </trkpt>
      <trkpt lat="44.85683" lon="5.73382">
        <ele>664.64</ele>
        <time>2019-11-01T11:14:29Z</time>
      </trkpt>
      <trkpt lat="44.85682" lon="5.73384">
        <ele>664.72</ele>
        <time>2019-11-01T11:14:30Z</time>
      </trkpt>
      <trkpt lat="44.8568" lon="5.73386">
        <ele>664.68</ele>
        <time>2019-11-01T11:14:32Z</time>
      </trkpt>
      <trkpt lat="44.85677" lon="5.73389">
        <ele>665.04</ele>
        <time>2019-11-01T11:14:34Z</time>
      </trkpt>
      <trkpt lat="44.85676" lon="5.7339">
        <ele>665.26</ele>
        <time>2019-11-01T11:14:35Z</time>
      </trkpt>
      <trkpt lat="44.85673" lon="5.73394">
        <ele>665.71</ele>
        <time>2019-11-01T11:14:37Z</time>
      </trkpt>
      <trkpt lat="44.85671" lon="5.73397">
        <ele>666.02</ele>
        <time>2019-11-01T11:14:38Z</time>
      </trkpt>
      <trkpt lat="44.8567" lon="5.73399">
        <ele>666.18</ele>
        <time>2019-11-01T11:14:39Z</time>
      </trkpt>
      <trkpt lat="44.85668" lon="5.73402">
        <ele>666.51</ele>
        <time>2019-11-01T11:14:40Z</time>
      </trkpt>
      <trkpt lat="44.85667" lon="5.73404">
        <ele>666.82</ele>
        <time>2019-11-01T11:14:41Z</time>
      </trkpt>
      <trkpt lat="44.85666" lon="5.73406">
        <ele>667.62</ele>
        <time>2019-11-01T11:14:43Z</time>
      </trkpt>
      <trkpt lat="44.85664" lon="5.73408">
        <ele>667.99</ele>
        <time>2019-11-01T11:14:45Z</time>
      </trkpt>
      <trkpt lat="44.85661" lon="5.73409">
        <ele>667.96</ele>
        <time>2019-11-01T11:14:46Z</time>
      </trkpt>
      <trkpt lat="44.85659" lon="5.73409">
        <ele>667.81</ele>
        <time>2019-11-01T11:14:47Z</time>
      </trkpt>
      <trkpt lat="44.85657" lon="5.73409">
        <ele>668.22</ele>
        <time>2019-11-01T11:14:49Z</time>
      </trkpt>
      <trkpt lat="44.85655" lon="5.73409">
        <ele>668.52</ele>
        <time>2019-11-01T11:14:51Z</time>
      </trkpt>
      <trkpt lat="44.85652" lon="5.73408">
        <ele>668.04</ele>
        <time>2019-11-01T11:14:53Z</time>
      </trkpt>
      <trkpt lat="44.8565" lon="5.73408">
        <ele>667.57</ele>
        <time>2019-11-01T11:14:55Z</time>
      </trkpt>
      <trkpt lat="44.85648" lon="5.73408">
        <ele>668.09</ele>
        <time>2019-11-01T11:14:58Z</time>
      </trkpt>
      <trkpt lat="44.85642" lon="5.73404">
        <ele>668.99</ele>
        <time>2019-11-01T11:15:18Z</time>
      </trkpt>
      <trkpt lat="44.8564" lon="5.73404">
        <ele>669.24</ele>
        <time>2019-11-01T11:15:19Z</time>
      </trkpt>
      <trkpt lat="44.85637" lon="5.73403">
        <ele>669.39</ele>
        <time>2019-11-01T11:15:20Z</time>
      </trkpt>
      <trkpt lat="44.85634" lon="5.73403">
        <ele>669.57</ele>
        <time>2019-11-01T11:15:21Z</time>
      </trkpt>
      <trkpt lat="44.85632" lon="5.73403">
        <ele>669.77</ele>
        <time>2019-11-01T11:15:22Z</time>
      </trkpt>
      <trkpt lat="44.85628" lon="5.73403">
        <ele>669.96</ele>
        <time>2019-11-01T11:15:23Z</time>
      </trkpt>
      <trkpt lat="44.85624" lon="5.73403">
        <ele>670.16</ele>
        <time>2019-11-01T11:15:24Z</time>
      </trkpt>
      <trkpt lat="44.8562" lon="5.73402">
        <ele>670.78</ele>
        <time>2019-11-01T11:15:25Z</time>
      </trkpt>
      <trkpt lat="44.85615" lon="5.73402">
        <ele>671.46</ele>
        <time>2019-11-01T11:15:26Z</time>
      </trkpt>
      <trkpt lat="44.8561" lon="5.73399">
        <ele>672.36</ele>
        <time>2019-11-01T11:15:27Z</time>
      </trkpt>
      <trkpt lat="44.85605" lon="5.73398">
        <ele>673.12</ele>
        <time>2019-11-01T11:15:28Z</time>
      </trkpt>
      <trkpt lat="44.856" lon="5.73396">
        <ele>673.7</ele>
        <time>2019-11-01T11:15:29Z</time>
      </trkpt>
      <trkpt lat="44.85596" lon="5.73395">
        <ele>674.22</ele>
        <time>2019-11-01T11:15:30Z</time>
      </trkpt>
      <trkpt lat="44.85592" lon="5.73393">
        <ele>674.59</ele>
        <time>2019-11-01T11:15:31Z</time>
      </trkpt>
      <trkpt lat="44.85587" lon="5.73393">
        <ele>675.12</ele>
        <time>2019-11-01T11:15:32Z</time>
      </trkpt>
      <trkpt lat="44.85584" lon="5.73393">
        <ele>675.63</ele>
        <time>2019-11-01T11:15:33Z</time>
      </trkpt>
      <trkpt lat="44.85581" lon="5.73394">
        <ele>676.06</ele>
        <time>2019-11-01T11:15:34Z</time>
      </trkpt>
      <trkpt lat="44.85578" lon="5.73397">
        <ele>675.98</ele>
        <time>2019-11-01T11:15:35Z</time>
      </trkpt>
      <trkpt lat="44.85576" lon="5.73399">
        <ele>675.82</ele>
        <time>2019-11-01T11:15:36Z</time>
      </trkpt>
      <trkpt lat="44.85573" lon="5.73401">
        <ele>675.7</ele>
        <time>2019-11-01T11:15:37Z</time>
      </trkpt>
      <trkpt lat="44.85571" lon="5.73402">
        <ele>675.8</ele>
        <time>2019-11-01T11:15:38Z</time>
      </trkpt>
      <trkpt lat="44.85568" lon="5.73404">
        <ele>676.19</ele>
        <time>2019-11-01T11:15:39Z</time>
      </trkpt>
      <trkpt lat="44.85565" lon="5.73405">
        <ele>676.79</ele>
        <time>2019-11-01T11:15:40Z</time>
      </trkpt>
      <trkpt lat="44.85562" lon="5.73407">
        <ele>677.04</ele>
        <time>2019-11-01T11:15:41Z</time>
      </trkpt>
      <trkpt lat="44.8556" lon="5.73409">
        <ele>677.26</ele>
        <time>2019-11-01T11:15:42Z</time>
      </trkpt>
      <trkpt lat="44.85557" lon="5.73412">
        <ele>677.74</ele>
        <time>2019-11-01T11:15:43Z</time>
      </trkpt>
      <trkpt lat="44.85555" lon="5.73413">
        <ele>678.17</ele>
        <time>2019-11-01T11:15:44Z</time>
      </trkpt>
      <trkpt lat="44.85552" lon="5.73416">
        <ele>678.36</ele>
        <time>2019-11-01T11:15:45Z</time>
      </trkpt>
      <trkpt lat="44.8555" lon="5.73418">
        <ele>678.63</ele>
        <time>2019-11-01T11:15:46Z</time>
      </trkpt>
      <trkpt lat="44.85548" lon="5.7342">
        <ele>678.99</ele>
        <time>2019-11-01T11:15:47Z</time>
      </trkpt>
      <trkpt lat="44.85546" lon="5.73422">
        <ele>679.38</ele>
        <time>2019-11-01T11:15:48Z</time>
      </trkpt>
      <trkpt lat="44.85545" lon="5.73423">
        <ele>679.78</ele>
        <time>2019-11-01T11:15:49Z</time>
      </trkpt>
      <trkpt lat="44.85542" lon="5.73426">
        <ele>680.32</ele>
        <time>2019-11-01T11:15:50Z</time>
      </trkpt>
      <trkpt lat="44.85541" lon="5.73428">
        <ele>680.62</ele>
        <time>2019-11-01T11:15:51Z</time>
      </trkpt>
      <trkpt lat="44.85539" lon="5.73429">
        <ele>680.99</ele>
        <time>2019-11-01T11:15:52Z</time>
      </trkpt>
      <trkpt lat="44.85536" lon="5.73431">
        <ele>681.45</ele>
        <time>2019-11-01T11:15:53Z</time>
      </trkpt>
      <trkpt lat="44.85534" lon="5.73433">
        <ele>681.94</ele>
        <time>2019-11-01T11:15:54Z</time>
      </trkpt>
      <trkpt lat="44.85532" lon="5.73436">
        <ele>682.37</ele>
        <time>2019-11-01T11:15:55Z</time>
      </trkpt>
      <trkpt lat="44.8553" lon="5.73438">
        <ele>682.63</ele>
        <time>2019-11-01T11:15:56Z</time>
      </trkpt>
      <trkpt lat="44.85528" lon="5.73439">
        <ele>682.92</ele>
        <time>2019-11-01T11:15:57Z</time>
      </trkpt>
      <trkpt lat="44.85526" lon="5.73439">
        <ele>683.29</ele>
        <time>2019-11-01T11:15:58Z</time>
      </trkpt>
      <trkpt lat="44.85524" lon="5.73439">
        <ele>683.4</ele>
        <time>2019-11-01T11:15:59Z</time>
      </trkpt>
      <trkpt lat="44.85521" lon="5.7344">
        <ele>683.08</ele>
        <time>2019-11-01T11:16:00Z</time>
      </trkpt>
      <trkpt lat="44.85518" lon="5.73441">
        <ele>682.92</ele>
        <time>2019-11-01T11:16:01Z</time>
      </trkpt>
      <trkpt lat="44.85516" lon="5.7344">
        <ele>682.94</ele>
        <time>2019-11-01T11:16:02Z</time>
      </trkpt>
      <trkpt lat="44.85513" lon="5.7344">
        <ele>682.88</ele>
        <time>2019-11-01T11:16:03Z</time>
      </trkpt>
      <trkpt lat="44.8551" lon="5.7344">
        <ele>683.28</ele>
        <time>2019-11-01T11:16:04Z</time>
      </trkpt>
      <trkpt lat="44.85508" lon="5.73441">
        <ele>683.4</ele>
        <time>2019-11-01T11:16:05Z</time>
      </trkpt>
      <trkpt lat="44.85506" lon="5.73442">
        <ele>682.94</ele>
        <time>2019-11-01T11:16:06Z</time>
      </trkpt>
      <trkpt lat="44.85504" lon="5.73442">
        <ele>682.67</ele>
        <time>2019-11-01T11:16:07Z</time>
      </trkpt>
      <trkpt lat="44.855" lon="5.7344">
        <ele>681.15</ele>
        <time>2019-11-01T11:16:09Z</time>
      </trkpt>
      <trkpt lat="44.85497" lon="5.7344">
        <ele>680.45</ele>
        <time>2019-11-01T11:16:10Z</time>
      </trkpt>
      <trkpt lat="44.85495" lon="5.7344">
        <ele>679.75</ele>
        <time>2019-11-01T11:16:11Z</time>
      </trkpt>
      <trkpt lat="44.85493" lon="5.7344">
        <ele>678.7</ele>
        <time>2019-11-01T11:16:12Z</time>
      </trkpt>
      <trkpt lat="44.85491" lon="5.7344">
        <ele>677.4</ele>
        <time>2019-11-01T11:16:13Z</time>
      </trkpt>
      <trkpt lat="44.85488" lon="5.73439">
        <ele>675.68</ele>
        <time>2019-11-01T11:16:15Z</time>
      </trkpt>
      <trkpt lat="44.85484" lon="5.73441">
        <ele>674.73</ele>
        <time>2019-11-01T11:16:17Z</time>
      </trkpt>
      <trkpt lat="44.85482" lon="5.73441">
        <ele>674.6</ele>
        <time>2019-11-01T11:16:18Z</time>
      </trkpt>
      <trkpt lat="44.85478" lon="5.73443">
        <ele>673.94</ele>
        <time>2019-11-01T11:16:20Z</time>
      </trkpt>
      <trkpt lat="44.85476" lon="5.73444">
        <ele>674.09</ele>
        <time>2019-11-01T11:16:21Z</time>
      </trkpt>
      <trkpt lat="44.85474" lon="5.73445">
        <ele>673.99</ele>
        <time>2019-11-01T11:16:22Z</time>
      </trkpt>
      <trkpt lat="44.85471" lon="5.73446">
        <ele>674.18</ele>
        <time>2019-11-01T11:16:24Z</time>
      </trkpt>
      <trkpt lat="44.85468" lon="5.73446">
        <ele>674.57</ele>
        <time>2019-11-01T11:16:26Z</time>
      </trkpt>
      <trkpt lat="44.85466" lon="5.73447">
        <ele>674.71</ele>
        <time>2019-11-01T11:16:28Z</time>
      </trkpt>
      <trkpt lat="44.85463" lon="5.73447">
        <ele>675.12</ele>
        <time>2019-11-01T11:16:30Z</time>
      </trkpt>
      <trkpt lat="44.8546" lon="5.73448">
        <ele>675.9</ele>
        <time>2019-11-01T11:16:32Z</time>
      </trkpt>
      <trkpt lat="44.85457" lon="5.73449">
        <ele>676.89</ele>
        <time>2019-11-01T11:16:34Z</time>
      </trkpt>
      <trkpt lat="44.85454" lon="5.73449">
        <ele>677.56</ele>
        <time>2019-11-01T11:16:35Z</time>
      </trkpt>
      <trkpt lat="44.85451" lon="5.73449">
        <ele>677.59</ele>
        <time>2019-11-01T11:16:37Z</time>
      </trkpt>
      <trkpt lat="44.85449" lon="5.73448">
        <ele>677.71</ele>
        <time>2019-11-01T11:16:39Z</time>
      </trkpt>
      <trkpt lat="44.85446" lon="5.73446">
        <ele>678.3</ele>
        <time>2019-11-01T11:16:41Z</time>
      </trkpt>
      <trkpt lat="44.85443" lon="5.73445">
        <ele>679.44</ele>
        <time>2019-11-01T11:16:43Z</time>
      </trkpt>
      <trkpt lat="44.8544" lon="5.73445">
        <ele>680.62</ele>
        <time>2019-11-01T11:16:45Z</time>
      </trkpt>
      <trkpt lat="44.85438" lon="5.73445">
        <ele>680.99</ele>
        <time>2019-11-01T11:16:46Z</time>
      </trkpt>
      <trkpt lat="44.85436" lon="5.73445">
        <ele>681.24</ele>
        <time>2019-11-01T11:16:47Z</time>
      </trkpt>
      <trkpt lat="44.85434" lon="5.73445">
        <ele>681.6</ele>
        <time>2019-11-01T11:16:48Z</time>
      </trkpt>
      <trkpt lat="44.85431" lon="5.73445">
        <ele>682.38</ele>
        <time>2019-11-01T11:16:50Z</time>
      </trkpt>
      <trkpt lat="44.85428" lon="5.73444">
        <ele>683.2</ele>
        <time>2019-11-01T11:16:52Z</time>
      </trkpt>
      <trkpt lat="44.85425" lon="5.73443">
        <ele>683.91</ele>
        <time>2019-11-01T11:16:54Z</time>
      </trkpt>
      <trkpt lat="44.85423" lon="5.73443">
        <ele>683.95</ele>
        <time>2019-11-01T11:16:56Z</time>
      </trkpt>
      <trkpt lat="44.85419" lon="5.73442">
        <ele>684.18</ele>
        <time>2019-11-01T11:16:58Z</time>
      </trkpt>
      <trkpt lat="44.85417" lon="5.7344">
        <ele>684.4</ele>
        <time>2019-11-01T11:17:00Z</time>
      </trkpt>
      <trkpt lat="44.85414" lon="5.73439">
        <ele>684.68</ele>
        <time>2019-11-01T11:17:02Z</time>
      </trkpt>
      <trkpt lat="44.85412" lon="5.73439">
        <ele>685.01</ele>
        <time>2019-11-01T11:17:03Z</time>
      </trkpt>
      <trkpt lat="44.85409" lon="5.73439">
        <ele>685.94</ele>
        <time>2019-11-01T11:17:05Z</time>
      </trkpt>
      <trkpt lat="44.85406" lon="5.73437">
        <ele>686.45</ele>
        <time>2019-11-01T11:17:07Z</time>
      </trkpt>
      <trkpt lat="44.85403" lon="5.73435">
        <ele>687.28</ele>
        <time>2019-11-01T11:17:09Z</time>
      </trkpt>
      <trkpt lat="44.854" lon="5.73434">
        <ele>687.73</ele>
        <time>2019-11-01T11:17:11Z</time>
      </trkpt>
      <trkpt lat="44.85397" lon="5.73432">
        <ele>688.3</ele>
        <time>2019-11-01T11:17:13Z</time>
      </trkpt>
      <trkpt lat="44.85394" lon="5.73432">
        <ele>688.81</ele>
        <time>2019-11-01T11:17:15Z</time>
      </trkpt>
      <trkpt lat="44.85391" lon="5.73431">
        <ele>689.1</ele>
        <time>2019-11-01T11:17:17Z</time>
      </trkpt>
      <trkpt lat="44.85388" lon="5.7343">
        <ele>689.13</ele>
        <time>2019-11-01T11:17:18Z</time>
      </trkpt>
      <trkpt lat="44.85387" lon="5.7343">
        <ele>689.14</ele>
        <time>2019-11-01T11:17:19Z</time>
      </trkpt>
      <trkpt lat="44.85383" lon="5.73429">
        <ele>689.45</ele>
        <time>2019-11-01T11:17:21Z</time>
      </trkpt>
      <trkpt lat="44.85381" lon="5.73429">
        <ele>689.67</ele>
        <time>2019-11-01T11:17:23Z</time>
      </trkpt>
      <trkpt lat="44.85377" lon="5.73428">
        <ele>689.81</ele>
        <time>2019-11-01T11:17:25Z</time>
      </trkpt>
      <trkpt lat="44.85374" lon="5.73427">
        <ele>690.22</ele>
        <time>2019-11-01T11:17:27Z</time>
      </trkpt>
      <trkpt lat="44.85372" lon="5.73427">
        <ele>690.38</ele>
        <time>2019-11-01T11:17:28Z</time>
      </trkpt>
      <trkpt lat="44.85369" lon="5.73425">
        <ele>690.6</ele>
        <time>2019-11-01T11:17:30Z</time>
      </trkpt>
      <trkpt lat="44.85367" lon="5.73423">
        <ele>691.29</ele>
        <time>2019-11-01T11:17:32Z</time>
      </trkpt>
      <trkpt lat="44.85364" lon="5.7342">
        <ele>691.69</ele>
        <time>2019-11-01T11:17:34Z</time>
      </trkpt>
      <trkpt lat="44.85361" lon="5.73419">
        <ele>691.79</ele>
        <time>2019-11-01T11:17:36Z</time>
      </trkpt>
      <trkpt lat="44.85359" lon="5.73418">
        <ele>692.11</ele>
        <time>2019-11-01T11:17:37Z</time>
      </trkpt>
      <trkpt lat="44.85355" lon="5.73417">
        <ele>692.56</ele>
        <time>2019-11-01T11:17:39Z</time>
      </trkpt>
      <trkpt lat="44.85352" lon="5.73416">
        <ele>693.05</ele>
        <time>2019-11-01T11:17:41Z</time>
      </trkpt>
      <trkpt lat="44.85348" lon="5.73416">
        <ele>693.32</ele>
        <time>2019-11-01T11:17:43Z</time>
      </trkpt>
      <trkpt lat="44.85346" lon="5.73415">
        <ele>693.55</ele>
        <time>2019-11-01T11:17:44Z</time>
      </trkpt>
      <trkpt lat="44.85344" lon="5.73414">
        <ele>693.55</ele>
        <time>2019-11-01T11:17:45Z</time>
      </trkpt>
      <trkpt lat="44.85342" lon="5.73413">
        <ele>693.48</ele>
        <time>2019-11-01T11:17:46Z</time>
      </trkpt>
      <trkpt lat="44.8534" lon="5.73413">
        <ele>693.6</ele>
        <time>2019-11-01T11:17:47Z</time>
      </trkpt>
      <trkpt lat="44.85337" lon="5.7341">
        <ele>693.5</ele>
        <time>2019-11-01T11:17:49Z</time>
      </trkpt>
      <trkpt lat="44.85335" lon="5.7341">
        <ele>693.19</ele>
        <time>2019-11-01T11:17:50Z</time>
      </trkpt>
      <trkpt lat="44.85333" lon="5.73409">
        <ele>693.02</ele>
        <time>2019-11-01T11:17:51Z</time>
      </trkpt>
      <trkpt lat="44.85331" lon="5.73408">
        <ele>693.25</ele>
        <time>2019-11-01T11:17:52Z</time>
      </trkpt>
      <trkpt lat="44.85328" lon="5.73407">
        <ele>693.45</ele>
        <time>2019-11-01T11:17:54Z</time>
      </trkpt>
      <trkpt lat="44.85324" lon="5.73406">
        <ele>693.52</ele>
        <time>2019-11-01T11:17:56Z</time>
      </trkpt>
      <trkpt lat="44.85322" lon="5.73406">
        <ele>693.68</ele>
        <time>2019-11-01T11:17:57Z</time>
      </trkpt>
      <trkpt lat="44.8532" lon="5.73406">
        <ele>693.73</ele>
        <time>2019-11-01T11:17:58Z</time>
      </trkpt>
      <trkpt lat="44.85316" lon="5.73406">
        <ele>693.66</ele>
        <time>2019-11-01T11:18:00Z</time>
      </trkpt>
      <trkpt lat="44.85313" lon="5.73404">
        <ele>693.76</ele>
        <time>2019-11-01T11:18:02Z</time>
      </trkpt>
      <trkpt lat="44.85311" lon="5.73403">
        <ele>693.68</ele>
        <time>2019-11-01T11:18:03Z</time>
      </trkpt>
      <trkpt lat="44.85308" lon="5.73402">
        <ele>694.23</ele>
        <time>2019-11-01T11:18:05Z</time>
      </trkpt>
      <trkpt lat="44.85305" lon="5.73402">
        <ele>694.63</ele>
        <time>2019-11-01T11:18:07Z</time>
      </trkpt>
      <trkpt lat="44.85302" lon="5.73403">
        <ele>694.72</ele>
        <time>2019-11-01T11:18:09Z</time>
      </trkpt>
      <trkpt lat="44.85299" lon="5.73403">
        <ele>694.53</ele>
        <time>2019-11-01T11:18:10Z</time>
      </trkpt>
      <trkpt lat="44.85297" lon="5.73403">
        <ele>694.68</ele>
        <time>2019-11-01T11:18:11Z</time>
      </trkpt>
      <trkpt lat="44.85295" lon="5.73403">
        <ele>694.86</ele>
        <time>2019-11-01T11:18:13Z</time>
      </trkpt>
      <trkpt lat="44.85292" lon="5.73403">
        <ele>695.21</ele>
        <time>2019-11-01T11:18:15Z</time>
      </trkpt>
      <trkpt lat="44.85288" lon="5.73402">
        <ele>695.96</ele>
        <time>2019-11-01T11:18:17Z</time>
      </trkpt>
      <trkpt lat="44.85284" lon="5.73401">
        <ele>696.38</ele>
        <time>2019-11-01T11:18:19Z</time>
      </trkpt>
      <trkpt lat="44.85282" lon="5.734">
        <ele>696.26</ele>
        <time>2019-11-01T11:18:21Z</time>
      </trkpt>
      <trkpt lat="44.8528" lon="5.734">
        <ele>696.25</ele>
        <time>2019-11-01T11:18:22Z</time>
      </trkpt>
      <trkpt lat="44.85276" lon="5.73399">
        <ele>696.5</ele>
        <time>2019-11-01T11:18:24Z</time>
      </trkpt>
      <trkpt lat="44.85275" lon="5.734">
        <ele>696.6</ele>
        <time>2019-11-01T11:18:25Z</time>
      </trkpt>
      <trkpt lat="44.85271" lon="5.73399">
        <ele>696.97</ele>
        <time>2019-11-01T11:18:27Z</time>
      </trkpt>
      <trkpt lat="44.85269" lon="5.73397">
        <ele>696.22</ele>
        <time>2019-11-01T11:18:29Z</time>
      </trkpt>
      <trkpt lat="44.85267" lon="5.73397">
        <ele>695.42</ele>
        <time>2019-11-01T11:18:31Z</time>
      </trkpt>
      <trkpt lat="44.85258" lon="5.734">
        <ele>694.4</ele>
        <time>2019-11-01T11:19:16Z</time>
      </trkpt>
      <trkpt lat="44.85256" lon="5.73398">
        <ele>694.19</ele>
        <time>2019-11-01T11:19:18Z</time>
      </trkpt>
      <trkpt lat="44.85254" lon="5.73398">
        <ele>694.01</ele>
        <time>2019-11-01T11:19:20Z</time>
      </trkpt>
      <trkpt lat="44.8525" lon="5.73398">
        <ele>693.81</ele>
        <time>2019-11-01T11:19:22Z</time>
      </trkpt>
      <trkpt lat="44.85247" lon="5.73398">
        <ele>693.43</ele>
        <time>2019-11-01T11:19:24Z</time>
      </trkpt>
      <trkpt lat="44.85245" lon="5.73398">
        <ele>693.09</ele>
        <time>2019-11-01T11:19:25Z</time>
      </trkpt>
      <trkpt lat="44.85243" lon="5.73398">
        <ele>692.85</ele>
        <time>2019-11-01T11:19:26Z</time>
      </trkpt>
      <trkpt lat="44.8524" lon="5.73398">
        <ele>692.43</ele>
        <time>2019-11-01T11:19:27Z</time>
      </trkpt>
      <trkpt lat="44.85237" lon="5.73397">
        <ele>692.02</ele>
        <time>2019-11-01T11:19:28Z</time>
      </trkpt>
      <trkpt lat="44.85234" lon="5.73396">
        <ele>691.62</ele>
        <time>2019-11-01T11:19:29Z</time>
      </trkpt>
      <trkpt lat="44.8523" lon="5.73395">
        <ele>690.8</ele>
        <time>2019-11-01T11:19:30Z</time>
      </trkpt>
      <trkpt lat="44.85227" lon="5.73394">
        <ele>689.99</ele>
        <time>2019-11-01T11:19:31Z</time>
      </trkpt>
      <trkpt lat="44.85224" lon="5.73394">
        <ele>688.7</ele>
        <time>2019-11-01T11:19:32Z</time>
      </trkpt>
      <trkpt lat="44.85221" lon="5.73394">
        <ele>687.69</ele>
        <time>2019-11-01T11:19:33Z</time>
      </trkpt>
      <trkpt lat="44.85218" lon="5.73394">
        <ele>686.75</ele>
        <time>2019-11-01T11:19:34Z</time>
      </trkpt>
      <trkpt lat="44.85216" lon="5.73396">
        <ele>685.7</ele>
        <time>2019-11-01T11:19:35Z</time>
      </trkpt>
      <trkpt lat="44.85213" lon="5.734">
        <ele>684.54</ele>
        <time>2019-11-01T11:19:36Z</time>
      </trkpt>
      <trkpt lat="44.85212" lon="5.73406">
        <ele>683.78</ele>
        <time>2019-11-01T11:19:37Z</time>
      </trkpt>
      <trkpt lat="44.85211" lon="5.73413">
        <ele>682.99</ele>
        <time>2019-11-01T11:19:38Z</time>
      </trkpt>
      <trkpt lat="44.85211" lon="5.73421">
        <ele>682.4</ele>
        <time>2019-11-01T11:19:39Z</time>
      </trkpt>
      <trkpt lat="44.8521" lon="5.73429">
        <ele>681.66</ele>
        <time>2019-11-01T11:19:40Z</time>
      </trkpt>
      <trkpt lat="44.85208" lon="5.73438">
        <ele>680.88</ele>
        <time>2019-11-01T11:19:41Z</time>
      </trkpt>
      <trkpt lat="44.85205" lon="5.73445">
        <ele>680.23</ele>
        <time>2019-11-01T11:19:42Z</time>
      </trkpt>
      <trkpt lat="44.852" lon="5.73451">
        <ele>679.75</ele>
        <time>2019-11-01T11:19:43Z</time>
      </trkpt>
      <trkpt lat="44.85195" lon="5.73455">
        <ele>678.84</ele>
        <time>2019-11-01T11:19:44Z</time>
      </trkpt>
      <trkpt lat="44.85188" lon="5.73456">
        <ele>677.73</ele>
        <time>2019-11-01T11:19:45Z</time>
      </trkpt>
      <trkpt lat="44.85181" lon="5.7346">
        <ele>676.69</ele>
        <time>2019-11-01T11:19:46Z</time>
      </trkpt>
      <trkpt lat="44.85173" lon="5.73465">
        <ele>675.68</ele>
        <time>2019-11-01T11:19:47Z</time>
      </trkpt>
      <trkpt lat="44.85165" lon="5.7347">
        <ele>674.89</ele>
        <time>2019-11-01T11:19:48Z</time>
      </trkpt>
      <trkpt lat="44.85157" lon="5.73475">
        <ele>674.09</ele>
        <time>2019-11-01T11:19:49Z</time>
      </trkpt>
      <trkpt lat="44.85148" lon="5.73481">
        <ele>673.57</ele>
        <time>2019-11-01T11:19:50Z</time>
      </trkpt>
      <trkpt lat="44.85139" lon="5.73486">
        <ele>673.14</ele>
        <time>2019-11-01T11:19:51Z</time>
      </trkpt>
      <trkpt lat="44.85132" lon="5.73489">
        <ele>672.73</ele>
        <time>2019-11-01T11:19:52Z</time>
      </trkpt>
      <trkpt lat="44.85127" lon="5.73489">
        <ele>672.53</ele>
        <time>2019-11-01T11:19:53Z</time>
      </trkpt>
      <trkpt lat="44.85123" lon="5.73487">
        <ele>671.98</ele>
        <time>2019-11-01T11:19:54Z</time>
      </trkpt>
      <trkpt lat="44.8512" lon="5.73483">
        <ele>671.54</ele>
        <time>2019-11-01T11:19:55Z</time>
      </trkpt>
      <trkpt lat="44.85119" lon="5.73478">
        <ele>670.92</ele>
        <time>2019-11-01T11:19:56Z</time>
      </trkpt>
      <trkpt lat="44.85119" lon="5.73475">
        <ele>670.45</ele>
        <time>2019-11-01T11:19:57Z</time>
      </trkpt>
      <trkpt lat="44.85121" lon="5.73471">
        <ele>670.31</ele>
        <time>2019-11-01T11:19:58Z</time>
      </trkpt>
      <trkpt lat="44.85122" lon="5.73467">
        <ele>670.06</ele>
        <time>2019-11-01T11:19:59Z</time>
      </trkpt>
      <trkpt lat="44.85122" lon="5.73464">
        <ele>669.77</ele>
        <time>2019-11-01T11:20:00Z</time>
      </trkpt>
      <trkpt lat="44.85124" lon="5.73461">
        <ele>669.55</ele>
        <time>2019-11-01T11:20:01Z</time>
      </trkpt>
      <trkpt lat="44.85125" lon="5.73459">
        <ele>669.41</ele>
        <time>2019-11-01T11:20:02Z</time>
      </trkpt>
      <trkpt lat="44.85128" lon="5.73456">
        <ele>668.85</ele>
        <time>2019-11-01T11:20:04Z</time>
      </trkpt>
      <trkpt lat="44.8513" lon="5.73452">
        <ele>668.65</ele>
        <time>2019-11-01T11:20:06Z</time>
      </trkpt>
      <trkpt lat="44.85131" lon="5.7345">
        <ele>668.58</ele>
        <time>2019-11-01T11:20:07Z</time>
      </trkpt>
      <trkpt lat="44.85133" lon="5.73448">
        <ele>668.7</ele>
        <time>2019-11-01T11:20:08Z</time>
      </trkpt>
      <trkpt lat="44.85134" lon="5.73445">
        <ele>669.51</ele>
        <time>2019-11-01T11:20:10Z</time>
      </trkpt>
      <trkpt lat="44.85135" lon="5.73442">
        <ele>670.05</ele>
        <time>2019-11-01T11:20:12Z</time>
      </trkpt>
      <trkpt lat="44.85135" lon="5.73439">
        <ele>670.88</ele>
        <time>2019-11-01T11:20:14Z</time>
      </trkpt>
      <trkpt lat="44.85135" lon="5.73435">
        <ele>671.33</ele>
        <time>2019-11-01T11:20:16Z</time>
      </trkpt>
      <trkpt lat="44.85135" lon="5.73432">
        <ele>671.76</ele>
        <time>2019-11-01T11:20:17Z</time>
      </trkpt>
      <trkpt lat="44.85134" lon="5.73428">
        <ele>672.32</ele>
        <time>2019-11-01T11:20:19Z</time>
      </trkpt>
      <trkpt lat="44.85132" lon="5.73426">
        <ele>673.36</ele>
        <time>2019-11-01T11:20:21Z</time>
      </trkpt>
      <trkpt lat="44.8513" lon="5.73425">
        <ele>674.36</ele>
        <time>2019-11-01T11:20:23Z</time>
      </trkpt>
      <trkpt lat="44.85128" lon="5.73425">
        <ele>674.65</ele>
        <time>2019-11-01T11:20:25Z</time>
      </trkpt>
      <trkpt lat="44.85125" lon="5.73425">
        <ele>675.08</ele>
        <time>2019-11-01T11:20:27Z</time>
      </trkpt>
      <trkpt lat="44.85122" lon="5.73425">
        <ele>675.42</ele>
        <time>2019-11-01T11:20:29Z</time>
      </trkpt>
      <trkpt lat="44.85121" lon="5.73425">
        <ele>675.54</ele>
        <time>2019-11-01T11:20:31Z</time>
      </trkpt>
      <trkpt lat="44.85115" lon="5.73425">
        <ele>676.07</ele>
        <time>2019-11-01T11:20:36Z</time>
      </trkpt>
      <trkpt lat="44.85112" lon="5.73425">
        <ele>676.58</ele>
        <time>2019-11-01T11:20:38Z</time>
      </trkpt>
      <trkpt lat="44.8511" lon="5.73425">
        <ele>677.38</ele>
        <time>2019-11-01T11:20:40Z</time>
      </trkpt>
      <trkpt lat="44.85108" lon="5.73426">
        <ele>678.11</ele>
        <time>2019-11-01T11:20:42Z</time>
      </trkpt>
      <trkpt lat="44.85106" lon="5.73427">
        <ele>678.65</ele>
        <time>2019-11-01T11:20:44Z</time>
      </trkpt>
      <trkpt lat="44.85104" lon="5.73428">
        <ele>679.08</ele>
        <time>2019-11-01T11:20:46Z</time>
      </trkpt>
      <trkpt lat="44.85101" lon="5.73428">
        <ele>679.56</ele>
        <time>2019-11-01T11:20:48Z</time>
      </trkpt>
      <trkpt lat="44.85099" lon="5.73429">
        <ele>679.62</ele>
        <time>2019-11-01T11:20:50Z</time>
      </trkpt>
      <trkpt lat="44.85096" lon="5.73429">
        <ele>680.13</ele>
        <time>2019-11-01T11:20:52Z</time>
      </trkpt>
      <trkpt lat="44.85094" lon="5.73429">
        <ele>680.61</ele>
        <time>2019-11-01T11:20:54Z</time>
      </trkpt>
      <trkpt lat="44.85092" lon="5.7343">
        <ele>680.74</ele>
        <time>2019-11-01T11:20:56Z</time>
      </trkpt>
      <trkpt lat="44.85089" lon="5.7343">
        <ele>681.3</ele>
        <time>2019-11-01T11:20:58Z</time>
      </trkpt>
      <trkpt lat="44.85087" lon="5.7343">
        <ele>681.85</ele>
        <time>2019-11-01T11:21:00Z</time>
      </trkpt>
      <trkpt lat="44.85085" lon="5.7343">
        <ele>682.35</ele>
        <time>2019-11-01T11:21:02Z</time>
      </trkpt>
      <trkpt lat="44.85083" lon="5.7343">
        <ele>682.76</ele>
        <time>2019-11-01T11:21:04Z</time>
      </trkpt>
      <trkpt lat="44.85073" lon="5.73432">
        <ele>684.14</ele>
        <time>2019-11-01T11:21:13Z</time>
      </trkpt>
      <trkpt lat="44.85071" lon="5.73434">
        <ele>685.04</ele>
        <time>2019-11-01T11:21:15Z</time>
      </trkpt>
      <trkpt lat="44.85068" lon="5.73434">
        <ele>685.78</ele>
        <time>2019-11-01T11:21:17Z</time>
      </trkpt>
      <trkpt lat="44.85066" lon="5.73433">
        <ele>686.58</ele>
        <time>2019-11-01T11:21:19Z</time>
      </trkpt>
      <trkpt lat="44.85063" lon="5.73434">
        <ele>687.08</ele>
        <time>2019-11-01T11:21:21Z</time>
      </trkpt>
      <trkpt lat="44.85061" lon="5.73435">
        <ele>687.23</ele>
        <time>2019-11-01T11:21:23Z</time>
      </trkpt>
      <trkpt lat="44.85058" lon="5.73435">
        <ele>687.57</ele>
        <time>2019-11-01T11:21:25Z</time>
      </trkpt>
      <trkpt lat="44.85055" lon="5.73435">
        <ele>688.19</ele>
        <time>2019-11-01T11:21:27Z</time>
      </trkpt>
      <trkpt lat="44.85053" lon="5.73435">
        <ele>688.87</ele>
        <time>2019-11-01T11:21:29Z</time>
      </trkpt>
      <trkpt lat="44.8505" lon="5.73434">
        <ele>689.7</ele>
        <time>2019-11-01T11:21:31Z</time>
      </trkpt>
      <trkpt lat="44.85048" lon="5.73434">
        <ele>690.5</ele>
        <time>2019-11-01T11:21:33Z</time>
      </trkpt>
      <trkpt lat="44.85045" lon="5.73433">
        <ele>691.3</ele>
        <time>2019-11-01T11:21:35Z</time>
      </trkpt>
      <trkpt lat="44.85043" lon="5.73432">
        <ele>692.29</ele>
        <time>2019-11-01T11:21:38Z</time>
      </trkpt>
      <trkpt lat="44.8504" lon="5.73432">
        <ele>692.94</ele>
        <time>2019-11-01T11:21:40Z</time>
      </trkpt>
      <trkpt lat="44.85037" lon="5.73431">
        <ele>693.59</ele>
        <time>2019-11-01T11:21:42Z</time>
      </trkpt>
      <trkpt lat="44.85035" lon="5.73432">
        <ele>694.22</ele>
        <time>2019-11-01T11:21:44Z</time>
      </trkpt>
      <trkpt lat="44.85033" lon="5.73431">
        <ele>694.75</ele>
        <time>2019-11-01T11:21:46Z</time>
      </trkpt>
      <trkpt lat="44.8503" lon="5.73431">
        <ele>695.18</ele>
        <time>2019-11-01T11:21:48Z</time>
      </trkpt>
      <trkpt lat="44.85027" lon="5.73431">
        <ele>695.4</ele>
        <time>2019-11-01T11:21:50Z</time>
      </trkpt>
      <trkpt lat="44.85025" lon="5.73431">
        <ele>695.84</ele>
        <time>2019-11-01T11:21:52Z</time>
      </trkpt>
      <trkpt lat="44.85023" lon="5.73432">
        <ele>696.33</ele>
        <time>2019-11-01T11:21:54Z</time>
      </trkpt>
      <trkpt lat="44.85021" lon="5.73433">
        <ele>697.22</ele>
        <time>2019-11-01T11:21:57Z</time>
      </trkpt>
      <trkpt lat="44.85014" lon="5.73434">
        <ele>699.11</ele>
        <time>2019-11-01T11:22:06Z</time>
      </trkpt>
      <trkpt lat="44.85011" lon="5.73433">
        <ele>700.06</ele>
        <time>2019-11-01T11:22:08Z</time>
      </trkpt>
      <trkpt lat="44.85008" lon="5.73433">
        <ele>700.95</ele>
        <time>2019-11-01T11:22:10Z</time>
      </trkpt>
      <trkpt lat="44.85006" lon="5.73432">
        <ele>701.61</ele>
        <time>2019-11-01T11:22:12Z</time>
      </trkpt>
      <trkpt lat="44.85004" lon="5.73432">
        <ele>702.27</ele>
        <time>2019-11-01T11:22:14Z</time>
      </trkpt>
      <trkpt lat="44.85001" lon="5.73431">
        <ele>703.17</ele>
        <time>2019-11-01T11:22:16Z</time>
      </trkpt>
      <trkpt lat="44.84998" lon="5.73432">
        <ele>703.89</ele>
        <time>2019-11-01T11:22:18Z</time>
      </trkpt>
      <trkpt lat="44.84995" lon="5.73431">
        <ele>704.59</ele>
        <time>2019-11-01T11:22:20Z</time>
      </trkpt>
      <trkpt lat="44.84992" lon="5.7343">
        <ele>705.36</ele>
        <time>2019-11-01T11:22:22Z</time>
      </trkpt>
      <trkpt lat="44.8499" lon="5.73429">
        <ele>706.01</ele>
        <time>2019-11-01T11:22:24Z</time>
      </trkpt>
      <trkpt lat="44.84988" lon="5.73428">
        <ele>706.78</ele>
        <time>2019-11-01T11:22:26Z</time>
      </trkpt>
      <trkpt lat="44.84985" lon="5.73426">
        <ele>707.49</ele>
        <time>2019-11-01T11:22:28Z</time>
      </trkpt>
      <trkpt lat="44.84983" lon="5.73425">
        <ele>708.3</ele>
        <time>2019-11-01T11:22:30Z</time>
      </trkpt>
      <trkpt lat="44.84981" lon="5.73425">
        <ele>708.99</ele>
        <time>2019-11-01T11:22:32Z</time>
      </trkpt>
      <trkpt lat="44.84978" lon="5.73423">
        <ele>709.48</ele>
        <time>2019-11-01T11:22:34Z</time>
      </trkpt>
      <trkpt lat="44.84976" lon="5.73422">
        <ele>709.86</ele>
        <time>2019-11-01T11:22:36Z</time>
      </trkpt>
      <trkpt lat="44.84974" lon="5.73421">
        <ele>710.12</ele>
        <time>2019-11-01T11:22:38Z</time>
      </trkpt>
      <trkpt lat="44.84972" lon="5.7342">
        <ele>710.4</ele>
        <time>2019-11-01T11:22:40Z</time>
      </trkpt>
      <trkpt lat="44.8497" lon="5.7342">
        <ele>710.93</ele>
        <time>2019-11-01T11:22:42Z</time>
      </trkpt>
      <trkpt lat="44.84968" lon="5.73421">
        <ele>711.59</ele>
        <time>2019-11-01T11:22:44Z</time>
      </trkpt>
      <trkpt lat="44.84965" lon="5.73422">
        <ele>712.38</ele>
        <time>2019-11-01T11:22:46Z</time>
      </trkpt>
      <trkpt lat="44.84961" lon="5.73423">
        <ele>713.39</ele>
        <time>2019-11-01T11:22:48Z</time>
      </trkpt>
      <trkpt lat="44.84958" lon="5.73423">
        <ele>714.27</ele>
        <time>2019-11-01T11:22:50Z</time>
      </trkpt>
      <trkpt lat="44.84956" lon="5.73422">
        <ele>714.85</ele>
        <time>2019-11-01T11:22:52Z</time>
      </trkpt>
      <trkpt lat="44.84952" lon="5.73424">
        <ele>715.12</ele>
        <time>2019-11-01T11:22:54Z</time>
      </trkpt>
      <trkpt lat="44.84949" lon="5.73426">
        <ele>715.63</ele>
        <time>2019-11-01T11:22:56Z</time>
      </trkpt>
      <trkpt lat="44.84945" lon="5.73427">
        <ele>715.85</ele>
        <time>2019-11-01T11:22:58Z</time>
      </trkpt>
      <trkpt lat="44.84943" lon="5.73428">
        <ele>716.08</ele>
        <time>2019-11-01T11:23:00Z</time>
      </trkpt>
      <trkpt lat="44.84939" lon="5.73429">
        <ele>716.16</ele>
        <time>2019-11-01T11:23:02Z</time>
      </trkpt>
      <trkpt lat="44.84938" lon="5.7343">
        <ele>716.22</ele>
        <time>2019-11-01T11:23:03Z</time>
      </trkpt>
      <trkpt lat="44.84936" lon="5.7343">
        <ele>716.31</ele>
        <time>2019-11-01T11:23:04Z</time>
      </trkpt>
      <trkpt lat="44.84933" lon="5.7343">
        <ele>716.51</ele>
        <time>2019-11-01T11:23:06Z</time>
      </trkpt>
      <trkpt lat="44.8493" lon="5.73431">
        <ele>716.45</ele>
        <time>2019-11-01T11:23:08Z</time>
      </trkpt>
      <trkpt lat="44.84927" lon="5.73432">
        <ele>716.63</ele>
        <time>2019-11-01T11:23:10Z</time>
      </trkpt>
      <trkpt lat="44.84925" lon="5.73434">
        <ele>716.85</ele>
        <time>2019-11-01T11:23:12Z</time>
      </trkpt>
      <trkpt lat="44.84921" lon="5.73435">
        <ele>715.87</ele>
        <time>2019-11-01T11:24:25Z</time>
      </trkpt>
      <trkpt lat="44.84919" lon="5.73436">
        <ele>715.4</ele>
        <time>2019-11-01T11:24:27Z</time>
      </trkpt>
      <trkpt lat="44.84917" lon="5.73437">
        <ele>715.43</ele>
        <time>2019-11-01T11:24:28Z</time>
      </trkpt>
      <trkpt lat="44.84913" lon="5.73438">
        <ele>715.61</ele>
        <time>2019-11-01T11:24:30Z</time>
      </trkpt>
      <trkpt lat="44.84912" lon="5.73439">
        <ele>715.71</ele>
        <time>2019-11-01T11:24:31Z</time>
      </trkpt>
      <trkpt lat="44.8491" lon="5.73441">
        <ele>715.74</ele>
        <time>2019-11-01T11:24:32Z</time>
      </trkpt>
      <trkpt lat="44.84908" lon="5.73442">
        <ele>715.75</ele>
        <time>2019-11-01T11:24:33Z</time>
      </trkpt>
      <trkpt lat="44.84905" lon="5.73444">
        <ele>715.22</ele>
        <time>2019-11-01T11:24:35Z</time>
      </trkpt>
      <trkpt lat="44.84904" lon="5.73445">
        <ele>714.68</ele>
        <time>2019-11-01T11:24:36Z</time>
      </trkpt>
      <trkpt lat="44.84902" lon="5.73446">
        <ele>714.17</ele>
        <time>2019-11-01T11:24:37Z</time>
      </trkpt>
      <trkpt lat="44.849" lon="5.73446">
        <ele>713.87</ele>
        <time>2019-11-01T11:24:38Z</time>
      </trkpt>
      <trkpt lat="44.84898" lon="5.73446">
        <ele>713.65</ele>
        <time>2019-11-01T11:24:39Z</time>
      </trkpt>
      <trkpt lat="44.84896" lon="5.73447">
        <ele>713.51</ele>
        <time>2019-11-01T11:24:40Z</time>
      </trkpt>
      <trkpt lat="44.84893" lon="5.73447">
        <ele>713.47</ele>
        <time>2019-11-01T11:24:41Z</time>
      </trkpt>
      <trkpt lat="44.84891" lon="5.73447">
        <ele>713.52</ele>
        <time>2019-11-01T11:24:42Z</time>
      </trkpt>
      <trkpt lat="44.84888" lon="5.73445">
        <ele>713.89</ele>
        <time>2019-11-01T11:24:44Z</time>
      </trkpt>
      <trkpt lat="44.84885" lon="5.73444">
        <ele>714.27</ele>
        <time>2019-11-01T11:24:46Z</time>
      </trkpt>
      <trkpt lat="44.84882" lon="5.73444">
        <ele>714.36</ele>
        <time>2019-11-01T11:24:48Z</time>
      </trkpt>
      <trkpt lat="44.84878" lon="5.73444">
        <ele>714.49</ele>
        <time>2019-11-01T11:24:50Z</time>
      </trkpt>
      <trkpt lat="44.84876" lon="5.73444">
        <ele>714.67</ele>
        <time>2019-11-01T11:24:51Z</time>
      </trkpt>
      <trkpt lat="44.84873" lon="5.73442">
        <ele>714.97</ele>
        <time>2019-11-01T11:24:53Z</time>
      </trkpt>
      <trkpt lat="44.8487" lon="5.7344">
        <ele>715.36</ele>
        <time>2019-11-01T11:24:55Z</time>
      </trkpt>
      <trkpt lat="44.84869" lon="5.73439">
        <ele>715.35</ele>
        <time>2019-11-01T11:24:56Z</time>
      </trkpt>
      <trkpt lat="44.84867" lon="5.73438">
        <ele>715.42</ele>
        <time>2019-11-01T11:24:57Z</time>
      </trkpt>
      <trkpt lat="44.84865" lon="5.73437">
        <ele>715.57</ele>
        <time>2019-11-01T11:24:59Z</time>
      </trkpt>
      <trkpt lat="44.84863" lon="5.73435">
        <ele>716.38</ele>
        <time>2019-11-01T11:25:01Z</time>
      </trkpt>
      <trkpt lat="44.8486" lon="5.73432">
        <ele>715.99</ele>
        <time>2019-11-01T11:25:03Z</time>
      </trkpt>
      <trkpt lat="44.84859" lon="5.73429">
        <ele>716.08</ele>
        <time>2019-11-01T11:25:06Z</time>
      </trkpt>
      <trkpt lat="44.8486" lon="5.73427">
        <ele>716.21</ele>
        <time>2019-11-01T11:25:08Z</time>
      </trkpt>
      <trkpt lat="44.84862" lon="5.73423">
        <ele>716.64</ele>
        <time>2019-11-01T11:25:10Z</time>
      </trkpt>
      <trkpt lat="44.84864" lon="5.7342">
        <ele>717.43</ele>
        <time>2019-11-01T11:25:12Z</time>
      </trkpt>
      <trkpt lat="44.84865" lon="5.73417">
        <ele>718.08</ele>
        <time>2019-11-01T11:25:14Z</time>
      </trkpt>
      <trkpt lat="44.84865" lon="5.73413">
        <ele>718.54</ele>
        <time>2019-11-01T11:25:16Z</time>
      </trkpt>
      <trkpt lat="44.84866" lon="5.7341">
        <ele>718.89</ele>
        <time>2019-11-01T11:25:18Z</time>
      </trkpt>
      <trkpt lat="44.84867" lon="5.73407">
        <ele>719.06</ele>
        <time>2019-11-01T11:25:20Z</time>
      </trkpt>
      <trkpt lat="44.84868" lon="5.73405">
        <ele>719.21</ele>
        <time>2019-11-01T11:25:22Z</time>
      </trkpt>
      <trkpt lat="44.8487" lon="5.73402">
        <ele>719.52</ele>
        <time>2019-11-01T11:25:24Z</time>
      </trkpt>
      <trkpt lat="44.84872" lon="5.734">
        <ele>719.62</ele>
        <time>2019-11-01T11:25:26Z</time>
      </trkpt>
      <trkpt lat="44.84873" lon="5.73397">
        <ele>719.97</ele>
        <time>2019-11-01T11:25:28Z</time>
      </trkpt>
      <trkpt lat="44.84874" lon="5.73394">
        <ele>720.57</ele>
        <time>2019-11-01T11:25:30Z</time>
      </trkpt>
      <trkpt lat="44.84875" lon="5.73391">
        <ele>721.22</ele>
        <time>2019-11-01T11:25:32Z</time>
      </trkpt>
      <trkpt lat="44.84876" lon="5.73389">
        <ele>721.76</ele>
        <time>2019-11-01T11:25:35Z</time>
      </trkpt>
      <trkpt lat="44.84884" lon="5.73384">
        <ele>722.76</ele>
        <time>2019-11-01T11:25:41Z</time>
      </trkpt>
      <trkpt lat="44.84887" lon="5.73383">
        <ele>723.6</ele>
        <time>2019-11-01T11:25:43Z</time>
      </trkpt>
      <trkpt lat="44.84889" lon="5.73382">
        <ele>724.45</ele>
        <time>2019-11-01T11:25:45Z</time>
      </trkpt>
      <trkpt lat="44.84891" lon="5.7338">
        <ele>725.21</ele>
        <time>2019-11-01T11:25:47Z</time>
      </trkpt>
      <trkpt lat="44.84893" lon="5.73378">
        <ele>726.24</ele>
        <time>2019-11-01T11:25:50Z</time>
      </trkpt>
      <trkpt lat="44.84902" lon="5.73372">
        <ele>728.09</ele>
        <time>2019-11-01T11:26:02Z</time>
      </trkpt>
      <trkpt lat="44.84904" lon="5.7337">
        <ele>728.76</ele>
        <time>2019-11-01T11:26:03Z</time>
      </trkpt>
      <trkpt lat="44.84906" lon="5.73369">
        <ele>729.37</ele>
        <time>2019-11-01T11:26:05Z</time>
      </trkpt>
      <trkpt lat="44.84908" lon="5.73369">
        <ele>729.76</ele>
        <time>2019-11-01T11:26:07Z</time>
      </trkpt>
      <trkpt lat="44.84911" lon="5.73368">
        <ele>730.39</ele>
        <time>2019-11-01T11:26:09Z</time>
      </trkpt>
      <trkpt lat="44.84913" lon="5.73367">
        <ele>730.95</ele>
        <time>2019-11-01T11:26:11Z</time>
      </trkpt>
      <trkpt lat="44.84914" lon="5.73366">
        <ele>731.65</ele>
        <time>2019-11-01T11:26:14Z</time>
      </trkpt>
      <trkpt lat="44.84921" lon="5.73362">
        <ele>732.73</ele>
        <time>2019-11-01T11:26:21Z</time>
      </trkpt>
      <trkpt lat="44.84923" lon="5.7336">
        <ele>733.66</ele>
        <time>2019-11-01T11:26:23Z</time>
      </trkpt>
      <trkpt lat="44.84925" lon="5.73358">
        <ele>734.06</ele>
        <time>2019-11-01T11:26:25Z</time>
      </trkpt>
      <trkpt lat="44.84927" lon="5.73356">
        <ele>734.57</ele>
        <time>2019-11-01T11:26:28Z</time>
      </trkpt>
      <trkpt lat="44.84929" lon="5.73353">
        <ele>734.92</ele>
        <time>2019-11-01T11:26:30Z</time>
      </trkpt>
      <trkpt lat="44.84932" lon="5.73352">
        <ele>735.52</ele>
        <time>2019-11-01T11:26:32Z</time>
      </trkpt>
      <trkpt lat="44.84935" lon="5.7335">
        <ele>736.6</ele>
        <time>2019-11-01T11:26:34Z</time>
      </trkpt>
      <trkpt lat="44.84936" lon="5.73349">
        <ele>737.4</ele>
        <time>2019-11-01T11:26:36Z</time>
      </trkpt>
      <trkpt lat="44.84938" lon="5.73347">
        <ele>738.27</ele>
        <time>2019-11-01T11:26:38Z</time>
      </trkpt>
      <trkpt lat="44.84939" lon="5.73346">
        <ele>739.08</ele>
        <time>2019-11-01T11:26:40Z</time>
      </trkpt>
      <trkpt lat="44.84942" lon="5.73344">
        <ele>739.56</ele>
        <time>2019-11-01T11:26:42Z</time>
      </trkpt>
      <trkpt lat="44.84944" lon="5.73344">
        <ele>740.19</ele>
        <time>2019-11-01T11:26:44Z</time>
      </trkpt>
      <trkpt lat="44.84946" lon="5.73342">
        <ele>740.98</ele>
        <time>2019-11-01T11:26:46Z</time>
      </trkpt>
      <trkpt lat="44.84947" lon="5.73341">
        <ele>741.45</ele>
        <time>2019-11-01T11:26:47Z</time>
      </trkpt>
      <trkpt lat="44.84949" lon="5.7334">
        <ele>741.94</ele>
        <time>2019-11-01T11:26:48Z</time>
      </trkpt>
      <trkpt lat="44.84951" lon="5.73338">
        <ele>742.61</ele>
        <time>2019-11-01T11:26:50Z</time>
      </trkpt>
      <trkpt lat="44.84954" lon="5.73336">
        <ele>743.31</ele>
        <time>2019-11-01T11:26:52Z</time>
      </trkpt>
      <trkpt lat="44.84956" lon="5.73335">
        <ele>744.06</ele>
        <time>2019-11-01T11:26:54Z</time>
      </trkpt>
      <trkpt lat="44.84958" lon="5.73334">
        <ele>744.47</ele>
        <time>2019-11-01T11:26:55Z</time>
      </trkpt>
      <trkpt lat="44.84961" lon="5.73332">
        <ele>745.39</ele>
        <time>2019-11-01T11:26:57Z</time>
      </trkpt>
      <trkpt lat="44.84963" lon="5.73331">
        <ele>746</ele>
        <time>2019-11-01T11:26:59Z</time>
      </trkpt>
      <trkpt lat="44.84965" lon="5.73331">
        <ele>746.69</ele>
        <time>2019-11-01T11:27:01Z</time>
      </trkpt>
      <trkpt lat="44.84967" lon="5.73328">
        <ele>747.71</ele>
        <time>2019-11-01T11:27:04Z</time>
      </trkpt>
      <trkpt lat="44.84969" lon="5.73327">
        <ele>748.25</ele>
        <time>2019-11-01T11:27:06Z</time>
      </trkpt>
      <trkpt lat="44.84971" lon="5.73324">
        <ele>749.05</ele>
        <time>2019-11-01T11:27:09Z</time>
      </trkpt>
      <trkpt lat="44.84972" lon="5.73322">
        <ele>749.56</ele>
        <time>2019-11-01T11:27:11Z</time>
      </trkpt>
      <trkpt lat="44.84974" lon="5.73319">
        <ele>750.38</ele>
        <time>2019-11-01T11:27:13Z</time>
      </trkpt>
      <trkpt lat="44.84975" lon="5.73317">
        <ele>750.86</ele>
        <time>2019-11-01T11:27:15Z</time>
      </trkpt>
      <trkpt lat="44.84977" lon="5.73315">
        <ele>751.42</ele>
        <time>2019-11-01T11:27:17Z</time>
      </trkpt>
      <trkpt lat="44.84978" lon="5.73312">
        <ele>752.25</ele>
        <time>2019-11-01T11:27:19Z</time>
      </trkpt>
      <trkpt lat="44.8498" lon="5.7331">
        <ele>753.17</ele>
        <time>2019-11-01T11:27:21Z</time>
      </trkpt>
      <trkpt lat="44.84981" lon="5.73308">
        <ele>754.07</ele>
        <time>2019-11-01T11:27:23Z</time>
      </trkpt>
      <trkpt lat="44.84983" lon="5.73304">
        <ele>754.81</ele>
        <time>2019-11-01T11:27:25Z</time>
      </trkpt>
      <trkpt lat="44.84984" lon="5.73302">
        <ele>755.63</ele>
        <time>2019-11-01T11:27:27Z</time>
      </trkpt>
      <trkpt lat="44.84985" lon="5.73298">
        <ele>756.97</ele>
        <time>2019-11-01T11:27:30Z</time>
      </trkpt>
      <trkpt lat="44.84986" lon="5.73295">
        <ele>757.69</ele>
        <time>2019-11-01T11:27:32Z</time>
      </trkpt>
      <trkpt lat="44.84988" lon="5.73291">
        <ele>759.14</ele>
        <time>2019-11-01T11:27:35Z</time>
      </trkpt>
      <trkpt lat="44.84988" lon="5.73288">
        <ele>759.89</ele>
        <time>2019-11-01T11:27:37Z</time>
      </trkpt>
      <trkpt lat="44.8499" lon="5.73285">
        <ele>760.36</ele>
        <time>2019-11-01T11:27:39Z</time>
      </trkpt>
      <trkpt lat="44.84991" lon="5.73283">
        <ele>760.76</ele>
        <time>2019-11-01T11:27:41Z</time>
      </trkpt>
      <trkpt lat="44.84992" lon="5.7328">
        <ele>760.98</ele>
        <time>2019-11-01T11:27:43Z</time>
      </trkpt>
      <trkpt lat="44.84993" lon="5.73277">
        <ele>761.39</ele>
        <time>2019-11-01T11:27:45Z</time>
      </trkpt>
      <trkpt lat="44.84994" lon="5.73274">
        <ele>761.19</ele>
        <time>2019-11-01T11:27:47Z</time>
      </trkpt>
      <trkpt lat="44.84996" lon="5.73271">
        <ele>760.9</ele>
        <time>2019-11-01T11:27:49Z</time>
      </trkpt>
      <trkpt lat="44.84998" lon="5.73268">
        <ele>760.35</ele>
        <time>2019-11-01T11:27:51Z</time>
      </trkpt>
      <trkpt lat="44.85" lon="5.73266">
        <ele>760.15</ele>
        <time>2019-11-01T11:27:53Z</time>
      </trkpt>
      <trkpt lat="44.85001" lon="5.73263">
        <ele>760.31</ele>
        <time>2019-11-01T11:27:55Z</time>
      </trkpt>
      <trkpt lat="44.85003" lon="5.73261">
        <ele>760.79</ele>
        <time>2019-11-01T11:27:57Z</time>
      </trkpt>
      <trkpt lat="44.85004" lon="5.73258">
        <ele>761</ele>
        <time>2019-11-01T11:27:59Z</time>
      </trkpt>
      <trkpt lat="44.85006" lon="5.73255">
        <ele>761.11</ele>
        <time>2019-11-01T11:28:01Z</time>
      </trkpt>
      <trkpt lat="44.85007" lon="5.73252">
        <ele>761.47</ele>
        <time>2019-11-01T11:28:03Z</time>
      </trkpt>
      <trkpt lat="44.85008" lon="5.73249">
        <ele>761.63</ele>
        <time>2019-11-01T11:28:05Z</time>
      </trkpt>
      <trkpt lat="44.85008" lon="5.73246">
        <ele>761.97</ele>
        <time>2019-11-01T11:28:07Z</time>
      </trkpt>
      <trkpt lat="44.85009" lon="5.73243">
        <ele>761.94</ele>
        <time>2019-11-01T11:28:09Z</time>
      </trkpt>
      <trkpt lat="44.8501" lon="5.73239">
        <ele>761.74</ele>
        <time>2019-11-01T11:28:11Z</time>
      </trkpt>
      <trkpt lat="44.8501" lon="5.73235">
        <ele>761.41</ele>
        <time>2019-11-01T11:28:13Z</time>
      </trkpt>
      <trkpt lat="44.8501" lon="5.73231">
        <ele>761.52</ele>
        <time>2019-11-01T11:28:15Z</time>
      </trkpt>
      <trkpt lat="44.8501" lon="5.73228">
        <ele>761.78</ele>
        <time>2019-11-01T11:28:17Z</time>
      </trkpt>
      <trkpt lat="44.85011" lon="5.73225">
        <ele>761.96</ele>
        <time>2019-11-01T11:28:19Z</time>
      </trkpt>
      <trkpt lat="44.85011" lon="5.73222">
        <ele>762.43</ele>
        <time>2019-11-01T11:28:21Z</time>
      </trkpt>
      <trkpt lat="44.85012" lon="5.73218">
        <ele>762.65</ele>
        <time>2019-11-01T11:28:23Z</time>
      </trkpt>
      <trkpt lat="44.85012" lon="5.73214">
        <ele>762.81</ele>
        <time>2019-11-01T11:28:25Z</time>
      </trkpt>
      <trkpt lat="44.85013" lon="5.7321">
        <ele>763.26</ele>
        <time>2019-11-01T11:28:27Z</time>
      </trkpt>
      <trkpt lat="44.85015" lon="5.73209">
        <ele>764.29</ele>
        <time>2019-11-01T11:30:14Z</time>
      </trkpt>
      <trkpt lat="44.85016" lon="5.73206">
        <ele>765.01</ele>
        <time>2019-11-01T11:30:16Z</time>
      </trkpt>
      <trkpt lat="44.85017" lon="5.73203">
        <ele>765.71</ele>
        <time>2019-11-01T11:30:18Z</time>
      </trkpt>
      <trkpt lat="44.85019" lon="5.73199">
        <ele>766.39</ele>
        <time>2019-11-01T11:30:20Z</time>
      </trkpt>
      <trkpt lat="44.85019" lon="5.73196">
        <ele>767.02</ele>
        <time>2019-11-01T11:30:22Z</time>
      </trkpt>
      <trkpt lat="44.8502" lon="5.73193">
        <ele>767.62</ele>
        <time>2019-11-01T11:30:24Z</time>
      </trkpt>
      <trkpt lat="44.85021" lon="5.7319">
        <ele>768.2</ele>
        <time>2019-11-01T11:30:26Z</time>
      </trkpt>
      <trkpt lat="44.85023" lon="5.73187">
        <ele>768.91</ele>
        <time>2019-11-01T11:30:28Z</time>
      </trkpt>
      <trkpt lat="44.85024" lon="5.73184">
        <ele>769.61</ele>
        <time>2019-11-01T11:30:30Z</time>
      </trkpt>
      <trkpt lat="44.85025" lon="5.7318">
        <ele>770.38</ele>
        <time>2019-11-01T11:30:32Z</time>
      </trkpt>
      <trkpt lat="44.85026" lon="5.73176">
        <ele>771.2</ele>
        <time>2019-11-01T11:30:34Z</time>
      </trkpt>
      <trkpt lat="44.85028" lon="5.73173">
        <ele>771.96</ele>
        <time>2019-11-01T11:30:36Z</time>
      </trkpt>
      <trkpt lat="44.85029" lon="5.73169">
        <ele>772.94</ele>
        <time>2019-11-01T11:30:38Z</time>
      </trkpt>
      <trkpt lat="44.85029" lon="5.73166">
        <ele>773.61</ele>
        <time>2019-11-01T11:30:40Z</time>
      </trkpt>
      <trkpt lat="44.85029" lon="5.73162">
        <ele>774.26</ele>
        <time>2019-11-01T11:30:42Z</time>
      </trkpt>
      <trkpt lat="44.85029" lon="5.73159">
        <ele>774.57</ele>
        <time>2019-11-01T11:30:44Z</time>
      </trkpt>
      <trkpt lat="44.85029" lon="5.73155">
        <ele>775.27</ele>
        <time>2019-11-01T11:30:46Z</time>
      </trkpt>
      <trkpt lat="44.8503" lon="5.73152">
        <ele>775.85</ele>
        <time>2019-11-01T11:30:48Z</time>
      </trkpt>
      <trkpt lat="44.85032" lon="5.73149">
        <ele>776.12</ele>
        <time>2019-11-01T11:30:50Z</time>
      </trkpt>
      <trkpt lat="44.85032" lon="5.73145">
        <ele>776.33</ele>
        <time>2019-11-01T11:30:52Z</time>
      </trkpt>
      <trkpt lat="44.85033" lon="5.73142">
        <ele>776.72</ele>
        <time>2019-11-01T11:30:54Z</time>
      </trkpt>
      <trkpt lat="44.85033" lon="5.73137">
        <ele>777.39</ele>
        <time>2019-11-01T11:30:56Z</time>
      </trkpt>
      <trkpt lat="44.85034" lon="5.73133">
        <ele>777.88</ele>
        <time>2019-11-01T11:30:58Z</time>
      </trkpt>
      <trkpt lat="44.85035" lon="5.73129">
        <ele>778.29</ele>
        <time>2019-11-01T11:31:00Z</time>
      </trkpt>
      <trkpt lat="44.85036" lon="5.73125">
        <ele>778.32</ele>
        <time>2019-11-01T11:31:02Z</time>
      </trkpt>
      <trkpt lat="44.85036" lon="5.73121">
        <ele>778.62</ele>
        <time>2019-11-01T11:31:04Z</time>
      </trkpt>
      <trkpt lat="44.85036" lon="5.73118">
        <ele>778.94</ele>
        <time>2019-11-01T11:31:07Z</time>
      </trkpt>
      <trkpt lat="44.85038" lon="5.73116">
        <ele>779.27</ele>
        <time>2019-11-01T11:31:09Z</time>
      </trkpt>
      <trkpt lat="44.85039" lon="5.73114">
        <ele>779.82</ele>
        <time>2019-11-01T11:31:11Z</time>
      </trkpt>
      <trkpt lat="44.8504" lon="5.73111">
        <ele>780.67</ele>
        <time>2019-11-01T11:31:13Z</time>
      </trkpt>
      <trkpt lat="44.8504" lon="5.73108">
        <ele>781.18</ele>
        <time>2019-11-01T11:31:15Z</time>
      </trkpt>
      <trkpt lat="44.85042" lon="5.73105">
        <ele>781.82</ele>
        <time>2019-11-01T11:31:17Z</time>
      </trkpt>
      <trkpt lat="44.85045" lon="5.73104">
        <ele>782.22</ele>
        <time>2019-11-01T11:31:19Z</time>
      </trkpt>
      <trkpt lat="44.85047" lon="5.73101">
        <ele>783.02</ele>
        <time>2019-11-01T11:31:21Z</time>
      </trkpt>
      <trkpt lat="44.85049" lon="5.73099">
        <ele>784.01</ele>
        <time>2019-11-01T11:31:23Z</time>
      </trkpt>
      <trkpt lat="44.8505" lon="5.73097">
        <ele>784.62</ele>
        <time>2019-11-01T11:31:25Z</time>
      </trkpt>
      <trkpt lat="44.85052" lon="5.73094">
        <ele>785.03</ele>
        <time>2019-11-01T11:31:27Z</time>
      </trkpt>
      <trkpt lat="44.85053" lon="5.73092">
        <ele>785.35</ele>
        <time>2019-11-01T11:31:29Z</time>
      </trkpt>
      <trkpt lat="44.85054" lon="5.7309">
        <ele>785.48</ele>
        <time>2019-11-01T11:31:31Z</time>
      </trkpt>
      <trkpt lat="44.85056" lon="5.73088">
        <ele>785.38</ele>
        <time>2019-11-01T11:31:33Z</time>
      </trkpt>
      <trkpt lat="44.85058" lon="5.73085">
        <ele>785.12</ele>
        <time>2019-11-01T11:31:35Z</time>
      </trkpt>
      <trkpt lat="44.8506" lon="5.73083">
        <ele>785.17</ele>
        <time>2019-11-01T11:31:37Z</time>
      </trkpt>
      <trkpt lat="44.85061" lon="5.7308">
        <ele>784.9</ele>
        <time>2019-11-01T11:31:39Z</time>
      </trkpt>
      <trkpt lat="44.85061" lon="5.73078">
        <ele>784.6</ele>
        <time>2019-11-01T11:31:41Z</time>
      </trkpt>
      <trkpt lat="44.85063" lon="5.73075">
        <ele>784.69</ele>
        <time>2019-11-01T11:31:43Z</time>
      </trkpt>
      <trkpt lat="44.85064" lon="5.73071">
        <ele>785.07</ele>
        <time>2019-11-01T11:31:45Z</time>
      </trkpt>
      <trkpt lat="44.85066" lon="5.73068">
        <ele>785.67</ele>
        <time>2019-11-01T11:31:47Z</time>
      </trkpt>
      <trkpt lat="44.85066" lon="5.73065">
        <ele>786.16</ele>
        <time>2019-11-01T11:31:49Z</time>
      </trkpt>
      <trkpt lat="44.85067" lon="5.73062">
        <ele>786.65</ele>
        <time>2019-11-01T11:31:51Z</time>
      </trkpt>
      <trkpt lat="44.85067" lon="5.73059">
        <ele>787.06</ele>
        <time>2019-11-01T11:31:53Z</time>
      </trkpt>
      <trkpt lat="44.85068" lon="5.73056">
        <ele>787.51</ele>
        <time>2019-11-01T11:31:55Z</time>
      </trkpt>
      <trkpt lat="44.85068" lon="5.73053">
        <ele>788.19</ele>
        <time>2019-11-01T11:31:57Z</time>
      </trkpt>
      <trkpt lat="44.8507" lon="5.73051">
        <ele>789.3</ele>
        <time>2019-11-01T11:31:59Z</time>
      </trkpt>
      <trkpt lat="44.85071" lon="5.73048">
        <ele>790.26</ele>
        <time>2019-11-01T11:32:01Z</time>
      </trkpt>
      <trkpt lat="44.8508" lon="5.73041">
        <ele>791.28</ele>
        <time>2019-11-01T11:32:45Z</time>
      </trkpt>
      <trkpt lat="44.85082" lon="5.7304">
        <ele>791.78</ele>
        <time>2019-11-01T11:32:47Z</time>
      </trkpt>
      <trkpt lat="44.85085" lon="5.73039">
        <ele>792.26</ele>
        <time>2019-11-01T11:32:49Z</time>
      </trkpt>
      <trkpt lat="44.85086" lon="5.73037">
        <ele>792.73</ele>
        <time>2019-11-01T11:32:51Z</time>
      </trkpt>
      <trkpt lat="44.85088" lon="5.73036">
        <ele>792.95</ele>
        <time>2019-11-01T11:32:52Z</time>
      </trkpt>
      <trkpt lat="44.85091" lon="5.73035">
        <ele>793.38</ele>
        <time>2019-11-01T11:32:54Z</time>
      </trkpt>
      <trkpt lat="44.85093" lon="5.73034">
        <ele>793.93</ele>
        <time>2019-11-01T11:32:56Z</time>
      </trkpt>
      <trkpt lat="44.85095" lon="5.73033">
        <ele>794.2</ele>
        <time>2019-11-01T11:32:58Z</time>
      </trkpt>
      <trkpt lat="44.85096" lon="5.73031">
        <ele>794.59</ele>
        <time>2019-11-01T11:33:00Z</time>
      </trkpt>
      <trkpt lat="44.85098" lon="5.73029">
        <ele>794.97</ele>
        <time>2019-11-01T11:33:02Z</time>
      </trkpt>
      <trkpt lat="44.851" lon="5.73028">
        <ele>795.32</ele>
        <time>2019-11-01T11:33:04Z</time>
      </trkpt>
      <trkpt lat="44.85102" lon="5.73026">
        <ele>795.83</ele>
        <time>2019-11-01T11:33:06Z</time>
      </trkpt>
      <trkpt lat="44.85104" lon="5.73024">
        <ele>796.35</ele>
        <time>2019-11-01T11:33:08Z</time>
      </trkpt>
      <trkpt lat="44.85106" lon="5.73022">
        <ele>796.85</ele>
        <time>2019-11-01T11:33:10Z</time>
      </trkpt>
      <trkpt lat="44.85108" lon="5.73021">
        <ele>797.19</ele>
        <time>2019-11-01T11:33:12Z</time>
      </trkpt>
      <trkpt lat="44.8511" lon="5.73019">
        <ele>797.73</ele>
        <time>2019-11-01T11:33:14Z</time>
      </trkpt>
      <trkpt lat="44.85112" lon="5.73018">
        <ele>798.07</ele>
        <time>2019-11-01T11:33:16Z</time>
      </trkpt>
      <trkpt lat="44.85114" lon="5.73016">
        <ele>798.46</ele>
        <time>2019-11-01T11:33:18Z</time>
      </trkpt>
      <trkpt lat="44.85115" lon="5.73015">
        <ele>798.95</ele>
        <time>2019-11-01T11:33:20Z</time>
      </trkpt>
      <trkpt lat="44.85117" lon="5.73012">
        <ele>799.5</ele>
        <time>2019-11-01T11:33:22Z</time>
      </trkpt>
      <trkpt lat="44.85118" lon="5.73011">
        <ele>799.94</ele>
        <time>2019-11-01T11:33:24Z</time>
      </trkpt>
      <trkpt lat="44.85119" lon="5.73009">
        <ele>800.27</ele>
        <time>2019-11-01T11:33:26Z</time>
      </trkpt>
      <trkpt lat="44.85121" lon="5.73006">
        <ele>800.85</ele>
        <time>2019-11-01T11:33:28Z</time>
      </trkpt>
      <trkpt lat="44.85122" lon="5.73004">
        <ele>801.51</ele>
        <time>2019-11-01T11:33:30Z</time>
      </trkpt>
      <trkpt lat="44.85124" lon="5.73002">
        <ele>802.03</ele>
        <time>2019-11-01T11:33:32Z</time>
      </trkpt>
      <trkpt lat="44.85127" lon="5.73">
        <ele>802.44</ele>
        <time>2019-11-01T11:33:34Z</time>
      </trkpt>
      <trkpt lat="44.85129" lon="5.72997">
        <ele>802.84</ele>
        <time>2019-11-01T11:33:36Z</time>
      </trkpt>
      <trkpt lat="44.85131" lon="5.72994">
        <ele>803.42</ele>
        <time>2019-11-01T11:33:38Z</time>
      </trkpt>
      <trkpt lat="44.85133" lon="5.72992">
        <ele>803.95</ele>
        <time>2019-11-01T11:33:40Z</time>
      </trkpt>
      <trkpt lat="44.85134" lon="5.72989">
        <ele>804.36</ele>
        <time>2019-11-01T11:33:42Z</time>
      </trkpt>
      <trkpt lat="44.85135" lon="5.72986">
        <ele>804.83</ele>
        <time>2019-11-01T11:33:44Z</time>
      </trkpt>
      <trkpt lat="44.85137" lon="5.72983">
        <ele>805.31</ele>
        <time>2019-11-01T11:33:46Z</time>
      </trkpt>
      <trkpt lat="44.85138" lon="5.7298">
        <ele>805.9</ele>
        <time>2019-11-01T11:33:48Z</time>
      </trkpt>
      <trkpt lat="44.8514" lon="5.72977">
        <ele>806.59</ele>
        <time>2019-11-01T11:33:50Z</time>
      </trkpt>
      <trkpt lat="44.85141" lon="5.72974">
        <ele>807.22</ele>
        <time>2019-11-01T11:33:52Z</time>
      </trkpt>
      <trkpt lat="44.85142" lon="5.72972">
        <ele>807.95</ele>
        <time>2019-11-01T11:33:55Z</time>
      </trkpt>
      <trkpt lat="44.85143" lon="5.7297">
        <ele>808.43</ele>
        <time>2019-11-01T11:33:57Z</time>
      </trkpt>
      <trkpt lat="44.85145" lon="5.72968">
        <ele>809</ele>
        <time>2019-11-01T11:33:59Z</time>
      </trkpt>
      <trkpt lat="44.85147" lon="5.72966">
        <ele>809.58</ele>
        <time>2019-11-01T11:34:01Z</time>
      </trkpt>
      <trkpt lat="44.85149" lon="5.72963">
        <ele>810.49</ele>
        <time>2019-11-01T11:34:03Z</time>
      </trkpt>
      <trkpt lat="44.85151" lon="5.72962">
        <ele>811.03</ele>
        <time>2019-11-01T11:34:05Z</time>
      </trkpt>
      <trkpt lat="44.85154" lon="5.72959">
        <ele>811.53</ele>
        <time>2019-11-01T11:34:07Z</time>
      </trkpt>
      <trkpt lat="44.85156" lon="5.72958">
        <ele>812.14</ele>
        <time>2019-11-01T11:34:09Z</time>
      </trkpt>
      <trkpt lat="44.85158" lon="5.72956">
        <ele>812.58</ele>
        <time>2019-11-01T11:34:11Z</time>
      </trkpt>
      <trkpt lat="44.8516" lon="5.72953">
        <ele>813.54</ele>
        <time>2019-11-01T11:34:14Z</time>
      </trkpt>
      <trkpt lat="44.85161" lon="5.7295">
        <ele>814.01</ele>
        <time>2019-11-01T11:34:16Z</time>
      </trkpt>
      <trkpt lat="44.85164" lon="5.72949">
        <ele>814.16</ele>
        <time>2019-11-01T11:34:18Z</time>
      </trkpt>
      <trkpt lat="44.85165" lon="5.72947">
        <ele>814.98</ele>
        <time>2019-11-01T11:34:20Z</time>
      </trkpt>
      <trkpt lat="44.85168" lon="5.72944">
        <ele>815.46</ele>
        <time>2019-11-01T11:34:22Z</time>
      </trkpt>
      <trkpt lat="44.85169" lon="5.72941">
        <ele>815.91</ele>
        <time>2019-11-01T11:34:24Z</time>
      </trkpt>
      <trkpt lat="44.85171" lon="5.72939">
        <ele>816.4</ele>
        <time>2019-11-01T11:34:27Z</time>
      </trkpt>
      <trkpt lat="44.85172" lon="5.72937">
        <ele>816.91</ele>
        <time>2019-11-01T11:34:29Z</time>
      </trkpt>
      <trkpt lat="44.85174" lon="5.72935">
        <ele>817.38</ele>
        <time>2019-11-01T11:34:31Z</time>
      </trkpt>
      <trkpt lat="44.85175" lon="5.72932">
        <ele>817.65</ele>
        <time>2019-11-01T11:34:33Z</time>
      </trkpt>
      <trkpt lat="44.85176" lon="5.7293">
        <ele>817.88</ele>
        <time>2019-11-01T11:34:35Z</time>
      </trkpt>
      <trkpt lat="44.85178" lon="5.72928">
        <ele>818.17</ele>
        <time>2019-11-01T11:34:37Z</time>
      </trkpt>
      <trkpt lat="44.8518" lon="5.72926">
        <ele>818.38</ele>
        <time>2019-11-01T11:34:39Z</time>
      </trkpt>
      <trkpt lat="44.85182" lon="5.72925">
        <ele>818.6</ele>
        <time>2019-11-01T11:34:41Z</time>
      </trkpt>
      <trkpt lat="44.85187" lon="5.72922">
        <ele>819.28</ele>
        <time>2019-11-01T11:40:04Z</time>
      </trkpt>
      <trkpt lat="44.85188" lon="5.7292">
        <ele>819.2</ele>
        <time>2019-11-01T11:40:06Z</time>
      </trkpt>
      <trkpt lat="44.8519" lon="5.72918">
        <ele>819.1</ele>
        <time>2019-11-01T11:40:09Z</time>
      </trkpt>
      <trkpt lat="44.85193" lon="5.72915">
        <ele>819.29</ele>
        <time>2019-11-01T11:40:12Z</time>
      </trkpt>
      <trkpt lat="44.85196" lon="5.72912">
        <ele>819.53</ele>
        <time>2019-11-01T11:40:14Z</time>
      </trkpt>
      <trkpt lat="44.85198" lon="5.72909">
        <ele>819.47</ele>
        <time>2019-11-01T11:40:15Z</time>
      </trkpt>
      <trkpt lat="44.85199" lon="5.72907">
        <ele>819.32</ele>
        <time>2019-11-01T11:40:16Z</time>
      </trkpt>
      <trkpt lat="44.85201" lon="5.72904">
        <ele>819.06</ele>
        <time>2019-11-01T11:40:17Z</time>
      </trkpt>
      <trkpt lat="44.85202" lon="5.72901">
        <ele>819.05</ele>
        <time>2019-11-01T11:40:18Z</time>
      </trkpt>
      <trkpt lat="44.85204" lon="5.72898">
        <ele>818.77</ele>
        <time>2019-11-01T11:40:19Z</time>
      </trkpt>
      <trkpt lat="44.85206" lon="5.72894">
        <ele>818.62</ele>
        <time>2019-11-01T11:40:20Z</time>
      </trkpt>
      <trkpt lat="44.85208" lon="5.7289">
        <ele>818.43</ele>
        <time>2019-11-01T11:40:21Z</time>
      </trkpt>
      <trkpt lat="44.8521" lon="5.72885">
        <ele>817.88</ele>
        <time>2019-11-01T11:40:22Z</time>
      </trkpt>
      <trkpt lat="44.85212" lon="5.7288">
        <ele>817.72</ele>
        <time>2019-11-01T11:40:23Z</time>
      </trkpt>
      <trkpt lat="44.85215" lon="5.72873">
        <ele>817.39</ele>
        <time>2019-11-01T11:40:24Z</time>
      </trkpt>
      <trkpt lat="44.8522" lon="5.72866">
        <ele>817.01</ele>
        <time>2019-11-01T11:40:25Z</time>
      </trkpt>
      <trkpt lat="44.85224" lon="5.72858">
        <ele>816.55</ele>
        <time>2019-11-01T11:40:26Z</time>
      </trkpt>
      <trkpt lat="44.8523" lon="5.72849">
        <ele>816.41</ele>
        <time>2019-11-01T11:40:27Z</time>
      </trkpt>
      <trkpt lat="44.85234" lon="5.7284">
        <ele>815.74</ele>
        <time>2019-11-01T11:40:28Z</time>
      </trkpt>
      <trkpt lat="44.85239" lon="5.72831">
        <ele>814.35</ele>
        <time>2019-11-01T11:40:29Z</time>
      </trkpt>
      <trkpt lat="44.85244" lon="5.72824">
        <ele>813.3</ele>
        <time>2019-11-01T11:40:30Z</time>
      </trkpt>
      <trkpt lat="44.8525" lon="5.72816">
        <ele>812.42</ele>
        <time>2019-11-01T11:40:31Z</time>
      </trkpt>
      <trkpt lat="44.85256" lon="5.72808">
        <ele>811.18</ele>
        <time>2019-11-01T11:40:32Z</time>
      </trkpt>
      <trkpt lat="44.85263" lon="5.72799">
        <ele>810.18</ele>
        <time>2019-11-01T11:40:33Z</time>
      </trkpt>
      <trkpt lat="44.85269" lon="5.72792">
        <ele>809.04</ele>
        <time>2019-11-01T11:40:34Z</time>
      </trkpt>
      <trkpt lat="44.85273" lon="5.72787">
        <ele>807.86</ele>
        <time>2019-11-01T11:40:35Z</time>
      </trkpt>
      <trkpt lat="44.85278" lon="5.7278">
        <ele>806.59</ele>
        <time>2019-11-01T11:40:36Z</time>
      </trkpt>
      <trkpt lat="44.85282" lon="5.72772">
        <ele>805.51</ele>
        <time>2019-11-01T11:40:37Z</time>
      </trkpt>
      <trkpt lat="44.85286" lon="5.72764">
        <ele>804.77</ele>
        <time>2019-11-01T11:40:38Z</time>
      </trkpt>
      <trkpt lat="44.8529" lon="5.72755">
        <ele>804.12</ele>
        <time>2019-11-01T11:40:39Z</time>
      </trkpt>
      <trkpt lat="44.85295" lon="5.72746">
        <ele>803.51</ele>
        <time>2019-11-01T11:40:40Z</time>
      </trkpt>
      <trkpt lat="44.85301" lon="5.72738">
        <ele>802.84</ele>
        <time>2019-11-01T11:40:41Z</time>
      </trkpt>
      <trkpt lat="44.85308" lon="5.7273">
        <ele>801.8</ele>
        <time>2019-11-01T11:40:42Z</time>
      </trkpt>
      <trkpt lat="44.85315" lon="5.72723">
        <ele>800.71</ele>
        <time>2019-11-01T11:40:43Z</time>
      </trkpt>
      <trkpt lat="44.85322" lon="5.72715">
        <ele>799.69</ele>
        <time>2019-11-01T11:40:44Z</time>
      </trkpt>
      <trkpt lat="44.85327" lon="5.72707">
        <ele>798.47</ele>
        <time>2019-11-01T11:40:45Z</time>
      </trkpt>
      <trkpt lat="44.85333" lon="5.72698">
        <ele>797.06</ele>
        <time>2019-11-01T11:40:46Z</time>
      </trkpt>
      <trkpt lat="44.85337" lon="5.7269">
        <ele>796.07</ele>
        <time>2019-11-01T11:40:47Z</time>
      </trkpt>
      <trkpt lat="44.85342" lon="5.72681">
        <ele>795.22</ele>
        <time>2019-11-01T11:40:48Z</time>
      </trkpt>
      <trkpt lat="44.85347" lon="5.72671">
        <ele>794.12</ele>
        <time>2019-11-01T11:40:49Z</time>
      </trkpt>
      <trkpt lat="44.85352" lon="5.72662">
        <ele>793.09</ele>
        <time>2019-11-01T11:40:50Z</time>
      </trkpt>
      <trkpt lat="44.85358" lon="5.72654">
        <ele>791.94</ele>
        <time>2019-11-01T11:40:51Z</time>
      </trkpt>
      <trkpt lat="44.85364" lon="5.72646">
        <ele>791.11</ele>
        <time>2019-11-01T11:40:52Z</time>
      </trkpt>
      <trkpt lat="44.8537" lon="5.7264">
        <ele>790.44</ele>
        <time>2019-11-01T11:40:53Z</time>
      </trkpt>
      <trkpt lat="44.85377" lon="5.72634">
        <ele>789.82</ele>
        <time>2019-11-01T11:40:54Z</time>
      </trkpt>
      <trkpt lat="44.85384" lon="5.72628">
        <ele>789.21</ele>
        <time>2019-11-01T11:40:55Z</time>
      </trkpt>
      <trkpt lat="44.8539" lon="5.72623">
        <ele>788.47</ele>
        <time>2019-11-01T11:40:56Z</time>
      </trkpt>
      <trkpt lat="44.85396" lon="5.72616">
        <ele>787.96</ele>
        <time>2019-11-01T11:40:57Z</time>
      </trkpt>
      <trkpt lat="44.85401" lon="5.7261">
        <ele>787.39</ele>
        <time>2019-11-01T11:40:58Z</time>
      </trkpt>
      <trkpt lat="44.85405" lon="5.72604">
        <ele>787.08</ele>
        <time>2019-11-01T11:40:59Z</time>
      </trkpt>
      <trkpt lat="44.85409" lon="5.72597">
        <ele>787.13</ele>
        <time>2019-11-01T11:41:00Z</time>
      </trkpt>
      <trkpt lat="44.85412" lon="5.72592">
        <ele>786.93</ele>
        <time>2019-11-01T11:41:01Z</time>
      </trkpt>
      <trkpt lat="44.85415" lon="5.72586">
        <ele>786.8</ele>
        <time>2019-11-01T11:41:02Z</time>
      </trkpt>
      <trkpt lat="44.85418" lon="5.72581">
        <ele>786.63</ele>
        <time>2019-11-01T11:41:03Z</time>
      </trkpt>
      <trkpt lat="44.85419" lon="5.72576">
        <ele>786.22</ele>
        <time>2019-11-01T11:41:04Z</time>
      </trkpt>
      <trkpt lat="44.85421" lon="5.72571">
        <ele>785.75</ele>
        <time>2019-11-01T11:41:05Z</time>
      </trkpt>
      <trkpt lat="44.85423" lon="5.72566">
        <ele>785.12</ele>
        <time>2019-11-01T11:41:06Z</time>
      </trkpt>
      <trkpt lat="44.85424" lon="5.72563">
        <ele>784.3</ele>
        <time>2019-11-01T11:41:07Z</time>
      </trkpt>
      <trkpt lat="44.85425" lon="5.72561">
        <ele>783.56</ele>
        <time>2019-11-01T11:41:08Z</time>
      </trkpt>
      <trkpt lat="44.85427" lon="5.72558">
        <ele>782.92</ele>
        <time>2019-11-01T11:41:09Z</time>
      </trkpt>
      <trkpt lat="44.85428" lon="5.72555">
        <ele>782.24</ele>
        <time>2019-11-01T11:41:10Z</time>
      </trkpt>
      <trkpt lat="44.85429" lon="5.72552">
        <ele>781.62</ele>
        <time>2019-11-01T11:41:11Z</time>
      </trkpt>
      <trkpt lat="44.85431" lon="5.72548">
        <ele>781.01</ele>
        <time>2019-11-01T11:41:12Z</time>
      </trkpt>
      <trkpt lat="44.85434" lon="5.72544">
        <ele>780.62</ele>
        <time>2019-11-01T11:41:13Z</time>
      </trkpt>
      <trkpt lat="44.85437" lon="5.7254">
        <ele>780.15</ele>
        <time>2019-11-01T11:41:14Z</time>
      </trkpt>
      <trkpt lat="44.85439" lon="5.72535">
        <ele>779.59</ele>
        <time>2019-11-01T11:41:15Z</time>
      </trkpt>
      <trkpt lat="44.85443" lon="5.72532">
        <ele>779</ele>
        <time>2019-11-01T11:41:16Z</time>
      </trkpt>
      <trkpt lat="44.85446" lon="5.72527">
        <ele>778.19</ele>
        <time>2019-11-01T11:41:17Z</time>
      </trkpt>
      <trkpt lat="44.85448" lon="5.72523">
        <ele>777.39</ele>
        <time>2019-11-01T11:41:18Z</time>
      </trkpt>
      <trkpt lat="44.85451" lon="5.72519">
        <ele>776.66</ele>
        <time>2019-11-01T11:41:19Z</time>
      </trkpt>
      <trkpt lat="44.85455" lon="5.72515">
        <ele>776.3</ele>
        <time>2019-11-01T11:41:20Z</time>
      </trkpt>
      <trkpt lat="44.8546" lon="5.72511">
        <ele>775.92</ele>
        <time>2019-11-01T11:41:21Z</time>
      </trkpt>
      <trkpt lat="44.85466" lon="5.72508">
        <ele>775.52</ele>
        <time>2019-11-01T11:41:22Z</time>
      </trkpt>
      <trkpt lat="44.85472" lon="5.72504">
        <ele>775.05</ele>
        <time>2019-11-01T11:41:23Z</time>
      </trkpt>
      <trkpt lat="44.85478" lon="5.725">
        <ele>774.49</ele>
        <time>2019-11-01T11:41:24Z</time>
      </trkpt>
      <trkpt lat="44.85485" lon="5.72495">
        <ele>774.04</ele>
        <time>2019-11-01T11:41:25Z</time>
      </trkpt>
      <trkpt lat="44.85494" lon="5.7249">
        <ele>773.56</ele>
        <time>2019-11-01T11:41:26Z</time>
      </trkpt>
      <trkpt lat="44.85502" lon="5.72485">
        <ele>773.48</ele>
        <time>2019-11-01T11:41:27Z</time>
      </trkpt>
      <trkpt lat="44.85509" lon="5.7248">
        <ele>773.25</ele>
        <time>2019-11-01T11:41:28Z</time>
      </trkpt>
      <trkpt lat="44.85515" lon="5.72477">
        <ele>772.83</ele>
        <time>2019-11-01T11:41:29Z</time>
      </trkpt>
      <trkpt lat="44.85522" lon="5.72473">
        <ele>772.21</ele>
        <time>2019-11-01T11:41:30Z</time>
      </trkpt>
      <trkpt lat="44.85529" lon="5.72469">
        <ele>771.47</ele>
        <time>2019-11-01T11:41:31Z</time>
      </trkpt>
      <trkpt lat="44.85537" lon="5.72463">
        <ele>770.96</ele>
        <time>2019-11-01T11:41:32Z</time>
      </trkpt>
      <trkpt lat="44.85544" lon="5.72457">
        <ele>770.32</ele>
        <time>2019-11-01T11:41:33Z</time>
      </trkpt>
      <trkpt lat="44.85551" lon="5.7245">
        <ele>770.06</ele>
        <time>2019-11-01T11:41:34Z</time>
      </trkpt>
      <trkpt lat="44.85556" lon="5.72443">
        <ele>769.98</ele>
        <time>2019-11-01T11:41:35Z</time>
      </trkpt>
      <trkpt lat="44.8556" lon="5.72435">
        <ele>769.68</ele>
        <time>2019-11-01T11:41:36Z</time>
      </trkpt>
      <trkpt lat="44.85565" lon="5.72428">
        <ele>769.59</ele>
        <time>2019-11-01T11:41:37Z</time>
      </trkpt>
      <trkpt lat="44.85571" lon="5.72424">
        <ele>769.35</ele>
        <time>2019-11-01T11:41:38Z</time>
      </trkpt>
      <trkpt lat="44.85577" lon="5.72422">
        <ele>769.35</ele>
        <time>2019-11-01T11:41:39Z</time>
      </trkpt>
      <trkpt lat="44.85583" lon="5.72421">
        <ele>769.14</ele>
        <time>2019-11-01T11:41:40Z</time>
      </trkpt>
      <trkpt lat="44.8559" lon="5.72421">
        <ele>768.87</ele>
        <time>2019-11-01T11:41:41Z</time>
      </trkpt>
      <trkpt lat="44.85597" lon="5.7242">
        <ele>768.57</ele>
        <time>2019-11-01T11:41:42Z</time>
      </trkpt>
      <trkpt lat="44.85605" lon="5.72418">
        <ele>768.42</ele>
        <time>2019-11-01T11:41:43Z</time>
      </trkpt>
      <trkpt lat="44.85612" lon="5.72416">
        <ele>768.37</ele>
        <time>2019-11-01T11:41:44Z</time>
      </trkpt>
      <trkpt lat="44.85618" lon="5.72413">
        <ele>768.57</ele>
        <time>2019-11-01T11:41:45Z</time>
      </trkpt>
      <trkpt lat="44.85622" lon="5.7241">
        <ele>769.04</ele>
        <time>2019-11-01T11:41:46Z</time>
      </trkpt>
      <trkpt lat="44.85626" lon="5.72408">
        <ele>769.68</ele>
        <time>2019-11-01T11:41:47Z</time>
      </trkpt>
      <trkpt lat="44.85629" lon="5.72405">
        <ele>770.15</ele>
        <time>2019-11-01T11:41:48Z</time>
      </trkpt>
      <trkpt lat="44.85631" lon="5.72403">
        <ele>770.43</ele>
        <time>2019-11-01T11:41:49Z</time>
      </trkpt>
      <trkpt lat="44.85633" lon="5.724">
        <ele>770.72</ele>
        <time>2019-11-01T11:41:50Z</time>
      </trkpt>
      <trkpt lat="44.85635" lon="5.72398">
        <ele>771.09</ele>
        <time>2019-11-01T11:41:52Z</time>
      </trkpt>
      <trkpt lat="44.85638" lon="5.72395">
        <ele>771.28</ele>
        <time>2019-11-01T11:41:54Z</time>
      </trkpt>
      <trkpt lat="44.8564" lon="5.72395">
        <ele>771.61</ele>
        <time>2019-11-01T11:41:55Z</time>
      </trkpt>
      <trkpt lat="44.85643" lon="5.72395">
        <ele>772.2</ele>
        <time>2019-11-01T11:41:57Z</time>
      </trkpt>
      <trkpt lat="44.85644" lon="5.72395">
        <ele>772.3</ele>
        <time>2019-11-01T11:41:58Z</time>
      </trkpt>
      <trkpt lat="44.85647" lon="5.72396">
        <ele>772.48</ele>
        <time>2019-11-01T11:41:59Z</time>
      </trkpt>
      <trkpt lat="44.85652" lon="5.72395">
        <ele>772.74</ele>
        <time>2019-11-01T11:42:00Z</time>
      </trkpt>
      <trkpt lat="44.85656" lon="5.72395">
        <ele>772.75</ele>
        <time>2019-11-01T11:42:01Z</time>
      </trkpt>
      <trkpt lat="44.85663" lon="5.72395">
        <ele>772.82</ele>
        <time>2019-11-01T11:42:02Z</time>
      </trkpt>
      <trkpt lat="44.85669" lon="5.72394">
        <ele>772.63</ele>
        <time>2019-11-01T11:42:03Z</time>
      </trkpt>
      <trkpt lat="44.85675" lon="5.72393">
        <ele>772.5</ele>
        <time>2019-11-01T11:42:04Z</time>
      </trkpt>
      <trkpt lat="44.85681" lon="5.72391">
        <ele>772.19</ele>
        <time>2019-11-01T11:42:05Z</time>
      </trkpt>
      <trkpt lat="44.85687" lon="5.72389">
        <ele>772.02</ele>
        <time>2019-11-01T11:42:06Z</time>
      </trkpt>
      <trkpt lat="44.85694" lon="5.72387">
        <ele>771.55</ele>
        <time>2019-11-01T11:42:07Z</time>
      </trkpt>
      <trkpt lat="44.857" lon="5.72385">
        <ele>771.13</ele>
        <time>2019-11-01T11:42:08Z</time>
      </trkpt>
      <trkpt lat="44.85706" lon="5.72382">
        <ele>770.79</ele>
        <time>2019-11-01T11:42:09Z</time>
      </trkpt>
      <trkpt lat="44.85711" lon="5.72378">
        <ele>770.62</ele>
        <time>2019-11-01T11:42:10Z</time>
      </trkpt>
      <trkpt lat="44.85716" lon="5.72375">
        <ele>770.57</ele>
        <time>2019-11-01T11:42:11Z</time>
      </trkpt>
      <trkpt lat="44.85718" lon="5.72372">
        <ele>770.84</ele>
        <time>2019-11-01T11:42:12Z</time>
      </trkpt>
      <trkpt lat="44.8572" lon="5.72369">
        <ele>771.05</ele>
        <time>2019-11-01T11:42:13Z</time>
      </trkpt>
      <trkpt lat="44.85723" lon="5.72367">
        <ele>771.12</ele>
        <time>2019-11-01T11:42:14Z</time>
      </trkpt>
      <trkpt lat="44.85725" lon="5.72365">
        <ele>771.35</ele>
        <time>2019-11-01T11:42:15Z</time>
      </trkpt>
      <trkpt lat="44.85727" lon="5.72363">
        <ele>771.63</ele>
        <time>2019-11-01T11:42:16Z</time>
      </trkpt>
      <trkpt lat="44.85729" lon="5.72361">
        <ele>772.06</ele>
        <time>2019-11-01T11:42:17Z</time>
      </trkpt>
      <trkpt lat="44.85732" lon="5.7236">
        <ele>772.26</ele>
        <time>2019-11-01T11:42:18Z</time>
      </trkpt>
      <trkpt lat="44.85735" lon="5.72358">
        <ele>772.6</ele>
        <time>2019-11-01T11:42:19Z</time>
      </trkpt>
      <trkpt lat="44.85736" lon="5.72357">
        <ele>773.13</ele>
        <time>2019-11-01T11:42:20Z</time>
      </trkpt>
      <trkpt lat="44.85739" lon="5.72355">
        <ele>773.35</ele>
        <time>2019-11-01T11:42:21Z</time>
      </trkpt>
      <trkpt lat="44.85741" lon="5.72353">
        <ele>773.77</ele>
        <time>2019-11-01T11:42:22Z</time>
      </trkpt>
      <trkpt lat="44.85742" lon="5.72351">
        <ele>773.9</ele>
        <time>2019-11-01T11:42:23Z</time>
      </trkpt>
      <trkpt lat="44.85744" lon="5.72346">
        <ele>774.11</ele>
        <time>2019-11-01T11:42:25Z</time>
      </trkpt>
      <trkpt lat="44.85745" lon="5.72344">
        <ele>774.35</ele>
        <time>2019-11-01T11:42:26Z</time>
      </trkpt>
      <trkpt lat="44.85747" lon="5.72342">
        <ele>774.56</ele>
        <time>2019-11-01T11:42:27Z</time>
      </trkpt>
      <trkpt lat="44.85748" lon="5.7234">
        <ele>774.83</ele>
        <time>2019-11-01T11:42:28Z</time>
      </trkpt>
      <trkpt lat="44.8575" lon="5.72339">
        <ele>775.05</ele>
        <time>2019-11-01T11:42:29Z</time>
      </trkpt>
      <trkpt lat="44.85752" lon="5.72337">
        <ele>775.33</ele>
        <time>2019-11-01T11:42:30Z</time>
      </trkpt>
      <trkpt lat="44.85753" lon="5.72336">
        <ele>775.83</ele>
        <time>2019-11-01T11:42:31Z</time>
      </trkpt>
      <trkpt lat="44.85755" lon="5.72335">
        <ele>776.26</ele>
        <time>2019-11-01T11:42:32Z</time>
      </trkpt>
      <trkpt lat="44.85757" lon="5.72334">
        <ele>776.53</ele>
        <time>2019-11-01T11:42:33Z</time>
      </trkpt>
      <trkpt lat="44.8576" lon="5.72334">
        <ele>776.96</ele>
        <time>2019-11-01T11:42:34Z</time>
      </trkpt>
      <trkpt lat="44.85763" lon="5.72333">
        <ele>777.58</ele>
        <time>2019-11-01T11:42:35Z</time>
      </trkpt>
      <trkpt lat="44.85766" lon="5.72333">
        <ele>777.98</ele>
        <time>2019-11-01T11:42:36Z</time>
      </trkpt>
      <trkpt lat="44.85768" lon="5.72332">
        <ele>778.31</ele>
        <time>2019-11-01T11:42:37Z</time>
      </trkpt>
      <trkpt lat="44.85771" lon="5.7233">
        <ele>778.55</ele>
        <time>2019-11-01T11:42:38Z</time>
      </trkpt>
      <trkpt lat="44.85774" lon="5.72328">
        <ele>778.76</ele>
        <time>2019-11-01T11:42:39Z</time>
      </trkpt>
      <trkpt lat="44.85777" lon="5.72326">
        <ele>778.82</ele>
        <time>2019-11-01T11:42:40Z</time>
      </trkpt>
      <trkpt lat="44.8578" lon="5.72323">
        <ele>778.98</ele>
        <time>2019-11-01T11:42:41Z</time>
      </trkpt>
      <trkpt lat="44.85784" lon="5.72321">
        <ele>779.17</ele>
        <time>2019-11-01T11:42:42Z</time>
      </trkpt>
      <trkpt lat="44.85787" lon="5.72318">
        <ele>779.22</ele>
        <time>2019-11-01T11:42:43Z</time>
      </trkpt>
      <trkpt lat="44.8579" lon="5.72316">
        <ele>779.24</ele>
        <time>2019-11-01T11:42:44Z</time>
      </trkpt>
      <trkpt lat="44.85792" lon="5.72313">
        <ele>779.18</ele>
        <time>2019-11-01T11:42:45Z</time>
      </trkpt>
      <trkpt lat="44.85794" lon="5.7231">
        <ele>779.16</ele>
        <time>2019-11-01T11:42:46Z</time>
      </trkpt>
      <trkpt lat="44.85795" lon="5.72307">
        <ele>779.43</ele>
        <time>2019-11-01T11:42:47Z</time>
      </trkpt>
      <trkpt lat="44.85797" lon="5.72305">
        <ele>779.86</ele>
        <time>2019-11-01T11:42:48Z</time>
      </trkpt>
      <trkpt lat="44.85799" lon="5.72303">
        <ele>780.55</ele>
        <time>2019-11-01T11:42:49Z</time>
      </trkpt>
      <trkpt lat="44.85801" lon="5.72302">
        <ele>780.83</ele>
        <time>2019-11-01T11:42:50Z</time>
      </trkpt>
      <trkpt lat="44.85803" lon="5.723">
        <ele>781.05</ele>
        <time>2019-11-01T11:42:51Z</time>
      </trkpt>
      <trkpt lat="44.85804" lon="5.72298">
        <ele>781.4</ele>
        <time>2019-11-01T11:42:52Z</time>
      </trkpt>
      <trkpt lat="44.85807" lon="5.72296">
        <ele>782.34</ele>
        <time>2019-11-01T11:42:54Z</time>
      </trkpt>
      <trkpt lat="44.85809" lon="5.72295">
        <ele>782.91</ele>
        <time>2019-11-01T11:42:55Z</time>
      </trkpt>
      <trkpt lat="44.85811" lon="5.72294">
        <ele>783.5</ele>
        <time>2019-11-01T11:42:56Z</time>
      </trkpt>
      <trkpt lat="44.85814" lon="5.72293">
        <ele>784.3</ele>
        <time>2019-11-01T11:42:57Z</time>
      </trkpt>
      <trkpt lat="44.85817" lon="5.72291">
        <ele>785.44</ele>
        <time>2019-11-01T11:42:59Z</time>
      </trkpt>
      <trkpt lat="44.85819" lon="5.72289">
        <ele>785.73</ele>
        <time>2019-11-01T11:43:00Z</time>
      </trkpt>
      <trkpt lat="44.85821" lon="5.72288">
        <ele>786.16</ele>
        <time>2019-11-01T11:43:01Z</time>
      </trkpt>
      <trkpt lat="44.85823" lon="5.72286">
        <ele>786.82</ele>
        <time>2019-11-01T11:43:03Z</time>
      </trkpt>
      <trkpt lat="44.85826" lon="5.72283">
        <ele>787.74</ele>
        <time>2019-11-01T11:43:05Z</time>
      </trkpt>
      <trkpt lat="44.85828" lon="5.72282">
        <ele>788.1</ele>
        <time>2019-11-01T11:43:06Z</time>
      </trkpt>
      <trkpt lat="44.8583" lon="5.72281">
        <ele>788.27</ele>
        <time>2019-11-01T11:43:07Z</time>
      </trkpt>
      <trkpt lat="44.85833" lon="5.7228">
        <ele>788.8</ele>
        <time>2019-11-01T11:43:09Z</time>
      </trkpt>
      <trkpt lat="44.85835" lon="5.72278">
        <ele>789.65</ele>
        <time>2019-11-01T11:43:11Z</time>
      </trkpt>
      <trkpt lat="44.85837" lon="5.72276">
        <ele>790.07</ele>
        <time>2019-11-01T11:43:12Z</time>
      </trkpt>
      <trkpt lat="44.85839" lon="5.72275">
        <ele>790.34</ele>
        <time>2019-11-01T11:43:13Z</time>
      </trkpt>
      <trkpt lat="44.85841" lon="5.72274">
        <ele>790.55</ele>
        <time>2019-11-01T11:43:14Z</time>
      </trkpt>
      <trkpt lat="44.85842" lon="5.72272">
        <ele>790.9</ele>
        <time>2019-11-01T11:43:15Z</time>
      </trkpt>
      <trkpt lat="44.85844" lon="5.72271">
        <ele>791.28</ele>
        <time>2019-11-01T11:43:16Z</time>
      </trkpt>
      <trkpt lat="44.85846" lon="5.7227">
        <ele>791.54</ele>
        <time>2019-11-01T11:43:17Z</time>
      </trkpt>
      <trkpt lat="44.85848" lon="5.72267">
        <ele>791.62</ele>
        <time>2019-11-01T11:43:18Z</time>
      </trkpt>
      <trkpt lat="44.85849" lon="5.72265">
        <ele>791.71</ele>
        <time>2019-11-01T11:43:19Z</time>
      </trkpt>
      <trkpt lat="44.8585" lon="5.72263">
        <ele>791.74</ele>
        <time>2019-11-01T11:43:20Z</time>
      </trkpt>
      <trkpt lat="44.85852" lon="5.72258">
        <ele>791.75</ele>
        <time>2019-11-01T11:43:22Z</time>
      </trkpt>
      <trkpt lat="44.85854" lon="5.72257">
        <ele>791.89</ele>
        <time>2019-11-01T11:43:23Z</time>
      </trkpt>
      <trkpt lat="44.85855" lon="5.72254">
        <ele>791.93</ele>
        <time>2019-11-01T11:43:24Z</time>
      </trkpt>
      <trkpt lat="44.85857" lon="5.72253">
        <ele>792.22</ele>
        <time>2019-11-01T11:43:25Z</time>
      </trkpt>
      <trkpt lat="44.85858" lon="5.7225">
        <ele>792.38</ele>
        <time>2019-11-01T11:43:26Z</time>
      </trkpt>
      <trkpt lat="44.85859" lon="5.72248">
        <ele>792.64</ele>
        <time>2019-11-01T11:43:27Z</time>
      </trkpt>
      <trkpt lat="44.8586" lon="5.72246">
        <ele>792.86</ele>
        <time>2019-11-01T11:43:28Z</time>
      </trkpt>
      <trkpt lat="44.85862" lon="5.72245">
        <ele>793.06</ele>
        <time>2019-11-01T11:43:29Z</time>
      </trkpt>
      <trkpt lat="44.85865" lon="5.72241">
        <ele>793.72</ele>
        <time>2019-11-01T11:43:31Z</time>
      </trkpt>
      <trkpt lat="44.85867" lon="5.7224">
        <ele>794.37</ele>
        <time>2019-11-01T11:43:32Z</time>
      </trkpt>
      <trkpt lat="44.85869" lon="5.72239">
        <ele>795.05</ele>
        <time>2019-11-01T11:43:33Z</time>
      </trkpt>
      <trkpt lat="44.85871" lon="5.72236">
        <ele>796.49</ele>
        <time>2019-11-01T11:43:35Z</time>
      </trkpt>
      <trkpt lat="44.85872" lon="5.72234">
        <ele>796.81</ele>
        <time>2019-11-01T11:43:36Z</time>
      </trkpt>
      <trkpt lat="44.85874" lon="5.72232">
        <ele>797.19</ele>
        <time>2019-11-01T11:43:37Z</time>
      </trkpt>
      <trkpt lat="44.85876" lon="5.72228">
        <ele>798.05</ele>
        <time>2019-11-01T11:43:39Z</time>
      </trkpt>
      <trkpt lat="44.85877" lon="5.72224">
        <ele>798.59</ele>
        <time>2019-11-01T11:43:41Z</time>
      </trkpt>
      <trkpt lat="44.85878" lon="5.72222">
        <ele>798.98</ele>
        <time>2019-11-01T11:43:42Z</time>
      </trkpt>
      <trkpt lat="44.8588" lon="5.7222">
        <ele>799.31</ele>
        <time>2019-11-01T11:43:43Z</time>
      </trkpt>
      <trkpt lat="44.85883" lon="5.72216">
        <ele>800.03</ele>
        <time>2019-11-01T11:43:45Z</time>
      </trkpt>
      <trkpt lat="44.85886" lon="5.72212">
        <ele>800.87</ele>
        <time>2019-11-01T11:43:47Z</time>
      </trkpt>
      <trkpt lat="44.85887" lon="5.72209">
        <ele>801</ele>
        <time>2019-11-01T11:43:48Z</time>
      </trkpt>
      <trkpt lat="44.85888" lon="5.72205">
        <ele>800.96</ele>
        <time>2019-11-01T11:43:49Z</time>
      </trkpt>
      <trkpt lat="44.8589" lon="5.72203">
        <ele>801.23</ele>
        <time>2019-11-01T11:43:50Z</time>
      </trkpt>
      <trkpt lat="44.85892" lon="5.72201">
        <ele>801.38</ele>
        <time>2019-11-01T11:43:51Z</time>
      </trkpt>
      <trkpt lat="44.85893" lon="5.72198">
        <ele>801.43</ele>
        <time>2019-11-01T11:43:52Z</time>
      </trkpt>
      <trkpt lat="44.85894" lon="5.72196">
        <ele>801.37</ele>
        <time>2019-11-01T11:43:53Z</time>
      </trkpt>
      <trkpt lat="44.85896" lon="5.72194">
        <ele>801.29</ele>
        <time>2019-11-01T11:43:54Z</time>
      </trkpt>
      <trkpt lat="44.85897" lon="5.72191">
        <ele>801.4</ele>
        <time>2019-11-01T11:43:55Z</time>
      </trkpt>
      <trkpt lat="44.85898" lon="5.72188">
        <ele>801.36</ele>
        <time>2019-11-01T11:43:56Z</time>
      </trkpt>
      <trkpt lat="44.859" lon="5.72185">
        <ele>801.21</ele>
        <time>2019-11-01T11:43:57Z</time>
      </trkpt>
      <trkpt lat="44.85901" lon="5.72181">
        <ele>800.89</ele>
        <time>2019-11-01T11:43:58Z</time>
      </trkpt>
      <trkpt lat="44.85902" lon="5.72178">
        <ele>800.51</ele>
        <time>2019-11-01T11:43:59Z</time>
      </trkpt>
      <trkpt lat="44.85904" lon="5.72174">
        <ele>800.05</ele>
        <time>2019-11-01T11:44:00Z</time>
      </trkpt>
      <trkpt lat="44.85906" lon="5.7217">
        <ele>799.42</ele>
        <time>2019-11-01T11:44:01Z</time>
      </trkpt>
      <trkpt lat="44.85907" lon="5.72167">
        <ele>798.88</ele>
        <time>2019-11-01T11:44:02Z</time>
      </trkpt>
      <trkpt lat="44.85909" lon="5.72163">
        <ele>797.81</ele>
        <time>2019-11-01T11:44:03Z</time>
      </trkpt>
      <trkpt lat="44.8591" lon="5.72159">
        <ele>797</ele>
        <time>2019-11-01T11:44:04Z</time>
      </trkpt>
      <trkpt lat="44.85911" lon="5.72155">
        <ele>796.33</ele>
        <time>2019-11-01T11:44:05Z</time>
      </trkpt>
      <trkpt lat="44.85913" lon="5.72153">
        <ele>796.13</ele>
        <time>2019-11-01T11:44:06Z</time>
      </trkpt>
      <trkpt lat="44.85914" lon="5.72151">
        <ele>795.93</ele>
        <time>2019-11-01T11:44:07Z</time>
      </trkpt>
      <trkpt lat="44.85916" lon="5.72148">
        <ele>795.03</ele>
        <time>2019-11-01T11:44:08Z</time>
      </trkpt>
      <trkpt lat="44.85918" lon="5.72145">
        <ele>794.2</ele>
        <time>2019-11-01T11:44:09Z</time>
      </trkpt>
      <trkpt lat="44.85919" lon="5.72142">
        <ele>793.68</ele>
        <time>2019-11-01T11:44:10Z</time>
      </trkpt>
      <trkpt lat="44.85921" lon="5.72139">
        <ele>792.27</ele>
        <time>2019-11-01T11:44:12Z</time>
      </trkpt>
      <trkpt lat="44.85922" lon="5.72136">
        <ele>791.56</ele>
        <time>2019-11-01T11:44:13Z</time>
      </trkpt>
      <trkpt lat="44.85924" lon="5.72132">
        <ele>790.99</ele>
        <time>2019-11-01T11:44:14Z</time>
      </trkpt>
      <trkpt lat="44.85927" lon="5.72128">
        <ele>790.12</ele>
        <time>2019-11-01T11:44:15Z</time>
      </trkpt>
      <trkpt lat="44.8593" lon="5.72122">
        <ele>788.95</ele>
        <time>2019-11-01T11:44:16Z</time>
      </trkpt>
      <trkpt lat="44.85933" lon="5.72117">
        <ele>787.55</ele>
        <time>2019-11-01T11:44:17Z</time>
      </trkpt>
      <trkpt lat="44.85936" lon="5.72113">
        <ele>786.08</ele>
        <time>2019-11-01T11:44:18Z</time>
      </trkpt>
      <trkpt lat="44.85938" lon="5.72108">
        <ele>784.45</ele>
        <time>2019-11-01T11:44:19Z</time>
      </trkpt>
      <trkpt lat="44.85941" lon="5.72104">
        <ele>783.19</ele>
        <time>2019-11-01T11:44:20Z</time>
      </trkpt>
      <trkpt lat="44.85944" lon="5.72099">
        <ele>782.32</ele>
        <time>2019-11-01T11:44:21Z</time>
      </trkpt>
      <trkpt lat="44.85947" lon="5.72094">
        <ele>781.71</ele>
        <time>2019-11-01T11:44:22Z</time>
      </trkpt>
      <trkpt lat="44.85949" lon="5.7209">
        <ele>781.53</ele>
        <time>2019-11-01T11:44:23Z</time>
      </trkpt>
      <trkpt lat="44.85952" lon="5.72087">
        <ele>781.12</ele>
        <time>2019-11-01T11:44:24Z</time>
      </trkpt>
      <trkpt lat="44.85953" lon="5.72084">
        <ele>780.65</ele>
        <time>2019-11-01T11:44:25Z</time>
      </trkpt>
      <trkpt lat="44.85954" lon="5.72081">
        <ele>780.16</ele>
        <time>2019-11-01T11:44:26Z</time>
      </trkpt>
      <trkpt lat="44.85955" lon="5.72077">
        <ele>779.17</ele>
        <time>2019-11-01T11:44:27Z</time>
      </trkpt>
      <trkpt lat="44.85956" lon="5.72074">
        <ele>778.18</ele>
        <time>2019-11-01T11:44:28Z</time>
      </trkpt>
      <trkpt lat="44.85957" lon="5.7207">
        <ele>777.11</ele>
        <time>2019-11-01T11:44:29Z</time>
      </trkpt>
      <trkpt lat="44.85959" lon="5.72065">
        <ele>776.02</ele>
        <time>2019-11-01T11:44:30Z</time>
      </trkpt>
      <trkpt lat="44.85961" lon="5.7206">
        <ele>775.27</ele>
        <time>2019-11-01T11:44:31Z</time>
      </trkpt>
      <trkpt lat="44.85963" lon="5.72055">
        <ele>774.56</ele>
        <time>2019-11-01T11:44:32Z</time>
      </trkpt>
      <trkpt lat="44.85965" lon="5.7205">
        <ele>773.85</ele>
        <time>2019-11-01T11:44:33Z</time>
      </trkpt>
      <trkpt lat="44.85968" lon="5.72044">
        <ele>773.08</ele>
        <time>2019-11-01T11:44:34Z</time>
      </trkpt>
      <trkpt lat="44.8597" lon="5.72038">
        <ele>772.36</ele>
        <time>2019-11-01T11:44:35Z</time>
      </trkpt>
      <trkpt lat="44.85973" lon="5.72031">
        <ele>771.58</ele>
        <time>2019-11-01T11:44:36Z</time>
      </trkpt>
      <trkpt lat="44.85975" lon="5.72024">
        <ele>770.3</ele>
        <time>2019-11-01T11:44:37Z</time>
      </trkpt>
      <trkpt lat="44.85976" lon="5.72017">
        <ele>769.7</ele>
        <time>2019-11-01T11:44:38Z</time>
      </trkpt>
      <trkpt lat="44.85976" lon="5.7201">
        <ele>769.25</ele>
        <time>2019-11-01T11:44:39Z</time>
      </trkpt>
      <trkpt lat="44.85975" lon="5.72003">
        <ele>768.76</ele>
        <time>2019-11-01T11:44:40Z</time>
      </trkpt>
      <trkpt lat="44.85974" lon="5.71995">
        <ele>767.84</ele>
        <time>2019-11-01T11:44:41Z</time>
      </trkpt>
      <trkpt lat="44.85974" lon="5.71988">
        <ele>767.29</ele>
        <time>2019-11-01T11:44:42Z</time>
      </trkpt>
      <trkpt lat="44.85973" lon="5.71981">
        <ele>766.63</ele>
        <time>2019-11-01T11:44:43Z</time>
      </trkpt>
      <trkpt lat="44.85972" lon="5.71975">
        <ele>765.87</ele>
        <time>2019-11-01T11:44:44Z</time>
      </trkpt>
      <trkpt lat="44.85971" lon="5.71968">
        <ele>765.23</ele>
        <time>2019-11-01T11:44:45Z</time>
      </trkpt>
      <trkpt lat="44.85969" lon="5.7196">
        <ele>764.54</ele>
        <time>2019-11-01T11:44:46Z</time>
      </trkpt>
      <trkpt lat="44.85968" lon="5.71953">
        <ele>763.71</ele>
        <time>2019-11-01T11:44:47Z</time>
      </trkpt>
      <trkpt lat="44.85965" lon="5.71945">
        <ele>762.83</ele>
        <time>2019-11-01T11:44:48Z</time>
      </trkpt>
      <trkpt lat="44.85963" lon="5.71938">
        <ele>761.72</ele>
        <time>2019-11-01T11:44:49Z</time>
      </trkpt>
      <trkpt lat="44.85958" lon="5.71931">
        <ele>759.43</ele>
        <time>2019-11-01T11:44:50Z</time>
      </trkpt>
      <trkpt lat="44.85955" lon="5.71926">
        <ele>758.32</ele>
        <time>2019-11-01T11:44:51Z</time>
      </trkpt>
      <trkpt lat="44.85953" lon="5.71921">
        <ele>757.85</ele>
        <time>2019-11-01T11:44:52Z</time>
      </trkpt>
      <trkpt lat="44.85951" lon="5.71917">
        <ele>757.57</ele>
        <time>2019-11-01T11:44:53Z</time>
      </trkpt>
      <trkpt lat="44.85949" lon="5.71913">
        <ele>757.14</ele>
        <time>2019-11-01T11:44:54Z</time>
      </trkpt>
      <trkpt lat="44.85947" lon="5.71911">
        <ele>756.79</ele>
        <time>2019-11-01T11:44:55Z</time>
      </trkpt>
      <trkpt lat="44.85945" lon="5.71909">
        <ele>756.27</ele>
        <time>2019-11-01T11:44:56Z</time>
      </trkpt>
      <trkpt lat="44.85944" lon="5.71906">
        <ele>756.19</ele>
        <time>2019-11-01T11:44:57Z</time>
      </trkpt>
      <trkpt lat="44.85942" lon="5.71903">
        <ele>756.16</ele>
        <time>2019-11-01T11:44:58Z</time>
      </trkpt>
      <trkpt lat="44.85941" lon="5.71899">
        <ele>755.8</ele>
        <time>2019-11-01T11:44:59Z</time>
      </trkpt>
      <trkpt lat="44.8594" lon="5.71896">
        <ele>755.91</ele>
        <time>2019-11-01T11:45:00Z</time>
      </trkpt>
      <trkpt lat="44.85939" lon="5.71894">
        <ele>756.01</ele>
        <time>2019-11-01T11:45:01Z</time>
      </trkpt>
      <trkpt lat="44.85938" lon="5.7189">
        <ele>755.76</ele>
        <time>2019-11-01T11:45:02Z</time>
      </trkpt>
      <trkpt lat="44.85937" lon="5.71887">
        <ele>756.66</ele>
        <time>2019-11-01T11:45:03Z</time>
      </trkpt>
      <trkpt lat="44.85937" lon="5.71884">
        <ele>757.98</ele>
        <time>2019-11-01T11:45:04Z</time>
      </trkpt>
      <trkpt lat="44.85936" lon="5.71881">
        <ele>758.73</ele>
        <time>2019-11-01T11:45:05Z</time>
      </trkpt>
      <trkpt lat="44.85935" lon="5.71878">
        <ele>759.09</ele>
        <time>2019-11-01T11:45:06Z</time>
      </trkpt>
      <trkpt lat="44.85934" lon="5.71875">
        <ele>759.13</ele>
        <time>2019-11-01T11:45:07Z</time>
      </trkpt>
      <trkpt lat="44.85933" lon="5.71872">
        <ele>758.93</ele>
        <time>2019-11-01T11:45:08Z</time>
      </trkpt>
      <trkpt lat="44.85931" lon="5.71868">
        <ele>758.45</ele>
        <time>2019-11-01T11:45:09Z</time>
      </trkpt>
      <trkpt lat="44.85929" lon="5.71864">
        <ele>757.82</ele>
        <time>2019-11-01T11:45:10Z</time>
      </trkpt>
      <trkpt lat="44.85928" lon="5.71861">
        <ele>757.42</ele>
        <time>2019-11-01T11:45:11Z</time>
      </trkpt>
      <trkpt lat="44.85927" lon="5.71857">
        <ele>757.09</ele>
        <time>2019-11-01T11:45:12Z</time>
      </trkpt>
      <trkpt lat="44.85926" lon="5.71854">
        <ele>756.71</ele>
        <time>2019-11-01T11:45:13Z</time>
      </trkpt>
      <trkpt lat="44.85924" lon="5.7185">
        <ele>756.11</ele>
        <time>2019-11-01T11:45:14Z</time>
      </trkpt>
      <trkpt lat="44.85923" lon="5.71847">
        <ele>755.79</ele>
        <time>2019-11-01T11:45:15Z</time>
      </trkpt>
      <trkpt lat="44.85921" lon="5.71844">
        <ele>755.62</ele>
        <time>2019-11-01T11:45:16Z</time>
      </trkpt>
      <trkpt lat="44.8592" lon="5.71841">
        <ele>755.57</ele>
        <time>2019-11-01T11:45:17Z</time>
      </trkpt>
      <trkpt lat="44.85918" lon="5.71837">
        <ele>755.63</ele>
        <time>2019-11-01T11:45:18Z</time>
      </trkpt>
      <trkpt lat="44.85916" lon="5.71835">
        <ele>755.57</ele>
        <time>2019-11-01T11:45:19Z</time>
      </trkpt>
      <trkpt lat="44.85914" lon="5.71834">
        <ele>755.63</ele>
        <time>2019-11-01T11:45:20Z</time>
      </trkpt>
      <trkpt lat="44.85912" lon="5.71832">
        <ele>755.92</ele>
        <time>2019-11-01T11:45:21Z</time>
      </trkpt>
      <trkpt lat="44.85909" lon="5.7183">
        <ele>755.59</ele>
        <time>2019-11-01T11:45:22Z</time>
      </trkpt>
      <trkpt lat="44.85907" lon="5.71828">
        <ele>755.42</ele>
        <time>2019-11-01T11:45:23Z</time>
      </trkpt>
      <trkpt lat="44.85905" lon="5.71826">
        <ele>755.65</ele>
        <time>2019-11-01T11:45:24Z</time>
      </trkpt>
      <trkpt lat="44.85903" lon="5.71823">
        <ele>756.14</ele>
        <time>2019-11-01T11:45:25Z</time>
      </trkpt>
      <trkpt lat="44.859" lon="5.71821">
        <ele>756.5</ele>
        <time>2019-11-01T11:45:26Z</time>
      </trkpt>
      <trkpt lat="44.85898" lon="5.71817">
        <ele>756.67</ele>
        <time>2019-11-01T11:45:27Z</time>
      </trkpt>
      <trkpt lat="44.85896" lon="5.71814">
        <ele>756.87</ele>
        <time>2019-11-01T11:45:28Z</time>
      </trkpt>
      <trkpt lat="44.85894" lon="5.71812">
        <ele>757.13</ele>
        <time>2019-11-01T11:45:29Z</time>
      </trkpt>
      <trkpt lat="44.85892" lon="5.7181">
        <ele>757.35</ele>
        <time>2019-11-01T11:45:30Z</time>
      </trkpt>
      <trkpt lat="44.8589" lon="5.71807">
        <ele>757.56</ele>
        <time>2019-11-01T11:45:31Z</time>
      </trkpt>
      <trkpt lat="44.85888" lon="5.71806">
        <ele>757.83</ele>
        <time>2019-11-01T11:45:32Z</time>
      </trkpt>
      <trkpt lat="44.85886" lon="5.71804">
        <ele>757.98</ele>
        <time>2019-11-01T11:45:33Z</time>
      </trkpt>
      <trkpt lat="44.85884" lon="5.71803">
        <ele>758.03</ele>
        <time>2019-11-01T11:45:34Z</time>
      </trkpt>
      <trkpt lat="44.85881" lon="5.71801">
        <ele>758.11</ele>
        <time>2019-11-01T11:45:35Z</time>
      </trkpt>
      <trkpt lat="44.85878" lon="5.718">
        <ele>758.14</ele>
        <time>2019-11-01T11:45:36Z</time>
      </trkpt>
      <trkpt lat="44.85876" lon="5.71798">
        <ele>758.15</ele>
        <time>2019-11-01T11:45:37Z</time>
      </trkpt>
      <trkpt lat="44.85873" lon="5.71796">
        <ele>758.22</ele>
        <time>2019-11-01T11:45:38Z</time>
      </trkpt>
      <trkpt lat="44.85871" lon="5.71795">
        <ele>758.24</ele>
        <time>2019-11-01T11:45:39Z</time>
      </trkpt>
      <trkpt lat="44.85869" lon="5.71793">
        <ele>758.32</ele>
        <time>2019-11-01T11:45:40Z</time>
      </trkpt>
      <trkpt lat="44.85867" lon="5.71791">
        <ele>758.48</ele>
        <time>2019-11-01T11:45:41Z</time>
      </trkpt>
      <trkpt lat="44.85866" lon="5.71789">
        <ele>758.6</ele>
        <time>2019-11-01T11:45:42Z</time>
      </trkpt>
      <trkpt lat="44.85865" lon="5.71782">
        <ele>758.5</ele>
        <time>2019-11-01T11:45:44Z</time>
      </trkpt>
      <trkpt lat="44.85863" lon="5.7178">
        <ele>758.76</ele>
        <time>2019-11-01T11:45:46Z</time>
      </trkpt>
      <trkpt lat="44.85862" lon="5.71777">
        <ele>759.5</ele>
        <time>2019-11-01T11:45:50Z</time>
      </trkpt>
      <trkpt lat="44.85865" lon="5.71769">
        <ele>760.11</ele>
        <time>2019-11-01T11:45:57Z</time>
      </trkpt>
      <trkpt lat="44.85866" lon="5.71766">
        <ele>760.58</ele>
        <time>2019-11-01T11:45:59Z</time>
      </trkpt>
      <trkpt lat="44.85868" lon="5.71759">
        <ele>761.31</ele>
        <time>2019-11-01T11:46:05Z</time>
      </trkpt>
      <trkpt lat="44.85868" lon="5.71755">
        <ele>761.92</ele>
        <time>2019-11-01T11:46:07Z</time>
      </trkpt>
      <trkpt lat="44.85869" lon="5.71751">
        <ele>762.27</ele>
        <time>2019-11-01T11:46:09Z</time>
      </trkpt>
      <trkpt lat="44.85869" lon="5.71748">
        <ele>762.53</ele>
        <time>2019-11-01T11:46:10Z</time>
      </trkpt>
      <trkpt lat="44.85869" lon="5.71745">
        <ele>763.03</ele>
        <time>2019-11-01T11:46:12Z</time>
      </trkpt>
      <trkpt lat="44.85869" lon="5.71742">
        <ele>763.48</ele>
        <time>2019-11-01T11:46:14Z</time>
      </trkpt>
      <trkpt lat="44.85871" lon="5.7174">
        <ele>763.86</ele>
        <time>2019-11-01T11:46:16Z</time>
      </trkpt>
      <trkpt lat="44.85874" lon="5.71739">
        <ele>764.26</ele>
        <time>2019-11-01T11:46:18Z</time>
      </trkpt>
      <trkpt lat="44.8588" lon="5.71739">
        <ele>765.12</ele>
        <time>2019-11-01T11:46:24Z</time>
      </trkpt>
      <trkpt lat="44.85882" lon="5.71738">
        <ele>765.74</ele>
        <time>2019-11-01T11:46:26Z</time>
      </trkpt>
      <trkpt lat="44.85883" lon="5.71734">
        <ele>766.32</ele>
        <time>2019-11-01T11:46:28Z</time>
      </trkpt>
      <trkpt lat="44.85886" lon="5.71731">
        <ele>766.9</ele>
        <time>2019-11-01T11:46:30Z</time>
      </trkpt>
      <trkpt lat="44.85887" lon="5.71727">
        <ele>767.27</ele>
        <time>2019-11-01T11:46:32Z</time>
      </trkpt>
      <trkpt lat="44.85888" lon="5.71724">
        <ele>767.88</ele>
        <time>2019-11-01T11:46:33Z</time>
      </trkpt>
      <trkpt lat="44.8589" lon="5.71722">
        <ele>768.49</ele>
        <time>2019-11-01T11:46:34Z</time>
      </trkpt>
      <trkpt lat="44.85891" lon="5.7172">
        <ele>768.81</ele>
        <time>2019-11-01T11:46:35Z</time>
      </trkpt>
      <trkpt lat="44.85894" lon="5.71719">
        <ele>769.17</ele>
        <time>2019-11-01T11:46:37Z</time>
      </trkpt>
      <trkpt lat="44.85896" lon="5.7172">
        <ele>769.6</ele>
        <time>2019-11-01T11:46:40Z</time>
      </trkpt>
      <trkpt lat="44.85899" lon="5.71722">
        <ele>769.9</ele>
        <time>2019-11-01T11:46:42Z</time>
      </trkpt>
      <trkpt lat="44.85902" lon="5.71724">
        <ele>770.18</ele>
        <time>2019-11-01T11:46:44Z</time>
      </trkpt>
      <trkpt lat="44.85905" lon="5.71725">
        <ele>770.3</ele>
        <time>2019-11-01T11:46:45Z</time>
      </trkpt>
      <trkpt lat="44.85909" lon="5.71725">
        <ele>770.61</ele>
        <time>2019-11-01T11:46:46Z</time>
      </trkpt>
      <trkpt lat="44.85911" lon="5.71726">
        <ele>770.78</ele>
        <time>2019-11-01T11:46:47Z</time>
      </trkpt>
      <trkpt lat="44.85913" lon="5.71727">
        <ele>770.83</ele>
        <time>2019-11-01T11:46:48Z</time>
      </trkpt>
      <trkpt lat="44.85916" lon="5.71729">
        <ele>771.05</ele>
        <time>2019-11-01T11:46:49Z</time>
      </trkpt>
      <trkpt lat="44.85919" lon="5.7173">
        <ele>771.33</ele>
        <time>2019-11-01T11:46:50Z</time>
      </trkpt>
      <trkpt lat="44.85921" lon="5.71729">
        <ele>771.55</ele>
        <time>2019-11-01T11:46:51Z</time>
      </trkpt>
      <trkpt lat="44.85923" lon="5.71728">
        <ele>771.97</ele>
        <time>2019-11-01T11:46:52Z</time>
      </trkpt>
      <trkpt lat="44.85926" lon="5.71726">
        <ele>771.44</ele>
        <time>2019-11-01T11:46:55Z</time>
      </trkpt>
      <trkpt lat="44.85929" lon="5.71724">
        <ele>771.22</ele>
        <time>2019-11-01T11:46:57Z</time>
      </trkpt>
      <trkpt lat="44.85931" lon="5.71722">
        <ele>771.45</ele>
        <time>2019-11-01T11:46:58Z</time>
      </trkpt>
      <trkpt lat="44.85933" lon="5.71721">
        <ele>772.01</ele>
        <time>2019-11-01T11:46:59Z</time>
      </trkpt>
      <trkpt lat="44.85936" lon="5.71717">
        <ele>773.18</ele>
        <time>2019-11-01T11:47:01Z</time>
      </trkpt>
      <trkpt lat="44.85939" lon="5.71716">
        <ele>774.14</ele>
        <time>2019-11-01T11:47:02Z</time>
      </trkpt>
      <trkpt lat="44.8594" lon="5.71712">
        <ele>775.44</ele>
        <time>2019-11-01T11:47:04Z</time>
      </trkpt>
      <trkpt lat="44.85942" lon="5.71709">
        <ele>776.64</ele>
        <time>2019-11-01T11:47:06Z</time>
      </trkpt>
      <trkpt lat="44.85944" lon="5.71708">
        <ele>777.52</ele>
        <time>2019-11-01T11:47:08Z</time>
      </trkpt>
      <trkpt lat="44.85948" lon="5.71706">
        <ele>778.09</ele>
        <time>2019-11-01T11:47:13Z</time>
      </trkpt>
      <trkpt lat="44.8595" lon="5.71703">
        <ele>778.37</ele>
        <time>2019-11-01T11:47:15Z</time>
      </trkpt>
      <trkpt lat="44.85951" lon="5.71701">
        <ele>778.86</ele>
        <time>2019-11-01T11:47:17Z</time>
      </trkpt>
      <trkpt lat="44.85955" lon="5.71703">
        <ele>779.54</ele>
        <time>2019-11-01T11:47:19Z</time>
      </trkpt>
      <trkpt lat="44.85956" lon="5.71706">
        <ele>780.16</ele>
        <time>2019-11-01T11:47:21Z</time>
      </trkpt>
      <trkpt lat="44.8596" lon="5.71709">
        <ele>780.92</ele>
        <time>2019-11-01T11:47:23Z</time>
      </trkpt>
      <trkpt lat="44.85962" lon="5.71709">
        <ele>780.77</ele>
        <time>2019-11-01T11:47:25Z</time>
      </trkpt>
      <trkpt lat="44.85965" lon="5.7171">
        <ele>779.08</ele>
        <time>2019-11-01T11:47:28Z</time>
      </trkpt>
      <trkpt lat="44.85966" lon="5.71711">
        <ele>778.71</ele>
        <time>2019-11-01T11:47:29Z</time>
      </trkpt>
      <trkpt lat="44.85969" lon="5.71711">
        <ele>778.67</ele>
        <time>2019-11-01T11:47:30Z</time>
      </trkpt>
      <trkpt lat="44.85972" lon="5.71712">
        <ele>778.51</ele>
        <time>2019-11-01T11:47:31Z</time>
      </trkpt>
      <trkpt lat="44.85974" lon="5.71713">
        <ele>778.47</ele>
        <time>2019-11-01T11:47:32Z</time>
      </trkpt>
      <trkpt lat="44.85977" lon="5.71714">
        <ele>778.45</ele>
        <time>2019-11-01T11:47:33Z</time>
      </trkpt>
      <trkpt lat="44.8598" lon="5.71715">
        <ele>778.45</ele>
        <time>2019-11-01T11:47:34Z</time>
      </trkpt>
      <trkpt lat="44.85982" lon="5.71715">
        <ele>778.59</ele>
        <time>2019-11-01T11:47:35Z</time>
      </trkpt>
      <trkpt lat="44.85984" lon="5.71715">
        <ele>778.63</ele>
        <time>2019-11-01T11:47:36Z</time>
      </trkpt>
      <trkpt lat="44.85987" lon="5.71716">
        <ele>778.85</ele>
        <time>2019-11-01T11:47:37Z</time>
      </trkpt>
      <trkpt lat="44.8599" lon="5.71716">
        <ele>779.13</ele>
        <time>2019-11-01T11:47:38Z</time>
      </trkpt>
      <trkpt lat="44.85992" lon="5.71716">
        <ele>779.42</ele>
        <time>2019-11-01T11:47:39Z</time>
      </trkpt>
      <trkpt lat="44.85994" lon="5.71716">
        <ele>779.86</ele>
        <time>2019-11-01T11:47:41Z</time>
      </trkpt>
      <trkpt lat="44.85998" lon="5.71717">
        <ele>780.1</ele>
        <time>2019-11-01T11:47:43Z</time>
      </trkpt>
      <trkpt lat="44.86002" lon="5.71716">
        <ele>779.71</ele>
        <time>2019-11-01T11:47:44Z</time>
      </trkpt>
      <trkpt lat="44.86004" lon="5.71715">
        <ele>779.6</ele>
        <time>2019-11-01T11:47:45Z</time>
      </trkpt>
      <trkpt lat="44.86007" lon="5.71715">
        <ele>779.63</ele>
        <time>2019-11-01T11:47:46Z</time>
      </trkpt>
      <trkpt lat="44.86009" lon="5.71714">
        <ele>779.57</ele>
        <time>2019-11-01T11:47:47Z</time>
      </trkpt>
      <trkpt lat="44.86012" lon="5.71713">
        <ele>779.7</ele>
        <time>2019-11-01T11:47:48Z</time>
      </trkpt>
      <trkpt lat="44.86014" lon="5.71713">
        <ele>779.66</ele>
        <time>2019-11-01T11:47:49Z</time>
      </trkpt>
      <trkpt lat="44.86016" lon="5.71713">
        <ele>779.3</ele>
        <time>2019-11-01T11:47:50Z</time>
      </trkpt>
      <trkpt lat="44.86018" lon="5.71712">
        <ele>779.06</ele>
        <time>2019-11-01T11:47:51Z</time>
      </trkpt>
      <trkpt lat="44.86021" lon="5.71711">
        <ele>778.84</ele>
        <time>2019-11-01T11:47:52Z</time>
      </trkpt>
      <trkpt lat="44.86023" lon="5.7171">
        <ele>778.43</ele>
        <time>2019-11-01T11:47:53Z</time>
      </trkpt>
      <trkpt lat="44.86025" lon="5.71709">
        <ele>778.02</ele>
        <time>2019-11-01T11:47:54Z</time>
      </trkpt>
      <trkpt lat="44.86027" lon="5.71709">
        <ele>777.62</ele>
        <time>2019-11-01T11:47:55Z</time>
      </trkpt>
      <trkpt lat="44.86029" lon="5.71708">
        <ele>777.22</ele>
        <time>2019-11-01T11:47:56Z</time>
      </trkpt>
      <trkpt lat="44.86032" lon="5.71707">
        <ele>777.03</ele>
        <time>2019-11-01T11:47:57Z</time>
      </trkpt>
      <trkpt lat="44.86034" lon="5.71706">
        <ele>776.9</ele>
        <time>2019-11-01T11:47:58Z</time>
      </trkpt>
      <trkpt lat="44.86037" lon="5.71706">
        <ele>776.73</ele>
        <time>2019-11-01T11:47:59Z</time>
      </trkpt>
      <trkpt lat="44.86039" lon="5.71706">
        <ele>776.6</ele>
        <time>2019-11-01T11:48:00Z</time>
      </trkpt>
      <trkpt lat="44.86042" lon="5.71706">
        <ele>776.63</ele>
        <time>2019-11-01T11:48:01Z</time>
      </trkpt>
      <trkpt lat="44.86045" lon="5.71707">
        <ele>776.12</ele>
        <time>2019-11-01T11:48:03Z</time>
      </trkpt>
      <trkpt lat="44.86048" lon="5.71708">
        <ele>776.28</ele>
        <time>2019-11-01T11:48:04Z</time>
      </trkpt>
      <trkpt lat="44.8605" lon="5.71708">
        <ele>776.75</ele>
        <time>2019-11-01T11:48:05Z</time>
      </trkpt>
      <trkpt lat="44.86053" lon="5.71709">
        <ele>777.1</ele>
        <time>2019-11-01T11:48:06Z</time>
      </trkpt>
      <trkpt lat="44.86057" lon="5.7171">
        <ele>777.34</ele>
        <time>2019-11-01T11:48:07Z</time>
      </trkpt>
      <trkpt lat="44.86061" lon="5.71711">
        <ele>777.7</ele>
        <time>2019-11-01T11:48:08Z</time>
      </trkpt>
      <trkpt lat="44.86064" lon="5.71712">
        <ele>777.87</ele>
        <time>2019-11-01T11:48:09Z</time>
      </trkpt>
      <trkpt lat="44.86067" lon="5.71713">
        <ele>778.21</ele>
        <time>2019-11-01T11:48:10Z</time>
      </trkpt>
      <trkpt lat="44.86069" lon="5.71713">
        <ele>778.59</ele>
        <time>2019-11-01T11:48:11Z</time>
      </trkpt>
      <trkpt lat="44.86071" lon="5.71713">
        <ele>779.18</ele>
        <time>2019-11-01T11:48:14Z</time>
      </trkpt>
      <trkpt lat="44.86082" lon="5.71713">
        <ele>779.36</ele>
        <time>2019-11-01T11:49:51Z</time>
      </trkpt>
      <trkpt lat="44.86085" lon="5.71712">
        <ele>779.28</ele>
        <time>2019-11-01T11:49:52Z</time>
      </trkpt>
      <trkpt lat="44.86087" lon="5.7171">
        <ele>779.12</ele>
        <time>2019-11-01T11:49:53Z</time>
      </trkpt>
      <trkpt lat="44.86089" lon="5.71709">
        <ele>779</ele>
        <time>2019-11-01T11:49:54Z</time>
      </trkpt>
      <trkpt lat="44.86092" lon="5.71709">
        <ele>778.72</ele>
        <time>2019-11-01T11:49:56Z</time>
      </trkpt>
      <trkpt lat="44.86094" lon="5.71709">
        <ele>778.46</ele>
        <time>2019-11-01T11:49:57Z</time>
      </trkpt>
      <trkpt lat="44.86097" lon="5.71708">
        <ele>778.17</ele>
        <time>2019-11-01T11:49:58Z</time>
      </trkpt>
      <trkpt lat="44.861" lon="5.71706">
        <ele>777.88</ele>
        <time>2019-11-01T11:49:59Z</time>
      </trkpt>
      <trkpt lat="44.86102" lon="5.71706">
        <ele>777.65</ele>
        <time>2019-11-01T11:50:00Z</time>
      </trkpt>
      <trkpt lat="44.86104" lon="5.71705">
        <ele>777.51</ele>
        <time>2019-11-01T11:50:01Z</time>
      </trkpt>
      <trkpt lat="44.86107" lon="5.71704">
        <ele>777.4</ele>
        <time>2019-11-01T11:50:02Z</time>
      </trkpt>
      <trkpt lat="44.8611" lon="5.71703">
        <ele>777.15</ele>
        <time>2019-11-01T11:50:03Z</time>
      </trkpt>
      <trkpt lat="44.86113" lon="5.71702">
        <ele>777.01</ele>
        <time>2019-11-01T11:50:04Z</time>
      </trkpt>
      <trkpt lat="44.86116" lon="5.717">
        <ele>776.76</ele>
        <time>2019-11-01T11:50:05Z</time>
      </trkpt>
      <trkpt lat="44.86118" lon="5.71699">
        <ele>776.4</ele>
        <time>2019-11-01T11:50:06Z</time>
      </trkpt>
      <trkpt lat="44.8612" lon="5.71698">
        <ele>776.15</ele>
        <time>2019-11-01T11:50:07Z</time>
      </trkpt>
      <trkpt lat="44.86122" lon="5.71697">
        <ele>775.59</ele>
        <time>2019-11-01T11:50:08Z</time>
      </trkpt>
      <trkpt lat="44.86124" lon="5.71696">
        <ele>775.07</ele>
        <time>2019-11-01T11:50:09Z</time>
      </trkpt>
      <trkpt lat="44.86126" lon="5.71695">
        <ele>774.36</ele>
        <time>2019-11-01T11:50:10Z</time>
      </trkpt>
      <trkpt lat="44.86128" lon="5.71694">
        <ele>773.86</ele>
        <time>2019-11-01T11:50:11Z</time>
      </trkpt>
      <trkpt lat="44.8613" lon="5.71692">
        <ele>773.5</ele>
        <time>2019-11-01T11:50:12Z</time>
      </trkpt>
      <trkpt lat="44.86132" lon="5.71692">
        <ele>773.26</ele>
        <time>2019-11-01T11:50:13Z</time>
      </trkpt>
      <trkpt lat="44.86134" lon="5.7169">
        <ele>772.69</ele>
        <time>2019-11-01T11:50:14Z</time>
      </trkpt>
      <trkpt lat="44.86137" lon="5.71688">
        <ele>771.89</ele>
        <time>2019-11-01T11:50:15Z</time>
      </trkpt>
      <trkpt lat="44.8614" lon="5.71685">
        <ele>771.02</ele>
        <time>2019-11-01T11:50:16Z</time>
      </trkpt>
      <trkpt lat="44.86143" lon="5.71682">
        <ele>770.27</ele>
        <time>2019-11-01T11:50:17Z</time>
      </trkpt>
      <trkpt lat="44.86145" lon="5.71679">
        <ele>769.35</ele>
        <time>2019-11-01T11:50:18Z</time>
      </trkpt>
      <trkpt lat="44.86147" lon="5.71675">
        <ele>768.3</ele>
        <time>2019-11-01T11:50:19Z</time>
      </trkpt>
      <trkpt lat="44.8615" lon="5.71672">
        <ele>767.49</ele>
        <time>2019-11-01T11:50:20Z</time>
      </trkpt>
      <trkpt lat="44.86151" lon="5.71668">
        <ele>766.83</ele>
        <time>2019-11-01T11:50:21Z</time>
      </trkpt>
      <trkpt lat="44.86152" lon="5.71664">
        <ele>766.28</ele>
        <time>2019-11-01T11:50:22Z</time>
      </trkpt>
      <trkpt lat="44.86154" lon="5.7166">
        <ele>765.77</ele>
        <time>2019-11-01T11:50:23Z</time>
      </trkpt>
      <trkpt lat="44.86156" lon="5.71657">
        <ele>765.41</ele>
        <time>2019-11-01T11:50:24Z</time>
      </trkpt>
      <trkpt lat="44.86157" lon="5.71654">
        <ele>765.44</ele>
        <time>2019-11-01T11:50:25Z</time>
      </trkpt>
      <trkpt lat="44.86158" lon="5.71651">
        <ele>765.59</ele>
        <time>2019-11-01T11:50:26Z</time>
      </trkpt>
      <trkpt lat="44.8616" lon="5.71647">
        <ele>766.05</ele>
        <time>2019-11-01T11:50:27Z</time>
      </trkpt>
      <trkpt lat="44.86162" lon="5.71644">
        <ele>766.54</ele>
        <time>2019-11-01T11:50:28Z</time>
      </trkpt>
      <trkpt lat="44.86164" lon="5.71641">
        <ele>766.76</ele>
        <time>2019-11-01T11:50:29Z</time>
      </trkpt>
      <trkpt lat="44.86165" lon="5.71637">
        <ele>767.1</ele>
        <time>2019-11-01T11:50:30Z</time>
      </trkpt>
      <trkpt lat="44.86166" lon="5.71633">
        <ele>767.34</ele>
        <time>2019-11-01T11:50:31Z</time>
      </trkpt>
      <trkpt lat="44.86168" lon="5.71629">
        <ele>767.56</ele>
        <time>2019-11-01T11:50:32Z</time>
      </trkpt>
      <trkpt lat="44.86169" lon="5.71624">
        <ele>767.69</ele>
        <time>2019-11-01T11:50:33Z</time>
      </trkpt>
      <trkpt lat="44.86169" lon="5.7162">
        <ele>767.87</ele>
        <time>2019-11-01T11:50:34Z</time>
      </trkpt>
      <trkpt lat="44.8617" lon="5.71617">
        <ele>767.72</ele>
        <time>2019-11-01T11:50:35Z</time>
      </trkpt>
      <trkpt lat="44.8617" lon="5.71613">
        <ele>767.67</ele>
        <time>2019-11-01T11:50:36Z</time>
      </trkpt>
      <trkpt lat="44.86172" lon="5.71608">
        <ele>767.93</ele>
        <time>2019-11-01T11:50:37Z</time>
      </trkpt>
      <trkpt lat="44.86173" lon="5.71604">
        <ele>768.15</ele>
        <time>2019-11-01T11:50:38Z</time>
      </trkpt>
      <trkpt lat="44.86175" lon="5.71599">
        <ele>768.57</ele>
        <time>2019-11-01T11:50:39Z</time>
      </trkpt>
      <trkpt lat="44.86176" lon="5.71595">
        <ele>769.19</ele>
        <time>2019-11-01T11:50:40Z</time>
      </trkpt>
      <trkpt lat="44.86177" lon="5.71592">
        <ele>769.58</ele>
        <time>2019-11-01T11:50:41Z</time>
      </trkpt>
      <trkpt lat="44.86178" lon="5.71588">
        <ele>769.84</ele>
        <time>2019-11-01T11:50:42Z</time>
      </trkpt>
      <trkpt lat="44.86179" lon="5.71585">
        <ele>770.2</ele>
        <time>2019-11-01T11:50:43Z</time>
      </trkpt>
      <trkpt lat="44.86179" lon="5.71582">
        <ele>769.88</ele>
        <time>2019-11-01T11:50:44Z</time>
      </trkpt>
      <trkpt lat="44.8618" lon="5.71579">
        <ele>769.65</ele>
        <time>2019-11-01T11:50:45Z</time>
      </trkpt>
      <trkpt lat="44.86183" lon="5.71574">
        <ele>769.44</ele>
        <time>2019-11-01T11:50:46Z</time>
      </trkpt>
      <trkpt lat="44.86186" lon="5.71568">
        <ele>769.24</ele>
        <time>2019-11-01T11:50:47Z</time>
      </trkpt>
      <trkpt lat="44.86188" lon="5.71562">
        <ele>769.25</ele>
        <time>2019-11-01T11:50:48Z</time>
      </trkpt>
      <trkpt lat="44.86188" lon="5.71554">
        <ele>768.76</ele>
        <time>2019-11-01T11:50:49Z</time>
      </trkpt>
      <trkpt lat="44.86187" lon="5.71547">
        <ele>768.05</ele>
        <time>2019-11-01T11:50:50Z</time>
      </trkpt>
      <trkpt lat="44.86186" lon="5.7154">
        <ele>767.56</ele>
        <time>2019-11-01T11:50:51Z</time>
      </trkpt>
      <trkpt lat="44.86183" lon="5.71534">
        <ele>767.27</ele>
        <time>2019-11-01T11:50:52Z</time>
      </trkpt>
      <trkpt lat="44.86182" lon="5.71527">
        <ele>766.91</ele>
        <time>2019-11-01T11:50:53Z</time>
      </trkpt>
      <trkpt lat="44.8618" lon="5.71521">
        <ele>766.1</ele>
        <time>2019-11-01T11:50:54Z</time>
      </trkpt>
      <trkpt lat="44.86179" lon="5.71515">
        <ele>765.43</ele>
        <time>2019-11-01T11:50:55Z</time>
      </trkpt>
      <trkpt lat="44.86176" lon="5.71509">
        <ele>764.67</ele>
        <time>2019-11-01T11:50:56Z</time>
      </trkpt>
      <trkpt lat="44.86175" lon="5.71504">
        <ele>764.31</ele>
        <time>2019-11-01T11:50:57Z</time>
      </trkpt>
      <trkpt lat="44.86173" lon="5.71499">
        <ele>763.92</ele>
        <time>2019-11-01T11:50:58Z</time>
      </trkpt>
      <trkpt lat="44.86171" lon="5.71494">
        <ele>763.94</ele>
        <time>2019-11-01T11:50:59Z</time>
      </trkpt>
      <trkpt lat="44.86169" lon="5.71489">
        <ele>763.6</ele>
        <time>2019-11-01T11:51:00Z</time>
      </trkpt>
      <trkpt lat="44.86167" lon="5.71483">
        <ele>763.07</ele>
        <time>2019-11-01T11:51:01Z</time>
      </trkpt>
      <trkpt lat="44.86164" lon="5.71478">
        <ele>762.71</ele>
        <time>2019-11-01T11:51:02Z</time>
      </trkpt>
      <trkpt lat="44.86161" lon="5.71473">
        <ele>762.67</ele>
        <time>2019-11-01T11:51:03Z</time>
      </trkpt>
      <trkpt lat="44.86159" lon="5.71469">
        <ele>762.65</ele>
        <time>2019-11-01T11:51:04Z</time>
      </trkpt>
      <trkpt lat="44.86157" lon="5.71464">
        <ele>762.3</ele>
        <time>2019-11-01T11:51:05Z</time>
      </trkpt>
      <trkpt lat="44.86155" lon="5.71459">
        <ele>761.63</ele>
        <time>2019-11-01T11:51:06Z</time>
      </trkpt>
      <trkpt lat="44.86153" lon="5.71456">
        <ele>760.87</ele>
        <time>2019-11-01T11:51:07Z</time>
      </trkpt>
      <trkpt lat="44.86151" lon="5.71453">
        <ele>760.44</ele>
        <time>2019-11-01T11:51:08Z</time>
      </trkpt>
      <trkpt lat="44.86148" lon="5.71451">
        <ele>760.45</ele>
        <time>2019-11-01T11:51:09Z</time>
      </trkpt>
      <trkpt lat="44.86145" lon="5.7145">
        <ele>761.01</ele>
        <time>2019-11-01T11:51:10Z</time>
      </trkpt>
      <trkpt lat="44.86143" lon="5.71449">
        <ele>760.97</ele>
        <time>2019-11-01T11:51:11Z</time>
      </trkpt>
      <trkpt lat="44.8614" lon="5.71447">
        <ele>761.02</ele>
        <time>2019-11-01T11:51:12Z</time>
      </trkpt>
      <trkpt lat="44.86137" lon="5.71445">
        <ele>760.9</ele>
        <time>2019-11-01T11:51:13Z</time>
      </trkpt>
      <trkpt lat="44.86135" lon="5.71442">
        <ele>760.93</ele>
        <time>2019-11-01T11:51:14Z</time>
      </trkpt>
      <trkpt lat="44.86134" lon="5.71438">
        <ele>760.66</ele>
        <time>2019-11-01T11:51:15Z</time>
      </trkpt>
      <trkpt lat="44.86133" lon="5.71435">
        <ele>760.23</ele>
        <time>2019-11-01T11:51:16Z</time>
      </trkpt>
      <trkpt lat="44.86132" lon="5.71431">
        <ele>759.96</ele>
        <time>2019-11-01T11:51:17Z</time>
      </trkpt>
      <trkpt lat="44.86131" lon="5.71428">
        <ele>759.6</ele>
        <time>2019-11-01T11:51:18Z</time>
      </trkpt>
      <trkpt lat="44.8613" lon="5.71424">
        <ele>759.5</ele>
        <time>2019-11-01T11:51:19Z</time>
      </trkpt>
      <trkpt lat="44.8613" lon="5.7142">
        <ele>760.16</ele>
        <time>2019-11-01T11:51:20Z</time>
      </trkpt>
      <trkpt lat="44.86129" lon="5.71416">
        <ele>760.85</ele>
        <time>2019-11-01T11:51:21Z</time>
      </trkpt>
      <trkpt lat="44.86129" lon="5.71412">
        <ele>761.48</ele>
        <time>2019-11-01T11:51:22Z</time>
      </trkpt>
      <trkpt lat="44.86128" lon="5.71408">
        <ele>761.81</ele>
        <time>2019-11-01T11:51:23Z</time>
      </trkpt>
      <trkpt lat="44.86128" lon="5.71404">
        <ele>762.26</ele>
        <time>2019-11-01T11:51:24Z</time>
      </trkpt>
      <trkpt lat="44.86128" lon="5.71401">
        <ele>762.74</ele>
        <time>2019-11-01T11:51:25Z</time>
      </trkpt>
      <trkpt lat="44.86127" lon="5.71398">
        <ele>763.38</ele>
        <time>2019-11-01T11:51:26Z</time>
      </trkpt>
      <trkpt lat="44.86126" lon="5.71395">
        <ele>763.85</ele>
        <time>2019-11-01T11:51:27Z</time>
      </trkpt>
      <trkpt lat="44.86125" lon="5.71392">
        <ele>764.13</ele>
        <time>2019-11-01T11:51:28Z</time>
      </trkpt>
      <trkpt lat="44.86124" lon="5.71389">
        <ele>764.49</ele>
        <time>2019-11-01T11:51:29Z</time>
      </trkpt>
      <trkpt lat="44.86123" lon="5.71386">
        <ele>764.81</ele>
        <time>2019-11-01T11:51:30Z</time>
      </trkpt>
      <trkpt lat="44.86124" lon="5.71383">
        <ele>764.77</ele>
        <time>2019-11-01T11:51:31Z</time>
      </trkpt>
      <trkpt lat="44.86123" lon="5.71381">
        <ele>765.1</ele>
        <time>2019-11-01T11:51:32Z</time>
      </trkpt>
      <trkpt lat="44.86124" lon="5.71378">
        <ele>765.35</ele>
        <time>2019-11-01T11:51:33Z</time>
      </trkpt>
      <trkpt lat="44.86123" lon="5.71374">
        <ele>765.42</ele>
        <time>2019-11-01T11:51:34Z</time>
      </trkpt>
      <trkpt lat="44.86123" lon="5.71371">
        <ele>765.44</ele>
        <time>2019-11-01T11:51:35Z</time>
      </trkpt>
      <trkpt lat="44.86124" lon="5.71368">
        <ele>765.91</ele>
        <time>2019-11-01T11:51:37Z</time>
      </trkpt>
      <trkpt lat="44.86126" lon="5.71362">
        <ele>766.4</ele>
        <time>2019-11-01T11:51:39Z</time>
      </trkpt>
      <trkpt lat="44.86128" lon="5.71358">
        <ele>766.29</ele>
        <time>2019-11-01T11:51:40Z</time>
      </trkpt>
      <trkpt lat="44.8613" lon="5.71353">
        <ele>765.91</ele>
        <time>2019-11-01T11:51:41Z</time>
      </trkpt>
      <trkpt lat="44.86132" lon="5.71349">
        <ele>765.66</ele>
        <time>2019-11-01T11:51:42Z</time>
      </trkpt>
      <trkpt lat="44.86135" lon="5.71343">
        <ele>765.37</ele>
        <time>2019-11-01T11:51:43Z</time>
      </trkpt>
      <trkpt lat="44.86137" lon="5.71337">
        <ele>765.29</ele>
        <time>2019-11-01T11:51:44Z</time>
      </trkpt>
      <trkpt lat="44.8614" lon="5.71329">
        <ele>765.26</ele>
        <time>2019-11-01T11:51:45Z</time>
      </trkpt>
      <trkpt lat="44.86142" lon="5.71322">
        <ele>765.18</ele>
        <time>2019-11-01T11:51:46Z</time>
      </trkpt>
      <trkpt lat="44.86143" lon="5.71313">
        <ele>764.95</ele>
        <time>2019-11-01T11:51:47Z</time>
      </trkpt>
      <trkpt lat="44.86144" lon="5.71305">
        <ele>764.81</ele>
        <time>2019-11-01T11:51:48Z</time>
      </trkpt>
      <trkpt lat="44.86145" lon="5.71297">
        <ele>764.7</ele>
        <time>2019-11-01T11:51:49Z</time>
      </trkpt>
      <trkpt lat="44.86147" lon="5.71289">
        <ele>764.8</ele>
        <time>2019-11-01T11:51:50Z</time>
      </trkpt>
      <trkpt lat="44.86148" lon="5.71281">
        <ele>764.63</ele>
        <time>2019-11-01T11:51:51Z</time>
      </trkpt>
      <trkpt lat="44.86149" lon="5.71273">
        <ele>764.5</ele>
        <time>2019-11-01T11:51:52Z</time>
      </trkpt>
      <trkpt lat="44.86149" lon="5.71265">
        <ele>764.46</ele>
        <time>2019-11-01T11:51:53Z</time>
      </trkpt>
      <trkpt lat="44.8615" lon="5.71257">
        <ele>764.66</ele>
        <time>2019-11-01T11:51:54Z</time>
      </trkpt>
      <trkpt lat="44.8615" lon="5.7125">
        <ele>764.86</ele>
        <time>2019-11-01T11:51:55Z</time>
      </trkpt>
      <trkpt lat="44.8615" lon="5.71242">
        <ele>764.99</ele>
        <time>2019-11-01T11:51:56Z</time>
      </trkpt>
      <trkpt lat="44.86149" lon="5.71234">
        <ele>765.24</ele>
        <time>2019-11-01T11:51:57Z</time>
      </trkpt>
      <trkpt lat="44.86147" lon="5.71227">
        <ele>765.46</ele>
        <time>2019-11-01T11:51:58Z</time>
      </trkpt>
      <trkpt lat="44.86146" lon="5.71221">
        <ele>765.59</ele>
        <time>2019-11-01T11:51:59Z</time>
      </trkpt>
      <trkpt lat="44.86143" lon="5.71214">
        <ele>765.28</ele>
        <time>2019-11-01T11:52:00Z</time>
      </trkpt>
      <trkpt lat="44.86142" lon="5.71209">
        <ele>765.12</ele>
        <time>2019-11-01T11:52:01Z</time>
      </trkpt>
      <trkpt lat="44.8614" lon="5.71204">
        <ele>765</ele>
        <time>2019-11-01T11:52:02Z</time>
      </trkpt>
      <trkpt lat="44.86139" lon="5.71199">
        <ele>764.82</ele>
        <time>2019-11-01T11:52:03Z</time>
      </trkpt>
      <trkpt lat="44.86136" lon="5.71194">
        <ele>764.49</ele>
        <time>2019-11-01T11:52:04Z</time>
      </trkpt>
      <trkpt lat="44.86135" lon="5.7119">
        <ele>764.39</ele>
        <time>2019-11-01T11:52:05Z</time>
      </trkpt>
      <trkpt lat="44.86133" lon="5.71186">
        <ele>763.94</ele>
        <time>2019-11-01T11:52:06Z</time>
      </trkpt>
      <trkpt lat="44.86132" lon="5.71182">
        <ele>763.6</ele>
        <time>2019-11-01T11:52:07Z</time>
      </trkpt>
      <trkpt lat="44.8613" lon="5.71178">
        <ele>763.35</ele>
        <time>2019-11-01T11:52:08Z</time>
      </trkpt>
      <trkpt lat="44.86129" lon="5.71174">
        <ele>763.49</ele>
        <time>2019-11-01T11:52:09Z</time>
      </trkpt>
      <trkpt lat="44.86126" lon="5.71171">
        <ele>763.18</ele>
        <time>2019-11-01T11:52:10Z</time>
      </trkpt>
      <trkpt lat="44.86124" lon="5.71167">
        <ele>762.74</ele>
        <time>2019-11-01T11:52:11Z</time>
      </trkpt>
      <trkpt lat="44.86122" lon="5.71162">
        <ele>762.54</ele>
        <time>2019-11-01T11:52:12Z</time>
      </trkpt>
      <trkpt lat="44.8612" lon="5.71158">
        <ele>761.57</ele>
        <time>2019-11-01T11:52:13Z</time>
      </trkpt>
      <trkpt lat="44.86117" lon="5.71154">
        <ele>760.92</ele>
        <time>2019-11-01T11:52:14Z</time>
      </trkpt>
      <trkpt lat="44.86115" lon="5.7115">
        <ele>760.1</ele>
        <time>2019-11-01T11:52:15Z</time>
      </trkpt>
      <trkpt lat="44.86113" lon="5.71146">
        <ele>759.29</ele>
        <time>2019-11-01T11:52:16Z</time>
      </trkpt>
      <trkpt lat="44.86111" lon="5.71142">
        <ele>758.84</ele>
        <time>2019-11-01T11:52:17Z</time>
      </trkpt>
      <trkpt lat="44.86109" lon="5.71138">
        <ele>758.29</ele>
        <time>2019-11-01T11:52:18Z</time>
      </trkpt>
      <trkpt lat="44.86108" lon="5.71133">
        <ele>757.77</ele>
        <time>2019-11-01T11:52:19Z</time>
      </trkpt>
      <trkpt lat="44.86107" lon="5.71129">
        <ele>757.48</ele>
        <time>2019-11-01T11:52:20Z</time>
      </trkpt>
      <trkpt lat="44.86105" lon="5.71126">
        <ele>757.11</ele>
        <time>2019-11-01T11:52:21Z</time>
      </trkpt>
      <trkpt lat="44.86104" lon="5.71122">
        <ele>756.79</ele>
        <time>2019-11-01T11:52:22Z</time>
      </trkpt>
      <trkpt lat="44.86103" lon="5.71118">
        <ele>756.69</ele>
        <time>2019-11-01T11:52:23Z</time>
      </trkpt>
      <trkpt lat="44.86101" lon="5.71114">
        <ele>756.8</ele>
        <time>2019-11-01T11:52:24Z</time>
      </trkpt>
      <trkpt lat="44.86099" lon="5.7111">
        <ele>756.97</ele>
        <time>2019-11-01T11:52:25Z</time>
      </trkpt>
      <trkpt lat="44.86098" lon="5.71106">
        <ele>756.96</ele>
        <time>2019-11-01T11:52:26Z</time>
      </trkpt>
      <trkpt lat="44.86096" lon="5.71103">
        <ele>757.02</ele>
        <time>2019-11-01T11:52:27Z</time>
      </trkpt>
      <trkpt lat="44.86094" lon="5.71101">
        <ele>756.97</ele>
        <time>2019-11-01T11:52:28Z</time>
      </trkpt>
      <trkpt lat="44.86093" lon="5.71098">
        <ele>757.03</ele>
        <time>2019-11-01T11:52:29Z</time>
      </trkpt>
      <trkpt lat="44.86091" lon="5.71095">
        <ele>757.04</ele>
        <time>2019-11-01T11:52:30Z</time>
      </trkpt>
      <trkpt lat="44.86089" lon="5.71092">
        <ele>757.33</ele>
        <time>2019-11-01T11:52:31Z</time>
      </trkpt>
      <trkpt lat="44.86087" lon="5.71089">
        <ele>757.62</ele>
        <time>2019-11-01T11:52:32Z</time>
      </trkpt>
      <trkpt lat="44.86085" lon="5.71086">
        <ele>757.99</ele>
        <time>2019-11-01T11:52:33Z</time>
      </trkpt>
      <trkpt lat="44.86084" lon="5.71084">
        <ele>758.17</ele>
        <time>2019-11-01T11:52:34Z</time>
      </trkpt>
      <trkpt lat="44.86082" lon="5.71082">
        <ele>758.37</ele>
        <time>2019-11-01T11:52:35Z</time>
      </trkpt>
      <trkpt lat="44.86079" lon="5.71081">
        <ele>758.42</ele>
        <time>2019-11-01T11:52:36Z</time>
      </trkpt>
      <trkpt lat="44.86077" lon="5.7108">
        <ele>758.79</ele>
        <time>2019-11-01T11:52:37Z</time>
      </trkpt>
      <trkpt lat="44.86075" lon="5.71078">
        <ele>759.11</ele>
        <time>2019-11-01T11:52:38Z</time>
      </trkpt>
      <trkpt lat="44.86074" lon="5.71076">
        <ele>759.56</ele>
        <time>2019-11-01T11:52:39Z</time>
      </trkpt>
      <trkpt lat="44.86072" lon="5.71075">
        <ele>759.83</ele>
        <time>2019-11-01T11:52:40Z</time>
      </trkpt>
      <trkpt lat="44.86071" lon="5.71073">
        <ele>760.33</ele>
        <time>2019-11-01T11:52:41Z</time>
      </trkpt>
      <trkpt lat="44.86068" lon="5.71072">
        <ele>760.76</ele>
        <time>2019-11-01T11:52:42Z</time>
      </trkpt>
      <trkpt lat="44.86065" lon="5.7107">
        <ele>760.91</ele>
        <time>2019-11-01T11:52:44Z</time>
      </trkpt>
      <trkpt lat="44.86063" lon="5.71067">
        <ele>761.59</ele>
        <time>2019-11-01T11:52:46Z</time>
      </trkpt>
      <trkpt lat="44.8606" lon="5.71062">
        <ele>762.49</ele>
        <time>2019-11-01T11:52:48Z</time>
      </trkpt>
      <trkpt lat="44.86059" lon="5.7106">
        <ele>762.88</ele>
        <time>2019-11-01T11:52:49Z</time>
      </trkpt>
      <trkpt lat="44.86058" lon="5.71058">
        <ele>764.66</ele>
        <time>2019-11-01T11:52:51Z</time>
      </trkpt>
      <trkpt lat="44.86056" lon="5.71054">
        <ele>766.07</ele>
        <time>2019-11-01T11:52:53Z</time>
      </trkpt>
      <trkpt lat="44.86054" lon="5.71052">
        <ele>766.88</ele>
        <time>2019-11-01T11:52:55Z</time>
      </trkpt>
      <trkpt lat="44.86052" lon="5.71047">
        <ele>767.98</ele>
        <time>2019-11-01T11:52:57Z</time>
      </trkpt>
      <trkpt lat="44.86051" lon="5.71043">
        <ele>768.78</ele>
        <time>2019-11-01T11:52:59Z</time>
      </trkpt>
      <trkpt lat="44.8605" lon="5.7104">
        <ele>769.25</ele>
        <time>2019-11-01T11:53:00Z</time>
      </trkpt>
      <trkpt lat="44.86049" lon="5.71038">
        <ele>769.67</ele>
        <time>2019-11-01T11:53:01Z</time>
      </trkpt>
      <trkpt lat="44.86047" lon="5.71033">
        <ele>770.57</ele>
        <time>2019-11-01T11:53:03Z</time>
      </trkpt>
      <trkpt lat="44.86047" lon="5.71028">
        <ele>771.54</ele>
        <time>2019-11-01T11:53:05Z</time>
      </trkpt>
      <trkpt lat="44.86045" lon="5.71023">
        <ele>773.34</ele>
        <time>2019-11-01T11:53:07Z</time>
      </trkpt>
      <trkpt lat="44.86044" lon="5.71019">
        <ele>774.77</ele>
        <time>2019-11-01T11:53:09Z</time>
      </trkpt>
      <trkpt lat="44.86044" lon="5.71013">
        <ele>775.53</ele>
        <time>2019-11-01T11:53:11Z</time>
      </trkpt>
      <trkpt lat="44.86044" lon="5.71011">
        <ele>776.03</ele>
        <time>2019-11-01T11:53:12Z</time>
      </trkpt>
      <trkpt lat="44.86044" lon="5.71006">
        <ele>776.6</ele>
        <time>2019-11-01T11:53:14Z</time>
      </trkpt>
      <trkpt lat="44.86044" lon="5.71002">
        <ele>777.29</ele>
        <time>2019-11-01T11:53:16Z</time>
      </trkpt>
      <trkpt lat="44.86044" lon="5.70997">
        <ele>778.35</ele>
        <time>2019-11-01T11:53:18Z</time>
      </trkpt>
      <trkpt lat="44.86045" lon="5.70995">
        <ele>778.77</ele>
        <time>2019-11-01T11:53:19Z</time>
      </trkpt>
      <trkpt lat="44.86047" lon="5.70993">
        <ele>779.11</ele>
        <time>2019-11-01T11:53:20Z</time>
      </trkpt>
      <trkpt lat="44.86048" lon="5.70988">
        <ele>780.27</ele>
        <time>2019-11-01T11:53:22Z</time>
      </trkpt>
      <trkpt lat="44.86049" lon="5.70985">
        <ele>780.96</ele>
        <time>2019-11-01T11:53:23Z</time>
      </trkpt>
      <trkpt lat="44.8605" lon="5.70982">
        <ele>781.58</ele>
        <time>2019-11-01T11:53:24Z</time>
      </trkpt>
      <trkpt lat="44.8605" lon="5.70978">
        <ele>782.12</ele>
        <time>2019-11-01T11:53:25Z</time>
      </trkpt>
      <trkpt lat="44.8605" lon="5.70976">
        <ele>782.42</ele>
        <time>2019-11-01T11:53:26Z</time>
      </trkpt>
      <trkpt lat="44.8605" lon="5.70972">
        <ele>782.65</ele>
        <time>2019-11-01T11:53:27Z</time>
      </trkpt>
      <trkpt lat="44.86049" lon="5.70969">
        <ele>782.79</ele>
        <time>2019-11-01T11:53:28Z</time>
      </trkpt>
      <trkpt lat="44.86049" lon="5.70966">
        <ele>782.69</ele>
        <time>2019-11-01T11:53:29Z</time>
      </trkpt>
      <trkpt lat="44.8605" lon="5.70962">
        <ele>782.52</ele>
        <time>2019-11-01T11:53:30Z</time>
      </trkpt>
      <trkpt lat="44.8605" lon="5.70958">
        <ele>782.33</ele>
        <time>2019-11-01T11:53:31Z</time>
      </trkpt>
      <trkpt lat="44.86052" lon="5.70955">
        <ele>782.13</ele>
        <time>2019-11-01T11:53:32Z</time>
      </trkpt>
      <trkpt lat="44.86053" lon="5.70954">
        <ele>781.93</ele>
        <time>2019-11-01T11:53:33Z</time>
      </trkpt>
      <trkpt lat="44.86055" lon="5.70952">
        <ele>781.8</ele>
        <time>2019-11-01T11:53:34Z</time>
      </trkpt>
      <trkpt lat="44.86057" lon="5.7095">
        <ele>781.56</ele>
        <time>2019-11-01T11:53:35Z</time>
      </trkpt>
      <trkpt lat="44.8606" lon="5.70947">
        <ele>780.95</ele>
        <time>2019-11-01T11:53:37Z</time>
      </trkpt>
      <trkpt lat="44.86062" lon="5.70945">
        <ele>780.67</ele>
        <time>2019-11-01T11:53:38Z</time>
      </trkpt>
      <trkpt lat="44.86064" lon="5.70944">
        <ele>780.16</ele>
        <time>2019-11-01T11:53:39Z</time>
      </trkpt>
      <trkpt lat="44.86067" lon="5.70941">
        <ele>780.01</ele>
        <time>2019-11-01T11:53:40Z</time>
      </trkpt>
      <trkpt lat="44.8607" lon="5.7094">
        <ele>779.48</ele>
        <time>2019-11-01T11:53:41Z</time>
      </trkpt>
      <trkpt lat="44.86073" lon="5.70938">
        <ele>778.83</ele>
        <time>2019-11-01T11:53:42Z</time>
      </trkpt>
      <trkpt lat="44.86074" lon="5.70935">
        <ele>778.07</ele>
        <time>2019-11-01T11:53:43Z</time>
      </trkpt>
      <trkpt lat="44.86077" lon="5.70933">
        <ele>777.5</ele>
        <time>2019-11-01T11:53:44Z</time>
      </trkpt>
      <trkpt lat="44.86078" lon="5.7093">
        <ele>777.04</ele>
        <time>2019-11-01T11:53:45Z</time>
      </trkpt>
      <trkpt lat="44.86081" lon="5.70928">
        <ele>776.56</ele>
        <time>2019-11-01T11:53:46Z</time>
      </trkpt>
      <trkpt lat="44.86083" lon="5.70927">
        <ele>776.27</ele>
        <time>2019-11-01T11:53:47Z</time>
      </trkpt>
      <trkpt lat="44.86085" lon="5.70924">
        <ele>775.79</ele>
        <time>2019-11-01T11:53:49Z</time>
      </trkpt>
      <trkpt lat="44.86087" lon="5.70923">
        <ele>775.48</ele>
        <time>2019-11-01T11:53:50Z</time>
      </trkpt>
      <trkpt lat="44.86089" lon="5.70922">
        <ele>775.25</ele>
        <time>2019-11-01T11:53:51Z</time>
      </trkpt>
      <trkpt lat="44.86091" lon="5.7092">
        <ele>774.83</ele>
        <time>2019-11-01T11:53:52Z</time>
      </trkpt>
      <trkpt lat="44.86094" lon="5.70918">
        <ele>774.21</ele>
        <time>2019-11-01T11:53:53Z</time>
      </trkpt>
      <trkpt lat="44.86095" lon="5.70916">
        <ele>773.82</ele>
        <time>2019-11-01T11:53:54Z</time>
      </trkpt>
      <trkpt lat="44.86097" lon="5.70915">
        <ele>773.49</ele>
        <time>2019-11-01T11:53:55Z</time>
      </trkpt>
      <trkpt lat="44.86098" lon="5.70913">
        <ele>773.25</ele>
        <time>2019-11-01T11:53:56Z</time>
      </trkpt>
      <trkpt lat="44.861" lon="5.70911">
        <ele>773.04</ele>
        <time>2019-11-01T11:53:57Z</time>
      </trkpt>
      <trkpt lat="44.86101" lon="5.70909">
        <ele>772.77</ele>
        <time>2019-11-01T11:53:58Z</time>
      </trkpt>
      <trkpt lat="44.86103" lon="5.70907">
        <ele>772.54</ele>
        <time>2019-11-01T11:53:59Z</time>
      </trkpt>
      <trkpt lat="44.86105" lon="5.70905">
        <ele>772.27</ele>
        <time>2019-11-01T11:54:00Z</time>
      </trkpt>
      <trkpt lat="44.86107" lon="5.70902">
        <ele>771.9</ele>
        <time>2019-11-01T11:54:01Z</time>
      </trkpt>
      <trkpt lat="44.86108" lon="5.70899">
        <ele>772.01</ele>
        <time>2019-11-01T11:54:02Z</time>
      </trkpt>
      <trkpt lat="44.86109" lon="5.70896">
        <ele>771.97</ele>
        <time>2019-11-01T11:54:03Z</time>
      </trkpt>
      <trkpt lat="44.8611" lon="5.70894">
        <ele>771.74</ele>
        <time>2019-11-01T11:54:04Z</time>
      </trkpt>
      <trkpt lat="44.86111" lon="5.70889">
        <ele>771.82</ele>
        <time>2019-11-01T11:54:06Z</time>
      </trkpt>
      <trkpt lat="44.86111" lon="5.70886">
        <ele>771.64</ele>
        <time>2019-11-01T11:54:08Z</time>
      </trkpt>
      <trkpt lat="44.86112" lon="5.70881">
        <ele>772.36</ele>
        <time>2019-11-01T11:54:10Z</time>
      </trkpt>
      <trkpt lat="44.86111" lon="5.70878">
        <ele>772.85</ele>
        <time>2019-11-01T11:54:12Z</time>
      </trkpt>
      <trkpt lat="44.86108" lon="5.70873">
        <ele>772.76</ele>
        <time>2019-11-01T11:54:24Z</time>
      </trkpt>
      <trkpt lat="44.86106" lon="5.7087">
        <ele>772.75</ele>
        <time>2019-11-01T11:54:26Z</time>
      </trkpt>
      <trkpt lat="44.86103" lon="5.70865">
        <ele>772.38</ele>
        <time>2019-11-01T11:54:28Z</time>
      </trkpt>
      <trkpt lat="44.86101" lon="5.70863">
        <ele>772.22</ele>
        <time>2019-11-01T11:54:29Z</time>
      </trkpt>
      <trkpt lat="44.86098" lon="5.70862">
        <ele>771.96</ele>
        <time>2019-11-01T11:54:30Z</time>
      </trkpt>
      <trkpt lat="44.86094" lon="5.70861">
        <ele>771.88</ele>
        <time>2019-11-01T11:54:31Z</time>
      </trkpt>
      <trkpt lat="44.8609" lon="5.7086">
        <ele>771.72</ele>
        <time>2019-11-01T11:54:32Z</time>
      </trkpt>
      <trkpt lat="44.86084" lon="5.7086">
        <ele>771.46</ele>
        <time>2019-11-01T11:54:33Z</time>
      </trkpt>
      <trkpt lat="44.86078" lon="5.70861">
        <ele>771.1</ele>
        <time>2019-11-01T11:54:34Z</time>
      </trkpt>
      <trkpt lat="44.86072" lon="5.7086">
        <ele>770.71</ele>
        <time>2019-11-01T11:54:35Z</time>
      </trkpt>
      <trkpt lat="44.86065" lon="5.70859">
        <ele>770.39</ele>
        <time>2019-11-01T11:54:36Z</time>
      </trkpt>
      <trkpt lat="44.86058" lon="5.70858">
        <ele>769.87</ele>
        <time>2019-11-01T11:54:37Z</time>
      </trkpt>
      <trkpt lat="44.8605" lon="5.70857">
        <ele>769.37</ele>
        <time>2019-11-01T11:54:38Z</time>
      </trkpt>
      <trkpt lat="44.86043" lon="5.70857">
        <ele>768.79</ele>
        <time>2019-11-01T11:54:39Z</time>
      </trkpt>
      <trkpt lat="44.86035" lon="5.70855">
        <ele>768.48</ele>
        <time>2019-11-01T11:54:40Z</time>
      </trkpt>
      <trkpt lat="44.86027" lon="5.70853">
        <ele>768.11</ele>
        <time>2019-11-01T11:54:41Z</time>
      </trkpt>
      <trkpt lat="44.8602" lon="5.7085">
        <ele>767.86</ele>
        <time>2019-11-01T11:54:42Z</time>
      </trkpt>
      <trkpt lat="44.86012" lon="5.70846">
        <ele>767.43</ele>
        <time>2019-11-01T11:54:43Z</time>
      </trkpt>
      <trkpt lat="44.86005" lon="5.70843">
        <ele>766.95</ele>
        <time>2019-11-01T11:54:44Z</time>
      </trkpt>
      <trkpt lat="44.85997" lon="5.7084">
        <ele>766.39</ele>
        <time>2019-11-01T11:54:45Z</time>
      </trkpt>
      <trkpt lat="44.85991" lon="5.70836">
        <ele>765.87</ele>
        <time>2019-11-01T11:54:46Z</time>
      </trkpt>
      <trkpt lat="44.85984" lon="5.70833">
        <ele>765.44</ele>
        <time>2019-11-01T11:54:47Z</time>
      </trkpt>
      <trkpt lat="44.85977" lon="5.70829">
        <ele>765.1</ele>
        <time>2019-11-01T11:54:48Z</time>
      </trkpt>
      <trkpt lat="44.85971" lon="5.70827">
        <ele>764.71</ele>
        <time>2019-11-01T11:54:49Z</time>
      </trkpt>
      <trkpt lat="44.85965" lon="5.70824">
        <ele>764.18</ele>
        <time>2019-11-01T11:54:50Z</time>
      </trkpt>
      <trkpt lat="44.85959" lon="5.70821">
        <ele>763.74</ele>
        <time>2019-11-01T11:54:51Z</time>
      </trkpt>
      <trkpt lat="44.85952" lon="5.70818">
        <ele>763.26</ele>
        <time>2019-11-01T11:54:52Z</time>
      </trkpt>
      <trkpt lat="44.85946" lon="5.70817">
        <ele>762.69</ele>
        <time>2019-11-01T11:54:53Z</time>
      </trkpt>
      <trkpt lat="44.85938" lon="5.70815">
        <ele>761.82</ele>
        <time>2019-11-01T11:54:54Z</time>
      </trkpt>
      <trkpt lat="44.85931" lon="5.70812">
        <ele>760.79</ele>
        <time>2019-11-01T11:54:55Z</time>
      </trkpt>
      <trkpt lat="44.85925" lon="5.7081">
        <ele>759.85</ele>
        <time>2019-11-01T11:54:56Z</time>
      </trkpt>
      <trkpt lat="44.85919" lon="5.70809">
        <ele>758.94</ele>
        <time>2019-11-01T11:54:57Z</time>
      </trkpt>
      <trkpt lat="44.85913" lon="5.70807">
        <ele>758.18</ele>
        <time>2019-11-01T11:54:58Z</time>
      </trkpt>
      <trkpt lat="44.85907" lon="5.70806">
        <ele>757.25</ele>
        <time>2019-11-01T11:54:59Z</time>
      </trkpt>
      <trkpt lat="44.85902" lon="5.70804">
        <ele>756.34</ele>
        <time>2019-11-01T11:55:00Z</time>
      </trkpt>
      <trkpt lat="44.85897" lon="5.70802">
        <ele>755.3</ele>
        <time>2019-11-01T11:55:01Z</time>
      </trkpt>
      <trkpt lat="44.85893" lon="5.70801">
        <ele>754.28</ele>
        <time>2019-11-01T11:55:02Z</time>
      </trkpt>
      <trkpt lat="44.85888" lon="5.70799">
        <ele>753.35</ele>
        <time>2019-11-01T11:55:03Z</time>
      </trkpt>
      <trkpt lat="44.85884" lon="5.70798">
        <ele>752.93</ele>
        <time>2019-11-01T11:55:04Z</time>
      </trkpt>
      <trkpt lat="44.8588" lon="5.70798">
        <ele>752.59</ele>
        <time>2019-11-01T11:55:05Z</time>
      </trkpt>
      <trkpt lat="44.85876" lon="5.70796">
        <ele>752.21</ele>
        <time>2019-11-01T11:55:06Z</time>
      </trkpt>
      <trkpt lat="44.85875" lon="5.70792">
        <ele>751.4</ele>
        <time>2019-11-01T11:55:07Z</time>
      </trkpt>
      <trkpt lat="44.85874" lon="5.70786">
        <ele>750.31</ele>
        <time>2019-11-01T11:55:08Z</time>
      </trkpt>
      <trkpt lat="44.85874" lon="5.70781">
        <ele>749.08</ele>
        <time>2019-11-01T11:55:09Z</time>
      </trkpt>
      <trkpt lat="44.85876" lon="5.70777">
        <ele>747.87</ele>
        <time>2019-11-01T11:55:10Z</time>
      </trkpt>
      <trkpt lat="44.85877" lon="5.70775">
        <ele>746.73</ele>
        <time>2019-11-01T11:55:11Z</time>
      </trkpt>
      <trkpt lat="44.8588" lon="5.70774">
        <ele>745.34</ele>
        <time>2019-11-01T11:55:12Z</time>
      </trkpt>
      <trkpt lat="44.85881" lon="5.70773">
        <ele>743.74</ele>
        <time>2019-11-01T11:55:13Z</time>
      </trkpt>
      <trkpt lat="44.85884" lon="5.70773">
        <ele>742.35</ele>
        <time>2019-11-01T11:55:14Z</time>
      </trkpt>
      <trkpt lat="44.85887" lon="5.70772">
        <ele>741.37</ele>
        <time>2019-11-01T11:55:15Z</time>
      </trkpt>
      <trkpt lat="44.8589" lon="5.7077">
        <ele>740.51</ele>
        <time>2019-11-01T11:55:16Z</time>
      </trkpt>
      <trkpt lat="44.85893" lon="5.70767">
        <ele>739.77</ele>
        <time>2019-11-01T11:55:17Z</time>
      </trkpt>
      <trkpt lat="44.85896" lon="5.70765">
        <ele>739.12</ele>
        <time>2019-11-01T11:55:18Z</time>
      </trkpt>
      <trkpt lat="44.85899" lon="5.70762">
        <ele>738.58</ele>
        <time>2019-11-01T11:55:19Z</time>
      </trkpt>
      <trkpt lat="44.85903" lon="5.70758">
        <ele>738</ele>
        <time>2019-11-01T11:55:20Z</time>
      </trkpt>
      <trkpt lat="44.85906" lon="5.70755">
        <ele>736.98</ele>
        <time>2019-11-01T11:55:21Z</time>
      </trkpt>
      <trkpt lat="44.85908" lon="5.70752">
        <ele>736.12</ele>
        <time>2019-11-01T11:55:22Z</time>
      </trkpt>
      <trkpt lat="44.8591" lon="5.7075">
        <ele>735.3</ele>
        <time>2019-11-01T11:55:23Z</time>
      </trkpt>
      <trkpt lat="44.85913" lon="5.70749">
        <ele>734.11</ele>
        <time>2019-11-01T11:55:25Z</time>
      </trkpt>
      <trkpt lat="44.85916" lon="5.70747">
        <ele>733.88</ele>
        <time>2019-11-01T11:55:55Z</time>
      </trkpt>
      <trkpt lat="44.85919" lon="5.70745">
        <ele>734.35</ele>
        <time>2019-11-01T11:55:56Z</time>
      </trkpt>
      <trkpt lat="44.85921" lon="5.70744">
        <ele>734.56</ele>
        <time>2019-11-01T11:55:57Z</time>
      </trkpt>
      <trkpt lat="44.85924" lon="5.70744">
        <ele>734.71</ele>
        <time>2019-11-01T11:55:59Z</time>
      </trkpt>
      <trkpt lat="44.85926" lon="5.70745">
        <ele>734.98</ele>
        <time>2019-11-01T11:56:01Z</time>
      </trkpt>
      <trkpt lat="44.85927" lon="5.70747">
        <ele>735.41</ele>
        <time>2019-11-01T11:56:03Z</time>
      </trkpt>
      <trkpt lat="44.8593" lon="5.7075">
        <ele>736.16</ele>
        <time>2019-11-01T11:56:05Z</time>
      </trkpt>
      <trkpt lat="44.85932" lon="5.70752">
        <ele>736.88</ele>
        <time>2019-11-01T11:56:07Z</time>
      </trkpt>
      <trkpt lat="44.85934" lon="5.70754">
        <ele>737.28</ele>
        <time>2019-11-01T11:56:08Z</time>
      </trkpt>
      <trkpt lat="44.85936" lon="5.70755">
        <ele>737.61</ele>
        <time>2019-11-01T11:56:09Z</time>
      </trkpt>
      <trkpt lat="44.85938" lon="5.70756">
        <ele>737.99</ele>
        <time>2019-11-01T11:56:10Z</time>
      </trkpt>
      <trkpt lat="44.8594" lon="5.70756">
        <ele>738.24</ele>
        <time>2019-11-01T11:56:11Z</time>
      </trkpt>
      <trkpt lat="44.85943" lon="5.70756">
        <ele>738.53</ele>
        <time>2019-11-01T11:56:12Z</time>
      </trkpt>
      <trkpt lat="44.85946" lon="5.70756">
        <ele>738.68</ele>
        <time>2019-11-01T11:56:13Z</time>
      </trkpt>
      <trkpt lat="44.85949" lon="5.70755">
        <ele>738.66</ele>
        <time>2019-11-01T11:56:14Z</time>
      </trkpt>
      <trkpt lat="44.85952" lon="5.70754">
        <ele>738.72</ele>
        <time>2019-11-01T11:56:15Z</time>
      </trkpt>
      <trkpt lat="44.85954" lon="5.70754">
        <ele>738.6</ele>
        <time>2019-11-01T11:56:16Z</time>
      </trkpt>
      <trkpt lat="44.85956" lon="5.70753">
        <ele>738.42</ele>
        <time>2019-11-01T11:56:17Z</time>
      </trkpt>
      <trkpt lat="44.85959" lon="5.70753">
        <ele>738.09</ele>
        <time>2019-11-01T11:56:18Z</time>
      </trkpt>
      <trkpt lat="44.85963" lon="5.70753">
        <ele>737.99</ele>
        <time>2019-11-01T11:56:19Z</time>
      </trkpt>
      <trkpt lat="44.85967" lon="5.70754">
        <ele>737.68</ele>
        <time>2019-11-01T11:56:20Z</time>
      </trkpt>
      <trkpt lat="44.8597" lon="5.70754">
        <ele>737.31</ele>
        <time>2019-11-01T11:56:21Z</time>
      </trkpt>
      <trkpt lat="44.85973" lon="5.70754">
        <ele>737.06</ele>
        <time>2019-11-01T11:56:22Z</time>
      </trkpt>
      <trkpt lat="44.85977" lon="5.70754">
        <ele>736.91</ele>
        <time>2019-11-01T11:56:23Z</time>
      </trkpt>
      <trkpt lat="44.8598" lon="5.70755">
        <ele>737.08</ele>
        <time>2019-11-01T11:56:24Z</time>
      </trkpt>
      <trkpt lat="44.85984" lon="5.70755">
        <ele>737.27</ele>
        <time>2019-11-01T11:56:25Z</time>
      </trkpt>
      <trkpt lat="44.85987" lon="5.70756">
        <ele>737.6</ele>
        <time>2019-11-01T11:56:26Z</time>
      </trkpt>
      <trkpt lat="44.85991" lon="5.70757">
        <ele>737.99</ele>
        <time>2019-11-01T11:56:27Z</time>
      </trkpt>
      <trkpt lat="44.85994" lon="5.70757">
        <ele>738.66</ele>
        <time>2019-11-01T11:56:28Z</time>
      </trkpt>
      <trkpt lat="44.85998" lon="5.70758">
        <ele>739.56</ele>
        <time>2019-11-01T11:56:29Z</time>
      </trkpt>
      <trkpt lat="44.86001" lon="5.70758">
        <ele>740.6</ele>
        <time>2019-11-01T11:56:30Z</time>
      </trkpt>
      <trkpt lat="44.86005" lon="5.70758">
        <ele>741.34</ele>
        <time>2019-11-01T11:56:31Z</time>
      </trkpt>
      <trkpt lat="44.86008" lon="5.70758">
        <ele>742.11</ele>
        <time>2019-11-01T11:56:32Z</time>
      </trkpt>
      <trkpt lat="44.86011" lon="5.70758">
        <ele>742.63</ele>
        <time>2019-11-01T11:56:33Z</time>
      </trkpt>
      <trkpt lat="44.86014" lon="5.70758">
        <ele>742.85</ele>
        <time>2019-11-01T11:56:34Z</time>
      </trkpt>
      <trkpt lat="44.86018" lon="5.70759">
        <ele>743.13</ele>
        <time>2019-11-01T11:56:35Z</time>
      </trkpt>
      <trkpt lat="44.86021" lon="5.70759">
        <ele>743.49</ele>
        <time>2019-11-01T11:56:36Z</time>
      </trkpt>
      <trkpt lat="44.86024" lon="5.70759">
        <ele>743.46</ele>
        <time>2019-11-01T11:56:37Z</time>
      </trkpt>
      <trkpt lat="44.86027" lon="5.70759">
        <ele>743.52</ele>
        <time>2019-11-01T11:56:38Z</time>
      </trkpt>
      <trkpt lat="44.86029" lon="5.7076">
        <ele>743.19</ele>
        <time>2019-11-01T11:56:39Z</time>
      </trkpt>
      <trkpt lat="44.86031" lon="5.7076">
        <ele>742.81</ele>
        <time>2019-11-01T11:56:40Z</time>
      </trkpt>
      <trkpt lat="44.86033" lon="5.7076">
        <ele>742.56</ele>
        <time>2019-11-01T11:56:41Z</time>
      </trkpt>
      <trkpt lat="44.86035" lon="5.70761">
        <ele>742.55</ele>
        <time>2019-11-01T11:56:42Z</time>
      </trkpt>
      <trkpt lat="44.86038" lon="5.70761">
        <ele>742.55</ele>
        <time>2019-11-01T11:56:43Z</time>
      </trkpt>
      <trkpt lat="44.86042" lon="5.70762">
        <ele>742.41</ele>
        <time>2019-11-01T11:56:44Z</time>
      </trkpt>
      <trkpt lat="44.86045" lon="5.70762">
        <ele>742.23</ele>
        <time>2019-11-01T11:56:45Z</time>
      </trkpt>
      <trkpt lat="44.86049" lon="5.70762">
        <ele>742.03</ele>
        <time>2019-11-01T11:56:46Z</time>
      </trkpt>
      <trkpt lat="44.86052" lon="5.70762">
        <ele>741.97</ele>
        <time>2019-11-01T11:56:47Z</time>
      </trkpt>
      <trkpt lat="44.86055" lon="5.70763">
        <ele>741.96</ele>
        <time>2019-11-01T11:56:48Z</time>
      </trkpt>
      <trkpt lat="44.8606" lon="5.70763">
        <ele>741.67</ele>
        <time>2019-11-01T11:56:49Z</time>
      </trkpt>
      <trkpt lat="44.86062" lon="5.70764">
        <ele>741.59</ele>
        <time>2019-11-01T11:56:50Z</time>
      </trkpt>
      <trkpt lat="44.86066" lon="5.70764">
        <ele>741.63</ele>
        <time>2019-11-01T11:56:51Z</time>
      </trkpt>
      <trkpt lat="44.86069" lon="5.70765">
        <ele>741.64</ele>
        <time>2019-11-01T11:56:52Z</time>
      </trkpt>
      <trkpt lat="44.86072" lon="5.70766">
        <ele>741.51</ele>
        <time>2019-11-01T11:56:53Z</time>
      </trkpt>
      <trkpt lat="44.86075" lon="5.70767">
        <ele>741.4</ele>
        <time>2019-11-01T11:56:54Z</time>
      </trkpt>
      <trkpt lat="44.86078" lon="5.70768">
        <ele>741.36</ele>
        <time>2019-11-01T11:56:55Z</time>
      </trkpt>
      <trkpt lat="44.86081" lon="5.70767">
        <ele>741.42</ele>
        <time>2019-11-01T11:56:56Z</time>
      </trkpt>
      <trkpt lat="44.86083" lon="5.70767">
        <ele>741.58</ele>
        <time>2019-11-01T11:56:57Z</time>
      </trkpt>
      <trkpt lat="44.86085" lon="5.70767">
        <ele>741.7</ele>
        <time>2019-11-01T11:56:58Z</time>
      </trkpt>
      <trkpt lat="44.86088" lon="5.70768">
        <ele>741.59</ele>
        <time>2019-11-01T11:56:59Z</time>
      </trkpt>
      <trkpt lat="44.86091" lon="5.70769">
        <ele>741.14</ele>
        <time>2019-11-01T11:57:00Z</time>
      </trkpt>
      <trkpt lat="44.86095" lon="5.70768">
        <ele>741.01</ele>
        <time>2019-11-01T11:57:01Z</time>
      </trkpt>
      <trkpt lat="44.86098" lon="5.70767">
        <ele>740.97</ele>
        <time>2019-11-01T11:57:02Z</time>
      </trkpt>
      <trkpt lat="44.86101" lon="5.70766">
        <ele>740.67</ele>
        <time>2019-11-01T11:57:03Z</time>
      </trkpt>
      <trkpt lat="44.86104" lon="5.70766">
        <ele>740.03</ele>
        <time>2019-11-01T11:57:04Z</time>
      </trkpt>
      <trkpt lat="44.86106" lon="5.70764">
        <ele>739.83</ele>
        <time>2019-11-01T11:57:05Z</time>
      </trkpt>
      <trkpt lat="44.86109" lon="5.70764">
        <ele>740.12</ele>
        <time>2019-11-01T11:57:06Z</time>
      </trkpt>
      <trkpt lat="44.86112" lon="5.70764">
        <ele>740.7</ele>
        <time>2019-11-01T11:57:07Z</time>
      </trkpt>
      <trkpt lat="44.86115" lon="5.70763">
        <ele>741.08</ele>
        <time>2019-11-01T11:57:08Z</time>
      </trkpt>
      <trkpt lat="44.86118" lon="5.70763">
        <ele>741.83</ele>
        <time>2019-11-01T11:57:09Z</time>
      </trkpt>
      <trkpt lat="44.86121" lon="5.70762">
        <ele>742.19</ele>
        <time>2019-11-01T11:57:10Z</time>
      </trkpt>
      <trkpt lat="44.86125" lon="5.70762">
        <ele>743.07</ele>
        <time>2019-11-01T11:57:11Z</time>
      </trkpt>
      <trkpt lat="44.86128" lon="5.70762">
        <ele>743.55</ele>
        <time>2019-11-01T11:57:12Z</time>
      </trkpt>
      <trkpt lat="44.86131" lon="5.70761">
        <ele>743.62</ele>
        <time>2019-11-01T11:57:13Z</time>
      </trkpt>
      <trkpt lat="44.86134" lon="5.7076">
        <ele>744.06</ele>
        <time>2019-11-01T11:57:14Z</time>
      </trkpt>
      <trkpt lat="44.86138" lon="5.7076">
        <ele>744.4</ele>
        <time>2019-11-01T11:57:15Z</time>
      </trkpt>
      <trkpt lat="44.86142" lon="5.70759">
        <ele>744.29</ele>
        <time>2019-11-01T11:57:16Z</time>
      </trkpt>
      <trkpt lat="44.86146" lon="5.70759">
        <ele>744.33</ele>
        <time>2019-11-01T11:57:17Z</time>
      </trkpt>
      <trkpt lat="44.86149" lon="5.70759">
        <ele>744.34</ele>
        <time>2019-11-01T11:57:18Z</time>
      </trkpt>
      <trkpt lat="44.86152" lon="5.70759">
        <ele>744.07</ele>
        <time>2019-11-01T11:57:19Z</time>
      </trkpt>
      <trkpt lat="44.86155" lon="5.70758">
        <ele>743.56</ele>
        <time>2019-11-01T11:57:20Z</time>
      </trkpt>
      <trkpt lat="44.86157" lon="5.70758">
        <ele>743.27</ele>
        <time>2019-11-01T11:57:21Z</time>
      </trkpt>
      <trkpt lat="44.8616" lon="5.70758">
        <ele>743.26</ele>
        <time>2019-11-01T11:57:22Z</time>
      </trkpt>
      <trkpt lat="44.86163" lon="5.70758">
        <ele>743.32</ele>
        <time>2019-11-01T11:57:23Z</time>
      </trkpt>
      <trkpt lat="44.86166" lon="5.70758">
        <ele>743.48</ele>
        <time>2019-11-01T11:57:24Z</time>
      </trkpt>
      <trkpt lat="44.86169" lon="5.70758">
        <ele>743.6</ele>
        <time>2019-11-01T11:57:25Z</time>
      </trkpt>
      <trkpt lat="44.86172" lon="5.70757">
        <ele>743.63</ele>
        <time>2019-11-01T11:57:26Z</time>
      </trkpt>
      <trkpt lat="44.86175" lon="5.70757">
        <ele>743.71</ele>
        <time>2019-11-01T11:57:27Z</time>
      </trkpt>
      <trkpt lat="44.86179" lon="5.70757">
        <ele>743.81</ele>
        <time>2019-11-01T11:57:28Z</time>
      </trkpt>
      <trkpt lat="44.86182" lon="5.70759">
        <ele>743.56</ele>
        <time>2019-11-01T11:57:29Z</time>
      </trkpt>
      <trkpt lat="44.86185" lon="5.70762">
        <ele>743.06</ele>
        <time>2019-11-01T11:57:30Z</time>
      </trkpt>
      <trkpt lat="44.86187" lon="5.70764">
        <ele>742.84</ele>
        <time>2019-11-01T11:57:31Z</time>
      </trkpt>
      <trkpt lat="44.86189" lon="5.70766">
        <ele>742.5</ele>
        <time>2019-11-01T11:57:32Z</time>
      </trkpt>
      <trkpt lat="44.86192" lon="5.70768">
        <ele>742.25</ele>
        <time>2019-11-01T11:57:33Z</time>
      </trkpt>
      <trkpt lat="44.86193" lon="5.7077">
        <ele>742.32</ele>
        <time>2019-11-01T11:57:34Z</time>
      </trkpt>
      <trkpt lat="44.86195" lon="5.70772">
        <ele>742.48</ele>
        <time>2019-11-01T11:57:35Z</time>
      </trkpt>
      <trkpt lat="44.86196" lon="5.70774">
        <ele>742.53</ele>
        <time>2019-11-01T11:57:36Z</time>
      </trkpt>
      <trkpt lat="44.86199" lon="5.70777">
        <ele>741.84</ele>
        <time>2019-11-01T11:57:37Z</time>
      </trkpt>
      <trkpt lat="44.86201" lon="5.70779">
        <ele>741.57</ele>
        <time>2019-11-01T11:57:38Z</time>
      </trkpt>
      <trkpt lat="44.86203" lon="5.70782">
        <ele>741.27</ele>
        <time>2019-11-01T11:57:39Z</time>
      </trkpt>
      <trkpt lat="44.86204" lon="5.70786">
        <ele>740.35</ele>
        <time>2019-11-01T11:57:40Z</time>
      </trkpt>
      <trkpt lat="44.86204" lon="5.70791">
        <ele>738.95</ele>
        <time>2019-11-01T11:57:41Z</time>
      </trkpt>
      <trkpt lat="44.86204" lon="5.70795">
        <ele>737.9</ele>
        <time>2019-11-01T11:57:42Z</time>
      </trkpt>
      <trkpt lat="44.86204" lon="5.70798">
        <ele>737.09</ele>
        <time>2019-11-01T11:57:43Z</time>
      </trkpt>
      <trkpt lat="44.86203" lon="5.70802">
        <ele>736.57</ele>
        <time>2019-11-01T11:57:44Z</time>
      </trkpt>
      <trkpt lat="44.86204" lon="5.70806">
        <ele>735.79</ele>
        <time>2019-11-01T11:57:45Z</time>
      </trkpt>
      <trkpt lat="44.86203" lon="5.70809">
        <ele>735.13</ele>
        <time>2019-11-01T11:57:46Z</time>
      </trkpt>
      <trkpt lat="44.86204" lon="5.70813">
        <ele>734.58</ele>
        <time>2019-11-01T11:57:47Z</time>
      </trkpt>
      <trkpt lat="44.86203" lon="5.70816">
        <ele>734.14</ele>
        <time>2019-11-01T11:57:48Z</time>
      </trkpt>
      <trkpt lat="44.86203" lon="5.70821">
        <ele>733.87</ele>
        <time>2019-11-01T11:57:49Z</time>
      </trkpt>
      <trkpt lat="44.86203" lon="5.70824">
        <ele>733.22</ele>
        <time>2019-11-01T11:57:50Z</time>
      </trkpt>
      <trkpt lat="44.86203" lon="5.70828">
        <ele>732.75</ele>
        <time>2019-11-01T11:57:51Z</time>
      </trkpt>
      <trkpt lat="44.86203" lon="5.70831">
        <ele>732.33</ele>
        <time>2019-11-01T11:57:52Z</time>
      </trkpt>
      <trkpt lat="44.86202" lon="5.70834">
        <ele>731.99</ele>
        <time>2019-11-01T11:57:53Z</time>
      </trkpt>
      <trkpt lat="44.86201" lon="5.70836">
        <ele>731.47</ele>
        <time>2019-11-01T11:57:54Z</time>
      </trkpt>
      <trkpt lat="44.862" lon="5.7084">
        <ele>730.97</ele>
        <time>2019-11-01T11:57:55Z</time>
      </trkpt>
      <trkpt lat="44.862" lon="5.70844">
        <ele>730.74</ele>
        <time>2019-11-01T11:57:56Z</time>
      </trkpt>
      <trkpt lat="44.86199" lon="5.70848">
        <ele>730.96</ele>
        <time>2019-11-01T11:57:57Z</time>
      </trkpt>
      <trkpt lat="44.86197" lon="5.70852">
        <ele>730.81</ele>
        <time>2019-11-01T11:57:58Z</time>
      </trkpt>
      <trkpt lat="44.86196" lon="5.70857">
        <ele>731.05</ele>
        <time>2019-11-01T11:57:59Z</time>
      </trkpt>
      <trkpt lat="44.86196" lon="5.70861">
        <ele>731.54</ele>
        <time>2019-11-01T11:58:00Z</time>
      </trkpt>
      <trkpt lat="44.86195" lon="5.70865">
        <ele>731.9</ele>
        <time>2019-11-01T11:58:01Z</time>
      </trkpt>
      <trkpt lat="44.86193" lon="5.70871">
        <ele>732.42</ele>
        <time>2019-11-01T11:58:02Z</time>
      </trkpt>
      <trkpt lat="44.86191" lon="5.70875">
        <ele>732.51</ele>
        <time>2019-11-01T11:58:03Z</time>
      </trkpt>
      <trkpt lat="44.86189" lon="5.70878">
        <ele>732.26</ele>
        <time>2019-11-01T11:58:04Z</time>
      </trkpt>
      <trkpt lat="44.86187" lon="5.70882">
        <ele>732.04</ele>
        <time>2019-11-01T11:58:05Z</time>
      </trkpt>
      <trkpt lat="44.86185" lon="5.70886">
        <ele>731.63</ele>
        <time>2019-11-01T11:58:06Z</time>
      </trkpt>
      <trkpt lat="44.86184" lon="5.70891">
        <ele>731.08</ele>
        <time>2019-11-01T11:58:07Z</time>
      </trkpt>
      <trkpt lat="44.86184" lon="5.70896">
        <ele>730.99</ele>
        <time>2019-11-01T11:58:08Z</time>
      </trkpt>
      <trkpt lat="44.86185" lon="5.70902">
        <ele>730.82</ele>
        <time>2019-11-01T11:58:09Z</time>
      </trkpt>
      <trkpt lat="44.86184" lon="5.70906">
        <ele>730.07</ele>
        <time>2019-11-01T11:58:10Z</time>
      </trkpt>
      <trkpt lat="44.86182" lon="5.70911">
        <ele>729.29</ele>
        <time>2019-11-01T11:58:11Z</time>
      </trkpt>
      <trkpt lat="44.86181" lon="5.70916">
        <ele>728.98</ele>
        <time>2019-11-01T11:58:12Z</time>
      </trkpt>
      <trkpt lat="44.8618" lon="5.70921">
        <ele>728.26</ele>
        <time>2019-11-01T11:58:13Z</time>
      </trkpt>
      <trkpt lat="44.86178" lon="5.70926">
        <ele>727.55</ele>
        <time>2019-11-01T11:58:14Z</time>
      </trkpt>
      <trkpt lat="44.86176" lon="5.70931">
        <ele>727.13</ele>
        <time>2019-11-01T11:58:15Z</time>
      </trkpt>
      <trkpt lat="44.86175" lon="5.70935">
        <ele>726.79</ele>
        <time>2019-11-01T11:58:16Z</time>
      </trkpt>
      <trkpt lat="44.86173" lon="5.70941">
        <ele>726.41</ele>
        <time>2019-11-01T11:58:17Z</time>
      </trkpt>
      <trkpt lat="44.86172" lon="5.70946">
        <ele>726.16</ele>
        <time>2019-11-01T11:58:18Z</time>
      </trkpt>
      <trkpt lat="44.86171" lon="5.70952">
        <ele>725.87</ele>
        <time>2019-11-01T11:58:19Z</time>
      </trkpt>
      <trkpt lat="44.86169" lon="5.70957">
        <ele>725.65</ele>
        <time>2019-11-01T11:58:20Z</time>
      </trkpt>
      <trkpt lat="44.86167" lon="5.70961">
        <ele>725.3</ele>
        <time>2019-11-01T11:58:21Z</time>
      </trkpt>
      <trkpt lat="44.86165" lon="5.70966">
        <ele>724.77</ele>
        <time>2019-11-01T11:58:22Z</time>
      </trkpt>
      <trkpt lat="44.86164" lon="5.7097">
        <ele>724.34</ele>
        <time>2019-11-01T11:58:23Z</time>
      </trkpt>
      <trkpt lat="44.86163" lon="5.70973">
        <ele>724.07</ele>
        <time>2019-11-01T11:58:24Z</time>
      </trkpt>
      <trkpt lat="44.86162" lon="5.70977">
        <ele>723.91</ele>
        <time>2019-11-01T11:58:25Z</time>
      </trkpt>
      <trkpt lat="44.86162" lon="5.7098">
        <ele>723.8</ele>
        <time>2019-11-01T11:58:26Z</time>
      </trkpt>
      <trkpt lat="44.8616" lon="5.70983">
        <ele>723.97</ele>
        <time>2019-11-01T11:58:27Z</time>
      </trkpt>
      <trkpt lat="44.86158" lon="5.70986">
        <ele>723.96</ele>
        <time>2019-11-01T11:58:28Z</time>
      </trkpt>
      <trkpt lat="44.86157" lon="5.70989">
        <ele>723.74</ele>
        <time>2019-11-01T11:58:29Z</time>
      </trkpt>
      <trkpt lat="44.86155" lon="5.70992">
        <ele>723.75</ele>
        <time>2019-11-01T11:58:30Z</time>
      </trkpt>
      <trkpt lat="44.86152" lon="5.70994">
        <ele>723.47</ele>
        <time>2019-11-01T11:58:31Z</time>
      </trkpt>
      <trkpt lat="44.8615" lon="5.70996">
        <ele>723.24</ele>
        <time>2019-11-01T11:58:32Z</time>
      </trkpt>
      <trkpt lat="44.86147" lon="5.70999">
        <ele>723.25</ele>
        <time>2019-11-01T11:58:33Z</time>
      </trkpt>
      <trkpt lat="44.86144" lon="5.71001">
        <ele>723.39</ele>
        <time>2019-11-01T11:58:34Z</time>
      </trkpt>
      <trkpt lat="44.86141" lon="5.71003">
        <ele>723.15</ele>
        <time>2019-11-01T11:58:35Z</time>
      </trkpt>
      <trkpt lat="44.8614" lon="5.71005">
        <ele>722.8</ele>
        <time>2019-11-01T11:58:36Z</time>
      </trkpt>
      <trkpt lat="44.86139" lon="5.71007">
        <ele>722.41</ele>
        <time>2019-11-01T11:58:37Z</time>
      </trkpt>
      <trkpt lat="44.86139" lon="5.7101">
        <ele>722.03</ele>
        <time>2019-11-01T11:58:39Z</time>
      </trkpt>
      <trkpt lat="44.86139" lon="5.71015">
        <ele>721.8</ele>
        <time>2019-11-01T11:58:41Z</time>
      </trkpt>
      <trkpt lat="44.86139" lon="5.71018">
        <ele>721.69</ele>
        <time>2019-11-01T11:58:42Z</time>
      </trkpt>
      <trkpt lat="44.86137" lon="5.71021">
        <ele>721.59</ele>
        <time>2019-11-01T11:58:43Z</time>
      </trkpt>
      <trkpt lat="44.86139" lon="5.71023">
        <ele>721.42</ele>
        <time>2019-11-01T11:58:44Z</time>
      </trkpt>
      <trkpt lat="44.86138" lon="5.71027">
        <ele>721.3</ele>
        <time>2019-11-01T11:58:45Z</time>
      </trkpt>
      <trkpt lat="44.86141" lon="5.71029">
        <ele>721.02</ele>
        <time>2019-11-01T11:58:47Z</time>
      </trkpt>
      <trkpt lat="44.86143" lon="5.71031">
        <ele>720.9</ele>
        <time>2019-11-01T11:58:48Z</time>
      </trkpt>
      <trkpt lat="44.86144" lon="5.71033">
        <ele>720.79</ele>
        <time>2019-11-01T11:58:49Z</time>
      </trkpt>
      <trkpt lat="44.86144" lon="5.71037">
        <ele>720.8</ele>
        <time>2019-11-01T11:58:51Z</time>
      </trkpt>
      <trkpt lat="44.86145" lon="5.71041">
        <ele>721.11</ele>
        <time>2019-11-01T11:58:52Z</time>
      </trkpt>
      <trkpt lat="44.86146" lon="5.71044">
        <ele>721.35</ele>
        <time>2019-11-01T11:58:53Z</time>
      </trkpt>
      <trkpt lat="44.86149" lon="5.71047">
        <ele>721.44</ele>
        <time>2019-11-01T11:58:55Z</time>
      </trkpt>
      <trkpt lat="44.86151" lon="5.7105">
        <ele>721.94</ele>
        <time>2019-11-01T11:58:56Z</time>
      </trkpt>
      <trkpt lat="44.86153" lon="5.71051">
        <ele>722.02</ele>
        <time>2019-11-01T11:58:57Z</time>
      </trkpt>
      <trkpt lat="44.86155" lon="5.71051">
        <ele>721.97</ele>
        <time>2019-11-01T11:58:58Z</time>
      </trkpt>
      <trkpt lat="44.86157" lon="5.71051">
        <ele>722.02</ele>
        <time>2019-11-01T11:58:59Z</time>
      </trkpt>
      <trkpt lat="44.8616" lon="5.71052">
        <ele>722.18</ele>
        <time>2019-11-01T11:59:00Z</time>
      </trkpt>
      <trkpt lat="44.86163" lon="5.71055">
        <ele>722.08</ele>
        <time>2019-11-01T11:59:02Z</time>
      </trkpt>
      <trkpt lat="44.86165" lon="5.71056">
        <ele>721.92</ele>
        <time>2019-11-01T11:59:03Z</time>
      </trkpt>
      <trkpt lat="44.86168" lon="5.71058">
        <ele>722.01</ele>
        <time>2019-11-01T11:59:04Z</time>
      </trkpt>
      <trkpt lat="44.8617" lon="5.7106">
        <ele>722.04</ele>
        <time>2019-11-01T11:59:05Z</time>
      </trkpt>
      <trkpt lat="44.86174" lon="5.71064">
        <ele>721.98</ele>
        <time>2019-11-01T11:59:07Z</time>
      </trkpt>
      <trkpt lat="44.86176" lon="5.71065">
        <ele>721.97</ele>
        <time>2019-11-01T11:59:09Z</time>
      </trkpt>
      <trkpt lat="44.8618" lon="5.71068">
        <ele>721.71</ele>
        <time>2019-11-01T11:59:13Z</time>
      </trkpt>
      <trkpt lat="44.86182" lon="5.71069">
        <ele>721.74</ele>
        <time>2019-11-01T11:59:14Z</time>
      </trkpt>
      <trkpt lat="44.86184" lon="5.7107">
        <ele>721.75</ele>
        <time>2019-11-01T11:59:15Z</time>
      </trkpt>
      <trkpt lat="44.86187" lon="5.71072">
        <ele>721.68</ele>
        <time>2019-11-01T11:59:16Z</time>
      </trkpt>
      <trkpt lat="44.8619" lon="5.71073">
        <ele>721.66</ele>
        <time>2019-11-01T11:59:17Z</time>
      </trkpt>
      <trkpt lat="44.86192" lon="5.71076">
        <ele>721.51</ele>
        <time>2019-11-01T11:59:18Z</time>
      </trkpt>
      <trkpt lat="44.86194" lon="5.71078">
        <ele>721.54</ele>
        <time>2019-11-01T11:59:19Z</time>
      </trkpt>
      <trkpt lat="44.86196" lon="5.7108">
        <ele>721.34</ele>
        <time>2019-11-01T11:59:20Z</time>
      </trkpt>
      <trkpt lat="44.862" lon="5.71084">
        <ele>721.48</ele>
        <time>2019-11-01T11:59:21Z</time>
      </trkpt>
      <trkpt lat="44.86202" lon="5.71087">
        <ele>721.04</ele>
        <time>2019-11-01T11:59:22Z</time>
      </trkpt>
      <trkpt lat="44.86203" lon="5.71091">
        <ele>720.98</ele>
        <time>2019-11-01T11:59:23Z</time>
      </trkpt>
      <trkpt lat="44.86204" lon="5.71095">
        <ele>721.31</ele>
        <time>2019-11-01T11:59:24Z</time>
      </trkpt>
      <trkpt lat="44.86205" lon="5.71098">
        <ele>721.55</ele>
        <time>2019-11-01T11:59:25Z</time>
      </trkpt>
      <trkpt lat="44.86205" lon="5.71102">
        <ele>722.04</ele>
        <time>2019-11-01T11:59:26Z</time>
      </trkpt>
      <trkpt lat="44.86206" lon="5.71105">
        <ele>722.4</ele>
        <time>2019-11-01T11:59:27Z</time>
      </trkpt>
      <trkpt lat="44.86206" lon="5.71109">
        <ele>722.78</ele>
        <time>2019-11-01T11:59:28Z</time>
      </trkpt>
      <trkpt lat="44.86208" lon="5.71112">
        <ele>722.83</ele>
        <time>2019-11-01T11:59:29Z</time>
      </trkpt>
      <trkpt lat="44.86211" lon="5.71114">
        <ele>723.05</ele>
        <time>2019-11-01T11:59:30Z</time>
      </trkpt>
      <trkpt lat="44.86214" lon="5.71116">
        <ele>723.33</ele>
        <time>2019-11-01T11:59:31Z</time>
      </trkpt>
      <trkpt lat="44.86217" lon="5.71118">
        <ele>723.27</ele>
        <time>2019-11-01T11:59:32Z</time>
      </trkpt>
      <trkpt lat="44.86219" lon="5.71119">
        <ele>723.33</ele>
        <time>2019-11-01T11:59:33Z</time>
      </trkpt>
      <trkpt lat="44.86222" lon="5.71122">
        <ele>723.48</ele>
        <time>2019-11-01T11:59:34Z</time>
      </trkpt>
      <trkpt lat="44.86226" lon="5.71124">
        <ele>723.18</ele>
        <time>2019-11-01T11:59:35Z</time>
      </trkpt>
      <trkpt lat="44.8623" lon="5.71126">
        <ele>723.65</ele>
        <time>2019-11-01T11:59:36Z</time>
      </trkpt>
      <trkpt lat="44.86234" lon="5.71126">
        <ele>723.72</ele>
        <time>2019-11-01T11:59:37Z</time>
      </trkpt>
      <trkpt lat="44.86237" lon="5.71127">
        <ele>723.32</ele>
        <time>2019-11-01T11:59:38Z</time>
      </trkpt>
      <trkpt lat="44.86238" lon="5.71127">
        <ele>723.2</ele>
        <time>2019-11-01T11:59:39Z</time>
      </trkpt>
      <trkpt lat="44.86247" lon="5.71133">
        <ele>722.39</ele>
        <time>2019-11-01T12:00:24Z</time>
      </trkpt>
      <trkpt lat="44.86249" lon="5.71134">
        <ele>722.22</ele>
        <time>2019-11-01T12:00:25Z</time>
      </trkpt>
      <trkpt lat="44.86251" lon="5.71134">
        <ele>722.1</ele>
        <time>2019-11-01T12:00:26Z</time>
      </trkpt>
      <trkpt lat="44.86253" lon="5.71136">
        <ele>722.06</ele>
        <time>2019-11-01T12:00:27Z</time>
      </trkpt>
      <trkpt lat="44.86255" lon="5.71137">
        <ele>721.98</ele>
        <time>2019-11-01T12:00:28Z</time>
      </trkpt>
      <trkpt lat="44.86257" lon="5.71138">
        <ele>721.96</ele>
        <time>2019-11-01T12:00:29Z</time>
      </trkpt>
      <trkpt lat="44.86259" lon="5.7114">
        <ele>721.81</ele>
        <time>2019-11-01T12:00:30Z</time>
      </trkpt>
      <trkpt lat="44.86263" lon="5.71141">
        <ele>721.63</ele>
        <time>2019-11-01T12:00:31Z</time>
      </trkpt>
      <trkpt lat="44.86265" lon="5.71142">
        <ele>721.5</ele>
        <time>2019-11-01T12:00:32Z</time>
      </trkpt>
      <trkpt lat="44.86268" lon="5.71144">
        <ele>721.47</ele>
        <time>2019-11-01T12:00:33Z</time>
      </trkpt>
      <trkpt lat="44.8627" lon="5.71146">
        <ele>721.59</ele>
        <time>2019-11-01T12:00:34Z</time>
      </trkpt>
      <trkpt lat="44.86271" lon="5.71149">
        <ele>721.42</ele>
        <time>2019-11-01T12:00:35Z</time>
      </trkpt>
      <trkpt lat="44.86273" lon="5.71151">
        <ele>721.58</ele>
        <time>2019-11-01T12:00:36Z</time>
      </trkpt>
      <trkpt lat="44.86274" lon="5.71154">
        <ele>721.49</ele>
        <time>2019-11-01T12:00:37Z</time>
      </trkpt>
      <trkpt lat="44.86277" lon="5.71157">
        <ele>721.84</ele>
        <time>2019-11-01T12:00:39Z</time>
      </trkpt>
      <trkpt lat="44.86279" lon="5.71157">
        <ele>722.13</ele>
        <time>2019-11-01T12:00:40Z</time>
      </trkpt>
      <trkpt lat="44.86281" lon="5.71158">
        <ele>722.14</ele>
        <time>2019-11-01T12:00:41Z</time>
      </trkpt>
      <trkpt lat="44.86284" lon="5.71157">
        <ele>722.01</ele>
        <time>2019-11-01T12:00:42Z</time>
      </trkpt>
      <trkpt lat="44.86287" lon="5.71156">
        <ele>721.83</ele>
        <time>2019-11-01T12:00:43Z</time>
      </trkpt>
      <trkpt lat="44.86289" lon="5.71155">
        <ele>721.63</ele>
        <time>2019-11-01T12:00:44Z</time>
      </trkpt>
      <trkpt lat="44.86293" lon="5.71153">
        <ele>721.64</ele>
        <time>2019-11-01T12:00:45Z</time>
      </trkpt>
      <trkpt lat="44.86296" lon="5.71152">
        <ele>721.86</ele>
        <time>2019-11-01T12:00:46Z</time>
      </trkpt>
      <trkpt lat="44.86298" lon="5.71151">
        <ele>722.13</ele>
        <time>2019-11-01T12:00:47Z</time>
      </trkpt>
      <trkpt lat="44.863" lon="5.71149">
        <ele>722.42</ele>
        <time>2019-11-01T12:00:48Z</time>
      </trkpt>
      <trkpt lat="44.86303" lon="5.71147">
        <ele>722.44</ele>
        <time>2019-11-01T12:00:49Z</time>
      </trkpt>
      <trkpt lat="44.86307" lon="5.71145">
        <ele>721.8</ele>
        <time>2019-11-01T12:00:51Z</time>
      </trkpt>
      <trkpt lat="44.86309" lon="5.71145">
        <ele>721.27</ele>
        <time>2019-11-01T12:00:52Z</time>
      </trkpt>
      <trkpt lat="44.86311" lon="5.71148">
        <ele>719.75</ele>
        <time>2019-11-01T12:00:55Z</time>
      </trkpt>
      <trkpt lat="44.86311" lon="5.7115">
        <ele>718.28</ele>
        <time>2019-11-01T12:00:57Z</time>
      </trkpt>
      <trkpt lat="44.86311" lon="5.71153">
        <ele>717.4</ele>
        <time>2019-11-01T12:00:59Z</time>
      </trkpt>
      <trkpt lat="44.86317" lon="5.71158">
        <ele>716.01</ele>
        <time>2019-11-01T12:01:50Z</time>
      </trkpt>
      <trkpt lat="44.8632" lon="5.71157">
        <ele>715.68</ele>
        <time>2019-11-01T12:01:52Z</time>
      </trkpt>
      <trkpt lat="44.86322" lon="5.71157">
        <ele>715.59</ele>
        <time>2019-11-01T12:01:53Z</time>
      </trkpt>
      <trkpt lat="44.86324" lon="5.71156">
        <ele>715.49</ele>
        <time>2019-11-01T12:01:54Z</time>
      </trkpt>
      <trkpt lat="44.86327" lon="5.71155">
        <ele>715.39</ele>
        <time>2019-11-01T12:01:55Z</time>
      </trkpt>
      <trkpt lat="44.86329" lon="5.71156">
        <ele>715.29</ele>
        <time>2019-11-01T12:01:56Z</time>
      </trkpt>
      <trkpt lat="44.86332" lon="5.71156">
        <ele>715.12</ele>
        <time>2019-11-01T12:01:57Z</time>
      </trkpt>
      <trkpt lat="44.86336" lon="5.71157">
        <ele>714.86</ele>
        <time>2019-11-01T12:01:58Z</time>
      </trkpt>
      <trkpt lat="44.8634" lon="5.71157">
        <ele>714.64</ele>
        <time>2019-11-01T12:01:59Z</time>
      </trkpt>
      <trkpt lat="44.86345" lon="5.71157">
        <ele>714.37</ele>
        <time>2019-11-01T12:02:00Z</time>
      </trkpt>
      <trkpt lat="44.86349" lon="5.71156">
        <ele>714.07</ele>
        <time>2019-11-01T12:02:01Z</time>
      </trkpt>
      <trkpt lat="44.86352" lon="5.71156">
        <ele>713.57</ele>
        <time>2019-11-01T12:02:02Z</time>
      </trkpt>
      <trkpt lat="44.86356" lon="5.71156">
        <ele>713.13</ele>
        <time>2019-11-01T12:02:03Z</time>
      </trkpt>
      <trkpt lat="44.86359" lon="5.71156">
        <ele>712.72</ele>
        <time>2019-11-01T12:02:04Z</time>
      </trkpt>
      <trkpt lat="44.86363" lon="5.71157">
        <ele>712.04</ele>
        <time>2019-11-01T12:02:05Z</time>
      </trkpt>
      <trkpt lat="44.86366" lon="5.71157">
        <ele>711.35</ele>
        <time>2019-11-01T12:02:06Z</time>
      </trkpt>
      <trkpt lat="44.8637" lon="5.71158">
        <ele>710.79</ele>
        <time>2019-11-01T12:02:07Z</time>
      </trkpt>
      <trkpt lat="44.86373" lon="5.71159">
        <ele>710.06</ele>
        <time>2019-11-01T12:02:08Z</time>
      </trkpt>
      <trkpt lat="44.86375" lon="5.7116">
        <ele>709.28</ele>
        <time>2019-11-01T12:02:09Z</time>
      </trkpt>
      <trkpt lat="44.8638" lon="5.71161">
        <ele>708.63</ele>
        <time>2019-11-01T12:02:10Z</time>
      </trkpt>
      <trkpt lat="44.86386" lon="5.71163">
        <ele>708.15</ele>
        <time>2019-11-01T12:02:11Z</time>
      </trkpt>
      <trkpt lat="44.86391" lon="5.71164">
        <ele>707.8</ele>
        <time>2019-11-01T12:02:12Z</time>
      </trkpt>
      <trkpt lat="44.86396" lon="5.71166">
        <ele>707.41</ele>
        <time>2019-11-01T12:02:13Z</time>
      </trkpt>
      <trkpt lat="44.864" lon="5.71168">
        <ele>707.02</ele>
        <time>2019-11-01T12:02:14Z</time>
      </trkpt>
      <trkpt lat="44.86404" lon="5.71171">
        <ele>706.62</ele>
        <time>2019-11-01T12:02:15Z</time>
      </trkpt>
      <trkpt lat="44.86409" lon="5.71174">
        <ele>706.22</ele>
        <time>2019-11-01T12:02:16Z</time>
      </trkpt>
      <trkpt lat="44.86413" lon="5.71176">
        <ele>705.89</ele>
        <time>2019-11-01T12:02:17Z</time>
      </trkpt>
      <trkpt lat="44.86418" lon="5.71178">
        <ele>705.51</ele>
        <time>2019-11-01T12:02:18Z</time>
      </trkpt>
      <trkpt lat="44.86424" lon="5.71181">
        <ele>705.19</ele>
        <time>2019-11-01T12:02:19Z</time>
      </trkpt>
      <trkpt lat="44.86429" lon="5.71185">
        <ele>704.81</ele>
        <time>2019-11-01T12:02:20Z</time>
      </trkpt>
      <trkpt lat="44.86433" lon="5.71189">
        <ele>704.42</ele>
        <time>2019-11-01T12:02:21Z</time>
      </trkpt>
      <trkpt lat="44.86437" lon="5.71194">
        <ele>704.09</ele>
        <time>2019-11-01T12:02:22Z</time>
      </trkpt>
      <trkpt lat="44.86441" lon="5.71199">
        <ele>703.71</ele>
        <time>2019-11-01T12:02:23Z</time>
      </trkpt>
      <trkpt lat="44.86445" lon="5.71203">
        <ele>703.32</ele>
        <time>2019-11-01T12:02:24Z</time>
      </trkpt>
      <trkpt lat="44.86449" lon="5.71207">
        <ele>702.92</ele>
        <time>2019-11-01T12:02:25Z</time>
      </trkpt>
      <trkpt lat="44.86454" lon="5.71211">
        <ele>702.52</ele>
        <time>2019-11-01T12:02:26Z</time>
      </trkpt>
      <trkpt lat="44.86459" lon="5.71216">
        <ele>702.12</ele>
        <time>2019-11-01T12:02:27Z</time>
      </trkpt>
      <trkpt lat="44.86464" lon="5.7122">
        <ele>701.72</ele>
        <time>2019-11-01T12:02:28Z</time>
      </trkpt>
      <trkpt lat="44.86469" lon="5.71223">
        <ele>701.32</ele>
        <time>2019-11-01T12:02:29Z</time>
      </trkpt>
      <trkpt lat="44.86474" lon="5.71226">
        <ele>700.92</ele>
        <time>2019-11-01T12:02:30Z</time>
      </trkpt>
      <trkpt lat="44.86477" lon="5.7123">
        <ele>700.31</ele>
        <time>2019-11-01T12:02:31Z</time>
      </trkpt>
      <trkpt lat="44.86481" lon="5.71233">
        <ele>699.71</ele>
        <time>2019-11-01T12:02:32Z</time>
      </trkpt>
      <trkpt lat="44.86486" lon="5.71236">
        <ele>699.18</ele>
        <time>2019-11-01T12:02:33Z</time>
      </trkpt>
      <trkpt lat="44.86492" lon="5.71239">
        <ele>698.53</ele>
        <time>2019-11-01T12:02:34Z</time>
      </trkpt>
      <trkpt lat="44.86496" lon="5.71242">
        <ele>697.98</ele>
        <time>2019-11-01T12:02:35Z</time>
      </trkpt>
      <trkpt lat="44.86502" lon="5.71245">
        <ele>697.47</ele>
        <time>2019-11-01T12:02:36Z</time>
      </trkpt>
      <trkpt lat="44.86508" lon="5.71247">
        <ele>696.9</ele>
        <time>2019-11-01T12:02:37Z</time>
      </trkpt>
      <trkpt lat="44.86514" lon="5.71251">
        <ele>696.09</ele>
        <time>2019-11-01T12:02:38Z</time>
      </trkpt>
      <trkpt lat="44.86522" lon="5.71253">
        <ele>694.8</ele>
        <time>2019-11-01T12:02:39Z</time>
      </trkpt>
      <trkpt lat="44.8653" lon="5.71252">
        <ele>692.8</ele>
        <time>2019-11-01T12:02:40Z</time>
      </trkpt>
      <trkpt lat="44.86537" lon="5.71251">
        <ele>690.6</ele>
        <time>2019-11-01T12:02:41Z</time>
      </trkpt>
      <trkpt lat="44.86543" lon="5.71247">
        <ele>688.6</ele>
        <time>2019-11-01T12:02:42Z</time>
      </trkpt>
      <trkpt lat="44.86548" lon="5.71244">
        <ele>686.89</ele>
        <time>2019-11-01T12:02:43Z</time>
      </trkpt>
      <trkpt lat="44.86551" lon="5.7124">
        <ele>685.74</ele>
        <time>2019-11-01T12:02:44Z</time>
      </trkpt>
      <trkpt lat="44.86554" lon="5.71235">
        <ele>683.93</ele>
        <time>2019-11-01T12:02:45Z</time>
      </trkpt>
      <trkpt lat="44.8656" lon="5.71231">
        <ele>682.26</ele>
        <time>2019-11-01T12:02:46Z</time>
      </trkpt>
      <trkpt lat="44.86565" lon="5.71227">
        <ele>680.71</ele>
        <time>2019-11-01T12:02:47Z</time>
      </trkpt>
      <trkpt lat="44.8657" lon="5.71224">
        <ele>679.34</ele>
        <time>2019-11-01T12:02:48Z</time>
      </trkpt>
      <trkpt lat="44.86576" lon="5.71221">
        <ele>678.02</ele>
        <time>2019-11-01T12:02:49Z</time>
      </trkpt>
      <trkpt lat="44.86581" lon="5.71217">
        <ele>676.43</ele>
        <time>2019-11-01T12:02:50Z</time>
      </trkpt>
      <trkpt lat="44.86585" lon="5.71213">
        <ele>674.83</ele>
        <time>2019-11-01T12:02:51Z</time>
      </trkpt>
      <trkpt lat="44.8659" lon="5.71208">
        <ele>673.16</ele>
        <time>2019-11-01T12:02:52Z</time>
      </trkpt>
      <trkpt lat="44.86596" lon="5.71204">
        <ele>671.33</ele>
        <time>2019-11-01T12:02:53Z</time>
      </trkpt>
      <trkpt lat="44.866" lon="5.712">
        <ele>669.59</ele>
        <time>2019-11-01T12:02:54Z</time>
      </trkpt>
      <trkpt lat="44.86605" lon="5.71197">
        <ele>667.81</ele>
        <time>2019-11-01T12:02:55Z</time>
      </trkpt>
      <trkpt lat="44.86609" lon="5.71193">
        <ele>664.34</ele>
        <time>2019-11-01T12:02:56Z</time>
      </trkpt>
      <trkpt lat="44.86613" lon="5.7119">
        <ele>661.48</ele>
        <time>2019-11-01T12:02:57Z</time>
      </trkpt>
      <trkpt lat="44.86616" lon="5.71186">
        <ele>658.59</ele>
        <time>2019-11-01T12:02:58Z</time>
      </trkpt>
      <trkpt lat="44.86619" lon="5.71181">
        <ele>655.76</ele>
        <time>2019-11-01T12:02:59Z</time>
      </trkpt>
      <trkpt lat="44.86622" lon="5.71177">
        <ele>653.16</ele>
        <time>2019-11-01T12:03:00Z</time>
      </trkpt>
      <trkpt lat="44.86627" lon="5.71172">
        <ele>650.77</ele>
        <time>2019-11-01T12:03:01Z</time>
      </trkpt>
      <trkpt lat="44.86631" lon="5.71168">
        <ele>648.38</ele>
        <time>2019-11-01T12:03:02Z</time>
      </trkpt>
      <trkpt lat="44.86636" lon="5.71163">
        <ele>645.98</ele>
        <time>2019-11-01T12:03:03Z</time>
      </trkpt>
      <trkpt lat="44.86641" lon="5.71156">
        <ele>643.72</ele>
        <time>2019-11-01T12:03:04Z</time>
      </trkpt>
      <trkpt lat="44.86646" lon="5.71148">
        <ele>641.01</ele>
        <time>2019-11-01T12:03:05Z</time>
      </trkpt>
      <trkpt lat="44.86649" lon="5.7114">
        <ele>638.45</ele>
        <time>2019-11-01T12:03:06Z</time>
      </trkpt>
      <trkpt lat="44.86652" lon="5.71133">
        <ele>635.44</ele>
        <time>2019-11-01T12:03:07Z</time>
      </trkpt>
      <trkpt lat="44.86655" lon="5.71128">
        <ele>632.93</ele>
        <time>2019-11-01T12:03:08Z</time>
      </trkpt>
      <trkpt lat="44.86656" lon="5.71124">
        <ele>630.84</ele>
        <time>2019-11-01T12:03:09Z</time>
      </trkpt>
      <trkpt lat="44.86658" lon="5.71121">
        <ele>628.82</ele>
        <time>2019-11-01T12:03:10Z</time>
      </trkpt>
      <trkpt lat="44.86659" lon="5.71117">
        <ele>626.53</ele>
        <time>2019-11-01T12:03:11Z</time>
      </trkpt>
      <trkpt lat="44.86661" lon="5.71115">
        <ele>624.79</ele>
        <time>2019-11-01T12:03:12Z</time>
      </trkpt>
      <trkpt lat="44.86662" lon="5.71112">
        <ele>622.87</ele>
        <time>2019-11-01T12:03:13Z</time>
      </trkpt>
      <trkpt lat="44.86664" lon="5.71109">
        <ele>621.46</ele>
        <time>2019-11-01T12:03:14Z</time>
      </trkpt>
      <trkpt lat="44.86667" lon="5.71107">
        <ele>619.91</ele>
        <time>2019-11-01T12:03:15Z</time>
      </trkpt>
      <trkpt lat="44.86669" lon="5.71104">
        <ele>618.96</ele>
        <time>2019-11-01T12:03:16Z</time>
      </trkpt>
      <trkpt lat="44.86672" lon="5.711">
        <ele>617.62</ele>
        <time>2019-11-01T12:03:17Z</time>
      </trkpt>
      <trkpt lat="44.86674" lon="5.71096">
        <ele>616.31</ele>
        <time>2019-11-01T12:03:18Z</time>
      </trkpt>
      <trkpt lat="44.86675" lon="5.71092">
        <ele>615.22</ele>
        <time>2019-11-01T12:03:19Z</time>
      </trkpt>
      <trkpt lat="44.86676" lon="5.71088">
        <ele>614.12</ele>
        <time>2019-11-01T12:03:20Z</time>
      </trkpt>
      <trkpt lat="44.86676" lon="5.71082">
        <ele>613.37</ele>
        <time>2019-11-01T12:03:21Z</time>
      </trkpt>
      <trkpt lat="44.86676" lon="5.71077">
        <ele>612.52</ele>
        <time>2019-11-01T12:03:22Z</time>
      </trkpt>
      <trkpt lat="44.86675" lon="5.71072">
        <ele>611.77</ele>
        <time>2019-11-01T12:03:23Z</time>
      </trkpt>
      <trkpt lat="44.86674" lon="5.71067">
        <ele>610.98</ele>
        <time>2019-11-01T12:03:24Z</time>
      </trkpt>
      <trkpt lat="44.86673" lon="5.71063">
        <ele>610.26</ele>
        <time>2019-11-01T12:03:25Z</time>
      </trkpt>
      <trkpt lat="44.86672" lon="5.71059">
        <ele>609.62</ele>
        <time>2019-11-01T12:03:26Z</time>
      </trkpt>
      <trkpt lat="44.86671" lon="5.71056">
        <ele>609.36</ele>
        <time>2019-11-01T12:03:27Z</time>
      </trkpt>
      <trkpt lat="44.8667" lon="5.71052">
        <ele>609.14</ele>
        <time>2019-11-01T12:03:28Z</time>
      </trkpt>
      <trkpt lat="44.8667" lon="5.71049">
        <ele>608.66</ele>
        <time>2019-11-01T12:03:29Z</time>
      </trkpt>
      <trkpt lat="44.86669" lon="5.71046">
        <ele>608.37</ele>
        <time>2019-11-01T12:03:30Z</time>
      </trkpt>
      <trkpt lat="44.86669" lon="5.71043">
        <ele>608.36</ele>
        <time>2019-11-01T12:03:31Z</time>
      </trkpt>
      <trkpt lat="44.8667" lon="5.7104">
        <ele>608.91</ele>
        <time>2019-11-01T12:03:32Z</time>
      </trkpt>
      <trkpt lat="44.86669" lon="5.71037">
        <ele>609.64</ele>
        <time>2019-11-01T12:03:33Z</time>
      </trkpt>
      <trkpt lat="44.86669" lon="5.71034">
        <ele>610.07</ele>
        <time>2019-11-01T12:03:34Z</time>
      </trkpt>
      <trkpt lat="44.86669" lon="5.7103">
        <ele>610.81</ele>
        <time>2019-11-01T12:03:36Z</time>
      </trkpt>
      <trkpt lat="44.86668" lon="5.71024">
        <ele>611.17</ele>
        <time>2019-11-01T12:05:38Z</time>
      </trkpt>
      <trkpt lat="44.86667" lon="5.71021">
        <ele>611.16</ele>
        <time>2019-11-01T12:05:39Z</time>
      </trkpt>
      <trkpt lat="44.86667" lon="5.71019">
        <ele>611.01</ele>
        <time>2019-11-01T12:05:40Z</time>
      </trkpt>
      <trkpt lat="44.86666" lon="5.71016">
        <ele>610.83</ele>
        <time>2019-11-01T12:05:41Z</time>
      </trkpt>
      <trkpt lat="44.86666" lon="5.71013">
        <ele>610.63</ele>
        <time>2019-11-01T12:05:42Z</time>
      </trkpt>
      <trkpt lat="44.86665" lon="5.7101">
        <ele>610.43</ele>
        <time>2019-11-01T12:05:43Z</time>
      </trkpt>
      <trkpt lat="44.86665" lon="5.71007">
        <ele>610.23</ele>
        <time>2019-11-01T12:05:44Z</time>
      </trkpt>
      <trkpt lat="44.86664" lon="5.71002">
        <ele>609.96</ele>
        <time>2019-11-01T12:05:45Z</time>
      </trkpt>
      <trkpt lat="44.86662" lon="5.70997">
        <ele>609.6</ele>
        <time>2019-11-01T12:05:46Z</time>
      </trkpt>
      <trkpt lat="44.86661" lon="5.7099">
        <ele>609.29</ele>
        <time>2019-11-01T12:05:47Z</time>
      </trkpt>
      <trkpt lat="44.86659" lon="5.70983">
        <ele>608.91</ele>
        <time>2019-11-01T12:05:48Z</time>
      </trkpt>
      <trkpt lat="44.86658" lon="5.70976">
        <ele>608.66</ele>
        <time>2019-11-01T12:05:49Z</time>
      </trkpt>
      <trkpt lat="44.86657" lon="5.70967">
        <ele>608.44</ele>
        <time>2019-11-01T12:05:50Z</time>
      </trkpt>
      <trkpt lat="44.86655" lon="5.70958">
        <ele>608.1</ele>
        <time>2019-11-01T12:05:51Z</time>
      </trkpt>
      <trkpt lat="44.86652" lon="5.7095">
        <ele>607.78</ele>
        <time>2019-11-01T12:05:52Z</time>
      </trkpt>
      <trkpt lat="44.8665" lon="5.70942">
        <ele>607.41</ele>
        <time>2019-11-01T12:05:53Z</time>
      </trkpt>
      <trkpt lat="44.86648" lon="5.70933">
        <ele>607.02</ele>
        <time>2019-11-01T12:05:54Z</time>
      </trkpt>
      <trkpt lat="44.86645" lon="5.70924">
        <ele>606.55</ele>
        <time>2019-11-01T12:05:55Z</time>
      </trkpt>
      <trkpt lat="44.86641" lon="5.70917">
        <ele>605.99</ele>
        <time>2019-11-01T12:05:56Z</time>
      </trkpt>
      <trkpt lat="44.86639" lon="5.70909">
        <ele>605.33</ele>
        <time>2019-11-01T12:05:57Z</time>
      </trkpt>
      <trkpt lat="44.86636" lon="5.70903">
        <ele>604.64</ele>
        <time>2019-11-01T12:05:58Z</time>
      </trkpt>
      <trkpt lat="44.86633" lon="5.70898">
        <ele>604.02</ele>
        <time>2019-11-01T12:05:59Z</time>
      </trkpt>
      <trkpt lat="44.86631" lon="5.70892">
        <ele>603.48</ele>
        <time>2019-11-01T12:06:00Z</time>
      </trkpt>
      <trkpt lat="44.86629" lon="5.70886">
        <ele>603.04</ele>
        <time>2019-11-01T12:06:01Z</time>
      </trkpt>
      <trkpt lat="44.86626" lon="5.70881">
        <ele>602.63</ele>
        <time>2019-11-01T12:06:02Z</time>
      </trkpt>
      <trkpt lat="44.86626" lon="5.70877">
        <ele>602.22</ele>
        <time>2019-11-01T12:06:03Z</time>
      </trkpt>
      <trkpt lat="44.86626" lon="5.70873">
        <ele>601.96</ele>
        <time>2019-11-01T12:06:04Z</time>
      </trkpt>
      <trkpt lat="44.86625" lon="5.70869">
        <ele>601.74</ele>
        <time>2019-11-01T12:06:05Z</time>
      </trkpt>
      <trkpt lat="44.86625" lon="5.70865">
        <ele>601.61</ele>
        <time>2019-11-01T12:06:06Z</time>
      </trkpt>
      <trkpt lat="44.86625" lon="5.7086">
        <ele>601.43</ele>
        <time>2019-11-01T12:06:07Z</time>
      </trkpt>
      <trkpt lat="44.86624" lon="5.70856">
        <ele>601.3</ele>
        <time>2019-11-01T12:06:08Z</time>
      </trkpt>
      <trkpt lat="44.86624" lon="5.70851">
        <ele>601.12</ele>
        <time>2019-11-01T12:06:09Z</time>
      </trkpt>
      <trkpt lat="44.86625" lon="5.70845">
        <ele>600.86</ele>
        <time>2019-11-01T12:06:10Z</time>
      </trkpt>
      <trkpt lat="44.86625" lon="5.70838">
        <ele>600.78</ele>
        <time>2019-11-01T12:06:11Z</time>
      </trkpt>
      <trkpt lat="44.86623" lon="5.70833">
        <ele>600.55</ele>
        <time>2019-11-01T12:06:12Z</time>
      </trkpt>
      <trkpt lat="44.86622" lon="5.70829">
        <ele>600.34</ele>
        <time>2019-11-01T12:06:13Z</time>
      </trkpt>
      <trkpt lat="44.86621" lon="5.70825">
        <ele>600.14</ele>
        <time>2019-11-01T12:06:14Z</time>
      </trkpt>
      <trkpt lat="44.86619" lon="5.70822">
        <ele>599.8</ele>
        <time>2019-11-01T12:06:15Z</time>
      </trkpt>
      <trkpt lat="44.86618" lon="5.70819">
        <ele>599.34</ele>
        <time>2019-11-01T12:06:16Z</time>
      </trkpt>
      <trkpt lat="44.86617" lon="5.70815">
        <ele>599.21</ele>
        <time>2019-11-01T12:06:17Z</time>
      </trkpt>
      <trkpt lat="44.86615" lon="5.70812">
        <ele>599.03</ele>
        <time>2019-11-01T12:06:18Z</time>
      </trkpt>
      <trkpt lat="44.86614" lon="5.70808">
        <ele>598.76</ele>
        <time>2019-11-01T12:06:19Z</time>
      </trkpt>
      <trkpt lat="44.86612" lon="5.70804">
        <ele>598.4</ele>
        <time>2019-11-01T12:06:20Z</time>
      </trkpt>
      <trkpt lat="44.86612" lon="5.708">
        <ele>598.02</ele>
        <time>2019-11-01T12:06:21Z</time>
      </trkpt>
      <trkpt lat="44.8661" lon="5.70796">
        <ele>597.69</ele>
        <time>2019-11-01T12:06:22Z</time>
      </trkpt>
      <trkpt lat="44.8661" lon="5.70792">
        <ele>597.52</ele>
        <time>2019-11-01T12:06:23Z</time>
      </trkpt>
      <trkpt lat="44.86609" lon="5.70788">
        <ele>597.26</ele>
        <time>2019-11-01T12:06:24Z</time>
      </trkpt>
      <trkpt lat="44.86609" lon="5.70783">
        <ele>597.18</ele>
        <time>2019-11-01T12:06:25Z</time>
      </trkpt>
      <trkpt lat="44.86608" lon="5.70779">
        <ele>597.02</ele>
        <time>2019-11-01T12:06:26Z</time>
      </trkpt>
      <trkpt lat="44.86607" lon="5.70774">
        <ele>596.9</ele>
        <time>2019-11-01T12:06:27Z</time>
      </trkpt>
      <trkpt lat="44.86606" lon="5.7077">
        <ele>596.65</ele>
        <time>2019-11-01T12:06:28Z</time>
      </trkpt>
      <trkpt lat="44.86606" lon="5.70766">
        <ele>596.51</ele>
        <time>2019-11-01T12:06:29Z</time>
      </trkpt>
      <trkpt lat="44.86606" lon="5.70761">
        <ele>596.68</ele>
        <time>2019-11-01T12:06:30Z</time>
      </trkpt>
      <trkpt lat="44.86606" lon="5.70756">
        <ele>596.87</ele>
        <time>2019-11-01T12:06:31Z</time>
      </trkpt>
      <trkpt lat="44.86605" lon="5.70752">
        <ele>596.64</ele>
        <time>2019-11-01T12:06:32Z</time>
      </trkpt>
      <trkpt lat="44.86605" lon="5.70748">
        <ele>596.51</ele>
        <time>2019-11-01T12:06:33Z</time>
      </trkpt>
      <trkpt lat="44.86606" lon="5.70744">
        <ele>596.47</ele>
        <time>2019-11-01T12:06:34Z</time>
      </trkpt>
      <trkpt lat="44.86606" lon="5.70737">
        <ele>596.59</ele>
        <time>2019-11-01T12:06:35Z</time>
      </trkpt>
      <trkpt lat="44.86607" lon="5.7073">
        <ele>597.05</ele>
        <time>2019-11-01T12:06:36Z</time>
      </trkpt>
      <trkpt lat="44.86606" lon="5.70723">
        <ele>597.26</ele>
        <time>2019-11-01T12:06:37Z</time>
      </trkpt>
      <trkpt lat="44.86605" lon="5.70716">
        <ele>597.11</ele>
        <time>2019-11-01T12:06:38Z</time>
      </trkpt>
      <trkpt lat="44.86604" lon="5.70709">
        <ele>597.14</ele>
        <time>2019-11-01T12:06:39Z</time>
      </trkpt>
      <trkpt lat="44.86603" lon="5.70704">
        <ele>597.57</ele>
        <time>2019-11-01T12:06:40Z</time>
      </trkpt>
      <trkpt lat="44.86601" lon="5.707">
        <ele>597.62</ele>
        <time>2019-11-01T12:06:41Z</time>
      </trkpt>
      <trkpt lat="44.86597" lon="5.70696">
        <ele>597.22</ele>
        <time>2019-11-01T12:06:42Z</time>
      </trkpt>
      <trkpt lat="44.86594" lon="5.70694">
        <ele>596.33</ele>
        <time>2019-11-01T12:06:43Z</time>
      </trkpt>
      <trkpt lat="44.8659" lon="5.70693">
        <ele>595.08</ele>
        <time>2019-11-01T12:06:44Z</time>
      </trkpt>
      <trkpt lat="44.86586" lon="5.70691">
        <ele>593.66</ele>
        <time>2019-11-01T12:06:45Z</time>
      </trkpt>
      <trkpt lat="44.86582" lon="5.70688">
        <ele>592.74</ele>
        <time>2019-11-01T12:06:46Z</time>
      </trkpt>
      <trkpt lat="44.86577" lon="5.70687">
        <ele>591.98</ele>
        <time>2019-11-01T12:06:47Z</time>
      </trkpt>
      <trkpt lat="44.86571" lon="5.70686">
        <ele>591.47</ele>
        <time>2019-11-01T12:06:48Z</time>
      </trkpt>
      <trkpt lat="44.86565" lon="5.70686">
        <ele>591.31</ele>
        <time>2019-11-01T12:06:49Z</time>
      </trkpt>
      <trkpt lat="44.86558" lon="5.70688">
        <ele>590.85</ele>
        <time>2019-11-01T12:06:50Z</time>
      </trkpt>
      <trkpt lat="44.86551" lon="5.70689">
        <ele>590.08</ele>
        <time>2019-11-01T12:06:51Z</time>
      </trkpt>
      <trkpt lat="44.86545" lon="5.70692">
        <ele>589.36</ele>
        <time>2019-11-01T12:06:52Z</time>
      </trkpt>
      <trkpt lat="44.86539" lon="5.70696">
        <ele>588.72</ele>
        <time>2019-11-01T12:06:53Z</time>
      </trkpt>
      <trkpt lat="44.86534" lon="5.707">
        <ele>588.18</ele>
        <time>2019-11-01T12:06:54Z</time>
      </trkpt>
      <trkpt lat="44.86528" lon="5.70705">
        <ele>587.39</ele>
        <time>2019-11-01T12:06:55Z</time>
      </trkpt>
      <trkpt lat="44.86522" lon="5.70708">
        <ele>586.73</ele>
        <time>2019-11-01T12:06:56Z</time>
      </trkpt>
      <trkpt lat="44.86517" lon="5.70712">
        <ele>586.18</ele>
        <time>2019-11-01T12:06:57Z</time>
      </trkpt>
      <trkpt lat="44.86512" lon="5.70716">
        <ele>585.67</ele>
        <time>2019-11-01T12:06:58Z</time>
      </trkpt>
      <trkpt lat="44.86507" lon="5.70719">
        <ele>585.1</ele>
        <time>2019-11-01T12:06:59Z</time>
      </trkpt>
      <trkpt lat="44.86504" lon="5.70722">
        <ele>584.57</ele>
        <time>2019-11-01T12:07:00Z</time>
      </trkpt>
      <trkpt lat="44.86501" lon="5.70723">
        <ele>583.86</ele>
        <time>2019-11-01T12:07:01Z</time>
      </trkpt>
      <trkpt lat="44.86499" lon="5.70725">
        <ele>583.29</ele>
        <time>2019-11-01T12:07:02Z</time>
      </trkpt>
      <trkpt lat="44.86496" lon="5.70725">
        <ele>582.56</ele>
        <time>2019-11-01T12:07:03Z</time>
      </trkpt>
      <trkpt lat="44.86493" lon="5.70725">
        <ele>581.99</ele>
        <time>2019-11-01T12:07:04Z</time>
      </trkpt>
      <trkpt lat="44.8649" lon="5.70724">
        <ele>581.33</ele>
        <time>2019-11-01T12:07:05Z</time>
      </trkpt>
      <trkpt lat="44.86487" lon="5.70722">
        <ele>580.85</ele>
        <time>2019-11-01T12:07:06Z</time>
      </trkpt>
      <trkpt lat="44.86484" lon="5.70721">
        <ele>580.57</ele>
        <time>2019-11-01T12:07:07Z</time>
      </trkpt>
      <trkpt lat="44.86481" lon="5.70719">
        <ele>580.21</ele>
        <time>2019-11-01T12:07:08Z</time>
      </trkpt>
      <trkpt lat="44.86479" lon="5.70716">
        <ele>579.82</ele>
        <time>2019-11-01T12:07:09Z</time>
      </trkpt>
      <trkpt lat="44.86477" lon="5.70714">
        <ele>579.49</ele>
        <time>2019-11-01T12:07:10Z</time>
      </trkpt>
      <trkpt lat="44.86475" lon="5.70712">
        <ele>579.11</ele>
        <time>2019-11-01T12:07:11Z</time>
      </trkpt>
      <trkpt lat="44.86472" lon="5.70707">
        <ele>579</ele>
        <time>2019-11-01T12:07:12Z</time>
      </trkpt>
      <trkpt lat="44.8647" lon="5.70703">
        <ele>578.68</ele>
        <time>2019-11-01T12:07:13Z</time>
      </trkpt>
      <trkpt lat="44.86466" lon="5.707">
        <ele>578.52</ele>
        <time>2019-11-01T12:07:14Z</time>
      </trkpt>
      <trkpt lat="44.86462" lon="5.70697">
        <ele>578.33</ele>
        <time>2019-11-01T12:07:15Z</time>
      </trkpt>
      <trkpt lat="44.86459" lon="5.70693">
        <ele>578.2</ele>
        <time>2019-11-01T12:07:16Z</time>
      </trkpt>
      <trkpt lat="44.86458" lon="5.70689">
        <ele>577.89</ele>
        <time>2019-11-01T12:07:17Z</time>
      </trkpt>
      <trkpt lat="44.86457" lon="5.70685">
        <ele>577.51</ele>
        <time>2019-11-01T12:07:18Z</time>
      </trkpt>
      <trkpt lat="44.86456" lon="5.70682">
        <ele>577.12</ele>
        <time>2019-11-01T12:07:19Z</time>
      </trkpt>
      <trkpt lat="44.86455" lon="5.70677">
        <ele>577</ele>
        <time>2019-11-01T12:07:20Z</time>
      </trkpt>
      <trkpt lat="44.86454" lon="5.70672">
        <ele>577.31</ele>
        <time>2019-11-01T12:07:21Z</time>
      </trkpt>
      <trkpt lat="44.86454" lon="5.70668">
        <ele>577.34</ele>
        <time>2019-11-01T12:07:22Z</time>
      </trkpt>
      <trkpt lat="44.86453" lon="5.70665">
        <ele>577.42</ele>
        <time>2019-11-01T12:07:23Z</time>
      </trkpt>
      <trkpt lat="44.86452" lon="5.70661">
        <ele>578</ele>
        <time>2019-11-01T12:07:24Z</time>
      </trkpt>
      <trkpt lat="44.86452" lon="5.70657">
        <ele>578.66</ele>
        <time>2019-11-01T12:07:25Z</time>
      </trkpt>
      <trkpt lat="44.86452" lon="5.70653">
        <ele>579.28</ele>
        <time>2019-11-01T12:07:26Z</time>
      </trkpt>
      <trkpt lat="44.86452" lon="5.70649">
        <ele>580.31</ele>
        <time>2019-11-01T12:07:27Z</time>
      </trkpt>
      <trkpt lat="44.86451" lon="5.70645">
        <ele>581.39</ele>
        <time>2019-11-01T12:07:28Z</time>
      </trkpt>
      <trkpt lat="44.8645" lon="5.70641">
        <ele>582.34</ele>
        <time>2019-11-01T12:07:29Z</time>
      </trkpt>
      <trkpt lat="44.86449" lon="5.70638">
        <ele>583.33</ele>
        <time>2019-11-01T12:07:30Z</time>
      </trkpt>
      <trkpt lat="44.86448" lon="5.70634">
        <ele>584.18</ele>
        <time>2019-11-01T12:07:31Z</time>
      </trkpt>
      <trkpt lat="44.86447" lon="5.7063">
        <ele>584.93</ele>
        <time>2019-11-01T12:07:32Z</time>
      </trkpt>
      <trkpt lat="44.86446" lon="5.70626">
        <ele>585.5</ele>
        <time>2019-11-01T12:07:33Z</time>
      </trkpt>
      <trkpt lat="44.86445" lon="5.70623">
        <ele>586.03</ele>
        <time>2019-11-01T12:07:34Z</time>
      </trkpt>
      <trkpt lat="44.86444" lon="5.70619">
        <ele>586.81</ele>
        <time>2019-11-01T12:07:35Z</time>
      </trkpt>
      <trkpt lat="44.86443" lon="5.70615">
        <ele>587.61</ele>
        <time>2019-11-01T12:07:36Z</time>
      </trkpt>
      <trkpt lat="44.86442" lon="5.70612">
        <ele>587.92</ele>
        <time>2019-11-01T12:07:37Z</time>
      </trkpt>
      <trkpt lat="44.8644" lon="5.70607">
        <ele>588.22</ele>
        <time>2019-11-01T12:07:38Z</time>
      </trkpt>
      <trkpt lat="44.86438" lon="5.70603">
        <ele>587.61</ele>
        <time>2019-11-01T12:07:39Z</time>
      </trkpt>
      <trkpt lat="44.86437" lon="5.70599">
        <ele>587.57</ele>
        <time>2019-11-01T12:07:40Z</time>
      </trkpt>
      <trkpt lat="44.86435" lon="5.70596">
        <ele>587.55</ele>
        <time>2019-11-01T12:07:41Z</time>
      </trkpt>
      <trkpt lat="44.86432" lon="5.70592">
        <ele>587.06</ele>
        <time>2019-11-01T12:07:42Z</time>
      </trkpt>
      <trkpt lat="44.86429" lon="5.70588">
        <ele>586.91</ele>
        <time>2019-11-01T12:07:43Z</time>
      </trkpt>
      <trkpt lat="44.86427" lon="5.70583">
        <ele>586.87</ele>
        <time>2019-11-01T12:07:44Z</time>
      </trkpt>
      <trkpt lat="44.86423" lon="5.70579">
        <ele>586.43</ele>
        <time>2019-11-01T12:07:45Z</time>
      </trkpt>
      <trkpt lat="44.8642" lon="5.70574">
        <ele>585.88</ele>
        <time>2019-11-01T12:07:46Z</time>
      </trkpt>
      <trkpt lat="44.86417" lon="5.70571">
        <ele>585.44</ele>
        <time>2019-11-01T12:07:47Z</time>
      </trkpt>
      <trkpt lat="44.86413" lon="5.70566">
        <ele>585.1</ele>
        <time>2019-11-01T12:07:48Z</time>
      </trkpt>
      <trkpt lat="44.86409" lon="5.70562">
        <ele>585.06</ele>
        <time>2019-11-01T12:07:49Z</time>
      </trkpt>
      <trkpt lat="44.86406" lon="5.70559">
        <ele>585.26</ele>
        <time>2019-11-01T12:07:50Z</time>
      </trkpt>
      <trkpt lat="44.86403" lon="5.70556">
        <ele>585.53</ele>
        <time>2019-11-01T12:07:51Z</time>
      </trkpt>
      <trkpt lat="44.86401" lon="5.70553">
        <ele>585.75</ele>
        <time>2019-11-01T12:07:52Z</time>
      </trkpt>
      <trkpt lat="44.86399" lon="5.7055">
        <ele>586.03</ele>
        <time>2019-11-01T12:07:53Z</time>
      </trkpt>
      <trkpt lat="44.86396" lon="5.70547">
        <ele>586.11</ele>
        <time>2019-11-01T12:07:54Z</time>
      </trkpt>
      <trkpt lat="44.86394" lon="5.70544">
        <ele>586.07</ele>
        <time>2019-11-01T12:07:55Z</time>
      </trkpt>
      <trkpt lat="44.86392" lon="5.7054">
        <ele>586.33</ele>
        <time>2019-11-01T12:07:56Z</time>
      </trkpt>
      <trkpt lat="44.86389" lon="5.70537">
        <ele>586.41</ele>
        <time>2019-11-01T12:07:57Z</time>
      </trkpt>
      <trkpt lat="44.86387" lon="5.70533">
        <ele>586.37</ele>
        <time>2019-11-01T12:07:58Z</time>
      </trkpt>
      <trkpt lat="44.86385" lon="5.7053">
        <ele>586.14</ele>
        <time>2019-11-01T12:07:59Z</time>
      </trkpt>
      <trkpt lat="44.86383" lon="5.70526">
        <ele>585.94</ele>
        <time>2019-11-01T12:08:00Z</time>
      </trkpt>
      <trkpt lat="44.86381" lon="5.70522">
        <ele>586.23</ele>
        <time>2019-11-01T12:08:01Z</time>
      </trkpt>
      <trkpt lat="44.8638" lon="5.70519">
        <ele>586.38</ele>
        <time>2019-11-01T12:08:02Z</time>
      </trkpt>
      <trkpt lat="44.86379" lon="5.70517">
        <ele>586.64</ele>
        <time>2019-11-01T12:08:03Z</time>
      </trkpt>
      <trkpt lat="44.86378" lon="5.70514">
        <ele>587.07</ele>
        <time>2019-11-01T12:08:04Z</time>
      </trkpt>
      <trkpt lat="44.86376" lon="5.70509">
        <ele>587.86</ele>
        <time>2019-11-01T12:08:06Z</time>
      </trkpt>
      <trkpt lat="44.86375" lon="5.70506">
        <ele>588.41</ele>
        <time>2019-11-01T12:08:07Z</time>
      </trkpt>
      <trkpt lat="44.86375" lon="5.70503">
        <ele>588.79</ele>
        <time>2019-11-01T12:08:08Z</time>
      </trkpt>
      <trkpt lat="44.86374" lon="5.705">
        <ele>589.32</ele>
        <time>2019-11-01T12:08:09Z</time>
      </trkpt>
      <trkpt lat="44.86375" lon="5.70496">
        <ele>589.9</ele>
        <time>2019-11-01T12:08:10Z</time>
      </trkpt>
      <trkpt lat="44.86374" lon="5.70493">
        <ele>590.28</ele>
        <time>2019-11-01T12:08:11Z</time>
      </trkpt>
      <trkpt lat="44.86373" lon="5.70489">
        <ele>591.31</ele>
        <time>2019-11-01T12:08:13Z</time>
      </trkpt>
      <trkpt lat="44.86371" lon="5.70486">
        <ele>593.33</ele>
        <time>2019-11-01T12:08:15Z</time>
      </trkpt>
      <trkpt lat="44.86369" lon="5.70483">
        <ele>594.67</ele>
        <time>2019-11-01T12:08:17Z</time>
      </trkpt>
      <trkpt lat="44.86369" lon="5.70479">
        <ele>595.15</ele>
        <time>2019-11-01T12:08:19Z</time>
      </trkpt>
      <trkpt lat="44.86368" lon="5.70476">
        <ele>595.29</ele>
        <time>2019-11-01T12:08:20Z</time>
      </trkpt>
      <trkpt lat="44.86369" lon="5.70473">
        <ele>595.47</ele>
        <time>2019-11-01T12:08:21Z</time>
      </trkpt>
      <trkpt lat="44.86369" lon="5.70469">
        <ele>595.86</ele>
        <time>2019-11-01T12:08:23Z</time>
      </trkpt>
      <trkpt lat="44.8637" lon="5.70465">
        <ele>595.78</ele>
        <time>2019-11-01T12:08:25Z</time>
      </trkpt>
      <trkpt lat="44.86373" lon="5.7046">
        <ele>596.33</ele>
        <time>2019-11-01T12:08:27Z</time>
      </trkpt>
      <trkpt lat="44.86374" lon="5.70457">
        <ele>596.83</ele>
        <time>2019-11-01T12:08:28Z</time>
      </trkpt>
      <trkpt lat="44.86376" lon="5.70455">
        <ele>597.26</ele>
        <time>2019-11-01T12:08:29Z</time>
      </trkpt>
      <trkpt lat="44.86377" lon="5.70453">
        <ele>597.53</ele>
        <time>2019-11-01T12:08:30Z</time>
      </trkpt>
      <trkpt lat="44.86379" lon="5.70449">
        <ele>597.66</ele>
        <time>2019-11-01T12:08:32Z</time>
      </trkpt>
      <trkpt lat="44.86381" lon="5.70445">
        <ele>597.7</ele>
        <time>2019-11-01T12:08:34Z</time>
      </trkpt>
      <trkpt lat="44.86382" lon="5.70441">
        <ele>598.28</ele>
        <time>2019-11-01T12:08:36Z</time>
      </trkpt>
      <trkpt lat="44.86383" lon="5.70437">
        <ele>598.94</ele>
        <time>2019-11-01T12:08:38Z</time>
      </trkpt>
      <trkpt lat="44.86383" lon="5.70433">
        <ele>599.24</ele>
        <time>2019-11-01T12:08:40Z</time>
      </trkpt>
      <trkpt lat="44.86384" lon="5.70429">
        <ele>599.39</ele>
        <time>2019-11-01T12:08:42Z</time>
      </trkpt>
      <trkpt lat="44.86385" lon="5.70426">
        <ele>598.66</ele>
        <time>2019-11-01T12:08:44Z</time>
      </trkpt>
      <trkpt lat="44.86387" lon="5.70424">
        <ele>598.31</ele>
        <time>2019-11-01T12:08:46Z</time>
      </trkpt>
      <trkpt lat="44.86389" lon="5.7042">
        <ele>598.16</ele>
        <time>2019-11-01T12:08:48Z</time>
      </trkpt>
      <trkpt lat="44.8639" lon="5.70416">
        <ele>597.92</ele>
        <time>2019-11-01T12:08:50Z</time>
      </trkpt>
      <trkpt lat="44.86391" lon="5.70413">
        <ele>597.81</ele>
        <time>2019-11-01T12:08:52Z</time>
      </trkpt>
      <trkpt lat="44.86393" lon="5.7041">
        <ele>598.24</ele>
        <time>2019-11-01T12:08:54Z</time>
      </trkpt>
      <trkpt lat="44.86395" lon="5.70408">
        <ele>598.96</ele>
        <time>2019-11-01T12:08:56Z</time>
      </trkpt>
      <trkpt lat="44.86398" lon="5.70405">
        <ele>600.22</ele>
        <time>2019-11-01T12:08:58Z</time>
      </trkpt>
      <trkpt lat="44.86399" lon="5.70402">
        <ele>601.39</ele>
        <time>2019-11-01T12:09:00Z</time>
      </trkpt>
      <trkpt lat="44.864" lon="5.70398">
        <ele>602.18</ele>
        <time>2019-11-01T12:09:02Z</time>
      </trkpt>
      <trkpt lat="44.864" lon="5.70394">
        <ele>602.75</ele>
        <time>2019-11-01T12:09:04Z</time>
      </trkpt>
      <trkpt lat="44.86399" lon="5.70391">
        <ele>603.27</ele>
        <time>2019-11-01T12:09:06Z</time>
      </trkpt>
      <trkpt lat="44.86398" lon="5.70387">
        <ele>603.59</ele>
        <time>2019-11-01T12:09:08Z</time>
      </trkpt>
      <trkpt lat="44.86397" lon="5.70384">
        <ele>603.63</ele>
        <time>2019-11-01T12:09:09Z</time>
      </trkpt>
      <trkpt lat="44.86395" lon="5.7038">
        <ele>603.94</ele>
        <time>2019-11-01T12:09:11Z</time>
      </trkpt>
      <trkpt lat="44.86394" lon="5.70378">
        <ele>603.81</ele>
        <time>2019-11-01T12:09:12Z</time>
      </trkpt>
      <trkpt lat="44.86393" lon="5.70376">
        <ele>603.84</ele>
        <time>2019-11-01T12:09:13Z</time>
      </trkpt>
      <trkpt lat="44.86392" lon="5.70373">
        <ele>603.85</ele>
        <time>2019-11-01T12:09:14Z</time>
      </trkpt>
      <trkpt lat="44.8639" lon="5.70371">
        <ele>603.66</ele>
        <time>2019-11-01T12:09:16Z</time>
      </trkpt>
      <trkpt lat="44.86388" lon="5.70367">
        <ele>603.54</ele>
        <time>2019-11-01T12:09:18Z</time>
      </trkpt>
      <trkpt lat="44.86387" lon="5.70363">
        <ele>603.8</ele>
        <time>2019-11-01T12:09:20Z</time>
      </trkpt>
      <trkpt lat="44.86384" lon="5.70361">
        <ele>603.98</ele>
        <time>2019-11-01T12:09:22Z</time>
      </trkpt>
      <trkpt lat="44.86383" lon="5.70357">
        <ele>604.48</ele>
        <time>2019-11-01T12:09:24Z</time>
      </trkpt>
      <trkpt lat="44.86381" lon="5.70353">
        <ele>604.79</ele>
        <time>2019-11-01T12:09:26Z</time>
      </trkpt>
      <trkpt lat="44.86381" lon="5.70349">
        <ele>605.26</ele>
        <time>2019-11-01T12:09:28Z</time>
      </trkpt>
      <trkpt lat="44.86381" lon="5.70344">
        <ele>605.75</ele>
        <time>2019-11-01T12:09:30Z</time>
      </trkpt>
      <trkpt lat="44.8638" lon="5.70339">
        <ele>606.07</ele>
        <time>2019-11-01T12:09:32Z</time>
      </trkpt>
      <trkpt lat="44.86378" lon="5.70334">
        <ele>606.07</ele>
        <time>2019-11-01T12:09:34Z</time>
      </trkpt>
      <trkpt lat="44.86377" lon="5.70332">
        <ele>606.06</ele>
        <time>2019-11-01T12:09:35Z</time>
      </trkpt>
      <trkpt lat="44.86375" lon="5.7033">
        <ele>606.51</ele>
        <time>2019-11-01T12:09:37Z</time>
      </trkpt>
      <trkpt lat="44.86373" lon="5.70326">
        <ele>608.25</ele>
        <time>2019-11-01T12:09:40Z</time>
      </trkpt>
      <trkpt lat="44.86371" lon="5.70322">
        <ele>609.29</ele>
        <time>2019-11-01T12:09:42Z</time>
      </trkpt>
      <trkpt lat="44.86369" lon="5.7032">
        <ele>609.75</ele>
        <time>2019-11-01T12:09:43Z</time>
      </trkpt>
      <trkpt lat="44.86369" lon="5.70316">
        <ele>610.89</ele>
        <time>2019-11-01T12:09:45Z</time>
      </trkpt>
      <trkpt lat="44.86368" lon="5.70312">
        <ele>611.66</ele>
        <time>2019-11-01T12:09:47Z</time>
      </trkpt>
      <trkpt lat="44.86369" lon="5.70308">
        <ele>612.66</ele>
        <time>2019-11-01T12:09:49Z</time>
      </trkpt>
      <trkpt lat="44.8637" lon="5.70304">
        <ele>613.64</ele>
        <time>2019-11-01T12:09:51Z</time>
      </trkpt>
      <trkpt lat="44.86372" lon="5.70299">
        <ele>614.54</ele>
        <time>2019-11-01T12:09:53Z</time>
      </trkpt>
      <trkpt lat="44.86375" lon="5.70297">
        <ele>614.89</ele>
        <time>2019-11-01T12:09:55Z</time>
      </trkpt>
      <trkpt lat="44.86377" lon="5.70295">
        <ele>615.17</ele>
        <time>2019-11-01T12:09:57Z</time>
      </trkpt>
      <trkpt lat="44.86381" lon="5.70293">
        <ele>615.89</ele>
        <time>2019-11-01T12:09:59Z</time>
      </trkpt>
      <trkpt lat="44.86384" lon="5.70291">
        <ele>616.77</ele>
        <time>2019-11-01T12:10:01Z</time>
      </trkpt>
      <trkpt lat="44.86386" lon="5.70288">
        <ele>617.53</ele>
        <time>2019-11-01T12:10:03Z</time>
      </trkpt>
      <trkpt lat="44.86389" lon="5.70287">
        <ele>618.03</ele>
        <time>2019-11-01T12:10:04Z</time>
      </trkpt>
      <trkpt lat="44.86392" lon="5.70285">
        <ele>618.09</ele>
        <time>2019-11-01T12:10:06Z</time>
      </trkpt>
      <trkpt lat="44.86395" lon="5.70284">
        <ele>618.05</ele>
        <time>2019-11-01T12:10:08Z</time>
      </trkpt>
      <trkpt lat="44.86398" lon="5.70282">
        <ele>618.28</ele>
        <time>2019-11-01T12:10:10Z</time>
      </trkpt>
      <trkpt lat="44.864" lon="5.7028">
        <ele>618.22</ele>
        <time>2019-11-01T12:10:12Z</time>
      </trkpt>
      <trkpt lat="44.86401" lon="5.70277">
        <ele>617.23</ele>
        <time>2019-11-01T12:10:14Z</time>
      </trkpt>
      <trkpt lat="44.86402" lon="5.70274">
        <ele>616.77</ele>
        <time>2019-11-01T12:10:16Z</time>
      </trkpt>
      <trkpt lat="44.86403" lon="5.70271">
        <ele>616.43</ele>
        <time>2019-11-01T12:10:18Z</time>
      </trkpt>
      <trkpt lat="44.864" lon="5.70268">
        <ele>615.99</ele>
        <time>2019-11-01T12:10:20Z</time>
      </trkpt>
      <trkpt lat="44.86402" lon="5.70265">
        <ele>614.63</ele>
        <time>2019-11-01T12:13:40Z</time>
      </trkpt>
      <trkpt lat="44.864" lon="5.70263">
        <ele>614.29</ele>
        <time>2019-11-01T12:13:41Z</time>
      </trkpt>
      <trkpt lat="44.86397" lon="5.70261">
        <ele>613.98</ele>
        <time>2019-11-01T12:13:42Z</time>
      </trkpt>
      <trkpt lat="44.86395" lon="5.7026">
        <ele>613.68</ele>
        <time>2019-11-01T12:13:43Z</time>
      </trkpt>
      <trkpt lat="44.86392" lon="5.70258">
        <ele>613.38</ele>
        <time>2019-11-01T12:13:44Z</time>
      </trkpt>
      <trkpt lat="44.86388" lon="5.70256">
        <ele>612.87</ele>
        <time>2019-11-01T12:13:45Z</time>
      </trkpt>
      <trkpt lat="44.86384" lon="5.70255">
        <ele>612.29</ele>
        <time>2019-11-01T12:13:46Z</time>
      </trkpt>
      <trkpt lat="44.86379" lon="5.70253">
        <ele>611.49</ele>
        <time>2019-11-01T12:13:47Z</time>
      </trkpt>
      <trkpt lat="44.86375" lon="5.70251">
        <ele>610.62</ele>
        <time>2019-11-01T12:13:48Z</time>
      </trkpt>
      <trkpt lat="44.8637" lon="5.70249">
        <ele>609.87</ele>
        <time>2019-11-01T12:13:49Z</time>
      </trkpt>
      <trkpt lat="44.86365" lon="5.70248">
        <ele>609.44</ele>
        <time>2019-11-01T12:13:50Z</time>
      </trkpt>
      <trkpt lat="44.8636" lon="5.70245">
        <ele>608.74</ele>
        <time>2019-11-01T12:13:51Z</time>
      </trkpt>
      <trkpt lat="44.86356" lon="5.70239">
        <ele>608.26</ele>
        <time>2019-11-01T12:13:52Z</time>
      </trkpt>
      <trkpt lat="44.86352" lon="5.70231">
        <ele>607.41</ele>
        <time>2019-11-01T12:13:53Z</time>
      </trkpt>
      <trkpt lat="44.86351" lon="5.70223">
        <ele>606.39</ele>
        <time>2019-11-01T12:13:54Z</time>
      </trkpt>
      <trkpt lat="44.86351" lon="5.70214">
        <ele>605.8</ele>
        <time>2019-11-01T12:13:55Z</time>
      </trkpt>
      <trkpt lat="44.86351" lon="5.70206">
        <ele>605.06</ele>
        <time>2019-11-01T12:13:56Z</time>
      </trkpt>
      <trkpt lat="44.86351" lon="5.70197">
        <ele>604.28</ele>
        <time>2019-11-01T12:13:57Z</time>
      </trkpt>
      <trkpt lat="44.86352" lon="5.70187">
        <ele>603.49</ele>
        <time>2019-11-01T12:13:58Z</time>
      </trkpt>
      <trkpt lat="44.86351" lon="5.70178">
        <ele>602.27</ele>
        <time>2019-11-01T12:13:59Z</time>
      </trkpt>
      <trkpt lat="44.8635" lon="5.70168">
        <ele>600.86</ele>
        <time>2019-11-01T12:14:00Z</time>
      </trkpt>
      <trkpt lat="44.86349" lon="5.70158">
        <ele>599.59</ele>
        <time>2019-11-01T12:14:01Z</time>
      </trkpt>
      <trkpt lat="44.86346" lon="5.70149">
        <ele>598.72</ele>
        <time>2019-11-01T12:14:02Z</time>
      </trkpt>
      <trkpt lat="44.86344" lon="5.70139">
        <ele>597.9</ele>
        <time>2019-11-01T12:14:03Z</time>
      </trkpt>
      <trkpt lat="44.86341" lon="5.70131">
        <ele>596.6</ele>
        <time>2019-11-01T12:14:04Z</time>
      </trkpt>
      <trkpt lat="44.86339" lon="5.70122">
        <ele>595.17</ele>
        <time>2019-11-01T12:14:05Z</time>
      </trkpt>
      <trkpt lat="44.86337" lon="5.70114">
        <ele>594.03</ele>
        <time>2019-11-01T12:14:06Z</time>
      </trkpt>
      <trkpt lat="44.86335" lon="5.70105">
        <ele>593.27</ele>
        <time>2019-11-01T12:14:07Z</time>
      </trkpt>
      <trkpt lat="44.86335" lon="5.70096">
        <ele>592.49</ele>
        <time>2019-11-01T12:14:08Z</time>
      </trkpt>
      <trkpt lat="44.86336" lon="5.70088">
        <ele>591.62</ele>
        <time>2019-11-01T12:14:09Z</time>
      </trkpt>
      <trkpt lat="44.86336" lon="5.70081">
        <ele>590.59</ele>
        <time>2019-11-01T12:14:10Z</time>
      </trkpt>
      <trkpt lat="44.86337" lon="5.70074">
        <ele>589.37</ele>
        <time>2019-11-01T12:14:11Z</time>
      </trkpt>
      <trkpt lat="44.86338" lon="5.70067">
        <ele>588.38</ele>
        <time>2019-11-01T12:14:12Z</time>
      </trkpt>
      <trkpt lat="44.86339" lon="5.70061">
        <ele>587.45</ele>
        <time>2019-11-01T12:14:13Z</time>
      </trkpt>
      <trkpt lat="44.86341" lon="5.70055">
        <ele>586.68</ele>
        <time>2019-11-01T12:14:14Z</time>
      </trkpt>
      <trkpt lat="44.86344" lon="5.70048">
        <ele>586.03</ele>
        <time>2019-11-01T12:14:15Z</time>
      </trkpt>
      <trkpt lat="44.86347" lon="5.70042">
        <ele>585.76</ele>
        <time>2019-11-01T12:14:16Z</time>
      </trkpt>
      <trkpt lat="44.8635" lon="5.70036">
        <ele>585.54</ele>
        <time>2019-11-01T12:14:17Z</time>
      </trkpt>
      <trkpt lat="44.86353" lon="5.7003">
        <ele>585.13</ele>
        <time>2019-11-01T12:14:18Z</time>
      </trkpt>
      <trkpt lat="44.86356" lon="5.70023">
        <ele>584.72</ele>
        <time>2019-11-01T12:14:19Z</time>
      </trkpt>
      <trkpt lat="44.86359" lon="5.70016">
        <ele>584.25</ele>
        <time>2019-11-01T12:14:20Z</time>
      </trkpt>
      <trkpt lat="44.86363" lon="5.70008">
        <ele>584.39</ele>
        <time>2019-11-01T12:14:21Z</time>
      </trkpt>
      <trkpt lat="44.86366" lon="5.70001">
        <ele>584.15</ele>
        <time>2019-11-01T12:14:22Z</time>
      </trkpt>
      <trkpt lat="44.86367" lon="5.69997">
        <ele>584.22</ele>
        <time>2019-11-01T12:14:23Z</time>
      </trkpt>
      <trkpt lat="44.86369" lon="5.69994">
        <ele>584.45</ele>
        <time>2019-11-01T12:14:24Z</time>
      </trkpt>
      <trkpt lat="44.8637" lon="5.69989">
        <ele>585.57</ele>
        <time>2019-11-01T12:14:32Z</time>
      </trkpt>
      <trkpt lat="44.86372" lon="5.69986">
        <ele>586.62</ele>
        <time>2019-11-01T12:14:34Z</time>
      </trkpt>
      <trkpt lat="44.86373" lon="5.69983">
        <ele>587.2</ele>
        <time>2019-11-01T12:14:36Z</time>
      </trkpt>
      <trkpt lat="44.86376" lon="5.69979">
        <ele>588.12</ele>
        <time>2019-11-01T12:14:38Z</time>
      </trkpt>
      <trkpt lat="44.86376" lon="5.69975">
        <ele>589.02</ele>
        <time>2019-11-01T12:14:40Z</time>
      </trkpt>
      <trkpt lat="44.86378" lon="5.6997">
        <ele>590.22</ele>
        <time>2019-11-01T12:14:42Z</time>
      </trkpt>
      <trkpt lat="44.86378" lon="5.69968">
        <ele>590.73</ele>
        <time>2019-11-01T12:14:43Z</time>
      </trkpt>
      <trkpt lat="44.86379" lon="5.69964">
        <ele>592.26</ele>
        <time>2019-11-01T12:14:45Z</time>
      </trkpt>
      <trkpt lat="44.8638" lon="5.6996">
        <ele>593.87</ele>
        <time>2019-11-01T12:14:47Z</time>
      </trkpt>
      <trkpt lat="44.86381" lon="5.69958">
        <ele>594.28</ele>
        <time>2019-11-01T12:14:48Z</time>
      </trkpt>
      <trkpt lat="44.86383" lon="5.69954">
        <ele>595.08</ele>
        <time>2019-11-01T12:14:50Z</time>
      </trkpt>
      <trkpt lat="44.86385" lon="5.69952">
        <ele>595.41</ele>
        <time>2019-11-01T12:14:51Z</time>
      </trkpt>
      <trkpt lat="44.86387" lon="5.6995">
        <ele>596</ele>
        <time>2019-11-01T12:14:52Z</time>
      </trkpt>
      <trkpt lat="44.86389" lon="5.69946">
        <ele>596.69</ele>
        <time>2019-11-01T12:14:54Z</time>
      </trkpt>
      <trkpt lat="44.8639" lon="5.69943">
        <ele>597.34</ele>
        <time>2019-11-01T12:14:56Z</time>
      </trkpt>
      <trkpt lat="44.8639" lon="5.69939">
        <ele>597.92</ele>
        <time>2019-11-01T12:14:58Z</time>
      </trkpt>
      <trkpt lat="44.86389" lon="5.69936">
        <ele>598.29</ele>
        <time>2019-11-01T12:14:59Z</time>
      </trkpt>
      <trkpt lat="44.86389" lon="5.69933">
        <ele>599.16</ele>
        <time>2019-11-01T12:15:01Z</time>
      </trkpt>
      <trkpt lat="44.8639" lon="5.6993">
        <ele>599.93</ele>
        <time>2019-11-01T12:15:03Z</time>
      </trkpt>
      <trkpt lat="44.86392" lon="5.69926">
        <ele>600.45</ele>
        <time>2019-11-01T12:15:05Z</time>
      </trkpt>
      <trkpt lat="44.86392" lon="5.69922">
        <ele>600.76</ele>
        <time>2019-11-01T12:15:07Z</time>
      </trkpt>
      <trkpt lat="44.86393" lon="5.69918">
        <ele>601.19</ele>
        <time>2019-11-01T12:15:09Z</time>
      </trkpt>
      <trkpt lat="44.86393" lon="5.69915">
        <ele>601.91</ele>
        <time>2019-11-01T12:15:11Z</time>
      </trkpt>
      <trkpt lat="44.86393" lon="5.69911">
        <ele>602.43</ele>
        <time>2019-11-01T12:15:13Z</time>
      </trkpt>
      <trkpt lat="44.86392" lon="5.69909">
        <ele>602.79</ele>
        <time>2019-11-01T12:15:15Z</time>
      </trkpt>
      <trkpt lat="44.864" lon="5.69906">
        <ele>602.62</ele>
        <time>2019-11-01T12:18:16Z</time>
      </trkpt>
      <trkpt lat="44.86398" lon="5.69906">
        <ele>600.46</ele>
        <time>2019-11-01T12:33:03Z</time>
      </trkpt>
      <trkpt lat="44.86396" lon="5.69907">
        <ele>599.88</ele>
        <time>2019-11-01T12:33:05Z</time>
      </trkpt>
      <trkpt lat="44.86393" lon="5.69909">
        <ele>600.17</ele>
        <time>2019-11-01T12:33:07Z</time>
      </trkpt>
      <trkpt lat="44.8639" lon="5.6991">
        <ele>600.8</ele>
        <time>2019-11-01T12:33:09Z</time>
      </trkpt>
      <trkpt lat="44.86387" lon="5.6991">
        <ele>601.33</ele>
        <time>2019-11-01T12:33:11Z</time>
      </trkpt>
      <trkpt lat="44.86384" lon="5.69911">
        <ele>601.69</ele>
        <time>2019-11-01T12:33:13Z</time>
      </trkpt>
      <trkpt lat="44.86382" lon="5.69912">
        <ele>601.97</ele>
        <time>2019-11-01T12:33:15Z</time>
      </trkpt>
      <trkpt lat="44.8638" lon="5.69912">
        <ele>602.29</ele>
        <time>2019-11-01T12:33:17Z</time>
      </trkpt>
      <trkpt lat="44.86378" lon="5.69913">
        <ele>602.76</ele>
        <time>2019-11-01T12:33:19Z</time>
      </trkpt>
      <trkpt lat="44.86376" lon="5.69913">
        <ele>602.91</ele>
        <time>2019-11-01T12:33:21Z</time>
      </trkpt>
      <trkpt lat="44.86373" lon="5.69913">
        <ele>603.11</ele>
        <time>2019-11-01T12:33:23Z</time>
      </trkpt>
      <trkpt lat="44.8637" lon="5.69914">
        <ele>603.31</ele>
        <time>2019-11-01T12:33:25Z</time>
      </trkpt>
      <trkpt lat="44.86367" lon="5.69916">
        <ele>603.76</ele>
        <time>2019-11-01T12:33:27Z</time>
      </trkpt>
      <trkpt lat="44.86364" lon="5.69917">
        <ele>604.25</ele>
        <time>2019-11-01T12:33:29Z</time>
      </trkpt>
      <trkpt lat="44.86361" lon="5.69918">
        <ele>604.73</ele>
        <time>2019-11-01T12:33:31Z</time>
      </trkpt>
      <trkpt lat="44.86359" lon="5.6992">
        <ele>605.32</ele>
        <time>2019-11-01T12:33:33Z</time>
      </trkpt>
      <trkpt lat="44.86356" lon="5.6992">
        <ele>605.85</ele>
        <time>2019-11-01T12:33:35Z</time>
      </trkpt>
      <trkpt lat="44.86354" lon="5.6992">
        <ele>606.2</ele>
        <time>2019-11-01T12:33:36Z</time>
      </trkpt>
      <trkpt lat="44.86352" lon="5.69922">
        <ele>606.98</ele>
        <time>2019-11-01T12:33:38Z</time>
      </trkpt>
      <trkpt lat="44.8635" lon="5.69922">
        <ele>607.24</ele>
        <time>2019-11-01T12:33:39Z</time>
      </trkpt>
      <trkpt lat="44.86347" lon="5.69923">
        <ele>607.57</ele>
        <time>2019-11-01T12:33:41Z</time>
      </trkpt>
      <trkpt lat="44.86344" lon="5.69925">
        <ele>607.96</ele>
        <time>2019-11-01T12:33:43Z</time>
      </trkpt>
      <trkpt lat="44.86341" lon="5.69926">
        <ele>608.22</ele>
        <time>2019-11-01T12:33:45Z</time>
      </trkpt>
      <trkpt lat="44.86338" lon="5.69925">
        <ele>608.41</ele>
        <time>2019-11-01T12:33:47Z</time>
      </trkpt>
      <trkpt lat="44.86336" lon="5.69924">
        <ele>608.51</ele>
        <time>2019-11-01T12:33:48Z</time>
      </trkpt>
      <trkpt lat="44.86333" lon="5.69923">
        <ele>608.75</ele>
        <time>2019-11-01T12:33:49Z</time>
      </trkpt>
      <trkpt lat="44.8633" lon="5.69921">
        <ele>608.89</ele>
        <time>2019-11-01T12:33:50Z</time>
      </trkpt>
      <trkpt lat="44.86328" lon="5.69917">
        <ele>608.65</ele>
        <time>2019-11-01T12:33:51Z</time>
      </trkpt>
      <trkpt lat="44.86326" lon="5.69911">
        <ele>608.44</ele>
        <time>2019-11-01T12:33:52Z</time>
      </trkpt>
      <trkpt lat="44.86323" lon="5.69903">
        <ele>608.1</ele>
        <time>2019-11-01T12:33:53Z</time>
      </trkpt>
      <trkpt lat="44.8632" lon="5.69895">
        <ele>607.64</ele>
        <time>2019-11-01T12:33:54Z</time>
      </trkpt>
      <trkpt lat="44.86317" lon="5.69887">
        <ele>607.37</ele>
        <time>2019-11-01T12:33:55Z</time>
      </trkpt>
      <trkpt lat="44.86314" lon="5.69878">
        <ele>607.42</ele>
        <time>2019-11-01T12:33:56Z</time>
      </trkpt>
      <trkpt lat="44.86312" lon="5.69869">
        <ele>607.02</ele>
        <time>2019-11-01T12:33:57Z</time>
      </trkpt>
      <trkpt lat="44.8631" lon="5.69861">
        <ele>605.99</ele>
        <time>2019-11-01T12:33:58Z</time>
      </trkpt>
      <trkpt lat="44.86307" lon="5.69852">
        <ele>604.63</ele>
        <time>2019-11-01T12:33:59Z</time>
      </trkpt>
      <trkpt lat="44.86304" lon="5.69844">
        <ele>603.52</ele>
        <time>2019-11-01T12:34:00Z</time>
      </trkpt>
      <trkpt lat="44.86301" lon="5.69836">
        <ele>602.49</ele>
        <time>2019-11-01T12:34:01Z</time>
      </trkpt>
      <trkpt lat="44.86299" lon="5.69828">
        <ele>601.62</ele>
        <time>2019-11-01T12:34:02Z</time>
      </trkpt>
      <trkpt lat="44.86297" lon="5.69821">
        <ele>600.94</ele>
        <time>2019-11-01T12:34:03Z</time>
      </trkpt>
      <trkpt lat="44.86295" lon="5.69814">
        <ele>600.32</ele>
        <time>2019-11-01T12:34:04Z</time>
      </trkpt>
      <trkpt lat="44.86293" lon="5.69807">
        <ele>600.06</ele>
        <time>2019-11-01T12:34:05Z</time>
      </trkpt>
      <trkpt lat="44.86291" lon="5.69801">
        <ele>599.84</ele>
        <time>2019-11-01T12:34:06Z</time>
      </trkpt>
      <trkpt lat="44.86289" lon="5.69796">
        <ele>599.99</ele>
        <time>2019-11-01T12:34:07Z</time>
      </trkpt>
      <trkpt lat="44.86288" lon="5.69792">
        <ele>600.1</ele>
        <time>2019-11-01T12:34:08Z</time>
      </trkpt>
      <trkpt lat="44.86287" lon="5.69789">
        <ele>600.13</ele>
        <time>2019-11-01T12:34:09Z</time>
      </trkpt>
      <trkpt lat="44.86285" lon="5.69786">
        <ele>600.14</ele>
        <time>2019-11-01T12:34:10Z</time>
      </trkpt>
      <trkpt lat="44.86284" lon="5.69783">
        <ele>600.15</ele>
        <time>2019-11-01T12:34:11Z</time>
      </trkpt>
      <trkpt lat="44.86283" lon="5.6978">
        <ele>600.36</ele>
        <time>2019-11-01T12:34:12Z</time>
      </trkpt>
      <trkpt lat="44.86282" lon="5.69777">
        <ele>600.7</ele>
        <time>2019-11-01T12:34:13Z</time>
      </trkpt>
      <trkpt lat="44.86281" lon="5.69775">
        <ele>601.22</ele>
        <time>2019-11-01T12:34:14Z</time>
      </trkpt>
      <trkpt lat="44.8628" lon="5.69772">
        <ele>601.59</ele>
        <time>2019-11-01T12:34:15Z</time>
      </trkpt>
      <trkpt lat="44.86279" lon="5.69769">
        <ele>601.77</ele>
        <time>2019-11-01T12:34:16Z</time>
      </trkpt>
      <trkpt lat="44.86278" lon="5.69765">
        <ele>602.44</ele>
        <time>2019-11-01T12:34:18Z</time>
      </trkpt>
      <trkpt lat="44.86277" lon="5.6976">
        <ele>603.67</ele>
        <time>2019-11-01T12:34:20Z</time>
      </trkpt>
      <trkpt lat="44.86277" lon="5.69756">
        <ele>604.94</ele>
        <time>2019-11-01T12:34:22Z</time>
      </trkpt>
      <trkpt lat="44.86275" lon="5.69753">
        <ele>606.51</ele>
        <time>2019-11-01T12:34:24Z</time>
      </trkpt>
      <trkpt lat="44.86275" lon="5.6975">
        <ele>607.62</ele>
        <time>2019-11-01T12:34:26Z</time>
      </trkpt>
      <trkpt lat="44.86275" lon="5.69747">
        <ele>608.29</ele>
        <time>2019-11-01T12:34:28Z</time>
      </trkpt>
      <trkpt lat="44.86275" lon="5.69744">
        <ele>609.31</ele>
        <time>2019-11-01T12:34:30Z</time>
      </trkpt>
      <trkpt lat="44.86275" lon="5.6974">
        <ele>610.1</ele>
        <time>2019-11-01T12:34:32Z</time>
      </trkpt>
      <trkpt lat="44.86275" lon="5.69737">
        <ele>610.88</ele>
        <time>2019-11-01T12:34:34Z</time>
      </trkpt>
      <trkpt lat="44.86275" lon="5.69733">
        <ele>611.91</ele>
        <time>2019-11-01T12:34:36Z</time>
      </trkpt>
      <trkpt lat="44.86275" lon="5.6973">
        <ele>613.09</ele>
        <time>2019-11-01T12:34:38Z</time>
      </trkpt>
      <trkpt lat="44.86275" lon="5.69727">
        <ele>614.22</ele>
        <time>2019-11-01T12:34:40Z</time>
      </trkpt>
      <trkpt lat="44.86275" lon="5.69723">
        <ele>615.32</ele>
        <time>2019-11-01T12:34:42Z</time>
      </trkpt>
      <trkpt lat="44.86275" lon="5.69721">
        <ele>615.94</ele>
        <time>2019-11-01T12:34:44Z</time>
      </trkpt>
      <trkpt lat="44.86275" lon="5.69717">
        <ele>616.59</ele>
        <time>2019-11-01T12:34:46Z</time>
      </trkpt>
      <trkpt lat="44.86276" lon="5.69714">
        <ele>616.99</ele>
        <time>2019-11-01T12:34:48Z</time>
      </trkpt>
      <trkpt lat="44.86275" lon="5.6971">
        <ele>617.56</ele>
        <time>2019-11-01T12:34:51Z</time>
      </trkpt>
      <trkpt lat="44.86275" lon="5.69707">
        <ele>617.82</ele>
        <time>2019-11-01T12:34:53Z</time>
      </trkpt>
      <trkpt lat="44.86274" lon="5.69704">
        <ele>617.3</ele>
        <time>2019-11-01T12:34:55Z</time>
      </trkpt>
      <trkpt lat="44.86275" lon="5.697">
        <ele>617.41</ele>
        <time>2019-11-01T12:34:57Z</time>
      </trkpt>
      <trkpt lat="44.86275" lon="5.69696">
        <ele>617.52</ele>
        <time>2019-11-01T12:34:59Z</time>
      </trkpt>
      <trkpt lat="44.86274" lon="5.69693">
        <ele>617.15</ele>
        <time>2019-11-01T12:35:01Z</time>
      </trkpt>
      <trkpt lat="44.86274" lon="5.6969">
        <ele>616.65</ele>
        <time>2019-11-01T12:35:03Z</time>
      </trkpt>
      <trkpt lat="44.86274" lon="5.69686">
        <ele>617.11</ele>
        <time>2019-11-01T12:35:05Z</time>
      </trkpt>
      <trkpt lat="44.86274" lon="5.69683">
        <ele>617.83</ele>
        <time>2019-11-01T12:35:07Z</time>
      </trkpt>
      <trkpt lat="44.86274" lon="5.6968">
        <ele>618.44</ele>
        <time>2019-11-01T12:35:09Z</time>
      </trkpt>
      <trkpt lat="44.86275" lon="5.69676">
        <ele>618.53</ele>
        <time>2019-11-01T12:35:12Z</time>
      </trkpt>
      <trkpt lat="44.86275" lon="5.69672">
        <ele>618.75</ele>
        <time>2019-11-01T12:35:14Z</time>
      </trkpt>
      <trkpt lat="44.86276" lon="5.69668">
        <ele>618.68</ele>
        <time>2019-11-01T12:35:16Z</time>
      </trkpt>
      <trkpt lat="44.86276" lon="5.69664">
        <ele>618.33</ele>
        <time>2019-11-01T12:35:18Z</time>
      </trkpt>
      <trkpt lat="44.86276" lon="5.6966">
        <ele>618</ele>
        <time>2019-11-01T12:35:20Z</time>
      </trkpt>
      <trkpt lat="44.86276" lon="5.69656">
        <ele>618.37</ele>
        <time>2019-11-01T12:35:22Z</time>
      </trkpt>
      <trkpt lat="44.86277" lon="5.69652">
        <ele>618.83</ele>
        <time>2019-11-01T12:35:24Z</time>
      </trkpt>
      <trkpt lat="44.86278" lon="5.69648">
        <ele>619.35</ele>
        <time>2019-11-01T12:35:26Z</time>
      </trkpt>
      <trkpt lat="44.86278" lon="5.69643">
        <ele>619.9</ele>
        <time>2019-11-01T12:35:28Z</time>
      </trkpt>
      <trkpt lat="44.86278" lon="5.6964">
        <ele>620.14</ele>
        <time>2019-11-01T12:35:29Z</time>
      </trkpt>
      <trkpt lat="44.86279" lon="5.69636">
        <ele>620.58</ele>
        <time>2019-11-01T12:35:31Z</time>
      </trkpt>
      <trkpt lat="44.8628" lon="5.69631">
        <ele>621.22</ele>
        <time>2019-11-01T12:35:33Z</time>
      </trkpt>
      <trkpt lat="44.8628" lon="5.69629">
        <ele>621.38</ele>
        <time>2019-11-01T12:35:34Z</time>
      </trkpt>
      <trkpt lat="44.86281" lon="5.69626">
        <ele>621.29</ele>
        <time>2019-11-01T12:35:35Z</time>
      </trkpt>
      <trkpt lat="44.86281" lon="5.69624">
        <ele>621.33</ele>
        <time>2019-11-01T12:35:36Z</time>
      </trkpt>
      <trkpt lat="44.86281" lon="5.69621">
        <ele>621.48</ele>
        <time>2019-11-01T12:35:37Z</time>
      </trkpt>
      <trkpt lat="44.86282" lon="5.69618">
        <ele>621.74</ele>
        <time>2019-11-01T12:35:38Z</time>
      </trkpt>
      <trkpt lat="44.86282" lon="5.69616">
        <ele>621.82</ele>
        <time>2019-11-01T12:35:39Z</time>
      </trkpt>
      <trkpt lat="44.86283" lon="5.69613">
        <ele>621.77</ele>
        <time>2019-11-01T12:35:40Z</time>
      </trkpt>
      <trkpt lat="44.86284" lon="5.69611">
        <ele>621.76</ele>
        <time>2019-11-01T12:35:41Z</time>
      </trkpt>
      <trkpt lat="44.86284" lon="5.69608">
        <ele>621.82</ele>
        <time>2019-11-01T12:35:42Z</time>
      </trkpt>
      <trkpt lat="44.86286" lon="5.69603">
        <ele>622.17</ele>
        <time>2019-11-01T12:35:44Z</time>
      </trkpt>
      <trkpt lat="44.86287" lon="5.69601">
        <ele>622.22</ele>
        <time>2019-11-01T12:35:45Z</time>
      </trkpt>
      <trkpt lat="44.86287" lon="5.69598">
        <ele>622.24</ele>
        <time>2019-11-01T12:35:46Z</time>
      </trkpt>
      <trkpt lat="44.86288" lon="5.69596">
        <ele>622.32</ele>
        <time>2019-11-01T12:35:47Z</time>
      </trkpt>
      <trkpt lat="44.86289" lon="5.69593">
        <ele>622.34</ele>
        <time>2019-11-01T12:35:48Z</time>
      </trkpt>
      <trkpt lat="44.8629" lon="5.69591">
        <ele>622.35</ele>
        <time>2019-11-01T12:35:49Z</time>
      </trkpt>
      <trkpt lat="44.86291" lon="5.69586">
        <ele>622.17</ele>
        <time>2019-11-01T12:35:51Z</time>
      </trkpt>
      <trkpt lat="44.86292" lon="5.69582">
        <ele>621.81</ele>
        <time>2019-11-01T12:35:53Z</time>
      </trkpt>
      <trkpt lat="44.86293" lon="5.69579">
        <ele>621.98</ele>
        <time>2019-11-01T12:35:54Z</time>
      </trkpt>
      <trkpt lat="44.86294" lon="5.69576">
        <ele>622.1</ele>
        <time>2019-11-01T12:35:55Z</time>
      </trkpt>
      <trkpt lat="44.86294" lon="5.69573">
        <ele>622.06</ele>
        <time>2019-11-01T12:35:56Z</time>
      </trkpt>
      <trkpt lat="44.86295" lon="5.6957">
        <ele>622.05</ele>
        <time>2019-11-01T12:35:57Z</time>
      </trkpt>
      <trkpt lat="44.86296" lon="5.69567">
        <ele>622.47</ele>
        <time>2019-11-01T12:35:58Z</time>
      </trkpt>
      <trkpt lat="44.86297" lon="5.69564">
        <ele>622.6</ele>
        <time>2019-11-01T12:35:59Z</time>
      </trkpt>
      <trkpt lat="44.86297" lon="5.6956">
        <ele>622.42</ele>
        <time>2019-11-01T12:36:00Z</time>
      </trkpt>
      <trkpt lat="44.86298" lon="5.69557">
        <ele>622.51</ele>
        <time>2019-11-01T12:36:01Z</time>
      </trkpt>
      <trkpt lat="44.86299" lon="5.69554">
        <ele>622.75</ele>
        <time>2019-11-01T12:36:02Z</time>
      </trkpt>
      <trkpt lat="44.863" lon="5.69551">
        <ele>622.96</ele>
        <time>2019-11-01T12:36:03Z</time>
      </trkpt>
      <trkpt lat="44.863" lon="5.69549">
        <ele>623.09</ele>
        <time>2019-11-01T12:36:04Z</time>
      </trkpt>
      <trkpt lat="44.86301" lon="5.69545">
        <ele>623.03</ele>
        <time>2019-11-01T12:36:06Z</time>
      </trkpt>
      <trkpt lat="44.86303" lon="5.69537">
        <ele>622.81</ele>
        <time>2019-11-01T12:36:25Z</time>
      </trkpt>
      <trkpt lat="44.86304" lon="5.69534">
        <ele>622.77</ele>
        <time>2019-11-01T12:36:26Z</time>
      </trkpt>
      <trkpt lat="44.86305" lon="5.69529">
        <ele>622.68</ele>
        <time>2019-11-01T12:36:27Z</time>
      </trkpt>
      <trkpt lat="44.86307" lon="5.69524">
        <ele>622.66</ele>
        <time>2019-11-01T12:36:28Z</time>
      </trkpt>
      <trkpt lat="44.86308" lon="5.69517">
        <ele>622.58</ele>
        <time>2019-11-01T12:36:29Z</time>
      </trkpt>
      <trkpt lat="44.8631" lon="5.69512">
        <ele>622.56</ele>
        <time>2019-11-01T12:36:30Z</time>
      </trkpt>
      <trkpt lat="44.86313" lon="5.69506">
        <ele>622.48</ele>
        <time>2019-11-01T12:36:31Z</time>
      </trkpt>
      <trkpt lat="44.86316" lon="5.69501">
        <ele>622.39</ele>
        <time>2019-11-01T12:36:32Z</time>
      </trkpt>
      <trkpt lat="44.86319" lon="5.69497">
        <ele>622.22</ele>
        <time>2019-11-01T12:36:33Z</time>
      </trkpt>
      <trkpt lat="44.86323" lon="5.69493">
        <ele>622.17</ele>
        <time>2019-11-01T12:36:34Z</time>
      </trkpt>
      <trkpt lat="44.86327" lon="5.6949">
        <ele>621.95</ele>
        <time>2019-11-01T12:36:35Z</time>
      </trkpt>
      <trkpt lat="44.86333" lon="5.69485">
        <ele>621.74</ele>
        <time>2019-11-01T12:36:36Z</time>
      </trkpt>
      <trkpt lat="44.86338" lon="5.6948">
        <ele>621.19</ele>
        <time>2019-11-01T12:36:37Z</time>
      </trkpt>
      <trkpt lat="44.86344" lon="5.69474">
        <ele>620.32</ele>
        <time>2019-11-01T12:36:38Z</time>
      </trkpt>
      <trkpt lat="44.86349" lon="5.69467">
        <ele>619.5</ele>
        <time>2019-11-01T12:36:39Z</time>
      </trkpt>
      <trkpt lat="44.86354" lon="5.69458">
        <ele>618.83</ele>
        <time>2019-11-01T12:36:40Z</time>
      </trkpt>
      <trkpt lat="44.8636" lon="5.69449">
        <ele>618.28</ele>
        <time>2019-11-01T12:36:41Z</time>
      </trkpt>
      <trkpt lat="44.86364" lon="5.69439">
        <ele>617.63</ele>
        <time>2019-11-01T12:36:42Z</time>
      </trkpt>
      <trkpt lat="44.86367" lon="5.69431">
        <ele>616.66</ele>
        <time>2019-11-01T12:36:43Z</time>
      </trkpt>
      <trkpt lat="44.86369" lon="5.69423">
        <ele>615.46</ele>
        <time>2019-11-01T12:36:44Z</time>
      </trkpt>
      <trkpt lat="44.8637" lon="5.69416">
        <ele>614.47</ele>
        <time>2019-11-01T12:36:45Z</time>
      </trkpt>
      <trkpt lat="44.86369" lon="5.6941">
        <ele>613.48</ele>
        <time>2019-11-01T12:36:46Z</time>
      </trkpt>
      <trkpt lat="44.86367" lon="5.69407">
        <ele>612.76</ele>
        <time>2019-11-01T12:36:47Z</time>
      </trkpt>
      <trkpt lat="44.86366" lon="5.69405">
        <ele>612.12</ele>
        <time>2019-11-01T12:36:48Z</time>
      </trkpt>
      <trkpt lat="44.86364" lon="5.69403">
        <ele>611.51</ele>
        <time>2019-11-01T12:36:49Z</time>
      </trkpt>
      <trkpt lat="44.86362" lon="5.694">
        <ele>610.54</ele>
        <time>2019-11-01T12:36:51Z</time>
      </trkpt>
      <trkpt lat="44.8636" lon="5.69398">
        <ele>610.2</ele>
        <time>2019-11-01T12:36:52Z</time>
      </trkpt>
      <trkpt lat="44.86358" lon="5.69396">
        <ele>610.09</ele>
        <time>2019-11-01T12:36:53Z</time>
      </trkpt>
      <trkpt lat="44.86356" lon="5.69395">
        <ele>610.41</ele>
        <time>2019-11-01T12:36:54Z</time>
      </trkpt>
      <trkpt lat="44.86354" lon="5.69394">
        <ele>611</ele>
        <time>2019-11-01T12:36:55Z</time>
      </trkpt>
      <trkpt lat="44.86352" lon="5.69392">
        <ele>611.62</ele>
        <time>2019-11-01T12:36:57Z</time>
      </trkpt>
      <trkpt lat="44.8635" lon="5.69388">
        <ele>612.04</ele>
        <time>2019-11-01T12:36:59Z</time>
      </trkpt>
      <trkpt lat="44.86349" lon="5.69386">
        <ele>612.54</ele>
        <time>2019-11-01T12:37:00Z</time>
      </trkpt>
      <trkpt lat="44.86349" lon="5.69383">
        <ele>613.25</ele>
        <time>2019-11-01T12:37:01Z</time>
      </trkpt>
      <trkpt lat="44.86348" lon="5.69379">
        <ele>613.72</ele>
        <time>2019-11-01T12:37:03Z</time>
      </trkpt>
      <trkpt lat="44.86348" lon="5.69374">
        <ele>613.96</ele>
        <time>2019-11-01T12:37:05Z</time>
      </trkpt>
      <trkpt lat="44.86349" lon="5.69369">
        <ele>615.03</ele>
        <time>2019-11-01T12:37:07Z</time>
      </trkpt>
      <trkpt lat="44.86349" lon="5.69366">
        <ele>615.6</ele>
        <time>2019-11-01T12:37:08Z</time>
      </trkpt>
      <trkpt lat="44.86348" lon="5.69364">
        <ele>615.99</ele>
        <time>2019-11-01T12:37:09Z</time>
      </trkpt>
      <trkpt lat="44.86348" lon="5.69361">
        <ele>616.45</ele>
        <time>2019-11-01T12:37:10Z</time>
      </trkpt>
      <trkpt lat="44.86348" lon="5.69357">
        <ele>617.25</ele>
        <time>2019-11-01T12:37:12Z</time>
      </trkpt>
      <trkpt lat="44.86345" lon="5.69354">
        <ele>618.24</ele>
        <time>2019-11-01T12:37:14Z</time>
      </trkpt>
      <trkpt lat="44.86342" lon="5.69353">
        <ele>619.05</ele>
        <time>2019-11-01T12:37:16Z</time>
      </trkpt>
      <trkpt lat="44.8634" lon="5.69355">
        <ele>619.47</ele>
        <time>2019-11-01T12:37:17Z</time>
      </trkpt>
      <trkpt lat="44.86339" lon="5.69356">
        <ele>619.81</ele>
        <time>2019-11-01T12:37:18Z</time>
      </trkpt>
      <trkpt lat="44.86337" lon="5.69358">
        <ele>620.12</ele>
        <time>2019-11-01T12:37:19Z</time>
      </trkpt>
      <trkpt lat="44.86335" lon="5.69362">
        <ele>620.72</ele>
        <time>2019-11-01T12:37:21Z</time>
      </trkpt>
      <trkpt lat="44.86334" lon="5.69365">
        <ele>621.02</ele>
        <time>2019-11-01T12:37:22Z</time>
      </trkpt>
      <trkpt lat="44.86333" lon="5.69367">
        <ele>621.25</ele>
        <time>2019-11-01T12:37:23Z</time>
      </trkpt>
      <trkpt lat="44.86332" lon="5.69369">
        <ele>621.67</ele>
        <time>2019-11-01T12:37:24Z</time>
      </trkpt>
      <trkpt lat="44.8633" lon="5.69372">
        <ele>622.18</ele>
        <time>2019-11-01T12:37:26Z</time>
      </trkpt>
      <trkpt lat="44.86328" lon="5.69374">
        <ele>622.29</ele>
        <time>2019-11-01T12:37:28Z</time>
      </trkpt>
      <trkpt lat="44.86325" lon="5.69377">
        <ele>622.9</ele>
        <time>2019-11-01T12:37:30Z</time>
      </trkpt>
      <trkpt lat="44.86323" lon="5.6938">
        <ele>623.36</ele>
        <time>2019-11-01T12:37:32Z</time>
      </trkpt>
      <trkpt lat="44.86322" lon="5.69382">
        <ele>623.7</ele>
        <time>2019-11-01T12:37:33Z</time>
      </trkpt>
      <trkpt lat="44.86319" lon="5.69382">
        <ele>624.27</ele>
        <time>2019-11-01T12:37:35Z</time>
      </trkpt>
      <trkpt lat="44.86317" lon="5.69384">
        <ele>624.73</ele>
        <time>2019-11-01T12:37:37Z</time>
      </trkpt>
      <trkpt lat="44.86314" lon="5.69384">
        <ele>625.55</ele>
        <time>2019-11-01T12:37:39Z</time>
      </trkpt>
      <trkpt lat="44.86312" lon="5.69382">
        <ele>626.77</ele>
        <time>2019-11-01T12:37:41Z</time>
      </trkpt>
      <trkpt lat="44.86309" lon="5.69382">
        <ele>627.76</ele>
        <time>2019-11-01T12:37:43Z</time>
      </trkpt>
      <trkpt lat="44.86308" lon="5.69381">
        <ele>628.65</ele>
        <time>2019-11-01T12:37:45Z</time>
      </trkpt>
      <trkpt lat="44.86306" lon="5.69378">
        <ele>629.98</ele>
        <time>2019-11-01T12:37:47Z</time>
      </trkpt>
      <trkpt lat="44.86304" lon="5.69378">
        <ele>631.47</ele>
        <time>2019-11-01T12:37:49Z</time>
      </trkpt>
      <trkpt lat="44.86301" lon="5.69378">
        <ele>632.48</ele>
        <time>2019-11-01T12:37:51Z</time>
      </trkpt>
      <trkpt lat="44.86299" lon="5.69377">
        <ele>633.3</ele>
        <time>2019-11-01T12:37:53Z</time>
      </trkpt>
      <trkpt lat="44.86297" lon="5.69375">
        <ele>634.38</ele>
        <time>2019-11-01T12:37:55Z</time>
      </trkpt>
      <trkpt lat="44.86294" lon="5.69375">
        <ele>635.41</ele>
        <time>2019-11-01T12:37:57Z</time>
      </trkpt>
      <trkpt lat="44.86286" lon="5.69368">
        <ele>638.8</ele>
        <time>2019-11-01T12:38:08Z</time>
      </trkpt>
      <trkpt lat="44.86284" lon="5.69368">
        <ele>640.16</ele>
        <time>2019-11-01T12:38:09Z</time>
      </trkpt>
      <trkpt lat="44.86281" lon="5.69365">
        <ele>641.07</ele>
        <time>2019-11-01T12:38:11Z</time>
      </trkpt>
      <trkpt lat="44.86278" lon="5.69363">
        <ele>641.88</ele>
        <time>2019-11-01T12:38:13Z</time>
      </trkpt>
      <trkpt lat="44.86275" lon="5.69362">
        <ele>642</ele>
        <time>2019-11-01T12:38:14Z</time>
      </trkpt>
      <trkpt lat="44.86272" lon="5.6936">
        <ele>642.32</ele>
        <time>2019-11-01T12:38:16Z</time>
      </trkpt>
      <trkpt lat="44.8627" lon="5.69359">
        <ele>642.48</ele>
        <time>2019-11-01T12:38:17Z</time>
      </trkpt>
      <trkpt lat="44.86268" lon="5.69358">
        <ele>642.67</ele>
        <time>2019-11-01T12:38:18Z</time>
      </trkpt>
      <trkpt lat="44.86267" lon="5.69356">
        <ele>642.79</ele>
        <time>2019-11-01T12:38:19Z</time>
      </trkpt>
      <trkpt lat="44.86265" lon="5.69355">
        <ele>642.97</ele>
        <time>2019-11-01T12:38:20Z</time>
      </trkpt>
      <trkpt lat="44.86264" lon="5.69354">
        <ele>643.31</ele>
        <time>2019-11-01T12:38:21Z</time>
      </trkpt>
      <trkpt lat="44.8626" lon="5.69351">
        <ele>643.51</ele>
        <time>2019-11-01T12:38:23Z</time>
      </trkpt>
      <trkpt lat="44.86258" lon="5.69349">
        <ele>643.78</ele>
        <time>2019-11-01T12:38:25Z</time>
      </trkpt>
      <trkpt lat="44.86257" lon="5.69347">
        <ele>644</ele>
        <time>2019-11-01T12:38:27Z</time>
      </trkpt>
      <trkpt lat="44.86255" lon="5.69345">
        <ele>644.44</ele>
        <time>2019-11-01T12:38:29Z</time>
      </trkpt>
      <trkpt lat="44.86252" lon="5.69343">
        <ele>644.95</ele>
        <time>2019-11-01T12:38:31Z</time>
      </trkpt>
      <trkpt lat="44.8625" lon="5.69342">
        <ele>645.34</ele>
        <time>2019-11-01T12:38:33Z</time>
      </trkpt>
      <trkpt lat="44.86248" lon="5.6934">
        <ele>646.06</ele>
        <time>2019-11-01T12:38:35Z</time>
      </trkpt>
      <trkpt lat="44.86246" lon="5.69339">
        <ele>646.83</ele>
        <time>2019-11-01T12:38:37Z</time>
      </trkpt>
      <trkpt lat="44.86244" lon="5.69339">
        <ele>647.35</ele>
        <time>2019-11-01T12:38:39Z</time>
      </trkpt>
      <trkpt lat="44.86241" lon="5.69338">
        <ele>647.69</ele>
        <time>2019-11-01T12:38:41Z</time>
      </trkpt>
      <trkpt lat="44.86239" lon="5.69337">
        <ele>648.14</ele>
        <time>2019-11-01T12:38:43Z</time>
      </trkpt>
      <trkpt lat="44.86236" lon="5.69336">
        <ele>648.8</ele>
        <time>2019-11-01T12:38:45Z</time>
      </trkpt>
      <trkpt lat="44.86235" lon="5.69336">
        <ele>649.32</ele>
        <time>2019-11-01T12:38:46Z</time>
      </trkpt>
      <trkpt lat="44.86231" lon="5.69335">
        <ele>650.21</ele>
        <time>2019-11-01T12:38:48Z</time>
      </trkpt>
      <trkpt lat="44.86229" lon="5.69334">
        <ele>650.66</ele>
        <time>2019-11-01T12:38:50Z</time>
      </trkpt>
      <trkpt lat="44.86226" lon="5.69333">
        <ele>651.29</ele>
        <time>2019-11-01T12:38:52Z</time>
      </trkpt>
      <trkpt lat="44.86223" lon="5.69332">
        <ele>652.01</ele>
        <time>2019-11-01T12:38:54Z</time>
      </trkpt>
      <trkpt lat="44.86221" lon="5.69332">
        <ele>652.39</ele>
        <time>2019-11-01T12:38:56Z</time>
      </trkpt>
      <trkpt lat="44.86219" lon="5.69331">
        <ele>652.74</ele>
        <time>2019-11-01T12:38:58Z</time>
      </trkpt>
      <trkpt lat="44.86215" lon="5.69331">
        <ele>653.25</ele>
        <time>2019-11-01T12:39:00Z</time>
      </trkpt>
      <trkpt lat="44.86212" lon="5.69331">
        <ele>654.01</ele>
        <time>2019-11-01T12:39:02Z</time>
      </trkpt>
      <trkpt lat="44.8621" lon="5.69331">
        <ele>654.6</ele>
        <time>2019-11-01T12:39:04Z</time>
      </trkpt>
      <trkpt lat="44.86205" lon="5.69332">
        <ele>655.69</ele>
        <time>2019-11-01T12:39:08Z</time>
      </trkpt>
      <trkpt lat="44.86202" lon="5.69331">
        <ele>656.21</ele>
        <time>2019-11-01T12:39:10Z</time>
      </trkpt>
      <trkpt lat="44.862" lon="5.69331">
        <ele>656.34</ele>
        <time>2019-11-01T12:39:12Z</time>
      </trkpt>
      <trkpt lat="44.86197" lon="5.69332">
        <ele>656.49</ele>
        <time>2019-11-01T12:39:14Z</time>
      </trkpt>
      <trkpt lat="44.86195" lon="5.69331">
        <ele>656.77</ele>
        <time>2019-11-01T12:39:16Z</time>
      </trkpt>
      <trkpt lat="44.86192" lon="5.6933">
        <ele>656.93</ele>
        <time>2019-11-01T12:39:18Z</time>
      </trkpt>
      <trkpt lat="44.86189" lon="5.69331">
        <ele>657.5</ele>
        <time>2019-11-01T12:39:20Z</time>
      </trkpt>
      <trkpt lat="44.86186" lon="5.69332">
        <ele>658.37</ele>
        <time>2019-11-01T12:39:22Z</time>
      </trkpt>
      <trkpt lat="44.86184" lon="5.69333">
        <ele>658.78</ele>
        <time>2019-11-01T12:39:24Z</time>
      </trkpt>
      <trkpt lat="44.86182" lon="5.69333">
        <ele>659.49</ele>
        <time>2019-11-01T12:39:26Z</time>
      </trkpt>
      <trkpt lat="44.86179" lon="5.69333">
        <ele>659.96</ele>
        <time>2019-11-01T12:39:28Z</time>
      </trkpt>
      <trkpt lat="44.86176" lon="5.69333">
        <ele>660.34</ele>
        <time>2019-11-01T12:39:30Z</time>
      </trkpt>
      <trkpt lat="44.86173" lon="5.69333">
        <ele>660.62</ele>
        <time>2019-11-01T12:39:32Z</time>
      </trkpt>
      <trkpt lat="44.86172" lon="5.69334">
        <ele>660.3</ele>
        <time>2019-11-01T12:39:34Z</time>
      </trkpt>
      <trkpt lat="44.86169" lon="5.69335">
        <ele>660.48</ele>
        <time>2019-11-01T12:39:36Z</time>
      </trkpt>
      <trkpt lat="44.86166" lon="5.69336">
        <ele>661.08</ele>
        <time>2019-11-01T12:39:38Z</time>
      </trkpt>
      <trkpt lat="44.86163" lon="5.69336">
        <ele>661.79</ele>
        <time>2019-11-01T12:39:40Z</time>
      </trkpt>
      <trkpt lat="44.86161" lon="5.69335">
        <ele>662.74</ele>
        <time>2019-11-01T12:39:42Z</time>
      </trkpt>
      <trkpt lat="44.86157" lon="5.69334">
        <ele>663.6</ele>
        <time>2019-11-01T12:39:44Z</time>
      </trkpt>
      <trkpt lat="44.86155" lon="5.69335">
        <ele>663.99</ele>
        <time>2019-11-01T12:39:46Z</time>
      </trkpt>
      <trkpt lat="44.86152" lon="5.69335">
        <ele>664.2</ele>
        <time>2019-11-01T12:39:48Z</time>
      </trkpt>
      <trkpt lat="44.8615" lon="5.69335">
        <ele>664.15</ele>
        <time>2019-11-01T12:39:50Z</time>
      </trkpt>
      <trkpt lat="44.86147" lon="5.69336">
        <ele>664.12</ele>
        <time>2019-11-01T12:39:52Z</time>
      </trkpt>
      <trkpt lat="44.86144" lon="5.69337">
        <ele>663.89</ele>
        <time>2019-11-01T12:39:54Z</time>
      </trkpt>
      <trkpt lat="44.86142" lon="5.69338">
        <ele>663.6</ele>
        <time>2019-11-01T12:39:56Z</time>
      </trkpt>
      <trkpt lat="44.86139" lon="5.69338">
        <ele>663.69</ele>
        <time>2019-11-01T12:39:58Z</time>
      </trkpt>
      <trkpt lat="44.86136" lon="5.69339">
        <ele>663.95</ele>
        <time>2019-11-01T12:40:00Z</time>
      </trkpt>
      <trkpt lat="44.86134" lon="5.6934">
        <ele>664.45</ele>
        <time>2019-11-01T12:40:02Z</time>
      </trkpt>
      <trkpt lat="44.86131" lon="5.69342">
        <ele>664.7</ele>
        <time>2019-11-01T12:40:04Z</time>
      </trkpt>
      <trkpt lat="44.86128" lon="5.69342">
        <ele>664.74</ele>
        <time>2019-11-01T12:40:06Z</time>
      </trkpt>
      <trkpt lat="44.86126" lon="5.69341">
        <ele>664.59</ele>
        <time>2019-11-01T12:40:08Z</time>
      </trkpt>
      <trkpt lat="44.86121" lon="5.69341">
        <ele>664.64</ele>
        <time>2019-11-01T12:40:11Z</time>
      </trkpt>
      <trkpt lat="44.86119" lon="5.69342">
        <ele>664.79</ele>
        <time>2019-11-01T12:40:13Z</time>
      </trkpt>
      <trkpt lat="44.86116" lon="5.69342">
        <ele>664.75</ele>
        <time>2019-11-01T12:40:15Z</time>
      </trkpt>
      <trkpt lat="44.86113" lon="5.69343">
        <ele>665.05</ele>
        <time>2019-11-01T12:40:17Z</time>
      </trkpt>
      <trkpt lat="44.86111" lon="5.69343">
        <ele>665.64</ele>
        <time>2019-11-01T12:40:19Z</time>
      </trkpt>
      <trkpt lat="44.86108" lon="5.69343">
        <ele>665.74</ele>
        <time>2019-11-01T12:40:21Z</time>
      </trkpt>
      <trkpt lat="44.86105" lon="5.69343">
        <ele>665.91</ele>
        <time>2019-11-01T12:40:23Z</time>
      </trkpt>
      <trkpt lat="44.86102" lon="5.69344">
        <ele>666.06</ele>
        <time>2019-11-01T12:40:25Z</time>
      </trkpt>
      <trkpt lat="44.861" lon="5.69344">
        <ele>666.48</ele>
        <time>2019-11-01T12:40:27Z</time>
      </trkpt>
      <trkpt lat="44.86097" lon="5.69343">
        <ele>667.03</ele>
        <time>2019-11-01T12:40:29Z</time>
      </trkpt>
      <trkpt lat="44.86094" lon="5.69343">
        <ele>667.64</ele>
        <time>2019-11-01T12:40:31Z</time>
      </trkpt>
      <trkpt lat="44.86092" lon="5.69343">
        <ele>667.99</ele>
        <time>2019-11-01T12:40:33Z</time>
      </trkpt>
      <trkpt lat="44.86089" lon="5.69343">
        <ele>668.37</ele>
        <time>2019-11-01T12:40:35Z</time>
      </trkpt>
      <trkpt lat="44.86086" lon="5.69343">
        <ele>668.9</ele>
        <time>2019-11-01T12:40:37Z</time>
      </trkpt>
      <trkpt lat="44.86084" lon="5.69342">
        <ele>669.59</ele>
        <time>2019-11-01T12:40:39Z</time>
      </trkpt>
      <trkpt lat="44.86081" lon="5.69341">
        <ele>669.85</ele>
        <time>2019-11-01T12:40:41Z</time>
      </trkpt>
      <trkpt lat="44.86078" lon="5.6934">
        <ele>670.03</ele>
        <time>2019-11-01T12:40:43Z</time>
      </trkpt>
      <trkpt lat="44.86075" lon="5.6934">
        <ele>670.21</ele>
        <time>2019-11-01T12:40:45Z</time>
      </trkpt>
      <trkpt lat="44.86072" lon="5.69338">
        <ele>670.41</ele>
        <time>2019-11-01T12:40:47Z</time>
      </trkpt>
      <trkpt lat="44.8607" lon="5.69336">
        <ele>670.61</ele>
        <time>2019-11-01T12:40:49Z</time>
      </trkpt>
      <trkpt lat="44.86067" lon="5.69335">
        <ele>670.95</ele>
        <time>2019-11-01T12:40:51Z</time>
      </trkpt>
      <trkpt lat="44.86064" lon="5.69334">
        <ele>671.52</ele>
        <time>2019-11-01T12:40:53Z</time>
      </trkpt>
      <trkpt lat="44.86062" lon="5.69333">
        <ele>671.89</ele>
        <time>2019-11-01T12:40:55Z</time>
      </trkpt>
      <trkpt lat="44.86059" lon="5.69331">
        <ele>672.01</ele>
        <time>2019-11-01T12:40:57Z</time>
      </trkpt>
      <trkpt lat="44.86056" lon="5.69329">
        <ele>672.07</ele>
        <time>2019-11-01T12:40:59Z</time>
      </trkpt>
      <trkpt lat="44.86053" lon="5.69326">
        <ele>672.28</ele>
        <time>2019-11-01T12:41:01Z</time>
      </trkpt>
      <trkpt lat="44.86051" lon="5.69325">
        <ele>672.47</ele>
        <time>2019-11-01T12:41:02Z</time>
      </trkpt>
      <trkpt lat="44.86048" lon="5.69324">
        <ele>673</ele>
        <time>2019-11-01T12:41:04Z</time>
      </trkpt>
      <trkpt lat="44.86046" lon="5.69322">
        <ele>673.78</ele>
        <time>2019-11-01T12:41:06Z</time>
      </trkpt>
      <trkpt lat="44.86044" lon="5.6932">
        <ele>674.26</ele>
        <time>2019-11-01T12:41:08Z</time>
      </trkpt>
      <trkpt lat="44.86041" lon="5.69318">
        <ele>674.73</ele>
        <time>2019-11-01T12:41:10Z</time>
      </trkpt>
      <trkpt lat="44.86038" lon="5.69316">
        <ele>675.32</ele>
        <time>2019-11-01T12:41:12Z</time>
      </trkpt>
      <trkpt lat="44.86035" lon="5.69315">
        <ele>675.99</ele>
        <time>2019-11-01T12:41:14Z</time>
      </trkpt>
      <trkpt lat="44.86033" lon="5.69314">
        <ele>676.38</ele>
        <time>2019-11-01T12:41:15Z</time>
      </trkpt>
      <trkpt lat="44.86031" lon="5.69312">
        <ele>676.95</ele>
        <time>2019-11-01T12:41:17Z</time>
      </trkpt>
      <trkpt lat="44.86028" lon="5.6931">
        <ele>677.5</ele>
        <time>2019-11-01T12:41:19Z</time>
      </trkpt>
      <trkpt lat="44.86027" lon="5.69307">
        <ele>677.91</ele>
        <time>2019-11-01T12:41:21Z</time>
      </trkpt>
      <trkpt lat="44.86025" lon="5.69305">
        <ele>678.01</ele>
        <time>2019-11-01T12:41:22Z</time>
      </trkpt>
      <trkpt lat="44.86024" lon="5.69301">
        <ele>678.09</ele>
        <time>2019-11-01T12:41:24Z</time>
      </trkpt>
      <trkpt lat="44.86022" lon="5.69298">
        <ele>677.98</ele>
        <time>2019-11-01T12:41:26Z</time>
      </trkpt>
      <trkpt lat="44.8602" lon="5.69293">
        <ele>677.86</ele>
        <time>2019-11-01T12:41:28Z</time>
      </trkpt>
      <trkpt lat="44.8602" lon="5.69288">
        <ele>677.76</ele>
        <time>2019-11-01T12:41:30Z</time>
      </trkpt>
      <trkpt lat="44.86021" lon="5.69286">
        <ele>677.47</ele>
        <time>2019-11-01T12:41:31Z</time>
      </trkpt>
      <trkpt lat="44.86021" lon="5.69283">
        <ele>677.25</ele>
        <time>2019-11-01T12:41:32Z</time>
      </trkpt>
      <trkpt lat="44.86022" lon="5.69281">
        <ele>677.11</ele>
        <time>2019-11-01T12:41:33Z</time>
      </trkpt>
      <trkpt lat="44.86023" lon="5.69278">
        <ele>677.07</ele>
        <time>2019-11-01T12:41:34Z</time>
      </trkpt>
      <trkpt lat="44.86024" lon="5.69275">
        <ele>676.91</ele>
        <time>2019-11-01T12:41:35Z</time>
      </trkpt>
      <trkpt lat="44.86025" lon="5.69271">
        <ele>676.66</ele>
        <time>2019-11-01T12:41:36Z</time>
      </trkpt>
      <trkpt lat="44.86026" lon="5.69267">
        <ele>676.44</ele>
        <time>2019-11-01T12:41:37Z</time>
      </trkpt>
      <trkpt lat="44.86027" lon="5.69263">
        <ele>676.17</ele>
        <time>2019-11-01T12:41:38Z</time>
      </trkpt>
      <trkpt lat="44.86028" lon="5.69258">
        <ele>675.8</ele>
        <time>2019-11-01T12:41:39Z</time>
      </trkpt>
      <trkpt lat="44.8603" lon="5.69254">
        <ele>675.56</ele>
        <time>2019-11-01T12:41:40Z</time>
      </trkpt>
      <trkpt lat="44.86031" lon="5.69249">
        <ele>675.27</ele>
        <time>2019-11-01T12:41:41Z</time>
      </trkpt>
      <trkpt lat="44.86032" lon="5.69244">
        <ele>675.05</ele>
        <time>2019-11-01T12:41:42Z</time>
      </trkpt>
      <trkpt lat="44.86034" lon="5.6924">
        <ele>674.77</ele>
        <time>2019-11-01T12:41:43Z</time>
      </trkpt>
      <trkpt lat="44.86035" lon="5.69234">
        <ele>674.33</ele>
        <time>2019-11-01T12:41:44Z</time>
      </trkpt>
      <trkpt lat="44.86036" lon="5.69229">
        <ele>673.71</ele>
        <time>2019-11-01T12:41:45Z</time>
      </trkpt>
      <trkpt lat="44.86037" lon="5.69224">
        <ele>673.04</ele>
        <time>2019-11-01T12:41:46Z</time>
      </trkpt>
      <trkpt lat="44.86038" lon="5.69218">
        <ele>672.49</ele>
        <time>2019-11-01T12:41:47Z</time>
      </trkpt>
      <trkpt lat="44.8604" lon="5.69214">
        <ele>672.18</ele>
        <time>2019-11-01T12:41:48Z</time>
      </trkpt>
      <trkpt lat="44.86042" lon="5.69208">
        <ele>671.67</ele>
        <time>2019-11-01T12:41:49Z</time>
      </trkpt>
      <trkpt lat="44.86044" lon="5.69202">
        <ele>670.67</ele>
        <time>2019-11-01T12:41:50Z</time>
      </trkpt>
      <trkpt lat="44.86046" lon="5.69196">
        <ele>669.96</ele>
        <time>2019-11-01T12:41:51Z</time>
      </trkpt>
      <trkpt lat="44.86048" lon="5.69189">
        <ele>669.39</ele>
        <time>2019-11-01T12:41:52Z</time>
      </trkpt>
      <trkpt lat="44.86052" lon="5.69184">
        <ele>669.15</ele>
        <time>2019-11-01T12:41:53Z</time>
      </trkpt>
      <trkpt lat="44.86056" lon="5.69178">
        <ele>669.08</ele>
        <time>2019-11-01T12:41:54Z</time>
      </trkpt>
      <trkpt lat="44.8606" lon="5.69172">
        <ele>669.27</ele>
        <time>2019-11-01T12:41:55Z</time>
      </trkpt>
      <trkpt lat="44.86064" lon="5.69167">
        <ele>669.39</ele>
        <time>2019-11-01T12:41:56Z</time>
      </trkpt>
      <trkpt lat="44.86069" lon="5.69161">
        <ele>669.43</ele>
        <time>2019-11-01T12:41:57Z</time>
      </trkpt>
      <trkpt lat="44.86074" lon="5.69156">
        <ele>669.58</ele>
        <time>2019-11-01T12:41:58Z</time>
      </trkpt>
      <trkpt lat="44.86078" lon="5.69151">
        <ele>669.49</ele>
        <time>2019-11-01T12:41:59Z</time>
      </trkpt>
      <trkpt lat="44.86083" lon="5.69146">
        <ele>669.39</ele>
        <time>2019-11-01T12:42:00Z</time>
      </trkpt>
      <trkpt lat="44.86087" lon="5.69142">
        <ele>669.29</ele>
        <time>2019-11-01T12:42:01Z</time>
      </trkpt>
      <trkpt lat="44.86092" lon="5.69137">
        <ele>669.26</ele>
        <time>2019-11-01T12:42:02Z</time>
      </trkpt>
      <trkpt lat="44.86097" lon="5.69132">
        <ele>669.18</ele>
        <time>2019-11-01T12:42:03Z</time>
      </trkpt>
      <trkpt lat="44.86101" lon="5.69127">
        <ele>669.02</ele>
        <time>2019-11-01T12:42:04Z</time>
      </trkpt>
      <trkpt lat="44.86106" lon="5.69122">
        <ele>668.76</ele>
        <time>2019-11-01T12:42:05Z</time>
      </trkpt>
      <trkpt lat="44.86111" lon="5.69118">
        <ele>668.47</ele>
        <time>2019-11-01T12:42:06Z</time>
      </trkpt>
      <trkpt lat="44.86116" lon="5.69113">
        <ele>668.18</ele>
        <time>2019-11-01T12:42:07Z</time>
      </trkpt>
      <trkpt lat="44.8612" lon="5.69108">
        <ele>667.74</ele>
        <time>2019-11-01T12:42:08Z</time>
      </trkpt>
      <trkpt lat="44.86124" lon="5.69102">
        <ele>667.26</ele>
        <time>2019-11-01T12:42:09Z</time>
      </trkpt>
      <trkpt lat="44.86129" lon="5.69096">
        <ele>666.83</ele>
        <time>2019-11-01T12:42:10Z</time>
      </trkpt>
      <trkpt lat="44.86133" lon="5.6909">
        <ele>666.28</ele>
        <time>2019-11-01T12:42:11Z</time>
      </trkpt>
      <trkpt lat="44.86137" lon="5.69083">
        <ele>665.63</ele>
        <time>2019-11-01T12:42:12Z</time>
      </trkpt>
      <trkpt lat="44.86142" lon="5.69078">
        <ele>665.08</ele>
        <time>2019-11-01T12:42:13Z</time>
      </trkpt>
      <trkpt lat="44.86147" lon="5.69074">
        <ele>664.85</ele>
        <time>2019-11-01T12:42:14Z</time>
      </trkpt>
      <trkpt lat="44.86153" lon="5.69071">
        <ele>664.64</ele>
        <time>2019-11-01T12:42:15Z</time>
      </trkpt>
      <trkpt lat="44.86159" lon="5.69067">
        <ele>664.37</ele>
        <time>2019-11-01T12:42:16Z</time>
      </trkpt>
      <trkpt lat="44.86165" lon="5.69064">
        <ele>664</ele>
        <time>2019-11-01T12:42:17Z</time>
      </trkpt>
      <trkpt lat="44.86171" lon="5.6906">
        <ele>663.62</ele>
        <time>2019-11-01T12:42:18Z</time>
      </trkpt>
      <trkpt lat="44.86178" lon="5.69056">
        <ele>663.01</ele>
        <time>2019-11-01T12:42:19Z</time>
      </trkpt>
      <trkpt lat="44.86184" lon="5.69051">
        <ele>662.27</ele>
        <time>2019-11-01T12:42:20Z</time>
      </trkpt>
      <trkpt lat="44.86191" lon="5.69045">
        <ele>661.34</ele>
        <time>2019-11-01T12:42:21Z</time>
      </trkpt>
      <trkpt lat="44.86198" lon="5.69038">
        <ele>660.3</ele>
        <time>2019-11-01T12:42:22Z</time>
      </trkpt>
      <trkpt lat="44.86205" lon="5.69031">
        <ele>659.28</ele>
        <time>2019-11-01T12:42:23Z</time>
      </trkpt>
      <trkpt lat="44.86212" lon="5.69024">
        <ele>658.35</ele>
        <time>2019-11-01T12:42:24Z</time>
      </trkpt>
      <trkpt lat="44.86221" lon="5.69015">
        <ele>658.14</ele>
        <time>2019-11-01T12:42:25Z</time>
      </trkpt>
      <trkpt lat="44.86228" lon="5.69007">
        <ele>657.03</ele>
        <time>2019-11-01T12:42:26Z</time>
      </trkpt>
      <trkpt lat="44.86237" lon="5.68998">
        <ele>656.06</ele>
        <time>2019-11-01T12:42:27Z</time>
      </trkpt>
      <trkpt lat="44.86245" lon="5.68989">
        <ele>654.79</ele>
        <time>2019-11-01T12:42:28Z</time>
      </trkpt>
      <trkpt lat="44.86253" lon="5.68981">
        <ele>654.27</ele>
        <time>2019-11-01T12:42:29Z</time>
      </trkpt>
      <trkpt lat="44.86261" lon="5.68974">
        <ele>653.28</ele>
        <time>2019-11-01T12:42:30Z</time>
      </trkpt>
      <trkpt lat="44.86268" lon="5.68968">
        <ele>652.77</ele>
        <time>2019-11-01T12:42:31Z</time>
      </trkpt>
      <trkpt lat="44.86275" lon="5.68963">
        <ele>651.98</ele>
        <time>2019-11-01T12:42:32Z</time>
      </trkpt>
      <trkpt lat="44.86281" lon="5.68958">
        <ele>650.98</ele>
        <time>2019-11-01T12:42:33Z</time>
      </trkpt>
      <trkpt lat="44.86287" lon="5.68953">
        <ele>650.19</ele>
        <time>2019-11-01T12:42:34Z</time>
      </trkpt>
      <trkpt lat="44.86292" lon="5.68947">
        <ele>649.74</ele>
        <time>2019-11-01T12:42:35Z</time>
      </trkpt>
      <trkpt lat="44.86295" lon="5.68942">
        <ele>649.54</ele>
        <time>2019-11-01T12:42:36Z</time>
      </trkpt>
      <trkpt lat="44.86296" lon="5.68938">
        <ele>649.41</ele>
        <time>2019-11-01T12:42:37Z</time>
      </trkpt>
      <trkpt lat="44.86297" lon="5.68934">
        <ele>649.37</ele>
        <time>2019-11-01T12:42:38Z</time>
      </trkpt>
      <trkpt lat="44.86298" lon="5.68931">
        <ele>649.42</ele>
        <time>2019-11-01T12:42:40Z</time>
      </trkpt>
      <trkpt lat="44.86292" lon="5.68929">
        <ele>649.62</ele>
        <time>2019-11-01T12:42:50Z</time>
      </trkpt>
      <trkpt lat="44.8629" lon="5.6893">
        <ele>649.5</ele>
        <time>2019-11-01T12:42:51Z</time>
      </trkpt>
      <trkpt lat="44.86288" lon="5.68931">
        <ele>649.46</ele>
        <time>2019-11-01T12:42:52Z</time>
      </trkpt>
      <trkpt lat="44.86285" lon="5.68931">
        <ele>649.31</ele>
        <time>2019-11-01T12:42:53Z</time>
      </trkpt>
      <trkpt lat="44.86283" lon="5.68931">
        <ele>649.06</ele>
        <time>2019-11-01T12:42:54Z</time>
      </trkpt>
      <trkpt lat="44.8628" lon="5.68931">
        <ele>648.84</ele>
        <time>2019-11-01T12:42:55Z</time>
      </trkpt>
      <trkpt lat="44.86276" lon="5.68931">
        <ele>648.57</ele>
        <time>2019-11-01T12:42:56Z</time>
      </trkpt>
      <trkpt lat="44.86272" lon="5.6893">
        <ele>648.34</ele>
        <time>2019-11-01T12:42:57Z</time>
      </trkpt>
      <trkpt lat="44.86268" lon="5.6893">
        <ele>648.14</ele>
        <time>2019-11-01T12:42:58Z</time>
      </trkpt>
      <trkpt lat="44.86265" lon="5.6893">
        <ele>647.87</ele>
        <time>2019-11-01T12:42:59Z</time>
      </trkpt>
      <trkpt lat="44.86261" lon="5.6893">
        <ele>647.78</ele>
        <time>2019-11-01T12:43:00Z</time>
      </trkpt>
      <trkpt lat="44.86258" lon="5.68929">
        <ele>647.97</ele>
        <time>2019-11-01T12:43:01Z</time>
      </trkpt>
      <trkpt lat="44.86254" lon="5.68928">
        <ele>647.96</ele>
        <time>2019-11-01T12:43:02Z</time>
      </trkpt>
      <trkpt lat="44.86251" lon="5.68926">
        <ele>647.88</ele>
        <time>2019-11-01T12:43:03Z</time>
      </trkpt>
      <trkpt lat="44.86249" lon="5.68926">
        <ele>648.07</ele>
        <time>2019-11-01T12:43:04Z</time>
      </trkpt>
      <trkpt lat="44.86247" lon="5.68926">
        <ele>648.05</ele>
        <time>2019-11-01T12:43:05Z</time>
      </trkpt>
      <trkpt lat="44.86245" lon="5.68926">
        <ele>647.98</ele>
        <time>2019-11-01T12:43:06Z</time>
      </trkpt>
      <trkpt lat="44.86243" lon="5.68926">
        <ele>648.1</ele>
        <time>2019-11-01T12:43:07Z</time>
      </trkpt>
      <trkpt lat="44.86241" lon="5.68927">
        <ele>648.06</ele>
        <time>2019-11-01T12:43:08Z</time>
      </trkpt>
      <trkpt lat="44.8624" lon="5.68924">
        <ele>646.61</ele>
        <time>2019-11-01T12:43:10Z</time>
      </trkpt>
      <trkpt lat="44.86243" lon="5.68921">
        <ele>645.96</ele>
        <time>2019-11-01T12:43:12Z</time>
      </trkpt>
      <trkpt lat="44.86245" lon="5.68919">
        <ele>645.81</ele>
        <time>2019-11-01T12:43:13Z</time>
      </trkpt>
      <trkpt lat="44.86247" lon="5.68918">
        <ele>645.7</ele>
        <time>2019-11-01T12:43:14Z</time>
      </trkpt>
      <trkpt lat="44.86249" lon="5.68919">
        <ele>645.45</ele>
        <time>2019-11-01T12:43:15Z</time>
      </trkpt>
      <trkpt lat="44.86251" lon="5.68916">
        <ele>645.38</ele>
        <time>2019-11-01T12:43:17Z</time>
      </trkpt>
      <trkpt lat="44.86252" lon="5.68911">
        <ele>644.8</ele>
        <time>2019-11-01T12:43:19Z</time>
      </trkpt>
      <trkpt lat="44.86253" lon="5.68909">
        <ele>644.41</ele>
        <time>2019-11-01T12:43:20Z</time>
      </trkpt>
      <trkpt lat="44.86254" lon="5.68907">
        <ele>644.16</ele>
        <time>2019-11-01T12:43:21Z</time>
      </trkpt>
      <trkpt lat="44.86257" lon="5.68906">
        <ele>643.41</ele>
        <time>2019-11-01T12:43:23Z</time>
      </trkpt>
      <trkpt lat="44.86259" lon="5.68906">
        <ele>642.81</ele>
        <time>2019-11-01T12:43:24Z</time>
      </trkpt>
      <trkpt lat="44.8626" lon="5.68902">
        <ele>641.75</ele>
        <time>2019-11-01T12:43:26Z</time>
      </trkpt>
      <trkpt lat="44.86258" lon="5.68901">
        <ele>640.71</ele>
        <time>2019-11-01T12:43:28Z</time>
      </trkpt>
      <trkpt lat="44.86255" lon="5.68896">
        <ele>639.57</ele>
        <time>2019-11-01T12:43:55Z</time>
      </trkpt>
      <trkpt lat="44.86253" lon="5.68893">
        <ele>639.73</ele>
        <time>2019-11-01T12:43:57Z</time>
      </trkpt>
      <trkpt lat="44.86251" lon="5.68892">
        <ele>639.75</ele>
        <time>2019-11-01T12:43:59Z</time>
      </trkpt>
      <trkpt lat="44.86247" lon="5.6889">
        <ele>639.66</ele>
        <time>2019-11-01T12:44:01Z</time>
      </trkpt>
      <trkpt lat="44.86245" lon="5.68889">
        <ele>639.58</ele>
        <time>2019-11-01T12:44:02Z</time>
      </trkpt>
      <trkpt lat="44.86243" lon="5.68886">
        <ele>639.48</ele>
        <time>2019-11-01T12:44:04Z</time>
      </trkpt>
      <trkpt lat="44.86244" lon="5.68883">
        <ele>639.36</ele>
        <time>2019-11-01T12:44:06Z</time>
      </trkpt>
      <trkpt lat="44.86246" lon="5.68883">
        <ele>639.26</ele>
        <time>2019-11-01T12:44:08Z</time>
      </trkpt>
      <trkpt lat="44.86248" lon="5.68884">
        <ele>639.18</ele>
        <time>2019-11-01T12:44:09Z</time>
      </trkpt>
      <trkpt lat="44.8625" lon="5.68885">
        <ele>639.16</ele>
        <time>2019-11-01T12:44:10Z</time>
      </trkpt>
      <trkpt lat="44.86253" lon="5.68886">
        <ele>639.08</ele>
        <time>2019-11-01T12:44:11Z</time>
      </trkpt>
      <trkpt lat="44.86255" lon="5.68886">
        <ele>638.99</ele>
        <time>2019-11-01T12:44:12Z</time>
      </trkpt>
      <trkpt lat="44.86258" lon="5.68887">
        <ele>638.82</ele>
        <time>2019-11-01T12:44:13Z</time>
      </trkpt>
      <trkpt lat="44.8626" lon="5.68888">
        <ele>638.7</ele>
        <time>2019-11-01T12:44:14Z</time>
      </trkpt>
      <trkpt lat="44.86262" lon="5.68889">
        <ele>638.59</ele>
        <time>2019-11-01T12:44:15Z</time>
      </trkpt>
      <trkpt lat="44.86264" lon="5.68889">
        <ele>638.42</ele>
        <time>2019-11-01T12:44:16Z</time>
      </trkpt>
      <trkpt lat="44.86266" lon="5.68886">
        <ele>638.03</ele>
        <time>2019-11-01T12:44:18Z</time>
      </trkpt>
      <trkpt lat="44.86267" lon="5.68881">
        <ele>637.47</ele>
        <time>2019-11-01T12:44:20Z</time>
      </trkpt>
      <trkpt lat="44.86268" lon="5.68878">
        <ele>637.32</ele>
        <time>2019-11-01T12:44:21Z</time>
      </trkpt>
      <trkpt lat="44.86271" lon="5.68875">
        <ele>636.84</ele>
        <time>2019-11-01T12:44:23Z</time>
      </trkpt>
      <trkpt lat="44.86272" lon="5.68874">
        <ele>636.64</ele>
        <time>2019-11-01T12:44:24Z</time>
      </trkpt>
      <trkpt lat="44.86274" lon="5.68873">
        <ele>636.51</ele>
        <time>2019-11-01T12:44:25Z</time>
      </trkpt>
      <trkpt lat="44.86276" lon="5.68872">
        <ele>636.26</ele>
        <time>2019-11-01T12:44:26Z</time>
      </trkpt>
      <trkpt lat="44.86279" lon="5.68869">
        <ele>635.7</ele>
        <time>2019-11-01T12:44:28Z</time>
      </trkpt>
      <trkpt lat="44.86281" lon="5.68868">
        <ele>635.53</ele>
        <time>2019-11-01T12:44:29Z</time>
      </trkpt>
      <trkpt lat="44.86284" lon="5.68868">
        <ele>635.26</ele>
        <time>2019-11-01T12:44:30Z</time>
      </trkpt>
      <trkpt lat="44.86286" lon="5.68867">
        <ele>634.97</ele>
        <time>2019-11-01T12:44:31Z</time>
      </trkpt>
      <trkpt lat="44.86289" lon="5.68866">
        <ele>634.68</ele>
        <time>2019-11-01T12:44:32Z</time>
      </trkpt>
      <trkpt lat="44.86293" lon="5.68863">
        <ele>634.59</ele>
        <time>2019-11-01T12:44:33Z</time>
      </trkpt>
      <trkpt lat="44.86296" lon="5.6886">
        <ele>634.28</ele>
        <time>2019-11-01T12:44:34Z</time>
      </trkpt>
      <trkpt lat="44.86298" lon="5.68858">
        <ele>633.98</ele>
        <time>2019-11-01T12:44:35Z</time>
      </trkpt>
      <trkpt lat="44.86301" lon="5.68856">
        <ele>633.75</ele>
        <time>2019-11-01T12:44:36Z</time>
      </trkpt>
      <trkpt lat="44.86304" lon="5.68853">
        <ele>633.47</ele>
        <time>2019-11-01T12:44:37Z</time>
      </trkpt>
      <trkpt lat="44.86305" lon="5.68852">
        <ele>633.17</ele>
        <time>2019-11-01T12:44:38Z</time>
      </trkpt>
      <trkpt lat="44.86308" lon="5.6885">
        <ele>633.09</ele>
        <time>2019-11-01T12:44:39Z</time>
      </trkpt>
      <trkpt lat="44.8631" lon="5.68849">
        <ele>633.06</ele>
        <time>2019-11-01T12:44:40Z</time>
      </trkpt>
      <trkpt lat="44.86313" lon="5.68846">
        <ele>633.05</ele>
        <time>2019-11-01T12:44:41Z</time>
      </trkpt>
      <trkpt lat="44.86317" lon="5.68844">
        <ele>633.26</ele>
        <time>2019-11-01T12:44:42Z</time>
      </trkpt>
      <trkpt lat="44.8632" lon="5.68841">
        <ele>633.25</ele>
        <time>2019-11-01T12:44:43Z</time>
      </trkpt>
      <trkpt lat="44.86324" lon="5.68838">
        <ele>633.25</ele>
        <time>2019-11-01T12:44:44Z</time>
      </trkpt>
      <trkpt lat="44.86327" lon="5.68835">
        <ele>633.18</ele>
        <time>2019-11-01T12:44:45Z</time>
      </trkpt>
      <trkpt lat="44.86331" lon="5.68831">
        <ele>632.67</ele>
        <time>2019-11-01T12:44:46Z</time>
      </trkpt>
      <trkpt lat="44.86334" lon="5.68827">
        <ele>632.44</ele>
        <time>2019-11-01T12:44:47Z</time>
      </trkpt>
      <trkpt lat="44.86337" lon="5.68825">
        <ele>632.38</ele>
        <time>2019-11-01T12:44:48Z</time>
      </trkpt>
      <trkpt lat="44.8634" lon="5.68821">
        <ele>632.22</ele>
        <time>2019-11-01T12:44:49Z</time>
      </trkpt>
      <trkpt lat="44.86342" lon="5.68819">
        <ele>632.1</ele>
        <time>2019-11-01T12:44:50Z</time>
      </trkpt>
      <trkpt lat="44.86344" lon="5.68817">
        <ele>631.85</ele>
        <time>2019-11-01T12:44:51Z</time>
      </trkpt>
      <trkpt lat="44.86347" lon="5.68815">
        <ele>631.78</ele>
        <time>2019-11-01T12:44:52Z</time>
      </trkpt>
      <trkpt lat="44.86349" lon="5.68811">
        <ele>631.83</ele>
        <time>2019-11-01T12:44:53Z</time>
      </trkpt>
      <trkpt lat="44.8635" lon="5.68808">
        <ele>631.7</ele>
        <time>2019-11-01T12:44:54Z</time>
      </trkpt>
      <trkpt lat="44.8635" lon="5.68806">
        <ele>631.6</ele>
        <time>2019-11-01T12:44:55Z</time>
      </trkpt>
      <trkpt lat="44.86351" lon="5.68802">
        <ele>631.85</ele>
        <time>2019-11-01T12:44:57Z</time>
      </trkpt>
      <trkpt lat="44.86351" lon="5.68798">
        <ele>631.55</ele>
        <time>2019-11-01T12:44:59Z</time>
      </trkpt>
      <trkpt lat="44.86351" lon="5.68795">
        <ele>630.99</ele>
        <time>2019-11-01T12:45:00Z</time>
      </trkpt>
      <trkpt lat="44.86353" lon="5.68792">
        <ele>629.6</ele>
        <time>2019-11-01T12:45:02Z</time>
      </trkpt>
      <trkpt lat="44.8636" lon="5.68785">
        <ele>628.66</ele>
        <time>2019-11-01T12:45:08Z</time>
      </trkpt>
      <trkpt lat="44.86362" lon="5.68784">
        <ele>628.51</ele>
        <time>2019-11-01T12:45:09Z</time>
      </trkpt>
      <trkpt lat="44.86364" lon="5.68781">
        <ele>628.4</ele>
        <time>2019-11-01T12:45:10Z</time>
      </trkpt>
      <trkpt lat="44.86367" lon="5.68778">
        <ele>628.29</ele>
        <time>2019-11-01T12:45:11Z</time>
      </trkpt>
      <trkpt lat="44.86369" lon="5.68777">
        <ele>628.26</ele>
        <time>2019-11-01T12:45:12Z</time>
      </trkpt>
      <trkpt lat="44.86372" lon="5.68775">
        <ele>628.25</ele>
        <time>2019-11-01T12:45:13Z</time>
      </trkpt>
      <trkpt lat="44.86374" lon="5.68772">
        <ele>628.07</ele>
        <time>2019-11-01T12:45:15Z</time>
      </trkpt>
      <trkpt lat="44.86377" lon="5.68769">
        <ele>627.98</ele>
        <time>2019-11-01T12:45:17Z</time>
      </trkpt>
      <trkpt lat="44.86379" lon="5.68768">
        <ele>627.88</ele>
        <time>2019-11-01T12:45:19Z</time>
      </trkpt>
      <trkpt lat="44.8638" lon="5.68757">
        <ele>626.26</ele>
        <time>2019-11-01T12:45:28Z</time>
      </trkpt>
      <trkpt lat="44.86381" lon="5.68753">
        <ele>625.76</ele>
        <time>2019-11-01T12:45:29Z</time>
      </trkpt>
      <trkpt lat="44.86383" lon="5.6875">
        <ele>625.48</ele>
        <time>2019-11-01T12:45:31Z</time>
      </trkpt>
      <trkpt lat="44.86385" lon="5.68748">
        <ele>625.32</ele>
        <time>2019-11-01T12:45:32Z</time>
      </trkpt>
      <trkpt lat="44.86387" lon="5.68746">
        <ele>624.99</ele>
        <time>2019-11-01T12:45:33Z</time>
      </trkpt>
      <trkpt lat="44.86389" lon="5.68746">
        <ele>625.03</ele>
        <time>2019-11-01T12:45:34Z</time>
      </trkpt>
      <trkpt lat="44.86392" lon="5.68745">
        <ele>624.9</ele>
        <time>2019-11-01T12:45:35Z</time>
      </trkpt>
      <trkpt lat="44.86393" lon="5.68744">
        <ele>624.59</ele>
        <time>2019-11-01T12:45:36Z</time>
      </trkpt>
      <trkpt lat="44.86396" lon="5.68742">
        <ele>624.35</ele>
        <time>2019-11-01T12:45:37Z</time>
      </trkpt>
      <trkpt lat="44.86398" lon="5.6874">
        <ele>623.86</ele>
        <time>2019-11-01T12:45:38Z</time>
      </trkpt>
      <trkpt lat="44.86401" lon="5.6874">
        <ele>623.57</ele>
        <time>2019-11-01T12:45:39Z</time>
      </trkpt>
      <trkpt lat="44.86403" lon="5.6874">
        <ele>623.14</ele>
        <time>2019-11-01T12:45:40Z</time>
      </trkpt>
      <trkpt lat="44.86406" lon="5.68735">
        <ele>622.36</ele>
        <time>2019-11-01T12:45:42Z</time>
      </trkpt>
      <trkpt lat="44.86409" lon="5.6873">
        <ele>622.07</ele>
        <time>2019-11-01T12:45:43Z</time>
      </trkpt>
      <trkpt lat="44.86412" lon="5.68726">
        <ele>621.78</ele>
        <time>2019-11-01T12:45:44Z</time>
      </trkpt>
      <trkpt lat="44.86415" lon="5.68722">
        <ele>621.34</ele>
        <time>2019-11-01T12:45:45Z</time>
      </trkpt>
      <trkpt lat="44.86419" lon="5.68717">
        <ele>621</ele>
        <time>2019-11-01T12:45:46Z</time>
      </trkpt>
      <trkpt lat="44.8642" lon="5.68712">
        <ele>620.89</ele>
        <time>2019-11-01T12:45:47Z</time>
      </trkpt>
      <trkpt lat="44.86422" lon="5.68708">
        <ele>620.65</ele>
        <time>2019-11-01T12:45:48Z</time>
      </trkpt>
      <trkpt lat="44.86424" lon="5.68705">
        <ele>620.02</ele>
        <time>2019-11-01T12:45:49Z</time>
      </trkpt>
      <trkpt lat="44.86426" lon="5.68702">
        <ele>619.48</ele>
        <time>2019-11-01T12:45:50Z</time>
      </trkpt>
      <trkpt lat="44.86429" lon="5.68698">
        <ele>618.97</ele>
        <time>2019-11-01T12:45:51Z</time>
      </trkpt>
      <trkpt lat="44.86433" lon="5.68693">
        <ele>617.76</ele>
        <time>2019-11-01T12:45:52Z</time>
      </trkpt>
      <trkpt lat="44.86436" lon="5.68689">
        <ele>616.77</ele>
        <time>2019-11-01T12:45:53Z</time>
      </trkpt>
      <trkpt lat="44.86438" lon="5.68684">
        <ele>615.5</ele>
        <time>2019-11-01T12:45:54Z</time>
      </trkpt>
      <trkpt lat="44.8644" lon="5.68679">
        <ele>614.48</ele>
        <time>2019-11-01T12:45:55Z</time>
      </trkpt>
      <trkpt lat="44.86443" lon="5.68675">
        <ele>613.69</ele>
        <time>2019-11-01T12:45:56Z</time>
      </trkpt>
      <trkpt lat="44.86447" lon="5.6867">
        <ele>612.33</ele>
        <time>2019-11-01T12:45:57Z</time>
      </trkpt>
      <trkpt lat="44.8645" lon="5.68665">
        <ele>611.71</ele>
        <time>2019-11-01T12:45:58Z</time>
      </trkpt>
      <trkpt lat="44.86452" lon="5.68662">
        <ele>611.18</ele>
        <time>2019-11-01T12:45:59Z</time>
      </trkpt>
      <trkpt lat="44.86453" lon="5.68659">
        <ele>610.81</ele>
        <time>2019-11-01T12:46:00Z</time>
      </trkpt>
      <trkpt lat="44.86453" lon="5.68655">
        <ele>610.28</ele>
        <time>2019-11-01T12:46:01Z</time>
      </trkpt>
      <trkpt lat="44.86454" lon="5.6865">
        <ele>609.77</ele>
        <time>2019-11-01T12:46:02Z</time>
      </trkpt>
      <trkpt lat="44.86455" lon="5.68645">
        <ele>608.98</ele>
        <time>2019-11-01T12:46:03Z</time>
      </trkpt>
      <trkpt lat="44.86456" lon="5.68639">
        <ele>608.33</ele>
        <time>2019-11-01T12:46:04Z</time>
      </trkpt>
      <trkpt lat="44.86458" lon="5.68633">
        <ele>607.43</ele>
        <time>2019-11-01T12:46:05Z</time>
      </trkpt>
      <trkpt lat="44.8646" lon="5.68628">
        <ele>606.11</ele>
        <time>2019-11-01T12:46:06Z</time>
      </trkpt>
      <trkpt lat="44.86461" lon="5.68623">
        <ele>605.3</ele>
        <time>2019-11-01T12:46:07Z</time>
      </trkpt>
      <trkpt lat="44.86461" lon="5.68618">
        <ele>605.05</ele>
        <time>2019-11-01T12:46:08Z</time>
      </trkpt>
      <trkpt lat="44.86462" lon="5.68614">
        <ele>604.84</ele>
        <time>2019-11-01T12:46:09Z</time>
      </trkpt>
      <trkpt lat="44.86462" lon="5.6861">
        <ele>604.57</ele>
        <time>2019-11-01T12:46:10Z</time>
      </trkpt>
      <trkpt lat="44.86461" lon="5.68607">
        <ele>604.34</ele>
        <time>2019-11-01T12:46:11Z</time>
      </trkpt>
      <trkpt lat="44.8646" lon="5.68604">
        <ele>604.14</ele>
        <time>2019-11-01T12:46:12Z</time>
      </trkpt>
      <trkpt lat="44.86458" lon="5.68599">
        <ele>603.45</ele>
        <time>2019-11-01T12:46:13Z</time>
      </trkpt>
      <trkpt lat="44.86456" lon="5.68595">
        <ele>603.1</ele>
        <time>2019-11-01T12:46:14Z</time>
      </trkpt>
      <trkpt lat="44.86456" lon="5.6859">
        <ele>602.29</ele>
        <time>2019-11-01T12:46:15Z</time>
      </trkpt>
      <trkpt lat="44.86456" lon="5.68586">
        <ele>601.56</ele>
        <time>2019-11-01T12:46:16Z</time>
      </trkpt>
      <trkpt lat="44.86456" lon="5.68581">
        <ele>600.99</ele>
        <time>2019-11-01T12:46:17Z</time>
      </trkpt>
      <trkpt lat="44.86456" lon="5.68576">
        <ele>600.12</ele>
        <time>2019-11-01T12:46:18Z</time>
      </trkpt>
      <trkpt lat="44.86456" lon="5.6857">
        <ele>599.37</ele>
        <time>2019-11-01T12:46:19Z</time>
      </trkpt>
      <trkpt lat="44.86456" lon="5.68563">
        <ele>599.01</ele>
        <time>2019-11-01T12:46:20Z</time>
      </trkpt>
      <trkpt lat="44.86457" lon="5.68555">
        <ele>598.48</ele>
        <time>2019-11-01T12:46:21Z</time>
      </trkpt>
      <trkpt lat="44.86458" lon="5.68549">
        <ele>598.11</ele>
        <time>2019-11-01T12:46:22Z</time>
      </trkpt>
      <trkpt lat="44.86459" lon="5.68544">
        <ele>597.02</ele>
        <time>2019-11-01T12:46:23Z</time>
      </trkpt>
      <trkpt lat="44.8646" lon="5.68539">
        <ele>595.92</ele>
        <time>2019-11-01T12:46:24Z</time>
      </trkpt>
      <trkpt lat="44.86461" lon="5.68535">
        <ele>595.17</ele>
        <time>2019-11-01T12:46:25Z</time>
      </trkpt>
      <trkpt lat="44.86461" lon="5.68532">
        <ele>594.74</ele>
        <time>2019-11-01T12:46:26Z</time>
      </trkpt>
      <trkpt lat="44.86462" lon="5.6853">
        <ele>593.85</ele>
        <time>2019-11-01T12:46:28Z</time>
      </trkpt>
      <trkpt lat="44.86468" lon="5.68522">
        <ele>596.58</ele>
        <time>2019-11-01T12:47:00Z</time>
      </trkpt>
      <trkpt lat="44.8647" lon="5.68518">
        <ele>597.23</ele>
        <time>2019-11-01T12:47:02Z</time>
      </trkpt>
      <trkpt lat="44.86471" lon="5.68515">
        <ele>597.24</ele>
        <time>2019-11-01T12:47:03Z</time>
      </trkpt>
      <trkpt lat="44.86473" lon="5.68512">
        <ele>597.18</ele>
        <time>2019-11-01T12:47:04Z</time>
      </trkpt>
      <trkpt lat="44.86474" lon="5.68508">
        <ele>597.16</ele>
        <time>2019-11-01T12:47:05Z</time>
      </trkpt>
      <trkpt lat="44.86475" lon="5.68505">
        <ele>597.15</ele>
        <time>2019-11-01T12:47:06Z</time>
      </trkpt>
      <trkpt lat="44.86476" lon="5.68501">
        <ele>597.15</ele>
        <time>2019-11-01T12:47:07Z</time>
      </trkpt>
      <trkpt lat="44.86477" lon="5.68498">
        <ele>597.36</ele>
        <time>2019-11-01T12:47:08Z</time>
      </trkpt>
      <trkpt lat="44.86478" lon="5.68495">
        <ele>597.56</ele>
        <time>2019-11-01T12:47:09Z</time>
      </trkpt>
      <trkpt lat="44.8648" lon="5.68492">
        <ele>597.76</ele>
        <time>2019-11-01T12:47:10Z</time>
      </trkpt>
      <trkpt lat="44.86483" lon="5.68488">
        <ele>597.82</ele>
        <time>2019-11-01T12:47:11Z</time>
      </trkpt>
      <trkpt lat="44.86485" lon="5.68485">
        <ele>597.77</ele>
        <time>2019-11-01T12:47:12Z</time>
      </trkpt>
      <trkpt lat="44.86488" lon="5.68481">
        <ele>597.55</ele>
        <time>2019-11-01T12:47:13Z</time>
      </trkpt>
      <trkpt lat="44.8649" lon="5.68478">
        <ele>597.55</ele>
        <time>2019-11-01T12:47:14Z</time>
      </trkpt>
      <trkpt lat="44.86492" lon="5.68475">
        <ele>597.48</ele>
        <time>2019-11-01T12:47:15Z</time>
      </trkpt>
      <trkpt lat="44.86494" lon="5.68472">
        <ele>597.39</ele>
        <time>2019-11-01T12:47:16Z</time>
      </trkpt>
      <trkpt lat="44.86496" lon="5.68468">
        <ele>596.94</ele>
        <time>2019-11-01T12:47:17Z</time>
      </trkpt>
      <trkpt lat="44.86498" lon="5.68465">
        <ele>597.02</ele>
        <time>2019-11-01T12:47:18Z</time>
      </trkpt>
      <trkpt lat="44.865" lon="5.68462">
        <ele>597.25</ele>
        <time>2019-11-01T12:47:19Z</time>
      </trkpt>
      <trkpt lat="44.86502" lon="5.68459">
        <ele>597.67</ele>
        <time>2019-11-01T12:47:20Z</time>
      </trkpt>
      <trkpt lat="44.86503" lon="5.68457">
        <ele>598.08</ele>
        <time>2019-11-01T12:47:21Z</time>
      </trkpt>
      <trkpt lat="44.86504" lon="5.68454">
        <ele>598.48</ele>
        <time>2019-11-01T12:47:22Z</time>
      </trkpt>
      <trkpt lat="44.86505" lon="5.6845">
        <ele>598.74</ele>
        <time>2019-11-01T12:47:23Z</time>
      </trkpt>
      <trkpt lat="44.86507" lon="5.68447">
        <ele>599.1</ele>
        <time>2019-11-01T12:47:24Z</time>
      </trkpt>
      <trkpt lat="44.86508" lon="5.68444">
        <ele>599.48</ele>
        <time>2019-11-01T12:47:25Z</time>
      </trkpt>
      <trkpt lat="44.8651" lon="5.68441">
        <ele>599.81</ele>
        <time>2019-11-01T12:47:26Z</time>
      </trkpt>
      <trkpt lat="44.86511" lon="5.68439">
        <ele>600.12</ele>
        <time>2019-11-01T12:47:27Z</time>
      </trkpt>
      <trkpt lat="44.86512" lon="5.68436">
        <ele>600.21</ele>
        <time>2019-11-01T12:47:28Z</time>
      </trkpt>
      <trkpt lat="44.86513" lon="5.68434">
        <ele>600.24</ele>
        <time>2019-11-01T12:47:29Z</time>
      </trkpt>
      <trkpt lat="44.86514" lon="5.6843">
        <ele>600.46</ele>
        <time>2019-11-01T12:47:30Z</time>
      </trkpt>
      <trkpt lat="44.86515" lon="5.68427">
        <ele>600.87</ele>
        <time>2019-11-01T12:47:31Z</time>
      </trkpt>
      <trkpt lat="44.86516" lon="5.68423">
        <ele>601.28</ele>
        <time>2019-11-01T12:47:32Z</time>
      </trkpt>
      <trkpt lat="44.86518" lon="5.68421">
        <ele>601.61</ele>
        <time>2019-11-01T12:47:33Z</time>
      </trkpt>
      <trkpt lat="44.8652" lon="5.68419">
        <ele>601.99</ele>
        <time>2019-11-01T12:47:34Z</time>
      </trkpt>
      <trkpt lat="44.86521" lon="5.68416">
        <ele>602.38</ele>
        <time>2019-11-01T12:47:35Z</time>
      </trkpt>
      <trkpt lat="44.86523" lon="5.68413">
        <ele>602.78</ele>
        <time>2019-11-01T12:47:36Z</time>
      </trkpt>
      <trkpt lat="44.86524" lon="5.6841">
        <ele>603.18</ele>
        <time>2019-11-01T12:47:37Z</time>
      </trkpt>
      <trkpt lat="44.86525" lon="5.68407">
        <ele>603.65</ele>
        <time>2019-11-01T12:47:38Z</time>
      </trkpt>
      <trkpt lat="44.86527" lon="5.68404">
        <ele>604.06</ele>
        <time>2019-11-01T12:47:40Z</time>
      </trkpt>
      <trkpt lat="44.8653" lon="5.68401">
        <ele>604.2</ele>
        <time>2019-11-01T12:47:42Z</time>
      </trkpt>
      <trkpt lat="44.86532" lon="5.684">
        <ele>603.75</ele>
        <time>2019-11-01T12:47:43Z</time>
      </trkpt>
      <trkpt lat="44.86535" lon="5.68397">
        <ele>603.57</ele>
        <time>2019-11-01T12:47:45Z</time>
      </trkpt>
      <trkpt lat="44.86538" lon="5.68396">
        <ele>604.19</ele>
        <time>2019-11-01T12:47:47Z</time>
      </trkpt>
      <trkpt lat="44.8654" lon="5.68392">
        <ele>605.23</ele>
        <time>2019-11-01T12:47:49Z</time>
      </trkpt>
      <trkpt lat="44.86541" lon="5.6839">
        <ele>605.38</ele>
        <time>2019-11-01T12:47:50Z</time>
      </trkpt>
      <trkpt lat="44.86543" lon="5.68387">
        <ele>605.57</ele>
        <time>2019-11-01T12:47:51Z</time>
      </trkpt>
      <trkpt lat="44.86545" lon="5.68385">
        <ele>605.84</ele>
        <time>2019-11-01T12:47:52Z</time>
      </trkpt>
      <trkpt lat="44.86546" lon="5.68383">
        <ele>606.12</ele>
        <time>2019-11-01T12:47:53Z</time>
      </trkpt>
      <trkpt lat="44.86547" lon="5.68381">
        <ele>606.74</ele>
        <time>2019-11-01T12:47:55Z</time>
      </trkpt>
      <trkpt lat="44.86552" lon="5.68376">
        <ele>606.2</ele>
        <time>2019-11-01T12:48:30Z</time>
      </trkpt>
      <trkpt lat="44.86553" lon="5.68374">
        <ele>605.67</ele>
        <time>2019-11-01T12:48:31Z</time>
      </trkpt>
      <trkpt lat="44.86555" lon="5.68371">
        <ele>605.45</ele>
        <time>2019-11-01T12:48:32Z</time>
      </trkpt>
      <trkpt lat="44.86557" lon="5.68368">
        <ele>605.38</ele>
        <time>2019-11-01T12:48:33Z</time>
      </trkpt>
      <trkpt lat="44.8656" lon="5.68364">
        <ele>605.43</ele>
        <time>2019-11-01T12:48:34Z</time>
      </trkpt>
      <trkpt lat="44.86562" lon="5.68359">
        <ele>605.44</ele>
        <time>2019-11-01T12:48:35Z</time>
      </trkpt>
      <trkpt lat="44.86564" lon="5.68353">
        <ele>605.31</ele>
        <time>2019-11-01T12:48:36Z</time>
      </trkpt>
      <trkpt lat="44.86566" lon="5.68345">
        <ele>605.06</ele>
        <time>2019-11-01T12:48:37Z</time>
      </trkpt>
      <trkpt lat="44.86567" lon="5.68339">
        <ele>604.49</ele>
        <time>2019-11-01T12:48:38Z</time>
      </trkpt>
      <trkpt lat="44.86568" lon="5.68333">
        <ele>603.48</ele>
        <time>2019-11-01T12:48:39Z</time>
      </trkpt>
      <trkpt lat="44.86571" lon="5.68329">
        <ele>602.69</ele>
        <time>2019-11-01T12:48:40Z</time>
      </trkpt>
      <trkpt lat="44.86574" lon="5.68327">
        <ele>601.82</ele>
        <time>2019-11-01T12:48:41Z</time>
      </trkpt>
      <trkpt lat="44.86579" lon="5.68324">
        <ele>600.72</ele>
        <time>2019-11-01T12:48:42Z</time>
      </trkpt>
      <trkpt lat="44.86584" lon="5.68322">
        <ele>598.71</ele>
        <time>2019-11-01T12:48:43Z</time>
      </trkpt>
      <trkpt lat="44.86588" lon="5.68321">
        <ele>597.27</ele>
        <time>2019-11-01T12:48:44Z</time>
      </trkpt>
      <trkpt lat="44.86593" lon="5.68321">
        <ele>596.27</ele>
        <time>2019-11-01T12:48:45Z</time>
      </trkpt>
      <trkpt lat="44.86596" lon="5.68321">
        <ele>595.35</ele>
        <time>2019-11-01T12:48:46Z</time>
      </trkpt>
      <trkpt lat="44.866" lon="5.68321">
        <ele>594.37</ele>
        <time>2019-11-01T12:48:47Z</time>
      </trkpt>
      <trkpt lat="44.86604" lon="5.68321">
        <ele>594.07</ele>
        <time>2019-11-01T12:48:48Z</time>
      </trkpt>
      <trkpt lat="44.86608" lon="5.68319">
        <ele>593.71</ele>
        <time>2019-11-01T12:48:49Z</time>
      </trkpt>
      <trkpt lat="44.86612" lon="5.68317">
        <ele>593.32</ele>
        <time>2019-11-01T12:48:50Z</time>
      </trkpt>
      <trkpt lat="44.86615" lon="5.68314">
        <ele>592.85</ele>
        <time>2019-11-01T12:48:51Z</time>
      </trkpt>
      <trkpt lat="44.86618" lon="5.68311">
        <ele>592.15</ele>
        <time>2019-11-01T12:48:52Z</time>
      </trkpt>
      <trkpt lat="44.8662" lon="5.68309">
        <ele>591.59</ele>
        <time>2019-11-01T12:48:53Z</time>
      </trkpt>
      <trkpt lat="44.86622" lon="5.68306">
        <ele>591.21</ele>
        <time>2019-11-01T12:48:54Z</time>
      </trkpt>
      <trkpt lat="44.86625" lon="5.68303">
        <ele>590.96</ele>
        <time>2019-11-01T12:48:55Z</time>
      </trkpt>
      <trkpt lat="44.86627" lon="5.68301">
        <ele>590.74</ele>
        <time>2019-11-01T12:48:56Z</time>
      </trkpt>
      <trkpt lat="44.8663" lon="5.68298">
        <ele>590.68</ele>
        <time>2019-11-01T12:48:57Z</time>
      </trkpt>
      <trkpt lat="44.86633" lon="5.68295">
        <ele>590.52</ele>
        <time>2019-11-01T12:48:58Z</time>
      </trkpt>
      <trkpt lat="44.86635" lon="5.68295">
        <ele>590.26</ele>
        <time>2019-11-01T12:48:59Z</time>
      </trkpt>
      <trkpt lat="44.86638" lon="5.68294">
        <ele>589.69</ele>
        <time>2019-11-01T12:49:00Z</time>
      </trkpt>
      <trkpt lat="44.8664" lon="5.68292">
        <ele>589.24</ele>
        <time>2019-11-01T12:49:01Z</time>
      </trkpt>
      <trkpt lat="44.86642" lon="5.68289">
        <ele>588.9</ele>
        <time>2019-11-01T12:49:02Z</time>
      </trkpt>
      <trkpt lat="44.86643" lon="5.68285">
        <ele>588.51</ele>
        <time>2019-11-01T12:49:03Z</time>
      </trkpt>
      <trkpt lat="44.86644" lon="5.68281">
        <ele>588.12</ele>
        <time>2019-11-01T12:49:04Z</time>
      </trkpt>
      <trkpt lat="44.86646" lon="5.68276">
        <ele>587.79</ele>
        <time>2019-11-01T12:49:05Z</time>
      </trkpt>
      <trkpt lat="44.86648" lon="5.68272">
        <ele>587.55</ele>
        <time>2019-11-01T12:49:06Z</time>
      </trkpt>
      <trkpt lat="44.8665" lon="5.68267">
        <ele>587.48</ele>
        <time>2019-11-01T12:49:07Z</time>
      </trkpt>
      <trkpt lat="44.86652" lon="5.68263">
        <ele>587.46</ele>
        <time>2019-11-01T12:49:08Z</time>
      </trkpt>
      <trkpt lat="44.86653" lon="5.6826">
        <ele>587.45</ele>
        <time>2019-11-01T12:49:09Z</time>
      </trkpt>
      <trkpt lat="44.86655" lon="5.68257">
        <ele>587.59</ele>
        <time>2019-11-01T12:49:10Z</time>
      </trkpt>
      <trkpt lat="44.86657" lon="5.68254">
        <ele>587.84</ele>
        <time>2019-11-01T12:49:11Z</time>
      </trkpt>
      <trkpt lat="44.86659" lon="5.68251">
        <ele>588.06</ele>
        <time>2019-11-01T12:49:12Z</time>
      </trkpt>
      <trkpt lat="44.86661" lon="5.68249">
        <ele>588.54</ele>
        <time>2019-11-01T12:49:13Z</time>
      </trkpt>
      <trkpt lat="44.86662" lon="5.68248">
        <ele>589.04</ele>
        <time>2019-11-01T12:49:14Z</time>
      </trkpt>
      <trkpt lat="44.86666" lon="5.68247">
        <ele>589.41</ele>
        <time>2019-11-01T12:49:16Z</time>
      </trkpt>
      <trkpt lat="44.86668" lon="5.68246">
        <ele>589.51</ele>
        <time>2019-11-01T12:49:17Z</time>
      </trkpt>
      <trkpt lat="44.8667" lon="5.68245">
        <ele>589.57</ele>
        <time>2019-11-01T12:49:19Z</time>
      </trkpt>
      <trkpt lat="44.86671" lon="5.68241">
        <ele>589.53</ele>
        <time>2019-11-01T12:49:21Z</time>
      </trkpt>
      <trkpt lat="44.86673" lon="5.68237">
        <ele>589.75</ele>
        <time>2019-11-01T12:49:22Z</time>
      </trkpt>
      <trkpt lat="44.86675" lon="5.68232">
        <ele>589.89</ele>
        <time>2019-11-01T12:49:23Z</time>
      </trkpt>
      <trkpt lat="44.86677" lon="5.68226">
        <ele>590.07</ele>
        <time>2019-11-01T12:49:24Z</time>
      </trkpt>
      <trkpt lat="44.8668" lon="5.68218">
        <ele>590.34</ele>
        <time>2019-11-01T12:49:25Z</time>
      </trkpt>
      <trkpt lat="44.86683" lon="5.6821">
        <ele>590.48</ele>
        <time>2019-11-01T12:49:26Z</time>
      </trkpt>
      <trkpt lat="44.86685" lon="5.68201">
        <ele>590.67</ele>
        <time>2019-11-01T12:49:27Z</time>
      </trkpt>
      <trkpt lat="44.86687" lon="5.68192">
        <ele>590.8</ele>
        <time>2019-11-01T12:49:28Z</time>
      </trkpt>
      <trkpt lat="44.86688" lon="5.68183">
        <ele>590.9</ele>
        <time>2019-11-01T12:49:29Z</time>
      </trkpt>
      <trkpt lat="44.86688" lon="5.68173">
        <ele>591.01</ele>
        <time>2019-11-01T12:49:30Z</time>
      </trkpt>
      <trkpt lat="44.86688" lon="5.68165">
        <ele>590.62</ele>
        <time>2019-11-01T12:49:31Z</time>
      </trkpt>
      <trkpt lat="44.86688" lon="5.68159">
        <ele>590.57</ele>
        <time>2019-11-01T12:49:32Z</time>
      </trkpt>
      <trkpt lat="44.86689" lon="5.68154">
        <ele>590.42</ele>
        <time>2019-11-01T12:49:33Z</time>
      </trkpt>
      <trkpt lat="44.8669" lon="5.68151">
        <ele>590.37</ele>
        <time>2019-11-01T12:49:34Z</time>
      </trkpt>
      <trkpt lat="44.86692" lon="5.68148">
        <ele>590.07</ele>
        <time>2019-11-01T12:49:35Z</time>
      </trkpt>
      <trkpt lat="44.86694" lon="5.68147">
        <ele>589.64</ele>
        <time>2019-11-01T12:49:36Z</time>
      </trkpt>
      <trkpt lat="44.86695" lon="5.68145">
        <ele>589.3</ele>
        <time>2019-11-01T12:49:37Z</time>
      </trkpt>
      <trkpt lat="44.86697" lon="5.68142">
        <ele>588.84</ele>
        <time>2019-11-01T12:49:38Z</time>
      </trkpt>
      <trkpt lat="44.86699" lon="5.68141">
        <ele>588.08</ele>
        <time>2019-11-01T12:49:39Z</time>
      </trkpt>
      <trkpt lat="44.86701" lon="5.68138">
        <ele>587.43</ele>
        <time>2019-11-01T12:49:40Z</time>
      </trkpt>
      <trkpt lat="44.86703" lon="5.68136">
        <ele>586.88</ele>
        <time>2019-11-01T12:49:41Z</time>
      </trkpt>
      <trkpt lat="44.86706" lon="5.68133">
        <ele>586.37</ele>
        <time>2019-11-01T12:49:42Z</time>
      </trkpt>
      <trkpt lat="44.86709" lon="5.6813">
        <ele>585.86</ele>
        <time>2019-11-01T12:49:43Z</time>
      </trkpt>
      <trkpt lat="44.86712" lon="5.68125">
        <ele>585.57</ele>
        <time>2019-11-01T12:49:44Z</time>
      </trkpt>
      <trkpt lat="44.86714" lon="5.68119">
        <ele>585.14</ele>
        <time>2019-11-01T12:49:45Z</time>
      </trkpt>
      <trkpt lat="44.86716" lon="5.68114">
        <ele>584.59</ele>
        <time>2019-11-01T12:49:46Z</time>
      </trkpt>
      <trkpt lat="44.86717" lon="5.6811">
        <ele>583.79</ele>
        <time>2019-11-01T12:49:47Z</time>
      </trkpt>
      <trkpt lat="44.86718" lon="5.68105">
        <ele>583.13</ele>
        <time>2019-11-01T12:49:48Z</time>
      </trkpt>
      <trkpt lat="44.86718" lon="5.68102">
        <ele>582.3</ele>
        <time>2019-11-01T12:49:49Z</time>
      </trkpt>
      <trkpt lat="44.86718" lon="5.68098">
        <ele>581.29</ele>
        <time>2019-11-01T12:49:50Z</time>
      </trkpt>
      <trkpt lat="44.8672" lon="5.68093">
        <ele>580.42</ele>
        <time>2019-11-01T12:49:51Z</time>
      </trkpt>
      <trkpt lat="44.86722" lon="5.68088">
        <ele>579.53</ele>
        <time>2019-11-01T12:49:52Z</time>
      </trkpt>
      <trkpt lat="44.86723" lon="5.68083">
        <ele>578.98</ele>
        <time>2019-11-01T12:49:53Z</time>
      </trkpt>
      <trkpt lat="44.86723" lon="5.68078">
        <ele>578.26</ele>
        <time>2019-11-01T12:49:54Z</time>
      </trkpt>
      <trkpt lat="44.86724" lon="5.68073">
        <ele>577.69</ele>
        <time>2019-11-01T12:49:55Z</time>
      </trkpt>
      <trkpt lat="44.86725" lon="5.68068">
        <ele>577.03</ele>
        <time>2019-11-01T12:49:56Z</time>
      </trkpt>
      <trkpt lat="44.86728" lon="5.68063">
        <ele>576.13</ele>
        <time>2019-11-01T12:49:57Z</time>
      </trkpt>
      <trkpt lat="44.86731" lon="5.68058">
        <ele>575.44</ele>
        <time>2019-11-01T12:49:58Z</time>
      </trkpt>
      <trkpt lat="44.86735" lon="5.68052">
        <ele>574.47</ele>
        <time>2019-11-01T12:49:59Z</time>
      </trkpt>
      <trkpt lat="44.86738" lon="5.68048">
        <ele>573.61</ele>
        <time>2019-11-01T12:50:00Z</time>
      </trkpt>
      <trkpt lat="44.8674" lon="5.68044">
        <ele>572.66</ele>
        <time>2019-11-01T12:50:01Z</time>
      </trkpt>
      <trkpt lat="44.86743" lon="5.6804">
        <ele>572.16</ele>
        <time>2019-11-01T12:50:02Z</time>
      </trkpt>
      <trkpt lat="44.86744" lon="5.68036">
        <ele>571.59</ele>
        <time>2019-11-01T12:50:03Z</time>
      </trkpt>
      <trkpt lat="44.86747" lon="5.68033">
        <ele>571.49</ele>
        <time>2019-11-01T12:50:04Z</time>
      </trkpt>
      <trkpt lat="44.86748" lon="5.68029">
        <ele>571.32</ele>
        <time>2019-11-01T12:50:05Z</time>
      </trkpt>
      <trkpt lat="44.8675" lon="5.68025">
        <ele>571.27</ele>
        <time>2019-11-01T12:50:06Z</time>
      </trkpt>
      <trkpt lat="44.86751" lon="5.68022">
        <ele>570.63</ele>
        <time>2019-11-01T12:50:07Z</time>
      </trkpt>
      <trkpt lat="44.86753" lon="5.68018">
        <ele>570.29</ele>
        <time>2019-11-01T12:50:08Z</time>
      </trkpt>
      <trkpt lat="44.86754" lon="5.68016">
        <ele>569.98</ele>
        <time>2019-11-01T12:50:09Z</time>
      </trkpt>
      <trkpt lat="44.86755" lon="5.68013">
        <ele>569.61</ele>
        <time>2019-11-01T12:50:10Z</time>
      </trkpt>
      <trkpt lat="44.86757" lon="5.6801">
        <ele>569.22</ele>
        <time>2019-11-01T12:50:11Z</time>
      </trkpt>
      <trkpt lat="44.86759" lon="5.68007">
        <ele>568.75</ele>
        <time>2019-11-01T12:50:12Z</time>
      </trkpt>
      <trkpt lat="44.8676" lon="5.68004">
        <ele>568.33</ele>
        <time>2019-11-01T12:50:13Z</time>
      </trkpt>
      <trkpt lat="44.86763" lon="5.68002">
        <ele>567.92</ele>
        <time>2019-11-01T12:50:14Z</time>
      </trkpt>
      <trkpt lat="44.86765" lon="5.67998">
        <ele>567.52</ele>
        <time>2019-11-01T12:50:15Z</time>
      </trkpt>
      <trkpt lat="44.86767" lon="5.67994">
        <ele>567.05</ele>
        <time>2019-11-01T12:50:16Z</time>
      </trkpt>
      <trkpt lat="44.86769" lon="5.6799">
        <ele>566.91</ele>
        <time>2019-11-01T12:50:17Z</time>
      </trkpt>
      <trkpt lat="44.86771" lon="5.67986">
        <ele>567.01</ele>
        <time>2019-11-01T12:50:18Z</time>
      </trkpt>
      <trkpt lat="44.86773" lon="5.67983">
        <ele>567.25</ele>
        <time>2019-11-01T12:50:19Z</time>
      </trkpt>
      <trkpt lat="44.86775" lon="5.67979">
        <ele>567.32</ele>
        <time>2019-11-01T12:50:20Z</time>
      </trkpt>
      <trkpt lat="44.86777" lon="5.67975">
        <ele>567.97</ele>
        <time>2019-11-01T12:50:21Z</time>
      </trkpt>
      <trkpt lat="44.86779" lon="5.67971">
        <ele>568.66</ele>
        <time>2019-11-01T12:50:22Z</time>
      </trkpt>
      <trkpt lat="44.86781" lon="5.67967">
        <ele>569.49</ele>
        <time>2019-11-01T12:50:23Z</time>
      </trkpt>
      <trkpt lat="44.86783" lon="5.67962">
        <ele>569.81</ele>
        <time>2019-11-01T12:50:24Z</time>
      </trkpt>
      <trkpt lat="44.86785" lon="5.67958">
        <ele>569.91</ele>
        <time>2019-11-01T12:50:25Z</time>
      </trkpt>
      <trkpt lat="44.86786" lon="5.67955">
        <ele>570.15</ele>
        <time>2019-11-01T12:50:26Z</time>
      </trkpt>
      <trkpt lat="44.86789" lon="5.67952">
        <ele>570.56</ele>
        <time>2019-11-01T12:50:28Z</time>
      </trkpt>
      <trkpt lat="44.86793" lon="5.67946">
        <ele>569.99</ele>
        <time>2019-11-01T12:51:05Z</time>
      </trkpt>
      <trkpt lat="44.86794" lon="5.67943">
        <ele>569.75</ele>
        <time>2019-11-01T12:51:06Z</time>
      </trkpt>
      <trkpt lat="44.86797" lon="5.67939">
        <ele>569.47</ele>
        <time>2019-11-01T12:51:07Z</time>
      </trkpt>
      <trkpt lat="44.868" lon="5.67935">
        <ele>569.25</ele>
        <time>2019-11-01T12:51:08Z</time>
      </trkpt>
      <trkpt lat="44.86802" lon="5.67931">
        <ele>568.9</ele>
        <time>2019-11-01T12:51:09Z</time>
      </trkpt>
      <trkpt lat="44.86804" lon="5.67927">
        <ele>568.65</ele>
        <time>2019-11-01T12:51:10Z</time>
      </trkpt>
      <trkpt lat="44.86806" lon="5.67923">
        <ele>568.44</ele>
        <time>2019-11-01T12:51:11Z</time>
      </trkpt>
      <trkpt lat="44.86808" lon="5.67919">
        <ele>568.45</ele>
        <time>2019-11-01T12:51:12Z</time>
      </trkpt>
      <trkpt lat="44.86809" lon="5.67914">
        <ele>568.52</ele>
        <time>2019-11-01T12:51:13Z</time>
      </trkpt>
      <trkpt lat="44.86811" lon="5.67909">
        <ele>568.33</ele>
        <time>2019-11-01T12:51:14Z</time>
      </trkpt>
      <trkpt lat="44.86814" lon="5.67903">
        <ele>568.41</ele>
        <time>2019-11-01T12:51:15Z</time>
      </trkpt>
      <trkpt lat="44.86816" lon="5.67898">
        <ele>568.51</ele>
        <time>2019-11-01T12:51:16Z</time>
      </trkpt>
      <trkpt lat="44.86819" lon="5.67894">
        <ele>568.54</ele>
        <time>2019-11-01T12:51:17Z</time>
      </trkpt>
      <trkpt lat="44.86823" lon="5.67889">
        <ele>568.34</ele>
        <time>2019-11-01T12:51:18Z</time>
      </trkpt>
      <trkpt lat="44.86826" lon="5.67883">
        <ele>567.92</ele>
        <time>2019-11-01T12:51:19Z</time>
      </trkpt>
      <trkpt lat="44.8683" lon="5.67878">
        <ele>567.52</ele>
        <time>2019-11-01T12:51:20Z</time>
      </trkpt>
      <trkpt lat="44.86833" lon="5.67872">
        <ele>567.33</ele>
        <time>2019-11-01T12:51:21Z</time>
      </trkpt>
      <trkpt lat="44.86838" lon="5.67865">
        <ele>566.43</ele>
        <time>2019-11-01T12:51:22Z</time>
      </trkpt>
      <trkpt lat="44.86841" lon="5.67859">
        <ele>565.74</ele>
        <time>2019-11-01T12:51:23Z</time>
      </trkpt>
      <trkpt lat="44.86844" lon="5.67853">
        <ele>565.19</ele>
        <time>2019-11-01T12:51:24Z</time>
      </trkpt>
      <trkpt lat="44.86846" lon="5.67847">
        <ele>564.74</ele>
        <time>2019-11-01T12:51:25Z</time>
      </trkpt>
      <trkpt lat="44.86849" lon="5.67842">
        <ele>564.12</ele>
        <time>2019-11-01T12:51:26Z</time>
      </trkpt>
      <trkpt lat="44.8685" lon="5.67838">
        <ele>563.65</ele>
        <time>2019-11-01T12:51:27Z</time>
      </trkpt>
      <trkpt lat="44.86851" lon="5.67834">
        <ele>563.23</ele>
        <time>2019-11-01T12:51:28Z</time>
      </trkpt>
      <trkpt lat="44.8685" lon="5.67832">
        <ele>562.54</ele>
        <time>2019-11-01T12:51:31Z</time>
      </trkpt>
      <trkpt lat="44.86853" lon="5.67822">
        <ele>561.64</ele>
        <time>2019-11-01T12:52:49Z</time>
      </trkpt>
      <trkpt lat="44.86854" lon="5.67819">
        <ele>561.37</ele>
        <time>2019-11-01T12:52:50Z</time>
      </trkpt>
      <trkpt lat="44.86855" lon="5.67816">
        <ele>561.21</ele>
        <time>2019-11-01T12:52:51Z</time>
      </trkpt>
      <trkpt lat="44.86856" lon="5.67812">
        <ele>561.17</ele>
        <time>2019-11-01T12:52:52Z</time>
      </trkpt>
      <trkpt lat="44.86858" lon="5.67807">
        <ele>561.08</ele>
        <time>2019-11-01T12:52:53Z</time>
      </trkpt>
      <trkpt lat="44.86859" lon="5.67803">
        <ele>560.85</ele>
        <time>2019-11-01T12:52:54Z</time>
      </trkpt>
      <trkpt lat="44.86861" lon="5.67798">
        <ele>560.5</ele>
        <time>2019-11-01T12:52:55Z</time>
      </trkpt>
      <trkpt lat="44.86862" lon="5.67794">
        <ele>560.04</ele>
        <time>2019-11-01T12:52:56Z</time>
      </trkpt>
      <trkpt lat="44.86864" lon="5.67789">
        <ele>559.56</ele>
        <time>2019-11-01T12:52:57Z</time>
      </trkpt>
      <trkpt lat="44.86867" lon="5.67785">
        <ele>558.99</ele>
        <time>2019-11-01T12:52:58Z</time>
      </trkpt>
      <trkpt lat="44.86869" lon="5.6778">
        <ele>558.33</ele>
        <time>2019-11-01T12:52:59Z</time>
      </trkpt>
      <trkpt lat="44.86872" lon="5.67776">
        <ele>557.78</ele>
        <time>2019-11-01T12:53:00Z</time>
      </trkpt>
      <trkpt lat="44.86874" lon="5.67773">
        <ele>557.2</ele>
        <time>2019-11-01T12:53:01Z</time>
      </trkpt>
      <trkpt lat="44.86875" lon="5.67769">
        <ele>556.6</ele>
        <time>2019-11-01T12:53:02Z</time>
      </trkpt>
      <trkpt lat="44.86877" lon="5.67763">
        <ele>555.24</ele>
        <time>2019-11-01T12:53:03Z</time>
      </trkpt>
      <trkpt lat="44.8688" lon="5.67759">
        <ele>553.84</ele>
        <time>2019-11-01T12:53:04Z</time>
      </trkpt>
      <trkpt lat="44.86882" lon="5.67754">
        <ele>552.73</ele>
        <time>2019-11-01T12:53:05Z</time>
      </trkpt>
      <trkpt lat="44.86884" lon="5.6775">
        <ele>551.48</ele>
        <time>2019-11-01T12:53:06Z</time>
      </trkpt>
      <trkpt lat="44.86886" lon="5.67746">
        <ele>550.34</ele>
        <time>2019-11-01T12:53:07Z</time>
      </trkpt>
      <trkpt lat="44.86889" lon="5.67741">
        <ele>549.44</ele>
        <time>2019-11-01T12:53:08Z</time>
      </trkpt>
      <trkpt lat="44.86891" lon="5.67735">
        <ele>548.54</ele>
        <time>2019-11-01T12:53:09Z</time>
      </trkpt>
      <trkpt lat="44.86892" lon="5.67729">
        <ele>547.35</ele>
        <time>2019-11-01T12:53:10Z</time>
      </trkpt>
      <trkpt lat="44.86895" lon="5.67723">
        <ele>546.37</ele>
        <time>2019-11-01T12:53:11Z</time>
      </trkpt>
      <trkpt lat="44.86897" lon="5.67718">
        <ele>545.45</ele>
        <time>2019-11-01T12:53:12Z</time>
      </trkpt>
      <trkpt lat="44.86899" lon="5.67714">
        <ele>544.61</ele>
        <time>2019-11-01T12:53:13Z</time>
      </trkpt>
      <trkpt lat="44.86901" lon="5.67711">
        <ele>544.01</ele>
        <time>2019-11-01T12:53:14Z</time>
      </trkpt>
      <trkpt lat="44.86904" lon="5.67707">
        <ele>543.27</ele>
        <time>2019-11-01T12:53:15Z</time>
      </trkpt>
      <trkpt lat="44.86906" lon="5.67704">
        <ele>542.34</ele>
        <time>2019-11-01T12:53:16Z</time>
      </trkpt>
      <trkpt lat="44.86908" lon="5.67698">
        <ele>541.51</ele>
        <time>2019-11-01T12:53:17Z</time>
      </trkpt>
      <trkpt lat="44.86911" lon="5.67694">
        <ele>541.12</ele>
        <time>2019-11-01T12:53:18Z</time>
      </trkpt>
      <trkpt lat="44.86913" lon="5.6769">
        <ele>540.93</ele>
        <time>2019-11-01T12:53:19Z</time>
      </trkpt>
      <trkpt lat="44.86915" lon="5.67688">
        <ele>541.08</ele>
        <time>2019-11-01T12:53:20Z</time>
      </trkpt>
      <trkpt lat="44.86918" lon="5.67685">
        <ele>541.06</ele>
        <time>2019-11-01T12:53:21Z</time>
      </trkpt>
      <trkpt lat="44.8692" lon="5.67683">
        <ele>541.47</ele>
        <time>2019-11-01T12:53:22Z</time>
      </trkpt>
      <trkpt lat="44.86923" lon="5.6768">
        <ele>541.81</ele>
        <time>2019-11-01T12:53:23Z</time>
      </trkpt>
      <trkpt lat="44.86925" lon="5.67677">
        <ele>541.91</ele>
        <time>2019-11-01T12:53:24Z</time>
      </trkpt>
      <trkpt lat="44.86927" lon="5.67674">
        <ele>541.87</ele>
        <time>2019-11-01T12:53:25Z</time>
      </trkpt>
      <trkpt lat="44.86929" lon="5.6767">
        <ele>541.78</ele>
        <time>2019-11-01T12:53:26Z</time>
      </trkpt>
      <trkpt lat="44.8693" lon="5.67666">
        <ele>541.9</ele>
        <time>2019-11-01T12:53:27Z</time>
      </trkpt>
      <trkpt lat="44.86931" lon="5.67663">
        <ele>542.14</ele>
        <time>2019-11-01T12:53:28Z</time>
      </trkpt>
      <trkpt lat="44.86932" lon="5.6766">
        <ele>542.43</ele>
        <time>2019-11-01T12:53:29Z</time>
      </trkpt>
      <trkpt lat="44.86934" lon="5.67655">
        <ele>542.88</ele>
        <time>2019-11-01T12:53:31Z</time>
      </trkpt>
      <trkpt lat="44.86935" lon="5.67653">
        <ele>543</ele>
        <time>2019-11-01T12:53:32Z</time>
      </trkpt>
      <trkpt lat="44.86937" lon="5.67649">
        <ele>542.75</ele>
        <time>2019-11-01T12:53:33Z</time>
      </trkpt>
      <trkpt lat="44.86939" lon="5.67645">
        <ele>542.19</ele>
        <time>2019-11-01T12:53:34Z</time>
      </trkpt>
      <trkpt lat="44.8694" lon="5.67642">
        <ele>541.74</ele>
        <time>2019-11-01T12:53:35Z</time>
      </trkpt>
      <trkpt lat="44.86942" lon="5.67639">
        <ele>541.4</ele>
        <time>2019-11-01T12:53:36Z</time>
      </trkpt>
      <trkpt lat="44.86944" lon="5.67636">
        <ele>541.29</ele>
        <time>2019-11-01T12:53:37Z</time>
      </trkpt>
      <trkpt lat="44.86946" lon="5.67633">
        <ele>541.47</ele>
        <time>2019-11-01T12:53:38Z</time>
      </trkpt>
      <trkpt lat="44.86947" lon="5.6763">
        <ele>541.46</ele>
        <time>2019-11-01T12:53:39Z</time>
      </trkpt>
      <trkpt lat="44.86949" lon="5.67627">
        <ele>541.17</ele>
        <time>2019-11-01T12:53:40Z</time>
      </trkpt>
      <trkpt lat="44.8695" lon="5.67625">
        <ele>540.81</ele>
        <time>2019-11-01T12:53:41Z</time>
      </trkpt>
      <trkpt lat="44.86953" lon="5.67621">
        <ele>539.97</ele>
        <time>2019-11-01T12:53:43Z</time>
      </trkpt>
      <trkpt lat="44.86954" lon="5.67617">
        <ele>539.89</ele>
        <time>2019-11-01T12:53:44Z</time>
      </trkpt>
      <trkpt lat="44.86956" lon="5.67613">
        <ele>539.65</ele>
        <time>2019-11-01T12:53:45Z</time>
      </trkpt>
      <trkpt lat="44.86957" lon="5.67608">
        <ele>539.58</ele>
        <time>2019-11-01T12:53:46Z</time>
      </trkpt>
      <trkpt lat="44.86958" lon="5.67603">
        <ele>539.42</ele>
        <time>2019-11-01T12:53:47Z</time>
      </trkpt>
      <trkpt lat="44.86959" lon="5.67596">
        <ele>539.23</ele>
        <time>2019-11-01T12:53:48Z</time>
      </trkpt>
      <trkpt lat="44.86958" lon="5.6759">
        <ele>539.17</ele>
        <time>2019-11-01T12:53:49Z</time>
      </trkpt>
      <trkpt lat="44.86958" lon="5.67584">
        <ele>539.23</ele>
        <time>2019-11-01T12:53:50Z</time>
      </trkpt>
      <trkpt lat="44.86958" lon="5.67577">
        <ele>539.38</ele>
        <time>2019-11-01T12:53:51Z</time>
      </trkpt>
      <trkpt lat="44.86958" lon="5.6757">
        <ele>539.43</ele>
        <time>2019-11-01T12:53:52Z</time>
      </trkpt>
      <trkpt lat="44.86958" lon="5.67566">
        <ele>538.95</ele>
        <time>2019-11-01T12:53:53Z</time>
      </trkpt>
      <trkpt lat="44.86957" lon="5.67562">
        <ele>538.81</ele>
        <time>2019-11-01T12:53:54Z</time>
      </trkpt>
      <trkpt lat="44.86957" lon="5.67559">
        <ele>538.77</ele>
        <time>2019-11-01T12:53:55Z</time>
      </trkpt>
      <trkpt lat="44.86956" lon="5.67556">
        <ele>538.54</ele>
        <time>2019-11-01T12:53:56Z</time>
      </trkpt>
      <trkpt lat="44.86955" lon="5.67553">
        <ele>538.48</ele>
        <time>2019-11-01T12:53:57Z</time>
      </trkpt>
      <trkpt lat="44.86954" lon="5.67549">
        <ele>537.84</ele>
        <time>2019-11-01T12:53:59Z</time>
      </trkpt>
      <trkpt lat="44.86954" lon="5.67546">
        <ele>537.34</ele>
        <time>2019-11-01T12:54:01Z</time>
      </trkpt>
      <trkpt lat="44.86956" lon="5.67537">
        <ele>537.04</ele>
        <time>2019-11-01T12:54:19Z</time>
      </trkpt>
      <trkpt lat="44.86957" lon="5.67533">
        <ele>537.19</ele>
        <time>2019-11-01T12:54:21Z</time>
      </trkpt>
      <trkpt lat="44.86958" lon="5.67528">
        <ele>537.47</ele>
        <time>2019-11-01T12:54:23Z</time>
      </trkpt>
      <trkpt lat="44.8696" lon="5.67524">
        <ele>537.77</ele>
        <time>2019-11-01T12:54:25Z</time>
      </trkpt>
      <trkpt lat="44.86961" lon="5.67522">
        <ele>537.97</ele>
        <time>2019-11-01T12:54:26Z</time>
      </trkpt>
      <trkpt lat="44.86963" lon="5.67519">
        <ele>538.09</ele>
        <time>2019-11-01T12:54:27Z</time>
      </trkpt>
      <trkpt lat="44.86965" lon="5.67515">
        <ele>538.2</ele>
        <time>2019-11-01T12:54:28Z</time>
      </trkpt>
      <trkpt lat="44.86967" lon="5.67511">
        <ele>538.31</ele>
        <time>2019-11-01T12:54:29Z</time>
      </trkpt>
      <trkpt lat="44.8697" lon="5.67507">
        <ele>538.34</ele>
        <time>2019-11-01T12:54:30Z</time>
      </trkpt>
      <trkpt lat="44.86973" lon="5.67502">
        <ele>538.21</ele>
        <time>2019-11-01T12:54:31Z</time>
      </trkpt>
      <trkpt lat="44.86976" lon="5.67498">
        <ele>538.03</ele>
        <time>2019-11-01T12:54:32Z</time>
      </trkpt>
      <trkpt lat="44.86978" lon="5.67494">
        <ele>537.76</ele>
        <time>2019-11-01T12:54:33Z</time>
      </trkpt>
      <trkpt lat="44.86981" lon="5.6749">
        <ele>537.4</ele>
        <time>2019-11-01T12:54:34Z</time>
      </trkpt>
      <trkpt lat="44.86984" lon="5.67484">
        <ele>537.02</ele>
        <time>2019-11-01T12:54:35Z</time>
      </trkpt>
      <trkpt lat="44.86987" lon="5.67479">
        <ele>536.69</ele>
        <time>2019-11-01T12:54:36Z</time>
      </trkpt>
      <trkpt lat="44.8699" lon="5.67472">
        <ele>536.45</ele>
        <time>2019-11-01T12:54:37Z</time>
      </trkpt>
      <trkpt lat="44.86993" lon="5.67464">
        <ele>536.24</ele>
        <time>2019-11-01T12:54:38Z</time>
      </trkpt>
      <trkpt lat="44.86997" lon="5.67457">
        <ele>536.04</ele>
        <time>2019-11-01T12:54:39Z</time>
      </trkpt>
      <trkpt lat="44.87" lon="5.6745">
        <ele>535.77</ele>
        <time>2019-11-01T12:54:40Z</time>
      </trkpt>
      <trkpt lat="44.87003" lon="5.67441">
        <ele>535.33</ele>
        <time>2019-11-01T12:54:41Z</time>
      </trkpt>
      <trkpt lat="44.87005" lon="5.67434">
        <ele>534.92</ele>
        <time>2019-11-01T12:54:42Z</time>
      </trkpt>
      <trkpt lat="44.87006" lon="5.67428">
        <ele>534.45</ele>
        <time>2019-11-01T12:54:43Z</time>
      </trkpt>
      <trkpt lat="44.87007" lon="5.67422">
        <ele>533.82</ele>
        <time>2019-11-01T12:54:44Z</time>
      </trkpt>
      <trkpt lat="44.87009" lon="5.67416">
        <ele>533.21</ele>
        <time>2019-11-01T12:54:45Z</time>
      </trkpt>
      <trkpt lat="44.87011" lon="5.6741">
        <ele>532.82</ele>
        <time>2019-11-01T12:54:46Z</time>
      </trkpt>
      <trkpt lat="44.87013" lon="5.67406">
        <ele>532.7</ele>
        <time>2019-11-01T12:54:47Z</time>
      </trkpt>
      <trkpt lat="44.87016" lon="5.67405">
        <ele>532.87</ele>
        <time>2019-11-01T12:54:48Z</time>
      </trkpt>
      <trkpt lat="44.87018" lon="5.67404">
        <ele>532.93</ele>
        <time>2019-11-01T12:54:49Z</time>
      </trkpt>
      <trkpt lat="44.87019" lon="5.67409">
        <ele>533.55</ele>
        <time>2019-11-01T12:55:07Z</time>
      </trkpt>
      <trkpt lat="44.87022" lon="5.6741">
        <ele>533.69</ele>
        <time>2019-11-01T12:55:08Z</time>
      </trkpt>
      <trkpt lat="44.87023" lon="5.67412">
        <ele>533.73</ele>
        <time>2019-11-01T12:55:09Z</time>
      </trkpt>
      <trkpt lat="44.87025" lon="5.67413">
        <ele>533.81</ele>
        <time>2019-11-01T12:55:10Z</time>
      </trkpt>
      <trkpt lat="44.87028" lon="5.67415">
        <ele>533.91</ele>
        <time>2019-11-01T12:55:11Z</time>
      </trkpt>
      <trkpt lat="44.87031" lon="5.67418">
        <ele>533.94</ele>
        <time>2019-11-01T12:55:12Z</time>
      </trkpt>
      <trkpt lat="44.87035" lon="5.67421">
        <ele>533.88</ele>
        <time>2019-11-01T12:55:13Z</time>
      </trkpt>
      <trkpt lat="44.87037" lon="5.67423">
        <ele>533.72</ele>
        <time>2019-11-01T12:55:14Z</time>
      </trkpt>
      <trkpt lat="44.87039" lon="5.67426">
        <ele>533.32</ele>
        <time>2019-11-01T12:55:15Z</time>
      </trkpt>
      <trkpt lat="44.87039" lon="5.67428">
        <ele>532.85</ele>
        <time>2019-11-01T12:55:16Z</time>
      </trkpt>
      <trkpt lat="44.87039" lon="5.67432">
        <ele>532.5</ele>
        <time>2019-11-01T12:55:17Z</time>
      </trkpt>
      <trkpt lat="44.87037" lon="5.67434">
        <ele>532.11</ele>
        <time>2019-11-01T12:55:18Z</time>
      </trkpt>
      <trkpt lat="44.87036" lon="5.67437">
        <ele>531.65</ele>
        <time>2019-11-01T12:55:19Z</time>
      </trkpt>
      <trkpt lat="44.87033" lon="5.6744">
        <ele>531.37</ele>
        <time>2019-11-01T12:55:20Z</time>
      </trkpt>
      <trkpt lat="44.87031" lon="5.67445">
        <ele>530.93</ele>
        <time>2019-11-01T12:55:21Z</time>
      </trkpt>
      <trkpt lat="44.87029" lon="5.67449">
        <ele>530.59</ele>
        <time>2019-11-01T12:55:22Z</time>
      </trkpt>
      <trkpt lat="44.87027" lon="5.67453">
        <ele>530.42</ele>
        <time>2019-11-01T12:55:23Z</time>
      </trkpt>
      <trkpt lat="44.87026" lon="5.67457">
        <ele>529.88</ele>
        <time>2019-11-01T12:55:24Z</time>
      </trkpt>
      <trkpt lat="44.87026" lon="5.67461">
        <ele>529.3</ele>
        <time>2019-11-01T12:55:25Z</time>
      </trkpt>
      <trkpt lat="44.87027" lon="5.67464">
        <ele>528.91</ele>
        <time>2019-11-01T12:55:26Z</time>
      </trkpt>
      <trkpt lat="44.87027" lon="5.67468">
        <ele>528.59</ele>
        <time>2019-11-01T12:55:27Z</time>
      </trkpt>
      <trkpt lat="44.87029" lon="5.67472">
        <ele>528.28</ele>
        <time>2019-11-01T12:55:28Z</time>
      </trkpt>
      <trkpt lat="44.8703" lon="5.67475">
        <ele>528.05</ele>
        <time>2019-11-01T12:55:29Z</time>
      </trkpt>
      <trkpt lat="44.8703" lon="5.67478">
        <ele>528.05</ele>
        <time>2019-11-01T12:55:30Z</time>
      </trkpt>
      <trkpt lat="44.87031" lon="5.67481">
        <ele>527.77</ele>
        <time>2019-11-01T12:55:31Z</time>
      </trkpt>
      <trkpt lat="44.87032" lon="5.67486">
        <ele>527.47</ele>
        <time>2019-11-01T12:55:32Z</time>
      </trkpt>
      <trkpt lat="44.87032" lon="5.6749">
        <ele>527.25</ele>
        <time>2019-11-01T12:55:33Z</time>
      </trkpt>
      <trkpt lat="44.87032" lon="5.67494">
        <ele>527.04</ele>
        <time>2019-11-01T12:55:34Z</time>
      </trkpt>
      <trkpt lat="44.87033" lon="5.67498">
        <ele>526.84</ele>
        <time>2019-11-01T12:55:35Z</time>
      </trkpt>
      <trkpt lat="44.87033" lon="5.675">
        <ele>526.29</ele>
        <time>2019-11-01T12:55:36Z</time>
      </trkpt>
      <trkpt lat="44.87035" lon="5.67503">
        <ele>525.63</ele>
        <time>2019-11-01T12:55:37Z</time>
      </trkpt>
      <trkpt lat="44.87035" lon="5.67506">
        <ele>525.15</ele>
        <time>2019-11-01T12:55:38Z</time>
      </trkpt>
      <trkpt lat="44.87036" lon="5.6751">
        <ele>524.66</ele>
        <time>2019-11-01T12:55:39Z</time>
      </trkpt>
      <trkpt lat="44.87036" lon="5.67514">
        <ele>524.23</ele>
        <time>2019-11-01T12:55:40Z</time>
      </trkpt>
      <trkpt lat="44.87036" lon="5.67518">
        <ele>523.68</ele>
        <time>2019-11-01T12:55:41Z</time>
      </trkpt>
      <trkpt lat="44.87037" lon="5.67523">
        <ele>523.24</ele>
        <time>2019-11-01T12:55:42Z</time>
      </trkpt>
      <trkpt lat="44.87039" lon="5.67526">
        <ele>522.27</ele>
        <time>2019-11-01T12:55:43Z</time>
      </trkpt>
      <trkpt lat="44.8704" lon="5.67527">
        <ele>521.9</ele>
        <time>2019-11-01T12:55:44Z</time>
      </trkpt>
      <trkpt lat="44.87042" lon="5.67529">
        <ele>521.55</ele>
        <time>2019-11-01T12:55:46Z</time>
      </trkpt>
      <trkpt lat="44.87041" lon="5.67534">
        <ele>521.16</ele>
        <time>2019-11-01T12:55:48Z</time>
      </trkpt>
      <trkpt lat="44.87041" lon="5.67537">
        <ele>520.87</ele>
        <time>2019-11-01T12:55:49Z</time>
      </trkpt>
      <trkpt lat="44.87041" lon="5.6754">
        <ele>520.65</ele>
        <time>2019-11-01T12:55:50Z</time>
      </trkpt>
      <trkpt lat="44.87039" lon="5.67544">
        <ele>520.44</ele>
        <time>2019-11-01T12:55:51Z</time>
      </trkpt>
      <trkpt lat="44.87038" lon="5.67547">
        <ele>520.03</ele>
        <time>2019-11-01T12:55:52Z</time>
      </trkpt>
      <trkpt lat="44.87036" lon="5.6755">
        <ele>519.41</ele>
        <time>2019-11-01T12:55:53Z</time>
      </trkpt>
      <trkpt lat="44.87036" lon="5.67554">
        <ele>518.74</ele>
        <time>2019-11-01T12:55:54Z</time>
      </trkpt>
      <trkpt lat="44.87036" lon="5.67557">
        <ele>518.26</ele>
        <time>2019-11-01T12:55:55Z</time>
      </trkpt>
      <trkpt lat="44.87036" lon="5.6756">
        <ele>517.69</ele>
        <time>2019-11-01T12:55:56Z</time>
      </trkpt>
      <trkpt lat="44.87036" lon="5.67564">
        <ele>516.62</ele>
        <time>2019-11-01T12:55:58Z</time>
      </trkpt>
      <trkpt lat="44.87039" lon="5.67567">
        <ele>516.15</ele>
        <time>2019-11-01T12:55:59Z</time>
      </trkpt>
      <trkpt lat="44.8704" lon="5.67572">
        <ele>515.55</ele>
        <time>2019-11-01T12:56:01Z</time>
      </trkpt>
      <trkpt lat="44.87041" lon="5.67574">
        <ele>515.34</ele>
        <time>2019-11-01T12:56:02Z</time>
      </trkpt>
      <trkpt lat="44.87042" lon="5.67577">
        <ele>515.07</ele>
        <time>2019-11-01T12:56:03Z</time>
      </trkpt>
      <trkpt lat="44.87042" lon="5.67582">
        <ele>514.11</ele>
        <time>2019-11-01T12:56:05Z</time>
      </trkpt>
      <trkpt lat="44.87042" lon="5.67585">
        <ele>513.65</ele>
        <time>2019-11-01T12:56:06Z</time>
      </trkpt>
      <trkpt lat="44.87044" lon="5.6759">
        <ele>512.62</ele>
        <time>2019-11-01T12:56:08Z</time>
      </trkpt>
      <trkpt lat="44.87046" lon="5.67593">
        <ele>512</ele>
        <time>2019-11-01T12:56:10Z</time>
      </trkpt>
      <trkpt lat="44.87049" lon="5.67593">
        <ele>511.55</ele>
        <time>2019-11-01T12:56:11Z</time>
      </trkpt>
      <trkpt lat="44.87051" lon="5.67594">
        <ele>511.27</ele>
        <time>2019-11-01T12:56:12Z</time>
      </trkpt>
      <trkpt lat="44.87054" lon="5.67593">
        <ele>510.76</ele>
        <time>2019-11-01T12:56:13Z</time>
      </trkpt>
      <trkpt lat="44.87058" lon="5.67594">
        <ele>509.98</ele>
        <time>2019-11-01T12:56:14Z</time>
      </trkpt>
      <trkpt lat="44.87062" lon="5.67596">
        <ele>509.12</ele>
        <time>2019-11-01T12:56:15Z</time>
      </trkpt>
      <trkpt lat="44.87064" lon="5.67598">
        <ele>508.09</ele>
        <time>2019-11-01T12:56:16Z</time>
      </trkpt>
      <trkpt lat="44.87067" lon="5.676">
        <ele>507.29</ele>
        <time>2019-11-01T12:56:17Z</time>
      </trkpt>
      <trkpt lat="44.87069" lon="5.67603">
        <ele>506.28</ele>
        <time>2019-11-01T12:56:18Z</time>
      </trkpt>
      <trkpt lat="44.87072" lon="5.67606">
        <ele>505.21</ele>
        <time>2019-11-01T12:56:19Z</time>
      </trkpt>
      <trkpt lat="44.87074" lon="5.67609">
        <ele>504.33</ele>
        <time>2019-11-01T12:56:20Z</time>
      </trkpt>
      <trkpt lat="44.87077" lon="5.67611">
        <ele>503.29</ele>
        <time>2019-11-01T12:56:21Z</time>
      </trkpt>
      <trkpt lat="44.87079" lon="5.67614">
        <ele>503.19</ele>
        <time>2019-11-01T12:56:22Z</time>
      </trkpt>
      <trkpt lat="44.8708" lon="5.67618">
        <ele>502.95</ele>
        <time>2019-11-01T12:56:23Z</time>
      </trkpt>
      <trkpt lat="44.8708" lon="5.67621">
        <ele>502.25</ele>
        <time>2019-11-01T12:56:24Z</time>
      </trkpt>
      <trkpt lat="44.87079" lon="5.67625">
        <ele>501.41</ele>
        <time>2019-11-01T12:56:25Z</time>
      </trkpt>
      <trkpt lat="44.87079" lon="5.67629">
        <ele>500.6</ele>
        <time>2019-11-01T12:56:26Z</time>
      </trkpt>
      <trkpt lat="44.87079" lon="5.67632">
        <ele>500.35</ele>
        <time>2019-11-01T12:56:27Z</time>
      </trkpt>
      <trkpt lat="44.8708" lon="5.67635">
        <ele>500.21</ele>
        <time>2019-11-01T12:56:28Z</time>
      </trkpt>
      <trkpt lat="44.87082" lon="5.67638">
        <ele>499.97</ele>
        <time>2019-11-01T12:56:30Z</time>
      </trkpt>
      <trkpt lat="44.87075" lon="5.67645">
        <ele>498.96</ele>
        <time>2019-11-01T12:59:56Z</time>
      </trkpt>
      <trkpt lat="44.87073" lon="5.67646">
        <ele>499.14</ele>
        <time>2019-11-01T12:59:59Z</time>
      </trkpt>
      <trkpt lat="44.87066" lon="5.67655">
        <ele>501.11</ele>
        <time>2019-11-01T13:00:19Z</time>
      </trkpt>
      <trkpt lat="44.87065" lon="5.67657">
        <ele>502.7</ele>
        <time>2019-11-01T13:00:22Z</time>
      </trkpt>
      <trkpt lat="44.87056" lon="5.67666">
        <ele>505.44</ele>
        <time>2019-11-01T13:00:35Z</time>
      </trkpt>
      <trkpt lat="44.87056" lon="5.67669">
        <ele>507.13</ele>
        <time>2019-11-01T13:00:38Z</time>
      </trkpt>
      <trkpt lat="44.87057" lon="5.67682">
        <ele>509</ele>
        <time>2019-11-01T13:01:06Z</time>
      </trkpt>
      <trkpt lat="44.87056" lon="5.67687">
        <ele>509.52</ele>
        <time>2019-11-01T13:01:07Z</time>
      </trkpt>
      <trkpt lat="44.87058" lon="5.67689">
        <ele>509.61</ele>
        <time>2019-11-01T13:01:08Z</time>
      </trkpt>
      <trkpt lat="44.87059" lon="5.67691">
        <ele>509.57</ele>
        <time>2019-11-01T13:01:09Z</time>
      </trkpt>
      <trkpt lat="44.8706" lon="5.67695">
        <ele>509.48</ele>
        <time>2019-11-01T13:01:11Z</time>
      </trkpt>
      <trkpt lat="44.87065" lon="5.67696">
        <ele>509.14</ele>
        <time>2019-11-01T13:01:17Z</time>
      </trkpt>
      <trkpt lat="44.87074" lon="5.67701">
        <ele>509.16</ele>
        <time>2019-11-01T13:02:59Z</time>
      </trkpt>
      <trkpt lat="44.87079" lon="5.67711">
        <ele>508.9</ele>
        <time>2019-11-01T13:03:36Z</time>
      </trkpt>
      <trkpt lat="44.8708" lon="5.67714">
        <ele>508.72</ele>
        <time>2019-11-01T13:03:37Z</time>
      </trkpt>
      <trkpt lat="44.87082" lon="5.67716">
        <ele>508.67</ele>
        <time>2019-11-01T13:03:38Z</time>
      </trkpt>
      <trkpt lat="44.87083" lon="5.6772">
        <ele>508.65</ele>
        <time>2019-11-01T13:03:40Z</time>
      </trkpt>
      <trkpt lat="44.87082" lon="5.67723">
        <ele>508.58</ele>
        <time>2019-11-01T13:03:41Z</time>
      </trkpt>
      <trkpt lat="44.87082" lon="5.67727">
        <ele>508.39</ele>
        <time>2019-11-01T13:03:43Z</time>
      </trkpt>
      <trkpt lat="44.87081" lon="5.6773">
        <ele>508.29</ele>
        <time>2019-11-01T13:03:44Z</time>
      </trkpt>
      <trkpt lat="44.87081" lon="5.67732">
        <ele>508.26</ele>
        <time>2019-11-01T13:03:45Z</time>
      </trkpt>
      <trkpt lat="44.8708" lon="5.67735">
        <ele>508.25</ele>
        <time>2019-11-01T13:03:46Z</time>
      </trkpt>
      <trkpt lat="44.87078" lon="5.67737">
        <ele>507.97</ele>
        <time>2019-11-01T13:03:47Z</time>
      </trkpt>
      <trkpt lat="44.87078" lon="5.67742">
        <ele>507.54</ele>
        <time>2019-11-01T13:03:49Z</time>
      </trkpt>
      <trkpt lat="44.87076" lon="5.67745">
        <ele>507.34</ele>
        <time>2019-11-01T13:03:50Z</time>
      </trkpt>
      <trkpt lat="44.87075" lon="5.67748">
        <ele>507.07</ele>
        <time>2019-11-01T13:03:51Z</time>
      </trkpt>
      <trkpt lat="44.87074" lon="5.67751">
        <ele>506.7</ele>
        <time>2019-11-01T13:03:52Z</time>
      </trkpt>
      <trkpt lat="44.87073" lon="5.67753">
        <ele>506.18</ele>
        <time>2019-11-01T13:03:53Z</time>
      </trkpt>
      <trkpt lat="44.87071" lon="5.67754">
        <ele>505.74</ele>
        <time>2019-11-01T13:03:54Z</time>
      </trkpt>
      <trkpt lat="44.8707" lon="5.67756">
        <ele>505.4</ele>
        <time>2019-11-01T13:03:55Z</time>
      </trkpt>
      <trkpt lat="44.87068" lon="5.67758">
        <ele>505.08</ele>
        <time>2019-11-01T13:03:56Z</time>
      </trkpt>
      <trkpt lat="44.87066" lon="5.6776">
        <ele>504.71</ele>
        <time>2019-11-01T13:03:57Z</time>
      </trkpt>
      <trkpt lat="44.87063" lon="5.67761">
        <ele>504.32</ele>
        <time>2019-11-01T13:03:58Z</time>
      </trkpt>
      <trkpt lat="44.87061" lon="5.67762">
        <ele>503.92</ele>
        <time>2019-11-01T13:03:59Z</time>
      </trkpt>
      <trkpt lat="44.87059" lon="5.67764">
        <ele>503.45</ele>
        <time>2019-11-01T13:04:00Z</time>
      </trkpt>
      <trkpt lat="44.87056" lon="5.67766">
        <ele>503.03</ele>
        <time>2019-11-01T13:04:01Z</time>
      </trkpt>
      <trkpt lat="44.87054" lon="5.67767">
        <ele>502.69</ele>
        <time>2019-11-01T13:04:02Z</time>
      </trkpt>
      <trkpt lat="44.87052" lon="5.67767">
        <ele>502.03</ele>
        <time>2019-11-01T13:04:03Z</time>
      </trkpt>
      <trkpt lat="44.8705" lon="5.67767">
        <ele>501.41</ele>
        <time>2019-11-01T13:04:04Z</time>
      </trkpt>
      <trkpt lat="44.87048" lon="5.67768">
        <ele>500.95</ele>
        <time>2019-11-01T13:04:05Z</time>
      </trkpt>
      <trkpt lat="44.87046" lon="5.6777">
        <ele>499.53</ele>
        <time>2019-11-01T13:04:07Z</time>
      </trkpt>
      <trkpt lat="44.87046" lon="5.67755">
        <ele>498.66</ele>
        <time>2019-11-01T13:06:11Z</time>
      </trkpt>
      <trkpt lat="44.87042" lon="5.67762">
        <ele>497.82</ele>
        <time>2019-11-01T13:06:30Z</time>
      </trkpt>
      <trkpt lat="44.87039" lon="5.67763">
        <ele>497.41</ele>
        <time>2019-11-01T13:06:32Z</time>
      </trkpt>
      <trkpt lat="44.87035" lon="5.67765">
        <ele>497.28</ele>
        <time>2019-11-01T13:06:34Z</time>
      </trkpt>
      <trkpt lat="44.87033" lon="5.67766">
        <ele>497.19</ele>
        <time>2019-11-01T13:06:35Z</time>
      </trkpt>
      <trkpt lat="44.8703" lon="5.67768">
        <ele>497.09</ele>
        <time>2019-11-01T13:06:36Z</time>
      </trkpt>
      <trkpt lat="44.87029" lon="5.67769">
        <ele>496.99</ele>
        <time>2019-11-01T13:06:37Z</time>
      </trkpt>
      <trkpt lat="44.87026" lon="5.6777">
        <ele>496.88</ele>
        <time>2019-11-01T13:06:39Z</time>
      </trkpt>
      <trkpt lat="44.87023" lon="5.67771">
        <ele>496.85</ele>
        <time>2019-11-01T13:06:41Z</time>
      </trkpt>
      <trkpt lat="44.87022" lon="5.67784">
        <ele>496.86</ele>
        <time>2019-11-01T13:07:06Z</time>
      </trkpt>
      <trkpt lat="44.87019" lon="5.67786">
        <ele>497.08</ele>
        <time>2019-11-01T13:07:08Z</time>
      </trkpt>
      <trkpt lat="44.87012" lon="5.67794">
        <ele>497.67</ele>
        <time>2019-11-01T13:07:33Z</time>
      </trkpt>
      <trkpt lat="44.87013" lon="5.67798">
        <ele>497.9</ele>
        <time>2019-11-01T13:07:35Z</time>
      </trkpt>
      <trkpt lat="44.87012" lon="5.67801">
        <ele>497.94</ele>
        <time>2019-11-01T13:07:36Z</time>
      </trkpt>
      <trkpt lat="44.87014" lon="5.67802">
        <ele>497.95</ele>
        <time>2019-11-01T13:07:38Z</time>
      </trkpt>
      <trkpt lat="44.87016" lon="5.67804">
        <ele>497.88</ele>
        <time>2019-11-01T13:07:39Z</time>
      </trkpt>
      <trkpt lat="44.87018" lon="5.67807">
        <ele>497.79</ele>
        <time>2019-11-01T13:07:40Z</time>
      </trkpt>
      <trkpt lat="44.8702" lon="5.6781">
        <ele>497.76</ele>
        <time>2019-11-01T13:07:41Z</time>
      </trkpt>
      <trkpt lat="44.87022" lon="5.67813">
        <ele>497.68</ele>
        <time>2019-11-01T13:07:42Z</time>
      </trkpt>
      <trkpt lat="44.87022" lon="5.67815">
        <ele>497.59</ele>
        <time>2019-11-01T13:07:43Z</time>
      </trkpt>
      <trkpt lat="44.87023" lon="5.67817">
        <ele>496.65</ele>
        <time>2019-11-01T13:07:44Z</time>
      </trkpt>
      <trkpt lat="44.87024" lon="5.67822">
        <ele>495.53</ele>
        <time>2019-11-01T13:07:45Z</time>
      </trkpt>
      <trkpt lat="44.87025" lon="5.67825">
        <ele>494.7</ele>
        <time>2019-11-01T13:07:46Z</time>
      </trkpt>
      <trkpt lat="44.87027" lon="5.67828">
        <ele>493.76</ele>
        <time>2019-11-01T13:07:47Z</time>
      </trkpt>
      <trkpt lat="44.87028" lon="5.6783">
        <ele>493.12</ele>
        <time>2019-11-01T13:07:48Z</time>
      </trkpt>
      <trkpt lat="44.87029" lon="5.67832">
        <ele>492.37</ele>
        <time>2019-11-01T13:07:49Z</time>
      </trkpt>
      <trkpt lat="44.87031" lon="5.67834">
        <ele>491.94</ele>
        <time>2019-11-01T13:07:50Z</time>
      </trkpt>
      <trkpt lat="44.87032" lon="5.67837">
        <ele>490.89</ele>
        <time>2019-11-01T13:07:51Z</time>
      </trkpt>
      <trkpt lat="44.87033" lon="5.67841">
        <ele>489.95</ele>
        <time>2019-11-01T13:07:52Z</time>
      </trkpt>
      <trkpt lat="44.87033" lon="5.67844">
        <ele>488.76</ele>
        <time>2019-11-01T13:07:53Z</time>
      </trkpt>
      <trkpt lat="44.87034" lon="5.67848">
        <ele>487.93</ele>
        <time>2019-11-01T13:07:55Z</time>
      </trkpt>
      <trkpt lat="44.87037" lon="5.6784">
        <ele>485.64</ele>
        <time>2019-11-01T13:08:15Z</time>
      </trkpt>
      <trkpt lat="44.87036" lon="5.67835">
        <ele>484.28</ele>
        <time>2019-11-01T13:08:17Z</time>
      </trkpt>
      <trkpt lat="44.87035" lon="5.67832">
        <ele>483.75</ele>
        <time>2019-11-01T13:08:19Z</time>
      </trkpt>
      <trkpt lat="44.87042" lon="5.67838">
        <ele>483.24</ele>
        <time>2019-11-01T13:08:33Z</time>
      </trkpt>
      <trkpt lat="44.87044" lon="5.67842">
        <ele>483.04</ele>
        <time>2019-11-01T13:08:34Z</time>
      </trkpt>
      <trkpt lat="44.87046" lon="5.67845">
        <ele>482.84</ele>
        <time>2019-11-01T13:08:35Z</time>
      </trkpt>
      <trkpt lat="44.87049" lon="5.67847">
        <ele>482.7</ele>
        <time>2019-11-01T13:08:36Z</time>
      </trkpt>
      <trkpt lat="44.8705" lon="5.67848">
        <ele>482.53</ele>
        <time>2019-11-01T13:08:37Z</time>
      </trkpt>
      <trkpt lat="44.87052" lon="5.67848">
        <ele>482.26</ele>
        <time>2019-11-01T13:08:38Z</time>
      </trkpt>
      <trkpt lat="44.87054" lon="5.67849">
        <ele>481.84</ele>
        <time>2019-11-01T13:08:40Z</time>
      </trkpt>
      <trkpt lat="44.87056" lon="5.6785">
        <ele>481.16</ele>
        <time>2019-11-01T13:08:42Z</time>
      </trkpt>
      <trkpt lat="44.87052" lon="5.67843">
        <ele>480.49</ele>
        <time>2019-11-01T13:09:04Z</time>
      </trkpt>
      <trkpt lat="44.87051" lon="5.67839">
        <ele>480.18</ele>
        <time>2019-11-01T13:09:05Z</time>
      </trkpt>
      <trkpt lat="44.87049" lon="5.67835">
        <ele>479.95</ele>
        <time>2019-11-01T13:09:06Z</time>
      </trkpt>
      <trkpt lat="44.87047" lon="5.67832">
        <ele>479.81</ele>
        <time>2019-11-01T13:09:07Z</time>
      </trkpt>
      <trkpt lat="44.87048" lon="5.67829">
        <ele>479.49</ele>
        <time>2019-11-01T13:09:08Z</time>
      </trkpt>
      <trkpt lat="44.87048" lon="5.67825">
        <ele>479.18</ele>
        <time>2019-11-01T13:09:09Z</time>
      </trkpt>
      <trkpt lat="44.87048" lon="5.67822">
        <ele>478.74</ele>
        <time>2019-11-01T13:09:10Z</time>
      </trkpt>
      <trkpt lat="44.87048" lon="5.67819">
        <ele>478.4</ele>
        <time>2019-11-01T13:09:11Z</time>
      </trkpt>
      <trkpt lat="44.87047" lon="5.67814">
        <ele>477.71</ele>
        <time>2019-11-01T13:09:13Z</time>
      </trkpt>
      <trkpt lat="44.87046" lon="5.67812">
        <ele>477.39</ele>
        <time>2019-11-01T13:09:14Z</time>
      </trkpt>
      <trkpt lat="44.87047" lon="5.67809">
        <ele>476.69</ele>
        <time>2019-11-01T13:09:16Z</time>
      </trkpt>
      <trkpt lat="44.87049" lon="5.67818">
        <ele>474.97</ele>
        <time>2019-11-01T13:10:53Z</time>
      </trkpt>
      <trkpt lat="44.87051" lon="5.6782">
        <ele>474.54</ele>
        <time>2019-11-01T13:10:54Z</time>
      </trkpt>
      <trkpt lat="44.87053" lon="5.67823">
        <ele>474.19</ele>
        <time>2019-11-01T13:10:55Z</time>
      </trkpt>
      <trkpt lat="44.87055" lon="5.67826">
        <ele>473.88</ele>
        <time>2019-11-01T13:10:56Z</time>
      </trkpt>
      <trkpt lat="44.87057" lon="5.67829">
        <ele>473.58</ele>
        <time>2019-11-01T13:10:57Z</time>
      </trkpt>
      <trkpt lat="44.87059" lon="5.6783">
        <ele>473.21</ele>
        <time>2019-11-01T13:10:58Z</time>
      </trkpt>
      <trkpt lat="44.87061" lon="5.67832">
        <ele>472.96</ele>
        <time>2019-11-01T13:10:59Z</time>
      </trkpt>
      <trkpt lat="44.87063" lon="5.67833">
        <ele>472.67</ele>
        <time>2019-11-01T13:11:00Z</time>
      </trkpt>
      <trkpt lat="44.87066" lon="5.67834">
        <ele>472.24</ele>
        <time>2019-11-01T13:11:01Z</time>
      </trkpt>
      <trkpt lat="44.87068" lon="5.67836">
        <ele>471.68</ele>
        <time>2019-11-01T13:11:02Z</time>
      </trkpt>
      <trkpt lat="44.87071" lon="5.67839">
        <ele>471.1</ele>
        <time>2019-11-01T13:11:03Z</time>
      </trkpt>
      <trkpt lat="44.87074" lon="5.67842">
        <ele>470.57</ele>
        <time>2019-11-01T13:11:04Z</time>
      </trkpt>
      <trkpt lat="44.87077" lon="5.67846">
        <ele>470</ele>
        <time>2019-11-01T13:11:05Z</time>
      </trkpt>
      <trkpt lat="44.8708" lon="5.67849">
        <ele>469.33</ele>
        <time>2019-11-01T13:11:06Z</time>
      </trkpt>
      <trkpt lat="44.87083" lon="5.6785">
        <ele>468.57</ele>
        <time>2019-11-01T13:11:07Z</time>
      </trkpt>
      <trkpt lat="44.87085" lon="5.67852">
        <ele>467.79</ele>
        <time>2019-11-01T13:11:08Z</time>
      </trkpt>
      <trkpt lat="44.87086" lon="5.67855">
        <ele>466.92</ele>
        <time>2019-11-01T13:11:09Z</time>
      </trkpt>
      <trkpt lat="44.87088" lon="5.67857">
        <ele>466.17</ele>
        <time>2019-11-01T13:11:10Z</time>
      </trkpt>
      <trkpt lat="44.87089" lon="5.6786">
        <ele>465.25</ele>
        <time>2019-11-01T13:11:11Z</time>
      </trkpt>
      <trkpt lat="44.87091" lon="5.67863">
        <ele>464.34</ele>
        <time>2019-11-01T13:11:12Z</time>
      </trkpt>
      <trkpt lat="44.87092" lon="5.67866">
        <ele>463.44</ele>
        <time>2019-11-01T13:11:13Z</time>
      </trkpt>
      <trkpt lat="44.87092" lon="5.67871">
        <ele>461.48</ele>
        <time>2019-11-01T13:11:15Z</time>
      </trkpt>
      <trkpt lat="44.87092" lon="5.67874">
        <ele>460.83</ele>
        <time>2019-11-01T13:11:16Z</time>
      </trkpt>
      <trkpt lat="44.87091" lon="5.67876">
        <ele>459.86</ele>
        <time>2019-11-01T13:11:17Z</time>
      </trkpt>
      <trkpt lat="44.87091" lon="5.67879">
        <ele>459.08</ele>
        <time>2019-11-01T13:11:18Z</time>
      </trkpt>
      <trkpt lat="44.87091" lon="5.67883">
        <ele>458.57</ele>
        <time>2019-11-01T13:11:19Z</time>
      </trkpt>
      <trkpt lat="44.87091" lon="5.67886">
        <ele>457.86</ele>
        <time>2019-11-01T13:11:20Z</time>
      </trkpt>
      <trkpt lat="44.8709" lon="5.6789">
        <ele>456.82</ele>
        <time>2019-11-01T13:11:22Z</time>
      </trkpt>
      <trkpt lat="44.87083" lon="5.67884">
        <ele>456.67</ele>
        <time>2019-11-01T13:11:37Z</time>
      </trkpt>
      <trkpt lat="44.8708" lon="5.67882">
        <ele>456.38</ele>
        <time>2019-11-01T13:11:38Z</time>
      </trkpt>
      <trkpt lat="44.87077" lon="5.67882">
        <ele>455.62</ele>
        <time>2019-11-01T13:11:40Z</time>
      </trkpt>
      <trkpt lat="44.87075" lon="5.67881">
        <ele>455.08</ele>
        <time>2019-11-01T13:11:41Z</time>
      </trkpt>
      <trkpt lat="44.87072" lon="5.67881">
        <ele>454.5</ele>
        <time>2019-11-01T13:11:42Z</time>
      </trkpt>
      <trkpt lat="44.87069" lon="5.67882">
        <ele>453.97</ele>
        <time>2019-11-01T13:11:43Z</time>
      </trkpt>
      <trkpt lat="44.87067" lon="5.67882">
        <ele>453.47</ele>
        <time>2019-11-01T13:11:44Z</time>
      </trkpt>
      <trkpt lat="44.87064" lon="5.67882">
        <ele>452.37</ele>
        <time>2019-11-01T13:11:46Z</time>
      </trkpt>
      <trkpt lat="44.87062" lon="5.67885">
        <ele>451.8</ele>
        <time>2019-11-01T13:11:47Z</time>
      </trkpt>
      <trkpt lat="44.87061" lon="5.67888">
        <ele>451.27</ele>
        <time>2019-11-01T13:11:48Z</time>
      </trkpt>
      <trkpt lat="44.8706" lon="5.6789">
        <ele>450.91</ele>
        <time>2019-11-01T13:11:49Z</time>
      </trkpt>
      <trkpt lat="44.87058" lon="5.67893">
        <ele>450.73</ele>
        <time>2019-11-01T13:11:50Z</time>
      </trkpt>
      <trkpt lat="44.87056" lon="5.67896">
        <ele>450.46</ele>
        <time>2019-11-01T13:11:51Z</time>
      </trkpt>
      <trkpt lat="44.87055" lon="5.67899">
        <ele>449.96</ele>
        <time>2019-11-01T13:11:52Z</time>
      </trkpt>
      <trkpt lat="44.87053" lon="5.67901">
        <ele>449.46</ele>
        <time>2019-11-01T13:11:53Z</time>
      </trkpt>
      <trkpt lat="44.87051" lon="5.67903">
        <ele>449.17</ele>
        <time>2019-11-01T13:11:54Z</time>
      </trkpt>
      <trkpt lat="44.8705" lon="5.67905">
        <ele>448.95</ele>
        <time>2019-11-01T13:11:55Z</time>
      </trkpt>
      <trkpt lat="44.8705" lon="5.67909">
        <ele>448.37</ele>
        <time>2019-11-01T13:11:57Z</time>
      </trkpt>
      <trkpt lat="44.87048" lon="5.67911">
        <ele>447.73</ele>
        <time>2019-11-01T13:11:59Z</time>
      </trkpt>
      <trkpt lat="44.87045" lon="5.67914">
        <ele>447.5</ele>
        <time>2019-11-01T13:12:01Z</time>
      </trkpt>
      <trkpt lat="44.87043" lon="5.67915">
        <ele>447.32</ele>
        <time>2019-11-01T13:12:02Z</time>
      </trkpt>
      <trkpt lat="44.87041" lon="5.67918">
        <ele>447.02</ele>
        <time>2019-11-01T13:12:04Z</time>
      </trkpt>
      <trkpt lat="44.8704" lon="5.6792">
        <ele>446.48</ele>
        <time>2019-11-01T13:12:07Z</time>
      </trkpt>
      <trkpt lat="44.87039" lon="5.67933">
        <ele>447.78</ele>
        <time>2019-11-01T13:13:18Z</time>
      </trkpt>
      <trkpt lat="44.87039" lon="5.67937">
        <ele>448.68</ele>
        <time>2019-11-01T13:13:21Z</time>
      </trkpt>
      <trkpt lat="44.87039" lon="5.6795">
        <ele>450.22</ele>
        <time>2019-11-01T13:13:57Z</time>
      </trkpt>
      <trkpt lat="44.87046" lon="5.67958">
        <ele>451.62</ele>
        <time>2019-11-01T13:14:14Z</time>
      </trkpt>
      <trkpt lat="44.87048" lon="5.67959">
        <ele>452.08</ele>
        <time>2019-11-01T13:14:16Z</time>
      </trkpt>
      <trkpt lat="44.87052" lon="5.67976">
        <ele>453.16</ele>
        <time>2019-11-01T13:14:28Z</time>
      </trkpt>
      <trkpt lat="44.87052" lon="5.67978">
        <ele>453.99</ele>
        <time>2019-11-01T13:14:32Z</time>
      </trkpt>
      <trkpt lat="44.87061" lon="5.67982">
        <ele>455.17</ele>
        <time>2019-11-01T13:15:01Z</time>
      </trkpt>
      <trkpt lat="44.87064" lon="5.67983">
        <ele>455.93</ele>
        <time>2019-11-01T13:15:03Z</time>
      </trkpt>
      <trkpt lat="44.87069" lon="5.67993">
        <ele>458.42</ele>
        <time>2019-11-01T13:15:19Z</time>
      </trkpt>
      <trkpt lat="44.87066" lon="5.67995">
        <ele>459.74</ele>
        <time>2019-11-01T13:15:22Z</time>
      </trkpt>
      <trkpt lat="44.87072" lon="5.68006">
        <ele>459.57</ele>
        <time>2019-11-01T13:16:12Z</time>
      </trkpt>
      <trkpt lat="44.87082" lon="5.68011">
        <ele>458.31</ele>
        <time>2019-11-01T13:16:30Z</time>
      </trkpt>
      <trkpt lat="44.87084" lon="5.68014">
        <ele>457.82</ele>
        <time>2019-11-01T13:16:32Z</time>
      </trkpt>
      <trkpt lat="44.87094" lon="5.68018">
        <ele>457.33</ele>
        <time>2019-11-01T13:16:44Z</time>
      </trkpt>
      <trkpt lat="44.87096" lon="5.68018">
        <ele>457.06</ele>
        <time>2019-11-01T13:16:47Z</time>
      </trkpt>
      <trkpt lat="44.87105" lon="5.6802">
        <ele>456.77</ele>
        <time>2019-11-01T13:17:12Z</time>
      </trkpt>
      <trkpt lat="44.87115" lon="5.68022">
        <ele>455.74</ele>
        <time>2019-11-01T13:18:19Z</time>
      </trkpt>
      <trkpt lat="44.87117" lon="5.68023">
        <ele>455.31</ele>
        <time>2019-11-01T13:18:21Z</time>
      </trkpt>
      <trkpt lat="44.87118" lon="5.68025">
        <ele>455.25</ele>
        <time>2019-11-01T13:18:24Z</time>
      </trkpt>
      <trkpt lat="44.87119" lon="5.68029">
        <ele>455.11</ele>
        <time>2019-11-01T13:18:28Z</time>
      </trkpt>
      <trkpt lat="44.87118" lon="5.68035">
        <ele>455.05</ele>
        <time>2019-11-01T13:18:30Z</time>
      </trkpt>
      <trkpt lat="44.87117" lon="5.68039">
        <ele>454.98</ele>
        <time>2019-11-01T13:18:32Z</time>
      </trkpt>
      <trkpt lat="44.87116" lon="5.68042">
        <ele>454.96</ele>
        <time>2019-11-01T13:18:33Z</time>
      </trkpt>
      <trkpt lat="44.87114" lon="5.68046">
        <ele>454.95</ele>
        <time>2019-11-01T13:18:35Z</time>
      </trkpt>
      <trkpt lat="44.87112" lon="5.68051">
        <ele>454.86</ele>
        <time>2019-11-01T13:18:37Z</time>
      </trkpt>
      <trkpt lat="44.8711" lon="5.68054">
        <ele>454.85</ele>
        <time>2019-11-01T13:18:38Z</time>
      </trkpt>
      <trkpt lat="44.87108" lon="5.68056">
        <ele>454.85</ele>
        <time>2019-11-01T13:18:39Z</time>
      </trkpt>
      <trkpt lat="44.87107" lon="5.68059">
        <ele>454.85</ele>
        <time>2019-11-01T13:18:40Z</time>
      </trkpt>
      <trkpt lat="44.87105" lon="5.68062">
        <ele>454.85</ele>
        <time>2019-11-01T13:18:41Z</time>
      </trkpt>
      <trkpt lat="44.87104" lon="5.68065">
        <ele>454.85</ele>
        <time>2019-11-01T13:18:42Z</time>
      </trkpt>
      <trkpt lat="44.87103" lon="5.68069">
        <ele>454.85</ele>
        <time>2019-11-01T13:18:43Z</time>
      </trkpt>
      <trkpt lat="44.87102" lon="5.68072">
        <ele>454.85</ele>
        <time>2019-11-01T13:18:44Z</time>
      </trkpt>
      <trkpt lat="44.87102" lon="5.68074">
        <ele>454.85</ele>
        <time>2019-11-01T13:18:45Z</time>
      </trkpt>
      <trkpt lat="44.87101" lon="5.68078">
        <ele>454.85</ele>
        <time>2019-11-01T13:18:47Z</time>
      </trkpt>
      <trkpt lat="44.87101" lon="5.68085">
        <ele>454.78</ele>
        <time>2019-11-01T13:18:52Z</time>
      </trkpt>
      <trkpt lat="44.87102" lon="5.6809">
        <ele>454.66</ele>
        <time>2019-11-01T13:18:54Z</time>
      </trkpt>
      <trkpt lat="44.87102" lon="5.68093">
        <ele>454.65</ele>
        <time>2019-11-01T13:18:55Z</time>
      </trkpt>
      <trkpt lat="44.87103" lon="5.68096">
        <ele>454.65</ele>
        <time>2019-11-01T13:18:56Z</time>
      </trkpt>
      <trkpt lat="44.87104" lon="5.68099">
        <ele>454.65</ele>
        <time>2019-11-01T13:18:58Z</time>
      </trkpt>
      <trkpt lat="44.87106" lon="5.68101">
        <ele>454.65</ele>
        <time>2019-11-01T13:18:59Z</time>
      </trkpt>
      <trkpt lat="44.87106" lon="5.68104">
        <ele>454.72</ele>
        <time>2019-11-01T13:19:00Z</time>
      </trkpt>
      <trkpt lat="44.87108" lon="5.6812">
        <ele>454.37</ele>
        <time>2019-11-01T13:19:24Z</time>
      </trkpt>
      <trkpt lat="44.87106" lon="5.6812">
        <ele>454.35</ele>
        <time>2019-11-01T13:19:26Z</time>
      </trkpt>
      <trkpt lat="44.87103" lon="5.68121">
        <ele>454.42</ele>
        <time>2019-11-01T13:19:27Z</time>
      </trkpt>
      <trkpt lat="44.87099" lon="5.68121">
        <ele>454.44</ele>
        <time>2019-11-01T13:19:28Z</time>
      </trkpt>
      <trkpt lat="44.87096" lon="5.68121">
        <ele>454.61</ele>
        <time>2019-11-01T13:19:30Z</time>
      </trkpt>
      <trkpt lat="44.87098" lon="5.68118">
        <ele>454.84</ele>
        <time>2019-11-01T13:19:34Z</time>
      </trkpt>
      <trkpt lat="44.87105" lon="5.68105">
        <ele>454.8</ele>
        <time>2019-11-01T13:19:37Z</time>
      </trkpt>
      <trkpt lat="44.87104" lon="5.68103">
        <ele>454.82</ele>
        <time>2019-11-01T13:19:39Z</time>
      </trkpt>
      <trkpt lat="44.87102" lon="5.68101">
        <ele>454.92</ele>
        <time>2019-11-01T13:19:41Z</time>
      </trkpt>
      <trkpt lat="44.87104" lon="5.681">
        <ele>455.21</ele>
        <time>2019-11-01T13:19:46Z</time>
      </trkpt>
      <trkpt lat="44.87108" lon="5.68103">
        <ele>455.24</ele>
        <time>2019-11-01T13:19:47Z</time>
      </trkpt>
      <trkpt lat="44.87106" lon="5.68101">
        <ele>455.35</ele>
        <time>2019-11-01T13:19:51Z</time>
      </trkpt>
      <trkpt lat="44.87105" lon="5.68104">
        <ele>455.54</ele>
        <time>2019-11-01T13:19:55Z</time>
      </trkpt>
      <trkpt lat="44.87108" lon="5.6812">
        <ele>455.23</ele>
        <time>2019-11-01T13:20:02Z</time>
      </trkpt>
      <trkpt lat="44.87111" lon="5.68124">
        <ele>454.89</ele>
        <time>2019-11-01T13:20:03Z</time>
      </trkpt>
      <trkpt lat="44.87109" lon="5.68122">
        <ele>454.65</ele>
        <time>2019-11-01T13:20:04Z</time>
      </trkpt>
      <trkpt lat="44.87114" lon="5.68109">
        <ele>454.17</ele>
        <time>2019-11-01T13:20:26Z</time>
      </trkpt>
      <trkpt lat="44.87117" lon="5.68105">
        <ele>453.99</ele>
        <time>2019-11-01T13:20:28Z</time>
      </trkpt>
      <trkpt lat="44.87119" lon="5.68103">
        <ele>453.96</ele>
        <time>2019-11-01T13:20:29Z</time>
      </trkpt>
      <trkpt lat="44.87121" lon="5.68098">
        <ele>453.95</ele>
        <time>2019-11-01T13:20:31Z</time>
      </trkpt>
      <trkpt lat="44.87123" lon="5.68096">
        <ele>453.88</ele>
        <time>2019-11-01T13:20:32Z</time>
      </trkpt>
      <trkpt lat="44.87125" lon="5.68095">
        <ele>453.86</ele>
        <time>2019-11-01T13:20:33Z</time>
      </trkpt>
      <trkpt lat="44.87127" lon="5.68093">
        <ele>453.76</ele>
        <time>2019-11-01T13:20:35Z</time>
      </trkpt>
      <trkpt lat="44.87131" lon="5.68095">
        <ele>453.61</ele>
        <time>2019-11-01T13:20:36Z</time>
      </trkpt>
      <trkpt lat="44.87134" lon="5.68096">
        <ele>453.39</ele>
        <time>2019-11-01T13:20:38Z</time>
      </trkpt>
      <trkpt lat="44.87137" lon="5.68098">
        <ele>453.35</ele>
        <time>2019-11-01T13:20:40Z</time>
      </trkpt>
      <trkpt lat="44.87138" lon="5.68102">
        <ele>453.28</ele>
        <time>2019-11-01T13:20:42Z</time>
      </trkpt>
      <trkpt lat="44.87139" lon="5.68105">
        <ele>453.26</ele>
        <time>2019-11-01T13:20:43Z</time>
      </trkpt>
      <trkpt lat="44.8714" lon="5.68107">
        <ele>453.18</ele>
        <time>2019-11-01T13:20:44Z</time>
      </trkpt>
      <trkpt lat="44.87141" lon="5.68109">
        <ele>453.09</ele>
        <time>2019-11-01T13:20:45Z</time>
      </trkpt>
      <trkpt lat="44.87143" lon="5.68112">
        <ele>453.05</ele>
        <time>2019-11-01T13:20:47Z</time>
      </trkpt>
      <trkpt lat="44.87144" lon="5.68115">
        <ele>452.98</ele>
        <time>2019-11-01T13:20:48Z</time>
      </trkpt>
      <trkpt lat="44.87145" lon="5.68117">
        <ele>452.96</ele>
        <time>2019-11-01T13:20:49Z</time>
      </trkpt>
      <trkpt lat="44.87147" lon="5.68121">
        <ele>452.95</ele>
        <time>2019-11-01T13:20:51Z</time>
      </trkpt>
      <trkpt lat="44.87149" lon="5.68123">
        <ele>452.88</ele>
        <time>2019-11-01T13:20:53Z</time>
      </trkpt>
      <trkpt lat="44.87152" lon="5.68124">
        <ele>452.92</ele>
        <time>2019-11-01T13:20:55Z</time>
      </trkpt>
      <trkpt lat="44.87155" lon="5.68121">
        <ele>452.78</ele>
        <time>2019-11-01T13:21:00Z</time>
      </trkpt>
      <trkpt lat="44.87156" lon="5.68115">
        <ele>452.66</ele>
        <time>2019-11-01T13:21:02Z</time>
      </trkpt>
      <trkpt lat="44.87157" lon="5.68111">
        <ele>452.49</ele>
        <time>2019-11-01T13:21:04Z</time>
      </trkpt>
      <trkpt lat="44.87158" lon="5.68107">
        <ele>452.29</ele>
        <time>2019-11-01T13:21:06Z</time>
      </trkpt>
      <trkpt lat="44.87159" lon="5.68103">
        <ele>452.16</ele>
        <time>2019-11-01T13:21:08Z</time>
      </trkpt>
      <trkpt lat="44.8716" lon="5.68099">
        <ele>451.99</ele>
        <time>2019-11-01T13:21:10Z</time>
      </trkpt>
      <trkpt lat="44.87161" lon="5.68095">
        <ele>451.79</ele>
        <time>2019-11-01T13:21:12Z</time>
      </trkpt>
      <trkpt lat="44.87163" lon="5.68091">
        <ele>451.68</ele>
        <time>2019-11-01T13:21:14Z</time>
      </trkpt>
      <trkpt lat="44.87164" lon="5.68087">
        <ele>451.49</ele>
        <time>2019-11-01T13:21:16Z</time>
      </trkpt>
      <trkpt lat="44.87166" lon="5.68085">
        <ele>451.45</ele>
        <time>2019-11-01T13:21:19Z</time>
      </trkpt>
      <trkpt lat="44.87174" lon="5.68091">
        <ele>450.89</ele>
        <time>2019-11-01T13:21:36Z</time>
      </trkpt>
      <trkpt lat="44.87175" lon="5.68093">
        <ele>450.44</ele>
        <time>2019-11-01T13:21:38Z</time>
      </trkpt>
      <trkpt lat="44.8718" lon="5.68094">
        <ele>450.22</ele>
        <time>2019-11-01T13:21:57Z</time>
      </trkpt>
      <trkpt lat="44.87182" lon="5.68092">
        <ele>450.18</ele>
        <time>2019-11-01T13:21:59Z</time>
      </trkpt>
      <trkpt lat="44.87184" lon="5.68089">
        <ele>450.15</ele>
        <time>2019-11-01T13:22:01Z</time>
      </trkpt>
      <trkpt lat="44.87188" lon="5.68089">
        <ele>450.08</ele>
        <time>2019-11-01T13:22:03Z</time>
      </trkpt>
      <trkpt lat="44.8719" lon="5.68089">
        <ele>450.06</ele>
        <time>2019-11-01T13:22:04Z</time>
      </trkpt>
      <trkpt lat="44.87191" lon="5.6809">
        <ele>450.05</ele>
        <time>2019-11-01T13:22:05Z</time>
      </trkpt>
      <trkpt lat="44.87194" lon="5.68092">
        <ele>450.03</ele>
        <time>2019-11-01T13:22:07Z</time>
      </trkpt>
      <trkpt lat="44.87197" lon="5.68094">
        <ele>450.04</ele>
        <time>2019-11-01T13:22:08Z</time>
      </trkpt>
      <trkpt lat="44.87198" lon="5.68095">
        <ele>449.98</ele>
        <time>2019-11-01T13:22:09Z</time>
      </trkpt>
      <trkpt lat="44.872" lon="5.68095">
        <ele>449.89</ele>
        <time>2019-11-01T13:22:10Z</time>
      </trkpt>
      <trkpt lat="44.87202" lon="5.68094">
        <ele>449.79</ele>
        <time>2019-11-01T13:22:11Z</time>
      </trkpt>
      <trkpt lat="44.87204" lon="5.68093">
        <ele>449.76</ele>
        <time>2019-11-01T13:22:12Z</time>
      </trkpt>
      <trkpt lat="44.87206" lon="5.68092">
        <ele>449.68</ele>
        <time>2019-11-01T13:22:13Z</time>
      </trkpt>
      <trkpt lat="44.87209" lon="5.68089">
        <ele>449.56</ele>
        <time>2019-11-01T13:22:15Z</time>
      </trkpt>
      <trkpt lat="44.8721" lon="5.68089">
        <ele>449.23</ele>
        <time>2019-11-01T13:22:17Z</time>
      </trkpt>
      <trkpt lat="44.87212" lon="5.68092">
        <ele>449</ele>
        <time>2019-11-01T13:22:19Z</time>
      </trkpt>
      <trkpt lat="44.87212" lon="5.68096">
        <ele>448.7</ele>
        <time>2019-11-01T13:22:21Z</time>
      </trkpt>
      <trkpt lat="44.87212" lon="5.681">
        <ele>448.42</ele>
        <time>2019-11-01T13:22:23Z</time>
      </trkpt>
      <trkpt lat="44.87213" lon="5.68102">
        <ele>448.3</ele>
        <time>2019-11-01T13:22:24Z</time>
      </trkpt>
      <trkpt lat="44.87214" lon="5.68106">
        <ele>448</ele>
        <time>2019-11-01T13:22:26Z</time>
      </trkpt>
      <trkpt lat="44.87215" lon="5.68109">
        <ele>447.82</ele>
        <time>2019-11-01T13:22:27Z</time>
      </trkpt>
      <trkpt lat="44.87216" lon="5.68111">
        <ele>447.63</ele>
        <time>2019-11-01T13:22:28Z</time>
      </trkpt>
      <trkpt lat="44.87217" lon="5.68114">
        <ele>447.5</ele>
        <time>2019-11-01T13:22:29Z</time>
      </trkpt>
      <trkpt lat="44.87218" lon="5.68116">
        <ele>447.33</ele>
        <time>2019-11-01T13:22:30Z</time>
      </trkpt>
      <trkpt lat="44.8722" lon="5.68118">
        <ele>447.13</ele>
        <time>2019-11-01T13:22:31Z</time>
      </trkpt>
      <trkpt lat="44.87221" lon="5.6812">
        <ele>447</ele>
        <time>2019-11-01T13:22:32Z</time>
      </trkpt>
      <trkpt lat="44.87223" lon="5.68122">
        <ele>446.54</ele>
        <time>2019-11-01T13:22:34Z</time>
      </trkpt>
      <trkpt lat="44.87225" lon="5.68125">
        <ele>446.21</ele>
        <time>2019-11-01T13:22:36Z</time>
      </trkpt>
      <trkpt lat="44.87227" lon="5.68125">
        <ele>445.92</ele>
        <time>2019-11-01T13:22:38Z</time>
      </trkpt>
      <trkpt lat="44.87237" lon="5.68129">
        <ele>446.04</ele>
        <time>2019-11-01T13:22:51Z</time>
      </trkpt>
      <trkpt lat="44.87239" lon="5.6813">
        <ele>446.76</ele>
        <time>2019-11-01T13:22:54Z</time>
      </trkpt>
      <trkpt lat="44.87244" lon="5.68119">
        <ele>448.46</ele>
        <time>2019-11-01T13:23:07Z</time>
      </trkpt>
      <trkpt lat="44.87246" lon="5.68112">
        <ele>449.38</ele>
        <time>2019-11-01T13:23:32Z</time>
      </trkpt>
      <trkpt lat="44.87247" lon="5.68109">
        <ele>449.36</ele>
        <time>2019-11-01T13:23:33Z</time>
      </trkpt>
      <trkpt lat="44.87249" lon="5.68105">
        <ele>449.35</ele>
        <time>2019-11-01T13:23:35Z</time>
      </trkpt>
      <trkpt lat="44.8725" lon="5.68102">
        <ele>449.35</ele>
        <time>2019-11-01T13:23:36Z</time>
      </trkpt>
      <trkpt lat="44.87251" lon="5.68099">
        <ele>449.35</ele>
        <time>2019-11-01T13:23:37Z</time>
      </trkpt>
      <trkpt lat="44.87252" lon="5.68096">
        <ele>449.35</ele>
        <time>2019-11-01T13:23:38Z</time>
      </trkpt>
      <trkpt lat="44.87253" lon="5.68092">
        <ele>449.35</ele>
        <time>2019-11-01T13:23:40Z</time>
      </trkpt>
      <trkpt lat="44.87256" lon="5.68088">
        <ele>449.44</ele>
        <time>2019-11-01T13:23:42Z</time>
      </trkpt>
      <trkpt lat="44.87257" lon="5.68087">
        <ele>449.45</ele>
        <time>2019-11-01T13:23:43Z</time>
      </trkpt>
      <trkpt lat="44.87259" lon="5.68086">
        <ele>449.45</ele>
        <time>2019-11-01T13:23:44Z</time>
      </trkpt>
      <trkpt lat="44.87261" lon="5.68085">
        <ele>449.45</ele>
        <time>2019-11-01T13:23:45Z</time>
      </trkpt>
      <trkpt lat="44.87263" lon="5.68085">
        <ele>449.45</ele>
        <time>2019-11-01T13:23:46Z</time>
      </trkpt>
      <trkpt lat="44.87265" lon="5.68086">
        <ele>449.52</ele>
        <time>2019-11-01T13:23:47Z</time>
      </trkpt>
      <trkpt lat="44.87268" lon="5.68085">
        <ele>449.61</ele>
        <time>2019-11-01T13:23:48Z</time>
      </trkpt>
      <trkpt lat="44.8727" lon="5.68084">
        <ele>449.64</ele>
        <time>2019-11-01T13:23:49Z</time>
      </trkpt>
      <trkpt lat="44.87272" lon="5.68084">
        <ele>449.58</ele>
        <time>2019-11-01T13:23:50Z</time>
      </trkpt>
      <trkpt lat="44.87274" lon="5.68086">
        <ele>449.62</ele>
        <time>2019-11-01T13:23:52Z</time>
      </trkpt>
      <trkpt lat="44.87274" lon="5.6809">
        <ele>449.58</ele>
        <time>2019-11-01T13:23:54Z</time>
      </trkpt>
      <trkpt lat="44.87275" lon="5.68094">
        <ele>449.55</ele>
        <time>2019-11-01T13:23:56Z</time>
      </trkpt>
      <trkpt lat="44.87275" lon="5.68096">
        <ele>449.62</ele>
        <time>2019-11-01T13:23:57Z</time>
      </trkpt>
      <trkpt lat="44.87275" lon="5.68101">
        <ele>449.72</ele>
        <time>2019-11-01T13:23:59Z</time>
      </trkpt>
      <trkpt lat="44.87275" lon="5.68104">
        <ele>449.75</ele>
        <time>2019-11-01T13:24:01Z</time>
      </trkpt>
      <trkpt lat="44.87276" lon="5.68107">
        <ele>449.82</ele>
        <time>2019-11-01T13:24:03Z</time>
      </trkpt>
      <trkpt lat="44.87279" lon="5.68107">
        <ele>449.95</ele>
        <time>2019-11-01T13:24:06Z</time>
      </trkpt>
      <trkpt lat="44.87281" lon="5.68106">
        <ele>450.02</ele>
        <time>2019-11-01T13:24:07Z</time>
      </trkpt>
      <trkpt lat="44.87284" lon="5.68104">
        <ele>450.12</ele>
        <time>2019-11-01T13:24:09Z</time>
      </trkpt>
      <trkpt lat="44.87287" lon="5.68104">
        <ele>450.24</ele>
        <time>2019-11-01T13:24:11Z</time>
      </trkpt>
      <trkpt lat="44.87289" lon="5.68106">
        <ele>450.25</ele>
        <time>2019-11-01T13:24:12Z</time>
      </trkpt>
      <trkpt lat="44.87292" lon="5.68109">
        <ele>450.46</ele>
        <time>2019-11-01T13:24:13Z</time>
      </trkpt>
      <trkpt lat="44.87294" lon="5.68111">
        <ele>450.59</ele>
        <time>2019-11-01T13:24:14Z</time>
      </trkpt>
      <trkpt lat="44.87297" lon="5.68114">
        <ele>450.64</ele>
        <time>2019-11-01T13:24:16Z</time>
      </trkpt>
      <trkpt lat="44.87299" lon="5.68112">
        <ele>450.56</ele>
        <time>2019-11-01T13:24:18Z</time>
      </trkpt>
      <trkpt lat="44.873" lon="5.6811">
        <ele>450.55</ele>
        <time>2019-11-01T13:24:19Z</time>
      </trkpt>
      <trkpt lat="44.87301" lon="5.68107">
        <ele>450.55</ele>
        <time>2019-11-01T13:24:20Z</time>
      </trkpt>
      <trkpt lat="44.87302" lon="5.68103">
        <ele>450.62</ele>
        <time>2019-11-01T13:24:21Z</time>
      </trkpt>
      <trkpt lat="44.87304" lon="5.681">
        <ele>450.64</ele>
        <time>2019-11-01T13:24:22Z</time>
      </trkpt>
      <trkpt lat="44.87305" lon="5.68096">
        <ele>450.65</ele>
        <time>2019-11-01T13:24:23Z</time>
      </trkpt>
      <trkpt lat="44.87306" lon="5.68093">
        <ele>450.65</ele>
        <time>2019-11-01T13:24:24Z</time>
      </trkpt>
      <trkpt lat="44.87308" lon="5.68089">
        <ele>450.65</ele>
        <time>2019-11-01T13:24:26Z</time>
      </trkpt>
      <trkpt lat="44.87309" lon="5.68086">
        <ele>450.65</ele>
        <time>2019-11-01T13:24:27Z</time>
      </trkpt>
      <trkpt lat="44.8731" lon="5.68083">
        <ele>450.65</ele>
        <time>2019-11-01T13:24:28Z</time>
      </trkpt>
      <trkpt lat="44.87312" lon="5.68082">
        <ele>450.72</ele>
        <time>2019-11-01T13:24:29Z</time>
      </trkpt>
      <trkpt lat="44.87315" lon="5.68081">
        <ele>450.96</ele>
        <time>2019-11-01T13:24:31Z</time>
      </trkpt>
      <trkpt lat="44.87319" lon="5.68082">
        <ele>451.04</ele>
        <time>2019-11-01T13:24:33Z</time>
      </trkpt>
      <trkpt lat="44.87322" lon="5.68082">
        <ele>451.05</ele>
        <time>2019-11-01T13:24:35Z</time>
      </trkpt>
      <trkpt lat="44.87324" lon="5.68081">
        <ele>451.05</ele>
        <time>2019-11-01T13:24:36Z</time>
      </trkpt>
      <trkpt lat="44.87326" lon="5.68081">
        <ele>451.12</ele>
        <time>2019-11-01T13:24:37Z</time>
      </trkpt>
      <trkpt lat="44.87328" lon="5.6808">
        <ele>451.14</ele>
        <time>2019-11-01T13:24:38Z</time>
      </trkpt>
      <trkpt lat="44.87331" lon="5.6808">
        <ele>451.06</ele>
        <time>2019-11-01T13:24:40Z</time>
      </trkpt>
      <trkpt lat="44.87333" lon="5.6808">
        <ele>451.05</ele>
        <time>2019-11-01T13:24:41Z</time>
      </trkpt>
      <trkpt lat="44.87335" lon="5.6808">
        <ele>450.98</ele>
        <time>2019-11-01T13:24:42Z</time>
      </trkpt>
      <trkpt lat="44.87337" lon="5.68079">
        <ele>450.96</ele>
        <time>2019-11-01T13:24:43Z</time>
      </trkpt>
      <trkpt lat="44.87339" lon="5.68078">
        <ele>451.02</ele>
        <time>2019-11-01T13:24:44Z</time>
      </trkpt>
      <trkpt lat="44.87341" lon="5.68076">
        <ele>451.04</ele>
        <time>2019-11-01T13:24:45Z</time>
      </trkpt>
      <trkpt lat="44.87344" lon="5.68075">
        <ele>450.91</ele>
        <time>2019-11-01T13:24:46Z</time>
      </trkpt>
      <trkpt lat="44.87347" lon="5.68073">
        <ele>450.87</ele>
        <time>2019-11-01T13:24:47Z</time>
      </trkpt>
      <trkpt lat="44.87348" lon="5.68072">
        <ele>450.92</ele>
        <time>2019-11-01T13:24:48Z</time>
      </trkpt>
      <trkpt lat="44.87351" lon="5.68072">
        <ele>451.08</ele>
        <time>2019-11-01T13:24:49Z</time>
      </trkpt>
      <trkpt lat="44.87352" lon="5.68074">
        <ele>451.14</ele>
        <time>2019-11-01T13:24:51Z</time>
      </trkpt>
      <trkpt lat="44.87353" lon="5.68078">
        <ele>451.22</ele>
        <time>2019-11-01T13:24:53Z</time>
      </trkpt>
      <trkpt lat="44.87353" lon="5.68083">
        <ele>451.32</ele>
        <time>2019-11-01T13:24:55Z</time>
      </trkpt>
      <trkpt lat="44.87354" lon="5.68087">
        <ele>451.42</ele>
        <time>2019-11-01T13:24:57Z</time>
      </trkpt>
      <trkpt lat="44.87353" lon="5.6809">
        <ele>451.51</ele>
        <time>2019-11-01T13:24:58Z</time>
      </trkpt>
      <trkpt lat="44.87353" lon="5.68094">
        <ele>451.64</ele>
        <time>2019-11-01T13:25:00Z</time>
      </trkpt>
      <trkpt lat="44.87355" lon="5.68095">
        <ele>451.9</ele>
        <time>2019-11-01T13:25:02Z</time>
      </trkpt>
      <trkpt lat="44.87357" lon="5.68092">
        <ele>452.02</ele>
        <time>2019-11-01T13:25:05Z</time>
      </trkpt>
      <trkpt lat="44.87359" lon="5.6809">
        <ele>452.04</ele>
        <time>2019-11-01T13:25:06Z</time>
      </trkpt>
      <trkpt lat="44.87361" lon="5.68088">
        <ele>452.12</ele>
        <time>2019-11-01T13:25:07Z</time>
      </trkpt>
      <trkpt lat="44.87363" lon="5.68086">
        <ele>452.21</ele>
        <time>2019-11-01T13:25:08Z</time>
      </trkpt>
      <trkpt lat="44.87364" lon="5.68083">
        <ele>451.67</ele>
        <time>2019-11-01T13:25:10Z</time>
      </trkpt>
      <trkpt lat="44.87367" lon="5.68082">
        <ele>451.33</ele>
        <time>2019-11-01T13:25:12Z</time>
      </trkpt>
      <trkpt lat="44.87369" lon="5.68081">
        <ele>451.13</ele>
        <time>2019-11-01T13:25:13Z</time>
      </trkpt>
      <trkpt lat="44.87371" lon="5.6808">
        <ele>451</ele>
        <time>2019-11-01T13:25:14Z</time>
      </trkpt>
      <trkpt lat="44.87373" lon="5.68079">
        <ele>450.9</ele>
        <time>2019-11-01T13:25:15Z</time>
      </trkpt>
      <trkpt lat="44.87375" lon="5.68079">
        <ele>450.86</ele>
        <time>2019-11-01T13:25:16Z</time>
      </trkpt>
      <trkpt lat="44.87377" lon="5.68079">
        <ele>450.85</ele>
        <time>2019-11-01T13:25:17Z</time>
      </trkpt>
      <trkpt lat="44.8738" lon="5.68081">
        <ele>450.22</ele>
        <time>2019-11-01T13:25:18Z</time>
      </trkpt>
      <trkpt lat="44.87381" lon="5.68082">
        <ele>450.03</ele>
        <time>2019-11-01T13:25:19Z</time>
      </trkpt>
      <trkpt lat="44.87384" lon="5.68082">
        <ele>449.97</ele>
        <time>2019-11-01T13:25:20Z</time>
      </trkpt>
      <trkpt lat="44.87386" lon="5.68081">
        <ele>449.89</ele>
        <time>2019-11-01T13:25:21Z</time>
      </trkpt>
      <trkpt lat="44.8739" lon="5.68079">
        <ele>449.72</ele>
        <time>2019-11-01T13:25:22Z</time>
      </trkpt>
      <trkpt lat="44.87392" lon="5.68078">
        <ele>449.46</ele>
        <time>2019-11-01T13:25:23Z</time>
      </trkpt>
      <trkpt lat="44.87393" lon="5.68076">
        <ele>449.31</ele>
        <time>2019-11-01T13:25:24Z</time>
      </trkpt>
      <trkpt lat="44.87396" lon="5.68074">
        <ele>449.16</ele>
        <time>2019-11-01T13:25:26Z</time>
      </trkpt>
      <trkpt lat="44.87397" lon="5.68072">
        <ele>449.15</ele>
        <time>2019-11-01T13:25:27Z</time>
      </trkpt>
      <trkpt lat="44.87401" lon="5.68069">
        <ele>448.94</ele>
        <time>2019-11-01T13:25:28Z</time>
      </trkpt>
      <trkpt lat="44.87404" lon="5.68068">
        <ele>448.88</ele>
        <time>2019-11-01T13:25:29Z</time>
      </trkpt>
      <trkpt lat="44.87406" lon="5.68068">
        <ele>448.86</ele>
        <time>2019-11-01T13:25:30Z</time>
      </trkpt>
      <trkpt lat="44.87408" lon="5.68067">
        <ele>448.78</ele>
        <time>2019-11-01T13:25:31Z</time>
      </trkpt>
      <trkpt lat="44.8741" lon="5.68066">
        <ele>448.83</ele>
        <time>2019-11-01T13:25:32Z</time>
      </trkpt>
      <trkpt lat="44.87411" lon="5.68066">
        <ele>448.84</ele>
        <time>2019-11-01T13:25:33Z</time>
      </trkpt>
      <trkpt lat="44.87413" lon="5.68066">
        <ele>448.92</ele>
        <time>2019-11-01T13:25:34Z</time>
      </trkpt>
      <trkpt lat="44.87417" lon="5.68068">
        <ele>449.22</ele>
        <time>2019-11-01T13:25:36Z</time>
      </trkpt>
      <trkpt lat="44.8742" lon="5.68067">
        <ele>449.52</ele>
        <time>2019-11-01T13:25:37Z</time>
      </trkpt>
      <trkpt lat="44.87423" lon="5.68067">
        <ele>449.75</ele>
        <time>2019-11-01T13:25:38Z</time>
      </trkpt>
      <trkpt lat="44.87426" lon="5.68066">
        <ele>449.91</ele>
        <time>2019-11-01T13:25:40Z</time>
      </trkpt>
      <trkpt lat="44.87428" lon="5.68069">
        <ele>450.11</ele>
        <time>2019-11-01T13:25:42Z</time>
      </trkpt>
      <trkpt lat="44.87429" lon="5.68071">
        <ele>450.14</ele>
        <time>2019-11-01T13:25:43Z</time>
      </trkpt>
      <trkpt lat="44.8743" lon="5.68073">
        <ele>450.22</ele>
        <time>2019-11-01T13:25:44Z</time>
      </trkpt>
      <trkpt lat="44.87431" lon="5.68076">
        <ele>450.31</ele>
        <time>2019-11-01T13:25:45Z</time>
      </trkpt>
      <trkpt lat="44.87433" lon="5.68078">
        <ele>450.34</ele>
        <time>2019-11-01T13:25:46Z</time>
      </trkpt>
      <trkpt lat="44.87434" lon="5.68081">
        <ele>450.42</ele>
        <time>2019-11-01T13:25:47Z</time>
      </trkpt>
      <trkpt lat="44.87436" lon="5.68083">
        <ele>450.44</ele>
        <time>2019-11-01T13:25:48Z</time>
      </trkpt>
      <trkpt lat="44.87439" lon="5.68084">
        <ele>450.47</ele>
        <time>2019-11-01T13:25:50Z</time>
      </trkpt>
      <trkpt lat="44.87442" lon="5.68082">
        <ele>450.77</ele>
        <time>2019-11-01T13:25:52Z</time>
      </trkpt>
      <trkpt lat="44.87445" lon="5.68079">
        <ele>451.09</ele>
        <time>2019-11-01T13:25:54Z</time>
      </trkpt>
      <trkpt lat="44.87446" lon="5.68077">
        <ele>451.2</ele>
        <time>2019-11-01T13:25:55Z</time>
      </trkpt>
      <trkpt lat="44.87447" lon="5.68075">
        <ele>451.31</ele>
        <time>2019-11-01T13:25:56Z</time>
      </trkpt>
      <trkpt lat="44.87449" lon="5.68072">
        <ele>451.41</ele>
        <time>2019-11-01T13:25:57Z</time>
      </trkpt>
      <trkpt lat="44.87451" lon="5.6807">
        <ele>451.37</ele>
        <time>2019-11-01T13:25:58Z</time>
      </trkpt>
      <trkpt lat="44.87455" lon="5.68068">
        <ele>451.63</ele>
        <time>2019-11-01T13:26:00Z</time>
      </trkpt>
      <trkpt lat="44.87458" lon="5.68068">
        <ele>452.13</ele>
        <time>2019-11-01T13:26:01Z</time>
      </trkpt>
      <trkpt lat="44.8746" lon="5.68068">
        <ele>452.77</ele>
        <time>2019-11-01T13:26:02Z</time>
      </trkpt>
      <trkpt lat="44.87461" lon="5.68055">
        <ele>453.29</ele>
        <time>2019-11-01T13:26:30Z</time>
      </trkpt>
      <trkpt lat="44.87457" lon="5.6805">
        <ele>453.42</ele>
        <time>2019-11-01T13:26:33Z</time>
      </trkpt>
      <trkpt lat="44.87463" lon="5.68062">
        <ele>453.52</ele>
        <time>2019-11-01T13:26:36Z</time>
      </trkpt>
      <trkpt lat="44.87464" lon="5.68065">
        <ele>453.55</ele>
        <time>2019-11-01T13:26:38Z</time>
      </trkpt>
      <trkpt lat="44.87467" lon="5.68065">
        <ele>453.62</ele>
        <time>2019-11-01T13:26:48Z</time>
      </trkpt>
      <trkpt lat="44.87469" lon="5.68066">
        <ele>453.79</ele>
        <time>2019-11-01T13:26:50Z</time>
      </trkpt>
      <trkpt lat="44.87472" lon="5.68067">
        <ele>454</ele>
        <time>2019-11-01T13:26:52Z</time>
      </trkpt>
      <trkpt lat="44.87475" lon="5.68068">
        <ele>454.21</ele>
        <time>2019-11-01T13:26:54Z</time>
      </trkpt>
      <trkpt lat="44.87478" lon="5.68069">
        <ele>454.41</ele>
        <time>2019-11-01T13:26:56Z</time>
      </trkpt>
      <trkpt lat="44.87479" lon="5.68068">
        <ele>454.51</ele>
        <time>2019-11-01T13:26:57Z</time>
      </trkpt>
      <trkpt lat="44.87482" lon="5.68065">
        <ele>454.71</ele>
        <time>2019-11-01T13:26:59Z</time>
      </trkpt>
      <trkpt lat="44.87484" lon="5.68064">
        <ele>454.81</ele>
        <time>2019-11-01T13:27:00Z</time>
      </trkpt>
      <trkpt lat="44.87486" lon="5.68063">
        <ele>454.98</ele>
        <time>2019-11-01T13:27:01Z</time>
      </trkpt>
      <trkpt lat="44.87488" lon="5.68062">
        <ele>455.1</ele>
        <time>2019-11-01T13:27:02Z</time>
      </trkpt>
      <trkpt lat="44.8749" lon="5.68063">
        <ele>455.2</ele>
        <time>2019-11-01T13:27:03Z</time>
      </trkpt>
      <trkpt lat="44.87492" lon="5.68063">
        <ele>455.38</ele>
        <time>2019-11-01T13:27:04Z</time>
      </trkpt>
      <trkpt lat="44.87494" lon="5.68062">
        <ele>455.5</ele>
        <time>2019-11-01T13:27:05Z</time>
      </trkpt>
      <trkpt lat="44.87496" lon="5.68061">
        <ele>455.6</ele>
        <time>2019-11-01T13:27:06Z</time>
      </trkpt>
      <trkpt lat="44.87498" lon="5.68059">
        <ele>455.71</ele>
        <time>2019-11-01T13:27:07Z</time>
      </trkpt>
      <trkpt lat="44.87499" lon="5.68057">
        <ele>455.88</ele>
        <time>2019-11-01T13:27:08Z</time>
      </trkpt>
      <trkpt lat="44.875" lon="5.68054">
        <ele>456</ele>
        <time>2019-11-01T13:27:09Z</time>
      </trkpt>
      <trkpt lat="44.87501" lon="5.68051">
        <ele>456.1</ele>
        <time>2019-11-01T13:27:10Z</time>
      </trkpt>
      <trkpt lat="44.87502" lon="5.68048">
        <ele>456.28</ele>
        <time>2019-11-01T13:27:11Z</time>
      </trkpt>
      <trkpt lat="44.87504" lon="5.68047">
        <ele>456.4</ele>
        <time>2019-11-01T13:27:12Z</time>
      </trkpt>
      <trkpt lat="44.87506" lon="5.68046">
        <ele>456.57</ele>
        <time>2019-11-01T13:27:13Z</time>
      </trkpt>
      <trkpt lat="44.87509" lon="5.68045">
        <ele>456.7</ele>
        <time>2019-11-01T13:27:14Z</time>
      </trkpt>
      <trkpt lat="44.87511" lon="5.68045">
        <ele>456.87</ele>
        <time>2019-11-01T13:27:15Z</time>
      </trkpt>
      <trkpt lat="44.87513" lon="5.68045">
        <ele>457.1</ele>
        <time>2019-11-01T13:27:17Z</time>
      </trkpt>
      <trkpt lat="44.87516" lon="5.68046">
        <ele>457.21</ele>
        <time>2019-11-01T13:27:18Z</time>
      </trkpt>
      <trkpt lat="44.87519" lon="5.68044">
        <ele>457.31</ele>
        <time>2019-11-01T13:27:19Z</time>
      </trkpt>
      <trkpt lat="44.87522" lon="5.68043">
        <ele>457.48</ele>
        <time>2019-11-01T13:27:20Z</time>
      </trkpt>
      <trkpt lat="44.87525" lon="5.68042">
        <ele>457.74</ele>
        <time>2019-11-01T13:27:21Z</time>
      </trkpt>
      <trkpt lat="44.87528" lon="5.68042">
        <ele>458.1</ele>
        <time>2019-11-01T13:27:22Z</time>
      </trkpt>
      <trkpt lat="44.87531" lon="5.68041">
        <ele>458.27</ele>
        <time>2019-11-01T13:27:23Z</time>
      </trkpt>
      <trkpt lat="44.87534" lon="5.68042">
        <ele>458.4</ele>
        <time>2019-11-01T13:27:24Z</time>
      </trkpt>
      <trkpt lat="44.87536" lon="5.68042">
        <ele>458.64</ele>
        <time>2019-11-01T13:27:25Z</time>
      </trkpt>
      <trkpt lat="44.87539" lon="5.68045">
        <ele>458.72</ele>
        <time>2019-11-01T13:27:26Z</time>
      </trkpt>
      <trkpt lat="44.87541" lon="5.68048">
        <ele>458.67</ele>
        <time>2019-11-01T13:27:27Z</time>
      </trkpt>
      <trkpt lat="44.87544" lon="5.68051">
        <ele>458.59</ele>
        <time>2019-11-01T13:27:28Z</time>
      </trkpt>
      <trkpt lat="44.87545" lon="5.68055">
        <ele>458.35</ele>
        <time>2019-11-01T13:27:29Z</time>
      </trkpt>
      <trkpt lat="44.87546" lon="5.68058">
        <ele>458.28</ele>
        <time>2019-11-01T13:27:30Z</time>
      </trkpt>
      <trkpt lat="44.87545" lon="5.68061">
        <ele>458.02</ele>
        <time>2019-11-01T13:27:32Z</time>
      </trkpt>
      <trkpt lat="44.87543" lon="5.68063">
        <ele>457.9</ele>
        <time>2019-11-01T13:27:33Z</time>
      </trkpt>
      <trkpt lat="44.87543" lon="5.68067">
        <ele>457.86</ele>
        <time>2019-11-01T13:27:34Z</time>
      </trkpt>
      <trkpt lat="44.87543" lon="5.6807">
        <ele>457.85</ele>
        <time>2019-11-01T13:27:35Z</time>
      </trkpt>
      <trkpt lat="44.87545" lon="5.68073">
        <ele>457.76</ele>
        <time>2019-11-01T13:27:37Z</time>
      </trkpt>
      <trkpt lat="44.87547" lon="5.68074">
        <ele>457.82</ele>
        <time>2019-11-01T13:27:38Z</time>
      </trkpt>
      <trkpt lat="44.87549" lon="5.68075">
        <ele>457.84</ele>
        <time>2019-11-01T13:27:39Z</time>
      </trkpt>
      <trkpt lat="44.87553" lon="5.68076">
        <ele>457.76</ele>
        <time>2019-11-01T13:27:41Z</time>
      </trkpt>
      <trkpt lat="44.87555" lon="5.6808">
        <ele>457.73</ele>
        <time>2019-11-01T13:27:43Z</time>
      </trkpt>
      <trkpt lat="44.87553" lon="5.68083">
        <ele>457.75</ele>
        <time>2019-11-01T13:27:45Z</time>
      </trkpt>
      <trkpt lat="44.87551" lon="5.68085">
        <ele>457.66</ele>
        <time>2019-11-01T13:27:47Z</time>
      </trkpt>
      <trkpt lat="44.8755" lon="5.68088">
        <ele>457.81</ele>
        <time>2019-11-01T13:27:49Z</time>
      </trkpt>
      <trkpt lat="44.87548" lon="5.6809">
        <ele>457.92</ele>
        <time>2019-11-01T13:27:51Z</time>
      </trkpt>
      <trkpt lat="44.87547" lon="5.68093">
        <ele>458.04</ele>
        <time>2019-11-01T13:27:54Z</time>
      </trkpt>
      <trkpt lat="44.8755" lon="5.681">
        <ele>458.4</ele>
        <time>2019-11-01T13:28:08Z</time>
      </trkpt>
      <trkpt lat="44.87559" lon="5.68106">
        <ele>457.91</ele>
        <time>2019-11-01T13:28:27Z</time>
      </trkpt>
      <trkpt lat="44.8756" lon="5.68109">
        <ele>457.13</ele>
        <time>2019-11-01T13:28:30Z</time>
      </trkpt>
      <trkpt lat="44.87567" lon="5.68118">
        <ele>457.4</ele>
        <time>2019-11-01T13:28:42Z</time>
      </trkpt>
      <trkpt lat="44.87569" lon="5.68121">
        <ele>457.95</ele>
        <time>2019-11-01T13:28:44Z</time>
      </trkpt>
      <trkpt lat="44.87572" lon="5.68122">
        <ele>458.3</ele>
        <time>2019-11-01T13:28:47Z</time>
      </trkpt>
      <trkpt lat="44.87581" lon="5.68128">
        <ele>457.86</ele>
        <time>2019-11-01T13:29:12Z</time>
      </trkpt>
      <trkpt lat="44.87583" lon="5.68128">
        <ele>457.4</ele>
        <time>2019-11-01T13:29:15Z</time>
      </trkpt>
      <trkpt lat="44.87591" lon="5.68125">
        <ele>456.93</ele>
        <time>2019-11-01T13:29:29Z</time>
      </trkpt>
      <trkpt lat="44.87593" lon="5.68124">
        <ele>456.7</ele>
        <time>2019-11-01T13:29:31Z</time>
      </trkpt>
      <trkpt lat="44.87596" lon="5.68123">
        <ele>456.48</ele>
        <time>2019-11-01T13:29:34Z</time>
      </trkpt>
      <trkpt lat="44.87601" lon="5.68134">
        <ele>455.58</ele>
        <time>2019-11-01T13:29:52Z</time>
      </trkpt>
      <trkpt lat="44.87602" lon="5.68138">
        <ele>455.12</ele>
        <time>2019-11-01T13:29:54Z</time>
      </trkpt>
      <trkpt lat="44.87604" lon="5.68141">
        <ele>454.96</ele>
        <time>2019-11-01T13:29:56Z</time>
      </trkpt>
      <trkpt lat="44.87606" lon="5.68145">
        <ele>454.86</ele>
        <time>2019-11-01T13:29:58Z</time>
      </trkpt>
      <trkpt lat="44.87607" lon="5.68147">
        <ele>454.68</ele>
        <time>2019-11-01T13:30:01Z</time>
      </trkpt>
      <trkpt lat="44.87614" lon="5.68157">
        <ele>454.27</ele>
        <time>2019-11-01T13:30:21Z</time>
      </trkpt>
      <trkpt lat="44.8762" lon="5.68161">
        <ele>454.08</ele>
        <time>2019-11-01T13:30:40Z</time>
      </trkpt>
      <trkpt lat="44.87622" lon="5.6816">
        <ele>454.12</ele>
        <time>2019-11-01T13:30:42Z</time>
      </trkpt>
      <trkpt lat="44.87624" lon="5.68158">
        <ele>454.22</ele>
        <time>2019-11-01T13:30:44Z</time>
      </trkpt>
      <trkpt lat="44.87626" lon="5.68157">
        <ele>454.32</ele>
        <time>2019-11-01T13:30:46Z</time>
      </trkpt>
      <trkpt lat="44.87633" lon="5.68151">
        <ele>454.27</ele>
        <time>2019-11-01T13:31:06Z</time>
      </trkpt>
      <trkpt lat="44.87636" lon="5.68152">
        <ele>454.16</ele>
        <time>2019-11-01T13:31:08Z</time>
      </trkpt>
      <trkpt lat="44.87638" lon="5.68153">
        <ele>454.08</ele>
        <time>2019-11-01T13:31:10Z</time>
      </trkpt>
      <trkpt lat="44.8764" lon="5.68153">
        <ele>454.05</ele>
        <time>2019-11-01T13:31:13Z</time>
      </trkpt>
      <trkpt lat="44.87646" lon="5.68165">
        <ele>453.91</ele>
        <time>2019-11-01T13:31:23Z</time>
      </trkpt>
      <trkpt lat="44.87647" lon="5.6817">
        <ele>453.76</ele>
        <time>2019-11-01T13:31:25Z</time>
      </trkpt>
      <trkpt lat="44.87648" lon="5.68174">
        <ele>453.66</ele>
        <time>2019-11-01T13:31:27Z</time>
      </trkpt>
      <trkpt lat="44.87649" lon="5.68177">
        <ele>453.58</ele>
        <time>2019-11-01T13:31:29Z</time>
      </trkpt>
      <trkpt lat="44.8765" lon="5.68181">
        <ele>453.55</ele>
        <time>2019-11-01T13:31:31Z</time>
      </trkpt>
      <trkpt lat="44.8765" lon="5.68185">
        <ele>453.48</ele>
        <time>2019-11-01T13:31:33Z</time>
      </trkpt>
      <trkpt lat="44.8765" lon="5.68187">
        <ele>453.45</ele>
        <time>2019-11-01T13:31:35Z</time>
      </trkpt>
      <trkpt lat="44.87657" lon="5.68187">
        <ele>453.07</ele>
        <time>2019-11-01T13:31:57Z</time>
      </trkpt>
      <trkpt lat="44.8766" lon="5.68179">
        <ele>452.88</ele>
        <time>2019-11-01T13:32:08Z</time>
      </trkpt>
      <trkpt lat="44.87662" lon="5.68177">
        <ele>452.85</ele>
        <time>2019-11-01T13:32:10Z</time>
      </trkpt>
      <trkpt lat="44.87664" lon="5.68175">
        <ele>452.78</ele>
        <time>2019-11-01T13:32:12Z</time>
      </trkpt>
      <trkpt lat="44.87674" lon="5.68172">
        <ele>452.68</ele>
        <time>2019-11-01T13:32:28Z</time>
      </trkpt>
      <trkpt lat="44.87677" lon="5.6817">
        <ele>452.72</ele>
        <time>2019-11-01T13:32:31Z</time>
      </trkpt>
      <trkpt lat="44.87686" lon="5.68167">
        <ele>452.68</ele>
        <time>2019-11-01T13:32:55Z</time>
      </trkpt>
      <trkpt lat="44.87688" lon="5.68166">
        <ele>452.72</ele>
        <time>2019-11-01T13:32:58Z</time>
      </trkpt>
      <trkpt lat="44.87694" lon="5.68156">
        <ele>453.38</ele>
        <time>2019-11-01T13:33:15Z</time>
      </trkpt>
      <trkpt lat="44.87695" lon="5.68158">
        <ele>453.46</ele>
        <time>2019-11-01T13:33:17Z</time>
      </trkpt>
      <trkpt lat="44.877" lon="5.68153">
        <ele>453.24</ele>
        <time>2019-11-01T13:33:24Z</time>
      </trkpt>
      <trkpt lat="44.87702" lon="5.68151">
        <ele>453.07</ele>
        <time>2019-11-01T13:33:26Z</time>
      </trkpt>
      <trkpt lat="44.87705" lon="5.68148">
        <ele>452.96</ele>
        <time>2019-11-01T13:33:28Z</time>
      </trkpt>
      <trkpt lat="44.87706" lon="5.68147">
        <ele>452.88</ele>
        <time>2019-11-01T13:33:29Z</time>
      </trkpt>
      <trkpt lat="44.87708" lon="5.68145">
        <ele>452.76</ele>
        <time>2019-11-01T13:33:31Z</time>
      </trkpt>
      <trkpt lat="44.87715" lon="5.68137">
        <ele>452.26</ele>
        <time>2019-11-01T13:33:44Z</time>
      </trkpt>
      <trkpt lat="44.87717" lon="5.68135">
        <ele>451.89</ele>
        <time>2019-11-01T13:33:47Z</time>
      </trkpt>
      <trkpt lat="44.87721" lon="5.68135">
        <ele>451.78</ele>
        <time>2019-11-01T13:33:52Z</time>
      </trkpt>
      <trkpt lat="44.87723" lon="5.68136">
        <ele>451.62</ele>
        <time>2019-11-01T13:33:53Z</time>
      </trkpt>
      <trkpt lat="44.87724" lon="5.68134">
        <ele>451.5</ele>
        <time>2019-11-01T13:33:54Z</time>
      </trkpt>
      <trkpt lat="44.87726" lon="5.68132">
        <ele>451.45</ele>
        <time>2019-11-01T13:33:56Z</time>
      </trkpt>
      <trkpt lat="44.87728" lon="5.68134">
        <ele>451.31</ele>
        <time>2019-11-01T13:33:57Z</time>
      </trkpt>
      <trkpt lat="44.87731" lon="5.68135">
        <ele>451.25</ele>
        <time>2019-11-01T13:33:59Z</time>
      </trkpt>
      <trkpt lat="44.87735" lon="5.68137">
        <ele>451.18</ele>
        <time>2019-11-01T13:34:01Z</time>
      </trkpt>
      <trkpt lat="44.87737" lon="5.68137">
        <ele>451.09</ele>
        <time>2019-11-01T13:34:02Z</time>
      </trkpt>
      <trkpt lat="44.87739" lon="5.68137">
        <ele>450.99</ele>
        <time>2019-11-01T13:34:03Z</time>
      </trkpt>
      <trkpt lat="44.87742" lon="5.68136">
        <ele>450.88</ele>
        <time>2019-11-01T13:34:05Z</time>
      </trkpt>
      <trkpt lat="44.87744" lon="5.68135">
        <ele>450.76</ele>
        <time>2019-11-01T13:34:07Z</time>
      </trkpt>
      <trkpt lat="44.87747" lon="5.68133">
        <ele>450.66</ele>
        <time>2019-11-01T13:34:09Z</time>
      </trkpt>
      <trkpt lat="44.8775" lon="5.68131">
        <ele>450.58</ele>
        <time>2019-11-01T13:34:11Z</time>
      </trkpt>
      <trkpt lat="44.87752" lon="5.6813">
        <ele>450.62</ele>
        <time>2019-11-01T13:34:13Z</time>
      </trkpt>
      <trkpt lat="44.87755" lon="5.68131">
        <ele>450.58</ele>
        <time>2019-11-01T13:34:15Z</time>
      </trkpt>
      <trkpt lat="44.87758" lon="5.68131">
        <ele>450.55</ele>
        <time>2019-11-01T13:34:17Z</time>
      </trkpt>
      <trkpt lat="44.87761" lon="5.68131">
        <ele>450.55</ele>
        <time>2019-11-01T13:34:19Z</time>
      </trkpt>
      <trkpt lat="44.8777" lon="5.68125">
        <ele>450.48</ele>
        <time>2019-11-01T13:34:33Z</time>
      </trkpt>
      <trkpt lat="44.8777" lon="5.68122">
        <ele>450.54</ele>
        <time>2019-11-01T13:34:35Z</time>
      </trkpt>
      <trkpt lat="44.87771" lon="5.68118">
        <ele>450.69</ele>
        <time>2019-11-01T13:34:37Z</time>
      </trkpt>
      <trkpt lat="44.87772" lon="5.68116">
        <ele>450.81</ele>
        <time>2019-11-01T13:34:39Z</time>
      </trkpt>
      <trkpt lat="44.87774" lon="5.68115">
        <ele>450.75</ele>
        <time>2019-11-01T13:34:41Z</time>
      </trkpt>
      <trkpt lat="44.87784" lon="5.68118">
        <ele>451.17</ele>
        <time>2019-11-01T13:35:00Z</time>
      </trkpt>
      <trkpt lat="44.87786" lon="5.68118">
        <ele>451.6</ele>
        <time>2019-11-01T13:35:03Z</time>
      </trkpt>
      <trkpt lat="44.87794" lon="5.68113">
        <ele>452.35</ele>
        <time>2019-11-01T13:35:19Z</time>
      </trkpt>
      <trkpt lat="44.87796" lon="5.68115">
        <ele>452.31</ele>
        <time>2019-11-01T13:35:22Z</time>
      </trkpt>
      <trkpt lat="44.87804" lon="5.68108">
        <ele>450.36</ele>
        <time>2019-11-01T13:35:38Z</time>
      </trkpt>
      <trkpt lat="44.87812" lon="5.681">
        <ele>448.66</ele>
        <time>2019-11-01T13:36:01Z</time>
      </trkpt>
      <trkpt lat="44.87821" lon="5.68095">
        <ele>447.3</ele>
        <time>2019-11-01T13:36:18Z</time>
      </trkpt>
      <trkpt lat="44.87823" lon="5.68094">
        <ele>446.93</ele>
        <time>2019-11-01T13:36:20Z</time>
      </trkpt>
      <trkpt lat="44.87831" lon="5.68092">
        <ele>447.72</ele>
        <time>2019-11-01T13:36:28Z</time>
      </trkpt>
      <trkpt lat="44.87834" lon="5.68091">
        <ele>448.23</ele>
        <time>2019-11-01T13:36:29Z</time>
      </trkpt>
      <trkpt lat="44.87836" lon="5.6809">
        <ele>448.52</ele>
        <time>2019-11-01T13:36:30Z</time>
      </trkpt>
      <trkpt lat="44.87838" lon="5.6809">
        <ele>448.96</ele>
        <time>2019-11-01T13:36:31Z</time>
      </trkpt>
      <trkpt lat="44.87841" lon="5.6809">
        <ele>449.92</ele>
        <time>2019-11-01T13:36:33Z</time>
      </trkpt>
      <trkpt lat="44.87844" lon="5.6809">
        <ele>450.43</ele>
        <time>2019-11-01T13:36:35Z</time>
      </trkpt>
      <trkpt lat="44.87847" lon="5.68089">
        <ele>450.65</ele>
        <time>2019-11-01T13:36:36Z</time>
      </trkpt>
      <trkpt lat="44.87849" lon="5.68088">
        <ele>450.93</ele>
        <time>2019-11-01T13:36:37Z</time>
      </trkpt>
      <trkpt lat="44.8785" lon="5.68088">
        <ele>451.15</ele>
        <time>2019-11-01T13:36:38Z</time>
      </trkpt>
      <trkpt lat="44.87853" lon="5.68086">
        <ele>451.15</ele>
        <time>2019-11-01T13:36:39Z</time>
      </trkpt>
      <trkpt lat="44.87855" lon="5.68086">
        <ele>451.15</ele>
        <time>2019-11-01T13:36:40Z</time>
      </trkpt>
      <trkpt lat="44.87856" lon="5.68084">
        <ele>451.43</ele>
        <time>2019-11-01T13:36:41Z</time>
      </trkpt>
      <trkpt lat="44.87859" lon="5.68083">
        <ele>451.72</ele>
        <time>2019-11-01T13:36:42Z</time>
      </trkpt>
      <trkpt lat="44.8786" lon="5.68082">
        <ele>452.02</ele>
        <time>2019-11-01T13:36:43Z</time>
      </trkpt>
      <trkpt lat="44.87863" lon="5.68081">
        <ele>452.04</ele>
        <time>2019-11-01T13:36:44Z</time>
      </trkpt>
      <trkpt lat="44.87865" lon="5.6808">
        <ele>452.26</ele>
        <time>2019-11-01T13:36:45Z</time>
      </trkpt>
      <trkpt lat="44.87867" lon="5.68079">
        <ele>452.53</ele>
        <time>2019-11-01T13:36:46Z</time>
      </trkpt>
      <trkpt lat="44.8787" lon="5.68078">
        <ele>452.47</ele>
        <time>2019-11-01T13:36:47Z</time>
      </trkpt>
      <trkpt lat="44.87873" lon="5.68077">
        <ele>452.11</ele>
        <time>2019-11-01T13:36:48Z</time>
      </trkpt>
      <trkpt lat="44.87876" lon="5.68076">
        <ele>451.86</ele>
        <time>2019-11-01T13:36:49Z</time>
      </trkpt>
      <trkpt lat="44.87879" lon="5.68075">
        <ele>451.78</ele>
        <time>2019-11-01T13:36:50Z</time>
      </trkpt>
      <trkpt lat="44.87882" lon="5.68073">
        <ele>451.48</ele>
        <time>2019-11-01T13:36:51Z</time>
      </trkpt>
      <trkpt lat="44.87885" lon="5.68072">
        <ele>451.25</ele>
        <time>2019-11-01T13:36:52Z</time>
      </trkpt>
      <trkpt lat="44.87887" lon="5.6807">
        <ele>450.97</ele>
        <time>2019-11-01T13:36:53Z</time>
      </trkpt>
      <trkpt lat="44.87889" lon="5.68069">
        <ele>450.95</ele>
        <time>2019-11-01T13:36:54Z</time>
      </trkpt>
      <trkpt lat="44.87892" lon="5.68068">
        <ele>450.74</ele>
        <time>2019-11-01T13:36:55Z</time>
      </trkpt>
      <trkpt lat="44.87901" lon="5.68065">
        <ele>451.12</ele>
        <time>2019-11-01T13:37:15Z</time>
      </trkpt>
      <trkpt lat="44.87904" lon="5.68062">
        <ele>451.08</ele>
        <time>2019-11-01T13:37:17Z</time>
      </trkpt>
      <trkpt lat="44.87907" lon="5.6806">
        <ele>450.98</ele>
        <time>2019-11-01T13:37:19Z</time>
      </trkpt>
      <trkpt lat="44.87909" lon="5.6806">
        <ele>450.96</ele>
        <time>2019-11-01T13:37:20Z</time>
      </trkpt>
      <trkpt lat="44.87912" lon="5.6806">
        <ele>450.74</ele>
        <time>2019-11-01T13:37:21Z</time>
      </trkpt>
      <trkpt lat="44.87914" lon="5.68061">
        <ele>450.54</ele>
        <time>2019-11-01T13:37:22Z</time>
      </trkpt>
      <trkpt lat="44.87916" lon="5.6806">
        <ele>450.41</ele>
        <time>2019-11-01T13:37:23Z</time>
      </trkpt>
      <trkpt lat="44.87918" lon="5.6806">
        <ele>450.3</ele>
        <time>2019-11-01T13:37:24Z</time>
      </trkpt>
      <trkpt lat="44.87921" lon="5.68059">
        <ele>450.19</ele>
        <time>2019-11-01T13:37:25Z</time>
      </trkpt>
      <trkpt lat="44.87924" lon="5.68059">
        <ele>449.95</ele>
        <time>2019-11-01T13:37:26Z</time>
      </trkpt>
      <trkpt lat="44.87928" lon="5.68059">
        <ele>449.74</ele>
        <time>2019-11-01T13:37:27Z</time>
      </trkpt>
      <trkpt lat="44.8793" lon="5.6806">
        <ele>449.54</ele>
        <time>2019-11-01T13:37:28Z</time>
      </trkpt>
      <trkpt lat="44.87933" lon="5.68061">
        <ele>449.41</ele>
        <time>2019-11-01T13:37:29Z</time>
      </trkpt>
      <trkpt lat="44.87935" lon="5.68061">
        <ele>449.3</ele>
        <time>2019-11-01T13:37:30Z</time>
      </trkpt>
      <trkpt lat="44.87939" lon="5.68061">
        <ele>449.26</ele>
        <time>2019-11-01T13:37:31Z</time>
      </trkpt>
      <trkpt lat="44.87943" lon="5.68059">
        <ele>449.18</ele>
        <time>2019-11-01T13:37:32Z</time>
      </trkpt>
      <trkpt lat="44.87946" lon="5.68058">
        <ele>448.81</ele>
        <time>2019-11-01T13:37:33Z</time>
      </trkpt>
      <trkpt lat="44.87949" lon="5.68058">
        <ele>448.35</ele>
        <time>2019-11-01T13:37:34Z</time>
      </trkpt>
      <trkpt lat="44.87951" lon="5.68059">
        <ele>447.79</ele>
        <time>2019-11-01T13:37:35Z</time>
      </trkpt>
      <trkpt lat="44.87953" lon="5.6806">
        <ele>447.2</ele>
        <time>2019-11-01T13:37:36Z</time>
      </trkpt>
      <trkpt lat="44.87957" lon="5.68062">
        <ele>446.31</ele>
        <time>2019-11-01T13:37:38Z</time>
      </trkpt>
      <trkpt lat="44.8796" lon="5.68064">
        <ele>445.86</ele>
        <time>2019-11-01T13:37:40Z</time>
      </trkpt>
      <trkpt lat="44.87962" lon="5.68065">
        <ele>445.36</ele>
        <time>2019-11-01T13:37:41Z</time>
      </trkpt>
      <trkpt lat="44.87964" lon="5.68066">
        <ele>444.25</ele>
        <time>2019-11-01T13:37:43Z</time>
      </trkpt>
      <trkpt lat="44.87972" lon="5.68065">
        <ele>443.43</ele>
        <time>2019-11-01T13:38:37Z</time>
      </trkpt>
      <trkpt lat="44.87974" lon="5.68065">
        <ele>443.27</ele>
        <time>2019-11-01T13:38:39Z</time>
      </trkpt>
      <trkpt lat="44.87978" lon="5.68065">
        <ele>443.15</ele>
        <time>2019-11-01T13:38:43Z</time>
      </trkpt>
      <trkpt lat="44.8798" lon="5.68066">
        <ele>443.06</ele>
        <time>2019-11-01T13:38:46Z</time>
      </trkpt>
      <trkpt lat="44.87971" lon="5.68071">
        <ele>443.54</ele>
        <time>2019-11-01T13:40:01Z</time>
      </trkpt>
      <trkpt lat="44.87961" lon="5.68076">
        <ele>444.52</ele>
        <time>2019-11-01T13:40:21Z</time>
      </trkpt>
      <trkpt lat="44.87959" lon="5.68076">
        <ele>444.96</ele>
        <time>2019-11-01T13:40:22Z</time>
      </trkpt>
      <trkpt lat="44.87957" lon="5.68076">
        <ele>445.3</ele>
        <time>2019-11-01T13:40:23Z</time>
      </trkpt>
      <trkpt lat="44.87955" lon="5.68078">
        <ele>445.61</ele>
        <time>2019-11-01T13:40:24Z</time>
      </trkpt>
      <trkpt lat="44.87952" lon="5.68078">
        <ele>446.06</ele>
        <time>2019-11-01T13:40:25Z</time>
      </trkpt>
      <trkpt lat="44.8795" lon="5.6808">
        <ele>446.47</ele>
        <time>2019-11-01T13:40:26Z</time>
      </trkpt>
      <trkpt lat="44.87947" lon="5.68081">
        <ele>447.12</ele>
        <time>2019-11-01T13:40:28Z</time>
      </trkpt>
      <trkpt lat="44.87945" lon="5.68082">
        <ele>447.84</ele>
        <time>2019-11-01T13:40:29Z</time>
      </trkpt>
      <trkpt lat="44.87943" lon="5.68082">
        <ele>448.69</ele>
        <time>2019-11-01T13:40:30Z</time>
      </trkpt>
      <trkpt lat="44.87942" lon="5.68083">
        <ele>449.36</ele>
        <time>2019-11-01T13:40:31Z</time>
      </trkpt>
      <trkpt lat="44.87938" lon="5.68083">
        <ele>450.73</ele>
        <time>2019-11-01T13:40:33Z</time>
      </trkpt>
      <trkpt lat="44.87936" lon="5.68083">
        <ele>451.44</ele>
        <time>2019-11-01T13:40:34Z</time>
      </trkpt>
      <trkpt lat="44.87934" lon="5.68084">
        <ele>452.15</ele>
        <time>2019-11-01T13:40:35Z</time>
      </trkpt>
      <trkpt lat="44.87932" lon="5.68084">
        <ele>452.92</ele>
        <time>2019-11-01T13:40:36Z</time>
      </trkpt>
      <trkpt lat="44.8793" lon="5.68085">
        <ele>453.57</ele>
        <time>2019-11-01T13:40:37Z</time>
      </trkpt>
      <trkpt lat="44.87927" lon="5.68083">
        <ele>454.79</ele>
        <time>2019-11-01T13:40:39Z</time>
      </trkpt>
      <trkpt lat="44.87924" lon="5.68083">
        <ele>455.32</ele>
        <time>2019-11-01T13:40:40Z</time>
      </trkpt>
      <trkpt lat="44.87922" lon="5.68082">
        <ele>455.83</ele>
        <time>2019-11-01T13:40:41Z</time>
      </trkpt>
      <trkpt lat="44.87919" lon="5.68083">
        <ele>456.4</ele>
        <time>2019-11-01T13:40:42Z</time>
      </trkpt>
      <trkpt lat="44.87917" lon="5.68082">
        <ele>457</ele>
        <time>2019-11-01T13:40:43Z</time>
      </trkpt>
      <trkpt lat="44.87915" lon="5.68082">
        <ele>457.59</ele>
        <time>2019-11-01T13:40:44Z</time>
      </trkpt>
      <trkpt lat="44.87913" lon="5.68083">
        <ele>458.4</ele>
        <time>2019-11-01T13:40:45Z</time>
      </trkpt>
      <trkpt lat="44.87911" lon="5.68083">
        <ele>459.34</ele>
        <time>2019-11-01T13:40:46Z</time>
      </trkpt>
      <trkpt lat="44.87909" lon="5.68084">
        <ele>460.26</ele>
        <time>2019-11-01T13:40:47Z</time>
      </trkpt>
      <trkpt lat="44.87907" lon="5.68084">
        <ele>461.16</ele>
        <time>2019-11-01T13:40:48Z</time>
      </trkpt>
      <trkpt lat="44.87905" lon="5.68085">
        <ele>462.06</ele>
        <time>2019-11-01T13:40:49Z</time>
      </trkpt>
      <trkpt lat="44.87903" lon="5.68085">
        <ele>462.96</ele>
        <time>2019-11-01T13:40:50Z</time>
      </trkpt>
      <trkpt lat="44.87902" lon="5.68087">
        <ele>463.79</ele>
        <time>2019-11-01T13:40:51Z</time>
      </trkpt>
      <trkpt lat="44.87898" lon="5.68088">
        <ele>465.36</ele>
        <time>2019-11-01T13:40:53Z</time>
      </trkpt>
      <trkpt lat="44.87896" lon="5.68088">
        <ele>466.45</ele>
        <time>2019-11-01T13:40:55Z</time>
      </trkpt>
      <trkpt lat="44.87893" lon="5.68088">
        <ele>467.69</ele>
        <time>2019-11-01T13:40:57Z</time>
      </trkpt>
      <trkpt lat="44.87891" lon="5.68089">
        <ele>468.29</ele>
        <time>2019-11-01T13:40:58Z</time>
      </trkpt>
      <trkpt lat="44.87889" lon="5.6809">
        <ele>468.82</ele>
        <time>2019-11-01T13:40:59Z</time>
      </trkpt>
      <trkpt lat="44.87886" lon="5.68092">
        <ele>469.76</ele>
        <time>2019-11-01T13:41:01Z</time>
      </trkpt>
      <trkpt lat="44.87884" lon="5.68093">
        <ele>469.96</ele>
        <time>2019-11-01T13:41:02Z</time>
      </trkpt>
      <trkpt lat="44.87882" lon="5.68095">
        <ele>470.78</ele>
        <time>2019-11-01T13:41:04Z</time>
      </trkpt>
      <trkpt lat="44.8788" lon="5.68096">
        <ele>471.32</ele>
        <time>2019-11-01T13:41:05Z</time>
      </trkpt>
      <trkpt lat="44.87878" lon="5.68099">
        <ele>471.83</ele>
        <time>2019-11-01T13:41:06Z</time>
      </trkpt>
      <trkpt lat="44.87876" lon="5.681">
        <ele>472.4</ele>
        <time>2019-11-01T13:41:07Z</time>
      </trkpt>
      <trkpt lat="44.87874" lon="5.68103">
        <ele>473.56</ele>
        <time>2019-11-01T13:41:09Z</time>
      </trkpt>
      <trkpt lat="44.87872" lon="5.68104">
        <ele>473.9</ele>
        <time>2019-11-01T13:41:10Z</time>
      </trkpt>
      <trkpt lat="44.87869" lon="5.68106">
        <ele>474.86</ele>
        <time>2019-11-01T13:41:12Z</time>
      </trkpt>
      <trkpt lat="44.87865" lon="5.68107">
        <ele>476.16</ele>
        <time>2019-11-01T13:41:14Z</time>
      </trkpt>
      <trkpt lat="44.87862" lon="5.68109">
        <ele>477.66</ele>
        <time>2019-11-01T13:41:16Z</time>
      </trkpt>
      <trkpt lat="44.8786" lon="5.6811">
        <ele>479.04</ele>
        <time>2019-11-01T13:41:19Z</time>
      </trkpt>
      <trkpt lat="44.87858" lon="5.6811">
        <ele>480.43</ele>
        <time>2019-11-01T13:41:22Z</time>
      </trkpt>
      <trkpt lat="44.87856" lon="5.68111">
        <ele>480.94</ele>
        <time>2019-11-01T13:41:24Z</time>
      </trkpt>
      <trkpt lat="44.87853" lon="5.68112">
        <ele>481.27</ele>
        <time>2019-11-01T13:41:26Z</time>
      </trkpt>
      <trkpt lat="44.8785" lon="5.68114">
        <ele>481.96</ele>
        <time>2019-11-01T13:41:28Z</time>
      </trkpt>
      <trkpt lat="44.87849" lon="5.68115">
        <ele>482.44</ele>
        <time>2019-11-01T13:41:29Z</time>
      </trkpt>
      <trkpt lat="44.87847" lon="5.68116">
        <ele>482.8</ele>
        <time>2019-11-01T13:41:30Z</time>
      </trkpt>
      <trkpt lat="44.87844" lon="5.68117">
        <ele>483.14</ele>
        <time>2019-11-01T13:41:32Z</time>
      </trkpt>
      <trkpt lat="44.87841" lon="5.68118">
        <ele>483.4</ele>
        <time>2019-11-01T13:41:34Z</time>
      </trkpt>
      <trkpt lat="44.87837" lon="5.6812">
        <ele>484.05</ele>
        <time>2019-11-01T13:41:36Z</time>
      </trkpt>
      <trkpt lat="44.87834" lon="5.68122">
        <ele>484.64</ele>
        <time>2019-11-01T13:41:38Z</time>
      </trkpt>
      <trkpt lat="44.87832" lon="5.68122">
        <ele>485.2</ele>
        <time>2019-11-01T13:41:40Z</time>
      </trkpt>
      <trkpt lat="44.87829" lon="5.68124">
        <ele>485.96</ele>
        <time>2019-11-01T13:41:42Z</time>
      </trkpt>
      <trkpt lat="44.87826" lon="5.68124">
        <ele>486.47</ele>
        <time>2019-11-01T13:41:44Z</time>
      </trkpt>
      <trkpt lat="44.87823" lon="5.68124">
        <ele>486.93</ele>
        <time>2019-11-01T13:41:46Z</time>
      </trkpt>
      <trkpt lat="44.8782" lon="5.68123">
        <ele>487.47</ele>
        <time>2019-11-01T13:41:48Z</time>
      </trkpt>
      <trkpt lat="44.87817" lon="5.68124">
        <ele>487.77</ele>
        <time>2019-11-01T13:41:50Z</time>
      </trkpt>
      <trkpt lat="44.87814" lon="5.68126">
        <ele>488.23</ele>
        <time>2019-11-01T13:41:52Z</time>
      </trkpt>
      <trkpt lat="44.87811" lon="5.68127">
        <ele>488.96</ele>
        <time>2019-11-01T13:41:54Z</time>
      </trkpt>
      <trkpt lat="44.87808" lon="5.6813">
        <ele>489.78</ele>
        <time>2019-11-01T13:41:56Z</time>
      </trkpt>
      <trkpt lat="44.87806" lon="5.68131">
        <ele>490.18</ele>
        <time>2019-11-01T13:41:57Z</time>
      </trkpt>
      <trkpt lat="44.87804" lon="5.68133">
        <ele>490.58</ele>
        <time>2019-11-01T13:41:58Z</time>
      </trkpt>
      <trkpt lat="44.87802" lon="5.68134">
        <ele>490.84</ele>
        <time>2019-11-01T13:41:59Z</time>
      </trkpt>
      <trkpt lat="44.878" lon="5.68137">
        <ele>491.22</ele>
        <time>2019-11-01T13:42:01Z</time>
      </trkpt>
      <trkpt lat="44.87797" lon="5.68141">
        <ele>491.93</ele>
        <time>2019-11-01T13:42:03Z</time>
      </trkpt>
      <trkpt lat="44.87795" lon="5.68144">
        <ele>492.18</ele>
        <time>2019-11-01T13:42:05Z</time>
      </trkpt>
      <trkpt lat="44.87791" lon="5.68147">
        <ele>492.89</ele>
        <time>2019-11-01T13:42:07Z</time>
      </trkpt>
      <trkpt lat="44.87788" lon="5.6815">
        <ele>493.41</ele>
        <time>2019-11-01T13:42:09Z</time>
      </trkpt>
      <trkpt lat="44.87786" lon="5.68151">
        <ele>493.72</ele>
        <time>2019-11-01T13:42:10Z</time>
      </trkpt>
      <trkpt lat="44.87784" lon="5.68153">
        <ele>493.95</ele>
        <time>2019-11-01T13:42:11Z</time>
      </trkpt>
      <trkpt lat="44.87781" lon="5.68155">
        <ele>494.16</ele>
        <time>2019-11-01T13:42:12Z</time>
      </trkpt>
      <trkpt lat="44.87778" lon="5.68156">
        <ele>494.15</ele>
        <time>2019-11-01T13:42:13Z</time>
      </trkpt>
      <trkpt lat="44.87776" lon="5.68159">
        <ele>493.94</ele>
        <time>2019-11-01T13:42:14Z</time>
      </trkpt>
      <trkpt lat="44.87774" lon="5.68161">
        <ele>493.95</ele>
        <time>2019-11-01T13:42:15Z</time>
      </trkpt>
      <trkpt lat="44.87772" lon="5.68162">
        <ele>494.09</ele>
        <time>2019-11-01T13:42:16Z</time>
      </trkpt>
      <trkpt lat="44.8777" lon="5.68164">
        <ele>493.99</ele>
        <time>2019-11-01T13:42:17Z</time>
      </trkpt>
      <trkpt lat="44.87768" lon="5.68167">
        <ele>493.51</ele>
        <time>2019-11-01T13:42:19Z</time>
      </trkpt>
      <trkpt lat="44.87766" lon="5.68169">
        <ele>493.33</ele>
        <time>2019-11-01T13:42:20Z</time>
      </trkpt>
      <trkpt lat="44.87764" lon="5.68172">
        <ele>493.27</ele>
        <time>2019-11-01T13:42:21Z</time>
      </trkpt>
      <trkpt lat="44.87762" lon="5.68175">
        <ele>493.4</ele>
        <time>2019-11-01T13:42:22Z</time>
      </trkpt>
      <trkpt lat="44.87761" lon="5.68177">
        <ele>493.57</ele>
        <time>2019-11-01T13:42:23Z</time>
      </trkpt>
      <trkpt lat="44.8776" lon="5.6818">
        <ele>493.49</ele>
        <time>2019-11-01T13:42:24Z</time>
      </trkpt>
      <trkpt lat="44.87758" lon="5.68183">
        <ele>493.18</ele>
        <time>2019-11-01T13:42:25Z</time>
      </trkpt>
      <trkpt lat="44.87757" lon="5.68185">
        <ele>493.51</ele>
        <time>2019-11-01T13:42:26Z</time>
      </trkpt>
      <trkpt lat="44.87755" lon="5.68188">
        <ele>493.61</ele>
        <time>2019-11-01T13:42:27Z</time>
      </trkpt>
      <trkpt lat="44.87754" lon="5.68191">
        <ele>493.64</ele>
        <time>2019-11-01T13:42:28Z</time>
      </trkpt>
      <trkpt lat="44.87752" lon="5.68193">
        <ele>493.72</ele>
        <time>2019-11-01T13:42:29Z</time>
      </trkpt>
      <trkpt lat="44.8775" lon="5.68195">
        <ele>493.67</ele>
        <time>2019-11-01T13:42:30Z</time>
      </trkpt>
      <trkpt lat="44.87748" lon="5.68197">
        <ele>493.79</ele>
        <time>2019-11-01T13:42:31Z</time>
      </trkpt>
      <trkpt lat="44.87746" lon="5.68199">
        <ele>493.9</ele>
        <time>2019-11-01T13:42:32Z</time>
      </trkpt>
      <trkpt lat="44.87744" lon="5.68201">
        <ele>494.01</ele>
        <time>2019-11-01T13:42:33Z</time>
      </trkpt>
      <trkpt lat="44.87742" lon="5.68203">
        <ele>494.04</ele>
        <time>2019-11-01T13:42:34Z</time>
      </trkpt>
      <trkpt lat="44.87741" lon="5.68206">
        <ele>494.12</ele>
        <time>2019-11-01T13:42:35Z</time>
      </trkpt>
      <trkpt lat="44.87739" lon="5.68208">
        <ele>494</ele>
        <time>2019-11-01T13:42:36Z</time>
      </trkpt>
      <trkpt lat="44.87738" lon="5.6821">
        <ele>494.17</ele>
        <time>2019-11-01T13:42:37Z</time>
      </trkpt>
      <trkpt lat="44.87736" lon="5.68212">
        <ele>494.58</ele>
        <time>2019-11-01T13:42:38Z</time>
      </trkpt>
      <trkpt lat="44.87734" lon="5.68213">
        <ele>494.42</ele>
        <time>2019-11-01T13:42:39Z</time>
      </trkpt>
      <trkpt lat="44.87732" lon="5.68215">
        <ele>494.23</ele>
        <time>2019-11-01T13:42:40Z</time>
      </trkpt>
      <trkpt lat="44.87729" lon="5.68217">
        <ele>494.03</ele>
        <time>2019-11-01T13:42:41Z</time>
      </trkpt>
      <trkpt lat="44.87727" lon="5.6822">
        <ele>493.97</ele>
        <time>2019-11-01T13:42:42Z</time>
      </trkpt>
      <trkpt lat="44.87725" lon="5.68222">
        <ele>493.96</ele>
        <time>2019-11-01T13:42:43Z</time>
      </trkpt>
      <trkpt lat="44.87723" lon="5.68224">
        <ele>493.6</ele>
        <time>2019-11-01T13:42:44Z</time>
      </trkpt>
      <trkpt lat="44.87722" lon="5.68226">
        <ele>493.42</ele>
        <time>2019-11-01T13:42:45Z</time>
      </trkpt>
      <trkpt lat="44.8772" lon="5.68228">
        <ele>493.79</ele>
        <time>2019-11-01T13:42:46Z</time>
      </trkpt>
      <trkpt lat="44.87718" lon="5.6823">
        <ele>494.25</ele>
        <time>2019-11-01T13:42:47Z</time>
      </trkpt>
      <trkpt lat="44.87716" lon="5.68232">
        <ele>494.39</ele>
        <time>2019-11-01T13:42:48Z</time>
      </trkpt>
      <trkpt lat="44.87714" lon="5.68234">
        <ele>494.15</ele>
        <time>2019-11-01T13:42:49Z</time>
      </trkpt>
      <trkpt lat="44.87712" lon="5.68236">
        <ele>494.08</ele>
        <time>2019-11-01T13:42:50Z</time>
      </trkpt>
      <trkpt lat="44.87711" lon="5.68238">
        <ele>494.27</ele>
        <time>2019-11-01T13:42:51Z</time>
      </trkpt>
      <trkpt lat="44.87709" lon="5.68239">
        <ele>494.32</ele>
        <time>2019-11-01T13:42:52Z</time>
      </trkpt>
      <trkpt lat="44.87708" lon="5.68241">
        <ele>494.83</ele>
        <time>2019-11-01T13:42:53Z</time>
      </trkpt>
      <trkpt lat="44.87705" lon="5.68244">
        <ele>496.07</ele>
        <time>2019-11-01T13:42:55Z</time>
      </trkpt>
      <trkpt lat="44.87702" lon="5.68246">
        <ele>496.68</ele>
        <time>2019-11-01T13:42:56Z</time>
      </trkpt>
      <trkpt lat="44.877" lon="5.68248">
        <ele>497.57</ele>
        <time>2019-11-01T13:42:57Z</time>
      </trkpt>
      <trkpt lat="44.87699" lon="5.6825">
        <ele>498.12</ele>
        <time>2019-11-01T13:42:58Z</time>
      </trkpt>
      <trkpt lat="44.87696" lon="5.68252">
        <ele>499.04</ele>
        <time>2019-11-01T13:43:00Z</time>
      </trkpt>
      <trkpt lat="44.87695" lon="5.68254">
        <ele>499.54</ele>
        <time>2019-11-01T13:43:01Z</time>
      </trkpt>
      <trkpt lat="44.87692" lon="5.68256">
        <ele>500.18</ele>
        <time>2019-11-01T13:43:02Z</time>
      </trkpt>
      <trkpt lat="44.8769" lon="5.68258">
        <ele>500.86</ele>
        <time>2019-11-01T13:43:03Z</time>
      </trkpt>
      <trkpt lat="44.87687" lon="5.6826">
        <ele>501.34</ele>
        <time>2019-11-01T13:43:04Z</time>
      </trkpt>
      <trkpt lat="44.87684" lon="5.68263">
        <ele>501.77</ele>
        <time>2019-11-01T13:43:05Z</time>
      </trkpt>
      <trkpt lat="44.87681" lon="5.68266">
        <ele>502.31</ele>
        <time>2019-11-01T13:43:06Z</time>
      </trkpt>
      <trkpt lat="44.87677" lon="5.6827">
        <ele>502.41</ele>
        <time>2019-11-01T13:43:07Z</time>
      </trkpt>
      <trkpt lat="44.87674" lon="5.68273">
        <ele>502.23</ele>
        <time>2019-11-01T13:43:08Z</time>
      </trkpt>
      <trkpt lat="44.87669" lon="5.68277">
        <ele>502.17</ele>
        <time>2019-11-01T13:43:09Z</time>
      </trkpt>
      <trkpt lat="44.87664" lon="5.68282">
        <ele>501.6</ele>
        <time>2019-11-01T13:43:10Z</time>
      </trkpt>
      <trkpt lat="44.87659" lon="5.68285">
        <ele>501.28</ele>
        <time>2019-11-01T13:43:11Z</time>
      </trkpt>
      <trkpt lat="44.87654" lon="5.68289">
        <ele>501.19</ele>
        <time>2019-11-01T13:43:12Z</time>
      </trkpt>
      <trkpt lat="44.87647" lon="5.68293">
        <ele>501.16</ele>
        <time>2019-11-01T13:43:13Z</time>
      </trkpt>
      <trkpt lat="44.87642" lon="5.68297">
        <ele>501.01</ele>
        <time>2019-11-01T13:43:14Z</time>
      </trkpt>
      <trkpt lat="44.87637" lon="5.683">
        <ele>500.62</ele>
        <time>2019-11-01T13:43:15Z</time>
      </trkpt>
      <trkpt lat="44.87633" lon="5.68302">
        <ele>500.29</ele>
        <time>2019-11-01T13:43:16Z</time>
      </trkpt>
      <trkpt lat="44.8763" lon="5.68302">
        <ele>499.79</ele>
        <time>2019-11-01T13:43:18Z</time>
      </trkpt>
      <trkpt lat="44.87627" lon="5.68302">
        <ele>498.6</ele>
        <time>2019-11-01T13:43:20Z</time>
      </trkpt>
      <trkpt lat="44.87624" lon="5.68303">
        <ele>497.75</ele>
        <time>2019-11-01T13:43:22Z</time>
      </trkpt>
      <trkpt lat="44.87622" lon="5.68302">
        <ele>497.15</ele>
        <time>2019-11-01T13:43:24Z</time>
      </trkpt>
      <trkpt lat="44.87619" lon="5.68303">
        <ele>496.79</ele>
        <time>2019-11-01T13:43:26Z</time>
      </trkpt>
      <trkpt lat="44.87617" lon="5.68303">
        <ele>496.93</ele>
        <time>2019-11-01T13:43:28Z</time>
      </trkpt>
      <trkpt lat="44.87614" lon="5.68302">
        <ele>496.95</ele>
        <time>2019-11-01T13:43:30Z</time>
      </trkpt>
      <trkpt lat="44.87612" lon="5.68301">
        <ele>496.69</ele>
        <time>2019-11-01T13:43:32Z</time>
      </trkpt>
      <trkpt lat="44.87609" lon="5.68298">
        <ele>496.28</ele>
        <time>2019-11-01T13:43:34Z</time>
      </trkpt>
      <trkpt lat="44.87607" lon="5.68296">
        <ele>496</ele>
        <time>2019-11-01T13:43:36Z</time>
      </trkpt>
      <trkpt lat="44.87605" lon="5.68292">
        <ele>495.54</ele>
        <time>2019-11-01T13:43:38Z</time>
      </trkpt>
      <trkpt lat="44.87603" lon="5.68292">
        <ele>495.69</ele>
        <time>2019-11-01T13:43:40Z</time>
      </trkpt>
      <trkpt lat="44.876" lon="5.6829">
        <ele>495.74</ele>
        <time>2019-11-01T13:43:42Z</time>
      </trkpt>
      <trkpt lat="44.87597" lon="5.68288">
        <ele>496.18</ele>
        <time>2019-11-01T13:43:44Z</time>
      </trkpt>
      <trkpt lat="44.87594" lon="5.68286">
        <ele>496.4</ele>
        <time>2019-11-01T13:43:46Z</time>
      </trkpt>
      <trkpt lat="44.87591" lon="5.68284">
        <ele>496.37</ele>
        <time>2019-11-01T13:43:48Z</time>
      </trkpt>
      <trkpt lat="44.87589" lon="5.68283">
        <ele>496.56</ele>
        <time>2019-11-01T13:43:50Z</time>
      </trkpt>
      <trkpt lat="44.87586" lon="5.68282">
        <ele>497.12</ele>
        <time>2019-11-01T13:43:52Z</time>
      </trkpt>
      <trkpt lat="44.87584" lon="5.68281">
        <ele>497.49</ele>
        <time>2019-11-01T13:43:53Z</time>
      </trkpt>
      <trkpt lat="44.87582" lon="5.6828">
        <ele>497.81</ele>
        <time>2019-11-01T13:43:54Z</time>
      </trkpt>
      <trkpt lat="44.8758" lon="5.6828">
        <ele>498.19</ele>
        <time>2019-11-01T13:43:55Z</time>
      </trkpt>
      <trkpt lat="44.87578" lon="5.68279">
        <ele>498.51</ele>
        <time>2019-11-01T13:43:56Z</time>
      </trkpt>
      <trkpt lat="44.87576" lon="5.68279">
        <ele>499.03</ele>
        <time>2019-11-01T13:43:57Z</time>
      </trkpt>
      <trkpt lat="44.87574" lon="5.68278">
        <ele>499.32</ele>
        <time>2019-11-01T13:43:58Z</time>
      </trkpt>
      <trkpt lat="44.87571" lon="5.68278">
        <ele>499.9</ele>
        <time>2019-11-01T13:43:59Z</time>
      </trkpt>
      <trkpt lat="44.87569" lon="5.68278">
        <ele>500.14</ele>
        <time>2019-11-01T13:44:00Z</time>
      </trkpt>
      <trkpt lat="44.87567" lon="5.68278">
        <ele>500.64</ele>
        <time>2019-11-01T13:44:01Z</time>
      </trkpt>
      <trkpt lat="44.87564" lon="5.68277">
        <ele>501.63</ele>
        <time>2019-11-01T13:44:02Z</time>
      </trkpt>
      <trkpt lat="44.87562" lon="5.68277">
        <ele>502.9</ele>
        <time>2019-11-01T13:44:03Z</time>
      </trkpt>
      <trkpt lat="44.8756" lon="5.68277">
        <ele>503.56</ele>
        <time>2019-11-01T13:44:04Z</time>
      </trkpt>
      <trkpt lat="44.87558" lon="5.68276">
        <ele>503.83</ele>
        <time>2019-11-01T13:44:05Z</time>
      </trkpt>
      <trkpt lat="44.87556" lon="5.68275">
        <ele>503.84</ele>
        <time>2019-11-01T13:44:06Z</time>
      </trkpt>
      <trkpt lat="44.87554" lon="5.68274">
        <ele>504.62</ele>
        <time>2019-11-01T13:44:07Z</time>
      </trkpt>
      <trkpt lat="44.87551" lon="5.68274">
        <ele>505.06</ele>
        <time>2019-11-01T13:44:08Z</time>
      </trkpt>
      <trkpt lat="44.87549" lon="5.68273">
        <ele>505.33</ele>
        <time>2019-11-01T13:44:09Z</time>
      </trkpt>
      <trkpt lat="44.87547" lon="5.68273">
        <ele>505.27</ele>
        <time>2019-11-01T13:44:10Z</time>
      </trkpt>
      <trkpt lat="44.87545" lon="5.68273">
        <ele>505.47</ele>
        <time>2019-11-01T13:44:11Z</time>
      </trkpt>
      <trkpt lat="44.87544" lon="5.68273">
        <ele>505.59</ele>
        <time>2019-11-01T13:44:12Z</time>
      </trkpt>
      <trkpt lat="44.87541" lon="5.68273">
        <ele>505.77</ele>
        <time>2019-11-01T13:44:13Z</time>
      </trkpt>
      <trkpt lat="44.8754" lon="5.68273">
        <ele>506.11</ele>
        <time>2019-11-01T13:44:14Z</time>
      </trkpt>
      <trkpt lat="44.87538" lon="5.68274">
        <ele>506.14</ele>
        <time>2019-11-01T13:44:15Z</time>
      </trkpt>
      <trkpt lat="44.87535" lon="5.68275">
        <ele>506.29</ele>
        <time>2019-11-01T13:44:16Z</time>
      </trkpt>
      <trkpt lat="44.87533" lon="5.68276">
        <ele>506.33</ele>
        <time>2019-11-01T13:44:17Z</time>
      </trkpt>
      <trkpt lat="44.8753" lon="5.68278">
        <ele>506.62</ele>
        <time>2019-11-01T13:44:18Z</time>
      </trkpt>
      <trkpt lat="44.87528" lon="5.68279">
        <ele>506.78</ele>
        <time>2019-11-01T13:44:19Z</time>
      </trkpt>
      <trkpt lat="44.87526" lon="5.6828">
        <ele>506.9</ele>
        <time>2019-11-01T13:44:20Z</time>
      </trkpt>
      <trkpt lat="44.87523" lon="5.68281">
        <ele>506.72</ele>
        <time>2019-11-01T13:44:21Z</time>
      </trkpt>
      <trkpt lat="44.87521" lon="5.68282">
        <ele>506.67</ele>
        <time>2019-11-01T13:44:22Z</time>
      </trkpt>
      <trkpt lat="44.87518" lon="5.68282">
        <ele>506.94</ele>
        <time>2019-11-01T13:44:23Z</time>
      </trkpt>
      <trkpt lat="44.87516" lon="5.68283">
        <ele>507.23</ele>
        <time>2019-11-01T13:44:24Z</time>
      </trkpt>
      <trkpt lat="44.87514" lon="5.68283">
        <ele>507.45</ele>
        <time>2019-11-01T13:44:25Z</time>
      </trkpt>
      <trkpt lat="44.87511" lon="5.68284">
        <ele>507.66</ele>
        <time>2019-11-01T13:44:26Z</time>
      </trkpt>
      <trkpt lat="44.87509" lon="5.68284">
        <ele>508</ele>
        <time>2019-11-01T13:44:27Z</time>
      </trkpt>
      <trkpt lat="44.87507" lon="5.68285">
        <ele>508.31</ele>
        <time>2019-11-01T13:44:28Z</time>
      </trkpt>
      <trkpt lat="44.87505" lon="5.68286">
        <ele>508.76</ele>
        <time>2019-11-01T13:44:29Z</time>
      </trkpt>
      <trkpt lat="44.87502" lon="5.68288">
        <ele>508.96</ele>
        <time>2019-11-01T13:44:30Z</time>
      </trkpt>
      <trkpt lat="44.87499" lon="5.68289">
        <ele>509.37</ele>
        <time>2019-11-01T13:44:31Z</time>
      </trkpt>
      <trkpt lat="44.87496" lon="5.68291">
        <ele>509.64</ele>
        <time>2019-11-01T13:44:32Z</time>
      </trkpt>
      <trkpt lat="44.87494" lon="5.68291">
        <ele>509.72</ele>
        <time>2019-11-01T13:44:33Z</time>
      </trkpt>
      <trkpt lat="44.87491" lon="5.68292">
        <ele>509.81</ele>
        <time>2019-11-01T13:44:34Z</time>
      </trkpt>
      <trkpt lat="44.87488" lon="5.68293">
        <ele>509.98</ele>
        <time>2019-11-01T13:44:35Z</time>
      </trkpt>
      <trkpt lat="44.87485" lon="5.68294">
        <ele>509.96</ele>
        <time>2019-11-01T13:44:36Z</time>
      </trkpt>
      <trkpt lat="44.87482" lon="5.68295">
        <ele>510.02</ele>
        <time>2019-11-01T13:44:37Z</time>
      </trkpt>
      <trkpt lat="44.87479" lon="5.68296">
        <ele>510.18</ele>
        <time>2019-11-01T13:44:38Z</time>
      </trkpt>
      <trkpt lat="44.87476" lon="5.68297">
        <ele>510.09</ele>
        <time>2019-11-01T13:44:39Z</time>
      </trkpt>
      <trkpt lat="44.87474" lon="5.68297">
        <ele>510.06</ele>
        <time>2019-11-01T13:44:40Z</time>
      </trkpt>
      <trkpt lat="44.87472" lon="5.68298">
        <ele>510.05</ele>
        <time>2019-11-01T13:44:41Z</time>
      </trkpt>
      <trkpt lat="44.87469" lon="5.68299">
        <ele>509.84</ele>
        <time>2019-11-01T13:44:42Z</time>
      </trkpt>
      <trkpt lat="44.87466" lon="5.68301">
        <ele>509.92</ele>
        <time>2019-11-01T13:44:43Z</time>
      </trkpt>
      <trkpt lat="44.87464" lon="5.68302">
        <ele>509.94</ele>
        <time>2019-11-01T13:44:44Z</time>
      </trkpt>
      <trkpt lat="44.87461" lon="5.68302">
        <ele>509.88</ele>
        <time>2019-11-01T13:44:45Z</time>
      </trkpt>
      <trkpt lat="44.87459" lon="5.68303">
        <ele>509.93</ele>
        <time>2019-11-01T13:44:46Z</time>
      </trkpt>
      <trkpt lat="44.87456" lon="5.68303">
        <ele>509.94</ele>
        <time>2019-11-01T13:44:47Z</time>
      </trkpt>
      <trkpt lat="44.87454" lon="5.68304">
        <ele>509.6</ele>
        <time>2019-11-01T13:44:48Z</time>
      </trkpt>
      <trkpt lat="44.87452" lon="5.68305">
        <ele>509.28</ele>
        <time>2019-11-01T13:44:49Z</time>
      </trkpt>
      <trkpt lat="44.8745" lon="5.68306">
        <ele>509.12</ele>
        <time>2019-11-01T13:44:50Z</time>
      </trkpt>
      <trkpt lat="44.87448" lon="5.68307">
        <ele>508.93</ele>
        <time>2019-11-01T13:44:51Z</time>
      </trkpt>
      <trkpt lat="44.87446" lon="5.68308">
        <ele>508.73</ele>
        <time>2019-11-01T13:44:52Z</time>
      </trkpt>
      <trkpt lat="44.87443" lon="5.68308">
        <ele>508.6</ele>
        <time>2019-11-01T13:44:53Z</time>
      </trkpt>
      <trkpt lat="44.87441" lon="5.68309">
        <ele>508.71</ele>
        <time>2019-11-01T13:44:54Z</time>
      </trkpt>
      <trkpt lat="44.87439" lon="5.6831">
        <ele>508.88</ele>
        <time>2019-11-01T13:44:55Z</time>
      </trkpt>
      <trkpt lat="44.87437" lon="5.68311">
        <ele>509</ele>
        <time>2019-11-01T13:44:56Z</time>
      </trkpt>
      <trkpt lat="44.87434" lon="5.68311">
        <ele>508.68</ele>
        <time>2019-11-01T13:44:57Z</time>
      </trkpt>
      <trkpt lat="44.87432" lon="5.68312">
        <ele>508.31</ele>
        <time>2019-11-01T13:44:58Z</time>
      </trkpt>
      <trkpt lat="44.8743" lon="5.68314">
        <ele>507.99</ele>
        <time>2019-11-01T13:44:59Z</time>
      </trkpt>
      <trkpt lat="44.87427" lon="5.68314">
        <ele>507.12</ele>
        <time>2019-11-01T13:45:00Z</time>
      </trkpt>
      <trkpt lat="44.87424" lon="5.68315">
        <ele>506.58</ele>
        <time>2019-11-01T13:45:01Z</time>
      </trkpt>
      <trkpt lat="44.87422" lon="5.68316">
        <ele>506.49</ele>
        <time>2019-11-01T13:45:02Z</time>
      </trkpt>
      <trkpt lat="44.8742" lon="5.68317">
        <ele>506.53</ele>
        <time>2019-11-01T13:45:03Z</time>
      </trkpt>
      <trkpt lat="44.87417" lon="5.68318">
        <ele>506.19</ele>
        <time>2019-11-01T13:45:04Z</time>
      </trkpt>
      <trkpt lat="44.87415" lon="5.68318">
        <ele>506.3</ele>
        <time>2019-11-01T13:45:05Z</time>
      </trkpt>
      <trkpt lat="44.87413" lon="5.68319">
        <ele>506.2</ele>
        <time>2019-11-01T13:45:06Z</time>
      </trkpt>
      <trkpt lat="44.87411" lon="5.68319">
        <ele>506.37</ele>
        <time>2019-11-01T13:45:07Z</time>
      </trkpt>
      <trkpt lat="44.87409" lon="5.6832">
        <ele>506.29</ele>
        <time>2019-11-01T13:45:08Z</time>
      </trkpt>
      <trkpt lat="44.87407" lon="5.68321">
        <ele>506.47</ele>
        <time>2019-11-01T13:45:09Z</time>
      </trkpt>
      <trkpt lat="44.87405" lon="5.68321">
        <ele>506.6</ele>
        <time>2019-11-01T13:45:10Z</time>
      </trkpt>
      <trkpt lat="44.87403" lon="5.68323">
        <ele>506.77</ele>
        <time>2019-11-01T13:45:11Z</time>
      </trkpt>
      <trkpt lat="44.874" lon="5.68324">
        <ele>507.39</ele>
        <time>2019-11-01T13:45:12Z</time>
      </trkpt>
      <trkpt lat="44.87398" lon="5.68325">
        <ele>507.71</ele>
        <time>2019-11-01T13:45:13Z</time>
      </trkpt>
      <trkpt lat="44.87396" lon="5.68326">
        <ele>508.16</ele>
        <time>2019-11-01T13:45:14Z</time>
      </trkpt>
      <trkpt lat="44.87394" lon="5.68327">
        <ele>508.64</ele>
        <time>2019-11-01T13:45:15Z</time>
      </trkpt>
      <trkpt lat="44.87392" lon="5.68328">
        <ele>509.14</ele>
        <time>2019-11-01T13:45:16Z</time>
      </trkpt>
      <trkpt lat="44.8739" lon="5.6833">
        <ele>509.29</ele>
        <time>2019-11-01T13:45:17Z</time>
      </trkpt>
      <trkpt lat="44.87387" lon="5.68331">
        <ele>509.68</ele>
        <time>2019-11-01T13:45:18Z</time>
      </trkpt>
      <trkpt lat="44.87385" lon="5.68332">
        <ele>510.01</ele>
        <time>2019-11-01T13:45:19Z</time>
      </trkpt>
      <trkpt lat="44.87382" lon="5.68333">
        <ele>510.39</ele>
        <time>2019-11-01T13:45:20Z</time>
      </trkpt>
      <trkpt lat="44.87379" lon="5.68334">
        <ele>511.06</ele>
        <time>2019-11-01T13:45:21Z</time>
      </trkpt>
      <trkpt lat="44.87377" lon="5.68334">
        <ele>511.47</ele>
        <time>2019-11-01T13:45:22Z</time>
      </trkpt>
      <trkpt lat="44.87374" lon="5.68334">
        <ele>511.74</ele>
        <time>2019-11-01T13:45:23Z</time>
      </trkpt>
      <trkpt lat="44.87372" lon="5.68334">
        <ele>511.75</ele>
        <time>2019-11-01T13:45:24Z</time>
      </trkpt>
      <trkpt lat="44.8737" lon="5.68334">
        <ele>511.54</ele>
        <time>2019-11-01T13:45:25Z</time>
      </trkpt>
      <trkpt lat="44.87368" lon="5.68334">
        <ele>511.76</ele>
        <time>2019-11-01T13:45:26Z</time>
      </trkpt>
      <trkpt lat="44.87365" lon="5.68334">
        <ele>512.31</ele>
        <time>2019-11-01T13:45:27Z</time>
      </trkpt>
      <trkpt lat="44.87363" lon="5.68335">
        <ele>512.69</ele>
        <time>2019-11-01T13:45:28Z</time>
      </trkpt>
      <trkpt lat="44.87361" lon="5.68337">
        <ele>513.22</ele>
        <time>2019-11-01T13:45:29Z</time>
      </trkpt>
      <trkpt lat="44.87358" lon="5.68338">
        <ele>513.45</ele>
        <time>2019-11-01T13:45:30Z</time>
      </trkpt>
      <trkpt lat="44.87357" lon="5.68339">
        <ele>513.52</ele>
        <time>2019-11-01T13:45:31Z</time>
      </trkpt>
      <trkpt lat="44.87355" lon="5.68341">
        <ele>513.61</ele>
        <time>2019-11-01T13:45:32Z</time>
      </trkpt>
      <trkpt lat="44.87353" lon="5.68343">
        <ele>513.64</ele>
        <time>2019-11-01T13:45:33Z</time>
      </trkpt>
      <trkpt lat="44.87351" lon="5.68344">
        <ele>513.72</ele>
        <time>2019-11-01T13:45:34Z</time>
      </trkpt>
      <trkpt lat="44.87349" lon="5.68346">
        <ele>513.88</ele>
        <time>2019-11-01T13:45:35Z</time>
      </trkpt>
      <trkpt lat="44.87347" lon="5.68348">
        <ele>514.49</ele>
        <time>2019-11-01T13:45:36Z</time>
      </trkpt>
      <trkpt lat="44.87345" lon="5.68349">
        <ele>515.09</ele>
        <time>2019-11-01T13:45:37Z</time>
      </trkpt>
      <trkpt lat="44.87342" lon="5.6835">
        <ele>515.71</ele>
        <time>2019-11-01T13:45:39Z</time>
      </trkpt>
      <trkpt lat="44.87339" lon="5.68351">
        <ele>516.64</ele>
        <time>2019-11-01T13:45:41Z</time>
      </trkpt>
      <trkpt lat="44.87338" lon="5.68353">
        <ele>516.93</ele>
        <time>2019-11-01T13:45:42Z</time>
      </trkpt>
      <trkpt lat="44.87336" lon="5.68354">
        <ele>517.22</ele>
        <time>2019-11-01T13:45:43Z</time>
      </trkpt>
      <trkpt lat="44.87334" lon="5.68356">
        <ele>517.45</ele>
        <time>2019-11-01T13:45:44Z</time>
      </trkpt>
      <trkpt lat="44.87333" lon="5.68358">
        <ele>517.59</ele>
        <time>2019-11-01T13:45:45Z</time>
      </trkpt>
      <trkpt lat="44.87331" lon="5.6836">
        <ele>517.7</ele>
        <time>2019-11-01T13:45:46Z</time>
      </trkpt>
      <trkpt lat="44.87329" lon="5.68361">
        <ele>517.8</ele>
        <time>2019-11-01T13:45:47Z</time>
      </trkpt>
      <trkpt lat="44.87327" lon="5.68363">
        <ele>518.12</ele>
        <time>2019-11-01T13:45:48Z</time>
      </trkpt>
      <trkpt lat="44.87325" lon="5.68365">
        <ele>518.21</ele>
        <time>2019-11-01T13:45:49Z</time>
      </trkpt>
      <trkpt lat="44.87324" lon="5.68367">
        <ele>518.45</ele>
        <time>2019-11-01T13:45:50Z</time>
      </trkpt>
      <trkpt lat="44.87323" lon="5.68369">
        <ele>518.8</ele>
        <time>2019-11-01T13:45:51Z</time>
      </trkpt>
      <trkpt lat="44.87321" lon="5.68371">
        <ele>519.25</ele>
        <time>2019-11-01T13:45:52Z</time>
      </trkpt>
      <trkpt lat="44.87319" lon="5.68375">
        <ele>520.01</ele>
        <time>2019-11-01T13:45:54Z</time>
      </trkpt>
      <trkpt lat="44.87317" lon="5.68379">
        <ele>520.82</ele>
        <time>2019-11-01T13:45:56Z</time>
      </trkpt>
      <trkpt lat="44.87315" lon="5.68381">
        <ele>521.19</ele>
        <time>2019-11-01T13:45:57Z</time>
      </trkpt>
      <trkpt lat="44.87313" lon="5.68384">
        <ele>521.75</ele>
        <time>2019-11-01T13:45:59Z</time>
      </trkpt>
      <trkpt lat="44.8731" lon="5.68387">
        <ele>522.39</ele>
        <time>2019-11-01T13:46:01Z</time>
      </trkpt>
      <trkpt lat="44.87309" lon="5.68389">
        <ele>522.64</ele>
        <time>2019-11-01T13:46:02Z</time>
      </trkpt>
      <trkpt lat="44.87307" lon="5.6839">
        <ele>522.81</ele>
        <time>2019-11-01T13:46:04Z</time>
      </trkpt>
      <trkpt lat="44.87304" lon="5.68393">
        <ele>523.06</ele>
        <time>2019-11-01T13:46:06Z</time>
      </trkpt>
      <trkpt lat="44.87302" lon="5.68397">
        <ele>523.83</ele>
        <time>2019-11-01T13:46:08Z</time>
      </trkpt>
      <trkpt lat="44.87299" lon="5.68398">
        <ele>524.35</ele>
        <time>2019-11-01T13:46:10Z</time>
      </trkpt>
      <trkpt lat="44.87296" lon="5.68398">
        <ele>524.76</ele>
        <time>2019-11-01T13:46:12Z</time>
      </trkpt>
      <trkpt lat="44.87293" lon="5.68398">
        <ele>525.32</ele>
        <time>2019-11-01T13:46:14Z</time>
      </trkpt>
      <trkpt lat="44.87291" lon="5.68399">
        <ele>525.51</ele>
        <time>2019-11-01T13:46:16Z</time>
      </trkpt>
      <trkpt lat="44.87286" lon="5.68396">
        <ele>526.2</ele>
        <time>2019-11-01T13:46:22Z</time>
      </trkpt>
      <trkpt lat="44.87283" lon="5.68395">
        <ele>526.43</ele>
        <time>2019-11-01T13:46:24Z</time>
      </trkpt>
      <trkpt lat="44.87282" lon="5.68394">
        <ele>526.7</ele>
        <time>2019-11-01T13:46:26Z</time>
      </trkpt>
      <trkpt lat="44.8728" lon="5.68392">
        <ele>526.94</ele>
        <time>2019-11-01T13:46:27Z</time>
      </trkpt>
      <trkpt lat="44.87277" lon="5.68388">
        <ele>527.2</ele>
        <time>2019-11-01T13:46:29Z</time>
      </trkpt>
      <trkpt lat="44.87276" lon="5.68386">
        <ele>527.37</ele>
        <time>2019-11-01T13:46:30Z</time>
      </trkpt>
      <trkpt lat="44.87275" lon="5.68383">
        <ele>527.93</ele>
        <time>2019-11-01T13:46:32Z</time>
      </trkpt>
      <trkpt lat="44.87274" lon="5.68379">
        <ele>528.61</ele>
        <time>2019-11-01T13:46:34Z</time>
      </trkpt>
      <trkpt lat="44.87274" lon="5.68375">
        <ele>529.22</ele>
        <time>2019-11-01T13:46:36Z</time>
      </trkpt>
      <trkpt lat="44.87273" lon="5.68372">
        <ele>529.82</ele>
        <time>2019-11-01T13:46:38Z</time>
      </trkpt>
      <trkpt lat="44.87271" lon="5.68369">
        <ele>529.85</ele>
        <time>2019-11-01T13:46:40Z</time>
      </trkpt>
      <trkpt lat="44.87269" lon="5.68365">
        <ele>529.85</ele>
        <time>2019-11-01T13:46:42Z</time>
      </trkpt>
      <trkpt lat="44.87267" lon="5.68362">
        <ele>530.26</ele>
        <time>2019-11-01T13:46:44Z</time>
      </trkpt>
      <trkpt lat="44.87265" lon="5.68358">
        <ele>530.71</ele>
        <time>2019-11-01T13:46:46Z</time>
      </trkpt>
      <trkpt lat="44.87264" lon="5.68355">
        <ele>530.91</ele>
        <time>2019-11-01T13:46:48Z</time>
      </trkpt>
      <trkpt lat="44.87263" lon="5.68351">
        <ele>531.2</ele>
        <time>2019-11-01T13:46:50Z</time>
      </trkpt>
      <trkpt lat="44.87261" lon="5.68348">
        <ele>531.06</ele>
        <time>2019-11-01T13:46:52Z</time>
      </trkpt>
      <trkpt lat="44.87261" lon="5.68345">
        <ele>530.98</ele>
        <time>2019-11-01T13:46:54Z</time>
      </trkpt>
      <trkpt lat="44.87259" lon="5.68342">
        <ele>531.2</ele>
        <time>2019-11-01T13:46:56Z</time>
      </trkpt>
      <trkpt lat="44.87258" lon="5.6834">
        <ele>531.29</ele>
        <time>2019-11-01T13:46:58Z</time>
      </trkpt>
      <trkpt lat="44.87256" lon="5.68336">
        <ele>531.41</ele>
        <time>2019-11-01T13:47:00Z</time>
      </trkpt>
      <trkpt lat="44.87255" lon="5.68333">
        <ele>531.86</ele>
        <time>2019-11-01T13:47:02Z</time>
      </trkpt>
      <trkpt lat="44.87253" lon="5.68331">
        <ele>532.44</ele>
        <time>2019-11-01T13:47:04Z</time>
      </trkpt>
      <trkpt lat="44.87252" lon="5.68328">
        <ele>533.23</ele>
        <time>2019-11-01T13:47:06Z</time>
      </trkpt>
      <trkpt lat="44.87249" lon="5.68327">
        <ele>533.36</ele>
        <time>2019-11-01T13:47:08Z</time>
      </trkpt>
      <trkpt lat="44.87246" lon="5.68326">
        <ele>533.44</ele>
        <time>2019-11-01T13:47:10Z</time>
      </trkpt>
      <trkpt lat="44.87244" lon="5.68324">
        <ele>533.77</ele>
        <time>2019-11-01T13:47:12Z</time>
      </trkpt>
      <trkpt lat="44.87242" lon="5.68324">
        <ele>534.16</ele>
        <time>2019-11-01T13:47:14Z</time>
      </trkpt>
      <trkpt lat="44.87239" lon="5.68324">
        <ele>534.63</ele>
        <time>2019-11-01T13:47:16Z</time>
      </trkpt>
      <trkpt lat="44.87237" lon="5.68325">
        <ele>535.13</ele>
        <time>2019-11-01T13:47:18Z</time>
      </trkpt>
      <trkpt lat="44.87235" lon="5.68325">
        <ele>535.99</ele>
        <time>2019-11-01T13:47:20Z</time>
      </trkpt>
      <trkpt lat="44.87233" lon="5.68325">
        <ele>536.69</ele>
        <time>2019-11-01T13:47:22Z</time>
      </trkpt>
      <trkpt lat="44.87231" lon="5.68327">
        <ele>537.32</ele>
        <time>2019-11-01T13:47:24Z</time>
      </trkpt>
      <trkpt lat="44.87229" lon="5.68328">
        <ele>537.99</ele>
        <time>2019-11-01T13:47:26Z</time>
      </trkpt>
      <trkpt lat="44.87227" lon="5.6833">
        <ele>538.78</ele>
        <time>2019-11-01T13:47:28Z</time>
      </trkpt>
      <trkpt lat="44.87226" lon="5.68331">
        <ele>539.51</ele>
        <time>2019-11-01T13:47:30Z</time>
      </trkpt>
      <trkpt lat="44.87224" lon="5.68335">
        <ele>540.51</ele>
        <time>2019-11-01T13:47:33Z</time>
      </trkpt>
      <trkpt lat="44.87222" lon="5.68338">
        <ele>541.28</ele>
        <time>2019-11-01T13:47:35Z</time>
      </trkpt>
      <trkpt lat="44.87221" lon="5.68341">
        <ele>542.08</ele>
        <time>2019-11-01T13:47:37Z</time>
      </trkpt>
      <trkpt lat="44.8722" lon="5.68342">
        <ele>542.65</ele>
        <time>2019-11-01T13:47:39Z</time>
      </trkpt>
      <trkpt lat="44.8722" lon="5.68345">
        <ele>543.87</ele>
        <time>2019-11-01T13:47:41Z</time>
      </trkpt>
      <trkpt lat="44.8722" lon="5.68348">
        <ele>545.65</ele>
        <time>2019-11-01T13:47:44Z</time>
      </trkpt>
      <trkpt lat="44.87218" lon="5.68351">
        <ele>546.62</ele>
        <time>2019-11-01T13:47:46Z</time>
      </trkpt>
      <trkpt lat="44.87216" lon="5.68354">
        <ele>547.84</ele>
        <time>2019-11-01T13:47:48Z</time>
      </trkpt>
      <trkpt lat="44.87214" lon="5.68357">
        <ele>548.74</ele>
        <time>2019-11-01T13:47:50Z</time>
      </trkpt>
      <trkpt lat="44.87212" lon="5.68358">
        <ele>549.74</ele>
        <time>2019-11-01T13:47:52Z</time>
      </trkpt>
      <trkpt lat="44.8721" lon="5.68358">
        <ele>550.3</ele>
        <time>2019-11-01T13:47:53Z</time>
      </trkpt>
      <trkpt lat="44.87209" lon="5.6836">
        <ele>550.9</ele>
        <time>2019-11-01T13:47:54Z</time>
      </trkpt>
      <trkpt lat="44.87206" lon="5.68361">
        <ele>551.28</ele>
        <time>2019-11-01T13:47:55Z</time>
      </trkpt>
      <trkpt lat="44.87203" lon="5.68362">
        <ele>552.1</ele>
        <time>2019-11-01T13:47:57Z</time>
      </trkpt>
      <trkpt lat="44.87201" lon="5.68363">
        <ele>552.41</ele>
        <time>2019-11-01T13:47:58Z</time>
      </trkpt>
      <trkpt lat="44.872" lon="5.68365">
        <ele>552.44</ele>
        <time>2019-11-01T13:47:59Z</time>
      </trkpt>
      <trkpt lat="44.87198" lon="5.68366">
        <ele>552.31</ele>
        <time>2019-11-01T13:48:00Z</time>
      </trkpt>
      <trkpt lat="44.87196" lon="5.68367">
        <ele>552.2</ele>
        <time>2019-11-01T13:48:01Z</time>
      </trkpt>
      <trkpt lat="44.87194" lon="5.68368">
        <ele>552.02</ele>
        <time>2019-11-01T13:48:02Z</time>
      </trkpt>
      <trkpt lat="44.87193" lon="5.6837">
        <ele>552.11</ele>
        <time>2019-11-01T13:48:03Z</time>
      </trkpt>
      <trkpt lat="44.87191" lon="5.68372">
        <ele>551.93</ele>
        <time>2019-11-01T13:48:04Z</time>
      </trkpt>
      <trkpt lat="44.87187" lon="5.68374">
        <ele>551.21</ele>
        <time>2019-11-01T13:48:06Z</time>
      </trkpt>
      <trkpt lat="44.87184" lon="5.68374">
        <ele>550.88</ele>
        <time>2019-11-01T13:48:08Z</time>
      </trkpt>
      <trkpt lat="44.87182" lon="5.68374">
        <ele>550.97</ele>
        <time>2019-11-01T13:48:10Z</time>
      </trkpt>
      <trkpt lat="44.8718" lon="5.68372">
        <ele>551.01</ele>
        <time>2019-11-01T13:48:12Z</time>
      </trkpt>
      <trkpt lat="44.87177" lon="5.68373">
        <ele>550.98</ele>
        <time>2019-11-01T13:48:14Z</time>
      </trkpt>
      <trkpt lat="44.87175" lon="5.68374">
        <ele>551.27</ele>
        <time>2019-11-01T13:48:16Z</time>
      </trkpt>
      <trkpt lat="44.87173" lon="5.68374">
        <ele>551.59</ele>
        <time>2019-11-01T13:48:18Z</time>
      </trkpt>
      <trkpt lat="44.8717" lon="5.68374">
        <ele>551.97</ele>
        <time>2019-11-01T13:48:20Z</time>
      </trkpt>
      <trkpt lat="44.87168" lon="5.68374">
        <ele>552.16</ele>
        <time>2019-11-01T13:48:21Z</time>
      </trkpt>
      <trkpt lat="44.87165" lon="5.68375">
        <ele>552.45</ele>
        <time>2019-11-01T13:48:23Z</time>
      </trkpt>
      <trkpt lat="44.87162" lon="5.68376">
        <ele>552.88</ele>
        <time>2019-11-01T13:48:25Z</time>
      </trkpt>
      <trkpt lat="44.8716" lon="5.68378">
        <ele>553.15</ele>
        <time>2019-11-01T13:48:27Z</time>
      </trkpt>
      <trkpt lat="44.87157" lon="5.6838">
        <ele>553.29</ele>
        <time>2019-11-01T13:48:29Z</time>
      </trkpt>
      <trkpt lat="44.87154" lon="5.68382">
        <ele>553.69</ele>
        <time>2019-11-01T13:48:31Z</time>
      </trkpt>
      <trkpt lat="44.87152" lon="5.68384">
        <ele>554.07</ele>
        <time>2019-11-01T13:48:33Z</time>
      </trkpt>
      <trkpt lat="44.8715" lon="5.68385">
        <ele>554.55</ele>
        <time>2019-11-01T13:48:35Z</time>
      </trkpt>
      <trkpt lat="44.87148" lon="5.68387">
        <ele>554.89</ele>
        <time>2019-11-01T13:48:37Z</time>
      </trkpt>
      <trkpt lat="44.87146" lon="5.6839">
        <ele>555.34</ele>
        <time>2019-11-01T13:48:39Z</time>
      </trkpt>
      <trkpt lat="44.87144" lon="5.68392">
        <ele>555.76</ele>
        <time>2019-11-01T13:48:41Z</time>
      </trkpt>
      <trkpt lat="44.87141" lon="5.68394">
        <ele>556.16</ele>
        <time>2019-11-01T13:48:43Z</time>
      </trkpt>
      <trkpt lat="44.87137" lon="5.68395">
        <ele>556.42</ele>
        <time>2019-11-01T13:48:45Z</time>
      </trkpt>
      <trkpt lat="44.87134" lon="5.68398">
        <ele>556.7</ele>
        <time>2019-11-01T13:48:47Z</time>
      </trkpt>
      <trkpt lat="44.87132" lon="5.684">
        <ele>557.16</ele>
        <time>2019-11-01T13:48:49Z</time>
      </trkpt>
      <trkpt lat="44.8713" lon="5.68404">
        <ele>557.65</ele>
        <time>2019-11-01T13:48:51Z</time>
      </trkpt>
      <trkpt lat="44.87128" lon="5.68407">
        <ele>557.58</ele>
        <time>2019-11-01T13:48:52Z</time>
      </trkpt>
      <trkpt lat="44.87126" lon="5.68408">
        <ele>557.87</ele>
        <time>2019-11-01T13:48:54Z</time>
      </trkpt>
      <trkpt lat="44.87123" lon="5.68411">
        <ele>558.29</ele>
        <time>2019-11-01T13:48:56Z</time>
      </trkpt>
      <trkpt lat="44.87121" lon="5.68413">
        <ele>558.83</ele>
        <time>2019-11-01T13:48:58Z</time>
      </trkpt>
      <trkpt lat="44.87118" lon="5.68416">
        <ele>559.42</ele>
        <time>2019-11-01T13:49:00Z</time>
      </trkpt>
      <trkpt lat="44.87116" lon="5.68418">
        <ele>559.93</ele>
        <time>2019-11-01T13:49:02Z</time>
      </trkpt>
      <trkpt lat="44.87114" lon="5.6842">
        <ele>560.5</ele>
        <time>2019-11-01T13:49:04Z</time>
      </trkpt>
      <trkpt lat="44.87111" lon="5.68423">
        <ele>560.96</ele>
        <time>2019-11-01T13:49:06Z</time>
      </trkpt>
      <trkpt lat="44.87108" lon="5.68425">
        <ele>561.71</ele>
        <time>2019-11-01T13:49:08Z</time>
      </trkpt>
      <trkpt lat="44.87105" lon="5.68425">
        <ele>562.16</ele>
        <time>2019-11-01T13:49:10Z</time>
      </trkpt>
      <trkpt lat="44.87103" lon="5.68427">
        <ele>562.56</ele>
        <time>2019-11-01T13:49:12Z</time>
      </trkpt>
      <trkpt lat="44.87101" lon="5.6843">
        <ele>562.96</ele>
        <time>2019-11-01T13:49:14Z</time>
      </trkpt>
      <trkpt lat="44.87099" lon="5.68431">
        <ele>563.09</ele>
        <time>2019-11-01T13:49:15Z</time>
      </trkpt>
      <trkpt lat="44.87098" lon="5.68433">
        <ele>563.27</ele>
        <time>2019-11-01T13:49:16Z</time>
      </trkpt>
      <trkpt lat="44.87095" lon="5.68435">
        <ele>563.73</ele>
        <time>2019-11-01T13:49:18Z</time>
      </trkpt>
      <trkpt lat="44.87093" lon="5.68438">
        <ele>564.16</ele>
        <time>2019-11-01T13:49:20Z</time>
      </trkpt>
      <trkpt lat="44.87089" lon="5.68442">
        <ele>564.58</ele>
        <time>2019-11-01T13:49:22Z</time>
      </trkpt>
      <trkpt lat="44.87087" lon="5.68443">
        <ele>564.76</ele>
        <time>2019-11-01T13:49:24Z</time>
      </trkpt>
      <trkpt lat="44.87085" lon="5.68446">
        <ele>565.05</ele>
        <time>2019-11-01T13:49:26Z</time>
      </trkpt>
      <trkpt lat="44.87082" lon="5.68449">
        <ele>565.4</ele>
        <time>2019-11-01T13:49:29Z</time>
      </trkpt>
      <trkpt lat="44.87081" lon="5.68451">
        <ele>565.51</ele>
        <time>2019-11-01T13:49:30Z</time>
      </trkpt>
      <trkpt lat="44.87079" lon="5.68454">
        <ele>565.61</ele>
        <time>2019-11-01T13:49:31Z</time>
      </trkpt>
      <trkpt lat="44.87077" lon="5.68455">
        <ele>565.64</ele>
        <time>2019-11-01T13:49:32Z</time>
      </trkpt>
      <trkpt lat="44.87075" lon="5.68457">
        <ele>565.72</ele>
        <time>2019-11-01T13:49:33Z</time>
      </trkpt>
      <trkpt lat="44.87073" lon="5.68458">
        <ele>565.61</ele>
        <time>2019-11-01T13:49:35Z</time>
      </trkpt>
      <trkpt lat="44.87071" lon="5.68459">
        <ele>565.57</ele>
        <time>2019-11-01T13:49:36Z</time>
      </trkpt>
      <trkpt lat="44.87068" lon="5.68461">
        <ele>565.8</ele>
        <time>2019-11-01T13:49:38Z</time>
      </trkpt>
      <trkpt lat="44.87066" lon="5.68463">
        <ele>566.08</ele>
        <time>2019-11-01T13:49:40Z</time>
      </trkpt>
      <trkpt lat="44.87065" lon="5.68466">
        <ele>566.49</ele>
        <time>2019-11-01T13:49:42Z</time>
      </trkpt>
      <trkpt lat="44.87062" lon="5.68469">
        <ele>566.59</ele>
        <time>2019-11-01T13:49:44Z</time>
      </trkpt>
      <trkpt lat="44.8706" lon="5.68473">
        <ele>566.28</ele>
        <time>2019-11-01T13:49:46Z</time>
      </trkpt>
      <trkpt lat="44.87059" lon="5.68476">
        <ele>566.32</ele>
        <time>2019-11-01T13:49:48Z</time>
      </trkpt>
      <trkpt lat="44.87058" lon="5.6848">
        <ele>566.35</ele>
        <time>2019-11-01T13:49:50Z</time>
      </trkpt>
      <trkpt lat="44.87057" lon="5.68484">
        <ele>566.35</ele>
        <time>2019-11-01T13:49:52Z</time>
      </trkpt>
      <trkpt lat="44.87056" lon="5.68487">
        <ele>566.14</ele>
        <time>2019-11-01T13:49:53Z</time>
      </trkpt>
      <trkpt lat="44.87055" lon="5.6849">
        <ele>566.29</ele>
        <time>2019-11-01T13:49:55Z</time>
      </trkpt>
      <trkpt lat="44.87053" lon="5.68495">
        <ele>566.6</ele>
        <time>2019-11-01T13:49:57Z</time>
      </trkpt>
      <trkpt lat="44.87054" lon="5.68499">
        <ele>566.9</ele>
        <time>2019-11-01T13:49:59Z</time>
      </trkpt>
      <trkpt lat="44.87054" lon="5.68502">
        <ele>567.25</ele>
        <time>2019-11-01T13:50:01Z</time>
      </trkpt>
      <trkpt lat="44.87053" lon="5.68506">
        <ele>567.75</ele>
        <time>2019-11-01T13:50:03Z</time>
      </trkpt>
      <trkpt lat="44.87051" lon="5.68512">
        <ele>568.32</ele>
        <time>2019-11-01T13:50:05Z</time>
      </trkpt>
      <trkpt lat="44.8705" lon="5.68514">
        <ele>568.69</ele>
        <time>2019-11-01T13:50:06Z</time>
      </trkpt>
      <trkpt lat="44.8705" lon="5.68517">
        <ele>568.94</ele>
        <time>2019-11-01T13:50:07Z</time>
      </trkpt>
      <trkpt lat="44.87049" lon="5.6852">
        <ele>569.23</ele>
        <time>2019-11-01T13:50:08Z</time>
      </trkpt>
      <trkpt lat="44.87049" lon="5.68523">
        <ele>569.59</ele>
        <time>2019-11-01T13:50:09Z</time>
      </trkpt>
      <trkpt lat="44.87047" lon="5.68528">
        <ele>569.7</ele>
        <time>2019-11-01T13:50:10Z</time>
      </trkpt>
      <trkpt lat="44.87045" lon="5.68532">
        <ele>569.45</ele>
        <time>2019-11-01T13:50:11Z</time>
      </trkpt>
      <trkpt lat="44.87044" lon="5.68535">
        <ele>569.24</ele>
        <time>2019-11-01T13:50:12Z</time>
      </trkpt>
      <trkpt lat="44.87043" lon="5.68538">
        <ele>569.11</ele>
        <time>2019-11-01T13:50:13Z</time>
      </trkpt>
      <trkpt lat="44.87042" lon="5.68542">
        <ele>569.07</ele>
        <time>2019-11-01T13:50:14Z</time>
      </trkpt>
      <trkpt lat="44.87041" lon="5.68545">
        <ele>569.12</ele>
        <time>2019-11-01T13:50:15Z</time>
      </trkpt>
      <trkpt lat="44.8704" lon="5.68547">
        <ele>569.35</ele>
        <time>2019-11-01T13:50:16Z</time>
      </trkpt>
      <trkpt lat="44.87039" lon="5.6855">
        <ele>569.56</ele>
        <time>2019-11-01T13:50:17Z</time>
      </trkpt>
      <trkpt lat="44.87038" lon="5.68552">
        <ele>569.34</ele>
        <time>2019-11-01T13:50:18Z</time>
      </trkpt>
      <trkpt lat="44.87036" lon="5.68555">
        <ele>569.14</ele>
        <time>2019-11-01T13:50:19Z</time>
      </trkpt>
      <trkpt lat="44.87035" lon="5.68558">
        <ele>568.87</ele>
        <time>2019-11-01T13:50:20Z</time>
      </trkpt>
      <trkpt lat="44.87034" lon="5.68561">
        <ele>568.71</ele>
        <time>2019-11-01T13:50:21Z</time>
      </trkpt>
      <trkpt lat="44.87033" lon="5.68563">
        <ele>568.81</ele>
        <time>2019-11-01T13:50:22Z</time>
      </trkpt>
      <trkpt lat="44.87032" lon="5.68567">
        <ele>568.82</ele>
        <time>2019-11-01T13:50:24Z</time>
      </trkpt>
      <trkpt lat="44.87029" lon="5.68571">
        <ele>569.28</ele>
        <time>2019-11-01T13:50:26Z</time>
      </trkpt>
      <trkpt lat="44.87027" lon="5.68574">
        <ele>569.26</ele>
        <time>2019-11-01T13:50:27Z</time>
      </trkpt>
      <trkpt lat="44.87026" lon="5.68576">
        <ele>569.25</ele>
        <time>2019-11-01T13:50:28Z</time>
      </trkpt>
      <trkpt lat="44.87025" lon="5.68578">
        <ele>569.32</ele>
        <time>2019-11-01T13:50:29Z</time>
      </trkpt>
      <trkpt lat="44.87024" lon="5.68581">
        <ele>569.34</ele>
        <time>2019-11-01T13:50:30Z</time>
      </trkpt>
      <trkpt lat="44.87022" lon="5.68583">
        <ele>569.42</ele>
        <time>2019-11-01T13:50:31Z</time>
      </trkpt>
      <trkpt lat="44.87021" lon="5.68586">
        <ele>569.58</ele>
        <time>2019-11-01T13:50:32Z</time>
      </trkpt>
      <trkpt lat="44.8702" lon="5.68588">
        <ele>569.98</ele>
        <time>2019-11-01T13:50:33Z</time>
      </trkpt>
      <trkpt lat="44.87018" lon="5.68591">
        <ele>570.45</ele>
        <time>2019-11-01T13:50:34Z</time>
      </trkpt>
      <trkpt lat="44.87016" lon="5.68593">
        <ele>570.8</ele>
        <time>2019-11-01T13:50:35Z</time>
      </trkpt>
      <trkpt lat="44.87013" lon="5.68597">
        <ele>571.38</ele>
        <time>2019-11-01T13:50:37Z</time>
      </trkpt>
      <trkpt lat="44.87011" lon="5.686">
        <ele>571.85</ele>
        <time>2019-11-01T13:50:38Z</time>
      </trkpt>
      <trkpt lat="44.8701" lon="5.68602">
        <ele>572.55</ele>
        <time>2019-11-01T13:50:39Z</time>
      </trkpt>
      <trkpt lat="44.87008" lon="5.68604">
        <ele>573.32</ele>
        <time>2019-11-01T13:50:40Z</time>
      </trkpt>
      <trkpt lat="44.87006" lon="5.68606">
        <ele>574.04</ele>
        <time>2019-11-01T13:50:41Z</time>
      </trkpt>
      <trkpt lat="44.87005" lon="5.68607">
        <ele>574.68</ele>
        <time>2019-11-01T13:50:42Z</time>
      </trkpt>
      <trkpt lat="44.87004" lon="5.6861">
        <ele>575.29</ele>
        <time>2019-11-01T13:50:43Z</time>
      </trkpt>
      <trkpt lat="44.87002" lon="5.68613">
        <ele>575.89</ele>
        <time>2019-11-01T13:50:44Z</time>
      </trkpt>
      <trkpt lat="44.87" lon="5.68615">
        <ele>576.88</ele>
        <time>2019-11-01T13:50:46Z</time>
      </trkpt>
      <trkpt lat="44.86997" lon="5.68616">
        <ele>578.02</ele>
        <time>2019-11-01T13:50:48Z</time>
      </trkpt>
      <trkpt lat="44.86994" lon="5.68619">
        <ele>579.31</ele>
        <time>2019-11-01T13:50:50Z</time>
      </trkpt>
      <trkpt lat="44.86992" lon="5.68621">
        <ele>580.24</ele>
        <time>2019-11-01T13:50:52Z</time>
      </trkpt>
      <trkpt lat="44.8699" lon="5.68623">
        <ele>580.6</ele>
        <time>2019-11-01T13:50:53Z</time>
      </trkpt>
      <trkpt lat="44.86989" lon="5.68626">
        <ele>581.33</ele>
        <time>2019-11-01T13:50:55Z</time>
      </trkpt>
      <trkpt lat="44.86987" lon="5.68628">
        <ele>582.04</ele>
        <time>2019-11-01T13:50:57Z</time>
      </trkpt>
      <trkpt lat="44.86983" lon="5.68628">
        <ele>583.24</ele>
        <time>2019-11-01T13:51:00Z</time>
      </trkpt>
      <trkpt lat="44.8698" lon="5.6863">
        <ele>583.93</ele>
        <time>2019-11-01T13:51:02Z</time>
      </trkpt>
      <trkpt lat="44.86978" lon="5.68631">
        <ele>584.01</ele>
        <time>2019-11-01T13:51:03Z</time>
      </trkpt>
      <trkpt lat="44.86977" lon="5.68632">
        <ele>584.32</ele>
        <time>2019-11-01T13:51:04Z</time>
      </trkpt>
      <trkpt lat="44.86975" lon="5.68633">
        <ele>584.55</ele>
        <time>2019-11-01T13:51:05Z</time>
      </trkpt>
      <trkpt lat="44.86973" lon="5.68634">
        <ele>584.83</ele>
        <time>2019-11-01T13:51:06Z</time>
      </trkpt>
      <trkpt lat="44.8697" lon="5.68635">
        <ele>585.03</ele>
        <time>2019-11-01T13:51:08Z</time>
      </trkpt>
      <trkpt lat="44.86967" lon="5.68638">
        <ele>585.21</ele>
        <time>2019-11-01T13:51:10Z</time>
      </trkpt>
      <trkpt lat="44.86964" lon="5.68639">
        <ele>585.75</ele>
        <time>2019-11-01T13:51:12Z</time>
      </trkpt>
      <trkpt lat="44.8696" lon="5.6864">
        <ele>586</ele>
        <time>2019-11-01T13:51:14Z</time>
      </trkpt>
      <trkpt lat="44.86958" lon="5.6864">
        <ele>585.89</ele>
        <time>2019-11-01T13:51:15Z</time>
      </trkpt>
      <trkpt lat="44.86955" lon="5.68642">
        <ele>586.15</ele>
        <time>2019-11-01T13:51:17Z</time>
      </trkpt>
      <trkpt lat="44.86953" lon="5.68644">
        <ele>586.65</ele>
        <time>2019-11-01T13:51:19Z</time>
      </trkpt>
      <trkpt lat="44.86951" lon="5.68645">
        <ele>586.79</ele>
        <time>2019-11-01T13:51:20Z</time>
      </trkpt>
      <trkpt lat="44.86948" lon="5.68647">
        <ele>587.49</ele>
        <time>2019-11-01T13:51:22Z</time>
      </trkpt>
      <trkpt lat="44.86945" lon="5.68649">
        <ele>588.12</ele>
        <time>2019-11-01T13:51:24Z</time>
      </trkpt>
      <trkpt lat="44.86942" lon="5.6865">
        <ele>588.63</ele>
        <time>2019-11-01T13:51:26Z</time>
      </trkpt>
      <trkpt lat="44.8694" lon="5.6865">
        <ele>589.24</ele>
        <time>2019-11-01T13:51:28Z</time>
      </trkpt>
      <trkpt lat="44.86937" lon="5.68652">
        <ele>589.82</ele>
        <time>2019-11-01T13:51:30Z</time>
      </trkpt>
      <trkpt lat="44.86934" lon="5.68654">
        <ele>590.51</ele>
        <time>2019-11-01T13:51:32Z</time>
      </trkpt>
      <trkpt lat="44.86932" lon="5.68657">
        <ele>590.64</ele>
        <time>2019-11-01T13:51:34Z</time>
      </trkpt>
      <trkpt lat="44.86931" lon="5.6866">
        <ele>590.79</ele>
        <time>2019-11-01T13:51:35Z</time>
      </trkpt>
      <trkpt lat="44.86929" lon="5.68662">
        <ele>590.97</ele>
        <time>2019-11-01T13:51:36Z</time>
      </trkpt>
      <trkpt lat="44.86927" lon="5.68665">
        <ele>590.76</ele>
        <time>2019-11-01T13:51:38Z</time>
      </trkpt>
      <trkpt lat="44.86926" lon="5.68669">
        <ele>590.41</ele>
        <time>2019-11-01T13:51:40Z</time>
      </trkpt>
      <trkpt lat="44.86925" lon="5.68672">
        <ele>590.23</ele>
        <time>2019-11-01T13:51:41Z</time>
      </trkpt>
      <trkpt lat="44.86924" lon="5.68674">
        <ele>590.24</ele>
        <time>2019-11-01T13:51:42Z</time>
      </trkpt>
      <trkpt lat="44.86924" lon="5.68677">
        <ele>590.25</ele>
        <time>2019-11-01T13:51:43Z</time>
      </trkpt>
      <trkpt lat="44.86923" lon="5.6868">
        <ele>590.25</ele>
        <time>2019-11-01T13:51:44Z</time>
      </trkpt>
      <trkpt lat="44.86922" lon="5.68685">
        <ele>590.87</ele>
        <time>2019-11-01T13:51:46Z</time>
      </trkpt>
      <trkpt lat="44.86922" lon="5.68688">
        <ele>591.21</ele>
        <time>2019-11-01T13:51:47Z</time>
      </trkpt>
      <trkpt lat="44.86921" lon="5.6869">
        <ele>591.59</ele>
        <time>2019-11-01T13:51:48Z</time>
      </trkpt>
      <trkpt lat="44.86921" lon="5.68693">
        <ele>591.84</ele>
        <time>2019-11-01T13:51:49Z</time>
      </trkpt>
      <trkpt lat="44.86921" lon="5.68696">
        <ele>591.99</ele>
        <time>2019-11-01T13:51:50Z</time>
      </trkpt>
      <trkpt lat="44.8692" lon="5.68701">
        <ele>592.34</ele>
        <time>2019-11-01T13:51:52Z</time>
      </trkpt>
      <trkpt lat="44.8692" lon="5.68704">
        <ele>592.49</ele>
        <time>2019-11-01T13:51:53Z</time>
      </trkpt>
      <trkpt lat="44.86919" lon="5.68707">
        <ele>593.02</ele>
        <time>2019-11-01T13:51:54Z</time>
      </trkpt>
      <trkpt lat="44.86918" lon="5.68709">
        <ele>593.32</ele>
        <time>2019-11-01T13:51:55Z</time>
      </trkpt>
      <trkpt lat="44.86918" lon="5.68712">
        <ele>593.76</ele>
        <time>2019-11-01T13:51:56Z</time>
      </trkpt>
      <trkpt lat="44.86918" lon="5.68715">
        <ele>594.24</ele>
        <time>2019-11-01T13:51:57Z</time>
      </trkpt>
      <trkpt lat="44.86917" lon="5.68718">
        <ele>594.67</ele>
        <time>2019-11-01T13:51:58Z</time>
      </trkpt>
      <trkpt lat="44.86915" lon="5.68723">
        <ele>595.08</ele>
        <time>2019-11-01T13:52:00Z</time>
      </trkpt>
      <trkpt lat="44.86914" lon="5.68727">
        <ele>595.72</ele>
        <time>2019-11-01T13:52:02Z</time>
      </trkpt>
      <trkpt lat="44.86913" lon="5.6873">
        <ele>595.32</ele>
        <time>2019-11-01T13:52:03Z</time>
      </trkpt>
      <trkpt lat="44.86912" lon="5.68732">
        <ele>595.2</ele>
        <time>2019-11-01T13:52:04Z</time>
      </trkpt>
      <trkpt lat="44.8691" lon="5.68735">
        <ele>594.95</ele>
        <time>2019-11-01T13:52:05Z</time>
      </trkpt>
      <trkpt lat="44.8691" lon="5.68738">
        <ele>594.81</ele>
        <time>2019-11-01T13:52:06Z</time>
      </trkpt>
      <trkpt lat="44.86909" lon="5.68742">
        <ele>594.92</ele>
        <time>2019-11-01T13:52:08Z</time>
      </trkpt>
      <trkpt lat="44.86908" lon="5.68744">
        <ele>595.08</ele>
        <time>2019-11-01T13:52:09Z</time>
      </trkpt>
      <trkpt lat="44.86906" lon="5.68745">
        <ele>595.34</ele>
        <time>2019-11-01T13:52:10Z</time>
      </trkpt>
      <trkpt lat="44.86905" lon="5.68748">
        <ele>595.56</ele>
        <time>2019-11-01T13:52:11Z</time>
      </trkpt>
      <trkpt lat="44.86903" lon="5.68751">
        <ele>595.62</ele>
        <time>2019-11-01T13:52:12Z</time>
      </trkpt>
      <trkpt lat="44.86902" lon="5.68754">
        <ele>595.81</ele>
        <time>2019-11-01T13:52:14Z</time>
      </trkpt>
      <trkpt lat="44.869" lon="5.68756">
        <ele>595.7</ele>
        <time>2019-11-01T13:52:15Z</time>
      </trkpt>
      <trkpt lat="44.86899" lon="5.68759">
        <ele>595.54</ele>
        <time>2019-11-01T13:52:17Z</time>
      </trkpt>
      <trkpt lat="44.86896" lon="5.68762">
        <ele>595.7</ele>
        <time>2019-11-01T13:52:19Z</time>
      </trkpt>
      <trkpt lat="44.86894" lon="5.68765">
        <ele>595.81</ele>
        <time>2019-11-01T13:52:21Z</time>
      </trkpt>
      <trkpt lat="44.86893" lon="5.68767">
        <ele>596.12</ele>
        <time>2019-11-01T13:52:22Z</time>
      </trkpt>
      <trkpt lat="44.86891" lon="5.68769">
        <ele>596.35</ele>
        <time>2019-11-01T13:52:23Z</time>
      </trkpt>
      <trkpt lat="44.86888" lon="5.68773">
        <ele>596.6</ele>
        <time>2019-11-01T13:52:25Z</time>
      </trkpt>
      <trkpt lat="44.86887" lon="5.68775">
        <ele>596.7</ele>
        <time>2019-11-01T13:52:26Z</time>
      </trkpt>
      <trkpt lat="44.86885" lon="5.68778">
        <ele>596.53</ele>
        <time>2019-11-01T13:52:27Z</time>
      </trkpt>
      <trkpt lat="44.86884" lon="5.6878">
        <ele>596.4</ele>
        <time>2019-11-01T13:52:28Z</time>
      </trkpt>
      <trkpt lat="44.86882" lon="5.68782">
        <ele>596.57</ele>
        <time>2019-11-01T13:52:29Z</time>
      </trkpt>
      <trkpt lat="44.8688" lon="5.68784">
        <ele>596.91</ele>
        <time>2019-11-01T13:52:30Z</time>
      </trkpt>
      <trkpt lat="44.86878" lon="5.68785">
        <ele>597.43</ele>
        <time>2019-11-01T13:52:31Z</time>
      </trkpt>
      <trkpt lat="44.86876" lon="5.68788">
        <ele>598</ele>
        <time>2019-11-01T13:52:32Z</time>
      </trkpt>
      <trkpt lat="44.86874" lon="5.6879">
        <ele>598.82</ele>
        <time>2019-11-01T13:52:34Z</time>
      </trkpt>
      <trkpt lat="44.86871" lon="5.68791">
        <ele>599.44</ele>
        <time>2019-11-01T13:52:36Z</time>
      </trkpt>
      <trkpt lat="44.86869" lon="5.68794">
        <ele>599.87</ele>
        <time>2019-11-01T13:52:37Z</time>
      </trkpt>
      <trkpt lat="44.86866" lon="5.68795">
        <ele>600.06</ele>
        <time>2019-11-01T13:52:38Z</time>
      </trkpt>
      <trkpt lat="44.86864" lon="5.68797">
        <ele>600.4</ele>
        <time>2019-11-01T13:52:39Z</time>
      </trkpt>
      <trkpt lat="44.86862" lon="5.68799">
        <ele>600.09</ele>
        <time>2019-11-01T13:52:40Z</time>
      </trkpt>
      <trkpt lat="44.8686" lon="5.68801">
        <ele>600.06</ele>
        <time>2019-11-01T13:52:41Z</time>
      </trkpt>
      <trkpt lat="44.86858" lon="5.68802">
        <ele>600.33</ele>
        <time>2019-11-01T13:52:42Z</time>
      </trkpt>
      <trkpt lat="44.86855" lon="5.68801">
        <ele>600.29</ele>
        <time>2019-11-01T13:53:15Z</time>
      </trkpt>
      <trkpt lat="44.86851" lon="5.688">
        <ele>600.27</ele>
        <time>2019-11-01T13:53:17Z</time>
      </trkpt>
      <trkpt lat="44.8685" lon="5.68798">
        <ele>600.26</ele>
        <time>2019-11-01T13:53:18Z</time>
      </trkpt>
      <trkpt lat="44.86848" lon="5.68796">
        <ele>600.18</ele>
        <time>2019-11-01T13:53:19Z</time>
      </trkpt>
      <trkpt lat="44.86847" lon="5.68794">
        <ele>600.09</ele>
        <time>2019-11-01T13:53:20Z</time>
      </trkpt>
      <trkpt lat="44.86845" lon="5.68792">
        <ele>600.06</ele>
        <time>2019-11-01T13:53:21Z</time>
      </trkpt>
      <trkpt lat="44.86844" lon="5.6879">
        <ele>599.98</ele>
        <time>2019-11-01T13:53:22Z</time>
      </trkpt>
      <trkpt lat="44.86842" lon="5.68787">
        <ele>600.03</ele>
        <time>2019-11-01T13:53:23Z</time>
      </trkpt>
      <trkpt lat="44.86841" lon="5.68785">
        <ele>599.83</ele>
        <time>2019-11-01T13:53:24Z</time>
      </trkpt>
      <trkpt lat="44.86839" lon="5.68784">
        <ele>599.56</ele>
        <time>2019-11-01T13:53:25Z</time>
      </trkpt>
      <trkpt lat="44.86838" lon="5.68782">
        <ele>599.48</ele>
        <time>2019-11-01T13:53:26Z</time>
      </trkpt>
      <trkpt lat="44.86834" lon="5.68781">
        <ele>599.61</ele>
        <time>2019-11-01T13:53:28Z</time>
      </trkpt>
      <trkpt lat="44.86832" lon="5.6878">
        <ele>599.5</ele>
        <time>2019-11-01T13:53:29Z</time>
      </trkpt>
      <trkpt lat="44.86829" lon="5.6878">
        <ele>599.46</ele>
        <time>2019-11-01T13:53:30Z</time>
      </trkpt>
      <trkpt lat="44.86827" lon="5.68781">
        <ele>599.66</ele>
        <time>2019-11-01T13:53:31Z</time>
      </trkpt>
      <trkpt lat="44.86824" lon="5.68782">
        <ele>599.51</ele>
        <time>2019-11-01T13:53:32Z</time>
      </trkpt>
      <trkpt lat="44.86822" lon="5.68782">
        <ele>599.26</ele>
        <time>2019-11-01T13:53:33Z</time>
      </trkpt>
      <trkpt lat="44.86819" lon="5.68783">
        <ele>599.04</ele>
        <time>2019-11-01T13:53:34Z</time>
      </trkpt>
      <trkpt lat="44.86817" lon="5.68784">
        <ele>598.98</ele>
        <time>2019-11-01T13:53:35Z</time>
      </trkpt>
      <trkpt lat="44.86814" lon="5.68785">
        <ele>598.89</ele>
        <time>2019-11-01T13:53:36Z</time>
      </trkpt>
      <trkpt lat="44.86811" lon="5.68787">
        <ele>598.93</ele>
        <time>2019-11-01T13:53:37Z</time>
      </trkpt>
      <trkpt lat="44.86809" lon="5.68788">
        <ele>598.8</ele>
        <time>2019-11-01T13:53:38Z</time>
      </trkpt>
      <trkpt lat="44.86806" lon="5.6879">
        <ele>598.7</ele>
        <time>2019-11-01T13:53:39Z</time>
      </trkpt>
      <trkpt lat="44.86803" lon="5.68791">
        <ele>598.66</ele>
        <time>2019-11-01T13:53:40Z</time>
      </trkpt>
      <trkpt lat="44.868" lon="5.68794">
        <ele>598.79</ele>
        <time>2019-11-01T13:53:41Z</time>
      </trkpt>
      <trkpt lat="44.86797" lon="5.68795">
        <ele>598.97</ele>
        <time>2019-11-01T13:53:42Z</time>
      </trkpt>
      <trkpt lat="44.86794" lon="5.68797">
        <ele>599.03</ele>
        <time>2019-11-01T13:53:43Z</time>
      </trkpt>
      <trkpt lat="44.86791" lon="5.68799">
        <ele>598.27</ele>
        <time>2019-11-01T13:53:44Z</time>
      </trkpt>
      <trkpt lat="44.86788" lon="5.68801">
        <ele>597.7</ele>
        <time>2019-11-01T13:53:45Z</time>
      </trkpt>
      <trkpt lat="44.86785" lon="5.68804">
        <ele>597.24</ele>
        <time>2019-11-01T13:53:46Z</time>
      </trkpt>
      <trkpt lat="44.86782" lon="5.68805">
        <ele>596.13</ele>
        <time>2019-11-01T13:53:47Z</time>
      </trkpt>
      <trkpt lat="44.86779" lon="5.68807">
        <ele>594.88</ele>
        <time>2019-11-01T13:53:48Z</time>
      </trkpt>
      <trkpt lat="44.86776" lon="5.68809">
        <ele>593.6</ele>
        <time>2019-11-01T13:53:49Z</time>
      </trkpt>
      <trkpt lat="44.86773" lon="5.6881">
        <ele>592.72</ele>
        <time>2019-11-01T13:53:50Z</time>
      </trkpt>
      <trkpt lat="44.8677" lon="5.6881">
        <ele>592.18</ele>
        <time>2019-11-01T13:53:51Z</time>
      </trkpt>
      <trkpt lat="44.86767" lon="5.68812">
        <ele>591.74</ele>
        <time>2019-11-01T13:53:52Z</time>
      </trkpt>
      <trkpt lat="44.86764" lon="5.68814">
        <ele>591.4</ele>
        <time>2019-11-01T13:53:53Z</time>
      </trkpt>
      <trkpt lat="44.8676" lon="5.68815">
        <ele>591.22</ele>
        <time>2019-11-01T13:53:54Z</time>
      </trkpt>
      <trkpt lat="44.86757" lon="5.68817">
        <ele>591.24</ele>
        <time>2019-11-01T13:53:55Z</time>
      </trkpt>
      <trkpt lat="44.86755" lon="5.68819">
        <ele>590.83</ele>
        <time>2019-11-01T13:53:56Z</time>
      </trkpt>
      <trkpt lat="44.86752" lon="5.68821">
        <ele>590.77</ele>
        <time>2019-11-01T13:53:57Z</time>
      </trkpt>
      <trkpt lat="44.86749" lon="5.68823">
        <ele>591.11</ele>
        <time>2019-11-01T13:53:58Z</time>
      </trkpt>
      <trkpt lat="44.86747" lon="5.68826">
        <ele>591.49</ele>
        <time>2019-11-01T13:53:59Z</time>
      </trkpt>
      <trkpt lat="44.86744" lon="5.68827">
        <ele>591.74</ele>
        <time>2019-11-01T13:54:00Z</time>
      </trkpt>
      <trkpt lat="44.8674" lon="5.6883">
        <ele>591.82</ele>
        <time>2019-11-01T13:54:01Z</time>
      </trkpt>
      <trkpt lat="44.86737" lon="5.68832">
        <ele>591.98</ele>
        <time>2019-11-01T13:54:02Z</time>
      </trkpt>
      <trkpt lat="44.86734" lon="5.68835">
        <ele>591.89</ele>
        <time>2019-11-01T13:54:03Z</time>
      </trkpt>
      <trkpt lat="44.86731" lon="5.68836">
        <ele>592.07</ele>
        <time>2019-11-01T13:54:04Z</time>
      </trkpt>
      <trkpt lat="44.86728" lon="5.68838">
        <ele>591.36</ele>
        <time>2019-11-01T13:54:05Z</time>
      </trkpt>
      <trkpt lat="44.86726" lon="5.6884">
        <ele>590.93</ele>
        <time>2019-11-01T13:54:06Z</time>
      </trkpt>
      <trkpt lat="44.86724" lon="5.68842">
        <ele>590.73</ele>
        <time>2019-11-01T13:54:07Z</time>
      </trkpt>
      <trkpt lat="44.86722" lon="5.68844">
        <ele>590.81</ele>
        <time>2019-11-01T13:54:08Z</time>
      </trkpt>
      <trkpt lat="44.8672" lon="5.68846">
        <ele>590.84</ele>
        <time>2019-11-01T13:54:09Z</time>
      </trkpt>
      <trkpt lat="44.86718" lon="5.68849">
        <ele>590.85</ele>
        <time>2019-11-01T13:54:10Z</time>
      </trkpt>
      <trkpt lat="44.86715" lon="5.68852">
        <ele>590.92</ele>
        <time>2019-11-01T13:54:11Z</time>
      </trkpt>
      <trkpt lat="44.86713" lon="5.68857">
        <ele>590.87</ele>
        <time>2019-11-01T13:54:12Z</time>
      </trkpt>
      <trkpt lat="44.8671" lon="5.68862">
        <ele>590.72</ele>
        <time>2019-11-01T13:54:13Z</time>
      </trkpt>
      <trkpt lat="44.86707" lon="5.68866">
        <ele>590.6</ele>
        <time>2019-11-01T13:54:14Z</time>
      </trkpt>
      <trkpt lat="44.86704" lon="5.68871">
        <ele>590.49</ele>
        <time>2019-11-01T13:54:15Z</time>
      </trkpt>
      <trkpt lat="44.867" lon="5.68877">
        <ele>590.46</ele>
        <time>2019-11-01T13:54:16Z</time>
      </trkpt>
      <trkpt lat="44.86697" lon="5.68883">
        <ele>590.38</ele>
        <time>2019-11-01T13:54:17Z</time>
      </trkpt>
      <trkpt lat="44.86693" lon="5.68889">
        <ele>590.36</ele>
        <time>2019-11-01T13:54:18Z</time>
      </trkpt>
      <trkpt lat="44.86689" lon="5.68894">
        <ele>590.28</ele>
        <time>2019-11-01T13:54:19Z</time>
      </trkpt>
      <trkpt lat="44.86685" lon="5.689">
        <ele>590.19</ele>
        <time>2019-11-01T13:54:20Z</time>
      </trkpt>
      <trkpt lat="44.8668" lon="5.68906">
        <ele>590.09</ele>
        <time>2019-11-01T13:54:21Z</time>
      </trkpt>
      <trkpt lat="44.86675" lon="5.68913">
        <ele>589.99</ele>
        <time>2019-11-01T13:54:22Z</time>
      </trkpt>
      <trkpt lat="44.86669" lon="5.68919">
        <ele>589.89</ele>
        <time>2019-11-01T13:54:23Z</time>
      </trkpt>
      <trkpt lat="44.86662" lon="5.68926">
        <ele>589.86</ele>
        <time>2019-11-01T13:54:24Z</time>
      </trkpt>
      <trkpt lat="44.86656" lon="5.68934">
        <ele>590.06</ele>
        <time>2019-11-01T13:54:25Z</time>
      </trkpt>
      <trkpt lat="44.86652" lon="5.6894">
        <ele>590.19</ele>
        <time>2019-11-01T13:54:26Z</time>
      </trkpt>
      <trkpt lat="44.86645" lon="5.68947">
        <ele>590.51</ele>
        <time>2019-11-01T13:54:27Z</time>
      </trkpt>
      <trkpt lat="44.86641" lon="5.68953">
        <ele>590.61</ele>
        <time>2019-11-01T13:54:28Z</time>
      </trkpt>
      <trkpt lat="44.86638" lon="5.68958">
        <ele>590.57</ele>
        <time>2019-11-01T13:54:29Z</time>
      </trkpt>
      <trkpt lat="44.86635" lon="5.68963">
        <ele>590.41</ele>
        <time>2019-11-01T13:54:30Z</time>
      </trkpt>
      <trkpt lat="44.86633" lon="5.68968">
        <ele>590.02</ele>
        <time>2019-11-01T13:54:31Z</time>
      </trkpt>
      <trkpt lat="44.86634" lon="5.68972">
        <ele>589.34</ele>
        <time>2019-11-01T13:54:32Z</time>
      </trkpt>
      <trkpt lat="44.86634" lon="5.68977">
        <ele>589</ele>
        <time>2019-11-01T13:54:33Z</time>
      </trkpt>
      <trkpt lat="44.86635" lon="5.68981">
        <ele>588.82</ele>
        <time>2019-11-01T13:54:34Z</time>
      </trkpt>
      <trkpt lat="44.86635" lon="5.68983">
        <ele>588.77</ele>
        <time>2019-11-01T13:54:35Z</time>
      </trkpt>
      <trkpt lat="44.86636" lon="5.68986">
        <ele>588.41</ele>
        <time>2019-11-01T13:54:36Z</time>
      </trkpt>
      <trkpt lat="44.86636" lon="5.68989">
        <ele>588.09</ele>
        <time>2019-11-01T13:54:37Z</time>
      </trkpt>
      <trkpt lat="44.86637" lon="5.68993">
        <ele>587.71</ele>
        <time>2019-11-01T13:54:38Z</time>
      </trkpt>
      <trkpt lat="44.86637" lon="5.68996">
        <ele>587.18</ele>
        <time>2019-11-01T13:54:39Z</time>
      </trkpt>
      <trkpt lat="44.86637" lon="5.69001">
        <ele>586.42</ele>
        <time>2019-11-01T13:54:41Z</time>
      </trkpt>
      <trkpt lat="44.86637" lon="5.69004">
        <ele>584.61</ele>
        <time>2019-11-01T13:54:43Z</time>
      </trkpt>
      <trkpt lat="44.86635" lon="5.69006">
        <ele>584.19</ele>
        <time>2019-11-01T13:54:56Z</time>
      </trkpt>
      <trkpt lat="44.86632" lon="5.6901">
        <ele>584.4</ele>
        <time>2019-11-01T13:54:58Z</time>
      </trkpt>
      <trkpt lat="44.86631" lon="5.69011">
        <ele>584.51</ele>
        <time>2019-11-01T13:54:59Z</time>
      </trkpt>
      <trkpt lat="44.86629" lon="5.69013">
        <ele>584.61</ele>
        <time>2019-11-01T13:55:00Z</time>
      </trkpt>
      <trkpt lat="44.86627" lon="5.69015">
        <ele>584.71</ele>
        <time>2019-11-01T13:55:01Z</time>
      </trkpt>
      <trkpt lat="44.86625" lon="5.69017">
        <ele>584.81</ele>
        <time>2019-11-01T13:55:02Z</time>
      </trkpt>
      <trkpt lat="44.86622" lon="5.6902">
        <ele>584.98</ele>
        <time>2019-11-01T13:55:03Z</time>
      </trkpt>
      <trkpt lat="44.86618" lon="5.69021">
        <ele>585.03</ele>
        <time>2019-11-01T13:55:04Z</time>
      </trkpt>
      <trkpt lat="44.86615" lon="5.69023">
        <ele>585.18</ele>
        <time>2019-11-01T13:55:05Z</time>
      </trkpt>
      <trkpt lat="44.86612" lon="5.69024">
        <ele>585.3</ele>
        <time>2019-11-01T13:55:06Z</time>
      </trkpt>
      <trkpt lat="44.86609" lon="5.69025">
        <ele>585.4</ele>
        <time>2019-11-01T13:55:07Z</time>
      </trkpt>
      <trkpt lat="44.86606" lon="5.69026">
        <ele>585.51</ele>
        <time>2019-11-01T13:55:08Z</time>
      </trkpt>
      <trkpt lat="44.86603" lon="5.69027">
        <ele>585.61</ele>
        <time>2019-11-01T13:55:09Z</time>
      </trkpt>
      <trkpt lat="44.866" lon="5.69027">
        <ele>585.71</ele>
        <time>2019-11-01T13:55:10Z</time>
      </trkpt>
      <trkpt lat="44.86598" lon="5.69027">
        <ele>585.81</ele>
        <time>2019-11-01T13:55:11Z</time>
      </trkpt>
      <trkpt lat="44.86596" lon="5.69027">
        <ele>585.91</ele>
        <time>2019-11-01T13:55:12Z</time>
      </trkpt>
      <trkpt lat="44.86593" lon="5.69027">
        <ele>586.01</ele>
        <time>2019-11-01T13:55:13Z</time>
      </trkpt>
      <trkpt lat="44.8659" lon="5.69028">
        <ele>586.11</ele>
        <time>2019-11-01T13:55:14Z</time>
      </trkpt>
      <trkpt lat="44.86588" lon="5.69028">
        <ele>586.21</ele>
        <time>2019-11-01T13:55:15Z</time>
      </trkpt>
      <trkpt lat="44.86586" lon="5.69029">
        <ele>586.31</ele>
        <time>2019-11-01T13:55:16Z</time>
      </trkpt>
      <trkpt lat="44.86583" lon="5.6903">
        <ele>586.41</ele>
        <time>2019-11-01T13:55:17Z</time>
      </trkpt>
      <trkpt lat="44.86581" lon="5.69031">
        <ele>586.51</ele>
        <time>2019-11-01T13:55:18Z</time>
      </trkpt>
      <trkpt lat="44.86578" lon="5.69032">
        <ele>586.68</ele>
        <time>2019-11-01T13:55:19Z</time>
      </trkpt>
      <trkpt lat="44.86576" lon="5.69034">
        <ele>586.87</ele>
        <time>2019-11-01T13:55:20Z</time>
      </trkpt>
      <trkpt lat="44.86573" lon="5.69035">
        <ele>586.99</ele>
        <time>2019-11-01T13:55:21Z</time>
      </trkpt>
      <trkpt lat="44.86571" lon="5.69036">
        <ele>587.1</ele>
        <time>2019-11-01T13:55:22Z</time>
      </trkpt>
      <trkpt lat="44.86569" lon="5.69037">
        <ele>587.21</ele>
        <time>2019-11-01T13:55:23Z</time>
      </trkpt>
      <trkpt lat="44.86566" lon="5.69038">
        <ele>587.24</ele>
        <time>2019-11-01T13:55:24Z</time>
      </trkpt>
      <trkpt lat="44.86563" lon="5.69039">
        <ele>587.32</ele>
        <time>2019-11-01T13:55:25Z</time>
      </trkpt>
      <trkpt lat="44.8656" lon="5.6904">
        <ele>587.34</ele>
        <time>2019-11-01T13:55:26Z</time>
      </trkpt>
      <trkpt lat="44.86557" lon="5.69041">
        <ele>587.49</ele>
        <time>2019-11-01T13:55:27Z</time>
      </trkpt>
      <trkpt lat="44.86554" lon="5.69043">
        <ele>587.6</ele>
        <time>2019-11-01T13:55:28Z</time>
      </trkpt>
      <trkpt lat="44.86552" lon="5.69044">
        <ele>587.84</ele>
        <time>2019-11-01T13:55:29Z</time>
      </trkpt>
      <trkpt lat="44.86549" lon="5.69046">
        <ele>587.99</ele>
        <time>2019-11-01T13:55:30Z</time>
      </trkpt>
      <trkpt lat="44.86546" lon="5.69049">
        <ele>588.17</ele>
        <time>2019-11-01T13:55:31Z</time>
      </trkpt>
      <trkpt lat="44.86544" lon="5.69051">
        <ele>588.3</ele>
        <time>2019-11-01T13:55:32Z</time>
      </trkpt>
      <trkpt lat="44.86542" lon="5.69053">
        <ele>588.54</ele>
        <time>2019-11-01T13:55:33Z</time>
      </trkpt>
      <trkpt lat="44.8654" lon="5.69055">
        <ele>588.55</ele>
        <time>2019-11-01T13:55:34Z</time>
      </trkpt>
      <trkpt lat="44.86539" lon="5.69057">
        <ele>588.69</ele>
        <time>2019-11-01T13:55:35Z</time>
      </trkpt>
      <trkpt lat="44.86537" lon="5.6906">
        <ele>588.8</ele>
        <time>2019-11-01T13:55:36Z</time>
      </trkpt>
      <trkpt lat="44.86536" lon="5.69062">
        <ele>588.69</ele>
        <time>2019-11-01T13:55:37Z</time>
      </trkpt>
      <trkpt lat="44.86534" lon="5.69064">
        <ele>588.8</ele>
        <time>2019-11-01T13:55:38Z</time>
      </trkpt>
      <trkpt lat="44.86532" lon="5.69067">
        <ele>588.91</ele>
        <time>2019-11-01T13:55:39Z</time>
      </trkpt>
      <trkpt lat="44.8653" lon="5.69072">
        <ele>589.85</ele>
        <time>2019-11-01T13:55:40Z</time>
      </trkpt>
      <trkpt lat="44.86528" lon="5.69076">
        <ele>590.34</ele>
        <time>2019-11-01T13:55:41Z</time>
      </trkpt>
      <trkpt lat="44.86526" lon="5.6908">
        <ele>590.63</ele>
        <time>2019-11-01T13:55:42Z</time>
      </trkpt>
      <trkpt lat="44.86524" lon="5.69083">
        <ele>590.92</ele>
        <time>2019-11-01T13:55:43Z</time>
      </trkpt>
      <trkpt lat="44.86521" lon="5.69086">
        <ele>591.64</ele>
        <time>2019-11-01T13:55:44Z</time>
      </trkpt>
      <trkpt lat="44.86519" lon="5.69092">
        <ele>592.28</ele>
        <time>2019-11-01T13:55:45Z</time>
      </trkpt>
      <trkpt lat="44.86517" lon="5.69096">
        <ele>592.75</ele>
        <time>2019-11-01T13:55:46Z</time>
      </trkpt>
      <trkpt lat="44.86516" lon="5.69099">
        <ele>593.03</ele>
        <time>2019-11-01T13:55:47Z</time>
      </trkpt>
      <trkpt lat="44.86514" lon="5.69102">
        <ele>592.9</ele>
        <time>2019-11-01T13:55:48Z</time>
      </trkpt>
      <trkpt lat="44.86511" lon="5.69106">
        <ele>592.73</ele>
        <time>2019-11-01T13:55:49Z</time>
      </trkpt>
      <trkpt lat="44.8651" lon="5.69109">
        <ele>592.25</ele>
        <time>2019-11-01T13:55:50Z</time>
      </trkpt>
      <trkpt lat="44.86509" lon="5.69113">
        <ele>591.76</ele>
        <time>2019-11-01T13:55:51Z</time>
      </trkpt>
      <trkpt lat="44.86508" lon="5.69116">
        <ele>591.68</ele>
        <time>2019-11-01T13:55:52Z</time>
      </trkpt>
      <trkpt lat="44.86508" lon="5.69119">
        <ele>591.38</ele>
        <time>2019-11-01T13:55:53Z</time>
      </trkpt>
      <trkpt lat="44.86507" lon="5.69123">
        <ele>590.48</ele>
        <time>2019-11-01T13:55:55Z</time>
      </trkpt>
      <trkpt lat="44.86507" lon="5.69126">
        <ele>590</ele>
        <time>2019-11-01T13:55:57Z</time>
      </trkpt>
      <trkpt lat="44.86504" lon="5.6913">
        <ele>590.69</ele>
        <time>2019-11-01T13:56:01Z</time>
      </trkpt>
      <trkpt lat="44.86502" lon="5.69135">
        <ele>591.23</ele>
        <time>2019-11-01T13:56:03Z</time>
      </trkpt>
      <trkpt lat="44.86501" lon="5.69138">
        <ele>591.66</ele>
        <time>2019-11-01T13:56:04Z</time>
      </trkpt>
      <trkpt lat="44.86499" lon="5.69141">
        <ele>592.07</ele>
        <time>2019-11-01T13:56:05Z</time>
      </trkpt>
      <trkpt lat="44.86498" lon="5.69144">
        <ele>592.41</ele>
        <time>2019-11-01T13:56:06Z</time>
      </trkpt>
      <trkpt lat="44.86496" lon="5.69146">
        <ele>592.72</ele>
        <time>2019-11-01T13:56:07Z</time>
      </trkpt>
      <trkpt lat="44.86494" lon="5.69149">
        <ele>593.23</ele>
        <time>2019-11-01T13:56:08Z</time>
      </trkpt>
      <trkpt lat="44.86491" lon="5.69151">
        <ele>593.38</ele>
        <time>2019-11-01T13:56:09Z</time>
      </trkpt>
      <trkpt lat="44.86489" lon="5.69153">
        <ele>593.64</ele>
        <time>2019-11-01T13:56:10Z</time>
      </trkpt>
      <trkpt lat="44.86487" lon="5.69155">
        <ele>594.42</ele>
        <time>2019-11-01T13:56:11Z</time>
      </trkpt>
      <trkpt lat="44.86485" lon="5.69156">
        <ele>594.86</ele>
        <time>2019-11-01T13:56:12Z</time>
      </trkpt>
      <trkpt lat="44.86483" lon="5.69158">
        <ele>595.34</ele>
        <time>2019-11-01T13:56:13Z</time>
      </trkpt>
      <trkpt lat="44.86481" lon="5.6916">
        <ele>595.77</ele>
        <time>2019-11-01T13:56:14Z</time>
      </trkpt>
      <trkpt lat="44.86479" lon="5.69162">
        <ele>596.24</ele>
        <time>2019-11-01T13:56:15Z</time>
      </trkpt>
      <trkpt lat="44.86477" lon="5.69163">
        <ele>596.67</ele>
        <time>2019-11-01T13:56:16Z</time>
      </trkpt>
      <trkpt lat="44.86475" lon="5.69164">
        <ele>597.07</ele>
        <time>2019-11-01T13:56:17Z</time>
      </trkpt>
      <trkpt lat="44.86473" lon="5.69165">
        <ele>597.48</ele>
        <time>2019-11-01T13:56:18Z</time>
      </trkpt>
      <trkpt lat="44.8647" lon="5.69166">
        <ele>597.95</ele>
        <time>2019-11-01T13:56:19Z</time>
      </trkpt>
      <trkpt lat="44.86468" lon="5.69168">
        <ele>598.3</ele>
        <time>2019-11-01T13:56:20Z</time>
      </trkpt>
      <trkpt lat="44.86465" lon="5.6917">
        <ele>599.03</ele>
        <time>2019-11-01T13:56:21Z</time>
      </trkpt>
      <trkpt lat="44.86463" lon="5.69172">
        <ele>600.09</ele>
        <time>2019-11-01T13:56:22Z</time>
      </trkpt>
      <trkpt lat="44.86461" lon="5.69173">
        <ele>600.55</ele>
        <time>2019-11-01T13:56:23Z</time>
      </trkpt>
      <trkpt lat="44.86458" lon="5.69175">
        <ele>602.45</ele>
        <time>2019-11-01T13:56:25Z</time>
      </trkpt>
      <trkpt lat="44.86456" lon="5.69177">
        <ele>603.29</ele>
        <time>2019-11-01T13:56:26Z</time>
      </trkpt>
      <trkpt lat="44.86454" lon="5.69178">
        <ele>604.1</ele>
        <time>2019-11-01T13:56:27Z</time>
      </trkpt>
      <trkpt lat="44.86451" lon="5.69179">
        <ele>604.48</ele>
        <time>2019-11-01T13:56:28Z</time>
      </trkpt>
      <trkpt lat="44.86449" lon="5.69181">
        <ele>604.39</ele>
        <time>2019-11-01T13:56:29Z</time>
      </trkpt>
      <trkpt lat="44.86447" lon="5.69183">
        <ele>604.43</ele>
        <time>2019-11-01T13:56:30Z</time>
      </trkpt>
      <trkpt lat="44.86445" lon="5.69185">
        <ele>604.51</ele>
        <time>2019-11-01T13:56:31Z</time>
      </trkpt>
      <trkpt lat="44.86443" lon="5.69188">
        <ele>604.96</ele>
        <time>2019-11-01T13:56:32Z</time>
      </trkpt>
      <trkpt lat="44.86441" lon="5.6919">
        <ele>605.09</ele>
        <time>2019-11-01T13:56:33Z</time>
      </trkpt>
      <trkpt lat="44.86439" lon="5.69192">
        <ele>605.13</ele>
        <time>2019-11-01T13:56:34Z</time>
      </trkpt>
      <trkpt lat="44.86436" lon="5.69195">
        <ele>605.28</ele>
        <time>2019-11-01T13:56:35Z</time>
      </trkpt>
      <trkpt lat="44.86435" lon="5.69197">
        <ele>605.47</ele>
        <time>2019-11-01T13:56:36Z</time>
      </trkpt>
      <trkpt lat="44.86432" lon="5.692">
        <ele>606.02</ele>
        <time>2019-11-01T13:56:37Z</time>
      </trkpt>
      <trkpt lat="44.86429" lon="5.69202">
        <ele>606.11</ele>
        <time>2019-11-01T13:56:38Z</time>
      </trkpt>
      <trkpt lat="44.86427" lon="5.69203">
        <ele>606.21</ele>
        <time>2019-11-01T13:56:39Z</time>
      </trkpt>
      <trkpt lat="44.86425" lon="5.69205">
        <ele>606.24</ele>
        <time>2019-11-01T13:56:40Z</time>
      </trkpt>
      <trkpt lat="44.86423" lon="5.69207">
        <ele>606.67</ele>
        <time>2019-11-01T13:56:41Z</time>
      </trkpt>
      <trkpt lat="44.86421" lon="5.69209">
        <ele>607.28</ele>
        <time>2019-11-01T13:56:42Z</time>
      </trkpt>
      <trkpt lat="44.86419" lon="5.69211">
        <ele>607.75</ele>
        <time>2019-11-01T13:56:43Z</time>
      </trkpt>
      <trkpt lat="44.86417" lon="5.69213">
        <ele>608.03</ele>
        <time>2019-11-01T13:56:44Z</time>
      </trkpt>
      <trkpt lat="44.86415" lon="5.69215">
        <ele>608.32</ele>
        <time>2019-11-01T13:56:45Z</time>
      </trkpt>
      <trkpt lat="44.86413" lon="5.69217">
        <ele>608.55</ele>
        <time>2019-11-01T13:56:46Z</time>
      </trkpt>
      <trkpt lat="44.86411" lon="5.69218">
        <ele>608.62</ele>
        <time>2019-11-01T13:56:47Z</time>
      </trkpt>
      <trkpt lat="44.86409" lon="5.69219">
        <ele>608.36</ele>
        <time>2019-11-01T13:56:48Z</time>
      </trkpt>
      <trkpt lat="44.86408" lon="5.69221">
        <ele>608.35</ele>
        <time>2019-11-01T13:56:49Z</time>
      </trkpt>
      <trkpt lat="44.86405" lon="5.69223">
        <ele>608.42</ele>
        <time>2019-11-01T13:56:50Z</time>
      </trkpt>
      <trkpt lat="44.86403" lon="5.69223">
        <ele>608.44</ele>
        <time>2019-11-01T13:56:51Z</time>
      </trkpt>
      <trkpt lat="44.86401" lon="5.69224">
        <ele>608.45</ele>
        <time>2019-11-01T13:56:52Z</time>
      </trkpt>
      <trkpt lat="44.86399" lon="5.69226">
        <ele>608.66</ele>
        <time>2019-11-01T13:56:53Z</time>
      </trkpt>
      <trkpt lat="44.86397" lon="5.69227">
        <ele>608.72</ele>
        <time>2019-11-01T13:56:54Z</time>
      </trkpt>
      <trkpt lat="44.86395" lon="5.69228">
        <ele>608.81</ele>
        <time>2019-11-01T13:56:55Z</time>
      </trkpt>
      <trkpt lat="44.86393" lon="5.6923">
        <ele>608.91</ele>
        <time>2019-11-01T13:56:56Z</time>
      </trkpt>
      <trkpt lat="44.86391" lon="5.69231">
        <ele>609.08</ele>
        <time>2019-11-01T13:56:57Z</time>
      </trkpt>
      <trkpt lat="44.86389" lon="5.69232">
        <ele>609.06</ele>
        <time>2019-11-01T13:56:58Z</time>
      </trkpt>
      <trkpt lat="44.86387" lon="5.69233">
        <ele>609.12</ele>
        <time>2019-11-01T13:56:59Z</time>
      </trkpt>
      <trkpt lat="44.86385" lon="5.69236">
        <ele>609.35</ele>
        <time>2019-11-01T13:57:00Z</time>
      </trkpt>
      <trkpt lat="44.86382" lon="5.69239">
        <ele>609.6</ele>
        <time>2019-11-01T13:57:02Z</time>
      </trkpt>
      <trkpt lat="44.8638" lon="5.69241">
        <ele>609.77</ele>
        <time>2019-11-01T13:57:03Z</time>
      </trkpt>
      <trkpt lat="44.86379" lon="5.69243">
        <ele>609.9</ele>
        <time>2019-11-01T13:57:04Z</time>
      </trkpt>
      <trkpt lat="44.86377" lon="5.69245">
        <ele>609.93</ele>
        <time>2019-11-01T13:57:05Z</time>
      </trkpt>
      <trkpt lat="44.86375" lon="5.69247">
        <ele>610.22</ele>
        <time>2019-11-01T13:57:06Z</time>
      </trkpt>
      <trkpt lat="44.86374" lon="5.6925">
        <ele>610.66</ele>
        <time>2019-11-01T13:57:07Z</time>
      </trkpt>
      <trkpt lat="44.86371" lon="5.69254">
        <ele>610.79</ele>
        <time>2019-11-01T13:57:08Z</time>
      </trkpt>
      <trkpt lat="44.8637" lon="5.69257">
        <ele>611.04</ele>
        <time>2019-11-01T13:57:09Z</time>
      </trkpt>
      <trkpt lat="44.86369" lon="5.69259">
        <ele>611.4</ele>
        <time>2019-11-01T13:57:10Z</time>
      </trkpt>
      <trkpt lat="44.86367" lon="5.69263">
        <ele>611.78</ele>
        <time>2019-11-01T13:57:11Z</time>
      </trkpt>
      <trkpt lat="44.86366" lon="5.69267">
        <ele>612.67</ele>
        <time>2019-11-01T13:57:12Z</time>
      </trkpt>
      <trkpt lat="44.86365" lon="5.6927">
        <ele>613.36</ele>
        <time>2019-11-01T13:57:13Z</time>
      </trkpt>
      <trkpt lat="44.86363" lon="5.69273">
        <ele>613.49</ele>
        <time>2019-11-01T13:57:14Z</time>
      </trkpt>
      <trkpt lat="44.86361" lon="5.69276">
        <ele>613.04</ele>
        <time>2019-11-01T13:57:15Z</time>
      </trkpt>
      <trkpt lat="44.86359" lon="5.69279">
        <ele>613.12</ele>
        <time>2019-11-01T13:57:16Z</time>
      </trkpt>
      <trkpt lat="44.86358" lon="5.69282">
        <ele>612.86</ele>
        <time>2019-11-01T13:57:17Z</time>
      </trkpt>
      <trkpt lat="44.86356" lon="5.69285">
        <ele>612.43</ele>
        <time>2019-11-01T13:57:18Z</time>
      </trkpt>
      <trkpt lat="44.86355" lon="5.6929">
        <ele>612</ele>
        <time>2019-11-01T13:57:20Z</time>
      </trkpt>
      <trkpt lat="44.86354" lon="5.69293">
        <ele>612.03</ele>
        <time>2019-11-01T13:57:21Z</time>
      </trkpt>
      <trkpt lat="44.86353" lon="5.69297">
        <ele>612.18</ele>
        <time>2019-11-01T13:57:23Z</time>
      </trkpt>
      <trkpt lat="44.86352" lon="5.693">
        <ele>612.3</ele>
        <time>2019-11-01T13:57:24Z</time>
      </trkpt>
      <trkpt lat="44.86351" lon="5.69303">
        <ele>612.54</ele>
        <time>2019-11-01T13:57:25Z</time>
      </trkpt>
      <trkpt lat="44.8635" lon="5.69306">
        <ele>612.9</ele>
        <time>2019-11-01T13:57:26Z</time>
      </trkpt>
      <trkpt lat="44.8635" lon="5.69309">
        <ele>613.14</ele>
        <time>2019-11-01T13:57:27Z</time>
      </trkpt>
      <trkpt lat="44.8635" lon="5.69312">
        <ele>612.73</ele>
        <time>2019-11-01T13:57:28Z</time>
      </trkpt>
      <trkpt lat="44.86349" lon="5.69316">
        <ele>612.46</ele>
        <time>2019-11-01T13:57:29Z</time>
      </trkpt>
      <trkpt lat="44.86348" lon="5.69319">
        <ele>612.31</ele>
        <time>2019-11-01T13:57:30Z</time>
      </trkpt>
      <trkpt lat="44.86347" lon="5.69323">
        <ele>612.27</ele>
        <time>2019-11-01T13:57:31Z</time>
      </trkpt>
      <trkpt lat="44.86346" lon="5.69327">
        <ele>612.04</ele>
        <time>2019-11-01T13:57:32Z</time>
      </trkpt>
      <trkpt lat="44.86346" lon="5.69332">
        <ele>612.33</ele>
        <time>2019-11-01T13:57:33Z</time>
      </trkpt>
      <trkpt lat="44.86346" lon="5.69335">
        <ele>612.27</ele>
        <time>2019-11-01T13:57:34Z</time>
      </trkpt>
      <trkpt lat="44.86346" lon="5.69338">
        <ele>612.47</ele>
        <time>2019-11-01T13:57:35Z</time>
      </trkpt>
      <trkpt lat="44.86346" lon="5.6934">
        <ele>612.94</ele>
        <time>2019-11-01T13:57:36Z</time>
      </trkpt>
      <trkpt lat="44.86345" lon="5.69343">
        <ele>612.88</ele>
        <time>2019-11-01T13:57:37Z</time>
      </trkpt>
      <trkpt lat="44.86345" lon="5.69346">
        <ele>613.05</ele>
        <time>2019-11-01T13:57:39Z</time>
      </trkpt>
      <trkpt lat="44.86346" lon="5.69351">
        <ele>612.64</ele>
        <time>2019-11-01T13:58:16Z</time>
      </trkpt>
      <trkpt lat="44.86346" lon="5.69354">
        <ele>612.58</ele>
        <time>2019-11-01T13:58:17Z</time>
      </trkpt>
      <trkpt lat="44.86346" lon="5.69359">
        <ele>612.49</ele>
        <time>2019-11-01T13:58:18Z</time>
      </trkpt>
      <trkpt lat="44.86346" lon="5.69364">
        <ele>612.39</ele>
        <time>2019-11-01T13:58:19Z</time>
      </trkpt>
      <trkpt lat="44.86346" lon="5.69369">
        <ele>612.22</ele>
        <time>2019-11-01T13:58:20Z</time>
      </trkpt>
      <trkpt lat="44.86346" lon="5.69376">
        <ele>611.96</ele>
        <time>2019-11-01T13:58:21Z</time>
      </trkpt>
      <trkpt lat="44.86346" lon="5.69382">
        <ele>611.74</ele>
        <time>2019-11-01T13:58:22Z</time>
      </trkpt>
      <trkpt lat="44.86347" lon="5.69388">
        <ele>611.47</ele>
        <time>2019-11-01T13:58:23Z</time>
      </trkpt>
      <trkpt lat="44.8635" lon="5.69393">
        <ele>611.31</ele>
        <time>2019-11-01T13:58:24Z</time>
      </trkpt>
      <trkpt lat="44.86353" lon="5.69398">
        <ele>611.13</ele>
        <time>2019-11-01T13:58:25Z</time>
      </trkpt>
      <trkpt lat="44.86358" lon="5.69404">
        <ele>610.86</ele>
        <time>2019-11-01T13:58:26Z</time>
      </trkpt>
      <trkpt lat="44.86363" lon="5.69408">
        <ele>610.57</ele>
        <time>2019-11-01T13:58:27Z</time>
      </trkpt>
      <trkpt lat="44.86368" lon="5.69411">
        <ele>610.21</ele>
        <time>2019-11-01T13:58:28Z</time>
      </trkpt>
      <trkpt lat="44.86372" lon="5.69412">
        <ele>609.89</ele>
        <time>2019-11-01T13:58:29Z</time>
      </trkpt>
      <trkpt lat="44.86377" lon="5.69412">
        <ele>609.3</ele>
        <time>2019-11-01T13:58:30Z</time>
      </trkpt>
      <trkpt lat="44.8638" lon="5.69411">
        <ele>608.77</ele>
        <time>2019-11-01T13:58:31Z</time>
      </trkpt>
      <trkpt lat="44.86385" lon="5.69411">
        <ele>608.27</ele>
        <time>2019-11-01T13:58:32Z</time>
      </trkpt>
      <trkpt lat="44.86392" lon="5.69411">
        <ele>607.83</ele>
        <time>2019-11-01T13:58:33Z</time>
      </trkpt>
      <trkpt lat="44.86399" lon="5.69411">
        <ele>607.49</ele>
        <time>2019-11-01T13:58:34Z</time>
      </trkpt>
      <trkpt lat="44.86408" lon="5.69412">
        <ele>607.04</ele>
        <time>2019-11-01T13:58:35Z</time>
      </trkpt>
      <trkpt lat="44.86417" lon="5.69413">
        <ele>606.56</ele>
        <time>2019-11-01T13:58:36Z</time>
      </trkpt>
      <trkpt lat="44.86425" lon="5.69414">
        <ele>605.78</ele>
        <time>2019-11-01T13:58:37Z</time>
      </trkpt>
      <trkpt lat="44.86433" lon="5.69416">
        <ele>604.71</ele>
        <time>2019-11-01T13:58:38Z</time>
      </trkpt>
      <trkpt lat="44.86439" lon="5.69419">
        <ele>603.69</ele>
        <time>2019-11-01T13:58:39Z</time>
      </trkpt>
      <trkpt lat="44.86443" lon="5.69421">
        <ele>602.61</ele>
        <time>2019-11-01T13:58:40Z</time>
      </trkpt>
      <trkpt lat="44.86447" lon="5.69424">
        <ele>601.66</ele>
        <time>2019-11-01T13:58:41Z</time>
      </trkpt>
      <trkpt lat="44.8645" lon="5.69427">
        <ele>600.53</ele>
        <time>2019-11-01T13:58:42Z</time>
      </trkpt>
      <trkpt lat="44.86454" lon="5.69431">
        <ele>599.77</ele>
        <time>2019-11-01T13:58:43Z</time>
      </trkpt>
      <trkpt lat="44.86459" lon="5.69435">
        <ele>598.99</ele>
        <time>2019-11-01T13:58:44Z</time>
      </trkpt>
      <trkpt lat="44.86464" lon="5.6944">
        <ele>598.05</ele>
        <time>2019-11-01T13:58:45Z</time>
      </trkpt>
      <trkpt lat="44.86471" lon="5.69447">
        <ele>597.14</ele>
        <time>2019-11-01T13:58:46Z</time>
      </trkpt>
      <trkpt lat="44.86478" lon="5.69454">
        <ele>596.03</ele>
        <time>2019-11-01T13:58:47Z</time>
      </trkpt>
      <trkpt lat="44.86485" lon="5.69462">
        <ele>594.71</ele>
        <time>2019-11-01T13:58:48Z</time>
      </trkpt>
      <trkpt lat="44.86493" lon="5.69473">
        <ele>593.13</ele>
        <time>2019-11-01T13:58:49Z</time>
      </trkpt>
      <trkpt lat="44.86499" lon="5.69482">
        <ele>590.9</ele>
        <time>2019-11-01T13:58:50Z</time>
      </trkpt>
      <trkpt lat="44.86508" lon="5.69491">
        <ele>589.12</ele>
        <time>2019-11-01T13:58:51Z</time>
      </trkpt>
      <trkpt lat="44.86518" lon="5.69502">
        <ele>588.16</ele>
        <time>2019-11-01T13:58:52Z</time>
      </trkpt>
      <trkpt lat="44.86527" lon="5.69509">
        <ele>587.52</ele>
        <time>2019-11-01T13:58:53Z</time>
      </trkpt>
      <trkpt lat="44.86536" lon="5.69518">
        <ele>585.09</ele>
        <time>2019-11-01T13:58:54Z</time>
      </trkpt>
      <trkpt lat="44.86546" lon="5.69521">
        <ele>582.54</ele>
        <time>2019-11-01T13:58:55Z</time>
      </trkpt>
      <trkpt lat="44.86553" lon="5.69528">
        <ele>580.59</ele>
        <time>2019-11-01T13:58:56Z</time>
      </trkpt>
      <trkpt lat="44.86562" lon="5.69532">
        <ele>579.72</ele>
        <time>2019-11-01T13:58:57Z</time>
      </trkpt>
      <trkpt lat="44.86572" lon="5.69533">
        <ele>579.46</ele>
        <time>2019-11-01T13:58:58Z</time>
      </trkpt>
      <trkpt lat="44.8658" lon="5.69533">
        <ele>578.19</ele>
        <time>2019-11-01T13:58:59Z</time>
      </trkpt>
      <trkpt lat="44.86586" lon="5.69533">
        <ele>577.11</ele>
        <time>2019-11-01T13:59:00Z</time>
      </trkpt>
      <trkpt lat="44.86593" lon="5.69531">
        <ele>576.23</ele>
        <time>2019-11-01T13:59:01Z</time>
      </trkpt>
      <trkpt lat="44.86599" lon="5.69529">
        <ele>575.96</ele>
        <time>2019-11-01T13:59:02Z</time>
      </trkpt>
      <trkpt lat="44.86603" lon="5.69526">
        <ele>575.46</ele>
        <time>2019-11-01T13:59:03Z</time>
      </trkpt>
      <trkpt lat="44.86606" lon="5.6952">
        <ele>574.96</ele>
        <time>2019-11-01T13:59:04Z</time>
      </trkpt>
      <trkpt lat="44.86609" lon="5.69513">
        <ele>574.11</ele>
        <time>2019-11-01T13:59:05Z</time>
      </trkpt>
      <trkpt lat="44.86612" lon="5.69506">
        <ele>573.16</ele>
        <time>2019-11-01T13:59:06Z</time>
      </trkpt>
      <trkpt lat="44.86615" lon="5.695">
        <ele>572.03</ele>
        <time>2019-11-01T13:59:07Z</time>
      </trkpt>
      <trkpt lat="44.86618" lon="5.69493">
        <ele>570.92</ele>
        <time>2019-11-01T13:59:08Z</time>
      </trkpt>
      <trkpt lat="44.86622" lon="5.69487">
        <ele>570.24</ele>
        <time>2019-11-01T13:59:09Z</time>
      </trkpt>
      <trkpt lat="44.86626" lon="5.69482">
        <ele>569.55</ele>
        <time>2019-11-01T13:59:10Z</time>
      </trkpt>
      <trkpt lat="44.8663" lon="5.69479">
        <ele>569.06</ele>
        <time>2019-11-01T13:59:11Z</time>
      </trkpt>
      <trkpt lat="44.86633" lon="5.69478">
        <ele>568.42</ele>
        <time>2019-11-01T13:59:12Z</time>
      </trkpt>
      <trkpt lat="44.86636" lon="5.69478">
        <ele>567.74</ele>
        <time>2019-11-01T13:59:13Z</time>
      </trkpt>
      <trkpt lat="44.86638" lon="5.69481">
        <ele>566.17</ele>
        <time>2019-11-01T13:59:15Z</time>
      </trkpt>
      <trkpt lat="44.86637" lon="5.69487">
        <ele>565.18</ele>
        <time>2019-11-01T13:59:17Z</time>
      </trkpt>
      <trkpt lat="44.86636" lon="5.69491">
        <ele>564.53</ele>
        <time>2019-11-01T13:59:18Z</time>
      </trkpt>
      <trkpt lat="44.86635" lon="5.69496">
        <ele>563.91</ele>
        <time>2019-11-01T13:59:19Z</time>
      </trkpt>
      <trkpt lat="44.86634" lon="5.695">
        <ele>563.45</ele>
        <time>2019-11-01T13:59:20Z</time>
      </trkpt>
      <trkpt lat="44.86633" lon="5.69506">
        <ele>563.1</ele>
        <time>2019-11-01T13:59:21Z</time>
      </trkpt>
      <trkpt lat="44.86632" lon="5.69511">
        <ele>562.57</ele>
        <time>2019-11-01T13:59:22Z</time>
      </trkpt>
      <trkpt lat="44.86631" lon="5.69516">
        <ele>562</ele>
        <time>2019-11-01T13:59:23Z</time>
      </trkpt>
      <trkpt lat="44.8663" lon="5.69522">
        <ele>561.54</ele>
        <time>2019-11-01T13:59:24Z</time>
      </trkpt>
      <trkpt lat="44.86629" lon="5.69529">
        <ele>561.27</ele>
        <time>2019-11-01T13:59:25Z</time>
      </trkpt>
      <trkpt lat="44.86627" lon="5.69536">
        <ele>560.97</ele>
        <time>2019-11-01T13:59:26Z</time>
      </trkpt>
      <trkpt lat="44.86625" lon="5.69544">
        <ele>560.61</ele>
        <time>2019-11-01T13:59:27Z</time>
      </trkpt>
      <trkpt lat="44.86622" lon="5.69552">
        <ele>560.22</ele>
        <time>2019-11-01T13:59:28Z</time>
      </trkpt>
      <trkpt lat="44.8662" lon="5.69559">
        <ele>559.89</ele>
        <time>2019-11-01T13:59:29Z</time>
      </trkpt>
      <trkpt lat="44.86618" lon="5.69565">
        <ele>559.65</ele>
        <time>2019-11-01T13:59:30Z</time>
      </trkpt>
      <trkpt lat="44.86615" lon="5.6957">
        <ele>559.16</ele>
        <time>2019-11-01T13:59:31Z</time>
      </trkpt>
      <trkpt lat="44.86613" lon="5.69575">
        <ele>558.73</ele>
        <time>2019-11-01T13:59:32Z</time>
      </trkpt>
      <trkpt lat="44.86611" lon="5.69579">
        <ele>558.32</ele>
        <time>2019-11-01T13:59:33Z</time>
      </trkpt>
      <trkpt lat="44.86609" lon="5.69584">
        <ele>557.92</ele>
        <time>2019-11-01T13:59:34Z</time>
      </trkpt>
      <trkpt lat="44.86608" lon="5.69586">
        <ele>557.59</ele>
        <time>2019-11-01T13:59:35Z</time>
      </trkpt>
      <trkpt lat="44.86608" lon="5.69595">
        <ele>556.14</ele>
        <time>2019-11-01T13:59:53Z</time>
      </trkpt>
      <trkpt lat="44.86607" lon="5.69598">
        <ele>556.08</ele>
        <time>2019-11-01T13:59:54Z</time>
      </trkpt>
      <trkpt lat="44.86607" lon="5.69601">
        <ele>556.06</ele>
        <time>2019-11-01T13:59:55Z</time>
      </trkpt>
      <trkpt lat="44.86606" lon="5.69606">
        <ele>555.96</ele>
        <time>2019-11-01T13:59:57Z</time>
      </trkpt>
      <trkpt lat="44.86604" lon="5.69609">
        <ele>555.95</ele>
        <time>2019-11-01T13:59:58Z</time>
      </trkpt>
      <trkpt lat="44.86603" lon="5.69613">
        <ele>555.88</ele>
        <time>2019-11-01T13:59:59Z</time>
      </trkpt>
      <trkpt lat="44.86603" lon="5.69617">
        <ele>555.72</ele>
        <time>2019-11-01T14:00:00Z</time>
      </trkpt>
      <trkpt lat="44.86603" lon="5.69622">
        <ele>555.6</ele>
        <time>2019-11-01T14:00:01Z</time>
      </trkpt>
      <trkpt lat="44.86602" lon="5.69628">
        <ele>555.49</ele>
        <time>2019-11-01T14:00:02Z</time>
      </trkpt>
      <trkpt lat="44.86602" lon="5.69633">
        <ele>555.39</ele>
        <time>2019-11-01T14:00:03Z</time>
      </trkpt>
      <trkpt lat="44.86602" lon="5.69638">
        <ele>555.29</ele>
        <time>2019-11-01T14:00:04Z</time>
      </trkpt>
      <trkpt lat="44.86603" lon="5.69644">
        <ele>555.19</ele>
        <time>2019-11-01T14:00:05Z</time>
      </trkpt>
      <trkpt lat="44.86603" lon="5.69648">
        <ele>555.02</ele>
        <time>2019-11-01T14:00:06Z</time>
      </trkpt>
      <trkpt lat="44.86603" lon="5.69652">
        <ele>554.9</ele>
        <time>2019-11-01T14:00:07Z</time>
      </trkpt>
      <trkpt lat="44.86602" lon="5.69657">
        <ele>554.79</ele>
        <time>2019-11-01T14:00:08Z</time>
      </trkpt>
      <trkpt lat="44.86601" lon="5.69661">
        <ele>554.69</ele>
        <time>2019-11-01T14:00:09Z</time>
      </trkpt>
      <trkpt lat="44.866" lon="5.69664">
        <ele>554.59</ele>
        <time>2019-11-01T14:00:10Z</time>
      </trkpt>
      <trkpt lat="44.86599" lon="5.69667">
        <ele>554.49</ele>
        <time>2019-11-01T14:00:11Z</time>
      </trkpt>
      <trkpt lat="44.86597" lon="5.69669">
        <ele>554.25</ele>
        <time>2019-11-01T14:00:12Z</time>
      </trkpt>
      <trkpt lat="44.86594" lon="5.69673">
        <ele>553.83</ele>
        <time>2019-11-01T14:00:13Z</time>
      </trkpt>
      <trkpt lat="44.86591" lon="5.69675">
        <ele>553.56</ele>
        <time>2019-11-01T14:00:14Z</time>
      </trkpt>
      <trkpt lat="44.86587" lon="5.69677">
        <ele>553.34</ele>
        <time>2019-11-01T14:00:15Z</time>
      </trkpt>
      <trkpt lat="44.86583" lon="5.69679">
        <ele>553.14</ele>
        <time>2019-11-01T14:00:16Z</time>
      </trkpt>
      <trkpt lat="44.86581" lon="5.6968">
        <ele>553.01</ele>
        <time>2019-11-01T14:00:17Z</time>
      </trkpt>
      <trkpt lat="44.86579" lon="5.69682">
        <ele>552.45</ele>
        <time>2019-11-01T14:00:19Z</time>
      </trkpt>
      <trkpt lat="44.86577" lon="5.69684">
        <ele>552.24</ele>
        <time>2019-11-01T14:00:20Z</time>
      </trkpt>
      <trkpt lat="44.86575" lon="5.69685">
        <ele>552.04</ele>
        <time>2019-11-01T14:00:21Z</time>
      </trkpt>
      <trkpt lat="44.86574" lon="5.69687">
        <ele>551.84</ele>
        <time>2019-11-01T14:00:22Z</time>
      </trkpt>
      <trkpt lat="44.8657" lon="5.69687">
        <ele>551.42</ele>
        <time>2019-11-01T14:00:23Z</time>
      </trkpt>
      <trkpt lat="44.86566" lon="5.69688">
        <ele>551.23</ele>
        <time>2019-11-01T14:00:24Z</time>
      </trkpt>
      <trkpt lat="44.86564" lon="5.69688">
        <ele>551.1</ele>
        <time>2019-11-01T14:00:25Z</time>
      </trkpt>
      <trkpt lat="44.86561" lon="5.69688">
        <ele>551</ele>
        <time>2019-11-01T14:00:26Z</time>
      </trkpt>
      <trkpt lat="44.86559" lon="5.69688">
        <ele>550.89</ele>
        <time>2019-11-01T14:00:27Z</time>
      </trkpt>
      <trkpt lat="44.86556" lon="5.6969">
        <ele>550.6</ele>
        <time>2019-11-01T14:00:29Z</time>
      </trkpt>
      <trkpt lat="44.86553" lon="5.6969">
        <ele>550.3</ele>
        <time>2019-11-01T14:00:31Z</time>
      </trkpt>
      <trkpt lat="44.8655" lon="5.69691">
        <ele>550.09</ele>
        <time>2019-11-01T14:00:33Z</time>
      </trkpt>
      <trkpt lat="44.86548" lon="5.69691">
        <ele>549.8</ele>
        <time>2019-11-01T14:00:35Z</time>
      </trkpt>
      <trkpt lat="44.86544" lon="5.69693">
        <ele>549.57</ele>
        <time>2019-11-01T14:00:37Z</time>
      </trkpt>
      <trkpt lat="44.86541" lon="5.69694">
        <ele>549.32</ele>
        <time>2019-11-01T14:00:39Z</time>
      </trkpt>
      <trkpt lat="44.86538" lon="5.69695">
        <ele>549.34</ele>
        <time>2019-11-01T14:00:40Z</time>
      </trkpt>
      <trkpt lat="44.86537" lon="5.69697">
        <ele>549.35</ele>
        <time>2019-11-01T14:00:41Z</time>
      </trkpt>
      <trkpt lat="44.86534" lon="5.69698">
        <ele>549.28</ele>
        <time>2019-11-01T14:00:42Z</time>
      </trkpt>
      <trkpt lat="44.86531" lon="5.69699">
        <ele>549.09</ele>
        <time>2019-11-01T14:00:44Z</time>
      </trkpt>
      <trkpt lat="44.8653" lon="5.69704">
        <ele>548.8</ele>
        <time>2019-11-01T14:00:46Z</time>
      </trkpt>
      <trkpt lat="44.8653" lon="5.69707">
        <ele>548.69</ele>
        <time>2019-11-01T14:00:47Z</time>
      </trkpt>
      <trkpt lat="44.8653" lon="5.69712">
        <ele>548.59</ele>
        <time>2019-11-01T14:00:48Z</time>
      </trkpt>
      <trkpt lat="44.8653" lon="5.69716">
        <ele>548.49</ele>
        <time>2019-11-01T14:00:49Z</time>
      </trkpt>
      <trkpt lat="44.86532" lon="5.6972">
        <ele>548.39</ele>
        <time>2019-11-01T14:00:50Z</time>
      </trkpt>
      <trkpt lat="44.86532" lon="5.69726">
        <ele>548.22</ele>
        <time>2019-11-01T14:00:51Z</time>
      </trkpt>
      <trkpt lat="44.86531" lon="5.6973">
        <ele>547.89</ele>
        <time>2019-11-01T14:00:52Z</time>
      </trkpt>
      <trkpt lat="44.86529" lon="5.69733">
        <ele>547.44</ele>
        <time>2019-11-01T14:00:53Z</time>
      </trkpt>
      <trkpt lat="44.86528" lon="5.69736">
        <ele>547.17</ele>
        <time>2019-11-01T14:00:54Z</time>
      </trkpt>
      <trkpt lat="44.86527" lon="5.69741">
        <ele>546.73</ele>
        <time>2019-11-01T14:00:55Z</time>
      </trkpt>
      <trkpt lat="44.86527" lon="5.69746">
        <ele>546.46</ele>
        <time>2019-11-01T14:00:56Z</time>
      </trkpt>
      <trkpt lat="44.86527" lon="5.69752">
        <ele>546.17</ele>
        <time>2019-11-01T14:00:57Z</time>
      </trkpt>
      <trkpt lat="44.86526" lon="5.69756">
        <ele>545.95</ele>
        <time>2019-11-01T14:00:58Z</time>
      </trkpt>
      <trkpt lat="44.86526" lon="5.69759">
        <ele>545.74</ele>
        <time>2019-11-01T14:00:59Z</time>
      </trkpt>
      <trkpt lat="44.86525" lon="5.69762">
        <ele>545.3</ele>
        <time>2019-11-01T14:01:02Z</time>
      </trkpt>
      <trkpt lat="44.8653" lon="5.69773">
        <ele>543.92</ele>
        <time>2019-11-01T14:01:14Z</time>
      </trkpt>
      <trkpt lat="44.86531" lon="5.69777">
        <ele>543.38</ele>
        <time>2019-11-01T14:01:16Z</time>
      </trkpt>
      <trkpt lat="44.86533" lon="5.69779">
        <ele>543.36</ele>
        <time>2019-11-01T14:01:17Z</time>
      </trkpt>
      <trkpt lat="44.86533" lon="5.69782">
        <ele>543.35</ele>
        <time>2019-11-01T14:01:18Z</time>
      </trkpt>
      <trkpt lat="44.86533" lon="5.69785">
        <ele>543.28</ele>
        <time>2019-11-01T14:01:19Z</time>
      </trkpt>
      <trkpt lat="44.86533" lon="5.69789">
        <ele>543.26</ele>
        <time>2019-11-01T14:01:20Z</time>
      </trkpt>
      <trkpt lat="44.86532" lon="5.69792">
        <ele>543.18</ele>
        <time>2019-11-01T14:01:21Z</time>
      </trkpt>
      <trkpt lat="44.86531" lon="5.69796">
        <ele>543.16</ele>
        <time>2019-11-01T14:01:22Z</time>
      </trkpt>
      <trkpt lat="44.8653" lon="5.69802">
        <ele>543.08</ele>
        <time>2019-11-01T14:01:23Z</time>
      </trkpt>
      <trkpt lat="44.8653" lon="5.69808">
        <ele>542.99</ele>
        <time>2019-11-01T14:01:24Z</time>
      </trkpt>
      <trkpt lat="44.86531" lon="5.69814">
        <ele>542.68</ele>
        <time>2019-11-01T14:01:25Z</time>
      </trkpt>
      <trkpt lat="44.86531" lon="5.69818">
        <ele>542.45</ele>
        <time>2019-11-01T14:01:26Z</time>
      </trkpt>
      <trkpt lat="44.86534" lon="5.69819">
        <ele>541.96</ele>
        <time>2019-11-01T14:01:27Z</time>
      </trkpt>
      <trkpt lat="44.86537" lon="5.6982">
        <ele>541.33</ele>
        <time>2019-11-01T14:01:29Z</time>
      </trkpt>
      <trkpt lat="44.86539" lon="5.69819">
        <ele>541.13</ele>
        <time>2019-11-01T14:01:30Z</time>
      </trkpt>
      <trkpt lat="44.86542" lon="5.69819">
        <ele>540.93</ele>
        <time>2019-11-01T14:01:31Z</time>
      </trkpt>
      <trkpt lat="44.86544" lon="5.69819">
        <ele>540.73</ele>
        <time>2019-11-01T14:01:32Z</time>
      </trkpt>
      <trkpt lat="44.86547" lon="5.6982">
        <ele>540.53</ele>
        <time>2019-11-01T14:01:33Z</time>
      </trkpt>
      <trkpt lat="44.86549" lon="5.69822">
        <ele>540.33</ele>
        <time>2019-11-01T14:01:34Z</time>
      </trkpt>
      <trkpt lat="44.86552" lon="5.69825">
        <ele>540</ele>
        <time>2019-11-01T14:01:36Z</time>
      </trkpt>
      <trkpt lat="44.86553" lon="5.69828">
        <ele>539.83</ele>
        <time>2019-11-01T14:01:37Z</time>
      </trkpt>
      <trkpt lat="44.86554" lon="5.69831">
        <ele>539.56</ele>
        <time>2019-11-01T14:01:38Z</time>
      </trkpt>
      <trkpt lat="44.86557" lon="5.69835">
        <ele>539.48</ele>
        <time>2019-11-01T14:01:39Z</time>
      </trkpt>
      <trkpt lat="44.86557" lon="5.69838">
        <ele>539.32</ele>
        <time>2019-11-01T14:01:40Z</time>
      </trkpt>
      <trkpt lat="44.86556" lon="5.69843">
        <ele>539.09</ele>
        <time>2019-11-01T14:01:42Z</time>
      </trkpt>
      <trkpt lat="44.86556" lon="5.69846">
        <ele>538.96</ele>
        <time>2019-11-01T14:01:44Z</time>
      </trkpt>
      <trkpt lat="44.86557" lon="5.69849">
        <ele>538.65</ele>
        <time>2019-11-01T14:01:46Z</time>
      </trkpt>
      <trkpt lat="44.8656" lon="5.69853">
        <ele>538.45</ele>
        <time>2019-11-01T14:01:48Z</time>
      </trkpt>
      <trkpt lat="44.86563" lon="5.69858">
        <ele>538.66</ele>
        <time>2019-11-01T14:01:49Z</time>
      </trkpt>
      <trkpt lat="44.86564" lon="5.6986">
        <ele>538.65</ele>
        <time>2019-11-01T14:01:50Z</time>
      </trkpt>
      <trkpt lat="44.86566" lon="5.69861">
        <ele>538.65</ele>
        <time>2019-11-01T14:01:51Z</time>
      </trkpt>
      <trkpt lat="44.86569" lon="5.69864">
        <ele>538.56</ele>
        <time>2019-11-01T14:01:53Z</time>
      </trkpt>
      <trkpt lat="44.86573" lon="5.69865">
        <ele>538.62</ele>
        <time>2019-11-01T14:01:54Z</time>
      </trkpt>
      <trkpt lat="44.86574" lon="5.69866">
        <ele>538.57</ele>
        <time>2019-11-01T14:01:55Z</time>
      </trkpt>
      <trkpt lat="44.86576" lon="5.69868">
        <ele>538.35</ele>
        <time>2019-11-01T14:01:56Z</time>
      </trkpt>
      <trkpt lat="44.86579" lon="5.6987">
        <ele>538.17</ele>
        <time>2019-11-01T14:01:58Z</time>
      </trkpt>
      <trkpt lat="44.86581" lon="5.69873">
        <ele>538.01</ele>
        <time>2019-11-01T14:01:59Z</time>
      </trkpt>
      <trkpt lat="44.86583" lon="5.69876">
        <ele>537.83</ele>
        <time>2019-11-01T14:02:00Z</time>
      </trkpt>
      <trkpt lat="44.86585" lon="5.69881">
        <ele>537.63</ele>
        <time>2019-11-01T14:02:01Z</time>
      </trkpt>
      <trkpt lat="44.86586" lon="5.69885">
        <ele>537.5</ele>
        <time>2019-11-01T14:02:02Z</time>
      </trkpt>
      <trkpt lat="44.86588" lon="5.69889">
        <ele>537.33</ele>
        <time>2019-11-01T14:02:03Z</time>
      </trkpt>
      <trkpt lat="44.86588" lon="5.69891">
        <ele>537.13</ele>
        <time>2019-11-01T14:02:04Z</time>
      </trkpt>
      <trkpt lat="44.86589" lon="5.69894">
        <ele>536.86</ele>
        <time>2019-11-01T14:02:05Z</time>
      </trkpt>
      <trkpt lat="44.86591" lon="5.69896">
        <ele>536.78</ele>
        <time>2019-11-01T14:02:06Z</time>
      </trkpt>
      <trkpt lat="44.86594" lon="5.69898">
        <ele>536.62</ele>
        <time>2019-11-01T14:02:07Z</time>
      </trkpt>
      <trkpt lat="44.86597" lon="5.699">
        <ele>536.57</ele>
        <time>2019-11-01T14:02:08Z</time>
      </trkpt>
      <trkpt lat="44.86601" lon="5.69902">
        <ele>536.56</ele>
        <time>2019-11-01T14:02:09Z</time>
      </trkpt>
      <trkpt lat="44.86603" lon="5.69904">
        <ele>536.62</ele>
        <time>2019-11-01T14:02:10Z</time>
      </trkpt>
      <trkpt lat="44.86606" lon="5.69907">
        <ele>536.78</ele>
        <time>2019-11-01T14:02:11Z</time>
      </trkpt>
      <trkpt lat="44.86609" lon="5.69908">
        <ele>536.83</ele>
        <time>2019-11-01T14:02:12Z</time>
      </trkpt>
      <trkpt lat="44.86612" lon="5.69912">
        <ele>536.94</ele>
        <time>2019-11-01T14:02:14Z</time>
      </trkpt>
      <trkpt lat="44.86613" lon="5.69917">
        <ele>537.23</ele>
        <time>2019-11-01T14:02:15Z</time>
      </trkpt>
      <trkpt lat="44.86615" lon="5.69922">
        <ele>537.45</ele>
        <time>2019-11-01T14:02:16Z</time>
      </trkpt>
      <trkpt lat="44.86616" lon="5.69926">
        <ele>537.73</ele>
        <time>2019-11-01T14:02:17Z</time>
      </trkpt>
      <trkpt lat="44.86617" lon="5.69929">
        <ele>537.88</ele>
        <time>2019-11-01T14:02:18Z</time>
      </trkpt>
      <trkpt lat="44.86618" lon="5.69932">
        <ele>538</ele>
        <time>2019-11-01T14:02:19Z</time>
      </trkpt>
      <trkpt lat="44.8662" lon="5.69934">
        <ele>538.1</ele>
        <time>2019-11-01T14:02:20Z</time>
      </trkpt>
      <trkpt lat="44.86622" lon="5.69935">
        <ele>538.21</ele>
        <time>2019-11-01T14:02:21Z</time>
      </trkpt>
      <trkpt lat="44.86623" lon="5.69936">
        <ele>538.45</ele>
        <time>2019-11-01T14:02:22Z</time>
      </trkpt>
      <trkpt lat="44.86625" lon="5.69939">
        <ele>538.59</ele>
        <time>2019-11-01T14:02:23Z</time>
      </trkpt>
      <trkpt lat="44.86627" lon="5.6994">
        <ele>538.7</ele>
        <time>2019-11-01T14:02:24Z</time>
      </trkpt>
      <trkpt lat="44.86629" lon="5.69942">
        <ele>538.8</ele>
        <time>2019-11-01T14:02:25Z</time>
      </trkpt>
      <trkpt lat="44.86632" lon="5.69944">
        <ele>538.77</ele>
        <time>2019-11-01T14:02:26Z</time>
      </trkpt>
      <trkpt lat="44.86635" lon="5.69946">
        <ele>538.61</ele>
        <time>2019-11-01T14:02:27Z</time>
      </trkpt>
      <trkpt lat="44.86637" lon="5.69949">
        <ele>538.78</ele>
        <time>2019-11-01T14:02:28Z</time>
      </trkpt>
      <trkpt lat="44.86638" lon="5.69953">
        <ele>539.04</ele>
        <time>2019-11-01T14:02:29Z</time>
      </trkpt>
      <trkpt lat="44.86638" lon="5.69957">
        <ele>539.26</ele>
        <time>2019-11-01T14:02:30Z</time>
      </trkpt>
      <trkpt lat="44.86638" lon="5.69961">
        <ele>539.32</ele>
        <time>2019-11-01T14:02:31Z</time>
      </trkpt>
      <trkpt lat="44.86638" lon="5.69964">
        <ele>539.13</ele>
        <time>2019-11-01T14:02:32Z</time>
      </trkpt>
      <trkpt lat="44.86639" lon="5.69966">
        <ele>539.07</ele>
        <time>2019-11-01T14:02:33Z</time>
      </trkpt>
      <trkpt lat="44.8664" lon="5.69969">
        <ele>539.2</ele>
        <time>2019-11-01T14:02:34Z</time>
      </trkpt>
      <trkpt lat="44.8664" lon="5.69973">
        <ele>539.31</ele>
        <time>2019-11-01T14:02:36Z</time>
      </trkpt>
      <trkpt lat="44.8664" lon="5.69976">
        <ele>539.48</ele>
        <time>2019-11-01T14:02:37Z</time>
      </trkpt>
      <trkpt lat="44.86639" lon="5.6998">
        <ele>539.63</ele>
        <time>2019-11-01T14:02:39Z</time>
      </trkpt>
      <trkpt lat="44.8664" lon="5.69984">
        <ele>539.97</ele>
        <time>2019-11-01T14:02:41Z</time>
      </trkpt>
      <trkpt lat="44.8664" lon="5.69988">
        <ele>540.36</ele>
        <time>2019-11-01T14:02:43Z</time>
      </trkpt>
      <trkpt lat="44.86639" lon="5.69991">
        <ele>540.6</ele>
        <time>2019-11-01T14:02:45Z</time>
      </trkpt>
      <trkpt lat="44.8664" lon="5.69993">
        <ele>540.99</ele>
        <time>2019-11-01T14:02:47Z</time>
      </trkpt>
      <trkpt lat="44.86641" lon="5.69996">
        <ele>541.1</ele>
        <time>2019-11-01T14:02:48Z</time>
      </trkpt>
      <trkpt lat="44.86641" lon="5.7">
        <ele>540.8</ele>
        <time>2019-11-01T14:02:50Z</time>
      </trkpt>
      <trkpt lat="44.86644" lon="5.70008">
        <ele>540.54</ele>
        <time>2019-11-01T14:02:56Z</time>
      </trkpt>
      <trkpt lat="44.86645" lon="5.70012">
        <ele>540.46</ele>
        <time>2019-11-01T14:02:58Z</time>
      </trkpt>
      <trkpt lat="44.86647" lon="5.70015">
        <ele>539.88</ele>
        <time>2019-11-01T14:03:00Z</time>
      </trkpt>
      <trkpt lat="44.86649" lon="5.70019">
        <ele>539.67</ele>
        <time>2019-11-01T14:03:02Z</time>
      </trkpt>
      <trkpt lat="44.86651" lon="5.70021">
        <ele>539.73</ele>
        <time>2019-11-01T14:03:03Z</time>
      </trkpt>
      <trkpt lat="44.86652" lon="5.70022">
        <ele>539.74</ele>
        <time>2019-11-01T14:03:04Z</time>
      </trkpt>
      <trkpt lat="44.86654" lon="5.70025">
        <ele>539.68</ele>
        <time>2019-11-01T14:03:05Z</time>
      </trkpt>
      <trkpt lat="44.86655" lon="5.70027">
        <ele>539.52</ele>
        <time>2019-11-01T14:03:06Z</time>
      </trkpt>
      <trkpt lat="44.86656" lon="5.70029">
        <ele>539.47</ele>
        <time>2019-11-01T14:03:07Z</time>
      </trkpt>
      <trkpt lat="44.8666" lon="5.70029">
        <ele>539.43</ele>
        <time>2019-11-01T14:03:09Z</time>
      </trkpt>
      <trkpt lat="44.86662" lon="5.70032">
        <ele>539.45</ele>
        <time>2019-11-01T14:03:11Z</time>
      </trkpt>
      <trkpt lat="44.86664" lon="5.70035">
        <ele>539.45</ele>
        <time>2019-11-01T14:03:12Z</time>
      </trkpt>
      <trkpt lat="44.86665" lon="5.70037">
        <ele>539.45</ele>
        <time>2019-11-01T14:03:13Z</time>
      </trkpt>
      <trkpt lat="44.86667" lon="5.70037">
        <ele>539.38</ele>
        <time>2019-11-01T14:03:15Z</time>
      </trkpt>
      <trkpt lat="44.8667" lon="5.70033">
        <ele>539.28</ele>
        <time>2019-11-01T14:03:17Z</time>
      </trkpt>
      <trkpt lat="44.86672" lon="5.70031">
        <ele>539.26</ele>
        <time>2019-11-01T14:03:18Z</time>
      </trkpt>
      <trkpt lat="44.86675" lon="5.70029">
        <ele>539.18</ele>
        <time>2019-11-01T14:03:19Z</time>
      </trkpt>
      <trkpt lat="44.86679" lon="5.70028">
        <ele>539.16</ele>
        <time>2019-11-01T14:03:20Z</time>
      </trkpt>
      <trkpt lat="44.86682" lon="5.70028">
        <ele>539.22</ele>
        <time>2019-11-01T14:03:21Z</time>
      </trkpt>
      <trkpt lat="44.86684" lon="5.70028">
        <ele>539.24</ele>
        <time>2019-11-01T14:03:22Z</time>
      </trkpt>
      <trkpt lat="44.86686" lon="5.70027">
        <ele>539.09</ele>
        <time>2019-11-01T14:03:24Z</time>
      </trkpt>
      <trkpt lat="44.86689" lon="5.70022">
        <ele>538.13</ele>
        <time>2019-11-01T14:03:39Z</time>
      </trkpt>
      <trkpt lat="44.8669" lon="5.70018">
        <ele>538</ele>
        <time>2019-11-01T14:03:40Z</time>
      </trkpt>
      <trkpt lat="44.8669" lon="5.70014">
        <ele>537.97</ele>
        <time>2019-11-01T14:03:41Z</time>
      </trkpt>
      <trkpt lat="44.86691" lon="5.70012">
        <ele>537.95</ele>
        <time>2019-11-01T14:03:42Z</time>
      </trkpt>
      <trkpt lat="44.86694" lon="5.70012">
        <ele>537.97</ele>
        <time>2019-11-01T14:03:44Z</time>
      </trkpt>
      <trkpt lat="44.86697" lon="5.70014">
        <ele>537.96</ele>
        <time>2019-11-01T14:03:45Z</time>
      </trkpt>
      <trkpt lat="44.86699" lon="5.70016">
        <ele>537.95</ele>
        <time>2019-11-01T14:03:46Z</time>
      </trkpt>
      <trkpt lat="44.86701" lon="5.70018">
        <ele>537.95</ele>
        <time>2019-11-01T14:03:47Z</time>
      </trkpt>
      <trkpt lat="44.86702" lon="5.70021">
        <ele>537.97</ele>
        <time>2019-11-01T14:03:49Z</time>
      </trkpt>
      <trkpt lat="44.86709" lon="5.7002">
        <ele>537.18</ele>
        <time>2019-11-01T14:04:29Z</time>
      </trkpt>
      <trkpt lat="44.86711" lon="5.70016">
        <ele>536.79</ele>
        <time>2019-11-01T14:04:31Z</time>
      </trkpt>
      <trkpt lat="44.86711" lon="5.70006">
        <ele>534.03</ele>
        <time>2019-11-01T14:04:48Z</time>
      </trkpt>
      <trkpt lat="44.86713" lon="5.70005">
        <ele>532.4</ele>
        <time>2019-11-01T14:04:50Z</time>
      </trkpt>
      <trkpt lat="44.86715" lon="5.70008">
        <ele>531.71</ele>
        <time>2019-11-01T14:05:08Z</time>
      </trkpt>
      <trkpt lat="44.86716" lon="5.70012">
        <ele>531.67</ele>
        <time>2019-11-01T14:05:09Z</time>
      </trkpt>
      <trkpt lat="44.86717" lon="5.70015">
        <ele>531.72</ele>
        <time>2019-11-01T14:05:10Z</time>
      </trkpt>
      <trkpt lat="44.86718" lon="5.70019">
        <ele>531.74</ele>
        <time>2019-11-01T14:05:11Z</time>
      </trkpt>
      <trkpt lat="44.8672" lon="5.70022">
        <ele>531.84</ele>
        <time>2019-11-01T14:05:13Z</time>
      </trkpt>
      <trkpt lat="44.8672" lon="5.70026">
        <ele>531.85</ele>
        <time>2019-11-01T14:05:14Z</time>
      </trkpt>
      <trkpt lat="44.86718" lon="5.70031">
        <ele>531.85</ele>
        <time>2019-11-01T14:05:16Z</time>
      </trkpt>
      <trkpt lat="44.86716" lon="5.70035">
        <ele>531.94</ele>
        <time>2019-11-01T14:05:18Z</time>
      </trkpt>
      <trkpt lat="44.86715" lon="5.70038">
        <ele>531.95</ele>
        <time>2019-11-01T14:05:19Z</time>
      </trkpt>
      <trkpt lat="44.86714" lon="5.70041">
        <ele>531.95</ele>
        <time>2019-11-01T14:05:20Z</time>
      </trkpt>
      <trkpt lat="44.86714" lon="5.70044">
        <ele>531.95</ele>
        <time>2019-11-01T14:05:21Z</time>
      </trkpt>
      <trkpt lat="44.86721" lon="5.70056">
        <ele>530.58</ele>
        <time>2019-11-01T14:05:55Z</time>
      </trkpt>
      <trkpt lat="44.86721" lon="5.70068">
        <ele>528.86</ele>
        <time>2019-11-01T14:06:02Z</time>
      </trkpt>
      <trkpt lat="44.86722" lon="5.70072">
        <ele>528.5</ele>
        <time>2019-11-01T14:06:03Z</time>
      </trkpt>
      <trkpt lat="44.86722" lon="5.70076">
        <ele>528.04</ele>
        <time>2019-11-01T14:06:04Z</time>
      </trkpt>
      <trkpt lat="44.86722" lon="5.70079">
        <ele>527.77</ele>
        <time>2019-11-01T14:06:05Z</time>
      </trkpt>
      <trkpt lat="44.86722" lon="5.70082">
        <ele>527.47</ele>
        <time>2019-11-01T14:06:06Z</time>
      </trkpt>
      <trkpt lat="44.86723" lon="5.70087">
        <ele>527.18</ele>
        <time>2019-11-01T14:06:07Z</time>
      </trkpt>
      <trkpt lat="44.86723" lon="5.70092">
        <ele>526.88</ele>
        <time>2019-11-01T14:06:08Z</time>
      </trkpt>
      <trkpt lat="44.86723" lon="5.70096">
        <ele>526.58</ele>
        <time>2019-11-01T14:06:09Z</time>
      </trkpt>
      <trkpt lat="44.86723" lon="5.70099">
        <ele>526.21</ele>
        <time>2019-11-01T14:06:10Z</time>
      </trkpt>
      <trkpt lat="44.86723" lon="5.70105">
        <ele>525.75</ele>
        <time>2019-11-01T14:06:11Z</time>
      </trkpt>
      <trkpt lat="44.86723" lon="5.70111">
        <ele>525.33</ele>
        <time>2019-11-01T14:06:12Z</time>
      </trkpt>
      <trkpt lat="44.86722" lon="5.70119">
        <ele>524.78</ele>
        <time>2019-11-01T14:06:13Z</time>
      </trkpt>
      <trkpt lat="44.86722" lon="5.70128">
        <ele>524.27</ele>
        <time>2019-11-01T14:06:14Z</time>
      </trkpt>
      <trkpt lat="44.86723" lon="5.70136">
        <ele>523.63</ele>
        <time>2019-11-01T14:06:15Z</time>
      </trkpt>
      <trkpt lat="44.86724" lon="5.70143">
        <ele>523.01</ele>
        <time>2019-11-01T14:06:16Z</time>
      </trkpt>
      <trkpt lat="44.86723" lon="5.70152">
        <ele>522.27</ele>
        <time>2019-11-01T14:06:17Z</time>
      </trkpt>
      <trkpt lat="44.86723" lon="5.70159">
        <ele>521.76</ele>
        <time>2019-11-01T14:06:18Z</time>
      </trkpt>
      <trkpt lat="44.86724" lon="5.70166">
        <ele>521.26</ele>
        <time>2019-11-01T14:06:19Z</time>
      </trkpt>
      <trkpt lat="44.86726" lon="5.70176">
        <ele>520.62</ele>
        <time>2019-11-01T14:06:20Z</time>
      </trkpt>
      <trkpt lat="44.86729" lon="5.70185">
        <ele>519.94</ele>
        <time>2019-11-01T14:06:21Z</time>
      </trkpt>
      <trkpt lat="44.86731" lon="5.70194">
        <ele>519.39</ele>
        <time>2019-11-01T14:06:22Z</time>
      </trkpt>
      <trkpt lat="44.86734" lon="5.70202">
        <ele>518.94</ele>
        <time>2019-11-01T14:06:23Z</time>
      </trkpt>
      <trkpt lat="44.86738" lon="5.70209">
        <ele>518.46</ele>
        <time>2019-11-01T14:06:24Z</time>
      </trkpt>
      <trkpt lat="44.86739" lon="5.70215">
        <ele>518.1</ele>
        <time>2019-11-01T14:06:25Z</time>
      </trkpt>
      <trkpt lat="44.86741" lon="5.70221">
        <ele>517.78</ele>
        <time>2019-11-01T14:06:26Z</time>
      </trkpt>
      <trkpt lat="44.86744" lon="5.70226">
        <ele>517.41</ele>
        <time>2019-11-01T14:06:27Z</time>
      </trkpt>
      <trkpt lat="44.86746" lon="5.70232">
        <ele>517.02</ele>
        <time>2019-11-01T14:06:28Z</time>
      </trkpt>
      <trkpt lat="44.86747" lon="5.70239">
        <ele>516.62</ele>
        <time>2019-11-01T14:06:29Z</time>
      </trkpt>
      <trkpt lat="44.86748" lon="5.70246">
        <ele>516.15</ele>
        <time>2019-11-01T14:06:30Z</time>
      </trkpt>
      <trkpt lat="44.86753" lon="5.70251">
        <ele>515.45</ele>
        <time>2019-11-01T14:06:31Z</time>
      </trkpt>
      <trkpt lat="44.86756" lon="5.70256">
        <ele>514.89</ele>
        <time>2019-11-01T14:06:32Z</time>
      </trkpt>
      <trkpt lat="44.8676" lon="5.70261">
        <ele>514.44</ele>
        <time>2019-11-01T14:06:33Z</time>
      </trkpt>
      <trkpt lat="44.86766" lon="5.70265">
        <ele>513.89</ele>
        <time>2019-11-01T14:06:34Z</time>
      </trkpt>
      <trkpt lat="44.86769" lon="5.70272">
        <ele>513.16</ele>
        <time>2019-11-01T14:06:35Z</time>
      </trkpt>
      <trkpt lat="44.86774" lon="5.7028">
        <ele>512.52</ele>
        <time>2019-11-01T14:06:36Z</time>
      </trkpt>
      <trkpt lat="44.86779" lon="5.70285">
        <ele>512.05</ele>
        <time>2019-11-01T14:06:37Z</time>
      </trkpt>
      <trkpt lat="44.86781" lon="5.7029">
        <ele>511.42</ele>
        <time>2019-11-01T14:06:38Z</time>
      </trkpt>
      <trkpt lat="44.8678" lon="5.70295">
        <ele>510.6</ele>
        <time>2019-11-01T14:06:39Z</time>
      </trkpt>
      <trkpt lat="44.86777" lon="5.703">
        <ele>509.51</ele>
        <time>2019-11-01T14:06:40Z</time>
      </trkpt>
      <trkpt lat="44.86776" lon="5.70303">
        <ele>508.7</ele>
        <time>2019-11-01T14:06:41Z</time>
      </trkpt>
      <trkpt lat="44.86777" lon="5.70308">
        <ele>507.25</ele>
        <time>2019-11-01T14:06:43Z</time>
      </trkpt>
      <trkpt lat="44.86779" lon="5.70311">
        <ele>505.35</ele>
        <time>2019-11-01T14:06:45Z</time>
      </trkpt>
      <trkpt lat="44.86781" lon="5.70311">
        <ele>504.58</ele>
        <time>2019-11-01T14:06:46Z</time>
      </trkpt>
      <trkpt lat="44.86783" lon="5.70312">
        <ele>503.72</ele>
        <time>2019-11-01T14:06:47Z</time>
      </trkpt>
      <trkpt lat="44.86786" lon="5.70314">
        <ele>502.83</ele>
        <time>2019-11-01T14:06:48Z</time>
      </trkpt>
      <trkpt lat="44.86788" lon="5.70316">
        <ele>501.86</ele>
        <time>2019-11-01T14:06:49Z</time>
      </trkpt>
      <trkpt lat="44.86791" lon="5.70317">
        <ele>501.08</ele>
        <time>2019-11-01T14:06:50Z</time>
      </trkpt>
      <trkpt lat="44.86793" lon="5.7032">
        <ele>500.36</ele>
        <time>2019-11-01T14:06:51Z</time>
      </trkpt>
      <trkpt lat="44.86794" lon="5.70323">
        <ele>499.65</ele>
        <time>2019-11-01T14:06:52Z</time>
      </trkpt>
      <trkpt lat="44.86797" lon="5.70325">
        <ele>499.02</ele>
        <time>2019-11-01T14:06:53Z</time>
      </trkpt>
      <trkpt lat="44.86799" lon="5.70328">
        <ele>498.34</ele>
        <time>2019-11-01T14:06:54Z</time>
      </trkpt>
      <trkpt lat="44.86802" lon="5.70331">
        <ele>497.65</ele>
        <time>2019-11-01T14:06:55Z</time>
      </trkpt>
      <trkpt lat="44.86804" lon="5.70333">
        <ele>497.02</ele>
        <time>2019-11-01T14:06:56Z</time>
      </trkpt>
      <trkpt lat="44.86806" lon="5.70335">
        <ele>496.41</ele>
        <time>2019-11-01T14:06:57Z</time>
      </trkpt>
      <trkpt lat="44.86808" lon="5.70337">
        <ele>495.81</ele>
        <time>2019-11-01T14:06:58Z</time>
      </trkpt>
      <trkpt lat="44.8681" lon="5.70338">
        <ele>495.21</ele>
        <time>2019-11-01T14:06:59Z</time>
      </trkpt>
      <trkpt lat="44.86814" lon="5.70343">
        <ele>494.12</ele>
        <time>2019-11-01T14:07:00Z</time>
      </trkpt>
      <trkpt lat="44.86817" lon="5.70346">
        <ele>493.16</ele>
        <time>2019-11-01T14:07:01Z</time>
      </trkpt>
      <trkpt lat="44.86819" lon="5.70349">
        <ele>492.31</ele>
        <time>2019-11-01T14:07:02Z</time>
      </trkpt>
      <trkpt lat="44.86822" lon="5.70353">
        <ele>491.43</ele>
        <time>2019-11-01T14:07:03Z</time>
      </trkpt>
      <trkpt lat="44.86823" lon="5.70358">
        <ele>490.6</ele>
        <time>2019-11-01T14:07:04Z</time>
      </trkpt>
      <trkpt lat="44.86824" lon="5.70369">
        <ele>488.96</ele>
        <time>2019-11-01T14:07:05Z</time>
      </trkpt>
      <trkpt lat="44.86824" lon="5.70379">
        <ele>486.85</ele>
        <time>2019-11-01T14:07:06Z</time>
      </trkpt>
      <trkpt lat="44.86826" lon="5.70386">
        <ele>485.31</ele>
        <time>2019-11-01T14:07:07Z</time>
      </trkpt>
      <trkpt lat="44.86828" lon="5.70392">
        <ele>484.01</ele>
        <time>2019-11-01T14:07:08Z</time>
      </trkpt>
      <trkpt lat="44.86828" lon="5.70399">
        <ele>482.5</ele>
        <time>2019-11-01T14:07:09Z</time>
      </trkpt>
      <trkpt lat="44.86831" lon="5.70405">
        <ele>479.45</ele>
        <time>2019-11-01T14:07:10Z</time>
      </trkpt>
      <trkpt lat="44.8683" lon="5.70414">
        <ele>477.7</ele>
        <time>2019-11-01T14:07:11Z</time>
      </trkpt>
      <trkpt lat="44.86829" lon="5.70422">
        <ele>476.33</ele>
        <time>2019-11-01T14:07:12Z</time>
      </trkpt>
      <trkpt lat="44.86827" lon="5.70431">
        <ele>475.08</ele>
        <time>2019-11-01T14:07:13Z</time>
      </trkpt>
      <trkpt lat="44.86825" lon="5.70441">
        <ele>473.94</ele>
        <time>2019-11-01T14:07:14Z</time>
      </trkpt>
      <trkpt lat="44.86826" lon="5.7045">
        <ele>472.83</ele>
        <time>2019-11-01T14:07:15Z</time>
      </trkpt>
      <trkpt lat="44.86827" lon="5.7046">
        <ele>471.86</ele>
        <time>2019-11-01T14:07:16Z</time>
      </trkpt>
      <trkpt lat="44.86828" lon="5.70468">
        <ele>471.01</ele>
        <time>2019-11-01T14:07:17Z</time>
      </trkpt>
      <trkpt lat="44.8683" lon="5.70476">
        <ele>470.13</ele>
        <time>2019-11-01T14:07:18Z</time>
      </trkpt>
      <trkpt lat="44.86831" lon="5.70482">
        <ele>469.23</ele>
        <time>2019-11-01T14:07:19Z</time>
      </trkpt>
      <trkpt lat="44.86832" lon="5.70485">
        <ele>468.33</ele>
        <time>2019-11-01T14:07:20Z</time>
      </trkpt>
      <trkpt lat="44.86834" lon="5.7049">
        <ele>467.57</ele>
        <time>2019-11-01T14:07:21Z</time>
      </trkpt>
      <trkpt lat="44.86836" lon="5.70494">
        <ele>466.72</ele>
        <time>2019-11-01T14:07:22Z</time>
      </trkpt>
      <trkpt lat="44.86839" lon="5.70498">
        <ele>465.9</ele>
        <time>2019-11-01T14:07:23Z</time>
      </trkpt>
      <trkpt lat="44.86843" lon="5.70501">
        <ele>464.95</ele>
        <time>2019-11-01T14:07:24Z</time>
      </trkpt>
      <trkpt lat="44.86847" lon="5.70504">
        <ele>463.97</ele>
        <time>2019-11-01T14:07:25Z</time>
      </trkpt>
      <trkpt lat="44.86851" lon="5.70508">
        <ele>462.91</ele>
        <time>2019-11-01T14:07:26Z</time>
      </trkpt>
      <trkpt lat="44.86855" lon="5.70514">
        <ele>461.75</ele>
        <time>2019-11-01T14:07:27Z</time>
      </trkpt>
      <trkpt lat="44.86855" lon="5.70523">
        <ele>460.63</ele>
        <time>2019-11-01T14:07:28Z</time>
      </trkpt>
      <trkpt lat="44.86857" lon="5.70529">
        <ele>459.59</ele>
        <time>2019-11-01T14:07:29Z</time>
      </trkpt>
      <trkpt lat="44.8686" lon="5.70534">
        <ele>458.79</ele>
        <time>2019-11-01T14:07:30Z</time>
      </trkpt>
      <trkpt lat="44.8686" lon="5.70539">
        <ele>457.99</ele>
        <time>2019-11-01T14:07:31Z</time>
      </trkpt>
      <trkpt lat="44.8686" lon="5.70542">
        <ele>457.26</ele>
        <time>2019-11-01T14:07:32Z</time>
      </trkpt>
      <trkpt lat="44.86859" lon="5.70546">
        <ele>455.76</ele>
        <time>2019-11-01T14:07:34Z</time>
      </trkpt>
      <trkpt lat="44.86857" lon="5.70548">
        <ele>454.19</ele>
        <time>2019-11-01T14:07:36Z</time>
      </trkpt>
      <trkpt lat="44.86855" lon="5.70547">
        <ele>453.39</ele>
        <time>2019-11-01T14:07:37Z</time>
      </trkpt>
      <trkpt lat="44.86853" lon="5.70547">
        <ele>452.66</ele>
        <time>2019-11-01T14:07:38Z</time>
      </trkpt>
      <trkpt lat="44.86851" lon="5.70546">
        <ele>451.88</ele>
        <time>2019-11-01T14:07:39Z</time>
      </trkpt>
      <trkpt lat="44.86849" lon="5.70547">
        <ele>451.09</ele>
        <time>2019-11-01T14:07:40Z</time>
      </trkpt>
      <trkpt lat="44.86848" lon="5.70549">
        <ele>450.36</ele>
        <time>2019-11-01T14:07:41Z</time>
      </trkpt>
      <trkpt lat="44.86846" lon="5.70553">
        <ele>448.86</ele>
        <time>2019-11-01T14:07:43Z</time>
      </trkpt>
      <trkpt lat="44.86845" lon="5.70556">
        <ele>448.22</ele>
        <time>2019-11-01T14:07:44Z</time>
      </trkpt>
      <trkpt lat="44.86845" lon="5.70559">
        <ele>446.92</ele>
        <time>2019-11-01T14:07:46Z</time>
      </trkpt>
      <trkpt lat="44.8684" lon="5.70571">
        <ele>445.32</ele>
        <time>2019-11-01T14:08:20Z</time>
      </trkpt>
      <trkpt lat="44.86836" lon="5.70577">
        <ele>445.74</ele>
        <time>2019-11-01T14:08:52Z</time>
      </trkpt>
      <trkpt lat="44.86834" lon="5.7058">
        <ele>446.09</ele>
        <time>2019-11-01T14:08:54Z</time>
      </trkpt>
      <trkpt lat="44.86832" lon="5.70582">
        <ele>446.4</ele>
        <time>2019-11-01T14:08:56Z</time>
      </trkpt>
      <trkpt lat="44.8683" lon="5.70586">
        <ele>446.57</ele>
        <time>2019-11-01T14:08:57Z</time>
      </trkpt>
      <trkpt lat="44.86828" lon="5.7059">
        <ele>446.87</ele>
        <time>2019-11-01T14:08:59Z</time>
      </trkpt>
      <trkpt lat="44.86827" lon="5.70593">
        <ele>447.17</ele>
        <time>2019-11-01T14:09:01Z</time>
      </trkpt>
      <trkpt lat="44.86826" lon="5.70595">
        <ele>447.47</ele>
        <time>2019-11-01T14:09:03Z</time>
      </trkpt>
      <trkpt lat="44.86825" lon="5.70598">
        <ele>447.77</ele>
        <time>2019-11-01T14:09:05Z</time>
      </trkpt>
      <trkpt lat="44.86824" lon="5.706">
        <ele>448.07</ele>
        <time>2019-11-01T14:09:07Z</time>
      </trkpt>
      <trkpt lat="44.86823" lon="5.70602">
        <ele>448.37</ele>
        <time>2019-11-01T14:09:09Z</time>
      </trkpt>
      <trkpt lat="44.86822" lon="5.70605">
        <ele>448.69</ele>
        <time>2019-11-01T14:09:11Z</time>
      </trkpt>
      <trkpt lat="44.86821" lon="5.70609">
        <ele>449</ele>
        <time>2019-11-01T14:09:13Z</time>
      </trkpt>
      <trkpt lat="44.8682" lon="5.70612">
        <ele>449.3</ele>
        <time>2019-11-01T14:09:15Z</time>
      </trkpt>
      <trkpt lat="44.86819" lon="5.70616">
        <ele>449.67</ele>
        <time>2019-11-01T14:09:17Z</time>
      </trkpt>
      <trkpt lat="44.86818" lon="5.70618">
        <ele>449.97</ele>
        <time>2019-11-01T14:09:19Z</time>
      </trkpt>
      <trkpt lat="44.86817" lon="5.70621">
        <ele>450.27</ele>
        <time>2019-11-01T14:09:21Z</time>
      </trkpt>
      <trkpt lat="44.86815" lon="5.70624">
        <ele>450.77</ele>
        <time>2019-11-01T14:09:24Z</time>
      </trkpt>
      <trkpt lat="44.8681" lon="5.70633">
        <ele>452.11</ele>
        <time>2019-11-01T14:09:34Z</time>
      </trkpt>
      <trkpt lat="44.86808" lon="5.70636">
        <ele>452.56</ele>
        <time>2019-11-01T14:09:35Z</time>
      </trkpt>
      <trkpt lat="44.86807" lon="5.70639">
        <ele>452.98</ele>
        <time>2019-11-01T14:09:37Z</time>
      </trkpt>
      <trkpt lat="44.86807" lon="5.70645">
        <ele>453.47</ele>
        <time>2019-11-01T14:09:40Z</time>
      </trkpt>
      <trkpt lat="44.86806" lon="5.70649">
        <ele>453.95</ele>
        <time>2019-11-01T14:09:42Z</time>
      </trkpt>
      <trkpt lat="44.86807" lon="5.70652">
        <ele>454.36</ele>
        <time>2019-11-01T14:09:44Z</time>
      </trkpt>
      <trkpt lat="44.86808" lon="5.70655">
        <ele>454.69</ele>
        <time>2019-11-01T14:09:46Z</time>
      </trkpt>
      <trkpt lat="44.86803" lon="5.70668">
        <ele>456.21</ele>
        <time>2019-11-01T14:09:57Z</time>
      </trkpt>
      <trkpt lat="44.86802" lon="5.70672">
        <ele>457.02</ele>
        <time>2019-11-01T14:09:59Z</time>
      </trkpt>
      <trkpt lat="44.86801" lon="5.70679">
        <ele>457.77</ele>
        <time>2019-11-01T14:10:03Z</time>
      </trkpt>
      <trkpt lat="44.86799" lon="5.70682">
        <ele>458.1</ele>
        <time>2019-11-01T14:10:04Z</time>
      </trkpt>
      <trkpt lat="44.86798" lon="5.70686">
        <ele>458.56</ele>
        <time>2019-11-01T14:10:06Z</time>
      </trkpt>
      <trkpt lat="44.86796" lon="5.70688">
        <ele>458.76</ele>
        <time>2019-11-01T14:10:07Z</time>
      </trkpt>
      <trkpt lat="44.86795" lon="5.7069">
        <ele>458.96</ele>
        <time>2019-11-01T14:10:08Z</time>
      </trkpt>
      <trkpt lat="44.86793" lon="5.70693">
        <ele>459.16</ele>
        <time>2019-11-01T14:10:09Z</time>
      </trkpt>
      <trkpt lat="44.86793" lon="5.70696">
        <ele>459.49</ele>
        <time>2019-11-01T14:10:11Z</time>
      </trkpt>
      <trkpt lat="44.86793" lon="5.70698">
        <ele>459.94</ele>
        <time>2019-11-01T14:10:13Z</time>
      </trkpt>
      <trkpt lat="44.86794" lon="5.70702">
        <ele>460.36</ele>
        <time>2019-11-01T14:10:15Z</time>
      </trkpt>
      <trkpt lat="44.86794" lon="5.70706">
        <ele>460.76</ele>
        <time>2019-11-01T14:10:17Z</time>
      </trkpt>
      <trkpt lat="44.86791" lon="5.70709">
        <ele>461.17</ele>
        <time>2019-11-01T14:10:18Z</time>
      </trkpt>
      <trkpt lat="44.86792" lon="5.70711">
        <ele>461.44</ele>
        <time>2019-11-01T14:10:19Z</time>
      </trkpt>
      <trkpt lat="44.86793" lon="5.70714">
        <ele>461.93</ele>
        <time>2019-11-01T14:10:21Z</time>
      </trkpt>
      <trkpt lat="44.86794" lon="5.70716">
        <ele>462.15</ele>
        <time>2019-11-01T14:10:22Z</time>
      </trkpt>
      <trkpt lat="44.86794" lon="5.7072">
        <ele>462.56</ele>
        <time>2019-11-01T14:10:24Z</time>
      </trkpt>
      <trkpt lat="44.86794" lon="5.70723">
        <ele>462.96</ele>
        <time>2019-11-01T14:10:26Z</time>
      </trkpt>
      <trkpt lat="44.86793" lon="5.70726">
        <ele>463.23</ele>
        <time>2019-11-01T14:10:27Z</time>
      </trkpt>
      <trkpt lat="44.86793" lon="5.70729">
        <ele>463.86</ele>
        <time>2019-11-01T14:10:30Z</time>
      </trkpt>
      <trkpt lat="44.86793" lon="5.70732">
        <ele>464.26</ele>
        <time>2019-11-01T14:10:32Z</time>
      </trkpt>
      <trkpt lat="44.86792" lon="5.70735">
        <ele>464.66</ele>
        <time>2019-11-01T14:10:34Z</time>
      </trkpt>
      <trkpt lat="44.86793" lon="5.70738">
        <ele>465.06</ele>
        <time>2019-11-01T14:10:36Z</time>
      </trkpt>
      <trkpt lat="44.86793" lon="5.70742">
        <ele>465.46</ele>
        <time>2019-11-01T14:10:38Z</time>
      </trkpt>
      <trkpt lat="44.86792" lon="5.70746">
        <ele>466</ele>
        <time>2019-11-01T14:10:40Z</time>
      </trkpt>
      <trkpt lat="44.86793" lon="5.70748">
        <ele>466.46</ele>
        <time>2019-11-01T14:10:42Z</time>
      </trkpt>
      <trkpt lat="44.86793" lon="5.70752">
        <ele>466.86</ele>
        <time>2019-11-01T14:10:44Z</time>
      </trkpt>
      <trkpt lat="44.86793" lon="5.70755">
        <ele>467.26</ele>
        <time>2019-11-01T14:10:46Z</time>
      </trkpt>
      <trkpt lat="44.86793" lon="5.70758">
        <ele>467.66</ele>
        <time>2019-11-01T14:10:48Z</time>
      </trkpt>
      <trkpt lat="44.86792" lon="5.70762">
        <ele>468.06</ele>
        <time>2019-11-01T14:10:50Z</time>
      </trkpt>
      <trkpt lat="44.8679" lon="5.70765">
        <ele>468.46</ele>
        <time>2019-11-01T14:10:52Z</time>
      </trkpt>
      <trkpt lat="44.86791" lon="5.70768">
        <ele>468.86</ele>
        <time>2019-11-01T14:10:54Z</time>
      </trkpt>
      <trkpt lat="44.86791" lon="5.70771">
        <ele>469.26</ele>
        <time>2019-11-01T14:10:56Z</time>
      </trkpt>
      <trkpt lat="44.8679" lon="5.70779">
        <ele>470.67</ele>
        <time>2019-11-01T14:11:11Z</time>
      </trkpt>
      <trkpt lat="44.86789" lon="5.70781">
        <ele>471.2</ele>
        <time>2019-11-01T14:11:13Z</time>
      </trkpt>
      <trkpt lat="44.86789" lon="5.70785">
        <ele>471.34</ele>
        <time>2019-11-01T14:11:15Z</time>
      </trkpt>
      <trkpt lat="44.86789" lon="5.70788">
        <ele>471.42</ele>
        <time>2019-11-01T14:11:17Z</time>
      </trkpt>
      <trkpt lat="44.86791" lon="5.7079">
        <ele>471.52</ele>
        <time>2019-11-01T14:11:19Z</time>
      </trkpt>
      <trkpt lat="44.86792" lon="5.70792">
        <ele>471.54</ele>
        <time>2019-11-01T14:11:20Z</time>
      </trkpt>
      <trkpt lat="44.86794" lon="5.70793">
        <ele>471.55</ele>
        <time>2019-11-01T14:11:21Z</time>
      </trkpt>
      <trkpt lat="44.86796" lon="5.70796">
        <ele>471.62</ele>
        <time>2019-11-01T14:11:23Z</time>
      </trkpt>
      <trkpt lat="44.86798" lon="5.70798">
        <ele>471.64</ele>
        <time>2019-11-01T14:11:24Z</time>
      </trkpt>
      <trkpt lat="44.868" lon="5.708">
        <ele>471.72</ele>
        <time>2019-11-01T14:11:25Z</time>
      </trkpt>
      <trkpt lat="44.86803" lon="5.70803">
        <ele>471.74</ele>
        <time>2019-11-01T14:11:26Z</time>
      </trkpt>
      <trkpt lat="44.86806" lon="5.70806">
        <ele>471.75</ele>
        <time>2019-11-01T14:11:27Z</time>
      </trkpt>
      <trkpt lat="44.8681" lon="5.7081">
        <ele>471.82</ele>
        <time>2019-11-01T14:11:28Z</time>
      </trkpt>
      <trkpt lat="44.86815" lon="5.70813">
        <ele>471.77</ele>
        <time>2019-11-01T14:11:29Z</time>
      </trkpt>
      <trkpt lat="44.86819" lon="5.70817">
        <ele>471.69</ele>
        <time>2019-11-01T14:11:30Z</time>
      </trkpt>
      <trkpt lat="44.86825" lon="5.70822">
        <ele>471.66</ele>
        <time>2019-11-01T14:11:31Z</time>
      </trkpt>
      <trkpt lat="44.8683" lon="5.70826">
        <ele>471.58</ele>
        <time>2019-11-01T14:11:32Z</time>
      </trkpt>
      <trkpt lat="44.86837" lon="5.70832">
        <ele>471.7</ele>
        <time>2019-11-01T14:11:33Z</time>
      </trkpt>
      <trkpt lat="44.86843" lon="5.70839">
        <ele>471.87</ele>
        <time>2019-11-01T14:11:34Z</time>
      </trkpt>
      <trkpt lat="44.8685" lon="5.70844">
        <ele>471.93</ele>
        <time>2019-11-01T14:11:35Z</time>
      </trkpt>
      <trkpt lat="44.86857" lon="5.70849">
        <ele>471.94</ele>
        <time>2019-11-01T14:11:36Z</time>
      </trkpt>
      <trkpt lat="44.86864" lon="5.70855">
        <ele>471.88</ele>
        <time>2019-11-01T14:11:37Z</time>
      </trkpt>
      <trkpt lat="44.86871" lon="5.70861">
        <ele>471.86</ele>
        <time>2019-11-01T14:11:38Z</time>
      </trkpt>
      <trkpt lat="44.86875" lon="5.70871">
        <ele>471.92</ele>
        <time>2019-11-01T14:11:39Z</time>
      </trkpt>
      <trkpt lat="44.86881" lon="5.70879">
        <ele>471.94</ele>
        <time>2019-11-01T14:11:40Z</time>
      </trkpt>
      <trkpt lat="44.86888" lon="5.70884">
        <ele>471.88</ele>
        <time>2019-11-01T14:11:41Z</time>
      </trkpt>
      <trkpt lat="44.86892" lon="5.70888">
        <ele>471.72</ele>
        <time>2019-11-01T14:11:42Z</time>
      </trkpt>
      <trkpt lat="44.86894" lon="5.70895">
        <ele>471.67</ele>
        <time>2019-11-01T14:11:43Z</time>
      </trkpt>
      <trkpt lat="44.86897" lon="5.70898">
        <ele>471.8</ele>
        <time>2019-11-01T14:11:44Z</time>
      </trkpt>
      <trkpt lat="44.869" lon="5.70901">
        <ele>471.83</ele>
        <time>2019-11-01T14:11:45Z</time>
      </trkpt>
      <trkpt lat="44.86903" lon="5.70902">
        <ele>471.49</ele>
        <time>2019-11-01T14:11:46Z</time>
      </trkpt>
      <trkpt lat="44.86906" lon="5.70902">
        <ele>470.76</ele>
        <time>2019-11-01T14:11:47Z</time>
      </trkpt>
      <trkpt lat="44.8691" lon="5.70904">
        <ele>471.17</ele>
        <time>2019-11-01T14:11:48Z</time>
      </trkpt>
      <trkpt lat="44.86912" lon="5.70906">
        <ele>471.58</ele>
        <time>2019-11-01T14:11:49Z</time>
      </trkpt>
      <trkpt lat="44.86914" lon="5.70907">
        <ele>471.84</ele>
        <time>2019-11-01T14:11:50Z</time>
      </trkpt>
      <trkpt lat="44.86916" lon="5.70909">
        <ele>471.85</ele>
        <time>2019-11-01T14:11:51Z</time>
      </trkpt>
      <trkpt lat="44.86918" lon="5.7091">
        <ele>471.85</ele>
        <time>2019-11-01T14:11:52Z</time>
      </trkpt>
      <trkpt lat="44.86921" lon="5.7091">
        <ele>471.5</ele>
        <time>2019-11-01T14:11:53Z</time>
      </trkpt>
      <trkpt lat="44.86922" lon="5.70912">
        <ele>472.09</ele>
        <time>2019-11-01T14:11:54Z</time>
      </trkpt>
      <trkpt lat="44.86924" lon="5.70914">
        <ele>472.27</ele>
        <time>2019-11-01T14:11:55Z</time>
      </trkpt>
      <trkpt lat="44.86927" lon="5.70915">
        <ele>472.47</ele>
        <time>2019-11-01T14:11:56Z</time>
      </trkpt>
      <trkpt lat="44.86928" lon="5.70917">
        <ele>472.59</ele>
        <time>2019-11-01T14:11:57Z</time>
      </trkpt>
      <trkpt lat="44.8693" lon="5.70919">
        <ele>472.7</ele>
        <time>2019-11-01T14:11:58Z</time>
      </trkpt>
      <trkpt lat="44.86933" lon="5.7092">
        <ele>472.88</ele>
        <time>2019-11-01T14:11:59Z</time>
      </trkpt>
      <trkpt lat="44.86935" lon="5.70921">
        <ele>473.07</ele>
        <time>2019-11-01T14:12:00Z</time>
      </trkpt>
      <trkpt lat="44.86937" lon="5.70922">
        <ele>473.19</ele>
        <time>2019-11-01T14:12:01Z</time>
      </trkpt>
      <trkpt lat="44.86939" lon="5.70924">
        <ele>473.37</ele>
        <time>2019-11-01T14:12:02Z</time>
      </trkpt>
      <trkpt lat="44.86941" lon="5.70925">
        <ele>473.57</ele>
        <time>2019-11-01T14:12:03Z</time>
      </trkpt>
      <trkpt lat="44.86942" lon="5.70926">
        <ele>473.76</ele>
        <time>2019-11-01T14:12:04Z</time>
      </trkpt>
      <trkpt lat="44.86944" lon="5.70927">
        <ele>473.96</ele>
        <time>2019-11-01T14:12:05Z</time>
      </trkpt>
      <trkpt lat="44.86946" lon="5.70928">
        <ele>474.09</ele>
        <time>2019-11-01T14:12:06Z</time>
      </trkpt>
      <trkpt lat="44.86949" lon="5.70931">
        <ele>474.47</ele>
        <time>2019-11-01T14:12:08Z</time>
      </trkpt>
      <trkpt lat="44.8695" lon="5.70931">
        <ele>474.59</ele>
        <time>2019-11-01T14:12:09Z</time>
      </trkpt>
      <trkpt lat="44.86952" lon="5.70932">
        <ele>474.77</ele>
        <time>2019-11-01T14:12:10Z</time>
      </trkpt>
      <trkpt lat="44.86955" lon="5.70934">
        <ele>475.09</ele>
        <time>2019-11-01T14:12:12Z</time>
      </trkpt>
      <trkpt lat="44.86957" lon="5.70936">
        <ele>475.31</ele>
        <time>2019-11-01T14:12:14Z</time>
      </trkpt>
      <trkpt lat="44.8696" lon="5.70936">
        <ele>475.58</ele>
        <time>2019-11-01T14:12:16Z</time>
      </trkpt>
      <trkpt lat="44.86962" lon="5.70938">
        <ele>475.87</ele>
        <time>2019-11-01T14:12:18Z</time>
      </trkpt>
      <trkpt lat="44.86965" lon="5.70938">
        <ele>476.17</ele>
        <time>2019-11-01T14:12:20Z</time>
      </trkpt>
      <trkpt lat="44.86967" lon="5.70939">
        <ele>476.56</ele>
        <time>2019-11-01T14:12:22Z</time>
      </trkpt>
      <trkpt lat="44.8697" lon="5.7094">
        <ele>476.8</ele>
        <time>2019-11-01T14:12:24Z</time>
      </trkpt>
      <trkpt lat="44.86972" lon="5.7094">
        <ele>477.08</ele>
        <time>2019-11-01T14:12:26Z</time>
      </trkpt>
      <trkpt lat="44.86976" lon="5.70944">
        <ele>477.41</ele>
        <time>2019-11-01T14:12:30Z</time>
      </trkpt>
      <trkpt lat="44.86977" lon="5.70947">
        <ele>477.49</ele>
        <time>2019-11-01T14:12:32Z</time>
      </trkpt>
      <trkpt lat="44.86981" lon="5.70946">
        <ele>477.78</ele>
        <time>2019-11-01T14:12:34Z</time>
      </trkpt>
      <trkpt lat="44.86983" lon="5.70946">
        <ele>478.2</ele>
        <time>2019-11-01T14:12:37Z</time>
      </trkpt>
      <trkpt lat="44.8699" lon="5.7095">
        <ele>480</ele>
        <time>2019-11-01T14:14:45Z</time>
      </trkpt>
      <trkpt lat="44.86993" lon="5.7095">
        <ele>480.59</ele>
        <time>2019-11-01T14:14:46Z</time>
      </trkpt>
      <trkpt lat="44.86996" lon="5.70949">
        <ele>480.77</ele>
        <time>2019-11-01T14:14:47Z</time>
      </trkpt>
      <trkpt lat="44.86997" lon="5.70948">
        <ele>480.83</ele>
        <time>2019-11-01T14:14:48Z</time>
      </trkpt>
      <trkpt lat="44.86999" lon="5.70945">
        <ele>480.84</ele>
        <time>2019-11-01T14:14:49Z</time>
      </trkpt>
      <trkpt lat="44.87" lon="5.70942">
        <ele>480.92</ele>
        <time>2019-11-01T14:14:50Z</time>
      </trkpt>
      <trkpt lat="44.87002" lon="5.70937">
        <ele>480.94</ele>
        <time>2019-11-01T14:14:51Z</time>
      </trkpt>
      <trkpt lat="44.87003" lon="5.70932">
        <ele>480.95</ele>
        <time>2019-11-01T14:14:52Z</time>
      </trkpt>
      <trkpt lat="44.87006" lon="5.70927">
        <ele>480.95</ele>
        <time>2019-11-01T14:14:53Z</time>
      </trkpt>
      <trkpt lat="44.87007" lon="5.70922">
        <ele>480.95</ele>
        <time>2019-11-01T14:14:54Z</time>
      </trkpt>
      <trkpt lat="44.87015" lon="5.70911">
        <ele>480.88</ele>
        <time>2019-11-01T14:14:55Z</time>
      </trkpt>
      <trkpt lat="44.87018" lon="5.70903">
        <ele>480.86</ele>
        <time>2019-11-01T14:14:56Z</time>
      </trkpt>
      <trkpt lat="44.87023" lon="5.70895">
        <ele>480.85</ele>
        <time>2019-11-01T14:14:57Z</time>
      </trkpt>
      <trkpt lat="44.87027" lon="5.70886">
        <ele>480.85</ele>
        <time>2019-11-01T14:14:58Z</time>
      </trkpt>
      <trkpt lat="44.87029" lon="5.70878">
        <ele>480.85</ele>
        <time>2019-11-01T14:14:59Z</time>
      </trkpt>
      <trkpt lat="44.8703" lon="5.70871">
        <ele>480.85</ele>
        <time>2019-11-01T14:15:00Z</time>
      </trkpt>
      <trkpt lat="44.8703" lon="5.70864">
        <ele>480.92</ele>
        <time>2019-11-01T14:15:01Z</time>
      </trkpt>
      <trkpt lat="44.8703" lon="5.70859">
        <ele>480.87</ele>
        <time>2019-11-01T14:15:02Z</time>
      </trkpt>
      <trkpt lat="44.8703" lon="5.70854">
        <ele>480.86</ele>
        <time>2019-11-01T14:15:03Z</time>
      </trkpt>
      <trkpt lat="44.8703" lon="5.70849">
        <ele>480.85</ele>
        <time>2019-11-01T14:15:04Z</time>
      </trkpt>
      <trkpt lat="44.87032" lon="5.70846">
        <ele>480.78</ele>
        <time>2019-11-01T14:15:05Z</time>
      </trkpt>
      <trkpt lat="44.87033" lon="5.70843">
        <ele>480.76</ele>
        <time>2019-11-01T14:15:06Z</time>
      </trkpt>
      <trkpt lat="44.87036" lon="5.7084">
        <ele>480.75</ele>
        <time>2019-11-01T14:15:07Z</time>
      </trkpt>
      <trkpt lat="44.87039" lon="5.70838">
        <ele>480.61</ele>
        <time>2019-11-01T14:15:08Z</time>
      </trkpt>
      <trkpt lat="44.87042" lon="5.70835">
        <ele>480.57</ele>
        <time>2019-11-01T14:15:09Z</time>
      </trkpt>
      <trkpt lat="44.87046" lon="5.70832">
        <ele>480.55</ele>
        <time>2019-11-01T14:15:10Z</time>
      </trkpt>
      <trkpt lat="44.87051" lon="5.70829">
        <ele>480.41</ele>
        <time>2019-11-01T14:15:11Z</time>
      </trkpt>
      <trkpt lat="44.87055" lon="5.70828">
        <ele>480.3</ele>
        <time>2019-11-01T14:15:12Z</time>
      </trkpt>
      <trkpt lat="44.87058" lon="5.70829">
        <ele>480.12</ele>
        <time>2019-11-01T14:15:13Z</time>
      </trkpt>
      <trkpt lat="44.87062" lon="5.70833">
        <ele>479.93</ele>
        <time>2019-11-01T14:15:14Z</time>
      </trkpt>
      <trkpt lat="44.87065" lon="5.70836">
        <ele>479.8</ele>
        <time>2019-11-01T14:15:15Z</time>
      </trkpt>
      <trkpt lat="44.87067" lon="5.7084">
        <ele>479.63</ele>
        <time>2019-11-01T14:15:16Z</time>
      </trkpt>
      <trkpt lat="44.8707" lon="5.70843">
        <ele>479.43</ele>
        <time>2019-11-01T14:15:17Z</time>
      </trkpt>
      <trkpt lat="44.87073" lon="5.70847">
        <ele>479.3</ele>
        <time>2019-11-01T14:15:18Z</time>
      </trkpt>
      <trkpt lat="44.87076" lon="5.7085">
        <ele>479.2</ele>
        <time>2019-11-01T14:15:19Z</time>
      </trkpt>
      <trkpt lat="44.87079" lon="5.70852">
        <ele>479.02</ele>
        <time>2019-11-01T14:15:20Z</time>
      </trkpt>
      <trkpt lat="44.87083" lon="5.70852">
        <ele>478.76</ele>
        <time>2019-11-01T14:15:21Z</time>
      </trkpt>
      <trkpt lat="44.87087" lon="5.70853">
        <ele>478.54</ele>
        <time>2019-11-01T14:15:22Z</time>
      </trkpt>
      <trkpt lat="44.87091" lon="5.70855">
        <ele>478.41</ele>
        <time>2019-11-01T14:15:23Z</time>
      </trkpt>
      <trkpt lat="44.87095" lon="5.70857">
        <ele>478.16</ele>
        <time>2019-11-01T14:15:24Z</time>
      </trkpt>
      <trkpt lat="44.87099" lon="5.70859">
        <ele>478.08</ele>
        <time>2019-11-01T14:15:25Z</time>
      </trkpt>
      <trkpt lat="44.87104" lon="5.70857">
        <ele>477.92</ele>
        <time>2019-11-01T14:15:26Z</time>
      </trkpt>
      <trkpt lat="44.87107" lon="5.70855">
        <ele>477.66</ele>
        <time>2019-11-01T14:15:27Z</time>
      </trkpt>
      <trkpt lat="44.87108" lon="5.7085">
        <ele>477.44</ele>
        <time>2019-11-01T14:15:28Z</time>
      </trkpt>
      <trkpt lat="44.87108" lon="5.70845">
        <ele>476.89</ele>
        <time>2019-11-01T14:15:29Z</time>
      </trkpt>
      <trkpt lat="44.87108" lon="5.70839">
        <ele>476.51</ele>
        <time>2019-11-01T14:15:30Z</time>
      </trkpt>
      <trkpt lat="44.87108" lon="5.70833">
        <ele>476.26</ele>
        <time>2019-11-01T14:15:31Z</time>
      </trkpt>
      <trkpt lat="44.87107" lon="5.70827">
        <ele>476.04</ele>
        <time>2019-11-01T14:15:32Z</time>
      </trkpt>
      <trkpt lat="44.87107" lon="5.70819">
        <ele>475.84</ele>
        <time>2019-11-01T14:15:33Z</time>
      </trkpt>
      <trkpt lat="44.87108" lon="5.70813">
        <ele>475.64</ele>
        <time>2019-11-01T14:15:34Z</time>
      </trkpt>
      <trkpt lat="44.87109" lon="5.70809">
        <ele>475.5</ele>
        <time>2019-11-01T14:15:35Z</time>
      </trkpt>
      <trkpt lat="44.87112" lon="5.70806">
        <ele>475.4</ele>
        <time>2019-11-01T14:15:36Z</time>
      </trkpt>
      <trkpt lat="44.87115" lon="5.70804">
        <ele>475.36</ele>
        <time>2019-11-01T14:15:37Z</time>
      </trkpt>
      <trkpt lat="44.87118" lon="5.70802">
        <ele>475.14</ele>
        <time>2019-11-01T14:15:38Z</time>
      </trkpt>
      <trkpt lat="44.87122" lon="5.708">
        <ele>474.87</ele>
        <time>2019-11-01T14:15:39Z</time>
      </trkpt>
      <trkpt lat="44.87126" lon="5.70797">
        <ele>474.5</ele>
        <time>2019-11-01T14:15:40Z</time>
      </trkpt>
      <trkpt lat="44.87131" lon="5.70794">
        <ele>474.47</ele>
        <time>2019-11-01T14:15:41Z</time>
      </trkpt>
      <trkpt lat="44.87136" lon="5.70792">
        <ele>474.38</ele>
        <time>2019-11-01T14:15:42Z</time>
      </trkpt>
      <trkpt lat="44.87142" lon="5.7079">
        <ele>474.22</ele>
        <time>2019-11-01T14:15:43Z</time>
      </trkpt>
      <trkpt lat="44.87148" lon="5.70788">
        <ele>474.03</ele>
        <time>2019-11-01T14:15:44Z</time>
      </trkpt>
      <trkpt lat="44.87153" lon="5.70788">
        <ele>473.9</ele>
        <time>2019-11-01T14:15:45Z</time>
      </trkpt>
      <trkpt lat="44.87159" lon="5.70789">
        <ele>473.94</ele>
        <time>2019-11-01T14:15:46Z</time>
      </trkpt>
      <trkpt lat="44.87164" lon="5.70789">
        <ele>473.94</ele>
        <time>2019-11-01T14:15:47Z</time>
      </trkpt>
      <trkpt lat="44.87168" lon="5.70787">
        <ele>473.95</ele>
        <time>2019-11-01T14:15:48Z</time>
      </trkpt>
      <trkpt lat="44.87171" lon="5.70785">
        <ele>473.88</ele>
        <time>2019-11-01T14:15:49Z</time>
      </trkpt>
      <trkpt lat="44.87173" lon="5.70783">
        <ele>473.79</ele>
        <time>2019-11-01T14:15:50Z</time>
      </trkpt>
      <trkpt lat="44.87174" lon="5.70779">
        <ele>473.73</ele>
        <time>2019-11-01T14:15:52Z</time>
      </trkpt>
      <trkpt lat="44.87173" lon="5.70775">
        <ele>473.84</ele>
        <time>2019-11-01T14:15:54Z</time>
      </trkpt>
      <trkpt lat="44.87173" lon="5.70772">
        <ele>473.78</ele>
        <time>2019-11-01T14:15:55Z</time>
      </trkpt>
      <trkpt lat="44.87172" lon="5.70769">
        <ele>473.32</ele>
        <time>2019-11-01T14:15:57Z</time>
      </trkpt>
      <trkpt lat="44.87171" lon="5.70764">
        <ele>473.26</ele>
        <time>2019-11-01T14:15:59Z</time>
      </trkpt>
      <trkpt lat="44.87172" lon="5.70761">
        <ele>473.18</ele>
        <time>2019-11-01T14:16:00Z</time>
      </trkpt>
      <trkpt lat="44.87171" lon="5.70756">
        <ele>473.15</ele>
        <time>2019-11-01T14:16:02Z</time>
      </trkpt>
      <trkpt lat="44.87171" lon="5.70754">
        <ele>473.22</ele>
        <time>2019-11-01T14:16:03Z</time>
      </trkpt>
      <trkpt lat="44.8717" lon="5.70751">
        <ele>473.38</ele>
        <time>2019-11-01T14:16:04Z</time>
      </trkpt>
      <trkpt lat="44.8717" lon="5.70748">
        <ele>473.57</ele>
        <time>2019-11-01T14:16:05Z</time>
      </trkpt>
      <trkpt lat="44.8717" lon="5.70745">
        <ele>473.76</ele>
        <time>2019-11-01T14:16:06Z</time>
      </trkpt>
      <trkpt lat="44.87169" lon="5.70742">
        <ele>474.03</ele>
        <time>2019-11-01T14:16:07Z</time>
      </trkpt>
      <trkpt lat="44.87168" lon="5.7074">
        <ele>474.46</ele>
        <time>2019-11-01T14:16:08Z</time>
      </trkpt>
      <trkpt lat="44.87167" lon="5.70737">
        <ele>474.73</ele>
        <time>2019-11-01T14:16:09Z</time>
      </trkpt>
      <trkpt lat="44.87166" lon="5.70735">
        <ele>475.02</ele>
        <time>2019-11-01T14:16:10Z</time>
      </trkpt>
      <trkpt lat="44.87163" lon="5.70731">
        <ele>475.78</ele>
        <time>2019-11-01T14:16:12Z</time>
      </trkpt>
      <trkpt lat="44.87161" lon="5.70728">
        <ele>476.09</ele>
        <time>2019-11-01T14:16:14Z</time>
      </trkpt>
      <trkpt lat="44.87159" lon="5.70724">
        <ele>476.15</ele>
        <time>2019-11-01T14:16:16Z</time>
      </trkpt>
      <trkpt lat="44.87157" lon="5.70722">
        <ele>475.83</ele>
        <time>2019-11-01T14:16:18Z</time>
      </trkpt>
      <trkpt lat="44.87154" lon="5.7072">
        <ele>476.17</ele>
        <time>2019-11-01T14:16:20Z</time>
      </trkpt>
      <trkpt lat="44.87151" lon="5.70718">
        <ele>476.89</ele>
        <time>2019-11-01T14:16:22Z</time>
      </trkpt>
      <trkpt lat="44.87148" lon="5.70716">
        <ele>477.75</ele>
        <time>2019-11-01T14:16:24Z</time>
      </trkpt>
      <trkpt lat="44.87146" lon="5.70714">
        <ele>477.33</ele>
        <time>2019-11-01T14:16:25Z</time>
      </trkpt>
      <trkpt lat="44.87145" lon="5.70712">
        <ele>477.06</ele>
        <time>2019-11-01T14:16:26Z</time>
      </trkpt>
      <trkpt lat="44.87143" lon="5.7071">
        <ele>476.49</ele>
        <time>2019-11-01T14:16:27Z</time>
      </trkpt>
      <trkpt lat="44.8714" lon="5.70711">
        <ele>474.78</ele>
        <time>2019-11-01T14:16:28Z</time>
      </trkpt>
      <trkpt lat="44.87138" lon="5.70708">
        <ele>473.62</ele>
        <time>2019-11-01T14:16:30Z</time>
      </trkpt>
      <trkpt lat="44.87136" lon="5.70705">
        <ele>473.22</ele>
        <time>2019-11-01T14:16:31Z</time>
      </trkpt>
      <trkpt lat="44.87136" lon="5.70703">
        <ele>472.96</ele>
        <time>2019-11-01T14:16:32Z</time>
      </trkpt>
      <trkpt lat="44.87135" lon="5.70698">
        <ele>473.03</ele>
        <time>2019-11-01T14:16:34Z</time>
      </trkpt>
      <trkpt lat="44.87137" lon="5.70693">
        <ele>472.26</ele>
        <time>2019-11-01T14:16:36Z</time>
      </trkpt>
      <trkpt lat="44.87137" lon="5.7069">
        <ele>472.11</ele>
        <time>2019-11-01T14:16:37Z</time>
      </trkpt>
      <trkpt lat="44.87138" lon="5.70688">
        <ele>472.21</ele>
        <time>2019-11-01T14:16:38Z</time>
      </trkpt>
      <trkpt lat="44.8714" lon="5.70683">
        <ele>472.8</ele>
        <time>2019-11-01T14:16:40Z</time>
      </trkpt>
      <trkpt lat="44.87141" lon="5.70682">
        <ele>473.25</ele>
        <time>2019-11-01T14:16:41Z</time>
      </trkpt>
      <trkpt lat="44.87143" lon="5.70679">
        <ele>473.74</ele>
        <time>2019-11-01T14:16:42Z</time>
      </trkpt>
      <trkpt lat="44.87145" lon="5.70676">
        <ele>474.46</ele>
        <time>2019-11-01T14:16:44Z</time>
      </trkpt>
      <trkpt lat="44.87148" lon="5.70672">
        <ele>475.19</ele>
        <time>2019-11-01T14:16:46Z</time>
      </trkpt>
      <trkpt lat="44.8715" lon="5.7067">
        <ele>475.51</ele>
        <time>2019-11-01T14:16:47Z</time>
      </trkpt>
      <trkpt lat="44.87151" lon="5.70668">
        <ele>475.96</ele>
        <time>2019-11-01T14:16:48Z</time>
      </trkpt>
      <trkpt lat="44.87153" lon="5.70666">
        <ele>476.3</ele>
        <time>2019-11-01T14:16:49Z</time>
      </trkpt>
      <trkpt lat="44.87154" lon="5.70665">
        <ele>476.61</ele>
        <time>2019-11-01T14:16:50Z</time>
      </trkpt>
      <trkpt lat="44.87156" lon="5.70662">
        <ele>477.2</ele>
        <time>2019-11-01T14:16:51Z</time>
      </trkpt>
      <trkpt lat="44.87157" lon="5.7066">
        <ele>477.51</ele>
        <time>2019-11-01T14:16:52Z</time>
      </trkpt>
      <trkpt lat="44.87161" lon="5.70657">
        <ele>477.69</ele>
        <time>2019-11-01T14:16:54Z</time>
      </trkpt>
      <trkpt lat="44.87163" lon="5.70655">
        <ele>477.94</ele>
        <time>2019-11-01T14:16:55Z</time>
      </trkpt>
      <trkpt lat="44.87164" lon="5.70653">
        <ele>478.23</ele>
        <time>2019-11-01T14:16:56Z</time>
      </trkpt>
      <trkpt lat="44.87168" lon="5.70652">
        <ele>478.87</ele>
        <time>2019-11-01T14:16:58Z</time>
      </trkpt>
      <trkpt lat="44.8717" lon="5.70649">
        <ele>479.68</ele>
        <time>2019-11-01T14:17:00Z</time>
      </trkpt>
      <trkpt lat="44.87172" lon="5.70646">
        <ele>480.48</ele>
        <time>2019-11-01T14:17:02Z</time>
      </trkpt>
      <trkpt lat="44.87174" lon="5.70644">
        <ele>481.28</ele>
        <time>2019-11-01T14:17:04Z</time>
      </trkpt>
      <trkpt lat="44.87177" lon="5.70641">
        <ele>482.06</ele>
        <time>2019-11-01T14:17:06Z</time>
      </trkpt>
      <trkpt lat="44.87178" lon="5.7064">
        <ele>482.47</ele>
        <time>2019-11-01T14:17:07Z</time>
      </trkpt>
      <trkpt lat="44.8718" lon="5.70637">
        <ele>483.21</ele>
        <time>2019-11-01T14:17:09Z</time>
      </trkpt>
      <trkpt lat="44.87183" lon="5.70634">
        <ele>483.98</ele>
        <time>2019-11-01T14:17:11Z</time>
      </trkpt>
      <trkpt lat="44.87185" lon="5.70631">
        <ele>484.71</ele>
        <time>2019-11-01T14:17:13Z</time>
      </trkpt>
      <trkpt lat="44.87187" lon="5.70627">
        <ele>485.41</ele>
        <time>2019-11-01T14:17:15Z</time>
      </trkpt>
      <trkpt lat="44.87189" lon="5.70624">
        <ele>486.18</ele>
        <time>2019-11-01T14:17:17Z</time>
      </trkpt>
      <trkpt lat="44.8719" lon="5.7062">
        <ele>486.91</ele>
        <time>2019-11-01T14:17:19Z</time>
      </trkpt>
      <trkpt lat="44.87193" lon="5.70617">
        <ele>487.68</ele>
        <time>2019-11-01T14:17:21Z</time>
      </trkpt>
      <trkpt lat="44.87195" lon="5.70614">
        <ele>487.99</ele>
        <time>2019-11-01T14:17:23Z</time>
      </trkpt>
      <trkpt lat="44.87196" lon="5.70612">
        <ele>488.03</ele>
        <time>2019-11-01T14:17:24Z</time>
      </trkpt>
      <trkpt lat="44.87198" lon="5.70608">
        <ele>488.05</ele>
        <time>2019-11-01T14:17:26Z</time>
      </trkpt>
      <trkpt lat="44.87199" lon="5.70602">
        <ele>487.93</ele>
        <time>2019-11-01T14:17:28Z</time>
      </trkpt>
      <trkpt lat="44.872" lon="5.70598">
        <ele>487.38</ele>
        <time>2019-11-01T14:17:29Z</time>
      </trkpt>
      <trkpt lat="44.87201" lon="5.70596">
        <ele>487.15</ele>
        <time>2019-11-01T14:17:30Z</time>
      </trkpt>
      <trkpt lat="44.87202" lon="5.70594">
        <ele>486.94</ele>
        <time>2019-11-01T14:17:31Z</time>
      </trkpt>
      <trkpt lat="44.87203" lon="5.70592">
        <ele>486.88</ele>
        <time>2019-11-01T14:17:32Z</time>
      </trkpt>
      <trkpt lat="44.87205" lon="5.70589">
        <ele>486.79</ele>
        <time>2019-11-01T14:17:33Z</time>
      </trkpt>
      <trkpt lat="44.87205" lon="5.70586">
        <ele>486.76</ele>
        <time>2019-11-01T14:17:34Z</time>
      </trkpt>
      <trkpt lat="44.87207" lon="5.70583">
        <ele>486.68</ele>
        <time>2019-11-01T14:17:35Z</time>
      </trkpt>
      <trkpt lat="44.87208" lon="5.70579">
        <ele>486.52</ele>
        <time>2019-11-01T14:17:36Z</time>
      </trkpt>
      <trkpt lat="44.87209" lon="5.70575">
        <ele>486.26</ele>
        <time>2019-11-01T14:17:37Z</time>
      </trkpt>
      <trkpt lat="44.87211" lon="5.7057">
        <ele>485.83</ele>
        <time>2019-11-01T14:17:38Z</time>
      </trkpt>
      <trkpt lat="44.87213" lon="5.70565">
        <ele>485.7</ele>
        <time>2019-11-01T14:17:39Z</time>
      </trkpt>
      <trkpt lat="44.87215" lon="5.7056">
        <ele>485.95</ele>
        <time>2019-11-01T14:17:40Z</time>
      </trkpt>
      <trkpt lat="44.87217" lon="5.70555">
        <ele>485.95</ele>
        <time>2019-11-01T14:17:41Z</time>
      </trkpt>
      <trkpt lat="44.8722" lon="5.70549">
        <ele>485.95</ele>
        <time>2019-11-01T14:17:42Z</time>
      </trkpt>
      <trkpt lat="44.87222" lon="5.70544">
        <ele>485.53</ele>
        <time>2019-11-01T14:17:43Z</time>
      </trkpt>
      <trkpt lat="44.87225" lon="5.70538">
        <ele>485.33</ele>
        <time>2019-11-01T14:17:44Z</time>
      </trkpt>
      <trkpt lat="44.87227" lon="5.70533">
        <ele>485.27</ele>
        <time>2019-11-01T14:17:45Z</time>
      </trkpt>
      <trkpt lat="44.8723" lon="5.70529">
        <ele>485.19</ele>
        <time>2019-11-01T14:17:46Z</time>
      </trkpt>
      <trkpt lat="44.87232" lon="5.70524">
        <ele>485.3</ele>
        <time>2019-11-01T14:17:47Z</time>
      </trkpt>
      <trkpt lat="44.87233" lon="5.70519">
        <ele>485.54</ele>
        <time>2019-11-01T14:17:48Z</time>
      </trkpt>
      <trkpt lat="44.87233" lon="5.70515">
        <ele>485.76</ele>
        <time>2019-11-01T14:17:49Z</time>
      </trkpt>
      <trkpt lat="44.87233" lon="5.70512">
        <ele>485.89</ele>
        <time>2019-11-01T14:17:50Z</time>
      </trkpt>
      <trkpt lat="44.87231" lon="5.7051">
        <ele>485.93</ele>
        <time>2019-11-01T14:17:51Z</time>
      </trkpt>
      <trkpt lat="44.87229" lon="5.70507">
        <ele>485.65</ele>
        <time>2019-11-01T14:17:53Z</time>
      </trkpt>
      <trkpt lat="44.87227" lon="5.70504">
        <ele>485.17</ele>
        <time>2019-11-01T14:17:55Z</time>
      </trkpt>
      <trkpt lat="44.87227" lon="5.70501">
        <ele>484.94</ele>
        <time>2019-11-01T14:17:56Z</time>
      </trkpt>
      <trkpt lat="44.87226" lon="5.70499">
        <ele>484.53</ele>
        <time>2019-11-01T14:17:57Z</time>
      </trkpt>
      <trkpt lat="44.87224" lon="5.70494">
        <ele>484.32</ele>
        <time>2019-11-01T14:17:59Z</time>
      </trkpt>
      <trkpt lat="44.87223" lon="5.70491">
        <ele>484.2</ele>
        <time>2019-11-01T14:18:00Z</time>
      </trkpt>
      <trkpt lat="44.87223" lon="5.70488">
        <ele>484.3</ele>
        <time>2019-11-01T14:18:01Z</time>
      </trkpt>
      <trkpt lat="44.87221" lon="5.70485">
        <ele>484.34</ele>
        <time>2019-11-01T14:18:02Z</time>
      </trkpt>
      <trkpt lat="44.8722" lon="5.70482">
        <ele>484.48</ele>
        <time>2019-11-01T14:18:03Z</time>
      </trkpt>
      <trkpt lat="44.8722" lon="5.70479">
        <ele>484.25</ele>
        <time>2019-11-01T14:18:04Z</time>
      </trkpt>
      <trkpt lat="44.8722" lon="5.70476">
        <ele>484.11</ele>
        <time>2019-11-01T14:18:05Z</time>
      </trkpt>
      <trkpt lat="44.8722" lon="5.70472">
        <ele>482.72</ele>
        <time>2019-11-01T14:18:07Z</time>
      </trkpt>
      <trkpt lat="44.8722" lon="5.70469">
        <ele>482.32</ele>
        <time>2019-11-01T14:18:08Z</time>
      </trkpt>
      <trkpt lat="44.87222" lon="5.70466">
        <ele>481.99</ele>
        <time>2019-11-01T14:18:09Z</time>
      </trkpt>
      <trkpt lat="44.87223" lon="5.70464">
        <ele>481.68</ele>
        <time>2019-11-01T14:18:10Z</time>
      </trkpt>
      <trkpt lat="44.87223" lon="5.70461">
        <ele>481.8</ele>
        <time>2019-11-01T14:18:11Z</time>
      </trkpt>
      <trkpt lat="44.87225" lon="5.70459">
        <ele>481.97</ele>
        <time>2019-11-01T14:18:12Z</time>
      </trkpt>
      <trkpt lat="44.87226" lon="5.70456">
        <ele>482.24</ele>
        <time>2019-11-01T14:18:13Z</time>
      </trkpt>
      <trkpt lat="44.87228" lon="5.70454">
        <ele>482.53</ele>
        <time>2019-11-01T14:18:14Z</time>
      </trkpt>
      <trkpt lat="44.87229" lon="5.70452">
        <ele>483.1</ele>
        <time>2019-11-01T14:18:15Z</time>
      </trkpt>
      <trkpt lat="44.87231" lon="5.70451">
        <ele>483.69</ele>
        <time>2019-11-01T14:18:16Z</time>
      </trkpt>
      <trkpt lat="44.87233" lon="5.70448">
        <ele>484.94</ele>
        <time>2019-11-01T14:18:18Z</time>
      </trkpt>
      <trkpt lat="44.87236" lon="5.70443">
        <ele>486.19</ele>
        <time>2019-11-01T14:18:20Z</time>
      </trkpt>
      <trkpt lat="44.87238" lon="5.7044">
        <ele>487.18</ele>
        <time>2019-11-01T14:18:22Z</time>
      </trkpt>
      <trkpt lat="44.87239" lon="5.70437">
        <ele>487.82</ele>
        <time>2019-11-01T14:18:24Z</time>
      </trkpt>
      <trkpt lat="44.87242" lon="5.70436">
        <ele>487.94</ele>
        <time>2019-11-01T14:18:26Z</time>
      </trkpt>
      <trkpt lat="44.87243" lon="5.70435">
        <ele>487.77</ele>
        <time>2019-11-01T14:18:28Z</time>
      </trkpt>
      <trkpt lat="44.87246" lon="5.70433">
        <ele>487.79</ele>
        <time>2019-11-01T14:18:30Z</time>
      </trkpt>
      <trkpt lat="44.87249" lon="5.70431">
        <ele>487.91</ele>
        <time>2019-11-01T14:18:32Z</time>
      </trkpt>
      <trkpt lat="44.87251" lon="5.70429">
        <ele>487.81</ele>
        <time>2019-11-01T14:18:34Z</time>
      </trkpt>
      <trkpt lat="44.87255" lon="5.70428">
        <ele>487.94</ele>
        <time>2019-11-01T14:18:36Z</time>
      </trkpt>
      <trkpt lat="44.87258" lon="5.70426">
        <ele>487.46</ele>
        <time>2019-11-01T14:18:38Z</time>
      </trkpt>
      <trkpt lat="44.87261" lon="5.70425">
        <ele>487.27</ele>
        <time>2019-11-01T14:18:40Z</time>
      </trkpt>
      <trkpt lat="44.87263" lon="5.70425">
        <ele>487.32</ele>
        <time>2019-11-01T14:18:41Z</time>
      </trkpt>
      <trkpt lat="44.87265" lon="5.70425">
        <ele>487.62</ele>
        <time>2019-11-01T14:18:42Z</time>
      </trkpt>
      <trkpt lat="44.87269" lon="5.70423">
        <ele>488.06</ele>
        <time>2019-11-01T14:18:44Z</time>
      </trkpt>
      <trkpt lat="44.87272" lon="5.70425">
        <ele>489.09</ele>
        <time>2019-11-01T14:18:46Z</time>
      </trkpt>
      <trkpt lat="44.87275" lon="5.70425">
        <ele>489.62</ele>
        <time>2019-11-01T14:18:48Z</time>
      </trkpt>
      <trkpt lat="44.87277" lon="5.70425">
        <ele>489.71</ele>
        <time>2019-11-01T14:18:49Z</time>
      </trkpt>
      <trkpt lat="44.87281" lon="5.70425">
        <ele>490.5</ele>
        <time>2019-11-01T14:18:51Z</time>
      </trkpt>
      <trkpt lat="44.87283" lon="5.70425">
        <ele>490.74</ele>
        <time>2019-11-01T14:18:52Z</time>
      </trkpt>
      <trkpt lat="44.87284" lon="5.70423">
        <ele>490.75</ele>
        <time>2019-11-01T14:18:53Z</time>
      </trkpt>
      <trkpt lat="44.87287" lon="5.70423">
        <ele>490.61</ele>
        <time>2019-11-01T14:18:55Z</time>
      </trkpt>
      <trkpt lat="44.87289" lon="5.70423">
        <ele>490.57</ele>
        <time>2019-11-01T14:18:56Z</time>
      </trkpt>
      <trkpt lat="44.87291" lon="5.70423">
        <ele>490.41</ele>
        <time>2019-11-01T14:18:57Z</time>
      </trkpt>
      <trkpt lat="44.87293" lon="5.70422">
        <ele>490.3</ele>
        <time>2019-11-01T14:18:58Z</time>
      </trkpt>
      <trkpt lat="44.87297" lon="5.70422">
        <ele>490.65</ele>
        <time>2019-11-01T14:19:00Z</time>
      </trkpt>
      <trkpt lat="44.87299" lon="5.70422">
        <ele>491.07</ele>
        <time>2019-11-01T14:19:01Z</time>
      </trkpt>
      <trkpt lat="44.87301" lon="5.70422">
        <ele>491.33</ele>
        <time>2019-11-01T14:19:02Z</time>
      </trkpt>
      <trkpt lat="44.87304" lon="5.70422">
        <ele>491.92</ele>
        <time>2019-11-01T14:19:04Z</time>
      </trkpt>
      <trkpt lat="44.87307" lon="5.70422">
        <ele>492.04</ele>
        <time>2019-11-01T14:19:06Z</time>
      </trkpt>
      <trkpt lat="44.8731" lon="5.70422">
        <ele>492.28</ele>
        <time>2019-11-01T14:19:08Z</time>
      </trkpt>
      <trkpt lat="44.87312" lon="5.70422">
        <ele>492.61</ele>
        <time>2019-11-01T14:19:09Z</time>
      </trkpt>
      <trkpt lat="44.87313" lon="5.70421">
        <ele>492.85</ele>
        <time>2019-11-01T14:19:10Z</time>
      </trkpt>
      <trkpt lat="44.87315" lon="5.70419">
        <ele>493.06</ele>
        <time>2019-11-01T14:19:11Z</time>
      </trkpt>
      <trkpt lat="44.87316" lon="5.70416">
        <ele>493.54</ele>
        <time>2019-11-01T14:19:12Z</time>
      </trkpt>
      <trkpt lat="44.87317" lon="5.70412">
        <ele>494.28</ele>
        <time>2019-11-01T14:19:14Z</time>
      </trkpt>
      <trkpt lat="44.87319" lon="5.70409">
        <ele>494.9</ele>
        <time>2019-11-01T14:19:16Z</time>
      </trkpt>
      <trkpt lat="44.87321" lon="5.7041">
        <ele>495.24</ele>
        <time>2019-11-01T14:19:18Z</time>
      </trkpt>
      <trkpt lat="44.87323" lon="5.70413">
        <ele>495.41</ele>
        <time>2019-11-01T14:19:20Z</time>
      </trkpt>
      <trkpt lat="44.87324" lon="5.70417">
        <ele>496.19</ele>
        <time>2019-11-01T14:19:22Z</time>
      </trkpt>
      <trkpt lat="44.87324" lon="5.7042">
        <ele>496.93</ele>
        <time>2019-11-01T14:19:23Z</time>
      </trkpt>
      <trkpt lat="44.87324" lon="5.70423">
        <ele>497.5</ele>
        <time>2019-11-01T14:19:24Z</time>
      </trkpt>
      <trkpt lat="44.87323" lon="5.70427">
        <ele>498.71</ele>
        <time>2019-11-01T14:19:26Z</time>
      </trkpt>
      <trkpt lat="44.87323" lon="5.70432">
        <ele>499.27</ele>
        <time>2019-11-01T14:19:28Z</time>
      </trkpt>
      <trkpt lat="44.87322" lon="5.70434">
        <ele>499.47</ele>
        <time>2019-11-01T14:19:29Z</time>
      </trkpt>
      <trkpt lat="44.8732" lon="5.70435">
        <ele>499.66</ele>
        <time>2019-11-01T14:19:30Z</time>
      </trkpt>
      <trkpt lat="44.87318" lon="5.70438">
        <ele>500.39</ele>
        <time>2019-11-01T14:19:32Z</time>
      </trkpt>
      <trkpt lat="44.87317" lon="5.70441">
        <ele>500.95</ele>
        <time>2019-11-01T14:19:34Z</time>
      </trkpt>
      <trkpt lat="44.87315" lon="5.70445">
        <ele>501.11</ele>
        <time>2019-11-01T14:19:36Z</time>
      </trkpt>
      <trkpt lat="44.87314" lon="5.7045">
        <ele>501.36</ele>
        <time>2019-11-01T14:19:38Z</time>
      </trkpt>
      <trkpt lat="44.87313" lon="5.70453">
        <ele>501.69</ele>
        <time>2019-11-01T14:19:40Z</time>
      </trkpt>
      <trkpt lat="44.87312" lon="5.70457">
        <ele>501.81</ele>
        <time>2019-11-01T14:19:42Z</time>
      </trkpt>
      <trkpt lat="44.87311" lon="5.70462">
        <ele>502.24</ele>
        <time>2019-11-01T14:19:44Z</time>
      </trkpt>
      <trkpt lat="44.8731" lon="5.70464">
        <ele>502.39</ele>
        <time>2019-11-01T14:19:45Z</time>
      </trkpt>
      <trkpt lat="44.8731" lon="5.70467">
        <ele>502.78</ele>
        <time>2019-11-01T14:19:46Z</time>
      </trkpt>
      <trkpt lat="44.87309" lon="5.70469">
        <ele>503.25</ele>
        <time>2019-11-01T14:19:47Z</time>
      </trkpt>
      <trkpt lat="44.87308" lon="5.70474">
        <ele>503.75</ele>
        <time>2019-11-01T14:19:49Z</time>
      </trkpt>
      <trkpt lat="44.87307" lon="5.70479">
        <ele>504.32</ele>
        <time>2019-11-01T14:19:51Z</time>
      </trkpt>
      <trkpt lat="44.87305" lon="5.70483">
        <ele>504.69</ele>
        <time>2019-11-01T14:19:53Z</time>
      </trkpt>
      <trkpt lat="44.87305" lon="5.70486">
        <ele>504.97</ele>
        <time>2019-11-01T14:19:55Z</time>
      </trkpt>
      <trkpt lat="44.87303" lon="5.70489">
        <ele>505.48</ele>
        <time>2019-11-01T14:19:57Z</time>
      </trkpt>
      <trkpt lat="44.87301" lon="5.70494">
        <ele>505.43</ele>
        <time>2019-11-01T14:19:59Z</time>
      </trkpt>
      <trkpt lat="44.873" lon="5.70498">
        <ele>505.77</ele>
        <time>2019-11-01T14:20:01Z</time>
      </trkpt>
      <trkpt lat="44.87299" lon="5.70501">
        <ele>506.07</ele>
        <time>2019-11-01T14:20:03Z</time>
      </trkpt>
      <trkpt lat="44.87297" lon="5.70505">
        <ele>506.56</ele>
        <time>2019-11-01T14:20:05Z</time>
      </trkpt>
      <trkpt lat="44.87296" lon="5.70507">
        <ele>506.69</ele>
        <time>2019-11-01T14:20:06Z</time>
      </trkpt>
      <trkpt lat="44.87295" lon="5.70511">
        <ele>507.32</ele>
        <time>2019-11-01T14:20:08Z</time>
      </trkpt>
      <trkpt lat="44.87296" lon="5.70515">
        <ele>507.69</ele>
        <time>2019-11-01T14:20:10Z</time>
      </trkpt>
      <trkpt lat="44.87296" lon="5.70519">
        <ele>508.14</ele>
        <time>2019-11-01T14:20:12Z</time>
      </trkpt>
      <trkpt lat="44.87297" lon="5.70523">
        <ele>509.02</ele>
        <time>2019-11-01T14:20:14Z</time>
      </trkpt>
      <trkpt lat="44.87299" lon="5.70527">
        <ele>509.5</ele>
        <time>2019-11-01T14:20:16Z</time>
      </trkpt>
      <trkpt lat="44.87302" lon="5.7053">
        <ele>509.45</ele>
        <time>2019-11-01T14:20:18Z</time>
      </trkpt>
      <trkpt lat="44.87304" lon="5.70534">
        <ele>509.54</ele>
        <time>2019-11-01T14:20:20Z</time>
      </trkpt>
      <trkpt lat="44.87306" lon="5.70535">
        <ele>509.37</ele>
        <time>2019-11-01T14:20:22Z</time>
      </trkpt>
      <trkpt lat="44.87309" lon="5.70536">
        <ele>509.67</ele>
        <time>2019-11-01T14:20:24Z</time>
      </trkpt>
      <trkpt lat="44.87311" lon="5.70537">
        <ele>509.83</ele>
        <time>2019-11-01T14:20:26Z</time>
      </trkpt>
      <trkpt lat="44.87314" lon="5.70539">
        <ele>509.92</ele>
        <time>2019-11-01T14:20:28Z</time>
      </trkpt>
      <trkpt lat="44.87316" lon="5.70541">
        <ele>510.06</ele>
        <time>2019-11-01T14:20:30Z</time>
      </trkpt>
      <trkpt lat="44.87318" lon="5.70544">
        <ele>510.23</ele>
        <time>2019-11-01T14:20:32Z</time>
      </trkpt>
      <trkpt lat="44.8732" lon="5.70547">
        <ele>510.34</ele>
        <time>2019-11-01T14:20:34Z</time>
      </trkpt>
      <trkpt lat="44.87322" lon="5.7055">
        <ele>510.69</ele>
        <time>2019-11-01T14:20:36Z</time>
      </trkpt>
      <trkpt lat="44.87324" lon="5.70554">
        <ele>510.83</ele>
        <time>2019-11-01T14:20:38Z</time>
      </trkpt>
      <trkpt lat="44.87325" lon="5.70557">
        <ele>511.26</ele>
        <time>2019-11-01T14:20:40Z</time>
      </trkpt>
      <trkpt lat="44.87327" lon="5.70561">
        <ele>511.73</ele>
        <time>2019-11-01T14:20:42Z</time>
      </trkpt>
      <trkpt lat="44.87328" lon="5.70565">
        <ele>512.23</ele>
        <time>2019-11-01T14:20:44Z</time>
      </trkpt>
      <trkpt lat="44.87329" lon="5.70568">
        <ele>512.98</ele>
        <time>2019-11-01T14:20:46Z</time>
      </trkpt>
      <trkpt lat="44.8733" lon="5.70572">
        <ele>513.71</ele>
        <time>2019-11-01T14:20:48Z</time>
      </trkpt>
      <trkpt lat="44.87331" lon="5.70576">
        <ele>514.32</ele>
        <time>2019-11-01T14:20:50Z</time>
      </trkpt>
      <trkpt lat="44.87333" lon="5.7058">
        <ele>514.92</ele>
        <time>2019-11-01T14:20:52Z</time>
      </trkpt>
      <trkpt lat="44.87334" lon="5.70584">
        <ele>515.86</ele>
        <time>2019-11-01T14:20:54Z</time>
      </trkpt>
      <trkpt lat="44.87335" lon="5.70589">
        <ele>516.26</ele>
        <time>2019-11-01T14:20:56Z</time>
      </trkpt>
      <trkpt lat="44.87336" lon="5.70592">
        <ele>517.15</ele>
        <time>2019-11-01T14:20:58Z</time>
      </trkpt>
      <trkpt lat="44.87335" lon="5.70596">
        <ele>517.9</ele>
        <time>2019-11-01T14:21:00Z</time>
      </trkpt>
      <trkpt lat="44.87334" lon="5.706">
        <ele>518.34</ele>
        <time>2019-11-01T14:21:02Z</time>
      </trkpt>
      <trkpt lat="44.87332" lon="5.70602">
        <ele>518.56</ele>
        <time>2019-11-01T14:21:03Z</time>
      </trkpt>
      <trkpt lat="44.8733" lon="5.70605">
        <ele>519.14</ele>
        <time>2019-11-01T14:21:05Z</time>
      </trkpt>
      <trkpt lat="44.87327" lon="5.70607">
        <ele>519.63</ele>
        <time>2019-11-01T14:21:07Z</time>
      </trkpt>
      <trkpt lat="44.87325" lon="5.70609">
        <ele>520.24</ele>
        <time>2019-11-01T14:21:09Z</time>
      </trkpt>
      <trkpt lat="44.87321" lon="5.7061">
        <ele>521</ele>
        <time>2019-11-01T14:21:11Z</time>
      </trkpt>
      <trkpt lat="44.87318" lon="5.70611">
        <ele>521.55</ele>
        <time>2019-11-01T14:21:13Z</time>
      </trkpt>
      <trkpt lat="44.87315" lon="5.70612">
        <ele>522.03</ele>
        <time>2019-11-01T14:21:15Z</time>
      </trkpt>
      <trkpt lat="44.87313" lon="5.70613">
        <ele>522.46</ele>
        <time>2019-11-01T14:21:17Z</time>
      </trkpt>
      <trkpt lat="44.8731" lon="5.70615">
        <ele>523.33</ele>
        <time>2019-11-01T14:21:19Z</time>
      </trkpt>
      <trkpt lat="44.87308" lon="5.70617">
        <ele>524.05</ele>
        <time>2019-11-01T14:21:21Z</time>
      </trkpt>
      <trkpt lat="44.87306" lon="5.7062">
        <ele>524.48</ele>
        <time>2019-11-01T14:21:23Z</time>
      </trkpt>
      <trkpt lat="44.87304" lon="5.70625">
        <ele>524.87</ele>
        <time>2019-11-01T14:21:25Z</time>
      </trkpt>
      <trkpt lat="44.87303" lon="5.70629">
        <ele>525.22</ele>
        <time>2019-11-01T14:21:27Z</time>
      </trkpt>
      <trkpt lat="44.87302" lon="5.70632">
        <ele>525.45</ele>
        <time>2019-11-01T14:21:28Z</time>
      </trkpt>
      <trkpt lat="44.87302" lon="5.70636">
        <ele>525.7</ele>
        <time>2019-11-01T14:21:30Z</time>
      </trkpt>
      <trkpt lat="44.87301" lon="5.7064">
        <ele>526</ele>
        <time>2019-11-01T14:21:32Z</time>
      </trkpt>
      <trkpt lat="44.87301" lon="5.70644">
        <ele>526.42</ele>
        <time>2019-11-01T14:21:34Z</time>
      </trkpt>
      <trkpt lat="44.873" lon="5.70648">
        <ele>526.84</ele>
        <time>2019-11-01T14:21:36Z</time>
      </trkpt>
      <trkpt lat="44.87299" lon="5.70652">
        <ele>527.17</ele>
        <time>2019-11-01T14:21:38Z</time>
      </trkpt>
      <trkpt lat="44.87299" lon="5.70656">
        <ele>527.7</ele>
        <time>2019-11-01T14:21:40Z</time>
      </trkpt>
      <trkpt lat="44.873" lon="5.7066">
        <ele>527.58</ele>
        <time>2019-11-01T14:21:42Z</time>
      </trkpt>
      <trkpt lat="44.87302" lon="5.70663">
        <ele>527.07</ele>
        <time>2019-11-01T14:21:44Z</time>
      </trkpt>
      <trkpt lat="44.87305" lon="5.70663">
        <ele>527.44</ele>
        <time>2019-11-01T14:21:46Z</time>
      </trkpt>
      <trkpt lat="44.87308" lon="5.70662">
        <ele>527.75</ele>
        <time>2019-11-01T14:21:48Z</time>
      </trkpt>
      <trkpt lat="44.8731" lon="5.70659">
        <ele>528.16</ele>
        <time>2019-11-01T14:21:50Z</time>
      </trkpt>
      <trkpt lat="44.87313" lon="5.70656">
        <ele>528.54</ele>
        <time>2019-11-01T14:21:52Z</time>
      </trkpt>
      <trkpt lat="44.87315" lon="5.70653">
        <ele>529.05</ele>
        <time>2019-11-01T14:21:54Z</time>
      </trkpt>
      <trkpt lat="44.87319" lon="5.70652">
        <ele>529.3</ele>
        <time>2019-11-01T14:21:56Z</time>
      </trkpt>
      <trkpt lat="44.87322" lon="5.70651">
        <ele>529.79</ele>
        <time>2019-11-01T14:21:58Z</time>
      </trkpt>
      <trkpt lat="44.87325" lon="5.70649">
        <ele>530.35</ele>
        <time>2019-11-01T14:22:00Z</time>
      </trkpt>
      <trkpt lat="44.87327" lon="5.70648">
        <ele>530.7</ele>
        <time>2019-11-01T14:22:01Z</time>
      </trkpt>
      <trkpt lat="44.87329" lon="5.70647">
        <ele>530.94</ele>
        <time>2019-11-01T14:22:02Z</time>
      </trkpt>
      <trkpt lat="44.87331" lon="5.70646">
        <ele>530.44</ele>
        <time>2019-11-01T14:22:04Z</time>
      </trkpt>
      <trkpt lat="44.87335" lon="5.70646">
        <ele>530.36</ele>
        <time>2019-11-01T14:22:06Z</time>
      </trkpt>
      <trkpt lat="44.87338" lon="5.70645">
        <ele>530.3</ele>
        <time>2019-11-01T14:22:08Z</time>
      </trkpt>
      <trkpt lat="44.87341" lon="5.70645">
        <ele>530.07</ele>
        <time>2019-11-01T14:22:10Z</time>
      </trkpt>
      <trkpt lat="44.87344" lon="5.70644">
        <ele>529.85</ele>
        <time>2019-11-01T14:22:12Z</time>
      </trkpt>
      <trkpt lat="44.87347" lon="5.70645">
        <ele>530.42</ele>
        <time>2019-11-01T14:22:14Z</time>
      </trkpt>
      <trkpt lat="44.8735" lon="5.70645">
        <ele>531.22</ele>
        <time>2019-11-01T14:22:16Z</time>
      </trkpt>
      <trkpt lat="44.87353" lon="5.70645">
        <ele>531.52</ele>
        <time>2019-11-01T14:22:18Z</time>
      </trkpt>
      <trkpt lat="44.87357" lon="5.70646">
        <ele>531.8</ele>
        <time>2019-11-01T14:22:20Z</time>
      </trkpt>
      <trkpt lat="44.8736" lon="5.70648">
        <ele>532.24</ele>
        <time>2019-11-01T14:22:22Z</time>
      </trkpt>
      <trkpt lat="44.87363" lon="5.70648">
        <ele>532.41</ele>
        <time>2019-11-01T14:22:24Z</time>
      </trkpt>
      <trkpt lat="44.87365" lon="5.70649">
        <ele>532.58</ele>
        <time>2019-11-01T14:22:25Z</time>
      </trkpt>
      <trkpt lat="44.87368" lon="5.70649">
        <ele>533.48</ele>
        <time>2019-11-01T14:22:27Z</time>
      </trkpt>
      <trkpt lat="44.8737" lon="5.70649">
        <ele>534.35</ele>
        <time>2019-11-01T14:22:29Z</time>
      </trkpt>
      <trkpt lat="44.87373" lon="5.70647">
        <ele>535.29</ele>
        <time>2019-11-01T14:22:31Z</time>
      </trkpt>
      <trkpt lat="44.87375" lon="5.70645">
        <ele>535.61</ele>
        <time>2019-11-01T14:22:32Z</time>
      </trkpt>
      <trkpt lat="44.87376" lon="5.70643">
        <ele>535.92</ele>
        <time>2019-11-01T14:22:33Z</time>
      </trkpt>
      <trkpt lat="44.87377" lon="5.7064">
        <ele>536.15</ele>
        <time>2019-11-01T14:22:34Z</time>
      </trkpt>
      <trkpt lat="44.87378" lon="5.70637">
        <ele>536.98</ele>
        <time>2019-11-01T14:22:36Z</time>
      </trkpt>
      <trkpt lat="44.87379" lon="5.70633">
        <ele>537.89</ele>
        <time>2019-11-01T14:22:38Z</time>
      </trkpt>
      <trkpt lat="44.8738" lon="5.70629">
        <ele>538.07</ele>
        <time>2019-11-01T14:22:39Z</time>
      </trkpt>
      <trkpt lat="44.87382" lon="5.70626">
        <ele>537.99</ele>
        <time>2019-11-01T14:22:40Z</time>
      </trkpt>
      <trkpt lat="44.87383" lon="5.70624">
        <ele>537.96</ele>
        <time>2019-11-01T14:22:41Z</time>
      </trkpt>
      <trkpt lat="44.87384" lon="5.7062">
        <ele>537.74</ele>
        <time>2019-11-01T14:22:43Z</time>
      </trkpt>
      <trkpt lat="44.87386" lon="5.70617">
        <ele>537.06</ele>
        <time>2019-11-01T14:22:45Z</time>
      </trkpt>
      <trkpt lat="44.87387" lon="5.70614">
        <ele>536.91</ele>
        <time>2019-11-01T14:22:46Z</time>
      </trkpt>
      <trkpt lat="44.87389" lon="5.70611">
        <ele>536.65</ele>
        <time>2019-11-01T14:22:48Z</time>
      </trkpt>
      <trkpt lat="44.87389" lon="5.70608">
        <ele>537.13</ele>
        <time>2019-11-01T14:22:50Z</time>
      </trkpt>
      <trkpt lat="44.8739" lon="5.70603">
        <ele>537.26</ele>
        <time>2019-11-01T14:22:52Z</time>
      </trkpt>
      <trkpt lat="44.8739" lon="5.70601">
        <ele>537.25</ele>
        <time>2019-11-01T14:22:53Z</time>
      </trkpt>
      <trkpt lat="44.87392" lon="5.70597">
        <ele>537.69</ele>
        <time>2019-11-01T14:22:55Z</time>
      </trkpt>
      <trkpt lat="44.87393" lon="5.70593">
        <ele>538.57</ele>
        <time>2019-11-01T14:22:57Z</time>
      </trkpt>
      <trkpt lat="44.87394" lon="5.70588">
        <ele>538.8</ele>
        <time>2019-11-01T14:22:59Z</time>
      </trkpt>
      <trkpt lat="44.87396" lon="5.70585">
        <ele>538.98</ele>
        <time>2019-11-01T14:23:01Z</time>
      </trkpt>
      <trkpt lat="44.87398" lon="5.70583">
        <ele>539.48</ele>
        <time>2019-11-01T14:23:03Z</time>
      </trkpt>
      <trkpt lat="44.87401" lon="5.70582">
        <ele>539.59</ele>
        <time>2019-11-01T14:23:05Z</time>
      </trkpt>
      <trkpt lat="44.87404" lon="5.70582">
        <ele>540.08</ele>
        <time>2019-11-01T14:23:07Z</time>
      </trkpt>
      <trkpt lat="44.87407" lon="5.70583">
        <ele>540.67</ele>
        <time>2019-11-01T14:23:09Z</time>
      </trkpt>
      <trkpt lat="44.87409" lon="5.70584">
        <ele>541.48</ele>
        <time>2019-11-01T14:23:11Z</time>
      </trkpt>
      <trkpt lat="44.87412" lon="5.70586">
        <ele>541.77</ele>
        <time>2019-11-01T14:23:13Z</time>
      </trkpt>
      <trkpt lat="44.87414" lon="5.7059">
        <ele>542.35</ele>
        <time>2019-11-01T14:23:15Z</time>
      </trkpt>
      <trkpt lat="44.87416" lon="5.70594">
        <ele>542.67</ele>
        <time>2019-11-01T14:23:17Z</time>
      </trkpt>
      <trkpt lat="44.87417" lon="5.70598">
        <ele>543.2</ele>
        <time>2019-11-01T14:23:19Z</time>
      </trkpt>
      <trkpt lat="44.87419" lon="5.70601">
        <ele>543.68</ele>
        <time>2019-11-01T14:23:21Z</time>
      </trkpt>
      <trkpt lat="44.8742" lon="5.70606">
        <ele>544.62</ele>
        <time>2019-11-01T14:23:23Z</time>
      </trkpt>
      <trkpt lat="44.8742" lon="5.70609">
        <ele>545.13</ele>
        <time>2019-11-01T14:23:24Z</time>
      </trkpt>
      <trkpt lat="44.8742" lon="5.70611">
        <ele>545.7</ele>
        <time>2019-11-01T14:23:25Z</time>
      </trkpt>
      <trkpt lat="44.87421" lon="5.70614">
        <ele>546.51</ele>
        <time>2019-11-01T14:23:26Z</time>
      </trkpt>
      <trkpt lat="44.87422" lon="5.70617">
        <ele>547.57</ele>
        <time>2019-11-01T14:23:28Z</time>
      </trkpt>
      <trkpt lat="44.87423" lon="5.70621">
        <ele>548.38</ele>
        <time>2019-11-01T14:23:30Z</time>
      </trkpt>
      <trkpt lat="44.87423" lon="5.70625">
        <ele>549.13</ele>
        <time>2019-11-01T14:23:32Z</time>
      </trkpt>
      <trkpt lat="44.87425" lon="5.7063">
        <ele>549.58</ele>
        <time>2019-11-01T14:23:34Z</time>
      </trkpt>
      <trkpt lat="44.87425" lon="5.70634">
        <ele>549.87</ele>
        <time>2019-11-01T14:23:36Z</time>
      </trkpt>
      <trkpt lat="44.87425" lon="5.70638">
        <ele>550.91</ele>
        <time>2019-11-01T14:23:38Z</time>
      </trkpt>
      <trkpt lat="44.87426" lon="5.70641">
        <ele>551.84</ele>
        <time>2019-11-01T14:23:40Z</time>
      </trkpt>
      <trkpt lat="44.87426" lon="5.70645">
        <ele>552.7</ele>
        <time>2019-11-01T14:23:42Z</time>
      </trkpt>
      <trkpt lat="44.87428" lon="5.70648">
        <ele>552.81</ele>
        <time>2019-11-01T14:23:44Z</time>
      </trkpt>
      <trkpt lat="44.87429" lon="5.70652">
        <ele>552.75</ele>
        <time>2019-11-01T14:23:46Z</time>
      </trkpt>
      <trkpt lat="44.87429" lon="5.70657">
        <ele>553.18</ele>
        <time>2019-11-01T14:23:48Z</time>
      </trkpt>
      <trkpt lat="44.8743" lon="5.70661">
        <ele>553.82</ele>
        <time>2019-11-01T14:23:50Z</time>
      </trkpt>
      <trkpt lat="44.8743" lon="5.70665">
        <ele>554.42</ele>
        <time>2019-11-01T14:23:52Z</time>
      </trkpt>
      <trkpt lat="44.87431" lon="5.70669">
        <ele>554.67</ele>
        <time>2019-11-01T14:23:54Z</time>
      </trkpt>
      <trkpt lat="44.87432" lon="5.70674">
        <ele>554.65</ele>
        <time>2019-11-01T14:23:56Z</time>
      </trkpt>
      <trkpt lat="44.87433" lon="5.70677">
        <ele>554.95</ele>
        <time>2019-11-01T14:23:58Z</time>
      </trkpt>
      <trkpt lat="44.87433" lon="5.70681">
        <ele>555.29</ele>
        <time>2019-11-01T14:24:00Z</time>
      </trkpt>
      <trkpt lat="44.87434" lon="5.70684">
        <ele>555.4</ele>
        <time>2019-11-01T14:24:01Z</time>
      </trkpt>
      <trkpt lat="44.87434" lon="5.70688">
        <ele>556.27</ele>
        <time>2019-11-01T14:24:03Z</time>
      </trkpt>
      <trkpt lat="44.87434" lon="5.70692">
        <ele>556.82</ele>
        <time>2019-11-01T14:24:05Z</time>
      </trkpt>
      <trkpt lat="44.87434" lon="5.70697">
        <ele>557.42</ele>
        <time>2019-11-01T14:24:07Z</time>
      </trkpt>
      <trkpt lat="44.87434" lon="5.707">
        <ele>557.72</ele>
        <time>2019-11-01T14:24:08Z</time>
      </trkpt>
      <trkpt lat="44.87433" lon="5.70704">
        <ele>558.64</ele>
        <time>2019-11-01T14:24:10Z</time>
      </trkpt>
      <trkpt lat="44.87432" lon="5.70708">
        <ele>559.64</ele>
        <time>2019-11-01T14:24:12Z</time>
      </trkpt>
      <trkpt lat="44.87431" lon="5.70711">
        <ele>560.13</ele>
        <time>2019-11-01T14:24:13Z</time>
      </trkpt>
      <trkpt lat="44.87429" lon="5.70714">
        <ele>560.67</ele>
        <time>2019-11-01T14:24:15Z</time>
      </trkpt>
      <trkpt lat="44.87427" lon="5.70719">
        <ele>560.76</ele>
        <time>2019-11-01T14:24:17Z</time>
      </trkpt>
      <trkpt lat="44.87426" lon="5.70722">
        <ele>561.21</ele>
        <time>2019-11-01T14:24:19Z</time>
      </trkpt>
      <trkpt lat="44.87425" lon="5.70726">
        <ele>561.57</ele>
        <time>2019-11-01T14:24:21Z</time>
      </trkpt>
      <trkpt lat="44.87424" lon="5.7073">
        <ele>562.31</ele>
        <time>2019-11-01T14:24:23Z</time>
      </trkpt>
      <trkpt lat="44.87423" lon="5.70735">
        <ele>563.31</ele>
        <time>2019-11-01T14:24:25Z</time>
      </trkpt>
      <trkpt lat="44.87423" lon="5.70737">
        <ele>563.69</ele>
        <time>2019-11-01T14:24:26Z</time>
      </trkpt>
      <trkpt lat="44.87422" lon="5.70741">
        <ele>564.09</ele>
        <time>2019-11-01T14:24:28Z</time>
      </trkpt>
      <trkpt lat="44.87422" lon="5.70744">
        <ele>564.27</ele>
        <time>2019-11-01T14:24:29Z</time>
      </trkpt>
      <trkpt lat="44.87421" lon="5.70746">
        <ele>564.47</ele>
        <time>2019-11-01T14:24:30Z</time>
      </trkpt>
      <trkpt lat="44.87421" lon="5.70749">
        <ele>564.8</ele>
        <time>2019-11-01T14:24:31Z</time>
      </trkpt>
      <trkpt lat="44.8742" lon="5.70752">
        <ele>565.12</ele>
        <time>2019-11-01T14:24:32Z</time>
      </trkpt>
      <trkpt lat="44.8742" lon="5.70755">
        <ele>565.21</ele>
        <time>2019-11-01T14:24:33Z</time>
      </trkpt>
      <trkpt lat="44.8742" lon="5.70759">
        <ele>565.34</ele>
        <time>2019-11-01T14:24:35Z</time>
      </trkpt>
      <trkpt lat="44.87419" lon="5.70762">
        <ele>565.42</ele>
        <time>2019-11-01T14:24:36Z</time>
      </trkpt>
      <trkpt lat="44.87419" lon="5.70764">
        <ele>565.58</ele>
        <time>2019-11-01T14:24:37Z</time>
      </trkpt>
      <trkpt lat="44.87419" lon="5.70769">
        <ele>565.89</ele>
        <time>2019-11-01T14:24:39Z</time>
      </trkpt>
      <trkpt lat="44.87419" lon="5.70774">
        <ele>565.99</ele>
        <time>2019-11-01T14:24:41Z</time>
      </trkpt>
      <trkpt lat="44.8742" lon="5.70779">
        <ele>566.41</ele>
        <time>2019-11-01T14:24:43Z</time>
      </trkpt>
      <trkpt lat="44.8742" lon="5.70783">
        <ele>566.97</ele>
        <time>2019-11-01T14:24:45Z</time>
      </trkpt>
      <trkpt lat="44.87421" lon="5.70788">
        <ele>567.55</ele>
        <time>2019-11-01T14:24:47Z</time>
      </trkpt>
      <trkpt lat="44.87423" lon="5.70792">
        <ele>568.26</ele>
        <time>2019-11-01T14:24:49Z</time>
      </trkpt>
      <trkpt lat="44.87426" lon="5.70795">
        <ele>568.92</ele>
        <time>2019-11-01T14:24:51Z</time>
      </trkpt>
      <trkpt lat="44.87427" lon="5.70798">
        <ele>568.99</ele>
        <time>2019-11-01T14:24:53Z</time>
      </trkpt>
      <trkpt lat="44.8743" lon="5.70801">
        <ele>568.7</ele>
        <time>2019-11-01T14:24:55Z</time>
      </trkpt>
      <trkpt lat="44.87432" lon="5.70804">
        <ele>568.72</ele>
        <time>2019-11-01T14:24:57Z</time>
      </trkpt>
      <trkpt lat="44.87435" lon="5.70808">
        <ele>569.23</ele>
        <time>2019-11-01T14:24:59Z</time>
      </trkpt>
      <trkpt lat="44.87436" lon="5.7081">
        <ele>569.52</ele>
        <time>2019-11-01T14:25:00Z</time>
      </trkpt>
      <trkpt lat="44.87438" lon="5.70812">
        <ele>569.96</ele>
        <time>2019-11-01T14:25:01Z</time>
      </trkpt>
      <trkpt lat="44.87441" lon="5.70814">
        <ele>570.8</ele>
        <time>2019-11-01T14:25:03Z</time>
      </trkpt>
      <trkpt lat="44.87443" lon="5.70815">
        <ele>571.11</ele>
        <time>2019-11-01T14:25:04Z</time>
      </trkpt>
      <trkpt lat="44.87444" lon="5.70816">
        <ele>571.42</ele>
        <time>2019-11-01T14:25:05Z</time>
      </trkpt>
      <trkpt lat="44.87447" lon="5.70819">
        <ele>571.95</ele>
        <time>2019-11-01T14:25:07Z</time>
      </trkpt>
      <trkpt lat="44.87449" lon="5.7082">
        <ele>572.51</ele>
        <time>2019-11-01T14:25:08Z</time>
      </trkpt>
      <trkpt lat="44.87451" lon="5.70823">
        <ele>573.16</ele>
        <time>2019-11-01T14:25:10Z</time>
      </trkpt>
      <trkpt lat="44.87453" lon="5.70825">
        <ele>573.36</ele>
        <time>2019-11-01T14:25:11Z</time>
      </trkpt>
      <trkpt lat="44.87454" lon="5.70825">
        <ele>573.56</ele>
        <time>2019-11-01T14:25:12Z</time>
      </trkpt>
      <trkpt lat="44.87456" lon="5.70825">
        <ele>573.69</ele>
        <time>2019-11-01T14:25:13Z</time>
      </trkpt>
      <trkpt lat="44.87459" lon="5.70828">
        <ele>574.02</ele>
        <time>2019-11-01T14:25:15Z</time>
      </trkpt>
      <trkpt lat="44.87462" lon="5.7083">
        <ele>573.96</ele>
        <time>2019-11-01T14:25:17Z</time>
      </trkpt>
      <trkpt lat="44.87464" lon="5.70833">
        <ele>574.18</ele>
        <time>2019-11-01T14:25:19Z</time>
      </trkpt>
      <trkpt lat="44.87466" lon="5.70836">
        <ele>574.91</ele>
        <time>2019-11-01T14:25:21Z</time>
      </trkpt>
      <trkpt lat="44.87468" lon="5.70839">
        <ele>575.52</ele>
        <time>2019-11-01T14:25:23Z</time>
      </trkpt>
      <trkpt lat="44.8747" lon="5.7084">
        <ele>576.05</ele>
        <time>2019-11-01T14:25:25Z</time>
      </trkpt>
      <trkpt lat="44.87474" lon="5.70842">
        <ele>576.74</ele>
        <time>2019-11-01T14:25:27Z</time>
      </trkpt>
      <trkpt lat="44.87476" lon="5.70842">
        <ele>577.17</ele>
        <time>2019-11-01T14:25:28Z</time>
      </trkpt>
      <trkpt lat="44.87479" lon="5.70843">
        <ele>577.42</ele>
        <time>2019-11-01T14:25:30Z</time>
      </trkpt>
      <trkpt lat="44.87481" lon="5.70843">
        <ele>577.65</ele>
        <time>2019-11-01T14:25:31Z</time>
      </trkpt>
      <trkpt lat="44.87484" lon="5.70845">
        <ele>578.34</ele>
        <time>2019-11-01T14:25:33Z</time>
      </trkpt>
      <trkpt lat="44.87486" lon="5.70846">
        <ele>578.69</ele>
        <time>2019-11-01T14:25:34Z</time>
      </trkpt>
      <trkpt lat="44.87489" lon="5.70847">
        <ele>578.91</ele>
        <time>2019-11-01T14:25:36Z</time>
      </trkpt>
      <trkpt lat="44.87491" lon="5.70849">
        <ele>579.41</ele>
        <time>2019-11-01T14:25:38Z</time>
      </trkpt>
      <trkpt lat="44.87493" lon="5.70851">
        <ele>580.48</ele>
        <time>2019-11-01T14:25:40Z</time>
      </trkpt>
      <trkpt lat="44.87496" lon="5.7085">
        <ele>581.87</ele>
        <time>2019-11-01T14:25:42Z</time>
      </trkpt>
      <trkpt lat="44.87499" lon="5.7085">
        <ele>583</ele>
        <time>2019-11-01T14:25:44Z</time>
      </trkpt>
      <trkpt lat="44.87502" lon="5.7085">
        <ele>584.23</ele>
        <time>2019-11-01T14:25:46Z</time>
      </trkpt>
      <trkpt lat="44.87504" lon="5.7085">
        <ele>584.66</ele>
        <time>2019-11-01T14:25:47Z</time>
      </trkpt>
      <trkpt lat="44.87508" lon="5.70848">
        <ele>585.39</ele>
        <time>2019-11-01T14:25:49Z</time>
      </trkpt>
      <trkpt lat="44.87511" lon="5.70846">
        <ele>586.07</ele>
        <time>2019-11-01T14:25:51Z</time>
      </trkpt>
      <trkpt lat="44.87513" lon="5.70843">
        <ele>586.88</ele>
        <time>2019-11-01T14:25:53Z</time>
      </trkpt>
      <trkpt lat="44.87516" lon="5.7084">
        <ele>587.66</ele>
        <time>2019-11-01T14:25:55Z</time>
      </trkpt>
      <trkpt lat="44.87517" lon="5.70839">
        <ele>589.07</ele>
        <time>2019-11-01T14:25:57Z</time>
      </trkpt>
      <trkpt lat="44.8752" lon="5.70836">
        <ele>590.68</ele>
        <time>2019-11-01T14:26:00Z</time>
      </trkpt>
      <trkpt lat="44.87522" lon="5.70834">
        <ele>591.06</ele>
        <time>2019-11-01T14:26:02Z</time>
      </trkpt>
      <trkpt lat="44.87524" lon="5.70835">
        <ele>591.06</ele>
        <time>2019-11-01T14:26:04Z</time>
      </trkpt>
      <trkpt lat="44.87526" lon="5.70836">
        <ele>591.05</ele>
        <time>2019-11-01T14:26:05Z</time>
      </trkpt>
      <trkpt lat="44.87529" lon="5.70839">
        <ele>591.74</ele>
        <time>2019-11-01T14:26:07Z</time>
      </trkpt>
      <trkpt lat="44.8753" lon="5.70844">
        <ele>592.69</ele>
        <time>2019-11-01T14:26:09Z</time>
      </trkpt>
      <trkpt lat="44.87529" lon="5.70848">
        <ele>593.39</ele>
        <time>2019-11-01T14:26:11Z</time>
      </trkpt>
      <trkpt lat="44.8753" lon="5.70851">
        <ele>593.93</ele>
        <time>2019-11-01T14:26:13Z</time>
      </trkpt>
      <trkpt lat="44.87531" lon="5.70855">
        <ele>594.34</ele>
        <time>2019-11-01T14:26:15Z</time>
      </trkpt>
      <trkpt lat="44.87531" lon="5.70858">
        <ele>594.87</ele>
        <time>2019-11-01T14:26:17Z</time>
      </trkpt>
      <trkpt lat="44.87532" lon="5.70862">
        <ele>595.43</ele>
        <time>2019-11-01T14:26:19Z</time>
      </trkpt>
      <trkpt lat="44.87531" lon="5.70867">
        <ele>595.88</ele>
        <time>2019-11-01T14:26:21Z</time>
      </trkpt>
      <trkpt lat="44.87531" lon="5.70872">
        <ele>596.26</ele>
        <time>2019-11-01T14:26:23Z</time>
      </trkpt>
      <trkpt lat="44.87531" lon="5.70875">
        <ele>596.39</ele>
        <time>2019-11-01T14:26:24Z</time>
      </trkpt>
      <trkpt lat="44.8753" lon="5.70878">
        <ele>596.5</ele>
        <time>2019-11-01T14:26:25Z</time>
      </trkpt>
      <trkpt lat="44.8753" lon="5.7088">
        <ele>596.68</ele>
        <time>2019-11-01T14:26:26Z</time>
      </trkpt>
      <trkpt lat="44.87531" lon="5.70884">
        <ele>596.81</ele>
        <time>2019-11-01T14:26:28Z</time>
      </trkpt>
      <trkpt lat="44.87531" lon="5.70888">
        <ele>596.78</ele>
        <time>2019-11-01T14:26:30Z</time>
      </trkpt>
      <trkpt lat="44.8753" lon="5.70893">
        <ele>597.21</ele>
        <time>2019-11-01T14:26:32Z</time>
      </trkpt>
      <trkpt lat="44.87529" lon="5.70896">
        <ele>597.66</ele>
        <time>2019-11-01T14:26:33Z</time>
      </trkpt>
      <trkpt lat="44.87529" lon="5.709">
        <ele>598.64</ele>
        <time>2019-11-01T14:26:35Z</time>
      </trkpt>
      <trkpt lat="44.87528" lon="5.70903">
        <ele>598.93</ele>
        <time>2019-11-01T14:26:36Z</time>
      </trkpt>
      <trkpt lat="44.87527" lon="5.70905">
        <ele>599.15</ele>
        <time>2019-11-01T14:26:37Z</time>
      </trkpt>
      <trkpt lat="44.87525" lon="5.7091">
        <ele>599.74</ele>
        <time>2019-11-01T14:26:39Z</time>
      </trkpt>
      <trkpt lat="44.87525" lon="5.70913">
        <ele>599.96</ele>
        <time>2019-11-01T14:26:40Z</time>
      </trkpt>
      <trkpt lat="44.87524" lon="5.70916">
        <ele>600.23</ele>
        <time>2019-11-01T14:26:41Z</time>
      </trkpt>
      <trkpt lat="44.87523" lon="5.7092">
        <ele>600.68</ele>
        <time>2019-11-01T14:26:43Z</time>
      </trkpt>
      <trkpt lat="44.87522" lon="5.70924">
        <ele>600.58</ele>
        <time>2019-11-01T14:26:45Z</time>
      </trkpt>
      <trkpt lat="44.87521" lon="5.70927">
        <ele>600.23</ele>
        <time>2019-11-01T14:26:47Z</time>
      </trkpt>
      <trkpt lat="44.87519" lon="5.7093">
        <ele>600.04</ele>
        <time>2019-11-01T14:26:49Z</time>
      </trkpt>
      <trkpt lat="44.87516" lon="5.70932">
        <ele>599.7</ele>
        <time>2019-11-01T14:26:50Z</time>
      </trkpt>
      <trkpt lat="44.87514" lon="5.70934">
        <ele>599.52</ele>
        <time>2019-11-01T14:26:51Z</time>
      </trkpt>
      <trkpt lat="44.87512" lon="5.70936">
        <ele>599.61</ele>
        <time>2019-11-01T14:26:52Z</time>
      </trkpt>
      <trkpt lat="44.87511" lon="5.70938">
        <ele>599.78</ele>
        <time>2019-11-01T14:26:53Z</time>
      </trkpt>
      <trkpt lat="44.87509" lon="5.70939">
        <ele>599.97</ele>
        <time>2019-11-01T14:26:54Z</time>
      </trkpt>
      <trkpt lat="44.87506" lon="5.70942">
        <ele>600.43</ele>
        <time>2019-11-01T14:26:56Z</time>
      </trkpt>
      <trkpt lat="44.87503" lon="5.70944">
        <ele>601.27</ele>
        <time>2019-11-01T14:26:58Z</time>
      </trkpt>
      <trkpt lat="44.87502" lon="5.70946">
        <ele>601.54</ele>
        <time>2019-11-01T14:26:59Z</time>
      </trkpt>
      <trkpt lat="44.875" lon="5.70948">
        <ele>601.83</ele>
        <time>2019-11-01T14:27:00Z</time>
      </trkpt>
      <trkpt lat="44.87498" lon="5.7095">
        <ele>601.98</ele>
        <time>2019-11-01T14:27:01Z</time>
      </trkpt>
      <trkpt lat="44.87496" lon="5.70952">
        <ele>602.24</ele>
        <time>2019-11-01T14:27:02Z</time>
      </trkpt>
      <trkpt lat="44.87493" lon="5.70954">
        <ele>602.91</ele>
        <time>2019-11-01T14:27:04Z</time>
      </trkpt>
      <trkpt lat="44.87491" lon="5.70955">
        <ele>603.22</ele>
        <time>2019-11-01T14:27:05Z</time>
      </trkpt>
      <trkpt lat="44.87489" lon="5.70957">
        <ele>603.63</ele>
        <time>2019-11-01T14:27:07Z</time>
      </trkpt>
      <trkpt lat="44.87485" lon="5.7096">
        <ele>603.92</ele>
        <time>2019-11-01T14:27:09Z</time>
      </trkpt>
      <trkpt lat="44.87484" lon="5.70961">
        <ele>603.73</ele>
        <time>2019-11-01T14:27:10Z</time>
      </trkpt>
      <trkpt lat="44.87482" lon="5.70962">
        <ele>603.39</ele>
        <time>2019-11-01T14:27:11Z</time>
      </trkpt>
      <trkpt lat="44.8748" lon="5.70963">
        <ele>603.36</ele>
        <time>2019-11-01T14:27:12Z</time>
      </trkpt>
      <trkpt lat="44.87478" lon="5.70965">
        <ele>603.56</ele>
        <time>2019-11-01T14:27:13Z</time>
      </trkpt>
      <trkpt lat="44.87475" lon="5.70967">
        <ele>604.12</ele>
        <time>2019-11-01T14:27:15Z</time>
      </trkpt>
      <trkpt lat="44.87472" lon="5.7097">
        <ele>604.15</ele>
        <time>2019-11-01T14:27:17Z</time>
      </trkpt>
      <trkpt lat="44.8747" lon="5.70972">
        <ele>604.01</ele>
        <time>2019-11-01T14:27:18Z</time>
      </trkpt>
      <trkpt lat="44.87469" lon="5.70974">
        <ele>604.04</ele>
        <time>2019-11-01T14:27:19Z</time>
      </trkpt>
      <trkpt lat="44.87467" lon="5.70976">
        <ele>603.91</ele>
        <time>2019-11-01T14:27:20Z</time>
      </trkpt>
      <trkpt lat="44.87465" lon="5.70979">
        <ele>603.66</ele>
        <time>2019-11-01T14:27:21Z</time>
      </trkpt>
      <trkpt lat="44.87463" lon="5.7098">
        <ele>603.65</ele>
        <time>2019-11-01T14:27:22Z</time>
      </trkpt>
      <trkpt lat="44.87461" lon="5.70982">
        <ele>603.44</ele>
        <time>2019-11-01T14:27:23Z</time>
      </trkpt>
      <trkpt lat="44.87459" lon="5.70983">
        <ele>603.66</ele>
        <time>2019-11-01T14:27:24Z</time>
      </trkpt>
      <trkpt lat="44.87457" lon="5.70985">
        <ele>604.14</ele>
        <time>2019-11-01T14:27:25Z</time>
      </trkpt>
      <trkpt lat="44.87454" lon="5.70988">
        <ele>604.39</ele>
        <time>2019-11-01T14:27:27Z</time>
      </trkpt>
      <trkpt lat="44.87453" lon="5.70989">
        <ele>604.29</ele>
        <time>2019-11-01T14:27:28Z</time>
      </trkpt>
      <trkpt lat="44.87451" lon="5.70991">
        <ele>604.26</ele>
        <time>2019-11-01T14:27:29Z</time>
      </trkpt>
      <trkpt lat="44.87449" lon="5.70993">
        <ele>604.39</ele>
        <time>2019-11-01T14:27:30Z</time>
      </trkpt>
      <trkpt lat="44.87447" lon="5.70995">
        <ele>604.78</ele>
        <time>2019-11-01T14:27:31Z</time>
      </trkpt>
      <trkpt lat="44.87446" lon="5.70997">
        <ele>605.11</ele>
        <time>2019-11-01T14:27:32Z</time>
      </trkpt>
      <trkpt lat="44.87444" lon="5.70999">
        <ele>605.07</ele>
        <time>2019-11-01T14:27:33Z</time>
      </trkpt>
      <trkpt lat="44.87442" lon="5.71001">
        <ele>604.82</ele>
        <time>2019-11-01T14:27:35Z</time>
      </trkpt>
      <trkpt lat="44.8744" lon="5.71004">
        <ele>604.49</ele>
        <time>2019-11-01T14:27:36Z</time>
      </trkpt>
      <trkpt lat="44.87438" lon="5.71006">
        <ele>604.18</ele>
        <time>2019-11-01T14:27:37Z</time>
      </trkpt>
      <trkpt lat="44.87436" lon="5.71008">
        <ele>603.67</ele>
        <time>2019-11-01T14:27:38Z</time>
      </trkpt>
      <trkpt lat="44.87435" lon="5.7101">
        <ele>602.6</ele>
        <time>2019-11-01T14:27:39Z</time>
      </trkpt>
      <trkpt lat="44.87433" lon="5.71012">
        <ele>601.8</ele>
        <time>2019-11-01T14:27:40Z</time>
      </trkpt>
      <trkpt lat="44.87431" lon="5.71015">
        <ele>601.83</ele>
        <time>2019-11-01T14:27:41Z</time>
      </trkpt>
      <trkpt lat="44.87429" lon="5.71018">
        <ele>601.77</ele>
        <time>2019-11-01T14:27:42Z</time>
      </trkpt>
      <trkpt lat="44.87426" lon="5.71021">
        <ele>601.55</ele>
        <time>2019-11-01T14:27:43Z</time>
      </trkpt>
      <trkpt lat="44.87424" lon="5.71024">
        <ele>601.2</ele>
        <time>2019-11-01T14:27:44Z</time>
      </trkpt>
      <trkpt lat="44.87422" lon="5.71028">
        <ele>600.88</ele>
        <time>2019-11-01T14:27:45Z</time>
      </trkpt>
      <trkpt lat="44.8742" lon="5.71031">
        <ele>600.93</ele>
        <time>2019-11-01T14:27:46Z</time>
      </trkpt>
      <trkpt lat="44.87418" lon="5.71034">
        <ele>601.08</ele>
        <time>2019-11-01T14:27:47Z</time>
      </trkpt>
      <trkpt lat="44.87416" lon="5.71038">
        <ele>601.34</ele>
        <time>2019-11-01T14:27:48Z</time>
      </trkpt>
      <trkpt lat="44.87414" lon="5.71042">
        <ele>601.63</ele>
        <time>2019-11-01T14:27:49Z</time>
      </trkpt>
      <trkpt lat="44.87413" lon="5.71045">
        <ele>601.92</ele>
        <time>2019-11-01T14:27:50Z</time>
      </trkpt>
      <trkpt lat="44.87411" lon="5.71049">
        <ele>602.36</ele>
        <time>2019-11-01T14:27:51Z</time>
      </trkpt>
      <trkpt lat="44.87409" lon="5.71053">
        <ele>602.49</ele>
        <time>2019-11-01T14:27:52Z</time>
      </trkpt>
      <trkpt lat="44.87408" lon="5.71056">
        <ele>602.6</ele>
        <time>2019-11-01T14:27:53Z</time>
      </trkpt>
      <trkpt lat="44.87406" lon="5.71059">
        <ele>602.98</ele>
        <time>2019-11-01T14:27:54Z</time>
      </trkpt>
      <trkpt lat="44.87405" lon="5.71064">
        <ele>603.1</ele>
        <time>2019-11-01T14:27:55Z</time>
      </trkpt>
      <trkpt lat="44.87404" lon="5.71069">
        <ele>603.2</ele>
        <time>2019-11-01T14:27:56Z</time>
      </trkpt>
      <trkpt lat="44.87404" lon="5.71074">
        <ele>603.17</ele>
        <time>2019-11-01T14:27:57Z</time>
      </trkpt>
      <trkpt lat="44.87404" lon="5.71079">
        <ele>602.87</ele>
        <time>2019-11-01T14:27:58Z</time>
      </trkpt>
      <trkpt lat="44.87404" lon="5.71085">
        <ele>602.37</ele>
        <time>2019-11-01T14:27:59Z</time>
      </trkpt>
      <trkpt lat="44.87404" lon="5.71091">
        <ele>602</ele>
        <time>2019-11-01T14:28:00Z</time>
      </trkpt>
      <trkpt lat="44.87404" lon="5.71097">
        <ele>601.83</ele>
        <time>2019-11-01T14:28:01Z</time>
      </trkpt>
      <trkpt lat="44.87405" lon="5.71103">
        <ele>601.7</ele>
        <time>2019-11-01T14:28:02Z</time>
      </trkpt>
      <trkpt lat="44.87405" lon="5.71108">
        <ele>601.52</ele>
        <time>2019-11-01T14:28:03Z</time>
      </trkpt>
      <trkpt lat="44.87404" lon="5.71114">
        <ele>601.61</ele>
        <time>2019-11-01T14:28:04Z</time>
      </trkpt>
      <trkpt lat="44.87403" lon="5.71119">
        <ele>601.71</ele>
        <time>2019-11-01T14:28:05Z</time>
      </trkpt>
      <trkpt lat="44.87403" lon="5.71125">
        <ele>601.53</ele>
        <time>2019-11-01T14:28:06Z</time>
      </trkpt>
      <trkpt lat="44.87402" lon="5.71131">
        <ele>601.26</ele>
        <time>2019-11-01T14:28:07Z</time>
      </trkpt>
      <trkpt lat="44.87401" lon="5.71136">
        <ele>601.04</ele>
        <time>2019-11-01T14:28:08Z</time>
      </trkpt>
      <trkpt lat="44.874" lon="5.71142">
        <ele>600.84</ele>
        <time>2019-11-01T14:28:09Z</time>
      </trkpt>
      <trkpt lat="44.87399" lon="5.71148">
        <ele>600.64</ele>
        <time>2019-11-01T14:28:10Z</time>
      </trkpt>
      <trkpt lat="44.87398" lon="5.71154">
        <ele>600.5</ele>
        <time>2019-11-01T14:28:11Z</time>
      </trkpt>
      <trkpt lat="44.87397" lon="5.7116">
        <ele>600.47</ele>
        <time>2019-11-01T14:28:12Z</time>
      </trkpt>
      <trkpt lat="44.87395" lon="5.71167">
        <ele>600.38</ele>
        <time>2019-11-01T14:28:13Z</time>
      </trkpt>
      <trkpt lat="44.87393" lon="5.71173">
        <ele>600.22</ele>
        <time>2019-11-01T14:28:14Z</time>
      </trkpt>
      <trkpt lat="44.87391" lon="5.7118">
        <ele>599.89</ele>
        <time>2019-11-01T14:28:15Z</time>
      </trkpt>
      <trkpt lat="44.87388" lon="5.71186">
        <ele>599.58</ele>
        <time>2019-11-01T14:28:16Z</time>
      </trkpt>
      <trkpt lat="44.87387" lon="5.71192">
        <ele>599.28</ele>
        <time>2019-11-01T14:28:17Z</time>
      </trkpt>
      <trkpt lat="44.87384" lon="5.71198">
        <ele>599.4</ele>
        <time>2019-11-01T14:28:18Z</time>
      </trkpt>
      <trkpt lat="44.87382" lon="5.71204">
        <ele>599.29</ele>
        <time>2019-11-01T14:28:19Z</time>
      </trkpt>
      <trkpt lat="44.8738" lon="5.71211">
        <ele>598.98</ele>
        <time>2019-11-01T14:28:20Z</time>
      </trkpt>
      <trkpt lat="44.87377" lon="5.71217">
        <ele>598.82</ele>
        <time>2019-11-01T14:28:21Z</time>
      </trkpt>
      <trkpt lat="44.87375" lon="5.71223">
        <ele>598.91</ele>
        <time>2019-11-01T14:28:22Z</time>
      </trkpt>
      <trkpt lat="44.87373" lon="5.71229">
        <ele>599.36</ele>
        <time>2019-11-01T14:28:23Z</time>
      </trkpt>
      <trkpt lat="44.87371" lon="5.71236">
        <ele>599.7</ele>
        <time>2019-11-01T14:28:24Z</time>
      </trkpt>
      <trkpt lat="44.87369" lon="5.71243">
        <ele>599.52</ele>
        <time>2019-11-01T14:28:25Z</time>
      </trkpt>
      <trkpt lat="44.87367" lon="5.71249">
        <ele>599.4</ele>
        <time>2019-11-01T14:28:26Z</time>
      </trkpt>
      <trkpt lat="44.87367" lon="5.71256">
        <ele>599.22</ele>
        <time>2019-11-01T14:28:27Z</time>
      </trkpt>
      <trkpt lat="44.87365" lon="5.71264">
        <ele>599.17</ele>
        <time>2019-11-01T14:28:28Z</time>
      </trkpt>
      <trkpt lat="44.87364" lon="5.71272">
        <ele>599.44</ele>
        <time>2019-11-01T14:28:29Z</time>
      </trkpt>
      <trkpt lat="44.87363" lon="5.71279">
        <ele>599.73</ele>
        <time>2019-11-01T14:28:30Z</time>
      </trkpt>
      <trkpt lat="44.87362" lon="5.71285">
        <ele>600.16</ele>
        <time>2019-11-01T14:28:31Z</time>
      </trkpt>
      <trkpt lat="44.8736" lon="5.71292">
        <ele>600.78</ele>
        <time>2019-11-01T14:28:32Z</time>
      </trkpt>
      <trkpt lat="44.87359" lon="5.71299">
        <ele>601.6</ele>
        <time>2019-11-01T14:28:33Z</time>
      </trkpt>
      <trkpt lat="44.87357" lon="5.71305">
        <ele>603.03</ele>
        <time>2019-11-01T14:28:34Z</time>
      </trkpt>
      <trkpt lat="44.87354" lon="5.71312">
        <ele>603.53</ele>
        <time>2019-11-01T14:28:35Z</time>
      </trkpt>
      <trkpt lat="44.87352" lon="5.71318">
        <ele>603.47</ele>
        <time>2019-11-01T14:28:36Z</time>
      </trkpt>
      <trkpt lat="44.8735" lon="5.71323">
        <ele>603.53</ele>
        <time>2019-11-01T14:28:37Z</time>
      </trkpt>
      <trkpt lat="44.87348" lon="5.71329">
        <ele>603.82</ele>
        <time>2019-11-01T14:28:38Z</time>
      </trkpt>
      <trkpt lat="44.87345" lon="5.71334">
        <ele>603.91</ele>
        <time>2019-11-01T14:28:39Z</time>
      </trkpt>
      <trkpt lat="44.87343" lon="5.71339">
        <ele>603.94</ele>
        <time>2019-11-01T14:28:40Z</time>
      </trkpt>
      <trkpt lat="44.87341" lon="5.71344">
        <ele>604.3</ele>
        <time>2019-11-01T14:28:41Z</time>
      </trkpt>
      <trkpt lat="44.87338" lon="5.7135">
        <ele>604.33</ele>
        <time>2019-11-01T14:28:42Z</time>
      </trkpt>
      <trkpt lat="44.87336" lon="5.71355">
        <ele>604.13</ele>
        <time>2019-11-01T14:28:43Z</time>
      </trkpt>
      <trkpt lat="44.87334" lon="5.7136">
        <ele>604</ele>
        <time>2019-11-01T14:28:44Z</time>
      </trkpt>
      <trkpt lat="44.87331" lon="5.71365">
        <ele>604.04</ele>
        <time>2019-11-01T14:28:45Z</time>
      </trkpt>
      <trkpt lat="44.87329" lon="5.7137">
        <ele>604.18</ele>
        <time>2019-11-01T14:28:46Z</time>
      </trkpt>
      <trkpt lat="44.87328" lon="5.71375">
        <ele>604.44</ele>
        <time>2019-11-01T14:28:47Z</time>
      </trkpt>
      <trkpt lat="44.87326" lon="5.71381">
        <ele>604.59</ele>
        <time>2019-11-01T14:28:48Z</time>
      </trkpt>
      <trkpt lat="44.87324" lon="5.71387">
        <ele>604.35</ele>
        <time>2019-11-01T14:28:49Z</time>
      </trkpt>
      <trkpt lat="44.87322" lon="5.71394">
        <ele>603.79</ele>
        <time>2019-11-01T14:28:50Z</time>
      </trkpt>
      <trkpt lat="44.87321" lon="5.714">
        <ele>603.55</ele>
        <time>2019-11-01T14:28:51Z</time>
      </trkpt>
      <trkpt lat="44.87319" lon="5.71406">
        <ele>603.55</ele>
        <time>2019-11-01T14:28:52Z</time>
      </trkpt>
      <trkpt lat="44.87318" lon="5.71413">
        <ele>603.34</ele>
        <time>2019-11-01T14:28:53Z</time>
      </trkpt>
      <trkpt lat="44.87318" lon="5.71419">
        <ele>603.07</ele>
        <time>2019-11-01T14:28:54Z</time>
      </trkpt>
      <trkpt lat="44.87317" lon="5.71425">
        <ele>602.63</ele>
        <time>2019-11-01T14:28:55Z</time>
      </trkpt>
      <trkpt lat="44.87317" lon="5.71431">
        <ele>602.15</ele>
        <time>2019-11-01T14:28:56Z</time>
      </trkpt>
      <trkpt lat="44.87317" lon="5.71436">
        <ele>601.94</ele>
        <time>2019-11-01T14:28:57Z</time>
      </trkpt>
      <trkpt lat="44.87318" lon="5.71442">
        <ele>601.53</ele>
        <time>2019-11-01T14:28:58Z</time>
      </trkpt>
      <trkpt lat="44.87318" lon="5.71447">
        <ele>601.4</ele>
        <time>2019-11-01T14:28:59Z</time>
      </trkpt>
      <trkpt lat="44.87319" lon="5.71453">
        <ele>601.43</ele>
        <time>2019-11-01T14:29:00Z</time>
      </trkpt>
      <trkpt lat="44.87319" lon="5.71458">
        <ele>601.16</ele>
        <time>2019-11-01T14:29:01Z</time>
      </trkpt>
      <trkpt lat="44.8732" lon="5.71463">
        <ele>601.29</ele>
        <time>2019-11-01T14:29:02Z</time>
      </trkpt>
      <trkpt lat="44.87321" lon="5.71469">
        <ele>601.26</ele>
        <time>2019-11-01T14:29:03Z</time>
      </trkpt>
      <trkpt lat="44.87322" lon="5.71474">
        <ele>601.6</ele>
        <time>2019-11-01T14:29:04Z</time>
      </trkpt>
      <trkpt lat="44.87322" lon="5.71479">
        <ele>601.92</ele>
        <time>2019-11-01T14:29:05Z</time>
      </trkpt>
      <trkpt lat="44.87324" lon="5.71484">
        <ele>602.5</ele>
        <time>2019-11-01T14:29:06Z</time>
      </trkpt>
      <trkpt lat="44.87325" lon="5.71489">
        <ele>603.23</ele>
        <time>2019-11-01T14:29:07Z</time>
      </trkpt>
      <trkpt lat="44.87326" lon="5.71493">
        <ele>603.45</ele>
        <time>2019-11-01T14:29:08Z</time>
      </trkpt>
      <trkpt lat="44.87327" lon="5.71498">
        <ele>603.45</ele>
        <time>2019-11-01T14:29:09Z</time>
      </trkpt>
      <trkpt lat="44.87328" lon="5.71503">
        <ele>603.66</ele>
        <time>2019-11-01T14:29:10Z</time>
      </trkpt>
      <trkpt lat="44.87329" lon="5.71507">
        <ele>604</ele>
        <time>2019-11-01T14:29:11Z</time>
      </trkpt>
      <trkpt lat="44.87331" lon="5.71511">
        <ele>604.38</ele>
        <time>2019-11-01T14:29:12Z</time>
      </trkpt>
      <trkpt lat="44.87331" lon="5.71515">
        <ele>605.2</ele>
        <time>2019-11-01T14:29:13Z</time>
      </trkpt>
      <trkpt lat="44.87332" lon="5.71521">
        <ele>605.58</ele>
        <time>2019-11-01T14:29:14Z</time>
      </trkpt>
      <trkpt lat="44.87334" lon="5.71526">
        <ele>605.91</ele>
        <time>2019-11-01T14:29:15Z</time>
      </trkpt>
      <trkpt lat="44.87335" lon="5.71531">
        <ele>606.08</ele>
        <time>2019-11-01T14:29:16Z</time>
      </trkpt>
      <trkpt lat="44.87337" lon="5.71536">
        <ele>606.27</ele>
        <time>2019-11-01T14:29:17Z</time>
      </trkpt>
      <trkpt lat="44.87338" lon="5.7154">
        <ele>606.46</ele>
        <time>2019-11-01T14:29:18Z</time>
      </trkpt>
      <trkpt lat="44.87339" lon="5.71545">
        <ele>606.52</ele>
        <time>2019-11-01T14:29:19Z</time>
      </trkpt>
      <trkpt lat="44.87341" lon="5.7155">
        <ele>606.47</ele>
        <time>2019-11-01T14:29:20Z</time>
      </trkpt>
      <trkpt lat="44.87342" lon="5.71555">
        <ele>606.39</ele>
        <time>2019-11-01T14:29:21Z</time>
      </trkpt>
      <trkpt lat="44.87343" lon="5.71559">
        <ele>605.94</ele>
        <time>2019-11-01T14:29:22Z</time>
      </trkpt>
      <trkpt lat="44.87345" lon="5.71563">
        <ele>605.53</ele>
        <time>2019-11-01T14:29:23Z</time>
      </trkpt>
      <trkpt lat="44.87346" lon="5.71568">
        <ele>604.84</ele>
        <time>2019-11-01T14:29:24Z</time>
      </trkpt>
      <trkpt lat="44.87348" lon="5.71571">
        <ele>604.57</ele>
        <time>2019-11-01T14:29:25Z</time>
      </trkpt>
      <trkpt lat="44.87349" lon="5.71575">
        <ele>604.34</ele>
        <time>2019-11-01T14:29:26Z</time>
      </trkpt>
      <trkpt lat="44.87351" lon="5.71579">
        <ele>604.35</ele>
        <time>2019-11-01T14:29:27Z</time>
      </trkpt>
      <trkpt lat="44.87352" lon="5.71583">
        <ele>604.21</ele>
        <time>2019-11-01T14:29:28Z</time>
      </trkpt>
      <trkpt lat="44.87353" lon="5.71587">
        <ele>604.59</ele>
        <time>2019-11-01T14:29:29Z</time>
      </trkpt>
      <trkpt lat="44.87354" lon="5.71591">
        <ele>604.49</ele>
        <time>2019-11-01T14:29:30Z</time>
      </trkpt>
      <trkpt lat="44.87355" lon="5.71595">
        <ele>604.67</ele>
        <time>2019-11-01T14:29:31Z</time>
      </trkpt>
      <trkpt lat="44.87356" lon="5.71599">
        <ele>605.15</ele>
        <time>2019-11-01T14:29:32Z</time>
      </trkpt>
      <trkpt lat="44.87357" lon="5.71603">
        <ele>605.64</ele>
        <time>2019-11-01T14:29:33Z</time>
      </trkpt>
      <trkpt lat="44.87358" lon="5.71608">
        <ele>606.63</ele>
        <time>2019-11-01T14:29:34Z</time>
      </trkpt>
      <trkpt lat="44.87358" lon="5.71614">
        <ele>607.55</ele>
        <time>2019-11-01T14:29:35Z</time>
      </trkpt>
      <trkpt lat="44.87358" lon="5.71619">
        <ele>608.6</ele>
        <time>2019-11-01T14:29:36Z</time>
      </trkpt>
      <trkpt lat="44.87358" lon="5.71624">
        <ele>609.33</ele>
        <time>2019-11-01T14:29:37Z</time>
      </trkpt>
      <trkpt lat="44.87358" lon="5.7163">
        <ele>610.32</ele>
        <time>2019-11-01T14:29:38Z</time>
      </trkpt>
      <trkpt lat="44.87359" lon="5.71635">
        <ele>611.39</ele>
        <time>2019-11-01T14:29:39Z</time>
      </trkpt>
      <trkpt lat="44.87359" lon="5.71639">
        <ele>612.2</ele>
        <time>2019-11-01T14:29:40Z</time>
      </trkpt>
      <trkpt lat="44.87358" lon="5.71645">
        <ele>613.14</ele>
        <time>2019-11-01T14:29:41Z</time>
      </trkpt>
      <trkpt lat="44.87357" lon="5.7165">
        <ele>613.85</ele>
        <time>2019-11-01T14:29:42Z</time>
      </trkpt>
      <trkpt lat="44.87356" lon="5.71655">
        <ele>614.55</ele>
        <time>2019-11-01T14:29:43Z</time>
      </trkpt>
      <trkpt lat="44.87356" lon="5.7166">
        <ele>614.97</ele>
        <time>2019-11-01T14:29:44Z</time>
      </trkpt>
      <trkpt lat="44.87355" lon="5.71665">
        <ele>615.02</ele>
        <time>2019-11-01T14:29:45Z</time>
      </trkpt>
      <trkpt lat="44.87354" lon="5.7167">
        <ele>615.04</ele>
        <time>2019-11-01T14:29:46Z</time>
      </trkpt>
      <trkpt lat="44.87353" lon="5.71674">
        <ele>615.54</ele>
        <time>2019-11-01T14:29:47Z</time>
      </trkpt>
      <trkpt lat="44.87351" lon="5.7168">
        <ele>616.32</ele>
        <time>2019-11-01T14:29:48Z</time>
      </trkpt>
      <trkpt lat="44.8735" lon="5.71685">
        <ele>616.83</ele>
        <time>2019-11-01T14:29:49Z</time>
      </trkpt>
      <trkpt lat="44.87349" lon="5.7169">
        <ele>617.05</ele>
        <time>2019-11-01T14:29:50Z</time>
      </trkpt>
      <trkpt lat="44.87348" lon="5.71695">
        <ele>617.4</ele>
        <time>2019-11-01T14:29:51Z</time>
      </trkpt>
      <trkpt lat="44.87346" lon="5.71701">
        <ele>618.06</ele>
        <time>2019-11-01T14:29:52Z</time>
      </trkpt>
      <trkpt lat="44.87344" lon="5.71706">
        <ele>617.91</ele>
        <time>2019-11-01T14:29:53Z</time>
      </trkpt>
      <trkpt lat="44.87343" lon="5.71712">
        <ele>617.52</ele>
        <time>2019-11-01T14:29:54Z</time>
      </trkpt>
      <trkpt lat="44.87342" lon="5.71717">
        <ele>617.54</ele>
        <time>2019-11-01T14:29:55Z</time>
      </trkpt>
      <trkpt lat="44.87341" lon="5.71722">
        <ele>617.62</ele>
        <time>2019-11-01T14:29:56Z</time>
      </trkpt>
      <trkpt lat="44.8734" lon="5.71726">
        <ele>618.34</ele>
        <time>2019-11-01T14:29:57Z</time>
      </trkpt>
      <trkpt lat="44.87339" lon="5.71732">
        <ele>618.49</ele>
        <time>2019-11-01T14:29:58Z</time>
      </trkpt>
      <trkpt lat="44.87337" lon="5.71737">
        <ele>618.25</ele>
        <time>2019-11-01T14:29:59Z</time>
      </trkpt>
      <trkpt lat="44.87336" lon="5.71742">
        <ele>618.32</ele>
        <time>2019-11-01T14:30:00Z</time>
      </trkpt>
      <trkpt lat="44.87335" lon="5.71747">
        <ele>618.41</ele>
        <time>2019-11-01T14:30:01Z</time>
      </trkpt>
      <trkpt lat="44.87333" lon="5.71752">
        <ele>618.65</ele>
        <time>2019-11-01T14:30:02Z</time>
      </trkpt>
      <trkpt lat="44.87332" lon="5.71758">
        <ele>618.65</ele>
        <time>2019-11-01T14:30:03Z</time>
      </trkpt>
      <trkpt lat="44.87331" lon="5.71763">
        <ele>618.3</ele>
        <time>2019-11-01T14:30:04Z</time>
      </trkpt>
      <trkpt lat="44.8733" lon="5.71768">
        <ele>618.12</ele>
        <time>2019-11-01T14:30:05Z</time>
      </trkpt>
      <trkpt lat="44.8733" lon="5.71773">
        <ele>618</ele>
        <time>2019-11-01T14:30:06Z</time>
      </trkpt>
      <trkpt lat="44.87329" lon="5.71779">
        <ele>618.31</ele>
        <time>2019-11-01T14:30:07Z</time>
      </trkpt>
      <trkpt lat="44.87328" lon="5.71784">
        <ele>618.2</ele>
        <time>2019-11-01T14:30:08Z</time>
      </trkpt>
      <trkpt lat="44.87328" lon="5.71789">
        <ele>617.95</ele>
        <time>2019-11-01T14:30:09Z</time>
      </trkpt>
      <trkpt lat="44.87327" lon="5.71794">
        <ele>617.81</ele>
        <time>2019-11-01T14:30:10Z</time>
      </trkpt>
      <trkpt lat="44.87327" lon="5.71798">
        <ele>617.7</ele>
        <time>2019-11-01T14:30:11Z</time>
      </trkpt>
      <trkpt lat="44.87328" lon="5.71804">
        <ele>617.52</ele>
        <time>2019-11-01T14:30:12Z</time>
      </trkpt>
      <trkpt lat="44.87328" lon="5.71809">
        <ele>617.33</ele>
        <time>2019-11-01T14:30:13Z</time>
      </trkpt>
      <trkpt lat="44.87329" lon="5.71814">
        <ele>617.2</ele>
        <time>2019-11-01T14:30:14Z</time>
      </trkpt>
      <trkpt lat="44.87329" lon="5.71819">
        <ele>617.1</ele>
        <time>2019-11-01T14:30:15Z</time>
      </trkpt>
      <trkpt lat="44.87331" lon="5.71824">
        <ele>616.85</ele>
        <time>2019-11-01T14:30:16Z</time>
      </trkpt>
      <trkpt lat="44.87332" lon="5.7183">
        <ele>616.5</ele>
        <time>2019-11-01T14:30:17Z</time>
      </trkpt>
      <trkpt lat="44.87334" lon="5.71835">
        <ele>616.25</ele>
        <time>2019-11-01T14:30:18Z</time>
      </trkpt>
      <trkpt lat="44.87335" lon="5.7184">
        <ele>616.04</ele>
        <time>2019-11-01T14:30:19Z</time>
      </trkpt>
      <trkpt lat="44.87336" lon="5.71844">
        <ele>615.77</ele>
        <time>2019-11-01T14:30:20Z</time>
      </trkpt>
      <trkpt lat="44.87337" lon="5.71849">
        <ele>615.68</ele>
        <time>2019-11-01T14:30:21Z</time>
      </trkpt>
      <trkpt lat="44.87339" lon="5.71853">
        <ele>615.66</ele>
        <time>2019-11-01T14:30:22Z</time>
      </trkpt>
      <trkpt lat="44.87341" lon="5.71857">
        <ele>616.07</ele>
        <time>2019-11-01T14:30:23Z</time>
      </trkpt>
      <trkpt lat="44.87342" lon="5.71861">
        <ele>616.34</ele>
        <time>2019-11-01T14:30:24Z</time>
      </trkpt>
      <trkpt lat="44.87344" lon="5.71866">
        <ele>616.84</ele>
        <time>2019-11-01T14:30:25Z</time>
      </trkpt>
      <trkpt lat="44.87346" lon="5.7187">
        <ele>617.4</ele>
        <time>2019-11-01T14:30:26Z</time>
      </trkpt>
      <trkpt lat="44.87349" lon="5.71874">
        <ele>617.86</ele>
        <time>2019-11-01T14:30:27Z</time>
      </trkpt>
      <trkpt lat="44.87351" lon="5.71878">
        <ele>618.48</ele>
        <time>2019-11-01T14:30:28Z</time>
      </trkpt>
      <trkpt lat="44.87352" lon="5.71882">
        <ele>618.53</ele>
        <time>2019-11-01T14:30:29Z</time>
      </trkpt>
      <trkpt lat="44.87354" lon="5.71886">
        <ele>618.75</ele>
        <time>2019-11-01T14:30:30Z</time>
      </trkpt>
      <trkpt lat="44.87356" lon="5.7189">
        <ele>618.75</ele>
        <time>2019-11-01T14:30:31Z</time>
      </trkpt>
      <trkpt lat="44.87357" lon="5.71894">
        <ele>618.75</ele>
        <time>2019-11-01T14:30:32Z</time>
      </trkpt>
      <trkpt lat="44.87359" lon="5.71898">
        <ele>618.54</ele>
        <time>2019-11-01T14:30:33Z</time>
      </trkpt>
      <trkpt lat="44.87361" lon="5.71902">
        <ele>618.34</ele>
        <time>2019-11-01T14:30:34Z</time>
      </trkpt>
      <trkpt lat="44.87362" lon="5.71906">
        <ele>618</ele>
        <time>2019-11-01T14:30:35Z</time>
      </trkpt>
      <trkpt lat="44.87364" lon="5.71909">
        <ele>617.61</ele>
        <time>2019-11-01T14:30:36Z</time>
      </trkpt>
      <trkpt lat="44.87366" lon="5.71913">
        <ele>617.5</ele>
        <time>2019-11-01T14:30:37Z</time>
      </trkpt>
      <trkpt lat="44.87368" lon="5.71917">
        <ele>617.53</ele>
        <time>2019-11-01T14:30:38Z</time>
      </trkpt>
      <trkpt lat="44.8737" lon="5.7192">
        <ele>617.12</ele>
        <time>2019-11-01T14:30:39Z</time>
      </trkpt>
      <trkpt lat="44.87371" lon="5.71923">
        <ele>617.07</ele>
        <time>2019-11-01T14:30:40Z</time>
      </trkpt>
      <trkpt lat="44.87372" lon="5.71926">
        <ele>617.13</ele>
        <time>2019-11-01T14:30:41Z</time>
      </trkpt>
      <trkpt lat="44.87374" lon="5.71929">
        <ele>616.86</ele>
        <time>2019-11-01T14:30:42Z</time>
      </trkpt>
      <trkpt lat="44.87375" lon="5.71932">
        <ele>616.85</ele>
        <time>2019-11-01T14:30:43Z</time>
      </trkpt>
      <trkpt lat="44.87376" lon="5.71936">
        <ele>616.92</ele>
        <time>2019-11-01T14:30:44Z</time>
      </trkpt>
      <trkpt lat="44.87377" lon="5.7194">
        <ele>617.08</ele>
        <time>2019-11-01T14:30:45Z</time>
      </trkpt>
      <trkpt lat="44.87379" lon="5.71943">
        <ele>617.27</ele>
        <time>2019-11-01T14:30:46Z</time>
      </trkpt>
      <trkpt lat="44.87381" lon="5.71946">
        <ele>616.97</ele>
        <time>2019-11-01T14:30:47Z</time>
      </trkpt>
      <trkpt lat="44.87383" lon="5.7195">
        <ele>617.03</ele>
        <time>2019-11-01T14:30:48Z</time>
      </trkpt>
      <trkpt lat="44.87384" lon="5.71954">
        <ele>617.39</ele>
        <time>2019-11-01T14:30:49Z</time>
      </trkpt>
      <trkpt lat="44.87386" lon="5.71958">
        <ele>617.92</ele>
        <time>2019-11-01T14:30:50Z</time>
      </trkpt>
      <trkpt lat="44.87387" lon="5.71962">
        <ele>618.36</ele>
        <time>2019-11-01T14:30:51Z</time>
      </trkpt>
      <trkpt lat="44.87388" lon="5.71965">
        <ele>618.63</ele>
        <time>2019-11-01T14:30:52Z</time>
      </trkpt>
      <trkpt lat="44.8739" lon="5.71967">
        <ele>618.71</ele>
        <time>2019-11-01T14:30:53Z</time>
      </trkpt>
      <trkpt lat="44.87392" lon="5.71971">
        <ele>619.09</ele>
        <time>2019-11-01T14:30:54Z</time>
      </trkpt>
      <trkpt lat="44.87394" lon="5.71975">
        <ele>619.34</ele>
        <time>2019-11-01T14:30:55Z</time>
      </trkpt>
      <trkpt lat="44.87395" lon="5.71979">
        <ele>619.28</ele>
        <time>2019-11-01T14:30:56Z</time>
      </trkpt>
      <trkpt lat="44.87396" lon="5.71983">
        <ele>619.54</ele>
        <time>2019-11-01T14:30:57Z</time>
      </trkpt>
      <trkpt lat="44.87398" lon="5.71987">
        <ele>619.76</ele>
        <time>2019-11-01T14:30:58Z</time>
      </trkpt>
      <trkpt lat="44.874" lon="5.7199">
        <ele>620.1</ele>
        <time>2019-11-01T14:30:59Z</time>
      </trkpt>
      <trkpt lat="44.87401" lon="5.71995">
        <ele>620.2</ele>
        <time>2019-11-01T14:31:00Z</time>
      </trkpt>
      <trkpt lat="44.87402" lon="5.71999">
        <ele>619.89</ele>
        <time>2019-11-01T14:31:01Z</time>
      </trkpt>
      <trkpt lat="44.87403" lon="5.72003">
        <ele>619.44</ele>
        <time>2019-11-01T14:31:02Z</time>
      </trkpt>
      <trkpt lat="44.87404" lon="5.72007">
        <ele>619.1</ele>
        <time>2019-11-01T14:31:03Z</time>
      </trkpt>
      <trkpt lat="44.87405" lon="5.72011">
        <ele>618.57</ele>
        <time>2019-11-01T14:31:04Z</time>
      </trkpt>
      <trkpt lat="44.87406" lon="5.72016">
        <ele>618.28</ele>
        <time>2019-11-01T14:31:05Z</time>
      </trkpt>
      <trkpt lat="44.87407" lon="5.7202">
        <ele>618.54</ele>
        <time>2019-11-01T14:31:06Z</time>
      </trkpt>
      <trkpt lat="44.87407" lon="5.72024">
        <ele>618.69</ele>
        <time>2019-11-01T14:31:07Z</time>
      </trkpt>
      <trkpt lat="44.87408" lon="5.72028">
        <ele>618.73</ele>
        <time>2019-11-01T14:31:08Z</time>
      </trkpt>
      <trkpt lat="44.87409" lon="5.72033">
        <ele>618.95</ele>
        <time>2019-11-01T14:31:09Z</time>
      </trkpt>
      <trkpt lat="44.8741" lon="5.72037">
        <ele>619.09</ele>
        <time>2019-11-01T14:31:10Z</time>
      </trkpt>
      <trkpt lat="44.87411" lon="5.72041">
        <ele>618.99</ele>
        <time>2019-11-01T14:31:11Z</time>
      </trkpt>
      <trkpt lat="44.87412" lon="5.72046">
        <ele>618.54</ele>
        <time>2019-11-01T14:31:12Z</time>
      </trkpt>
      <trkpt lat="44.87413" lon="5.7205">
        <ele>618.06</ele>
        <time>2019-11-01T14:31:13Z</time>
      </trkpt>
      <trkpt lat="44.87413" lon="5.72056">
        <ele>617.63</ele>
        <time>2019-11-01T14:31:14Z</time>
      </trkpt>
      <trkpt lat="44.87414" lon="5.7206">
        <ele>617.36</ele>
        <time>2019-11-01T14:31:15Z</time>
      </trkpt>
      <trkpt lat="44.87415" lon="5.72064">
        <ele>617.56</ele>
        <time>2019-11-01T14:31:16Z</time>
      </trkpt>
      <trkpt lat="44.87416" lon="5.72069">
        <ele>617.9</ele>
        <time>2019-11-01T14:31:17Z</time>
      </trkpt>
      <trkpt lat="44.87416" lon="5.72073">
        <ele>618.71</ele>
        <time>2019-11-01T14:31:18Z</time>
      </trkpt>
      <trkpt lat="44.87416" lon="5.72078">
        <ele>619.51</ele>
        <time>2019-11-01T14:31:19Z</time>
      </trkpt>
      <trkpt lat="44.87417" lon="5.72082">
        <ele>620.1</ele>
        <time>2019-11-01T14:31:20Z</time>
      </trkpt>
      <trkpt lat="44.87418" lon="5.72087">
        <ele>620.2</ele>
        <time>2019-11-01T14:31:21Z</time>
      </trkpt>
      <trkpt lat="44.87419" lon="5.72091">
        <ele>620.31</ele>
        <time>2019-11-01T14:31:22Z</time>
      </trkpt>
      <trkpt lat="44.8742" lon="5.72095">
        <ele>620.48</ele>
        <time>2019-11-01T14:31:23Z</time>
      </trkpt>
      <trkpt lat="44.87421" lon="5.721">
        <ele>620.74</ele>
        <time>2019-11-01T14:31:24Z</time>
      </trkpt>
      <trkpt lat="44.87421" lon="5.72104">
        <ele>620.89</ele>
        <time>2019-11-01T14:31:25Z</time>
      </trkpt>
      <trkpt lat="44.87422" lon="5.72107">
        <ele>621.42</ele>
        <time>2019-11-01T14:31:26Z</time>
      </trkpt>
      <trkpt lat="44.87422" lon="5.72112">
        <ele>621.93</ele>
        <time>2019-11-01T14:31:27Z</time>
      </trkpt>
      <trkpt lat="44.87423" lon="5.72116">
        <ele>622.5</ele>
        <time>2019-11-01T14:31:28Z</time>
      </trkpt>
      <trkpt lat="44.87423" lon="5.72119">
        <ele>622.96</ele>
        <time>2019-11-01T14:31:29Z</time>
      </trkpt>
      <trkpt lat="44.87424" lon="5.72124">
        <ele>623.23</ele>
        <time>2019-11-01T14:31:30Z</time>
      </trkpt>
      <trkpt lat="44.87425" lon="5.72128">
        <ele>623.24</ele>
        <time>2019-11-01T14:31:31Z</time>
      </trkpt>
      <trkpt lat="44.87425" lon="5.72133">
        <ele>623.04</ele>
        <time>2019-11-01T14:31:32Z</time>
      </trkpt>
      <trkpt lat="44.87426" lon="5.72138">
        <ele>623.33</ele>
        <time>2019-11-01T14:31:33Z</time>
      </trkpt>
      <trkpt lat="44.87426" lon="5.72142">
        <ele>623.48</ele>
        <time>2019-11-01T14:31:34Z</time>
      </trkpt>
      <trkpt lat="44.87426" lon="5.72147">
        <ele>623.88</ele>
        <time>2019-11-01T14:31:35Z</time>
      </trkpt>
      <trkpt lat="44.87426" lon="5.72151">
        <ele>624.42</ele>
        <time>2019-11-01T14:31:36Z</time>
      </trkpt>
      <trkpt lat="44.87426" lon="5.72156">
        <ele>624.79</ele>
        <time>2019-11-01T14:31:37Z</time>
      </trkpt>
      <trkpt lat="44.87426" lon="5.7216">
        <ele>625.46</ele>
        <time>2019-11-01T14:31:38Z</time>
      </trkpt>
      <trkpt lat="44.87426" lon="5.72164">
        <ele>626.29</ele>
        <time>2019-11-01T14:31:39Z</time>
      </trkpt>
      <trkpt lat="44.87425" lon="5.72169">
        <ele>627.24</ele>
        <time>2019-11-01T14:31:40Z</time>
      </trkpt>
      <trkpt lat="44.87424" lon="5.72174">
        <ele>628.23</ele>
        <time>2019-11-01T14:31:41Z</time>
      </trkpt>
      <trkpt lat="44.87424" lon="5.72178">
        <ele>629.08</ele>
        <time>2019-11-01T14:31:42Z</time>
      </trkpt>
      <trkpt lat="44.87423" lon="5.72183">
        <ele>629.48</ele>
        <time>2019-11-01T14:31:43Z</time>
      </trkpt>
      <trkpt lat="44.87423" lon="5.72187">
        <ele>629.81</ele>
        <time>2019-11-01T14:31:44Z</time>
      </trkpt>
      <trkpt lat="44.87422" lon="5.72192">
        <ele>630.4</ele>
        <time>2019-11-01T14:31:45Z</time>
      </trkpt>
      <trkpt lat="44.87421" lon="5.72196">
        <ele>630.92</ele>
        <time>2019-11-01T14:31:46Z</time>
      </trkpt>
      <trkpt lat="44.87421" lon="5.72201">
        <ele>631.43</ele>
        <time>2019-11-01T14:31:47Z</time>
      </trkpt>
      <trkpt lat="44.8742" lon="5.72205">
        <ele>631.72</ele>
        <time>2019-11-01T14:31:48Z</time>
      </trkpt>
      <trkpt lat="44.87419" lon="5.72209">
        <ele>632.23</ele>
        <time>2019-11-01T14:31:49Z</time>
      </trkpt>
      <trkpt lat="44.87419" lon="5.72214">
        <ele>632.94</ele>
        <time>2019-11-01T14:31:50Z</time>
      </trkpt>
      <trkpt lat="44.87418" lon="5.72219">
        <ele>633.93</ele>
        <time>2019-11-01T14:31:51Z</time>
      </trkpt>
      <trkpt lat="44.87417" lon="5.72223">
        <ele>634.01</ele>
        <time>2019-11-01T14:31:52Z</time>
      </trkpt>
      <trkpt lat="44.87416" lon="5.72228">
        <ele>634.04</ele>
        <time>2019-11-01T14:31:53Z</time>
      </trkpt>
      <trkpt lat="44.87415" lon="5.72232">
        <ele>634.33</ele>
        <time>2019-11-01T14:31:54Z</time>
      </trkpt>
      <trkpt lat="44.87413" lon="5.72237">
        <ele>634.55</ele>
        <time>2019-11-01T14:31:55Z</time>
      </trkpt>
      <trkpt lat="44.87412" lon="5.72242">
        <ele>634.9</ele>
        <time>2019-11-01T14:31:56Z</time>
      </trkpt>
      <trkpt lat="44.87411" lon="5.72246">
        <ele>634.86</ele>
        <time>2019-11-01T14:31:57Z</time>
      </trkpt>
      <trkpt lat="44.8741" lon="5.72251">
        <ele>635.62</ele>
        <time>2019-11-01T14:31:58Z</time>
      </trkpt>
      <trkpt lat="44.87408" lon="5.72255">
        <ele>636.13</ele>
        <time>2019-11-01T14:31:59Z</time>
      </trkpt>
      <trkpt lat="44.87407" lon="5.7226">
        <ele>636.56</ele>
        <time>2019-11-01T14:32:00Z</time>
      </trkpt>
      <trkpt lat="44.87405" lon="5.72264">
        <ele>637.53</ele>
        <time>2019-11-01T14:32:01Z</time>
      </trkpt>
      <trkpt lat="44.87403" lon="5.72268">
        <ele>638.38</ele>
        <time>2019-11-01T14:32:02Z</time>
      </trkpt>
      <trkpt lat="44.87401" lon="5.72271">
        <ele>639.06</ele>
        <time>2019-11-01T14:32:03Z</time>
      </trkpt>
      <trkpt lat="44.874" lon="5.72274">
        <ele>639.26</ele>
        <time>2019-11-01T14:32:04Z</time>
      </trkpt>
      <trkpt lat="44.87398" lon="5.72278">
        <ele>639.25</ele>
        <time>2019-11-01T14:32:05Z</time>
      </trkpt>
      <trkpt lat="44.87396" lon="5.72282">
        <ele>639.46</ele>
        <time>2019-11-01T14:32:06Z</time>
      </trkpt>
      <trkpt lat="44.87395" lon="5.72286">
        <ele>639.87</ele>
        <time>2019-11-01T14:32:07Z</time>
      </trkpt>
      <trkpt lat="44.87393" lon="5.7229">
        <ele>640.21</ele>
        <time>2019-11-01T14:32:08Z</time>
      </trkpt>
      <trkpt lat="44.87391" lon="5.72293">
        <ele>640.52</ele>
        <time>2019-11-01T14:32:09Z</time>
      </trkpt>
      <trkpt lat="44.8739" lon="5.72297">
        <ele>640.89</ele>
        <time>2019-11-01T14:32:10Z</time>
      </trkpt>
      <trkpt lat="44.87388" lon="5.72301">
        <ele>641.35</ele>
        <time>2019-11-01T14:32:11Z</time>
      </trkpt>
      <trkpt lat="44.87386" lon="5.72305">
        <ele>641.63</ele>
        <time>2019-11-01T14:32:12Z</time>
      </trkpt>
      <trkpt lat="44.87384" lon="5.72308">
        <ele>641.92</ele>
        <time>2019-11-01T14:32:13Z</time>
      </trkpt>
      <trkpt lat="44.87381" lon="5.7231">
        <ele>641.73</ele>
        <time>2019-11-01T14:32:14Z</time>
      </trkpt>
      <trkpt lat="44.87379" lon="5.72313">
        <ele>641.95</ele>
        <time>2019-11-01T14:32:15Z</time>
      </trkpt>
      <trkpt lat="44.87377" lon="5.72317">
        <ele>642.37</ele>
        <time>2019-11-01T14:32:16Z</time>
      </trkpt>
      <trkpt lat="44.87374" lon="5.72321">
        <ele>642.92</ele>
        <time>2019-11-01T14:32:17Z</time>
      </trkpt>
      <trkpt lat="44.87371" lon="5.72325">
        <ele>643.36</ele>
        <time>2019-11-01T14:32:18Z</time>
      </trkpt>
      <trkpt lat="44.87368" lon="5.72328">
        <ele>643.84</ele>
        <time>2019-11-01T14:32:19Z</time>
      </trkpt>
      <trkpt lat="44.87366" lon="5.72332">
        <ele>644.41</ele>
        <time>2019-11-01T14:32:20Z</time>
      </trkpt>
      <trkpt lat="44.87364" lon="5.72336">
        <ele>645</ele>
        <time>2019-11-01T14:32:21Z</time>
      </trkpt>
      <trkpt lat="44.87362" lon="5.72339">
        <ele>645.45</ele>
        <time>2019-11-01T14:32:22Z</time>
      </trkpt>
      <trkpt lat="44.8736" lon="5.72343">
        <ele>645.59</ele>
        <time>2019-11-01T14:32:23Z</time>
      </trkpt>
      <trkpt lat="44.87358" lon="5.72348">
        <ele>645.42</ele>
        <time>2019-11-01T14:32:24Z</time>
      </trkpt>
      <trkpt lat="44.87355" lon="5.72352">
        <ele>644.39</ele>
        <time>2019-11-01T14:32:25Z</time>
      </trkpt>
      <trkpt lat="44.87354" lon="5.72356">
        <ele>644.08</ele>
        <time>2019-11-01T14:32:26Z</time>
      </trkpt>
      <trkpt lat="44.87352" lon="5.7236">
        <ele>644.27</ele>
        <time>2019-11-01T14:32:27Z</time>
      </trkpt>
      <trkpt lat="44.87351" lon="5.72365">
        <ele>644.6</ele>
        <time>2019-11-01T14:32:28Z</time>
      </trkpt>
      <trkpt lat="44.87351" lon="5.72369">
        <ele>644.5</ele>
        <time>2019-11-01T14:32:29Z</time>
      </trkpt>
      <trkpt lat="44.87351" lon="5.72374">
        <ele>644.11</ele>
        <time>2019-11-01T14:32:30Z</time>
      </trkpt>
      <trkpt lat="44.87351" lon="5.72379">
        <ele>644.07</ele>
        <time>2019-11-01T14:32:31Z</time>
      </trkpt>
      <trkpt lat="44.87351" lon="5.72384">
        <ele>643.77</ele>
        <time>2019-11-01T14:32:32Z</time>
      </trkpt>
      <trkpt lat="44.87351" lon="5.72389">
        <ele>643.41</ele>
        <time>2019-11-01T14:32:33Z</time>
      </trkpt>
      <trkpt lat="44.87352" lon="5.72394">
        <ele>642.67</ele>
        <time>2019-11-01T14:32:34Z</time>
      </trkpt>
      <trkpt lat="44.87352" lon="5.72398">
        <ele>641.88</ele>
        <time>2019-11-01T14:32:35Z</time>
      </trkpt>
      <trkpt lat="44.87352" lon="5.72403">
        <ele>641.16</ele>
        <time>2019-11-01T14:32:36Z</time>
      </trkpt>
      <trkpt lat="44.87352" lon="5.72408">
        <ele>640.73</ele>
        <time>2019-11-01T14:32:37Z</time>
      </trkpt>
      <trkpt lat="44.87353" lon="5.72412">
        <ele>640.11</ele>
        <time>2019-11-01T14:32:38Z</time>
      </trkpt>
      <trkpt lat="44.87354" lon="5.72417">
        <ele>639.72</ele>
        <time>2019-11-01T14:32:39Z</time>
      </trkpt>
      <trkpt lat="44.87355" lon="5.7242">
        <ele>639.25</ele>
        <time>2019-11-01T14:32:40Z</time>
      </trkpt>
      <trkpt lat="44.87357" lon="5.72424">
        <ele>638.97</ele>
        <time>2019-11-01T14:32:41Z</time>
      </trkpt>
      <trkpt lat="44.87359" lon="5.72426">
        <ele>638.47</ele>
        <time>2019-11-01T14:32:42Z</time>
      </trkpt>
      <trkpt lat="44.8736" lon="5.72431">
        <ele>637.82</ele>
        <time>2019-11-01T14:32:43Z</time>
      </trkpt>
      <trkpt lat="44.87362" lon="5.72435">
        <ele>637.42</ele>
        <time>2019-11-01T14:32:44Z</time>
      </trkpt>
      <trkpt lat="44.87365" lon="5.72438">
        <ele>637.02</ele>
        <time>2019-11-01T14:32:45Z</time>
      </trkpt>
      <trkpt lat="44.87367" lon="5.72442">
        <ele>636.76</ele>
        <time>2019-11-01T14:32:46Z</time>
      </trkpt>
      <trkpt lat="44.87369" lon="5.72446">
        <ele>636.05</ele>
        <time>2019-11-01T14:32:47Z</time>
      </trkpt>
      <trkpt lat="44.87372" lon="5.72449">
        <ele>635.63</ele>
        <time>2019-11-01T14:32:48Z</time>
      </trkpt>
      <trkpt lat="44.87374" lon="5.72452">
        <ele>635.29</ele>
        <time>2019-11-01T14:32:49Z</time>
      </trkpt>
      <trkpt lat="44.87378" lon="5.72455">
        <ele>634.63</ele>
        <time>2019-11-01T14:32:50Z</time>
      </trkpt>
      <trkpt lat="44.8738" lon="5.72457">
        <ele>634.43</ele>
        <time>2019-11-01T14:32:51Z</time>
      </trkpt>
      <trkpt lat="44.87384" lon="5.72459">
        <ele>634.44</ele>
        <time>2019-11-01T14:32:52Z</time>
      </trkpt>
      <trkpt lat="44.87387" lon="5.7246">
        <ele>635.01</ele>
        <time>2019-11-01T14:32:53Z</time>
      </trkpt>
      <trkpt lat="44.8739" lon="5.72461">
        <ele>635.39</ele>
        <time>2019-11-01T14:32:54Z</time>
      </trkpt>
      <trkpt lat="44.87393" lon="5.72462">
        <ele>635.85</ele>
        <time>2019-11-01T14:32:55Z</time>
      </trkpt>
      <trkpt lat="44.87395" lon="5.72464">
        <ele>635.85</ele>
        <time>2019-11-01T14:32:56Z</time>
      </trkpt>
      <trkpt lat="44.87399" lon="5.72465">
        <ele>635.64</ele>
        <time>2019-11-01T14:32:57Z</time>
      </trkpt>
      <trkpt lat="44.87402" lon="5.72467">
        <ele>634.67</ele>
        <time>2019-11-01T14:32:58Z</time>
      </trkpt>
      <trkpt lat="44.87406" lon="5.72468">
        <ele>634.09</ele>
        <time>2019-11-01T14:32:59Z</time>
      </trkpt>
      <trkpt lat="44.8741" lon="5.72469">
        <ele>633.43</ele>
        <time>2019-11-01T14:33:00Z</time>
      </trkpt>
      <trkpt lat="44.87413" lon="5.72471">
        <ele>631.83</ele>
        <time>2019-11-01T14:33:01Z</time>
      </trkpt>
      <trkpt lat="44.87417" lon="5.72473">
        <ele>630.23</ele>
        <time>2019-11-01T14:33:02Z</time>
      </trkpt>
      <trkpt lat="44.8742" lon="5.72475">
        <ele>629.54</ele>
        <time>2019-11-01T14:33:03Z</time>
      </trkpt>
      <trkpt lat="44.87424" lon="5.72478">
        <ele>629.13</ele>
        <time>2019-11-01T14:33:04Z</time>
      </trkpt>
      <trkpt lat="44.87427" lon="5.72481">
        <ele>628.93</ele>
        <time>2019-11-01T14:33:05Z</time>
      </trkpt>
      <trkpt lat="44.8743" lon="5.72485">
        <ele>628.94</ele>
        <time>2019-11-01T14:33:06Z</time>
      </trkpt>
      <trkpt lat="44.87432" lon="5.7249">
        <ele>628.67</ele>
        <time>2019-11-01T14:33:07Z</time>
      </trkpt>
      <trkpt lat="44.87434" lon="5.72494">
        <ele>628.79</ele>
        <time>2019-11-01T14:33:08Z</time>
      </trkpt>
      <trkpt lat="44.87437" lon="5.72499">
        <ele>628.9</ele>
        <time>2019-11-01T14:33:09Z</time>
      </trkpt>
      <trkpt lat="44.87439" lon="5.72504">
        <ele>628.94</ele>
        <time>2019-11-01T14:33:10Z</time>
      </trkpt>
      <trkpt lat="44.87442" lon="5.72508">
        <ele>628.87</ele>
        <time>2019-11-01T14:33:11Z</time>
      </trkpt>
      <trkpt lat="44.87444" lon="5.72512">
        <ele>628.93</ele>
        <time>2019-11-01T14:33:12Z</time>
      </trkpt>
      <trkpt lat="44.87446" lon="5.72517">
        <ele>628.87</ele>
        <time>2019-11-01T14:33:13Z</time>
      </trkpt>
      <trkpt lat="44.87449" lon="5.72522">
        <ele>629</ele>
        <time>2019-11-01T14:33:14Z</time>
      </trkpt>
      <trkpt lat="44.87452" lon="5.72526">
        <ele>629.03</ele>
        <time>2019-11-01T14:33:15Z</time>
      </trkpt>
      <trkpt lat="44.87454" lon="5.72531">
        <ele>629.25</ele>
        <time>2019-11-01T14:33:16Z</time>
      </trkpt>
      <trkpt lat="44.87457" lon="5.72536">
        <ele>629.53</ele>
        <time>2019-11-01T14:33:17Z</time>
      </trkpt>
      <trkpt lat="44.87459" lon="5.72541">
        <ele>629.61</ele>
        <time>2019-11-01T14:33:18Z</time>
      </trkpt>
      <trkpt lat="44.87461" lon="5.72546">
        <ele>630.2</ele>
        <time>2019-11-01T14:33:19Z</time>
      </trkpt>
      <trkpt lat="44.87463" lon="5.72551">
        <ele>630.44</ele>
        <time>2019-11-01T14:33:20Z</time>
      </trkpt>
      <trkpt lat="44.87466" lon="5.72556">
        <ele>630.73</ele>
        <time>2019-11-01T14:33:21Z</time>
      </trkpt>
      <trkpt lat="44.87468" lon="5.72561">
        <ele>630.81</ele>
        <time>2019-11-01T14:33:22Z</time>
      </trkpt>
      <trkpt lat="44.8747" lon="5.72566">
        <ele>631.26</ele>
        <time>2019-11-01T14:33:23Z</time>
      </trkpt>
      <trkpt lat="44.87472" lon="5.72571">
        <ele>631.6</ele>
        <time>2019-11-01T14:33:24Z</time>
      </trkpt>
      <trkpt lat="44.87475" lon="5.72576">
        <ele>632.12</ele>
        <time>2019-11-01T14:33:25Z</time>
      </trkpt>
      <trkpt lat="44.87478" lon="5.7258">
        <ele>632.56</ele>
        <time>2019-11-01T14:33:26Z</time>
      </trkpt>
      <trkpt lat="44.8748" lon="5.72584">
        <ele>633.04</ele>
        <time>2019-11-01T14:33:27Z</time>
      </trkpt>
      <trkpt lat="44.87482" lon="5.72589">
        <ele>633.61</ele>
        <time>2019-11-01T14:33:28Z</time>
      </trkpt>
      <trkpt lat="44.87484" lon="5.72593">
        <ele>633.99</ele>
        <time>2019-11-01T14:33:29Z</time>
      </trkpt>
      <trkpt lat="44.87486" lon="5.72598">
        <ele>634.38</ele>
        <time>2019-11-01T14:33:30Z</time>
      </trkpt>
      <trkpt lat="44.87488" lon="5.72603">
        <ele>634.64</ele>
        <time>2019-11-01T14:33:31Z</time>
      </trkpt>
      <trkpt lat="44.8749" lon="5.72608">
        <ele>635</ele>
        <time>2019-11-01T14:33:32Z</time>
      </trkpt>
      <trkpt lat="44.87492" lon="5.72613">
        <ele>634.96</ele>
        <time>2019-11-01T14:33:33Z</time>
      </trkpt>
      <trkpt lat="44.87494" lon="5.72618">
        <ele>634.95</ele>
        <time>2019-11-01T14:33:34Z</time>
      </trkpt>
      <trkpt lat="44.87497" lon="5.72623">
        <ele>635.02</ele>
        <time>2019-11-01T14:33:35Z</time>
      </trkpt>
      <trkpt lat="44.87499" lon="5.72628">
        <ele>634.97</ele>
        <time>2019-11-01T14:33:36Z</time>
      </trkpt>
      <trkpt lat="44.87502" lon="5.72633">
        <ele>634.61</ele>
        <time>2019-11-01T14:33:37Z</time>
      </trkpt>
      <trkpt lat="44.87504" lon="5.72638">
        <ele>634.29</ele>
        <time>2019-11-01T14:33:38Z</time>
      </trkpt>
      <trkpt lat="44.87506" lon="5.72643">
        <ele>633.84</ele>
        <time>2019-11-01T14:33:39Z</time>
      </trkpt>
      <trkpt lat="44.87508" lon="5.72648">
        <ele>633.57</ele>
        <time>2019-11-01T14:33:40Z</time>
      </trkpt>
      <trkpt lat="44.87511" lon="5.72653">
        <ele>633.41</ele>
        <time>2019-11-01T14:33:41Z</time>
      </trkpt>
      <trkpt lat="44.87513" lon="5.72658">
        <ele>633.44</ele>
        <time>2019-11-01T14:33:42Z</time>
      </trkpt>
      <trkpt lat="44.87516" lon="5.72664">
        <ele>633.45</ele>
        <time>2019-11-01T14:33:43Z</time>
      </trkpt>
      <trkpt lat="44.87518" lon="5.7267">
        <ele>633.03</ele>
        <time>2019-11-01T14:33:44Z</time>
      </trkpt>
      <trkpt lat="44.8752" lon="5.72676">
        <ele>632.41</ele>
        <time>2019-11-01T14:33:45Z</time>
      </trkpt>
      <trkpt lat="44.87522" lon="5.72682">
        <ele>632.09</ele>
        <time>2019-11-01T14:33:46Z</time>
      </trkpt>
      <trkpt lat="44.87524" lon="5.72689">
        <ele>632.34</ele>
        <time>2019-11-01T14:33:47Z</time>
      </trkpt>
      <trkpt lat="44.87525" lon="5.72696">
        <ele>632.56</ele>
        <time>2019-11-01T14:33:48Z</time>
      </trkpt>
      <trkpt lat="44.87528" lon="5.72702">
        <ele>632.62</ele>
        <time>2019-11-01T14:33:49Z</time>
      </trkpt>
      <trkpt lat="44.87529" lon="5.72708">
        <ele>632.78</ele>
        <time>2019-11-01T14:33:50Z</time>
      </trkpt>
      <trkpt lat="44.87531" lon="5.72713">
        <ele>632.9</ele>
        <time>2019-11-01T14:33:51Z</time>
      </trkpt>
      <trkpt lat="44.87531" lon="5.72719">
        <ele>634.19</ele>
        <time>2019-11-01T14:33:52Z</time>
      </trkpt>
      <trkpt lat="44.8753" lon="5.72724">
        <ele>635.14</ele>
        <time>2019-11-01T14:33:53Z</time>
      </trkpt>
      <trkpt lat="44.8753" lon="5.7273">
        <ele>635.85</ele>
        <time>2019-11-01T14:33:54Z</time>
      </trkpt>
      <trkpt lat="44.8753" lon="5.72736">
        <ele>636.48</ele>
        <time>2019-11-01T14:33:55Z</time>
      </trkpt>
      <trkpt lat="44.87529" lon="5.72741">
        <ele>636.18</ele>
        <time>2019-11-01T14:33:56Z</time>
      </trkpt>
      <trkpt lat="44.87528" lon="5.72746">
        <ele>636.37</ele>
        <time>2019-11-01T14:33:57Z</time>
      </trkpt>
      <trkpt lat="44.87526" lon="5.72752">
        <ele>637.12</ele>
        <time>2019-11-01T14:33:58Z</time>
      </trkpt>
      <trkpt lat="44.87524" lon="5.72756">
        <ele>638.05</ele>
        <time>2019-11-01T14:33:59Z</time>
      </trkpt>
      <trkpt lat="44.87521" lon="5.72761">
        <ele>638.82</ele>
        <time>2019-11-01T14:34:00Z</time>
      </trkpt>
      <trkpt lat="44.87518" lon="5.72765">
        <ele>639.05</ele>
        <time>2019-11-01T14:34:01Z</time>
      </trkpt>
      <trkpt lat="44.87515" lon="5.72769">
        <ele>639.05</ele>
        <time>2019-11-01T14:34:02Z</time>
      </trkpt>
      <trkpt lat="44.87512" lon="5.72773">
        <ele>639.05</ele>
        <time>2019-11-01T14:34:03Z</time>
      </trkpt>
      <trkpt lat="44.87509" lon="5.72777">
        <ele>639.26</ele>
        <time>2019-11-01T14:34:04Z</time>
      </trkpt>
      <trkpt lat="44.87506" lon="5.7278">
        <ele>639.46</ele>
        <time>2019-11-01T14:34:05Z</time>
      </trkpt>
      <trkpt lat="44.87503" lon="5.72784">
        <ele>639.8</ele>
        <time>2019-11-01T14:34:06Z</time>
      </trkpt>
      <trkpt lat="44.875" lon="5.72788">
        <ele>640.26</ele>
        <time>2019-11-01T14:34:07Z</time>
      </trkpt>
      <trkpt lat="44.87497" lon="5.72792">
        <ele>640.6</ele>
        <time>2019-11-01T14:34:08Z</time>
      </trkpt>
      <trkpt lat="44.87494" lon="5.72796">
        <ele>640.7</ele>
        <time>2019-11-01T14:34:09Z</time>
      </trkpt>
      <trkpt lat="44.87491" lon="5.728">
        <ele>640.67</ele>
        <time>2019-11-01T14:34:10Z</time>
      </trkpt>
      <trkpt lat="44.87488" lon="5.72804">
        <ele>640.23</ele>
        <time>2019-11-01T14:34:11Z</time>
      </trkpt>
      <trkpt lat="44.87485" lon="5.72809">
        <ele>639.82</ele>
        <time>2019-11-01T14:34:12Z</time>
      </trkpt>
      <trkpt lat="44.87482" lon="5.72813">
        <ele>639.63</ele>
        <time>2019-11-01T14:34:13Z</time>
      </trkpt>
      <trkpt lat="44.87479" lon="5.72818">
        <ele>639.64</ele>
        <time>2019-11-01T14:34:14Z</time>
      </trkpt>
      <trkpt lat="44.87476" lon="5.72823">
        <ele>639.09</ele>
        <time>2019-11-01T14:34:15Z</time>
      </trkpt>
      <trkpt lat="44.87473" lon="5.72828">
        <ele>638.71</ele>
        <time>2019-11-01T14:34:16Z</time>
      </trkpt>
      <trkpt lat="44.8747" lon="5.72832">
        <ele>638.39</ele>
        <time>2019-11-01T14:34:17Z</time>
      </trkpt>
      <trkpt lat="44.87467" lon="5.72836">
        <ele>638.15</ele>
        <time>2019-11-01T14:34:18Z</time>
      </trkpt>
      <trkpt lat="44.87464" lon="5.7284">
        <ele>638.08</ele>
        <time>2019-11-01T14:34:19Z</time>
      </trkpt>
      <trkpt lat="44.87461" lon="5.72845">
        <ele>637.92</ele>
        <time>2019-11-01T14:34:20Z</time>
      </trkpt>
      <trkpt lat="44.87459" lon="5.7285">
        <ele>637.66</ele>
        <time>2019-11-01T14:34:21Z</time>
      </trkpt>
      <trkpt lat="44.87456" lon="5.72855">
        <ele>637.23</ele>
        <time>2019-11-01T14:34:22Z</time>
      </trkpt>
      <trkpt lat="44.87454" lon="5.72859">
        <ele>637.03</ele>
        <time>2019-11-01T14:34:23Z</time>
      </trkpt>
      <trkpt lat="44.87451" lon="5.72863">
        <ele>637.25</ele>
        <time>2019-11-01T14:34:24Z</time>
      </trkpt>
      <trkpt lat="44.87448" lon="5.72867">
        <ele>637.39</ele>
        <time>2019-11-01T14:34:25Z</time>
      </trkpt>
      <trkpt lat="44.87446" lon="5.72871">
        <ele>637.29</ele>
        <time>2019-11-01T14:34:26Z</time>
      </trkpt>
      <trkpt lat="44.87443" lon="5.72875">
        <ele>636.98</ele>
        <time>2019-11-01T14:34:27Z</time>
      </trkpt>
      <trkpt lat="44.8744" lon="5.72879">
        <ele>636.68</ele>
        <time>2019-11-01T14:34:28Z</time>
      </trkpt>
      <trkpt lat="44.87437" lon="5.72884">
        <ele>636.38</ele>
        <time>2019-11-01T14:34:29Z</time>
      </trkpt>
      <trkpt lat="44.87434" lon="5.7289">
        <ele>636.29</ele>
        <time>2019-11-01T14:34:30Z</time>
      </trkpt>
      <trkpt lat="44.87431" lon="5.72895">
        <ele>636.26</ele>
        <time>2019-11-01T14:34:31Z</time>
      </trkpt>
      <trkpt lat="44.87428" lon="5.729">
        <ele>636.32</ele>
        <time>2019-11-01T14:34:32Z</time>
      </trkpt>
      <trkpt lat="44.87426" lon="5.72905">
        <ele>636.13</ele>
        <time>2019-11-01T14:34:33Z</time>
      </trkpt>
      <trkpt lat="44.87423" lon="5.72911">
        <ele>636</ele>
        <time>2019-11-01T14:34:34Z</time>
      </trkpt>
      <trkpt lat="44.8742" lon="5.72916">
        <ele>635.97</ele>
        <time>2019-11-01T14:34:35Z</time>
      </trkpt>
      <trkpt lat="44.87417" lon="5.72921">
        <ele>635.74</ele>
        <time>2019-11-01T14:34:36Z</time>
      </trkpt>
      <trkpt lat="44.87417" lon="5.72927">
        <ele>635.4</ele>
        <time>2019-11-01T14:34:37Z</time>
      </trkpt>
      <trkpt lat="44.87417" lon="5.72934">
        <ele>634.94</ele>
        <time>2019-11-01T14:34:38Z</time>
      </trkpt>
      <trkpt lat="44.87418" lon="5.7294">
        <ele>634.6</ele>
        <time>2019-11-01T14:34:39Z</time>
      </trkpt>
      <trkpt lat="44.8742" lon="5.72945">
        <ele>634.49</ele>
        <time>2019-11-01T14:34:40Z</time>
      </trkpt>
      <trkpt lat="44.87423" lon="5.72949">
        <ele>634.04</ele>
        <time>2019-11-01T14:34:41Z</time>
      </trkpt>
      <trkpt lat="44.87427" lon="5.72953">
        <ele>633.77</ele>
        <time>2019-11-01T14:34:42Z</time>
      </trkpt>
      <trkpt lat="44.87431" lon="5.72957">
        <ele>633.68</ele>
        <time>2019-11-01T14:34:43Z</time>
      </trkpt>
      <trkpt lat="44.87435" lon="5.72961">
        <ele>633.73</ele>
        <time>2019-11-01T14:34:44Z</time>
      </trkpt>
      <trkpt lat="44.87439" lon="5.72965">
        <ele>633.6</ele>
        <time>2019-11-01T14:34:45Z</time>
      </trkpt>
      <trkpt lat="44.87443" lon="5.72969">
        <ele>633.71</ele>
        <time>2019-11-01T14:34:46Z</time>
      </trkpt>
      <trkpt lat="44.87448" lon="5.72972">
        <ele>633.6</ele>
        <time>2019-11-01T14:34:47Z</time>
      </trkpt>
      <trkpt lat="44.87452" lon="5.72975">
        <ele>633.49</ele>
        <time>2019-11-01T14:34:48Z</time>
      </trkpt>
      <trkpt lat="44.87457" lon="5.72978">
        <ele>633.39</ele>
        <time>2019-11-01T14:34:49Z</time>
      </trkpt>
      <trkpt lat="44.87462" lon="5.72981">
        <ele>633.08</ele>
        <time>2019-11-01T14:34:50Z</time>
      </trkpt>
      <trkpt lat="44.87467" lon="5.72984">
        <ele>632.78</ele>
        <time>2019-11-01T14:34:51Z</time>
      </trkpt>
      <trkpt lat="44.87471" lon="5.72986">
        <ele>632.48</ele>
        <time>2019-11-01T14:34:52Z</time>
      </trkpt>
      <trkpt lat="44.87476" lon="5.72988">
        <ele>632.18</ele>
        <time>2019-11-01T14:34:53Z</time>
      </trkpt>
      <trkpt lat="44.8748" lon="5.72991">
        <ele>632.3</ele>
        <time>2019-11-01T14:34:54Z</time>
      </trkpt>
      <trkpt lat="44.87485" lon="5.72994">
        <ele>632.4</ele>
        <time>2019-11-01T14:34:55Z</time>
      </trkpt>
      <trkpt lat="44.87489" lon="5.72996">
        <ele>632.51</ele>
        <time>2019-11-01T14:34:56Z</time>
      </trkpt>
      <trkpt lat="44.87494" lon="5.72997">
        <ele>632.47</ele>
        <time>2019-11-01T14:34:57Z</time>
      </trkpt>
      <trkpt lat="44.87499" lon="5.72999">
        <ele>632.45</ele>
        <time>2019-11-01T14:34:58Z</time>
      </trkpt>
      <trkpt lat="44.87503" lon="5.72999">
        <ele>632.38</ele>
        <time>2019-11-01T14:34:59Z</time>
      </trkpt>
      <trkpt lat="44.87508" lon="5.73">
        <ele>632.43</ele>
        <time>2019-11-01T14:35:00Z</time>
      </trkpt>
      <trkpt lat="44.87514" lon="5.72999">
        <ele>632.3</ele>
        <time>2019-11-01T14:35:01Z</time>
      </trkpt>
      <trkpt lat="44.87519" lon="5.72998">
        <ele>631.85</ele>
        <time>2019-11-01T14:35:02Z</time>
      </trkpt>
      <trkpt lat="44.87525" lon="5.72996">
        <ele>631.43</ele>
        <time>2019-11-01T14:35:03Z</time>
      </trkpt>
      <trkpt lat="44.8753" lon="5.72995">
        <ele>631.23</ele>
        <time>2019-11-01T14:35:04Z</time>
      </trkpt>
      <trkpt lat="44.87535" lon="5.72994">
        <ele>631.03</ele>
        <time>2019-11-01T14:35:05Z</time>
      </trkpt>
      <trkpt lat="44.87541" lon="5.72992">
        <ele>630.48</ele>
        <time>2019-11-01T14:35:06Z</time>
      </trkpt>
      <trkpt lat="44.87546" lon="5.7299">
        <ele>629.83</ele>
        <time>2019-11-01T14:35:07Z</time>
      </trkpt>
      <trkpt lat="44.87551" lon="5.72988">
        <ele>629.21</ele>
        <time>2019-11-01T14:35:08Z</time>
      </trkpt>
      <trkpt lat="44.87556" lon="5.72986">
        <ele>628.75</ele>
        <time>2019-11-01T14:35:09Z</time>
      </trkpt>
      <trkpt lat="44.87561" lon="5.72985">
        <ele>628.54</ele>
        <time>2019-11-01T14:35:10Z</time>
      </trkpt>
      <trkpt lat="44.87565" lon="5.72984">
        <ele>628.2</ele>
        <time>2019-11-01T14:35:11Z</time>
      </trkpt>
      <trkpt lat="44.8757" lon="5.72983">
        <ele>627.88</ele>
        <time>2019-11-01T14:35:12Z</time>
      </trkpt>
      <trkpt lat="44.87574" lon="5.72983">
        <ele>627.86</ele>
        <time>2019-11-01T14:35:13Z</time>
      </trkpt>
      <trkpt lat="44.87579" lon="5.72983">
        <ele>627.92</ele>
        <time>2019-11-01T14:35:14Z</time>
      </trkpt>
      <trkpt lat="44.87584" lon="5.72983">
        <ele>628.08</ele>
        <time>2019-11-01T14:35:15Z</time>
      </trkpt>
      <trkpt lat="44.87589" lon="5.72983">
        <ele>628.13</ele>
        <time>2019-11-01T14:35:16Z</time>
      </trkpt>
      <trkpt lat="44.87594" lon="5.72982">
        <ele>628.14</ele>
        <time>2019-11-01T14:35:17Z</time>
      </trkpt>
      <trkpt lat="44.87599" lon="5.72979">
        <ele>627.87</ele>
        <time>2019-11-01T14:35:18Z</time>
      </trkpt>
      <trkpt lat="44.87604" lon="5.72977">
        <ele>627.5</ele>
        <time>2019-11-01T14:35:19Z</time>
      </trkpt>
      <trkpt lat="44.8761" lon="5.72974">
        <ele>627.19</ele>
        <time>2019-11-01T14:35:20Z</time>
      </trkpt>
      <trkpt lat="44.87615" lon="5.72973">
        <ele>626.95</ele>
        <time>2019-11-01T14:35:21Z</time>
      </trkpt>
      <trkpt lat="44.87621" lon="5.7297">
        <ele>626.25</ele>
        <time>2019-11-01T14:35:22Z</time>
      </trkpt>
      <trkpt lat="44.87627" lon="5.72968">
        <ele>625.62</ele>
        <time>2019-11-01T14:35:23Z</time>
      </trkpt>
      <trkpt lat="44.87632" lon="5.72966">
        <ele>625.08</ele>
        <time>2019-11-01T14:35:24Z</time>
      </trkpt>
      <trkpt lat="44.87638" lon="5.72963">
        <ele>624.36</ele>
        <time>2019-11-01T14:35:25Z</time>
      </trkpt>
      <trkpt lat="44.87644" lon="5.72959">
        <ele>623.79</ele>
        <time>2019-11-01T14:35:26Z</time>
      </trkpt>
      <trkpt lat="44.8765" lon="5.72956">
        <ele>623.06</ele>
        <time>2019-11-01T14:35:27Z</time>
      </trkpt>
      <trkpt lat="44.87654" lon="5.72954">
        <ele>622.7</ele>
        <time>2019-11-01T14:35:28Z</time>
      </trkpt>
      <trkpt lat="44.87659" lon="5.72953">
        <ele>622.53</ele>
        <time>2019-11-01T14:35:29Z</time>
      </trkpt>
      <trkpt lat="44.87664" lon="5.72953">
        <ele>622.05</ele>
        <time>2019-11-01T14:35:30Z</time>
      </trkpt>
      <trkpt lat="44.8767" lon="5.72953">
        <ele>621.91</ele>
        <time>2019-11-01T14:35:31Z</time>
      </trkpt>
      <trkpt lat="44.87675" lon="5.72954">
        <ele>621.8</ele>
        <time>2019-11-01T14:35:32Z</time>
      </trkpt>
      <trkpt lat="44.87681" lon="5.72954">
        <ele>621.83</ele>
        <time>2019-11-01T14:35:33Z</time>
      </trkpt>
      <trkpt lat="44.87686" lon="5.72954">
        <ele>621.42</ele>
        <time>2019-11-01T14:35:34Z</time>
      </trkpt>
      <trkpt lat="44.87691" lon="5.72954">
        <ele>620.95</ele>
        <time>2019-11-01T14:35:35Z</time>
      </trkpt>
      <trkpt lat="44.87696" lon="5.72953">
        <ele>620.32</ele>
        <time>2019-11-01T14:35:36Z</time>
      </trkpt>
      <trkpt lat="44.87701" lon="5.72953">
        <ele>620.13</ele>
        <time>2019-11-01T14:35:37Z</time>
      </trkpt>
      <trkpt lat="44.87705" lon="5.72953">
        <ele>620.07</ele>
        <time>2019-11-01T14:35:38Z</time>
      </trkpt>
      <trkpt lat="44.8771" lon="5.72953">
        <ele>619.71</ele>
        <time>2019-11-01T14:35:39Z</time>
      </trkpt>
      <trkpt lat="44.87715" lon="5.72953">
        <ele>619.53</ele>
        <time>2019-11-01T14:35:40Z</time>
      </trkpt>
      <trkpt lat="44.8772" lon="5.72952">
        <ele>619.26</ele>
        <time>2019-11-01T14:35:41Z</time>
      </trkpt>
      <trkpt lat="44.87725" lon="5.72952">
        <ele>619.11</ele>
        <time>2019-11-01T14:35:42Z</time>
      </trkpt>
      <trkpt lat="44.8773" lon="5.72953">
        <ele>619.14</ele>
        <time>2019-11-01T14:35:43Z</time>
      </trkpt>
      <trkpt lat="44.87735" lon="5.72953">
        <ele>619.64</ele>
        <time>2019-11-01T14:35:44Z</time>
      </trkpt>
      <trkpt lat="44.87739" lon="5.72953">
        <ele>620.63</ele>
        <time>2019-11-01T14:35:45Z</time>
      </trkpt>
      <trkpt lat="44.87745" lon="5.72954">
        <ele>620.92</ele>
        <time>2019-11-01T14:35:46Z</time>
      </trkpt>
      <trkpt lat="44.8775" lon="5.72955">
        <ele>621.01</ele>
        <time>2019-11-01T14:35:47Z</time>
      </trkpt>
      <trkpt lat="44.87755" lon="5.72955">
        <ele>621.04</ele>
        <time>2019-11-01T14:35:48Z</time>
      </trkpt>
      <trkpt lat="44.87761" lon="5.72956">
        <ele>621.33</ele>
        <time>2019-11-01T14:35:49Z</time>
      </trkpt>
      <trkpt lat="44.87766" lon="5.72957">
        <ele>621.48</ele>
        <time>2019-11-01T14:35:50Z</time>
      </trkpt>
      <trkpt lat="44.87771" lon="5.72958">
        <ele>621.53</ele>
        <time>2019-11-01T14:35:51Z</time>
      </trkpt>
      <trkpt lat="44.87776" lon="5.72958">
        <ele>621.47</ele>
        <time>2019-11-01T14:35:52Z</time>
      </trkpt>
      <trkpt lat="44.87781" lon="5.72959">
        <ele>621.39</ele>
        <time>2019-11-01T14:35:53Z</time>
      </trkpt>
      <trkpt lat="44.87787" lon="5.7296">
        <ele>621.78</ele>
        <time>2019-11-01T14:35:54Z</time>
      </trkpt>
      <trkpt lat="44.87793" lon="5.72961">
        <ele>621.76</ele>
        <time>2019-11-01T14:35:55Z</time>
      </trkpt>
      <trkpt lat="44.87798" lon="5.72962">
        <ele>621.68</ele>
        <time>2019-11-01T14:35:56Z</time>
      </trkpt>
      <trkpt lat="44.87803" lon="5.72963">
        <ele>621.87</ele>
        <time>2019-11-01T14:35:57Z</time>
      </trkpt>
      <trkpt lat="44.87808" lon="5.72965">
        <ele>622.06</ele>
        <time>2019-11-01T14:35:58Z</time>
      </trkpt>
      <trkpt lat="44.87813" lon="5.72967">
        <ele>622.54</ele>
        <time>2019-11-01T14:35:59Z</time>
      </trkpt>
      <trkpt lat="44.87818" lon="5.72971">
        <ele>623.95</ele>
        <time>2019-11-01T14:36:00Z</time>
      </trkpt>
      <trkpt lat="44.87822" lon="5.72973">
        <ele>624.51</ele>
        <time>2019-11-01T14:36:01Z</time>
      </trkpt>
      <trkpt lat="44.87826" lon="5.72974">
        <ele>625.03</ele>
        <time>2019-11-01T14:36:02Z</time>
      </trkpt>
      <trkpt lat="44.87831" lon="5.72976">
        <ele>625.46</ele>
        <time>2019-11-01T14:36:03Z</time>
      </trkpt>
      <trkpt lat="44.87835" lon="5.72979">
        <ele>625.66</ele>
        <time>2019-11-01T14:36:04Z</time>
      </trkpt>
      <trkpt lat="44.8784" lon="5.72981">
        <ele>625.93</ele>
        <time>2019-11-01T14:36:05Z</time>
      </trkpt>
      <trkpt lat="44.87844" lon="5.72984">
        <ele>626.15</ele>
        <time>2019-11-01T14:36:06Z</time>
      </trkpt>
      <trkpt lat="44.87849" lon="5.72988">
        <ele>626.29</ele>
        <time>2019-11-01T14:36:07Z</time>
      </trkpt>
      <trkpt lat="44.87853" lon="5.72992">
        <ele>626.47</ele>
        <time>2019-11-01T14:36:08Z</time>
      </trkpt>
      <trkpt lat="44.87856" lon="5.72996">
        <ele>628.28</ele>
        <time>2019-11-01T14:36:09Z</time>
      </trkpt>
      <trkpt lat="44.8786" lon="5.73">
        <ele>628.96</ele>
        <time>2019-11-01T14:36:10Z</time>
      </trkpt>
      <trkpt lat="44.87863" lon="5.73004">
        <ele>629.23</ele>
        <time>2019-11-01T14:36:11Z</time>
      </trkpt>
      <trkpt lat="44.87864" lon="5.7301">
        <ele>629.52</ele>
        <time>2019-11-01T14:36:12Z</time>
      </trkpt>
      <trkpt lat="44.87865" lon="5.73015">
        <ele>629.54</ele>
        <time>2019-11-01T14:36:13Z</time>
      </trkpt>
      <trkpt lat="44.87865" lon="5.73021">
        <ele>629.62</ele>
        <time>2019-11-01T14:36:14Z</time>
      </trkpt>
      <trkpt lat="44.87864" lon="5.73026">
        <ele>629.71</ele>
        <time>2019-11-01T14:36:15Z</time>
      </trkpt>
      <trkpt lat="44.87862" lon="5.7303">
        <ele>630.02</ele>
        <time>2019-11-01T14:36:16Z</time>
      </trkpt>
      <trkpt lat="44.87858" lon="5.73035">
        <ele>630.46</ele>
        <time>2019-11-01T14:36:17Z</time>
      </trkpt>
      <trkpt lat="44.87854" lon="5.73039">
        <ele>630.59</ele>
        <time>2019-11-01T14:36:18Z</time>
      </trkpt>
      <trkpt lat="44.87851" lon="5.73043">
        <ele>630.63</ele>
        <time>2019-11-01T14:36:19Z</time>
      </trkpt>
      <trkpt lat="44.87847" lon="5.73047">
        <ele>630.71</ele>
        <time>2019-11-01T14:36:20Z</time>
      </trkpt>
      <trkpt lat="44.87843" lon="5.7305">
        <ele>630.81</ele>
        <time>2019-11-01T14:36:21Z</time>
      </trkpt>
      <trkpt lat="44.87839" lon="5.73053">
        <ele>631.26</ele>
        <time>2019-11-01T14:36:22Z</time>
      </trkpt>
      <trkpt lat="44.87834" lon="5.73055">
        <ele>631.95</ele>
        <time>2019-11-01T14:36:23Z</time>
      </trkpt>
      <trkpt lat="44.87829" lon="5.73057">
        <ele>632.58</ele>
        <time>2019-11-01T14:36:24Z</time>
      </trkpt>
      <trkpt lat="44.87824" lon="5.73058">
        <ele>632.98</ele>
        <time>2019-11-01T14:36:25Z</time>
      </trkpt>
      <trkpt lat="44.8782" lon="5.7306">
        <ele>633.45</ele>
        <time>2019-11-01T14:36:26Z</time>
      </trkpt>
      <trkpt lat="44.87814" lon="5.73061">
        <ele>633.73</ele>
        <time>2019-11-01T14:36:27Z</time>
      </trkpt>
      <trkpt lat="44.87809" lon="5.73062">
        <ele>634.23</ele>
        <time>2019-11-01T14:36:28Z</time>
      </trkpt>
      <trkpt lat="44.87804" lon="5.73063">
        <ele>634.45</ele>
        <time>2019-11-01T14:36:29Z</time>
      </trkpt>
      <trkpt lat="44.87799" lon="5.73064">
        <ele>634.45</ele>
        <time>2019-11-01T14:36:30Z</time>
      </trkpt>
      <trkpt lat="44.87794" lon="5.73064">
        <ele>634.66</ele>
        <time>2019-11-01T14:36:31Z</time>
      </trkpt>
      <trkpt lat="44.8779" lon="5.73064">
        <ele>634.86</ele>
        <time>2019-11-01T14:36:32Z</time>
      </trkpt>
      <trkpt lat="44.87785" lon="5.73064">
        <ele>635.06</ele>
        <time>2019-11-01T14:36:33Z</time>
      </trkpt>
      <trkpt lat="44.8778" lon="5.73064">
        <ele>635.19</ele>
        <time>2019-11-01T14:36:34Z</time>
      </trkpt>
      <trkpt lat="44.87775" lon="5.73065">
        <ele>635.3</ele>
        <time>2019-11-01T14:36:35Z</time>
      </trkpt>
      <trkpt lat="44.87771" lon="5.73067">
        <ele>635.47</ele>
        <time>2019-11-01T14:36:36Z</time>
      </trkpt>
      <trkpt lat="44.87766" lon="5.7307">
        <ele>635.6</ele>
        <time>2019-11-01T14:36:37Z</time>
      </trkpt>
      <trkpt lat="44.87762" lon="5.73073">
        <ele>635.98</ele>
        <time>2019-11-01T14:36:38Z</time>
      </trkpt>
      <trkpt lat="44.87758" lon="5.73077">
        <ele>636.17</ele>
        <time>2019-11-01T14:36:39Z</time>
      </trkpt>
      <trkpt lat="44.87754" lon="5.73082">
        <ele>636.23</ele>
        <time>2019-11-01T14:36:40Z</time>
      </trkpt>
      <trkpt lat="44.8775" lon="5.73087">
        <ele>636.17</ele>
        <time>2019-11-01T14:36:41Z</time>
      </trkpt>
      <trkpt lat="44.87746" lon="5.73093">
        <ele>636.23</ele>
        <time>2019-11-01T14:36:42Z</time>
      </trkpt>
      <trkpt lat="44.87743" lon="5.73098">
        <ele>636.38</ele>
        <time>2019-11-01T14:36:43Z</time>
      </trkpt>
      <trkpt lat="44.87739" lon="5.73104">
        <ele>636.57</ele>
        <time>2019-11-01T14:36:44Z</time>
      </trkpt>
      <trkpt lat="44.87736" lon="5.73109">
        <ele>637.04</ele>
        <time>2019-11-01T14:36:45Z</time>
      </trkpt>
      <trkpt lat="44.87732" lon="5.73114">
        <ele>637.12</ele>
        <time>2019-11-01T14:36:46Z</time>
      </trkpt>
      <trkpt lat="44.87729" lon="5.7312">
        <ele>637.21</ele>
        <time>2019-11-01T14:36:47Z</time>
      </trkpt>
      <trkpt lat="44.87726" lon="5.73125">
        <ele>637.52</ele>
        <time>2019-11-01T14:36:48Z</time>
      </trkpt>
      <trkpt lat="44.87722" lon="5.73131">
        <ele>637.82</ele>
        <time>2019-11-01T14:36:49Z</time>
      </trkpt>
      <trkpt lat="44.87719" lon="5.73136">
        <ele>638.19</ele>
        <time>2019-11-01T14:36:50Z</time>
      </trkpt>
      <trkpt lat="44.87715" lon="5.73141">
        <ele>638.3</ele>
        <time>2019-11-01T14:36:51Z</time>
      </trkpt>
      <trkpt lat="44.87712" lon="5.73147">
        <ele>638.54</ele>
        <time>2019-11-01T14:36:52Z</time>
      </trkpt>
      <trkpt lat="44.87708" lon="5.73152">
        <ele>638.62</ele>
        <time>2019-11-01T14:36:53Z</time>
      </trkpt>
      <trkpt lat="44.87705" lon="5.73157">
        <ele>638.71</ele>
        <time>2019-11-01T14:36:54Z</time>
      </trkpt>
      <trkpt lat="44.87702" lon="5.73163">
        <ele>639.23</ele>
        <time>2019-11-01T14:36:55Z</time>
      </trkpt>
      <trkpt lat="44.877" lon="5.73169">
        <ele>639.73</ele>
        <time>2019-11-01T14:36:56Z</time>
      </trkpt>
      <trkpt lat="44.87699" lon="5.73176">
        <ele>637.08</ele>
        <time>2019-11-01T14:36:57Z</time>
      </trkpt>
      <trkpt lat="44.87699" lon="5.73182">
        <ele>635.03</ele>
        <time>2019-11-01T14:36:58Z</time>
      </trkpt>
      <trkpt lat="44.87699" lon="5.73189">
        <ele>633.08</ele>
        <time>2019-11-01T14:36:59Z</time>
      </trkpt>
      <trkpt lat="44.87699" lon="5.73195">
        <ele>631.52</ele>
        <time>2019-11-01T14:37:00Z</time>
      </trkpt>
      <trkpt lat="44.87699" lon="5.73201">
        <ele>630.21</ele>
        <time>2019-11-01T14:37:01Z</time>
      </trkpt>
      <trkpt lat="44.877" lon="5.73208">
        <ele>629.61</ele>
        <time>2019-11-01T14:37:02Z</time>
      </trkpt>
      <trkpt lat="44.877" lon="5.73217">
        <ele>630.62</ele>
        <time>2019-11-01T14:37:03Z</time>
      </trkpt>
      <trkpt lat="44.877" lon="5.73225">
        <ele>631.41</ele>
        <time>2019-11-01T14:37:04Z</time>
      </trkpt>
      <trkpt lat="44.877" lon="5.73232">
        <ele>631.93</ele>
        <time>2019-11-01T14:37:05Z</time>
      </trkpt>
      <trkpt lat="44.877" lon="5.73239">
        <ele>632.57</ele>
        <time>2019-11-01T14:37:06Z</time>
      </trkpt>
      <trkpt lat="44.877" lon="5.73246">
        <ele>633.05</ele>
        <time>2019-11-01T14:37:07Z</time>
      </trkpt>
      <trkpt lat="44.877" lon="5.73253">
        <ele>633.33</ele>
        <time>2019-11-01T14:37:08Z</time>
      </trkpt>
      <trkpt lat="44.87699" lon="5.7326">
        <ele>633.41</ele>
        <time>2019-11-01T14:37:09Z</time>
      </trkpt>
      <trkpt lat="44.87698" lon="5.73267">
        <ele>633.58</ele>
        <time>2019-11-01T14:37:10Z</time>
      </trkpt>
      <trkpt lat="44.87696" lon="5.73273">
        <ele>634.12</ele>
        <time>2019-11-01T14:37:11Z</time>
      </trkpt>
      <trkpt lat="44.87693" lon="5.7328">
        <ele>634.49</ele>
        <time>2019-11-01T14:37:12Z</time>
      </trkpt>
      <trkpt lat="44.87691" lon="5.73286">
        <ele>634.67</ele>
        <time>2019-11-01T14:37:13Z</time>
      </trkpt>
      <trkpt lat="44.87688" lon="5.73292">
        <ele>634.52</ele>
        <time>2019-11-01T14:37:14Z</time>
      </trkpt>
      <trkpt lat="44.87686" lon="5.73297">
        <ele>634.33</ele>
        <time>2019-11-01T14:37:15Z</time>
      </trkpt>
      <trkpt lat="44.87685" lon="5.73303">
        <ele>633.78</ele>
        <time>2019-11-01T14:37:16Z</time>
      </trkpt>
      <trkpt lat="44.87683" lon="5.73309">
        <ele>633.69</ele>
        <time>2019-11-01T14:37:17Z</time>
      </trkpt>
      <trkpt lat="44.87682" lon="5.73315">
        <ele>633.94</ele>
        <time>2019-11-01T14:37:18Z</time>
      </trkpt>
      <trkpt lat="44.87682" lon="5.73322">
        <ele>633.88</ele>
        <time>2019-11-01T14:37:19Z</time>
      </trkpt>
      <trkpt lat="44.87681" lon="5.7333">
        <ele>633.72</ele>
        <time>2019-11-01T14:37:20Z</time>
      </trkpt>
      <trkpt lat="44.87682" lon="5.73338">
        <ele>633.74</ele>
        <time>2019-11-01T14:37:21Z</time>
      </trkpt>
      <trkpt lat="44.87682" lon="5.73345">
        <ele>633.75</ele>
        <time>2019-11-01T14:37:22Z</time>
      </trkpt>
      <trkpt lat="44.87683" lon="5.73353">
        <ele>634.24</ele>
        <time>2019-11-01T14:37:23Z</time>
      </trkpt>
      <trkpt lat="44.87682" lon="5.7336">
        <ele>634.67</ele>
        <time>2019-11-01T14:37:24Z</time>
      </trkpt>
      <trkpt lat="44.87681" lon="5.73366">
        <ele>634.93</ele>
        <time>2019-11-01T14:37:25Z</time>
      </trkpt>
      <trkpt lat="44.8768" lon="5.73372">
        <ele>635.5</ele>
        <time>2019-11-01T14:37:26Z</time>
      </trkpt>
      <trkpt lat="44.87677" lon="5.73379">
        <ele>636.1</ele>
        <time>2019-11-01T14:37:27Z</time>
      </trkpt>
      <trkpt lat="44.87673" lon="5.73384">
        <ele>636.62</ele>
        <time>2019-11-01T14:37:28Z</time>
      </trkpt>
      <trkpt lat="44.87668" lon="5.73388">
        <ele>637.2</ele>
        <time>2019-11-01T14:37:29Z</time>
      </trkpt>
      <trkpt lat="44.87663" lon="5.73392">
        <ele>637.86</ele>
        <time>2019-11-01T14:37:30Z</time>
      </trkpt>
      <trkpt lat="44.87658" lon="5.73395">
        <ele>638.34</ele>
        <time>2019-11-01T14:37:31Z</time>
      </trkpt>
      <trkpt lat="44.87653" lon="5.73399">
        <ele>638.77</ele>
        <time>2019-11-01T14:37:32Z</time>
      </trkpt>
      <trkpt lat="44.87649" lon="5.73403">
        <ele>638.96</ele>
        <time>2019-11-01T14:37:33Z</time>
      </trkpt>
      <trkpt lat="44.87644" lon="5.73408">
        <ele>638.53</ele>
        <time>2019-11-01T14:37:34Z</time>
      </trkpt>
      <trkpt lat="44.87641" lon="5.73413">
        <ele>637.98</ele>
        <time>2019-11-01T14:37:35Z</time>
      </trkpt>
      <trkpt lat="44.87638" lon="5.73419">
        <ele>637.61</ele>
        <time>2019-11-01T14:37:36Z</time>
      </trkpt>
      <trkpt lat="44.87635" lon="5.73426">
        <ele>637.22</ele>
        <time>2019-11-01T14:37:37Z</time>
      </trkpt>
      <trkpt lat="44.87634" lon="5.73433">
        <ele>636.96</ele>
        <time>2019-11-01T14:37:38Z</time>
      </trkpt>
      <trkpt lat="44.87633" lon="5.73441">
        <ele>636.25</ele>
        <time>2019-11-01T14:37:39Z</time>
      </trkpt>
      <trkpt lat="44.87632" lon="5.73448">
        <ele>636.04</ele>
        <time>2019-11-01T14:37:40Z</time>
      </trkpt>
      <trkpt lat="44.87631" lon="5.73455">
        <ele>636.19</ele>
        <time>2019-11-01T14:37:41Z</time>
      </trkpt>
      <trkpt lat="44.8763" lon="5.73461">
        <ele>636.02</ele>
        <time>2019-11-01T14:37:42Z</time>
      </trkpt>
      <trkpt lat="44.87629" lon="5.73467">
        <ele>635.69</ele>
        <time>2019-11-01T14:37:43Z</time>
      </trkpt>
      <trkpt lat="44.87627" lon="5.73473">
        <ele>635.66</ele>
        <time>2019-11-01T14:37:44Z</time>
      </trkpt>
      <trkpt lat="44.87626" lon="5.73479">
        <ele>635.72</ele>
        <time>2019-11-01T14:37:45Z</time>
      </trkpt>
      <trkpt lat="44.87624" lon="5.73485">
        <ele>635.6</ele>
        <time>2019-11-01T14:37:46Z</time>
      </trkpt>
      <trkpt lat="44.87622" lon="5.7349">
        <ele>635.56</ele>
        <time>2019-11-01T14:37:47Z</time>
      </trkpt>
      <trkpt lat="44.87619" lon="5.73495">
        <ele>635.34</ele>
        <time>2019-11-01T14:37:48Z</time>
      </trkpt>
      <trkpt lat="44.87615" lon="5.73501">
        <ele>635.49</ele>
        <time>2019-11-01T14:37:49Z</time>
      </trkpt>
      <trkpt lat="44.87612" lon="5.73505">
        <ele>635.67</ele>
        <time>2019-11-01T14:37:50Z</time>
      </trkpt>
      <trkpt lat="44.87608" lon="5.73508">
        <ele>635.73</ele>
        <time>2019-11-01T14:37:51Z</time>
      </trkpt>
      <trkpt lat="44.87605" lon="5.7351">
        <ele>635.88</ele>
        <time>2019-11-01T14:37:52Z</time>
      </trkpt>
      <trkpt lat="44.876" lon="5.73511">
        <ele>636.14</ele>
        <time>2019-11-01T14:37:53Z</time>
      </trkpt>
      <trkpt lat="44.87596" lon="5.73511">
        <ele>636.43</ele>
        <time>2019-11-01T14:37:54Z</time>
      </trkpt>
      <trkpt lat="44.87592" lon="5.7351">
        <ele>636.79</ele>
        <time>2019-11-01T14:37:55Z</time>
      </trkpt>
      <trkpt lat="44.87588" lon="5.73508">
        <ele>637.04</ele>
        <time>2019-11-01T14:37:56Z</time>
      </trkpt>
      <trkpt lat="44.87585" lon="5.73505">
        <ele>636.84</ele>
        <time>2019-11-01T14:37:57Z</time>
      </trkpt>
      <trkpt lat="44.87581" lon="5.73502">
        <ele>636.64</ele>
        <time>2019-11-01T14:37:58Z</time>
      </trkpt>
      <trkpt lat="44.87578" lon="5.73498">
        <ele>636.57</ele>
        <time>2019-11-01T14:37:59Z</time>
      </trkpt>
      <trkpt lat="44.87575" lon="5.73493">
        <ele>636.7</ele>
        <time>2019-11-01T14:38:00Z</time>
      </trkpt>
      <trkpt lat="44.87572" lon="5.73488">
        <ele>636.94</ele>
        <time>2019-11-01T14:38:01Z</time>
      </trkpt>
      <trkpt lat="44.87569" lon="5.73484">
        <ele>637.23</ele>
        <time>2019-11-01T14:38:02Z</time>
      </trkpt>
      <trkpt lat="44.87567" lon="5.73479">
        <ele>637.45</ele>
        <time>2019-11-01T14:38:03Z</time>
      </trkpt>
      <trkpt lat="44.87564" lon="5.73474">
        <ele>637.66</ele>
        <time>2019-11-01T14:38:04Z</time>
      </trkpt>
      <trkpt lat="44.87561" lon="5.73471">
        <ele>637.93</ele>
        <time>2019-11-01T14:38:05Z</time>
      </trkpt>
      <trkpt lat="44.87558" lon="5.73467">
        <ele>638.01</ele>
        <time>2019-11-01T14:38:06Z</time>
      </trkpt>
      <trkpt lat="44.87556" lon="5.73462">
        <ele>638.25</ele>
        <time>2019-11-01T14:38:07Z</time>
      </trkpt>
      <trkpt lat="44.87554" lon="5.73458">
        <ele>638.46</ele>
        <time>2019-11-01T14:38:08Z</time>
      </trkpt>
      <trkpt lat="44.8755" lon="5.73454">
        <ele>638.66</ele>
        <time>2019-11-01T14:38:09Z</time>
      </trkpt>
      <trkpt lat="44.87547" lon="5.7345">
        <ele>638.86</ele>
        <time>2019-11-01T14:38:10Z</time>
      </trkpt>
      <trkpt lat="44.87543" lon="5.73447">
        <ele>638.5</ele>
        <time>2019-11-01T14:38:11Z</time>
      </trkpt>
      <trkpt lat="44.87539" lon="5.73443">
        <ele>637.91</ele>
        <time>2019-11-01T14:38:12Z</time>
      </trkpt>
      <trkpt lat="44.87535" lon="5.73441">
        <ele>637.17</ele>
        <time>2019-11-01T14:38:13Z</time>
      </trkpt>
      <trkpt lat="44.87531" lon="5.73439">
        <ele>636.87</ele>
        <time>2019-11-01T14:38:14Z</time>
      </trkpt>
      <trkpt lat="44.87527" lon="5.73439">
        <ele>636.86</ele>
        <time>2019-11-01T14:38:15Z</time>
      </trkpt>
      <trkpt lat="44.87522" lon="5.73438">
        <ele>636.92</ele>
        <time>2019-11-01T14:38:16Z</time>
      </trkpt>
      <trkpt lat="44.87517" lon="5.73438">
        <ele>637.85</ele>
        <time>2019-11-01T14:38:17Z</time>
      </trkpt>
      <trkpt lat="44.87512" lon="5.73439">
        <ele>638.41</ele>
        <time>2019-11-01T14:38:18Z</time>
      </trkpt>
      <trkpt lat="44.87508" lon="5.7344">
        <ele>638.23</ele>
        <time>2019-11-01T14:38:19Z</time>
      </trkpt>
      <trkpt lat="44.87503" lon="5.73441">
        <ele>639.22</ele>
        <time>2019-11-01T14:38:20Z</time>
      </trkpt>
      <trkpt lat="44.87499" lon="5.73443">
        <ele>639.59</ele>
        <time>2019-11-01T14:38:21Z</time>
      </trkpt>
      <trkpt lat="44.87496" lon="5.73445">
        <ele>639.49</ele>
        <time>2019-11-01T14:38:22Z</time>
      </trkpt>
      <trkpt lat="44.87492" lon="5.73448">
        <ele>639.32</ele>
        <time>2019-11-01T14:38:23Z</time>
      </trkpt>
      <trkpt lat="44.87488" lon="5.7345">
        <ele>639.48</ele>
        <time>2019-11-01T14:38:24Z</time>
      </trkpt>
      <trkpt lat="44.87484" lon="5.73453">
        <ele>639.67</ele>
        <time>2019-11-01T14:38:25Z</time>
      </trkpt>
      <trkpt lat="44.87481" lon="5.73456">
        <ele>639.65</ele>
        <time>2019-11-01T14:38:26Z</time>
      </trkpt>
      <trkpt lat="44.87477" lon="5.73459">
        <ele>639.58</ele>
        <time>2019-11-01T14:38:27Z</time>
      </trkpt>
      <trkpt lat="44.87474" lon="5.73462">
        <ele>639.56</ele>
        <time>2019-11-01T14:38:28Z</time>
      </trkpt>
      <trkpt lat="44.8747" lon="5.73465">
        <ele>639.9</ele>
        <time>2019-11-01T14:38:29Z</time>
      </trkpt>
      <trkpt lat="44.87466" lon="5.73468">
        <ele>640.14</ele>
        <time>2019-11-01T14:38:30Z</time>
      </trkpt>
      <trkpt lat="44.87462" lon="5.73472">
        <ele>640.71</ele>
        <time>2019-11-01T14:38:31Z</time>
      </trkpt>
      <trkpt lat="44.87459" lon="5.73476">
        <ele>641.02</ele>
        <time>2019-11-01T14:38:32Z</time>
      </trkpt>
      <trkpt lat="44.87455" lon="5.7348">
        <ele>640.76</ele>
        <time>2019-11-01T14:38:33Z</time>
      </trkpt>
      <trkpt lat="44.87451" lon="5.73483">
        <ele>640.47</ele>
        <time>2019-11-01T14:38:34Z</time>
      </trkpt>
      <trkpt lat="44.87448" lon="5.73487">
        <ele>640.39</ele>
        <time>2019-11-01T14:38:35Z</time>
      </trkpt>
      <trkpt lat="44.87444" lon="5.7349">
        <ele>640.29</ele>
        <time>2019-11-01T14:38:36Z</time>
      </trkpt>
      <trkpt lat="44.87441" lon="5.73494">
        <ele>640.4</ele>
        <time>2019-11-01T14:38:37Z</time>
      </trkpt>
      <trkpt lat="44.87437" lon="5.73497">
        <ele>640.5</ele>
        <time>2019-11-01T14:38:38Z</time>
      </trkpt>
      <trkpt lat="44.87434" lon="5.73501">
        <ele>640.82</ele>
        <time>2019-11-01T14:38:39Z</time>
      </trkpt>
      <trkpt lat="44.8743" lon="5.73505">
        <ele>640.84</ele>
        <time>2019-11-01T14:38:40Z</time>
      </trkpt>
      <trkpt lat="44.87427" lon="5.73508">
        <ele>640.92</ele>
        <time>2019-11-01T14:38:41Z</time>
      </trkpt>
      <trkpt lat="44.87423" lon="5.73512">
        <ele>640.73</ele>
        <time>2019-11-01T14:38:42Z</time>
      </trkpt>
      <trkpt lat="44.8742" lon="5.73516">
        <ele>640.46</ele>
        <time>2019-11-01T14:38:43Z</time>
      </trkpt>
      <trkpt lat="44.87417" lon="5.73519">
        <ele>640.38</ele>
        <time>2019-11-01T14:38:44Z</time>
      </trkpt>
      <trkpt lat="44.87413" lon="5.73523">
        <ele>640.57</ele>
        <time>2019-11-01T14:38:45Z</time>
      </trkpt>
      <trkpt lat="44.87409" lon="5.73528">
        <ele>640.84</ele>
        <time>2019-11-01T14:38:46Z</time>
      </trkpt>
      <trkpt lat="44.87406" lon="5.73531">
        <ele>640.98</ele>
        <time>2019-11-01T14:38:47Z</time>
      </trkpt>
      <trkpt lat="44.87402" lon="5.73535">
        <ele>640.75</ele>
        <time>2019-11-01T14:38:48Z</time>
      </trkpt>
      <trkpt lat="44.87399" lon="5.73538">
        <ele>641.1</ele>
        <time>2019-11-01T14:38:49Z</time>
      </trkpt>
      <trkpt lat="44.87395" lon="5.73542">
        <ele>641.62</ele>
        <time>2019-11-01T14:38:50Z</time>
      </trkpt>
      <trkpt lat="44.87392" lon="5.73546">
        <ele>642.41</ele>
        <time>2019-11-01T14:38:51Z</time>
      </trkpt>
      <trkpt lat="44.87388" lon="5.7355">
        <ele>643</ele>
        <time>2019-11-01T14:38:52Z</time>
      </trkpt>
      <trkpt lat="44.87385" lon="5.73554">
        <ele>643.31</ele>
        <time>2019-11-01T14:38:53Z</time>
      </trkpt>
      <trkpt lat="44.87381" lon="5.73557">
        <ele>643.34</ele>
        <time>2019-11-01T14:38:54Z</time>
      </trkpt>
      <trkpt lat="44.87378" lon="5.73561">
        <ele>643.84</ele>
        <time>2019-11-01T14:38:55Z</time>
      </trkpt>
      <trkpt lat="44.87375" lon="5.73565">
        <ele>644.13</ele>
        <time>2019-11-01T14:38:56Z</time>
      </trkpt>
      <trkpt lat="44.87372" lon="5.7357">
        <ele>644.35</ele>
        <time>2019-11-01T14:38:57Z</time>
      </trkpt>
      <trkpt lat="44.87369" lon="5.73573">
        <ele>644.63</ele>
        <time>2019-11-01T14:38:58Z</time>
      </trkpt>
      <trkpt lat="44.87366" lon="5.73577">
        <ele>644.85</ele>
        <time>2019-11-01T14:38:59Z</time>
      </trkpt>
      <trkpt lat="44.87363" lon="5.73579">
        <ele>645.34</ele>
        <time>2019-11-01T14:39:00Z</time>
      </trkpt>
      <trkpt lat="44.8736" lon="5.73582">
        <ele>645.77</ele>
        <time>2019-11-01T14:39:01Z</time>
      </trkpt>
      <trkpt lat="44.87357" lon="5.73584">
        <ele>645.89</ele>
        <time>2019-11-01T14:39:02Z</time>
      </trkpt>
      <trkpt lat="44.87353" lon="5.73588">
        <ele>646.07</ele>
        <time>2019-11-01T14:39:03Z</time>
      </trkpt>
      <trkpt lat="44.8735" lon="5.73592">
        <ele>646.27</ele>
        <time>2019-11-01T14:39:04Z</time>
      </trkpt>
      <trkpt lat="44.87347" lon="5.73596">
        <ele>646.39</ele>
        <time>2019-11-01T14:39:05Z</time>
      </trkpt>
      <trkpt lat="44.87343" lon="5.736">
        <ele>646.43</ele>
        <time>2019-11-01T14:39:06Z</time>
      </trkpt>
      <trkpt lat="44.8734" lon="5.73604">
        <ele>646.37</ele>
        <time>2019-11-01T14:39:07Z</time>
      </trkpt>
      <trkpt lat="44.87337" lon="5.73608">
        <ele>646.5</ele>
        <time>2019-11-01T14:39:08Z</time>
      </trkpt>
      <trkpt lat="44.87335" lon="5.73612">
        <ele>646.67</ele>
        <time>2019-11-01T14:39:09Z</time>
      </trkpt>
      <trkpt lat="44.87332" lon="5.73615">
        <ele>646.94</ele>
        <time>2019-11-01T14:39:10Z</time>
      </trkpt>
      <trkpt lat="44.87331" lon="5.73619">
        <ele>646.95</ele>
        <time>2019-11-01T14:39:11Z</time>
      </trkpt>
      <trkpt lat="44.8733" lon="5.73622">
        <ele>647.93</ele>
        <time>2019-11-01T14:39:12Z</time>
      </trkpt>
      <trkpt lat="44.8733" lon="5.73627">
        <ele>648.36</ele>
        <time>2019-11-01T14:39:13Z</time>
      </trkpt>
      <trkpt lat="44.87329" lon="5.73631">
        <ele>648.49</ele>
        <time>2019-11-01T14:39:14Z</time>
      </trkpt>
      <trkpt lat="44.87329" lon="5.73635">
        <ele>648.39</ele>
        <time>2019-11-01T14:39:15Z</time>
      </trkpt>
      <trkpt lat="44.8733" lon="5.73637">
        <ele>648.36</ele>
        <time>2019-11-01T14:39:16Z</time>
      </trkpt>
      <trkpt lat="44.87329" lon="5.73642">
        <ele>648.78</ele>
        <time>2019-11-01T14:39:18Z</time>
      </trkpt>
      <trkpt lat="44.87329" lon="5.73646">
        <ele>648.75</ele>
        <time>2019-11-01T14:39:20Z</time>
      </trkpt>
      <trkpt lat="44.87327" lon="5.73649">
        <ele>648.91</ele>
        <time>2019-11-01T14:39:22Z</time>
      </trkpt>
      <trkpt lat="44.87326" lon="5.73653">
        <ele>648.81</ele>
        <time>2019-11-01T14:39:24Z</time>
      </trkpt>
      <trkpt lat="44.87325" lon="5.73655">
        <ele>648.56</ele>
        <time>2019-11-01T14:39:25Z</time>
      </trkpt>
      <trkpt lat="44.87324" lon="5.73657">
        <ele>648.55</ele>
        <time>2019-11-01T14:39:26Z</time>
      </trkpt>
      <trkpt lat="44.87323" lon="5.73662">
        <ele>648.92</ele>
        <time>2019-11-01T14:39:28Z</time>
      </trkpt>
      <trkpt lat="44.87322" lon="5.73666">
        <ele>649.47</ele>
        <time>2019-11-01T14:39:30Z</time>
      </trkpt>
      <trkpt lat="44.87322" lon="5.7367">
        <ele>649.96</ele>
        <time>2019-11-01T14:39:32Z</time>
      </trkpt>
      <trkpt lat="44.87322" lon="5.73675">
        <ele>650.06</ele>
        <time>2019-11-01T14:39:34Z</time>
      </trkpt>
      <trkpt lat="44.87322" lon="5.73681">
        <ele>650.28</ele>
        <time>2019-11-01T14:39:36Z</time>
      </trkpt>
      <trkpt lat="44.87322" lon="5.73683">
        <ele>650.47</ele>
        <time>2019-11-01T14:39:37Z</time>
      </trkpt>
      <trkpt lat="44.87323" lon="5.73688">
        <ele>651.12</ele>
        <time>2019-11-01T14:39:39Z</time>
      </trkpt>
      <trkpt lat="44.87322" lon="5.73692">
        <ele>651.88</ele>
        <time>2019-11-01T14:39:41Z</time>
      </trkpt>
      <trkpt lat="44.87322" lon="5.73696">
        <ele>652.5</ele>
        <time>2019-11-01T14:39:43Z</time>
      </trkpt>
      <trkpt lat="44.87322" lon="5.73701">
        <ele>653.44</ele>
        <time>2019-11-01T14:39:45Z</time>
      </trkpt>
      <trkpt lat="44.87323" lon="5.73705">
        <ele>654.04</ele>
        <time>2019-11-01T14:39:47Z</time>
      </trkpt>
      <trkpt lat="44.87324" lon="5.73709">
        <ele>654.37</ele>
        <time>2019-11-01T14:39:49Z</time>
      </trkpt>
      <trkpt lat="44.87323" lon="5.73712">
        <ele>653.94</ele>
        <time>2019-11-01T14:39:50Z</time>
      </trkpt>
      <trkpt lat="44.87324" lon="5.73717">
        <ele>653.37</ele>
        <time>2019-11-01T14:39:52Z</time>
      </trkpt>
      <trkpt lat="44.87325" lon="5.73719">
        <ele>653.29</ele>
        <time>2019-11-01T14:39:53Z</time>
      </trkpt>
      <trkpt lat="44.87325" lon="5.73724">
        <ele>653.18</ele>
        <time>2019-11-01T14:39:55Z</time>
      </trkpt>
      <trkpt lat="44.87326" lon="5.73729">
        <ele>652.8</ele>
        <time>2019-11-01T14:39:57Z</time>
      </trkpt>
      <trkpt lat="44.87324" lon="5.73733">
        <ele>652.63</ele>
        <time>2019-11-01T14:39:59Z</time>
      </trkpt>
      <trkpt lat="44.87326" lon="5.73736">
        <ele>652.72</ele>
        <time>2019-11-01T14:40:01Z</time>
      </trkpt>
      <trkpt lat="44.87327" lon="5.73739">
        <ele>652.74</ele>
        <time>2019-11-01T14:40:02Z</time>
      </trkpt>
      <trkpt lat="44.87328" lon="5.73743">
        <ele>653.21</ele>
        <time>2019-11-01T14:40:04Z</time>
      </trkpt>
      <trkpt lat="44.87329" lon="5.73747">
        <ele>653.78</ele>
        <time>2019-11-01T14:40:06Z</time>
      </trkpt>
      <trkpt lat="44.87331" lon="5.73749">
        <ele>654.25</ele>
        <time>2019-11-01T14:40:07Z</time>
      </trkpt>
      <trkpt lat="44.87332" lon="5.73752">
        <ele>655.1</ele>
        <time>2019-11-01T14:40:09Z</time>
      </trkpt>
      <trkpt lat="44.87334" lon="5.73756">
        <ele>655.88</ele>
        <time>2019-11-01T14:40:11Z</time>
      </trkpt>
      <trkpt lat="44.87335" lon="5.7376">
        <ele>656.68</ele>
        <time>2019-11-01T14:40:13Z</time>
      </trkpt>
      <trkpt lat="44.87336" lon="5.73764">
        <ele>656.85</ele>
        <time>2019-11-01T14:40:15Z</time>
      </trkpt>
      <trkpt lat="44.87337" lon="5.73767">
        <ele>657.26</ele>
        <time>2019-11-01T14:40:17Z</time>
      </trkpt>
      <trkpt lat="44.87338" lon="5.73771">
        <ele>657.18</ele>
        <time>2019-11-01T14:40:19Z</time>
      </trkpt>
      <trkpt lat="44.8734" lon="5.73775">
        <ele>657.31</ele>
        <time>2019-11-01T14:40:21Z</time>
      </trkpt>
      <trkpt lat="44.87341" lon="5.7378">
        <ele>657.53</ele>
        <time>2019-11-01T14:40:23Z</time>
      </trkpt>
      <trkpt lat="44.87341" lon="5.73782">
        <ele>657.47</ele>
        <time>2019-11-01T14:40:24Z</time>
      </trkpt>
      <trkpt lat="44.8734" lon="5.73786">
        <ele>657.67</ele>
        <time>2019-11-01T14:40:25Z</time>
      </trkpt>
      <trkpt lat="44.8734" lon="5.73789">
        <ele>657.86</ele>
        <time>2019-11-01T14:40:26Z</time>
      </trkpt>
      <trkpt lat="44.8734" lon="5.73794">
        <ele>658.31</ele>
        <time>2019-11-01T14:40:28Z</time>
      </trkpt>
      <trkpt lat="44.87339" lon="5.73797">
        <ele>658.41</ele>
        <time>2019-11-01T14:40:29Z</time>
      </trkpt>
      <trkpt lat="44.87339" lon="5.73799">
        <ele>658.44</ele>
        <time>2019-11-01T14:40:30Z</time>
      </trkpt>
      <trkpt lat="44.87339" lon="5.73802">
        <ele>658.52</ele>
        <time>2019-11-01T14:40:31Z</time>
      </trkpt>
      <trkpt lat="44.8734" lon="5.73806">
        <ele>658.71</ele>
        <time>2019-11-01T14:40:33Z</time>
      </trkpt>
      <trkpt lat="44.8734" lon="5.7381">
        <ele>659.07</ele>
        <time>2019-11-01T14:40:35Z</time>
      </trkpt>
      <trkpt lat="44.87341" lon="5.73814">
        <ele>659.05</ele>
        <time>2019-11-01T14:40:37Z</time>
      </trkpt>
      <trkpt lat="44.87341" lon="5.7382">
        <ele>659.12</ele>
        <time>2019-11-01T14:40:39Z</time>
      </trkpt>
      <trkpt lat="44.87342" lon="5.73824">
        <ele>658.96</ele>
        <time>2019-11-01T14:40:41Z</time>
      </trkpt>
      <trkpt lat="44.87343" lon="5.73828">
        <ele>658.77</ele>
        <time>2019-11-01T14:40:43Z</time>
      </trkpt>
      <trkpt lat="44.87343" lon="5.7383">
        <ele>658.75</ele>
        <time>2019-11-01T14:40:44Z</time>
      </trkpt>
      <trkpt lat="44.87344" lon="5.73834">
        <ele>658.7</ele>
        <time>2019-11-01T14:40:46Z</time>
      </trkpt>
      <trkpt lat="44.87344" lon="5.73837">
        <ele>658.66</ele>
        <time>2019-11-01T14:40:47Z</time>
      </trkpt>
      <trkpt lat="44.87343" lon="5.73841">
        <ele>658.81</ele>
        <time>2019-11-01T14:40:49Z</time>
      </trkpt>
      <trkpt lat="44.87342" lon="5.73845">
        <ele>659.17</ele>
        <time>2019-11-01T14:40:51Z</time>
      </trkpt>
      <trkpt lat="44.87341" lon="5.7385">
        <ele>659.56</ele>
        <time>2019-11-01T14:40:53Z</time>
      </trkpt>
      <trkpt lat="44.8734" lon="5.73854">
        <ele>659.87</ele>
        <time>2019-11-01T14:40:55Z</time>
      </trkpt>
      <trkpt lat="44.87339" lon="5.73858">
        <ele>660.45</ele>
        <time>2019-11-01T14:40:57Z</time>
      </trkpt>
      <trkpt lat="44.87338" lon="5.73861">
        <ele>660.93</ele>
        <time>2019-11-01T14:40:59Z</time>
      </trkpt>
      <trkpt lat="44.87338" lon="5.73865">
        <ele>661.52</ele>
        <time>2019-11-01T14:41:01Z</time>
      </trkpt>
      <trkpt lat="44.87338" lon="5.73869">
        <ele>662.26</ele>
        <time>2019-11-01T14:41:03Z</time>
      </trkpt>
      <trkpt lat="44.87338" lon="5.73873">
        <ele>663.06</ele>
        <time>2019-11-01T14:41:05Z</time>
      </trkpt>
      <trkpt lat="44.87339" lon="5.73876">
        <ele>663.71</ele>
        <time>2019-11-01T14:41:07Z</time>
      </trkpt>
      <trkpt lat="44.8734" lon="5.73879">
        <ele>664.16</ele>
        <time>2019-11-01T14:41:09Z</time>
      </trkpt>
      <trkpt lat="44.8734" lon="5.73882">
        <ele>664.56</ele>
        <time>2019-11-01T14:41:11Z</time>
      </trkpt>
      <trkpt lat="44.87341" lon="5.73886">
        <ele>664.8</ele>
        <time>2019-11-01T14:41:13Z</time>
      </trkpt>
      <trkpt lat="44.87341" lon="5.73891">
        <ele>665.19</ele>
        <time>2019-11-01T14:41:15Z</time>
      </trkpt>
      <trkpt lat="44.87342" lon="5.73895">
        <ele>665.73</ele>
        <time>2019-11-01T14:41:17Z</time>
      </trkpt>
      <trkpt lat="44.87343" lon="5.73898">
        <ele>666.28</ele>
        <time>2019-11-01T14:41:19Z</time>
      </trkpt>
      <trkpt lat="44.87343" lon="5.73901">
        <ele>666.4</ele>
        <time>2019-11-01T14:41:20Z</time>
      </trkpt>
      <trkpt lat="44.87343" lon="5.73905">
        <ele>666.58</ele>
        <time>2019-11-01T14:41:22Z</time>
      </trkpt>
      <trkpt lat="44.87343" lon="5.7391">
        <ele>666.16</ele>
        <time>2019-11-01T14:41:24Z</time>
      </trkpt>
      <trkpt lat="44.87343" lon="5.73914">
        <ele>666.04</ele>
        <time>2019-11-01T14:41:26Z</time>
      </trkpt>
      <trkpt lat="44.87344" lon="5.73919">
        <ele>665.96</ele>
        <time>2019-11-01T14:41:28Z</time>
      </trkpt>
      <trkpt lat="44.87344" lon="5.73924">
        <ele>665.9</ele>
        <time>2019-11-01T14:41:30Z</time>
      </trkpt>
      <trkpt lat="44.87345" lon="5.73928">
        <ele>666.18</ele>
        <time>2019-11-01T14:41:32Z</time>
      </trkpt>
      <trkpt lat="44.87345" lon="5.73932">
        <ele>666.73</ele>
        <time>2019-11-01T14:41:34Z</time>
      </trkpt>
      <trkpt lat="44.87345" lon="5.73935">
        <ele>666.95</ele>
        <time>2019-11-01T14:41:35Z</time>
      </trkpt>
      <trkpt lat="44.87345" lon="5.73938">
        <ele>667.23</ele>
        <time>2019-11-01T14:41:36Z</time>
      </trkpt>
      <trkpt lat="44.87345" lon="5.73941">
        <ele>667.45</ele>
        <time>2019-11-01T14:41:37Z</time>
      </trkpt>
      <trkpt lat="44.87345" lon="5.73944">
        <ele>667.8</ele>
        <time>2019-11-01T14:41:38Z</time>
      </trkpt>
      <trkpt lat="44.87344" lon="5.73948">
        <ele>668.19</ele>
        <time>2019-11-01T14:41:40Z</time>
      </trkpt>
      <trkpt lat="44.87344" lon="5.73951">
        <ele>668.38</ele>
        <time>2019-11-01T14:41:42Z</time>
      </trkpt>
      <trkpt lat="44.87345" lon="5.73955">
        <ele>668.44</ele>
        <time>2019-11-01T14:41:44Z</time>
      </trkpt>
      <trkpt lat="44.87346" lon="5.73958">
        <ele>668.73</ele>
        <time>2019-11-01T14:41:46Z</time>
      </trkpt>
      <trkpt lat="44.87348" lon="5.7396">
        <ele>669.02</ele>
        <time>2019-11-01T14:41:48Z</time>
      </trkpt>
      <trkpt lat="44.8735" lon="5.73962">
        <ele>669.42</ele>
        <time>2019-11-01T14:41:50Z</time>
      </trkpt>
      <trkpt lat="44.87352" lon="5.73964">
        <ele>670.48</ele>
        <time>2019-11-01T14:41:52Z</time>
      </trkpt>
      <trkpt lat="44.87355" lon="5.73962">
        <ele>671.35</ele>
        <time>2019-11-01T14:41:54Z</time>
      </trkpt>
      <trkpt lat="44.87358" lon="5.73959">
        <ele>672.34</ele>
        <time>2019-11-01T14:41:56Z</time>
      </trkpt>
      <trkpt lat="44.87359" lon="5.73958">
        <ele>672.77</ele>
        <time>2019-11-01T14:41:57Z</time>
      </trkpt>
      <trkpt lat="44.8736" lon="5.73955">
        <ele>673.24</ele>
        <time>2019-11-01T14:41:58Z</time>
      </trkpt>
      <trkpt lat="44.87363" lon="5.73952">
        <ele>674.26</ele>
        <time>2019-11-01T14:42:00Z</time>
      </trkpt>
      <trkpt lat="44.87365" lon="5.7395">
        <ele>675.35</ele>
        <time>2019-11-01T14:42:02Z</time>
      </trkpt>
      <trkpt lat="44.87367" lon="5.73945">
        <ele>675.87</ele>
        <time>2019-11-01T14:42:04Z</time>
      </trkpt>
      <trkpt lat="44.87368" lon="5.73943">
        <ele>676.07</ele>
        <time>2019-11-01T14:42:05Z</time>
      </trkpt>
      <trkpt lat="44.87369" lon="5.73941">
        <ele>676.33</ele>
        <time>2019-11-01T14:42:06Z</time>
      </trkpt>
      <trkpt lat="44.87372" lon="5.73937">
        <ele>676.6</ele>
        <time>2019-11-01T14:42:08Z</time>
      </trkpt>
      <trkpt lat="44.87373" lon="5.73934">
        <ele>676.7</ele>
        <time>2019-11-01T14:42:09Z</time>
      </trkpt>
      <trkpt lat="44.87374" lon="5.73931">
        <ele>676.95</ele>
        <time>2019-11-01T14:42:10Z</time>
      </trkpt>
      <trkpt lat="44.87375" lon="5.73928">
        <ele>677.44</ele>
        <time>2019-11-01T14:42:11Z</time>
      </trkpt>
      <trkpt lat="44.87377" lon="5.73925">
        <ele>677.52</ele>
        <time>2019-11-01T14:42:12Z</time>
      </trkpt>
      <trkpt lat="44.87379" lon="5.73921">
        <ele>677.33</ele>
        <time>2019-11-01T14:42:13Z</time>
      </trkpt>
      <trkpt lat="44.8738" lon="5.73918">
        <ele>677.2</ele>
        <time>2019-11-01T14:42:14Z</time>
      </trkpt>
      <trkpt lat="44.87382" lon="5.73915">
        <ele>677.1</ele>
        <time>2019-11-01T14:42:15Z</time>
      </trkpt>
      <trkpt lat="44.87383" lon="5.73913">
        <ele>677.27</ele>
        <time>2019-11-01T14:42:16Z</time>
      </trkpt>
      <trkpt lat="44.87384" lon="5.73911">
        <ele>677.4</ele>
        <time>2019-11-01T14:42:17Z</time>
      </trkpt>
      <trkpt lat="44.87386" lon="5.73908">
        <ele>677.43</ele>
        <time>2019-11-01T14:42:18Z</time>
      </trkpt>
      <trkpt lat="44.87387" lon="5.73906">
        <ele>677.51</ele>
        <time>2019-11-01T14:42:19Z</time>
      </trkpt>
      <trkpt lat="44.87388" lon="5.73903">
        <ele>677.61</ele>
        <time>2019-11-01T14:42:20Z</time>
      </trkpt>
      <trkpt lat="44.8739" lon="5.73899">
        <ele>677.65</ele>
        <time>2019-11-01T14:42:22Z</time>
      </trkpt>
      <trkpt lat="44.87393" lon="5.73895">
        <ele>677.79</ele>
        <time>2019-11-01T14:42:24Z</time>
      </trkpt>
      <trkpt lat="44.87394" lon="5.73893">
        <ele>678.25</ele>
        <time>2019-11-01T14:42:25Z</time>
      </trkpt>
      <trkpt lat="44.87395" lon="5.7389">
        <ele>678.67</ele>
        <time>2019-11-01T14:42:26Z</time>
      </trkpt>
      <trkpt lat="44.87396" lon="5.73887">
        <ele>679.15</ele>
        <time>2019-11-01T14:42:27Z</time>
      </trkpt>
      <trkpt lat="44.87397" lon="5.73884">
        <ele>679.36</ele>
        <time>2019-11-01T14:42:28Z</time>
      </trkpt>
      <trkpt lat="44.87398" lon="5.73881">
        <ele>679.56</ele>
        <time>2019-11-01T14:42:29Z</time>
      </trkpt>
      <trkpt lat="44.87399" lon="5.73878">
        <ele>679.83</ele>
        <time>2019-11-01T14:42:30Z</time>
      </trkpt>
      <trkpt lat="44.874" lon="5.73875">
        <ele>680.26</ele>
        <time>2019-11-01T14:42:31Z</time>
      </trkpt>
      <trkpt lat="44.87401" lon="5.73873">
        <ele>680.67</ele>
        <time>2019-11-01T14:42:32Z</time>
      </trkpt>
      <trkpt lat="44.87402" lon="5.7387">
        <ele>681.01</ele>
        <time>2019-11-01T14:42:33Z</time>
      </trkpt>
      <trkpt lat="44.87403" lon="5.73868">
        <ele>680.9</ele>
        <time>2019-11-01T14:42:34Z</time>
      </trkpt>
      <trkpt lat="44.87403" lon="5.73865">
        <ele>681.07</ele>
        <time>2019-11-01T14:42:35Z</time>
      </trkpt>
      <trkpt lat="44.87404" lon="5.73862">
        <ele>681.06</ele>
        <time>2019-11-01T14:42:36Z</time>
      </trkpt>
      <trkpt lat="44.87405" lon="5.7386">
        <ele>680.98</ele>
        <time>2019-11-01T14:42:37Z</time>
      </trkpt>
      <trkpt lat="44.87407" lon="5.73855">
        <ele>681.09</ele>
        <time>2019-11-01T14:42:39Z</time>
      </trkpt>
      <trkpt lat="44.87409" lon="5.73852">
        <ele>680.78</ele>
        <time>2019-11-01T14:42:40Z</time>
      </trkpt>
      <trkpt lat="44.87411" lon="5.73849">
        <ele>680.41</ele>
        <time>2019-11-01T14:42:41Z</time>
      </trkpt>
      <trkpt lat="44.87413" lon="5.73846">
        <ele>679.81</ele>
        <time>2019-11-01T14:42:42Z</time>
      </trkpt>
      <trkpt lat="44.87415" lon="5.73842">
        <ele>678.59</ele>
        <time>2019-11-01T14:42:44Z</time>
      </trkpt>
      <trkpt lat="44.87416" lon="5.73839">
        <ele>678.07</ele>
        <time>2019-11-01T14:42:45Z</time>
      </trkpt>
      <trkpt lat="44.87417" lon="5.73837">
        <ele>677.57</ele>
        <time>2019-11-01T14:42:46Z</time>
      </trkpt>
      <trkpt lat="44.87418" lon="5.73835">
        <ele>677.48</ele>
        <time>2019-11-01T14:42:47Z</time>
      </trkpt>
      <trkpt lat="44.87419" lon="5.73832">
        <ele>677.6</ele>
        <time>2019-11-01T14:42:48Z</time>
      </trkpt>
      <trkpt lat="44.87421" lon="5.73828">
        <ele>678.52</ele>
        <time>2019-11-01T14:42:50Z</time>
      </trkpt>
      <trkpt lat="44.87423" lon="5.73825">
        <ele>678.61</ele>
        <time>2019-11-01T14:42:51Z</time>
      </trkpt>
      <trkpt lat="44.87424" lon="5.73823">
        <ele>678.71</ele>
        <time>2019-11-01T14:42:52Z</time>
      </trkpt>
      <trkpt lat="44.87426" lon="5.73821">
        <ele>678.53</ele>
        <time>2019-11-01T14:42:53Z</time>
      </trkpt>
      <trkpt lat="44.87427" lon="5.73819">
        <ele>678.54</ele>
        <time>2019-11-01T14:42:54Z</time>
      </trkpt>
      <trkpt lat="44.87429" lon="5.73815">
        <ele>678.07</ele>
        <time>2019-11-01T14:42:56Z</time>
      </trkpt>
      <trkpt lat="44.87431" lon="5.73812">
        <ele>677.76</ele>
        <time>2019-11-01T14:42:58Z</time>
      </trkpt>
      <trkpt lat="44.87434" lon="5.7381">
        <ele>678.1</ele>
        <time>2019-11-01T14:43:00Z</time>
      </trkpt>
      <trkpt lat="44.87437" lon="5.73808">
        <ele>678.63</ele>
        <time>2019-11-01T14:43:02Z</time>
      </trkpt>
      <trkpt lat="44.8744" lon="5.73807">
        <ele>679.27</ele>
        <time>2019-11-01T14:43:04Z</time>
      </trkpt>
      <trkpt lat="44.87443" lon="5.73807">
        <ele>680.01</ele>
        <time>2019-11-01T14:43:06Z</time>
      </trkpt>
      <trkpt lat="44.87446" lon="5.73809">
        <ele>680.6</ele>
        <time>2019-11-01T14:43:08Z</time>
      </trkpt>
      <trkpt lat="44.87449" lon="5.7381">
        <ele>680.88</ele>
        <time>2019-11-01T14:43:10Z</time>
      </trkpt>
      <trkpt lat="44.87453" lon="5.7381">
        <ele>681.64</ele>
        <time>2019-11-01T14:43:12Z</time>
      </trkpt>
      <trkpt lat="44.87454" lon="5.7381">
        <ele>682.13</ele>
        <time>2019-11-01T14:43:13Z</time>
      </trkpt>
      <trkpt lat="44.87456" lon="5.73811">
        <ele>682.42</ele>
        <time>2019-11-01T14:43:14Z</time>
      </trkpt>
      <trkpt lat="44.87459" lon="5.73812">
        <ele>682.45</ele>
        <time>2019-11-01T14:43:16Z</time>
      </trkpt>
      <trkpt lat="44.87461" lon="5.73814">
        <ele>682.93</ele>
        <time>2019-11-01T14:43:18Z</time>
      </trkpt>
      <trkpt lat="44.87463" lon="5.73816">
        <ele>683.42</ele>
        <time>2019-11-01T14:43:21Z</time>
      </trkpt>
      <trkpt lat="44.87466" lon="5.73817">
        <ele>683.77</ele>
        <time>2019-11-01T14:43:23Z</time>
      </trkpt>
      <trkpt lat="44.87468" lon="5.73819">
        <ele>683.93</ele>
        <time>2019-11-01T14:43:25Z</time>
      </trkpt>
      <trkpt lat="44.8747" lon="5.7382">
        <ele>684.43</ele>
        <time>2019-11-01T14:43:27Z</time>
      </trkpt>
      <trkpt lat="44.87474" lon="5.7382">
        <ele>684.88</ele>
        <time>2019-11-01T14:43:29Z</time>
      </trkpt>
      <trkpt lat="44.87477" lon="5.73821">
        <ele>685.4</ele>
        <time>2019-11-01T14:43:31Z</time>
      </trkpt>
      <trkpt lat="44.8748" lon="5.73822">
        <ele>685.86</ele>
        <time>2019-11-01T14:43:33Z</time>
      </trkpt>
      <trkpt lat="44.87483" lon="5.73824">
        <ele>686.42</ele>
        <time>2019-11-01T14:43:35Z</time>
      </trkpt>
      <trkpt lat="44.87486" lon="5.73825">
        <ele>687.09</ele>
        <time>2019-11-01T14:43:37Z</time>
      </trkpt>
      <trkpt lat="44.87489" lon="5.73824">
        <ele>687.37</ele>
        <time>2019-11-01T14:43:39Z</time>
      </trkpt>
      <trkpt lat="44.87491" lon="5.73824">
        <ele>687.5</ele>
        <time>2019-11-01T14:43:40Z</time>
      </trkpt>
      <trkpt lat="44.87493" lon="5.73823">
        <ele>687.6</ele>
        <time>2019-11-01T14:43:41Z</time>
      </trkpt>
      <trkpt lat="44.87496" lon="5.73823">
        <ele>687.81</ele>
        <time>2019-11-01T14:43:43Z</time>
      </trkpt>
      <trkpt lat="44.87498" lon="5.73822">
        <ele>687.91</ele>
        <time>2019-11-01T14:43:44Z</time>
      </trkpt>
      <trkpt lat="44.87501" lon="5.73821">
        <ele>688.11</ele>
        <time>2019-11-01T14:43:46Z</time>
      </trkpt>
      <trkpt lat="44.87503" lon="5.7382">
        <ele>688.35</ele>
        <time>2019-11-01T14:43:47Z</time>
      </trkpt>
      <trkpt lat="44.87506" lon="5.7382">
        <ele>688.6</ele>
        <time>2019-11-01T14:43:49Z</time>
      </trkpt>
      <trkpt lat="44.87509" lon="5.7382">
        <ele>688.74</ele>
        <time>2019-11-01T14:43:51Z</time>
      </trkpt>
      <trkpt lat="44.87511" lon="5.73822">
        <ele>688.86</ele>
        <time>2019-11-01T14:43:53Z</time>
      </trkpt>
      <trkpt lat="44.87514" lon="5.73824">
        <ele>689.46</ele>
        <time>2019-11-01T14:43:56Z</time>
      </trkpt>
      <trkpt lat="44.87515" lon="5.73826">
        <ele>689.86</ele>
        <time>2019-11-01T14:43:58Z</time>
      </trkpt>
      <trkpt lat="44.87518" lon="5.73827">
        <ele>690.4</ele>
        <time>2019-11-01T14:44:00Z</time>
      </trkpt>
      <trkpt lat="44.87519" lon="5.73828">
        <ele>690.51</ele>
        <time>2019-11-01T14:44:01Z</time>
      </trkpt>
      <trkpt lat="44.87522" lon="5.73831">
        <ele>690.43</ele>
        <time>2019-11-01T14:44:03Z</time>
      </trkpt>
      <trkpt lat="44.87524" lon="5.73833">
        <ele>690.61</ele>
        <time>2019-11-01T14:44:05Z</time>
      </trkpt>
      <trkpt lat="44.87526" lon="5.73834">
        <ele>690.88</ele>
        <time>2019-11-01T14:44:07Z</time>
      </trkpt>
      <trkpt lat="44.87529" lon="5.73836">
        <ele>690.94</ele>
        <time>2019-11-01T14:44:09Z</time>
      </trkpt>
      <trkpt lat="44.87531" lon="5.73836">
        <ele>691.71</ele>
        <time>2019-11-01T14:44:11Z</time>
      </trkpt>
      <trkpt lat="44.87535" lon="5.73838">
        <ele>692.96</ele>
        <time>2019-11-01T14:44:13Z</time>
      </trkpt>
      <trkpt lat="44.87538" lon="5.73839">
        <ele>694</ele>
        <time>2019-11-01T14:44:15Z</time>
      </trkpt>
      <trkpt lat="44.8754" lon="5.73841">
        <ele>694.69</ele>
        <time>2019-11-01T14:44:17Z</time>
      </trkpt>
      <trkpt lat="44.87543" lon="5.73842">
        <ele>695.39</ele>
        <time>2019-11-01T14:44:19Z</time>
      </trkpt>
      <trkpt lat="44.87546" lon="5.73843">
        <ele>696.04</ele>
        <time>2019-11-01T14:44:21Z</time>
      </trkpt>
      <trkpt lat="44.87548" lon="5.73844">
        <ele>696.53</ele>
        <time>2019-11-01T14:44:23Z</time>
      </trkpt>
      <trkpt lat="44.87552" lon="5.73845">
        <ele>697.21</ele>
        <time>2019-11-01T14:44:25Z</time>
      </trkpt>
      <trkpt lat="44.87554" lon="5.73845">
        <ele>697.75</ele>
        <time>2019-11-01T14:44:27Z</time>
      </trkpt>
      <trkpt lat="44.87556" lon="5.73845">
        <ele>698</ele>
        <time>2019-11-01T14:44:29Z</time>
      </trkpt>
      <trkpt lat="44.87558" lon="5.73845">
        <ele>698.28</ele>
        <time>2019-11-01T14:44:31Z</time>
      </trkpt>
      <trkpt lat="44.8756" lon="5.73846">
        <ele>698.73</ele>
        <time>2019-11-01T14:44:33Z</time>
      </trkpt>
      <trkpt lat="44.87562" lon="5.73846">
        <ele>699.5</ele>
        <time>2019-11-01T14:44:35Z</time>
      </trkpt>
      <trkpt lat="44.87565" lon="5.73847">
        <ele>700.44</ele>
        <time>2019-11-01T14:44:37Z</time>
      </trkpt>
      <trkpt lat="44.87568" lon="5.73847">
        <ele>701.9</ele>
        <time>2019-11-01T14:44:39Z</time>
      </trkpt>
      <trkpt lat="44.87571" lon="5.73848">
        <ele>702.99</ele>
        <time>2019-11-01T14:44:41Z</time>
      </trkpt>
      <trkpt lat="44.87573" lon="5.73849">
        <ele>703.62</ele>
        <time>2019-11-01T14:44:43Z</time>
      </trkpt>
      <trkpt lat="44.87575" lon="5.73849">
        <ele>704.13</ele>
        <time>2019-11-01T14:44:45Z</time>
      </trkpt>
      <trkpt lat="44.87577" lon="5.7385">
        <ele>704.58</ele>
        <time>2019-11-01T14:44:47Z</time>
      </trkpt>
      <trkpt lat="44.87579" lon="5.73851">
        <ele>705.27</ele>
        <time>2019-11-01T14:44:49Z</time>
      </trkpt>
      <trkpt lat="44.87582" lon="5.73852">
        <ele>706.1</ele>
        <time>2019-11-01T14:44:51Z</time>
      </trkpt>
      <trkpt lat="44.87584" lon="5.73852">
        <ele>706.72</ele>
        <time>2019-11-01T14:44:53Z</time>
      </trkpt>
      <trkpt lat="44.87586" lon="5.73853">
        <ele>707.25</ele>
        <time>2019-11-01T14:44:55Z</time>
      </trkpt>
      <trkpt lat="44.87588" lon="5.73853">
        <ele>707.8</ele>
        <time>2019-11-01T14:44:57Z</time>
      </trkpt>
      <trkpt lat="44.87591" lon="5.73854">
        <ele>708.9</ele>
        <time>2019-11-01T14:44:59Z</time>
      </trkpt>
      <trkpt lat="44.87594" lon="5.73855">
        <ele>709.86</ele>
        <time>2019-11-01T14:45:01Z</time>
      </trkpt>
      <trkpt lat="44.87597" lon="5.73855">
        <ele>710.68</ele>
        <time>2019-11-01T14:45:03Z</time>
      </trkpt>
      <trkpt lat="44.876" lon="5.73856">
        <ele>711.41</ele>
        <time>2019-11-01T14:45:05Z</time>
      </trkpt>
      <trkpt lat="44.87603" lon="5.73857">
        <ele>712.11</ele>
        <time>2019-11-01T14:45:07Z</time>
      </trkpt>
      <trkpt lat="44.87606" lon="5.73858">
        <ele>712.9</ele>
        <time>2019-11-01T14:45:09Z</time>
      </trkpt>
      <trkpt lat="44.87609" lon="5.73859">
        <ele>713.27</ele>
        <time>2019-11-01T14:45:11Z</time>
      </trkpt>
      <trkpt lat="44.87613" lon="5.7386">
        <ele>713.73</ele>
        <time>2019-11-01T14:45:13Z</time>
      </trkpt>
      <trkpt lat="44.87614" lon="5.73862">
        <ele>714.04</ele>
        <time>2019-11-01T14:45:15Z</time>
      </trkpt>
      <trkpt lat="44.87617" lon="5.73864">
        <ele>713.68</ele>
        <time>2019-11-01T14:45:17Z</time>
      </trkpt>
      <trkpt lat="44.87619" lon="5.73866">
        <ele>714.14</ele>
        <time>2019-11-01T14:45:19Z</time>
      </trkpt>
      <trkpt lat="44.87621" lon="5.73868">
        <ele>714.67</ele>
        <time>2019-11-01T14:45:21Z</time>
      </trkpt>
      <trkpt lat="44.87623" lon="5.7387">
        <ele>714.83</ele>
        <time>2019-11-01T14:45:23Z</time>
      </trkpt>
      <trkpt lat="44.87624" lon="5.73872">
        <ele>715.1</ele>
        <time>2019-11-01T14:45:25Z</time>
      </trkpt>
      <trkpt lat="44.87626" lon="5.73875">
        <ele>715</ele>
        <time>2019-11-01T14:45:27Z</time>
      </trkpt>
      <trkpt lat="44.87628" lon="5.73878">
        <ele>714.88</ele>
        <time>2019-11-01T14:45:29Z</time>
      </trkpt>
      <trkpt lat="44.87629" lon="5.73882">
        <ele>714.92</ele>
        <time>2019-11-01T14:45:31Z</time>
      </trkpt>
      <trkpt lat="44.8763" lon="5.73885">
        <ele>715.09</ele>
        <time>2019-11-01T14:45:33Z</time>
      </trkpt>
      <trkpt lat="44.87631" lon="5.73888">
        <ele>715.47</ele>
        <time>2019-11-01T14:45:35Z</time>
      </trkpt>
      <trkpt lat="44.87632" lon="5.73891">
        <ele>715.7</ele>
        <time>2019-11-01T14:45:37Z</time>
      </trkpt>
      <trkpt lat="44.87632" lon="5.73895">
        <ele>715.91</ele>
        <time>2019-11-01T14:45:39Z</time>
      </trkpt>
      <trkpt lat="44.87634" lon="5.73899">
        <ele>715.95</ele>
        <time>2019-11-01T14:45:41Z</time>
      </trkpt>
      <trkpt lat="44.87636" lon="5.73902">
        <ele>715.93</ele>
        <time>2019-11-01T14:45:43Z</time>
      </trkpt>
      <trkpt lat="44.87637" lon="5.73905">
        <ele>716</ele>
        <time>2019-11-01T14:45:45Z</time>
      </trkpt>
      <trkpt lat="44.87639" lon="5.73909">
        <ele>716.58</ele>
        <time>2019-11-01T14:45:47Z</time>
      </trkpt>
      <trkpt lat="44.8764" lon="5.73912">
        <ele>717.38</ele>
        <time>2019-11-01T14:45:49Z</time>
      </trkpt>
      <trkpt lat="44.87642" lon="5.73916">
        <ele>718.41</ele>
        <time>2019-11-01T14:45:51Z</time>
      </trkpt>
      <trkpt lat="44.87644" lon="5.73919">
        <ele>718.99</ele>
        <time>2019-11-01T14:45:53Z</time>
      </trkpt>
      <trkpt lat="44.87646" lon="5.73922">
        <ele>719.37</ele>
        <time>2019-11-01T14:45:55Z</time>
      </trkpt>
      <trkpt lat="44.87647" lon="5.73924">
        <ele>719.92</ele>
        <time>2019-11-01T14:45:57Z</time>
      </trkpt>
      <trkpt lat="44.87649" lon="5.73926">
        <ele>720.22</ele>
        <time>2019-11-01T14:45:59Z</time>
      </trkpt>
      <trkpt lat="44.87651" lon="5.73928">
        <ele>720.55</ele>
        <time>2019-11-01T14:46:01Z</time>
      </trkpt>
      <trkpt lat="44.87653" lon="5.7393">
        <ele>722.55</ele>
        <time>2019-11-01T14:46:05Z</time>
      </trkpt>
      <trkpt lat="44.87654" lon="5.73932">
        <ele>723.72</ele>
        <time>2019-11-01T14:46:07Z</time>
      </trkpt>
      <trkpt lat="44.87656" lon="5.73936">
        <ele>724.78</ele>
        <time>2019-11-01T14:46:09Z</time>
      </trkpt>
      <trkpt lat="44.87657" lon="5.7394">
        <ele>725.85</ele>
        <time>2019-11-01T14:46:11Z</time>
      </trkpt>
      <trkpt lat="44.87658" lon="5.73941">
        <ele>726.06</ele>
        <time>2019-11-01T14:46:12Z</time>
      </trkpt>
      <trkpt lat="44.87661" lon="5.73945">
        <ele>726.55</ele>
        <time>2019-11-01T14:46:14Z</time>
      </trkpt>
      <trkpt lat="44.87663" lon="5.73949">
        <ele>726.8</ele>
        <time>2019-11-01T14:46:16Z</time>
      </trkpt>
      <trkpt lat="44.87664" lon="5.73952">
        <ele>726.89</ele>
        <time>2019-11-01T14:46:18Z</time>
      </trkpt>
      <trkpt lat="44.87665" lon="5.73954">
        <ele>726.72</ele>
        <time>2019-11-01T14:46:19Z</time>
      </trkpt>
      <trkpt lat="44.87666" lon="5.73957">
        <ele>726.32</ele>
        <time>2019-11-01T14:46:20Z</time>
      </trkpt>
      <trkpt lat="44.87667" lon="5.73961">
        <ele>725.95</ele>
        <time>2019-11-01T14:46:22Z</time>
      </trkpt>
      <trkpt lat="44.87669" lon="5.73964">
        <ele>725.52</ele>
        <time>2019-11-01T14:46:24Z</time>
      </trkpt>
      <trkpt lat="44.87671" lon="5.73967">
        <ele>725.83</ele>
        <time>2019-11-01T14:46:26Z</time>
      </trkpt>
      <trkpt lat="44.87673" lon="5.73969">
        <ele>726.05</ele>
        <time>2019-11-01T14:46:27Z</time>
      </trkpt>
      <trkpt lat="44.87673" lon="5.73971">
        <ele>726.47</ele>
        <time>2019-11-01T14:46:28Z</time>
      </trkpt>
      <trkpt lat="44.87675" lon="5.73975">
        <ele>727.16</ele>
        <time>2019-11-01T14:46:30Z</time>
      </trkpt>
      <trkpt lat="44.87677" lon="5.73978">
        <ele>727.98</ele>
        <time>2019-11-01T14:46:32Z</time>
      </trkpt>
      <trkpt lat="44.87679" lon="5.73981">
        <ele>728.41</ele>
        <time>2019-11-01T14:46:34Z</time>
      </trkpt>
      <trkpt lat="44.87681" lon="5.73983">
        <ele>728.52</ele>
        <time>2019-11-01T14:46:36Z</time>
      </trkpt>
      <trkpt lat="44.87683" lon="5.73984">
        <ele>728.27</ele>
        <time>2019-11-01T14:46:38Z</time>
      </trkpt>
      <trkpt lat="44.87685" lon="5.73986">
        <ele>728.07</ele>
        <time>2019-11-01T14:46:40Z</time>
      </trkpt>
      <trkpt lat="44.87687" lon="5.7399">
        <ele>728.05</ele>
        <time>2019-11-01T14:46:42Z</time>
      </trkpt>
      <trkpt lat="44.87688" lon="5.73993">
        <ele>727.87</ele>
        <time>2019-11-01T14:46:44Z</time>
      </trkpt>
      <trkpt lat="44.8769" lon="5.73997">
        <ele>728.15</ele>
        <time>2019-11-01T14:46:46Z</time>
      </trkpt>
      <trkpt lat="44.87692" lon="5.73999">
        <ele>728.36</ele>
        <time>2019-11-01T14:46:47Z</time>
      </trkpt>
      <trkpt lat="44.87693" lon="5.74001">
        <ele>728.7</ele>
        <time>2019-11-01T14:46:48Z</time>
      </trkpt>
      <trkpt lat="44.87695" lon="5.74003">
        <ele>729.07</ele>
        <time>2019-11-01T14:46:50Z</time>
      </trkpt>
      <trkpt lat="44.87697" lon="5.74007">
        <ele>729.72</ele>
        <time>2019-11-01T14:46:52Z</time>
      </trkpt>
      <trkpt lat="44.87699" lon="5.7401">
        <ele>730.23</ele>
        <time>2019-11-01T14:46:54Z</time>
      </trkpt>
      <trkpt lat="44.877" lon="5.74013">
        <ele>731.12</ele>
        <time>2019-11-01T14:46:56Z</time>
      </trkpt>
      <trkpt lat="44.87702" lon="5.74017">
        <ele>731.86</ele>
        <time>2019-11-01T14:46:58Z</time>
      </trkpt>
      <trkpt lat="44.87705" lon="5.74021">
        <ele>732.97</ele>
        <time>2019-11-01T14:47:00Z</time>
      </trkpt>
      <trkpt lat="44.87706" lon="5.74023">
        <ele>733.52</ele>
        <time>2019-11-01T14:47:01Z</time>
      </trkpt>
      <trkpt lat="44.87708" lon="5.74026">
        <ele>733.82</ele>
        <time>2019-11-01T14:47:02Z</time>
      </trkpt>
      <trkpt lat="44.8771" lon="5.7403">
        <ele>733.99</ele>
        <time>2019-11-01T14:47:04Z</time>
      </trkpt>
      <trkpt lat="44.87711" lon="5.74032">
        <ele>734.17</ele>
        <time>2019-11-01T14:47:05Z</time>
      </trkpt>
      <trkpt lat="44.87713" lon="5.74037">
        <ele>735.28</ele>
        <time>2019-11-01T14:47:07Z</time>
      </trkpt>
      <trkpt lat="44.87714" lon="5.7404">
        <ele>736.03</ele>
        <time>2019-11-01T14:47:08Z</time>
      </trkpt>
      <trkpt lat="44.87716" lon="5.74042">
        <ele>736.73</ele>
        <time>2019-11-01T14:47:10Z</time>
      </trkpt>
      <trkpt lat="44.87719" lon="5.74043">
        <ele>736.84</ele>
        <time>2019-11-01T14:47:12Z</time>
      </trkpt>
      <trkpt lat="44.87721" lon="5.74046">
        <ele>737.1</ele>
        <time>2019-11-01T14:47:14Z</time>
      </trkpt>
      <trkpt lat="44.87724" lon="5.74048">
        <ele>737.7</ele>
        <time>2019-11-01T14:47:16Z</time>
      </trkpt>
      <trkpt lat="44.87726" lon="5.74051">
        <ele>738.71</ele>
        <time>2019-11-01T14:47:18Z</time>
      </trkpt>
      <trkpt lat="44.87728" lon="5.74052">
        <ele>739.3</ele>
        <time>2019-11-01T14:47:19Z</time>
      </trkpt>
      <trkpt lat="44.87731" lon="5.74053">
        <ele>739.94</ele>
        <time>2019-11-01T14:47:21Z</time>
      </trkpt>
      <trkpt lat="44.87734" lon="5.74054">
        <ele>740.2</ele>
        <time>2019-11-01T14:47:23Z</time>
      </trkpt>
      <trkpt lat="44.87737" lon="5.74056">
        <ele>740.5</ele>
        <time>2019-11-01T14:47:25Z</time>
      </trkpt>
      <trkpt lat="44.8774" lon="5.74058">
        <ele>740.96</ele>
        <time>2019-11-01T14:47:27Z</time>
      </trkpt>
      <trkpt lat="44.87742" lon="5.7406">
        <ele>741.71</ele>
        <time>2019-11-01T14:47:29Z</time>
      </trkpt>
      <trkpt lat="44.87743" lon="5.74062">
        <ele>742.23</ele>
        <time>2019-11-01T14:47:31Z</time>
      </trkpt>
      <trkpt lat="44.87746" lon="5.74065">
        <ele>742.59</ele>
        <time>2019-11-01T14:47:33Z</time>
      </trkpt>
      <trkpt lat="44.87748" lon="5.74066">
        <ele>742.84</ele>
        <time>2019-11-01T14:47:34Z</time>
      </trkpt>
      <trkpt lat="44.87749" lon="5.74068">
        <ele>743.06</ele>
        <time>2019-11-01T14:47:35Z</time>
      </trkpt>
      <trkpt lat="44.87751" lon="5.74069">
        <ele>743.33</ele>
        <time>2019-11-01T14:47:36Z</time>
      </trkpt>
      <trkpt lat="44.87753" lon="5.7407">
        <ele>743.69</ele>
        <time>2019-11-01T14:47:37Z</time>
      </trkpt>
      <trkpt lat="44.87754" lon="5.74072">
        <ele>744.15</ele>
        <time>2019-11-01T14:47:38Z</time>
      </trkpt>
      <trkpt lat="44.87756" lon="5.74074">
        <ele>744.57</ele>
        <time>2019-11-01T14:47:39Z</time>
      </trkpt>
      <trkpt lat="44.87757" lon="5.74075">
        <ele>744.63</ele>
        <time>2019-11-01T14:47:40Z</time>
      </trkpt>
      <trkpt lat="44.8776" lon="5.74078">
        <ele>744.9</ele>
        <time>2019-11-01T14:47:42Z</time>
      </trkpt>
      <trkpt lat="44.87763" lon="5.74082">
        <ele>745.41</ele>
        <time>2019-11-01T14:47:44Z</time>
      </trkpt>
      <trkpt lat="44.87764" lon="5.74084">
        <ele>745.86</ele>
        <time>2019-11-01T14:47:45Z</time>
      </trkpt>
      <trkpt lat="44.87765" lon="5.74086">
        <ele>746.41</ele>
        <time>2019-11-01T14:47:46Z</time>
      </trkpt>
      <trkpt lat="44.87767" lon="5.74088">
        <ele>746.79</ele>
        <time>2019-11-01T14:47:47Z</time>
      </trkpt>
      <trkpt lat="44.87768" lon="5.74089">
        <ele>746.69</ele>
        <time>2019-11-01T14:47:48Z</time>
      </trkpt>
      <trkpt lat="44.87772" lon="5.74092">
        <ele>746.79</ele>
        <time>2019-11-01T14:47:50Z</time>
      </trkpt>
      <trkpt lat="44.87774" lon="5.74093">
        <ele>746.9</ele>
        <time>2019-11-01T14:47:51Z</time>
      </trkpt>
      <trkpt lat="44.87775" lon="5.74095">
        <ele>746.93</ele>
        <time>2019-11-01T14:47:52Z</time>
      </trkpt>
      <trkpt lat="44.87778" lon="5.74098">
        <ele>747.02</ele>
        <time>2019-11-01T14:47:54Z</time>
      </trkpt>
      <trkpt lat="44.87781" lon="5.741">
        <ele>747.25</ele>
        <time>2019-11-01T14:47:56Z</time>
      </trkpt>
      <trkpt lat="44.87782" lon="5.74102">
        <ele>747.32</ele>
        <time>2019-11-01T14:47:57Z</time>
      </trkpt>
      <trkpt lat="44.87784" lon="5.74104">
        <ele>747.34</ele>
        <time>2019-11-01T14:47:58Z</time>
      </trkpt>
      <trkpt lat="44.87786" lon="5.74107">
        <ele>747.42</ele>
        <time>2019-11-01T14:48:00Z</time>
      </trkpt>
      <trkpt lat="44.87788" lon="5.7411">
        <ele>747.68</ele>
        <time>2019-11-01T14:48:02Z</time>
      </trkpt>
      <trkpt lat="44.87791" lon="5.74113">
        <ele>747.83</ele>
        <time>2019-11-01T14:48:04Z</time>
      </trkpt>
      <trkpt lat="44.87793" lon="5.74116">
        <ele>747.76</ele>
        <time>2019-11-01T14:48:06Z</time>
      </trkpt>
      <trkpt lat="44.87795" lon="5.74118">
        <ele>747.89</ele>
        <time>2019-11-01T14:48:07Z</time>
      </trkpt>
      <trkpt lat="44.87798" lon="5.74121">
        <ele>747.99</ele>
        <time>2019-11-01T14:48:09Z</time>
      </trkpt>
      <trkpt lat="44.87799" lon="5.74122">
        <ele>747.89</ele>
        <time>2019-11-01T14:48:10Z</time>
      </trkpt>
      <trkpt lat="44.87801" lon="5.74124">
        <ele>747.93</ele>
        <time>2019-11-01T14:48:11Z</time>
      </trkpt>
      <trkpt lat="44.87803" lon="5.74125">
        <ele>748.22</ele>
        <time>2019-11-01T14:48:12Z</time>
      </trkpt>
      <trkpt lat="44.87806" lon="5.74126">
        <ele>748.68</ele>
        <time>2019-11-01T14:48:14Z</time>
      </trkpt>
      <trkpt lat="44.87808" lon="5.74127">
        <ele>748.94</ele>
        <time>2019-11-01T14:48:15Z</time>
      </trkpt>
      <trkpt lat="44.8781" lon="5.74128">
        <ele>749.3</ele>
        <time>2019-11-01T14:48:16Z</time>
      </trkpt>
      <trkpt lat="44.87812" lon="5.74131">
        <ele>749.71</ele>
        <time>2019-11-01T14:48:18Z</time>
      </trkpt>
      <trkpt lat="44.87815" lon="5.74134">
        <ele>750</ele>
        <time>2019-11-01T14:48:20Z</time>
      </trkpt>
      <trkpt lat="44.87817" lon="5.74136">
        <ele>750.21</ele>
        <time>2019-11-01T14:48:22Z</time>
      </trkpt>
      <trkpt lat="44.87818" lon="5.74138">
        <ele>750.64</ele>
        <time>2019-11-01T14:48:24Z</time>
      </trkpt>
      <trkpt lat="44.87821" lon="5.7414">
        <ele>751.06</ele>
        <time>2019-11-01T14:48:26Z</time>
      </trkpt>
      <trkpt lat="44.87823" lon="5.74141">
        <ele>751.19</ele>
        <time>2019-11-01T14:48:27Z</time>
      </trkpt>
      <trkpt lat="44.87825" lon="5.74143">
        <ele>751.4</ele>
        <time>2019-11-01T14:48:29Z</time>
      </trkpt>
      <trkpt lat="44.87828" lon="5.74145">
        <ele>751.63</ele>
        <time>2019-11-01T14:48:31Z</time>
      </trkpt>
      <trkpt lat="44.87831" lon="5.74145">
        <ele>752.18</ele>
        <time>2019-11-01T14:48:33Z</time>
      </trkpt>
      <trkpt lat="44.87833" lon="5.74146">
        <ele>752.91</ele>
        <time>2019-11-01T14:48:35Z</time>
      </trkpt>
      <trkpt lat="44.87836" lon="5.74148">
        <ele>753.38</ele>
        <time>2019-11-01T14:48:37Z</time>
      </trkpt>
      <trkpt lat="44.87839" lon="5.74149">
        <ele>753.53</ele>
        <time>2019-11-01T14:48:39Z</time>
      </trkpt>
      <trkpt lat="44.87841" lon="5.7415">
        <ele>753.8</ele>
        <time>2019-11-01T14:48:41Z</time>
      </trkpt>
      <trkpt lat="44.87843" lon="5.74153">
        <ele>754.42</ele>
        <time>2019-11-01T14:48:43Z</time>
      </trkpt>
      <trkpt lat="44.87843" lon="5.74156">
        <ele>756.45</ele>
        <time>2019-11-01T14:48:45Z</time>
      </trkpt>
      <trkpt lat="44.87843" lon="5.7416">
        <ele>758.19</ele>
        <time>2019-11-01T14:48:47Z</time>
      </trkpt>
      <trkpt lat="44.87843" lon="5.74164">
        <ele>759.97</ele>
        <time>2019-11-01T14:48:49Z</time>
      </trkpt>
      <trkpt lat="44.87846" lon="5.74167">
        <ele>761.12</ele>
        <time>2019-11-01T14:48:51Z</time>
      </trkpt>
      <trkpt lat="44.87849" lon="5.74166">
        <ele>761.85</ele>
        <time>2019-11-01T14:48:53Z</time>
      </trkpt>
      <trkpt lat="44.87851" lon="5.74165">
        <ele>761.99</ele>
        <time>2019-11-01T14:48:54Z</time>
      </trkpt>
      <trkpt lat="44.87853" lon="5.74164">
        <ele>762.1</ele>
        <time>2019-11-01T14:48:55Z</time>
      </trkpt>
      <trkpt lat="44.87856" lon="5.74161">
        <ele>763.02</ele>
        <time>2019-11-01T14:48:57Z</time>
      </trkpt>
      <trkpt lat="44.87858" lon="5.7416">
        <ele>763.32</ele>
        <time>2019-11-01T14:48:58Z</time>
      </trkpt>
      <trkpt lat="44.8786" lon="5.74159">
        <ele>763.69</ele>
        <time>2019-11-01T14:48:59Z</time>
      </trkpt>
      <trkpt lat="44.87862" lon="5.74158">
        <ele>764.08</ele>
        <time>2019-11-01T14:49:00Z</time>
      </trkpt>
      <trkpt lat="44.87865" lon="5.74157">
        <ele>764.92</ele>
        <time>2019-11-01T14:49:02Z</time>
      </trkpt>
      <trkpt lat="44.87868" lon="5.74154">
        <ele>765.75</ele>
        <time>2019-11-01T14:49:04Z</time>
      </trkpt>
      <trkpt lat="44.8787" lon="5.74152">
        <ele>766.58</ele>
        <time>2019-11-01T14:49:06Z</time>
      </trkpt>
      <trkpt lat="44.87873" lon="5.7415">
        <ele>767.4</ele>
        <time>2019-11-01T14:49:08Z</time>
      </trkpt>
      <trkpt lat="44.87875" lon="5.74148">
        <ele>767.71</ele>
        <time>2019-11-01T14:49:09Z</time>
      </trkpt>
      <trkpt lat="44.87876" lon="5.74147">
        <ele>768.16</ele>
        <time>2019-11-01T14:49:10Z</time>
      </trkpt>
      <trkpt lat="44.87878" lon="5.74145">
        <ele>768.64</ele>
        <time>2019-11-01T14:49:11Z</time>
      </trkpt>
      <trkpt lat="44.87881" lon="5.74144">
        <ele>769.19</ele>
        <time>2019-11-01T14:49:13Z</time>
      </trkpt>
      <trkpt lat="44.87885" lon="5.74141">
        <ele>769.41</ele>
        <time>2019-11-01T14:49:15Z</time>
      </trkpt>
      <trkpt lat="44.87887" lon="5.74141">
        <ele>769.3</ele>
        <time>2019-11-01T14:49:16Z</time>
      </trkpt>
      <trkpt lat="44.87889" lon="5.7414">
        <ele>769.33</ele>
        <time>2019-11-01T14:49:17Z</time>
      </trkpt>
      <trkpt lat="44.87891" lon="5.74141">
        <ele>769.62</ele>
        <time>2019-11-01T14:49:18Z</time>
      </trkpt>
      <trkpt lat="44.87893" lon="5.74142">
        <ele>769.71</ele>
        <time>2019-11-01T14:49:19Z</time>
      </trkpt>
      <trkpt lat="44.87894" lon="5.74144">
        <ele>770.02</ele>
        <time>2019-11-01T14:49:20Z</time>
      </trkpt>
      <trkpt lat="44.87894" lon="5.74148">
        <ele>770.87</ele>
        <time>2019-11-01T14:49:22Z</time>
      </trkpt>
      <trkpt lat="44.87893" lon="5.74153">
        <ele>772</ele>
        <time>2019-11-01T14:49:24Z</time>
      </trkpt>
      <trkpt lat="44.87893" lon="5.74158">
        <ele>772.92</ele>
        <time>2019-11-01T14:49:26Z</time>
      </trkpt>
      <trkpt lat="44.8789" lon="5.74161">
        <ele>773.86</ele>
        <time>2019-11-01T14:49:28Z</time>
      </trkpt>
      <trkpt lat="44.87889" lon="5.74163">
        <ele>774.2</ele>
        <time>2019-11-01T14:49:29Z</time>
      </trkpt>
      <trkpt lat="44.87888" lon="5.74165">
        <ele>774.59</ele>
        <time>2019-11-01T14:49:30Z</time>
      </trkpt>
      <trkpt lat="44.87887" lon="5.74168">
        <ele>774.91</ele>
        <time>2019-11-01T14:49:31Z</time>
      </trkpt>
      <trkpt lat="44.87886" lon="5.7417">
        <ele>775.22</ele>
        <time>2019-11-01T14:49:32Z</time>
      </trkpt>
      <trkpt lat="44.87884" lon="5.74171">
        <ele>775.52</ele>
        <time>2019-11-01T14:49:33Z</time>
      </trkpt>
      <trkpt lat="44.87882" lon="5.74173">
        <ele>775.89</ele>
        <time>2019-11-01T14:49:34Z</time>
      </trkpt>
      <trkpt lat="44.87881" lon="5.74174">
        <ele>776.28</ele>
        <time>2019-11-01T14:49:35Z</time>
      </trkpt>
      <trkpt lat="44.87879" lon="5.74177">
        <ele>776.54</ele>
        <time>2019-11-01T14:49:36Z</time>
      </trkpt>
      <trkpt lat="44.87878" lon="5.74178">
        <ele>776.69</ele>
        <time>2019-11-01T14:49:37Z</time>
      </trkpt>
      <trkpt lat="44.87876" lon="5.74181">
        <ele>776.73</ele>
        <time>2019-11-01T14:49:38Z</time>
      </trkpt>
      <trkpt lat="44.87875" lon="5.74183">
        <ele>776.95</ele>
        <time>2019-11-01T14:49:39Z</time>
      </trkpt>
      <trkpt lat="44.87873" lon="5.74184">
        <ele>777.3</ele>
        <time>2019-11-01T14:49:40Z</time>
      </trkpt>
      <trkpt lat="44.8787" lon="5.74186">
        <ele>777.94</ele>
        <time>2019-11-01T14:49:42Z</time>
      </trkpt>
      <trkpt lat="44.87867" lon="5.74189">
        <ele>778.36</ele>
        <time>2019-11-01T14:49:44Z</time>
      </trkpt>
      <trkpt lat="44.87865" lon="5.74192">
        <ele>778.69</ele>
        <time>2019-11-01T14:49:46Z</time>
      </trkpt>
      <trkpt lat="44.87863" lon="5.74194">
        <ele>779.04</ele>
        <time>2019-11-01T14:49:48Z</time>
      </trkpt>
      <trkpt lat="44.87861" lon="5.74196">
        <ele>779.21</ele>
        <time>2019-11-01T14:49:50Z</time>
      </trkpt>
      <trkpt lat="44.87857" lon="5.742">
        <ele>779.41</ele>
        <time>2019-11-01T14:49:52Z</time>
      </trkpt>
      <trkpt lat="44.87856" lon="5.74203">
        <ele>779.51</ele>
        <time>2019-11-01T14:49:53Z</time>
      </trkpt>
      <trkpt lat="44.87854" lon="5.74205">
        <ele>779.64</ele>
        <time>2019-11-01T14:49:55Z</time>
      </trkpt>
    </trkseg>
  </trk>
</gpx>